<?xml version='1.0' encoding='UTF-8'?><gpx version="1.1" creator="JPX - https://github.com/jenetics/jpx" xmlns="http://www.topografix.com/GPX/1/1"><trk><trkseg><trkpt lat="42.55156247776794" lon="12.420270581939532"><ele>325.0</ele><time>2026-04-04T10:09:29Z</time></trkpt><trkpt lat="42.551627188525266" lon="12.420228547940209"><ele>325.0</ele><time>2026-04-04T10:09:33Z</time></trkpt><trkpt lat="42.55170969761575" lon="12.420146301243266"><ele>325.0</ele><time>2026-04-04T10:09:35Z</time></trkpt><trkpt lat="42.55177981521347" lon="12.42005200449123"><ele>325.0</ele><time>2026-04-04T10:09:37Z</time></trkpt><trkpt lat="42.55184685424474" lon="12.419962941756253"><ele>325.0</ele><time>2026-04-04T10:09:39Z</time></trkpt><trkpt lat="42.55191163843606" lon="12.419861875727458"><ele>325.0</ele><time>2026-04-04T10:09:41Z</time></trkpt><trkpt lat="42.55197680179118" lon="12.41974870969024"><ele>325.0</ele><time>2026-04-04T10:09:43Z</time></trkpt><trkpt lat="42.552007252336956" lon="12.419606332685163"><ele>325.0</ele><time>2026-04-04T10:09:45Z</time></trkpt><trkpt lat="42.55205686540564" lon="12.419501782070798"><ele>325.0</ele><time>2026-04-04T10:09:47Z</time></trkpt><trkpt lat="42.55213213546487" lon="12.419403102345761"><ele>325.0</ele><time>2026-04-04T10:09:49Z</time></trkpt><trkpt lat="42.5522080370262" lon="12.419317432339165"><ele>325.8</ele><time>2026-04-04T10:09:51Z</time></trkpt><trkpt lat="42.5522667928145" lon="12.419180708978349"><ele>326.6</ele><time>2026-04-04T10:09:53Z</time></trkpt><trkpt lat="42.55230723591325" lon="12.419108461820008"><ele>327.4</ele><time>2026-04-04T10:09:54Z</time></trkpt><trkpt lat="42.552349426643666" lon="12.419025123216999"><ele>328.2</ele><time>2026-04-04T10:09:55Z</time></trkpt><trkpt lat="42.55241781592715" lon="12.418938276661125"><ele>329.0</ele><time>2026-04-04T10:09:56Z</time></trkpt><trkpt lat="42.55248734727329" lon="12.418842044052969"><ele>328.6666666666667</ele><time>2026-04-04T10:09:57Z</time></trkpt><trkpt lat="42.55247706158725" lon="12.418755401301556"><ele>328.33333333333337</ele><time>2026-04-04T10:09:59Z</time></trkpt><trkpt lat="42.55253050597597" lon="12.41867587514665"><ele>328.0</ele><time>2026-04-04T10:10:02Z</time></trkpt><trkpt lat="42.552587437148" lon="12.418561042264892"><ele>327.6666666666667</ele><time>2026-04-04T10:10:05Z</time></trkpt><trkpt lat="42.55262853964568" lon="12.41848554251382"><ele>327.3333333333333</ele><time>2026-04-04T10:10:07Z</time></trkpt><trkpt lat="42.55268997061345" lon="12.418378637921704"><ele>327.0</ele><time>2026-04-04T10:10:09Z</time></trkpt><trkpt lat="42.55273606560366" lon="12.41827909698822"><ele>327.0</ele><time>2026-04-04T10:10:11Z</time></trkpt><trkpt lat="42.55279742874142" lon="12.41814545808321"><ele>327.0</ele><time>2026-04-04T10:10:13Z</time></trkpt><trkpt lat="42.55284753497205" lon="12.418084959095559"><ele>327.0</ele><time>2026-04-04T10:10:14Z</time></trkpt><trkpt lat="42.55288430914772" lon="12.417994861465589"><ele>327.0</ele><time>2026-04-04T10:10:15Z</time></trkpt><trkpt lat="42.55294215747291" lon="12.41789309778359"><ele>327.0</ele><time>2026-04-04T10:10:17Z</time></trkpt><trkpt lat="42.55298753600251" lon="12.417814710829221"><ele>327.0</ele><time>2026-04-04T10:10:19Z</time></trkpt><trkpt lat="42.553028203320984" lon="12.417748231342422"><ele>327.42857142857144</ele><time>2026-04-04T10:10:21Z</time></trkpt><trkpt lat="42.55306770574716" lon="12.417674366520858"><ele>327.8571428571429</ele><time>2026-04-04T10:10:23Z</time></trkpt><trkpt lat="42.55311023258306" lon="12.41757455872449"><ele>328.28571428571433</ele><time>2026-04-04T10:10:25Z</time></trkpt><trkpt lat="42.55315540426578" lon="12.417512306575176"><ele>328.7142857142857</ele><time>2026-04-04T10:10:27Z</time></trkpt><trkpt lat="42.553202449179565" lon="12.417439780004772"><ele>329.14285714285717</ele><time>2026-04-04T10:10:29Z</time></trkpt><trkpt lat="42.55325199067322" lon="12.41736861056889"><ele>329.5714285714286</ele><time>2026-04-04T10:10:31Z</time></trkpt><trkpt lat="42.55329946644312" lon="12.417311960881179"><ele>330.0</ele><time>2026-04-04T10:10:33Z</time></trkpt><trkpt lat="42.55334663689942" lon="12.417247838204377"><ele>330.0</ele><time>2026-04-04T10:10:41Z</time></trkpt><trkpt lat="42.553419169744735" lon="12.41722723516407"><ele>330.0</ele><time>2026-04-04T10:10:44Z</time></trkpt><trkpt lat="42.553548455053956" lon="12.41743567209307"><ele>330.0</ele><time>2026-04-04T10:10:49Z</time></trkpt><trkpt lat="42.55360111167689" lon="12.417559914010983"><ele>330.0</ele><time>2026-04-04T10:10:51Z</time></trkpt><trkpt lat="42.55364121870484" lon="12.417638983687269"><ele>330.0</ele><time>2026-04-04T10:10:52Z</time></trkpt><trkpt lat="42.553686545490876" lon="12.417724071695897"><ele>330.0</ele><time>2026-04-04T10:10:53Z</time></trkpt><trkpt lat="42.55373513099529" lon="12.41782010999953"><ele>330.0</ele><time>2026-04-04T10:10:54Z</time></trkpt><trkpt lat="42.55379346301657" lon="12.417896375193063"><ele>330.0</ele><time>2026-04-04T10:10:55Z</time></trkpt><trkpt lat="42.553841468453776" lon="12.41795661840414"><ele>330.0</ele><time>2026-04-04T10:10:56Z</time></trkpt><trkpt lat="42.5538886292141" lon="12.418052284587354"><ele>330.0</ele><time>2026-04-04T10:10:58Z</time></trkpt><trkpt lat="42.553957091272196" lon="12.418151754244914"><ele>330.4</ele><time>2026-04-04T10:11:03Z</time></trkpt><trkpt lat="42.55410151104495" lon="12.418060045893725"><ele>330.8</ele><time>2026-04-04T10:11:04Z</time></trkpt><trkpt lat="42.554177164228165" lon="12.41805449207072"><ele>331.20000000000005</ele><time>2026-04-04T10:11:05Z</time></trkpt><trkpt lat="42.55424905251995" lon="12.418094058737625"><ele>331.6</ele><time>2026-04-04T10:11:06Z</time></trkpt><trkpt lat="42.55432201840246" lon="12.418118733840174"><ele>332.0</ele><time>2026-04-04T10:11:07Z</time></trkpt><trkpt lat="42.554394777503965" lon="12.418149503935435"><ele>332.0</ele><time>2026-04-04T10:11:08Z</time></trkpt><trkpt lat="42.554485359540315" lon="12.418182152446992"><ele>332.0</ele><time>2026-04-04T10:11:09Z</time></trkpt><trkpt lat="42.554576445427315" lon="12.418202313029274"><ele>332.0</ele><time>2026-04-04T10:11:10Z</time></trkpt><trkpt lat="42.55466499982374" lon="12.418190407329948"><ele>332.0</ele><time>2026-04-04T10:11:11Z</time></trkpt><trkpt lat="42.55475988837342" lon="12.418205233964933"><ele>332.0</ele><time>2026-04-04T10:11:12Z</time></trkpt><trkpt lat="42.5548575375097" lon="12.418225891738302"><ele>331.20000000000005</ele><time>2026-04-04T10:11:13Z</time></trkpt><trkpt lat="42.55494124372028" lon="12.418246560007756"><ele>330.4</ele><time>2026-04-04T10:11:14Z</time></trkpt><trkpt lat="42.55502599812075" lon="12.418264861070485"><ele>329.6</ele><time>2026-04-04T10:11:17Z</time></trkpt><trkpt lat="42.555148558354496" lon="12.41826900310529"><ele>328.79999999999995</ele><time>2026-04-04T10:11:19Z</time></trkpt><trkpt lat="42.55523699904881" lon="12.418275453685895"><ele>328.0</ele><time>2026-04-04T10:11:20Z</time></trkpt><trkpt lat="42.55532425795141" lon="12.418272865147834"><ele>326.1428571428571</ele><time>2026-04-04T10:11:21Z</time></trkpt><trkpt lat="42.555408121492064" lon="12.418266754465659"><ele>324.2857142857143</ele><time>2026-04-04T10:11:22Z</time></trkpt><trkpt lat="42.55548450411541" lon="12.418267958568704"><ele>322.42857142857144</ele><time>2026-04-04T10:11:23Z</time></trkpt><trkpt lat="42.55555418187859" lon="12.418254298102887"><ele>320.57142857142856</ele><time>2026-04-04T10:11:24Z</time></trkpt><trkpt lat="42.55561919642087" lon="12.418255053441776"><ele>318.7142857142857</ele><time>2026-04-04T10:11:25Z</time></trkpt><trkpt lat="42.55568156094676" lon="12.418226478942273"><ele>316.85714285714283</ele><time>2026-04-04T10:11:26Z</time></trkpt><trkpt lat="42.5557293062338" lon="12.418141824568687"><ele>315.0</ele><time>2026-04-04T10:11:27Z</time></trkpt><trkpt lat="42.55579165722195" lon="12.418080808234738"><ele>315.0</ele><time>2026-04-04T10:11:28Z</time></trkpt><trkpt lat="42.5558697085001" lon="12.418058745841012"><ele>315.0</ele><time>2026-04-04T10:11:29Z</time></trkpt><trkpt lat="42.55592670299604" lon="12.418012402128504"><ele>315.0</ele><time>2026-04-04T10:11:30Z</time></trkpt><trkpt lat="42.55596656178083" lon="12.417920621812758"><ele>315.0</ele><time>2026-04-04T10:11:31Z</time></trkpt><trkpt lat="42.55595563476894" lon="12.417807757025754"><ele>315.0</ele><time>2026-04-04T10:11:32Z</time></trkpt><trkpt lat="42.5559876148386" lon="12.417728637583828"><ele>315.0</ele><time>2026-04-04T10:11:33Z</time></trkpt><trkpt lat="42.55601839449301" lon="12.417642224219543"><ele>315.0</ele><time>2026-04-04T10:11:34Z</time></trkpt><trkpt lat="42.556072439914004" lon="12.417547479891844"><ele>314.8333333333333</ele><time>2026-04-04T10:11:35Z</time></trkpt><trkpt lat="42.556138074961" lon="12.417464553744653"><ele>314.6666666666667</ele><time>2026-04-04T10:11:36Z</time></trkpt><trkpt lat="42.55620570250053" lon="12.417380053281413"><ele>314.5</ele><time>2026-04-04T10:11:37Z</time></trkpt><trkpt lat="42.55627079681794" lon="12.417294445105542"><ele>314.33333333333337</ele><time>2026-04-04T10:11:38Z</time></trkpt><trkpt lat="42.556329126304746" lon="12.417202243557515"><ele>314.1666666666667</ele><time>2026-04-04T10:11:39Z</time></trkpt><trkpt lat="42.556354713133544" lon="12.417094248753362"><ele>314.0</ele><time>2026-04-04T10:11:40Z</time></trkpt><trkpt lat="42.55639774193415" lon="12.417018951425662"><ele>316.57142857142856</ele><time>2026-04-04T10:11:41Z</time></trkpt><trkpt lat="42.55645666839437" lon="12.4169693152798"><ele>319.1428571428571</ele><time>2026-04-04T10:11:42Z</time></trkpt><trkpt lat="42.556497326137084" lon="12.416880418543295"><ele>321.71428571428567</ele><time>2026-04-04T10:11:43Z</time></trkpt><trkpt lat="42.556551527821355" lon="12.416815557934502"><ele>324.2857142857143</ele><time>2026-04-04T10:11:44Z</time></trkpt><trkpt lat="42.55661152543906" lon="12.416753436634638"><ele>326.8571428571429</ele><time>2026-04-04T10:11:45Z</time></trkpt><trkpt lat="42.556665800517905" lon="12.416703199195462"><ele>329.4285714285714</ele><time>2026-04-04T10:11:46Z</time></trkpt><trkpt lat="42.55674613340892" lon="12.416655724170406"><ele>332.0</ele><time>2026-04-04T10:11:48Z</time></trkpt><trkpt lat="42.55680469191709" lon="12.416609902161184"><ele>332.0</ele><time>2026-04-04T10:11:59Z</time></trkpt><trkpt lat="42.556749681618534" lon="12.416662049314537"><ele>332.0</ele><time>2026-04-04T10:12:04Z</time></trkpt></trkseg><trkseg><trkpt lat="42.55687223535686" lon="12.405394147887023"><ele>322.0</ele><time>2026-04-04T10:17:46Z</time></trkpt><trkpt lat="42.55691293498208" lon="12.405319937183563"><ele>322.0</ele><time>2026-04-04T10:17:48Z</time></trkpt><trkpt lat="42.557022530242854" lon="12.405327173617277"><ele>322.0</ele><time>2026-04-04T10:17:50Z</time></trkpt><trkpt lat="42.557078003076846" lon="12.405286568845515"><ele>322.0</ele><time>2026-04-04T10:17:51Z</time></trkpt><trkpt lat="42.557144973156866" lon="12.40523754833373"><ele>322.0</ele><time>2026-04-04T10:17:53Z</time></trkpt><trkpt lat="42.55721681908865" lon="12.405184958805874"><ele>322.0</ele><time>2026-04-04T10:17:54Z</time></trkpt><trkpt lat="42.55733556357399" lon="12.405098040787433"><ele>321.5</ele><time>2026-04-04T10:17:56Z</time></trkpt><trkpt lat="42.55739408546364" lon="12.405059617947968"><ele>321.0</ele><time>2026-04-04T10:17:57Z</time></trkpt><trkpt lat="42.55745469058784" lon="12.405020970458368"><ele>320.5</ele><time>2026-04-04T10:17:58Z</time></trkpt><trkpt lat="42.55751732699823" lon="12.404980596652836"><ele>320.0</ele><time>2026-04-04T10:17:59Z</time></trkpt><trkpt lat="42.5575811759879" lon="12.404910636582631"><ele>319.5</ele><time>2026-04-04T10:18:00Z</time></trkpt><trkpt lat="42.557682617027524" lon="12.404840217144027"><ele>319.0</ele><time>2026-04-04T10:18:02Z</time></trkpt><trkpt lat="42.55774885497481" lon="12.404795548699184"><ele>319.0</ele><time>2026-04-04T10:18:03Z</time></trkpt><trkpt lat="42.557816028860444" lon="12.404771859189616"><ele>319.0</ele><time>2026-04-04T10:18:04Z</time></trkpt><trkpt lat="42.55789070506678" lon="12.404734662153258"><ele>319.0</ele><time>2026-04-04T10:18:05Z</time></trkpt><trkpt lat="42.55795696411784" lon="12.404721914551642"><ele>319.0</ele><time>2026-04-04T10:18:06Z</time></trkpt><trkpt lat="42.55804388014485" lon="12.404715680342255"><ele>319.0</ele><time>2026-04-04T10:18:07Z</time></trkpt><trkpt lat="42.55818019878439" lon="12.404698939151338"><ele>319.0</ele><time>2026-04-04T10:18:09Z</time></trkpt><trkpt lat="42.558251123796076" lon="12.404694230653476"><ele>320.16666666666663</ele><time>2026-04-04T10:18:10Z</time></trkpt><trkpt lat="42.55832179724174" lon="12.404694428021298"><ele>321.3333333333333</ele><time>2026-04-04T10:18:11Z</time></trkpt><trkpt lat="42.55839579553793" lon="12.404677845458465"><ele>322.5</ele><time>2026-04-04T10:18:12Z</time></trkpt><trkpt lat="42.5584757808921" lon="12.404685707646152"><ele>323.6666666666667</ele><time>2026-04-04T10:18:13Z</time></trkpt><trkpt lat="42.5585551464808" lon="12.404685572300972"><ele>324.83333333333337</ele><time>2026-04-04T10:18:14Z</time></trkpt><trkpt lat="42.55863315469176" lon="12.404711913248107"><ele>326.0</ele><time>2026-04-04T10:18:15Z</time></trkpt><trkpt lat="42.558705349815845" lon="12.404727885769072"><ele>327.33333333333337</ele><time>2026-04-04T10:18:16Z</time></trkpt><trkpt lat="42.558761474693185" lon="12.40476964781472"><ele>328.6666666666667</ele><time>2026-04-04T10:18:17Z</time></trkpt><trkpt lat="42.55883109856998" lon="12.404797575487946"><ele>330.0</ele><time>2026-04-04T10:18:18Z</time></trkpt><trkpt lat="42.55889650839052" lon="12.404816582909287"><ele>331.3333333333333</ele><time>2026-04-04T10:18:19Z</time></trkpt><trkpt lat="42.55897437761671" lon="12.404830432491265"><ele>332.66666666666663</ele><time>2026-04-04T10:18:20Z</time></trkpt><trkpt lat="42.559065273511365" lon="12.404855934846692"><ele>334.0</ele><time>2026-04-04T10:18:21Z</time></trkpt><trkpt lat="42.55912832762904" lon="12.404744638237878"><ele>334.0</ele><time>2026-04-04T10:18:22Z</time></trkpt><trkpt lat="42.55919391855074" lon="12.404691914216862"><ele>334.0</ele><time>2026-04-04T10:18:23Z</time></trkpt><trkpt lat="42.55927517973209" lon="12.40466033772061"><ele>334.0</ele><time>2026-04-04T10:18:24Z</time></trkpt><trkpt lat="42.55934923805895" lon="12.404596514159525"><ele>334.0</ele><time>2026-04-04T10:18:25Z</time></trkpt><trkpt lat="42.559423867785895" lon="12.404557760129748"><ele>334.0</ele><time>2026-04-04T10:18:26Z</time></trkpt><trkpt lat="42.55949757653539" lon="12.40451102499926"><ele>334.0</ele><time>2026-04-04T10:18:27Z</time></trkpt><trkpt lat="42.55957266263461" lon="12.404459965149714"><ele>334.3333333333333</ele><time>2026-04-04T10:18:28Z</time></trkpt><trkpt lat="42.559653760871285" lon="12.404435379385884"><ele>334.66666666666663</ele><time>2026-04-04T10:18:29Z</time></trkpt><trkpt lat="42.55972782904694" lon="12.404401798759919"><ele>335.0</ele><time>2026-04-04T10:18:30Z</time></trkpt><trkpt lat="42.55979676614793" lon="12.404352519388915"><ele>335.3333333333333</ele><time>2026-04-04T10:18:31Z</time></trkpt><trkpt lat="42.55986878795673" lon="12.40430975298578"><ele>335.6666666666667</ele><time>2026-04-04T10:18:32Z</time></trkpt><trkpt lat="42.559945465743" lon="12.404262206325642"><ele>336.0</ele><time>2026-04-04T10:18:33Z</time></trkpt><trkpt lat="42.56002156519179" lon="12.404234683823272"><ele>336.0</ele><time>2026-04-04T10:18:34Z</time></trkpt><trkpt lat="42.56009846376629" lon="12.40419422148109"><ele>336.0</ele><time>2026-04-04T10:18:35Z</time></trkpt><trkpt lat="42.56017295544216" lon="12.404165746722812"><ele>336.0</ele><time>2026-04-04T10:18:36Z</time></trkpt><trkpt lat="42.56024574090586" lon="12.404146855682608"><ele>336.0</ele><time>2026-04-04T10:18:37Z</time></trkpt><trkpt lat="42.56030939833031" lon="12.4041392280857"><ele>336.0</ele><time>2026-04-04T10:18:38Z</time></trkpt><trkpt lat="42.560430105804244" lon="12.404123031985005"><ele>336.0</ele><time>2026-04-04T10:18:40Z</time></trkpt><trkpt lat="42.56053953518022" lon="12.404108349122174"><ele>336.5</ele><time>2026-04-04T10:18:42Z</time></trkpt><trkpt lat="42.560646051358745" lon="12.404094057150306"><ele>337.0</ele><time>2026-04-04T10:18:44Z</time></trkpt><trkpt lat="42.560511107671296" lon="12.404324709285014"><ele>337.5</ele><time>2026-04-04T10:18:45Z</time></trkpt><trkpt lat="42.56057347238115" lon="12.404400583540285"><ele>338.0</ele><time>2026-04-04T10:18:47Z</time></trkpt><trkpt lat="42.560635821685736" lon="12.40445705070484"><ele>338.0</ele><time>2026-04-04T10:18:48Z</time></trkpt><trkpt lat="42.56071318298394" lon="12.404513146595576"><ele>338.0</ele><time>2026-04-04T10:18:50Z</time></trkpt><trkpt lat="42.56111685939652" lon="12.403882139856348"><ele>339.2</ele><time>2026-04-04T10:18:52Z</time></trkpt><trkpt lat="42.56118312482077" lon="12.40382461813233"><ele>340.4</ele><time>2026-04-04T10:18:53Z</time></trkpt><trkpt lat="42.56124851686525" lon="12.40376305567145"><ele>341.59999999999997</ele><time>2026-04-04T10:18:54Z</time></trkpt><trkpt lat="42.56137494965433" lon="12.403715723287721"><ele>342.79999999999995</ele><time>2026-04-04T10:18:56Z</time></trkpt><trkpt lat="42.561497200252504" lon="12.403620546102282"><ele>344.0</ele><time>2026-04-04T10:18:58Z</time></trkpt><trkpt lat="42.56158202691985" lon="12.403501870890427"><ele>345.33333333333337</ele><time>2026-04-04T10:19:00Z</time></trkpt><trkpt lat="42.561633537649264" lon="12.403429687551155"><ele>346.6666666666667</ele><time>2026-04-04T10:19:01Z</time></trkpt><trkpt lat="42.56169999338894" lon="12.40337238421891"><ele>348.0</ele><time>2026-04-04T10:19:02Z</time></trkpt><trkpt lat="42.561767332501724" lon="12.403294909623536"><ele>349.3333333333333</ele><time>2026-04-04T10:19:03Z</time></trkpt><trkpt lat="42.56183092540478" lon="12.403248130341698"><ele>350.66666666666663</ele><time>2026-04-04T10:19:04Z</time></trkpt><trkpt lat="42.56187116147242" lon="12.40317431283278"><ele>352.0</ele><time>2026-04-04T10:19:05Z</time></trkpt><trkpt lat="42.56192868943619" lon="12.403114620003414"><ele>352.0</ele><time>2026-04-04T10:19:06Z</time></trkpt><trkpt lat="42.56198771324192" lon="12.403055390188566"><ele>352.0</ele><time>2026-04-04T10:19:07Z</time></trkpt><trkpt lat="42.56205010453462" lon="12.402988530650864"><ele>352.0</ele><time>2026-04-04T10:19:08Z</time></trkpt><trkpt lat="42.5621136765325" lon="12.402931951315624"><ele>352.0</ele><time>2026-04-04T10:19:09Z</time></trkpt><trkpt lat="42.56221484587026" lon="12.402873704386764"><ele>352.0</ele><time>2026-04-04T10:19:11Z</time></trkpt><trkpt lat="42.562278022562005" lon="12.402783018601282"><ele>352.0</ele><time>2026-04-04T10:19:13Z</time></trkpt><trkpt lat="42.56230058375988" lon="12.402702603652713"><ele>353.0</ele><time>2026-04-04T10:19:14Z</time></trkpt><trkpt lat="42.56230612365024" lon="12.402609511913399"><ele>354.0</ele><time>2026-04-04T10:19:15Z</time></trkpt><trkpt lat="42.562327023837796" lon="12.402521716137432"><ele>355.0</ele><time>2026-04-04T10:19:16Z</time></trkpt><trkpt lat="42.562327611583065" lon="12.402426535749013"><ele>356.0</ele><time>2026-04-04T10:19:17Z</time></trkpt><trkpt lat="42.56232828274617" lon="12.402327067990619"><ele>357.0</ele><time>2026-04-04T10:19:18Z</time></trkpt><trkpt lat="42.56232895915809" lon="12.402226823684531"><ele>358.0</ele><time>2026-04-04T10:19:19Z</time></trkpt><trkpt lat="42.56232705399076" lon="12.402130321166176"><ele>359.0</ele><time>2026-04-04T10:19:20Z</time></trkpt><trkpt lat="42.562323025964346" lon="12.402030107623636"><ele>360.14285714285717</ele><time>2026-04-04T10:19:21Z</time></trkpt><trkpt lat="42.56232952347826" lon="12.401931671987334"><ele>361.28571428571433</ele><time>2026-04-04T10:19:22Z</time></trkpt><trkpt lat="42.56235118389955" lon="12.401837502433459"><ele>362.42857142857144</ele><time>2026-04-04T10:19:23Z</time></trkpt><trkpt lat="42.562359720058645" lon="12.401746388282175"><ele>363.57142857142856</ele><time>2026-04-04T10:19:24Z</time></trkpt><trkpt lat="42.56234871581564" lon="12.40164050310638"><ele>364.7142857142857</ele><time>2026-04-04T10:19:25Z</time></trkpt><trkpt lat="42.56236577249446" lon="12.401548705155244"><ele>365.85714285714283</ele><time>2026-04-04T10:19:26Z</time></trkpt><trkpt lat="42.56235891978849" lon="12.40145598834578"><ele>367.0</ele><time>2026-04-04T10:19:27Z</time></trkpt><trkpt lat="42.56235307105858" lon="12.401360733253545"><ele>368.8333333333333</ele><time>2026-04-04T10:19:28Z</time></trkpt><trkpt lat="42.56234804753807" lon="12.401259621932773"><ele>370.66666666666663</ele><time>2026-04-04T10:19:29Z</time></trkpt><trkpt lat="42.562349679454215" lon="12.401166407519057"><ele>372.5</ele><time>2026-04-04T10:19:30Z</time></trkpt><trkpt lat="42.56236631075064" lon="12.401020324878829"><ele>374.3333333333333</ele><time>2026-04-04T10:19:32Z</time></trkpt><trkpt lat="42.56241836882531" lon="12.400929504889907"><ele>376.1666666666667</ele><time>2026-04-04T10:19:35Z</time></trkpt><trkpt lat="42.562504172473986" lon="12.400918185316652"><ele>378.0</ele><time>2026-04-04T10:19:37Z</time></trkpt><trkpt lat="42.56258100213014" lon="12.400873931837074"><ele>378.0</ele><time>2026-04-04T10:19:39Z</time></trkpt><trkpt lat="42.56266417461909" lon="12.400802664214869"><ele>378.0</ele><time>2026-04-04T10:19:41Z</time></trkpt><trkpt lat="42.56272905520623" lon="12.400715148100813"><ele>378.0</ele><time>2026-04-04T10:19:43Z</time></trkpt><trkpt lat="42.56278110939067" lon="12.400593002322944"><ele>378.0</ele><time>2026-04-04T10:19:45Z</time></trkpt><trkpt lat="42.562826397356325" lon="12.400467490321473"><ele>378.0</ele><time>2026-04-04T10:19:47Z</time></trkpt><trkpt lat="42.56288056293052" lon="12.400344213771264"><ele>379.79999999999995</ele><time>2026-04-04T10:19:49Z</time></trkpt><trkpt lat="42.56295281345359" lon="12.400233143891874"><ele>381.6</ele><time>2026-04-04T10:19:51Z</time></trkpt><trkpt lat="42.56300474510175" lon="12.400118301748746"><ele>383.4</ele><time>2026-04-04T10:19:53Z</time></trkpt><trkpt lat="42.563060459594155" lon="12.39998593556127"><ele>385.20000000000005</ele><time>2026-04-04T10:19:55Z</time></trkpt><trkpt lat="42.56309922302405" lon="12.39986433702086"><ele>387.0</ele><time>2026-04-04T10:19:57Z</time></trkpt><trkpt lat="42.563123998583926" lon="12.39972640403691"><ele>388.20000000000005</ele><time>2026-04-04T10:19:59Z</time></trkpt><trkpt lat="42.56314277197091" lon="12.39959812783296"><ele>389.4</ele><time>2026-04-04T10:20:01Z</time></trkpt><trkpt lat="42.563138388921935" lon="12.399476880444734"><ele>390.6</ele><time>2026-04-04T10:20:03Z</time></trkpt><trkpt lat="42.56312384070545" lon="12.399339591805688"><ele>391.79999999999995</ele><time>2026-04-04T10:20:05Z</time></trkpt><trkpt lat="42.56309988842687" lon="12.399201093228847"><ele>393.0</ele><time>2026-04-04T10:20:07Z</time></trkpt><trkpt lat="42.56309619283062" lon="12.399068414638162"><ele>393.0</ele><time>2026-04-04T10:20:09Z</time></trkpt><trkpt lat="42.56309782034222" lon="12.398927474498036"><ele>393.0</ele><time>2026-04-04T10:20:11Z</time></trkpt><trkpt lat="42.563082300654294" lon="12.398775157934793"><ele>393.0</ele><time>2026-04-04T10:20:13Z</time></trkpt><trkpt lat="42.56306209728589" lon="12.398618493437672"><ele>393.0</ele><time>2026-04-04T10:20:15Z</time></trkpt><trkpt lat="42.56306866769699" lon="12.398450261354277"><ele>394.0</ele><time>2026-04-04T10:20:17Z</time></trkpt><trkpt lat="42.563056685447656" lon="12.39835317681458"><ele>395.0</ele><time>2026-04-04T10:20:18Z</time></trkpt><trkpt lat="42.563046059922314" lon="12.398258823231005"><ele>396.0</ele><time>2026-04-04T10:20:19Z</time></trkpt><trkpt lat="42.56303716655352" lon="12.398164924299135"><ele>397.0</ele><time>2026-04-04T10:20:20Z</time></trkpt><trkpt lat="42.56305770071232" lon="12.397997202552128"><ele>398.0</ele><time>2026-04-04T10:20:22Z</time></trkpt><trkpt lat="42.56305088914254" lon="12.397910718597446"><ele>399.0</ele><time>2026-04-04T10:20:23Z</time></trkpt><trkpt lat="42.56304414391362" lon="12.397825076901459"><ele>400.5</ele><time>2026-04-04T10:20:24Z</time></trkpt><trkpt lat="42.563037059328416" lon="12.397735126578155"><ele>402.0</ele><time>2026-04-04T10:20:25Z</time></trkpt><trkpt lat="42.56303017387009" lon="12.397647704429192"><ele>403.5</ele><time>2026-04-04T10:20:26Z</time></trkpt><trkpt lat="42.56302133080984" lon="12.397558976258875"><ele>405.0</ele><time>2026-04-04T10:20:27Z</time></trkpt><trkpt lat="42.56300468948324" lon="12.397405034509097"><ele>406.5</ele><time>2026-04-04T10:20:29Z</time></trkpt><trkpt lat="42.56299502953896" lon="12.397253237876761"><ele>408.0</ele><time>2026-04-04T10:20:31Z</time></trkpt><trkpt lat="42.562984426245094" lon="12.397087201272177"><ele>409.2</ele><time>2026-04-04T10:20:33Z</time></trkpt><trkpt lat="42.562971486118045" lon="12.396922981584527"><ele>410.4</ele><time>2026-04-04T10:20:35Z</time></trkpt><trkpt lat="42.562955950724955" lon="12.396765762568403"><ele>411.59999999999997</ele><time>2026-04-04T10:20:37Z</time></trkpt><trkpt lat="42.56293657791371" lon="12.396605909755776"><ele>412.79999999999995</ele><time>2026-04-04T10:20:39Z</time></trkpt><trkpt lat="42.562931486041975" lon="12.39651831358052"><ele>414.0</ele><time>2026-04-04T10:20:40Z</time></trkpt><trkpt lat="42.56293337415468" lon="12.396354867344352"><ele>414.6</ele><time>2026-04-04T10:20:42Z</time></trkpt><trkpt lat="42.562908602561485" lon="12.3961853447512"><ele>415.2</ele><time>2026-04-04T10:20:44Z</time></trkpt><trkpt lat="42.562911892051915" lon="12.396013328235611"><ele>415.8</ele><time>2026-04-04T10:20:46Z</time></trkpt><trkpt lat="42.56290197505511" lon="12.395928192688835"><ele>416.40000000000003</ele><time>2026-04-04T10:20:47Z</time></trkpt><trkpt lat="42.56289407870156" lon="12.395834615326066"><ele>417.0</ele><time>2026-04-04T10:20:48Z</time></trkpt><trkpt lat="42.5628853556978" lon="12.395732598320958"><ele>417.0</ele><time>2026-04-04T10:20:49Z</time></trkpt><trkpt lat="42.5628771268229" lon="12.395618658053145"><ele>417.0</ele><time>2026-04-04T10:20:50Z</time></trkpt><trkpt lat="42.56287028725237" lon="12.395521947981964"><ele>417.0</ele><time>2026-04-04T10:20:51Z</time></trkpt><trkpt lat="42.56285719483691" lon="12.39541994939056"><ele>417.0</ele><time>2026-04-04T10:20:52Z</time></trkpt><trkpt lat="42.56285083372975" lon="12.395321303448052"><ele>417.0</ele><time>2026-04-04T10:20:53Z</time></trkpt><trkpt lat="42.5628465048149" lon="12.395220585460043"><ele>417.0</ele><time>2026-04-04T10:20:54Z</time></trkpt><trkpt lat="42.56284638114556" lon="12.395128503533677"><ele>417.0</ele><time>2026-04-04T10:20:55Z</time></trkpt><trkpt lat="42.56286594518029" lon="12.394961791744082"><ele>416.42857142857144</ele><time>2026-04-04T10:20:57Z</time></trkpt><trkpt lat="42.56288782491844" lon="12.3948768754035"><ele>415.85714285714283</ele><time>2026-04-04T10:20:58Z</time></trkpt><trkpt lat="42.56290927469926" lon="12.394794214547387"><ele>415.2857142857143</ele><time>2026-04-04T10:20:59Z</time></trkpt><trkpt lat="42.5629340219221" lon="12.394699325035178"><ele>414.7142857142857</ele><time>2026-04-04T10:21:00Z</time></trkpt><trkpt lat="42.56296077086674" lon="12.394606503888097"><ele>414.1428571428571</ele><time>2026-04-04T10:21:01Z</time></trkpt><trkpt lat="42.5629838579374" lon="12.394516864049976"><ele>413.57142857142856</ele><time>2026-04-04T10:21:02Z</time></trkpt><trkpt lat="42.563017451443" lon="12.394430589224157"><ele>413.0</ele><time>2026-04-04T10:21:03Z</time></trkpt><trkpt lat="42.56303465295112" lon="12.394343797473221"><ele>411.59999999999997</ele><time>2026-04-04T10:21:04Z</time></trkpt><trkpt lat="42.56305163120274" lon="12.394255748675874"><ele>410.2</ele><time>2026-04-04T10:21:05Z</time></trkpt><trkpt lat="42.56309696235043" lon="12.39410400071539"><ele>408.8</ele><time>2026-04-04T10:21:07Z</time></trkpt><trkpt lat="42.56312822326324" lon="12.39395723791511"><ele>407.4</ele><time>2026-04-04T10:21:09Z</time></trkpt><trkpt lat="42.563165553701616" lon="12.393798251488928"><ele>406.0</ele><time>2026-04-04T10:21:11Z</time></trkpt><trkpt lat="42.563210698197366" lon="12.393639101086045"><ele>404.6666666666667</ele><time>2026-04-04T10:21:13Z</time></trkpt><trkpt lat="42.56323888771504" lon="12.39355820458333"><ele>403.33333333333337</ele><time>2026-04-04T10:21:14Z</time></trkpt><trkpt lat="42.56327907108457" lon="12.393475343814943"><ele>402.0</ele><time>2026-04-04T10:21:15Z</time></trkpt><trkpt lat="42.56332870445361" lon="12.393394467812506"><ele>400.66666666666663</ele><time>2026-04-04T10:21:16Z</time></trkpt><trkpt lat="42.5633782957926" lon="12.393313150109151"><ele>399.3333333333333</ele><time>2026-04-04T10:21:17Z</time></trkpt><trkpt lat="42.5634215779538" lon="12.393247742786349"><ele>398.0</ele><time>2026-04-04T10:21:18Z</time></trkpt><trkpt lat="42.56350244593158" lon="12.393132869925273"><ele>398.0</ele><time>2026-04-04T10:21:20Z</time></trkpt><trkpt lat="42.56358461371976" lon="12.393046613083905"><ele>398.0</ele><time>2026-04-04T10:21:22Z</time></trkpt><trkpt lat="42.563631844542265" lon="12.392965793740807"><ele>398.0</ele><time>2026-04-04T10:21:24Z</time></trkpt><trkpt lat="42.56361516166021" lon="12.392873227560663"><ele>398.0</ele><time>2026-04-04T10:21:27Z</time></trkpt><trkpt lat="42.56368322848206" lon="12.392768398580055"><ele>398.0</ele><time>2026-04-04T10:21:55Z</time></trkpt><trkpt lat="42.563695061564665" lon="12.39258990312042"><ele>397.79999999999995</ele><time>2026-04-04T10:21:57Z</time></trkpt><trkpt lat="42.56362064125795" lon="12.39248853025589"><ele>397.6</ele><time>2026-04-04T10:21:58Z</time></trkpt><trkpt lat="42.56355969938448" lon="12.392404320961695"><ele>397.4</ele><time>2026-04-04T10:21:59Z</time></trkpt><trkpt lat="42.563500447331435" lon="12.39232072898664"><ele>397.20000000000005</ele><time>2026-04-04T10:22:00Z</time></trkpt><trkpt lat="42.56343297960532" lon="12.392241780803488"><ele>397.0</ele><time>2026-04-04T10:22:01Z</time></trkpt><trkpt lat="42.56336820066793" lon="12.392148184714506"><ele>398.8</ele><time>2026-04-04T10:22:02Z</time></trkpt><trkpt lat="42.563304535160114" lon="12.392064444009986"><ele>400.6</ele><time>2026-04-04T10:22:03Z</time></trkpt><trkpt lat="42.563239422513526" lon="12.391970416732251"><ele>402.40000000000003</ele><time>2026-04-04T10:22:04Z</time></trkpt><trkpt lat="42.56316074791697" lon="12.391899629116729"><ele>404.20000000000005</ele><time>2026-04-04T10:22:05Z</time></trkpt><trkpt lat="42.5630783820728" lon="12.391818337022984"><ele>406.0</ele><time>2026-04-04T10:22:06Z</time></trkpt><trkpt lat="42.56299326749078" lon="12.391735836579185"><ele>406.0</ele><time>2026-04-04T10:22:07Z</time></trkpt><trkpt lat="42.56291678956279" lon="12.391663236837472"><ele>406.0</ele><time>2026-04-04T10:22:08Z</time></trkpt><trkpt lat="42.56283554664871" lon="12.39158594729603"><ele>406.0</ele><time>2026-04-04T10:22:09Z</time></trkpt><trkpt lat="42.56275927531939" lon="12.391508857931257"><ele>406.0</ele><time>2026-04-04T10:22:10Z</time></trkpt><trkpt lat="42.56268088263845" lon="12.39143389219387"><ele>406.0</ele><time>2026-04-04T10:22:11Z</time></trkpt><trkpt lat="42.56259887053568" lon="12.39136871910863"><ele>407.33333333333337</ele><time>2026-04-04T10:22:12Z</time></trkpt><trkpt lat="42.562519597817435" lon="12.39128886128225"><ele>408.6666666666667</ele><time>2026-04-04T10:22:13Z</time></trkpt><trkpt lat="42.562450502658734" lon="12.391219502870907"><ele>410.0</ele><time>2026-04-04T10:22:14Z</time></trkpt><trkpt lat="42.562376746124016" lon="12.391159908268758"><ele>411.33333333333337</ele><time>2026-04-04T10:22:15Z</time></trkpt><trkpt lat="42.56230464293924" lon="12.391104487289656"><ele>412.6666666666667</ele><time>2026-04-04T10:22:16Z</time></trkpt><trkpt lat="42.5622354054705" lon="12.391036800495874"><ele>414.0</ele><time>2026-04-04T10:22:17Z</time></trkpt><trkpt lat="42.56217300729467" lon="12.390956384204443"><ele>414.0</ele><time>2026-04-04T10:22:18Z</time></trkpt><trkpt lat="42.562089924902395" lon="12.390901975165301"><ele>414.0</ele><time>2026-04-04T10:22:19Z</time></trkpt><trkpt lat="42.56202069495133" lon="12.39084271411708"><ele>414.0</ele><time>2026-04-04T10:22:20Z</time></trkpt><trkpt lat="42.561948818469105" lon="12.390778610245425"><ele>414.0</ele><time>2026-04-04T10:22:21Z</time></trkpt><trkpt lat="42.56187788076771" lon="12.390717918328358"><ele>414.0</ele><time>2026-04-04T10:22:22Z</time></trkpt><trkpt lat="42.561823171300176" lon="12.390650918621114"><ele>414.0</ele><time>2026-04-04T10:22:23Z</time></trkpt><trkpt lat="42.56171605193144" lon="12.390555688968906"><ele>415.25</ele><time>2026-04-04T10:22:25Z</time></trkpt><trkpt lat="42.56161495881185" lon="12.39046028602092"><ele>416.5</ele><time>2026-04-04T10:22:27Z</time></trkpt><trkpt lat="42.56153658494502" lon="12.39035272923814"><ele>417.75</ele><time>2026-04-04T10:22:29Z</time></trkpt><trkpt lat="42.56143987140584" lon="12.390265742015679"><ele>419.0</ele><time>2026-04-04T10:22:31Z</time></trkpt><trkpt lat="42.561399495753626" lon="12.390136316150732"><ele>419.0</ele><time>2026-04-04T10:22:33Z</time></trkpt><trkpt lat="42.561240400923246" lon="12.390154792170781"><ele>419.0</ele><time>2026-04-04T10:22:35Z</time></trkpt><trkpt lat="42.56115567145826" lon="12.390091398800184"><ele>419.0</ele><time>2026-04-04T10:22:37Z</time></trkpt><trkpt lat="42.561083334021504" lon="12.390030748631144"><ele>419.0</ele><time>2026-04-04T10:22:39Z</time></trkpt><trkpt lat="42.56101319750769" lon="12.389971076257428"><ele>419.0</ele><time>2026-04-04T10:22:41Z</time></trkpt><trkpt lat="42.56094817816515" lon="12.38990774341785"><ele>418.8333333333333</ele><time>2026-04-04T10:22:43Z</time></trkpt><trkpt lat="42.560874690927605" lon="12.38983625822662"><ele>418.66666666666663</ele><time>2026-04-04T10:22:45Z</time></trkpt><trkpt lat="42.560796296744" lon="12.389765799182468"><ele>418.5</ele><time>2026-04-04T10:22:47Z</time></trkpt><trkpt lat="42.56073906621026" lon="12.389708259330247"><ele>418.33333333333337</ele><time>2026-04-04T10:22:49Z</time></trkpt><trkpt lat="42.56067457438507" lon="12.389645932941615"><ele>418.1666666666667</ele><time>2026-04-04T10:22:53Z</time></trkpt><trkpt lat="42.56060606706659" lon="12.389571018389017"><ele>418.0</ele><time>2026-04-04T10:22:56Z</time></trkpt><trkpt lat="42.560541658395366" lon="12.389503265857352"><ele>418.0</ele><time>2026-04-04T10:22:58Z</time></trkpt><trkpt lat="42.560482041399496" lon="12.38942653333226"><ele>418.0</ele><time>2026-04-04T10:23:00Z</time></trkpt><trkpt lat="42.560420082929575" lon="12.389343417633363"><ele>418.0</ele><time>2026-04-04T10:23:02Z</time></trkpt><trkpt lat="42.56037699175261" lon="12.389239531796362"><ele>418.0</ele><time>2026-04-04T10:23:04Z</time></trkpt><trkpt lat="42.560309245676244" lon="12.389141174137867"><ele>418.0</ele><time>2026-04-04T10:23:06Z</time></trkpt><trkpt lat="42.56026228553798" lon="12.389029805433593"><ele>416.6666666666667</ele><time>2026-04-04T10:23:08Z</time></trkpt><trkpt lat="42.56020837640151" lon="12.38894145626713"><ele>415.33333333333337</ele><time>2026-04-04T10:23:10Z</time></trkpt><trkpt lat="42.56015258281092" lon="12.388861860702411"><ele>414.0</ele><time>2026-04-04T10:23:13Z</time></trkpt><trkpt lat="42.56010721718606" lon="12.388784700127928"><ele>412.66666666666663</ele><time>2026-04-04T10:23:16Z</time></trkpt><trkpt lat="42.560051208443696" lon="12.38868195102573"><ele>411.3333333333333</ele><time>2026-04-04T10:23:19Z</time></trkpt><trkpt lat="42.56000577441404" lon="12.388599644764238"><ele>410.0</ele><time>2026-04-04T10:23:21Z</time></trkpt><trkpt lat="42.55995300164641" lon="12.388528853630968"><ele>409.4</ele><time>2026-04-04T10:23:24Z</time></trkpt><trkpt lat="42.55990597697152" lon="12.38844338863799"><ele>408.8</ele><time>2026-04-04T10:23:28Z</time></trkpt><trkpt lat="42.5598586208753" lon="12.388356782451968"><ele>408.20000000000005</ele><time>2026-04-04T10:23:32Z</time></trkpt><trkpt lat="42.559839265647724" lon="12.388167891779196"><ele>407.6</ele><time>2026-04-04T10:23:34Z</time></trkpt><trkpt lat="42.55982179968371" lon="12.38802804862705"><ele>407.0</ele><time>2026-04-04T10:23:35Z</time></trkpt><trkpt lat="42.559783515572185" lon="12.387866722914362"><ele>405.75</ele><time>2026-04-04T10:23:36Z</time></trkpt><trkpt lat="42.559761257991035" lon="12.3876987069261"><ele>404.5</ele><time>2026-04-04T10:23:37Z</time></trkpt><trkpt lat="42.55974598630995" lon="12.387524345435672"><ele>403.25</ele><time>2026-04-04T10:23:38Z</time></trkpt><trkpt lat="42.55972682715087" lon="12.387348221599453"><ele>402.0</ele><time>2026-04-04T10:23:39Z</time></trkpt><trkpt lat="42.559698882637356" lon="12.387174276395474"><ele>402.0</ele><time>2026-04-04T10:23:40Z</time></trkpt><trkpt lat="42.559673973267635" lon="12.386993681732331"><ele>402.0</ele><time>2026-04-04T10:23:41Z</time></trkpt><trkpt lat="42.55964828776909" lon="12.386804426940092"><ele>402.0</ele><time>2026-04-04T10:23:42Z</time></trkpt><trkpt lat="42.559642860190166" lon="12.386584625087375"><ele>402.0</ele><time>2026-04-04T10:23:43Z</time></trkpt><trkpt lat="42.55960032010341" lon="12.386369931884616"><ele>403.0</ele><time>2026-04-04T10:23:44Z</time></trkpt><trkpt lat="42.559575831874184" lon="12.38615200278931"><ele>404.0</ele><time>2026-04-04T10:23:45Z</time></trkpt><trkpt lat="42.55954973790743" lon="12.385925082939966"><ele>405.0</ele><time>2026-04-04T10:23:46Z</time></trkpt><trkpt lat="42.55951910270392" lon="12.385703229062765"><ele>403.0</ele><time>2026-04-04T10:23:47Z</time></trkpt><trkpt lat="42.55949498333981" lon="12.385476539687069"><ele>401.0</ele><time>2026-04-04T10:23:48Z</time></trkpt><trkpt lat="42.559466936329756" lon="12.385255199000152"><ele>399.0</ele><time>2026-04-04T10:23:49Z</time></trkpt><trkpt lat="42.55943885636196" lon="12.385042561908685"><ele>399.0</ele><time>2026-04-04T10:23:50Z</time></trkpt><trkpt lat="42.559426659989946" lon="12.38482610906016"><ele>399.0</ele><time>2026-04-04T10:23:51Z</time></trkpt><trkpt lat="42.55939911483316" lon="12.384609185858613"><ele>399.0</ele><time>2026-04-04T10:23:52Z</time></trkpt><trkpt lat="42.559356387354256" lon="12.384401116257218"><ele>399.33333333333337</ele><time>2026-04-04T10:23:53Z</time></trkpt><trkpt lat="42.55934400656055" lon="12.384175198058962"><ele>399.6666666666667</ele><time>2026-04-04T10:23:54Z</time></trkpt><trkpt lat="42.55931732706485" lon="12.38396509205882"><ele>400.0</ele><time>2026-04-04T10:23:55Z</time></trkpt><trkpt lat="42.559290500345945" lon="12.38375368700919"><ele>399.25</ele><time>2026-04-04T10:23:56Z</time></trkpt><trkpt lat="42.559264541470064" lon="12.383547362028281"><ele>398.5</ele><time>2026-04-04T10:23:57Z</time></trkpt><trkpt lat="42.559240304347306" lon="12.383348907089385"><ele>397.75</ele><time>2026-04-04T10:23:58Z</time></trkpt><trkpt lat="42.55921703817657" lon="12.383152348090174"><ele>397.0</ele><time>2026-04-04T10:23:59Z</time></trkpt><trkpt lat="42.55917752090636" lon="12.382963785868048"><ele>395.25</ele><time>2026-04-04T10:24:00Z</time></trkpt><trkpt lat="42.559173050367775" lon="12.382775249313159"><ele>393.5</ele><time>2026-04-04T10:24:01Z</time></trkpt><trkpt lat="42.55918188152136" lon="12.38258712735681"><ele>391.75</ele><time>2026-04-04T10:24:02Z</time></trkpt><trkpt lat="42.55924970786505" lon="12.382410076989142"><ele>390.0</ele><time>2026-04-04T10:24:03Z</time></trkpt><trkpt lat="42.55933160869531" lon="12.382231288430646"><ele>388.33333333333337</ele><time>2026-04-04T10:24:04Z</time></trkpt><trkpt lat="42.55941716721778" lon="12.382062164973595"><ele>386.6666666666667</ele><time>2026-04-04T10:24:05Z</time></trkpt><trkpt lat="42.559504838058416" lon="12.381869309057102"><ele>385.0</ele><time>2026-04-04T10:24:06Z</time></trkpt><trkpt lat="42.55959905533252" lon="12.381678728685497"><ele>385.0</ele><time>2026-04-04T10:24:07Z</time></trkpt><trkpt lat="42.55969006191791" lon="12.38148504609305"><ele>385.0</ele><time>2026-04-04T10:24:08Z</time></trkpt><trkpt lat="42.55979843377103" lon="12.381309672741232"><ele>385.0</ele><time>2026-04-04T10:24:09Z</time></trkpt><trkpt lat="42.559871565858934" lon="12.381121718990917"><ele>384.6666666666667</ele><time>2026-04-04T10:24:10Z</time></trkpt><trkpt lat="42.55994579647581" lon="12.38094056465401"><ele>384.33333333333337</ele><time>2026-04-04T10:24:11Z</time></trkpt><trkpt lat="42.560011790452016" lon="12.380754079381825"><ele>384.0</ele><time>2026-04-04T10:24:12Z</time></trkpt><trkpt lat="42.56001956999757" lon="12.380539833899963"><ele>383.6666666666667</ele><time>2026-04-04T10:24:13Z</time></trkpt><trkpt lat="42.560020766163326" lon="12.380327545073737"><ele>383.33333333333337</ele><time>2026-04-04T10:24:14Z</time></trkpt><trkpt lat="42.56003448357403" lon="12.380114440312221"><ele>383.0</ele><time>2026-04-04T10:24:15Z</time></trkpt><trkpt lat="42.56003019917386" lon="12.379903304605074"><ele>383.0</ele><time>2026-04-04T10:24:16Z</time></trkpt><trkpt lat="42.56002597899695" lon="12.37969533363429"><ele>383.0</ele><time>2026-04-04T10:24:17Z</time></trkpt><trkpt lat="42.560021818720394" lon="12.379490314572722"><ele>383.0</ele><time>2026-04-04T10:24:18Z</time></trkpt><trkpt lat="42.56001747956628" lon="12.379276480810496"><ele>383.33333333333337</ele><time>2026-04-04T10:24:19Z</time></trkpt><trkpt lat="42.5600130576847" lon="12.379058569716886"><ele>383.6666666666667</ele><time>2026-04-04T10:24:20Z</time></trkpt><trkpt lat="42.560008617004975" lon="12.378839732440865"><ele>384.0</ele><time>2026-04-04T10:24:21Z</time></trkpt><trkpt lat="42.55999678339663" lon="12.378623670247004"><ele>385.0</ele><time>2026-04-04T10:24:22Z</time></trkpt><trkpt lat="42.55999368317166" lon="12.378409052553497"><ele>386.0</ele><time>2026-04-04T10:24:23Z</time></trkpt><trkpt lat="42.55999028942775" lon="12.378194154303019"><ele>387.0</ele><time>2026-04-04T10:24:24Z</time></trkpt><trkpt lat="42.55998597845342" lon="12.377982934615162"><ele>387.5</ele><time>2026-04-04T10:24:25Z</time></trkpt><trkpt lat="42.55998378986522" lon="12.377775565034908"><ele>388.0</ele><time>2026-04-04T10:24:26Z</time></trkpt><trkpt lat="42.559981193098714" lon="12.377571402096827"><ele>388.5</ele><time>2026-04-04T10:24:27Z</time></trkpt><trkpt lat="42.55997501951896" lon="12.377381523864196"><ele>389.0</ele><time>2026-04-04T10:24:28Z</time></trkpt><trkpt lat="42.55997132439741" lon="12.377201447572343"><ele>389.4</ele><time>2026-04-04T10:24:29Z</time></trkpt><trkpt lat="42.55996917293618" lon="12.377035036954561"><ele>389.79999999999995</ele><time>2026-04-04T10:24:30Z</time></trkpt><trkpt lat="42.55996901355887" lon="12.376887352954068"><ele>390.20000000000005</ele><time>2026-04-04T10:24:31Z</time></trkpt><trkpt lat="42.55996925333937" lon="12.376769471165394"><ele>390.6</ele><time>2026-04-04T10:24:32Z</time></trkpt><trkpt lat="42.55997350140853" lon="12.376635240185077"><ele>391.0</ele><time>2026-04-04T10:24:34Z</time></trkpt><trkpt lat="42.56002763282921" lon="12.37656465451743"><ele>391.00000000000006</ele><time>2026-04-04T10:24:37Z</time></trkpt><trkpt lat="42.56010260713377" lon="12.37657624742857"><ele>391.0</ele><time>2026-04-04T10:24:39Z</time></trkpt><trkpt lat="42.560160151380586" lon="12.376653970390802"><ele>391.0</ele><time>2026-04-04T10:24:41Z</time></trkpt><trkpt lat="42.56017372695098" lon="12.376785497147237"><ele>391.0</ele><time>2026-04-04T10:24:43Z</time></trkpt><trkpt lat="42.56019040470547" lon="12.376938738988914"><ele>391.00000000000006</ele><time>2026-04-04T10:24:45Z</time></trkpt><trkpt lat="42.560212313334574" lon="12.377018925122375"><ele>391.0</ele><time>2026-04-04T10:24:46Z</time></trkpt><trkpt lat="42.56024603536734" lon="12.377093481670672"><ele>390.6</ele><time>2026-04-04T10:24:47Z</time></trkpt><trkpt lat="42.560327079279205" lon="12.377204050807466"><ele>390.20000000000005</ele><time>2026-04-04T10:24:49Z</time></trkpt><trkpt lat="42.56040838880832" lon="12.377240482386707"><ele>389.79999999999995</ele><time>2026-04-04T10:24:51Z</time></trkpt><trkpt lat="42.560505630033475" lon="12.377273313149162"><ele>389.4</ele><time>2026-04-04T10:24:54Z</time></trkpt><trkpt lat="42.56058510195976" lon="12.377272146644026"><ele>389.0</ele><time>2026-04-04T10:24:56Z</time></trkpt><trkpt lat="42.56065609911601" lon="12.377266589818399"><ele>388.99999999999994</ele><time>2026-04-04T10:24:58Z</time></trkpt><trkpt lat="42.560722146422286" lon="12.377280795260612"><ele>389.0</ele><time>2026-04-04T10:25:01Z</time></trkpt><trkpt lat="42.56064498022525" lon="12.377268658487607"><ele>389.0</ele><time>2026-04-04T10:25:05Z</time></trkpt><trkpt lat="42.56057418477816" lon="12.37724982094277"><ele>389.0</ele><time>2026-04-04T10:25:07Z</time></trkpt><trkpt lat="42.56047778005572" lon="12.377270752222772"><ele>388.99999999999994</ele><time>2026-04-04T10:25:09Z</time></trkpt><trkpt lat="42.560358942904635" lon="12.377232236457987"><ele>389.0</ele><time>2026-04-04T10:25:11Z</time></trkpt><trkpt lat="42.56025586261611" lon="12.377128816200049"><ele>389.4</ele><time>2026-04-04T10:25:13Z</time></trkpt><trkpt lat="42.56021329335141" lon="12.37705926485926"><ele>389.79999999999995</ele><time>2026-04-04T10:25:14Z</time></trkpt><trkpt lat="42.560173579187094" lon="12.376989364777874"><ele>390.20000000000005</ele><time>2026-04-04T10:25:15Z</time></trkpt><trkpt lat="42.56016242625339" lon="12.376833668669116"><ele>390.6</ele><time>2026-04-04T10:25:17Z</time></trkpt><trkpt lat="42.56015679586769" lon="12.37667618377173"><ele>391.0</ele><time>2026-04-04T10:25:19Z</time></trkpt><trkpt lat="42.56009674930237" lon="12.376579092776824"><ele>391.00000000000006</ele><time>2026-04-04T10:25:21Z</time></trkpt><trkpt lat="42.56002575199675" lon="12.37656249499637"><ele>391.0</ele><time>2026-04-04T10:25:23Z</time></trkpt><trkpt lat="42.559953748472786" lon="12.376543507025236"><ele>391.0</ele><time>2026-04-04T10:25:26Z</time></trkpt><trkpt lat="42.55990199329131" lon="12.376452172556123"><ele>391.0</ele><time>2026-04-04T10:25:28Z</time></trkpt><trkpt lat="42.55993697107725" lon="12.37633442330347"><ele>391.00000000000006</ele><time>2026-04-04T10:25:29Z</time></trkpt><trkpt lat="42.55991237266211" lon="12.37623813500461"><ele>391.0</ele><time>2026-04-04T10:25:30Z</time></trkpt><trkpt lat="42.55988029576042" lon="12.376131619692885"><ele>391.6</ele><time>2026-04-04T10:25:31Z</time></trkpt><trkpt lat="42.55984126381978" lon="12.376010585449992"><ele>392.20000000000005</ele><time>2026-04-04T10:25:32Z</time></trkpt><trkpt lat="42.55980523358292" lon="12.37590304092222"><ele>392.79999999999995</ele><time>2026-04-04T10:25:33Z</time></trkpt><trkpt lat="42.55976445891728" lon="12.375785240177498"><ele>393.4</ele><time>2026-04-04T10:25:34Z</time></trkpt><trkpt lat="42.55972371508668" lon="12.375668716433237"><ele>394.0</ele><time>2026-04-04T10:25:35Z</time></trkpt><trkpt lat="42.55968598048867" lon="12.37556131422298"><ele>393.2</ele><time>2026-04-04T10:25:36Z</time></trkpt><trkpt lat="42.559646907195" lon="12.375450101731927"><ele>392.4</ele><time>2026-04-04T10:25:37Z</time></trkpt><trkpt lat="42.559599470098775" lon="12.37531508374127"><ele>391.6</ele><time>2026-04-04T10:25:38Z</time></trkpt><trkpt lat="42.55955798271831" lon="12.375197000174849"><ele>390.8</ele><time>2026-04-04T10:25:39Z</time></trkpt><trkpt lat="42.55950722819317" lon="12.375052539937567"><ele>390.0</ele><time>2026-04-04T10:25:40Z</time></trkpt><trkpt lat="42.55945469211253" lon="12.374908294736132"><ele>390.0</ele><time>2026-04-04T10:25:41Z</time></trkpt><trkpt lat="42.55940881142227" lon="12.374780177403553"><ele>390.0</ele><time>2026-04-04T10:25:42Z</time></trkpt><trkpt lat="42.55936371590811" lon="12.374658946243834"><ele>390.0</ele><time>2026-04-04T10:25:43Z</time></trkpt><trkpt lat="42.55932862319938" lon="12.37455281896034"><ele>390.0</ele><time>2026-04-04T10:25:44Z</time></trkpt><trkpt lat="42.559305064441325" lon="12.374415635830927"><ele>390.0</ele><time>2026-04-04T10:25:46Z</time></trkpt><trkpt lat="42.55932543839861" lon="12.37429336750106"><ele>390.0</ele><time>2026-04-04T10:25:48Z</time></trkpt><trkpt lat="42.55938399524787" lon="12.37422035986993"><ele>390.0</ele><time>2026-04-04T10:25:49Z</time></trkpt><trkpt lat="42.55942775085269" lon="12.374156168034554"><ele>390.0</ele><time>2026-04-04T10:25:50Z</time></trkpt><trkpt lat="42.55947273984103" lon="12.374090809514366"><ele>390.0</ele><time>2026-04-04T10:25:51Z</time></trkpt><trkpt lat="42.5595170852856" lon="12.374029386135568"><ele>390.0</ele><time>2026-04-04T10:25:52Z</time></trkpt><trkpt lat="42.55956399214808" lon="12.373970149894365"><ele>390.0</ele><time>2026-04-04T10:25:53Z</time></trkpt><trkpt lat="42.55963620771857" lon="12.373862078605553"><ele>390.0</ele><time>2026-04-04T10:25:55Z</time></trkpt><trkpt lat="42.55970315600989" lon="12.373827181981666"><ele>391.8333333333333</ele><time>2026-04-04T10:25:57Z</time></trkpt><trkpt lat="42.55975327962407" lon="12.373914768035853"><ele>393.66666666666663</ele><time>2026-04-04T10:25:59Z</time></trkpt><trkpt lat="42.55978052985323" lon="12.374063443971744"><ele>395.5</ele><time>2026-04-04T10:26:01Z</time></trkpt><trkpt lat="42.559798516236576" lon="12.374155236229253"><ele>397.3333333333333</ele><time>2026-04-04T10:26:02Z</time></trkpt><trkpt lat="42.559810829115875" lon="12.374253413986999"><ele>399.16666666666663</ele><time>2026-04-04T10:26:03Z</time></trkpt><trkpt lat="42.55981847212622" lon="12.374359379461984"><ele>401.0</ele><time>2026-04-04T10:26:04Z</time></trkpt><trkpt lat="42.55982210622435" lon="12.374465184042275"><ele>401.0</ele><time>2026-04-04T10:26:05Z</time></trkpt><trkpt lat="42.559824806582384" lon="12.374580491599518"><ele>401.0</ele><time>2026-04-04T10:26:06Z</time></trkpt><trkpt lat="42.559824343611666" lon="12.374677597179183"><ele>401.0</ele><time>2026-04-04T10:26:07Z</time></trkpt><trkpt lat="42.559821171844526" lon="12.374764912144627"><ele>401.0</ele><time>2026-04-04T10:26:08Z</time></trkpt><trkpt lat="42.559825309256794" lon="12.374927374398723"><ele>401.0</ele><time>2026-04-04T10:26:10Z</time></trkpt><trkpt lat="42.559814923747524" lon="12.375083388678647"><ele>400.66666666666663</ele><time>2026-04-04T10:26:12Z</time></trkpt><trkpt lat="42.55980050878154" lon="12.375241150288616"><ele>400.3333333333333</ele><time>2026-04-04T10:26:14Z</time></trkpt><trkpt lat="42.5598136524679" lon="12.375392006890904"><ele>400.0</ele><time>2026-04-04T10:26:16Z</time></trkpt><trkpt lat="42.55985486024144" lon="12.375457471345742"><ele>399.66666666666663</ele><time>2026-04-04T10:26:17Z</time></trkpt><trkpt lat="42.55990957037558" lon="12.375519338872833"><ele>399.3333333333333</ele><time>2026-04-04T10:26:18Z</time></trkpt><trkpt lat="42.55997242963602" lon="12.375557761792006"><ele>399.0</ele><time>2026-04-04T10:26:19Z</time></trkpt><trkpt lat="42.56004809216262" lon="12.375565742045172"><ele>398.2857142857143</ele><time>2026-04-04T10:26:20Z</time></trkpt><trkpt lat="42.56012174418407" lon="12.375602137401826"><ele>397.57142857142856</ele><time>2026-04-04T10:26:21Z</time></trkpt><trkpt lat="42.560192200837164" lon="12.375592671007798"><ele>396.8571428571429</ele><time>2026-04-04T10:26:22Z</time></trkpt><trkpt lat="42.5602635273663" lon="12.375611680176922"><ele>396.1428571428571</ele><time>2026-04-04T10:26:23Z</time></trkpt><trkpt lat="42.56032969593387" lon="12.375624959473166"><ele>395.42857142857144</ele><time>2026-04-04T10:26:24Z</time></trkpt><trkpt lat="42.560399894009336" lon="12.375656229193725"><ele>394.7142857142857</ele><time>2026-04-04T10:26:25Z</time></trkpt><trkpt lat="42.560471409126485" lon="12.375653005422887"><ele>394.0</ele><time>2026-04-04T10:26:26Z</time></trkpt><trkpt lat="42.56054298929542" lon="12.375687918154398"><ele>395.42857142857144</ele><time>2026-04-04T10:26:27Z</time></trkpt><trkpt lat="42.5606139850481" lon="12.375704414511464"><ele>396.8571428571429</ele><time>2026-04-04T10:26:28Z</time></trkpt><trkpt lat="42.56069212922227" lon="12.375702371930391"><ele>398.2857142857143</ele><time>2026-04-04T10:26:29Z</time></trkpt><trkpt lat="42.56076434009947" lon="12.375722710159968"><ele>399.7142857142857</ele><time>2026-04-04T10:26:30Z</time></trkpt><trkpt lat="42.56082529586356" lon="12.37576218267496"><ele>401.1428571428571</ele><time>2026-04-04T10:26:31Z</time></trkpt><trkpt lat="42.560902178533794" lon="12.375784852729021"><ele>402.57142857142856</ele><time>2026-04-04T10:26:32Z</time></trkpt><trkpt lat="42.560979674586434" lon="12.375785165458275"><ele>404.0</ele><time>2026-04-04T10:26:33Z</time></trkpt><trkpt lat="42.56104366036444" lon="12.375807529342572"><ele>403.99999999999994</ele><time>2026-04-04T10:26:34Z</time></trkpt><trkpt lat="42.561109781861376" lon="12.37582593647305"><ele>404.0</ele><time>2026-04-04T10:26:35Z</time></trkpt><trkpt lat="42.56117538034164" lon="12.375849945786852"><ele>404.0</ele><time>2026-04-04T10:26:36Z</time></trkpt><trkpt lat="42.561291463094555" lon="12.375872439968589"><ele>404.0</ele><time>2026-04-04T10:26:38Z</time></trkpt><trkpt lat="42.56140137772329" lon="12.375833379849196"><ele>403.99999999999994</ele><time>2026-04-04T10:26:40Z</time></trkpt><trkpt lat="42.561425874995" lon="12.375727066679847"><ele>404.0</ele><time>2026-04-04T10:26:41Z</time></trkpt><trkpt lat="42.56146621269132" lon="12.375637153378767"><ele>404.2857142857143</ele><time>2026-04-04T10:26:42Z</time></trkpt><trkpt lat="42.561488736365135" lon="12.375552352200845"><ele>404.57142857142856</ele><time>2026-04-04T10:26:43Z</time></trkpt><trkpt lat="42.561512884929456" lon="12.375459295335709"><ele>404.8571428571429</ele><time>2026-04-04T10:26:44Z</time></trkpt><trkpt lat="42.561535149264465" lon="12.375363706579174"><ele>405.1428571428571</ele><time>2026-04-04T10:26:45Z</time></trkpt><trkpt lat="42.56154383239767" lon="12.375264307599194"><ele>405.42857142857144</ele><time>2026-04-04T10:26:46Z</time></trkpt><trkpt lat="42.56156142501819" lon="12.37517257637276"><ele>405.7142857142857</ele><time>2026-04-04T10:26:47Z</time></trkpt><trkpt lat="42.56159455176922" lon="12.37508174918151"><ele>406.0</ele><time>2026-04-04T10:26:48Z</time></trkpt><trkpt lat="42.561618585212045" lon="12.37498323889599"><ele>407.6666666666667</ele><time>2026-04-04T10:26:49Z</time></trkpt><trkpt lat="42.56162915499752" lon="12.374881540192401"><ele>409.33333333333337</ele><time>2026-04-04T10:26:50Z</time></trkpt><trkpt lat="42.56166280132612" lon="12.374789175297511"><ele>411.0</ele><time>2026-04-04T10:26:51Z</time></trkpt><trkpt lat="42.56170096706138" lon="12.374695401409218"><ele>412.66666666666663</ele><time>2026-04-04T10:26:52Z</time></trkpt><trkpt lat="42.561757965887494" lon="12.374633280458093"><ele>414.3333333333333</ele><time>2026-04-04T10:26:53Z</time></trkpt><trkpt lat="42.56186306192704" lon="12.374526782157202"><ele>416.0</ele><time>2026-04-04T10:26:55Z</time></trkpt><trkpt lat="42.56192712773274" lon="12.374491008442542"><ele>416.99999999999994</ele><time>2026-04-04T10:26:56Z</time></trkpt><trkpt lat="42.561997686018955" lon="12.374442467535893"><ele>418.0</ele><time>2026-04-04T10:26:57Z</time></trkpt><trkpt lat="42.56207736731439" lon="12.37442480272211"><ele>419.0</ele><time>2026-04-04T10:26:58Z</time></trkpt><trkpt lat="42.562157736510066" lon="12.37441042355645"><ele>420.0</ele><time>2026-04-04T10:26:59Z</time></trkpt><trkpt lat="42.56223429655434" lon="12.374444516161768"><ele>420.99999999999994</ele><time>2026-04-04T10:27:00Z</time></trkpt><trkpt lat="42.56229741714708" lon="12.374496735519513"><ele>422.0</ele><time>2026-04-04T10:27:01Z</time></trkpt><trkpt lat="42.56238031026884" lon="12.374534260747323"><ele>422.3333333333333</ele><time>2026-04-04T10:27:02Z</time></trkpt><trkpt lat="42.56245362282067" lon="12.374583380965444"><ele>422.66666666666663</ele><time>2026-04-04T10:27:03Z</time></trkpt><trkpt lat="42.56252500443683" lon="12.374602442825166"><ele>423.0</ele><time>2026-04-04T10:27:04Z</time></trkpt><trkpt lat="42.56259604803912" lon="12.374616049584152"><ele>423.33333333333337</ele><time>2026-04-04T10:27:05Z</time></trkpt><trkpt lat="42.56266734077163" lon="12.374639174067305"><ele>423.6666666666667</ele><time>2026-04-04T10:27:06Z</time></trkpt><trkpt lat="42.56273977144647" lon="12.37466173826452"><ele>424.0</ele><time>2026-04-04T10:27:07Z</time></trkpt><trkpt lat="42.56281919552282" lon="12.374644158451925"><ele>424.6666666666667</ele><time>2026-04-04T10:27:08Z</time></trkpt><trkpt lat="42.56289271664962" lon="12.374641911306774"><ele>425.33333333333337</ele><time>2026-04-04T10:27:09Z</time></trkpt><trkpt lat="42.56297602205859" lon="12.374630818704068"><ele>426.0</ele><time>2026-04-04T10:27:10Z</time></trkpt><trkpt lat="42.56305697168348" lon="12.374611755376565"><ele>426.66666666666663</ele><time>2026-04-04T10:27:11Z</time></trkpt><trkpt lat="42.56313541859778" lon="12.374621112388807"><ele>427.3333333333333</ele><time>2026-04-04T10:27:12Z</time></trkpt><trkpt lat="42.5632204738567" lon="12.374621886933518"><ele>428.0</ele><time>2026-04-04T10:27:13Z</time></trkpt><trkpt lat="42.563300197148266" lon="12.374600968482303"><ele>428.00000000000006</ele><time>2026-04-04T10:27:14Z</time></trkpt><trkpt lat="42.56337765827464" lon="12.374605543527284"><ele>428.0</ele><time>2026-04-04T10:27:15Z</time></trkpt><trkpt lat="42.563445386039604" lon="12.374616928592877"><ele>428.0</ele><time>2026-04-04T10:27:16Z</time></trkpt><trkpt lat="42.56351706305297" lon="12.374631729019345"><ele>428.0</ele><time>2026-04-04T10:27:17Z</time></trkpt><trkpt lat="42.5635823095329" lon="12.374652046797616"><ele>428.0</ele><time>2026-04-04T10:27:18Z</time></trkpt><trkpt lat="42.56364567218968" lon="12.374662703442745"><ele>428.00000000000006</ele><time>2026-04-04T10:27:19Z</time></trkpt><trkpt lat="42.563716425014505" lon="12.374655227867008"><ele>428.0</ele><time>2026-04-04T10:27:20Z</time></trkpt><trkpt lat="42.56379275978313" lon="12.374633482867344"><ele>428.16666666666663</ele><time>2026-04-04T10:27:21Z</time></trkpt><trkpt lat="42.563869435235524" lon="12.37461210282511"><ele>428.3333333333333</ele><time>2026-04-04T10:27:22Z</time></trkpt><trkpt lat="42.563957823371176" lon="12.374592458340425"><ele>428.5</ele><time>2026-04-04T10:27:23Z</time></trkpt><trkpt lat="42.56404585487903" lon="12.374565552554996"><ele>428.66666666666663</ele><time>2026-04-04T10:27:24Z</time></trkpt><trkpt lat="42.5641136265874" lon="12.374490531537685"><ele>428.8333333333333</ele><time>2026-04-04T10:27:25Z</time></trkpt><trkpt lat="42.56419216229765" lon="12.374456240169625"><ele>429.0</ele><time>2026-04-04T10:27:26Z</time></trkpt><trkpt lat="42.56426227322953" lon="12.374418294970472"><ele>429.0</ele><time>2026-04-04T10:27:27Z</time></trkpt><trkpt lat="42.56440795453562" lon="12.374404808917093"><ele>429.0</ele><time>2026-04-04T10:27:29Z</time></trkpt><trkpt lat="42.56449494157636" lon="12.374367667414122"><ele>429.0</ele><time>2026-04-04T10:27:30Z</time></trkpt><trkpt lat="42.564586216973616" lon="12.374291053016954"><ele>429.0</ele><time>2026-04-04T10:27:31Z</time></trkpt><trkpt lat="42.56468663255324" lon="12.374267151141185"><ele>429.0</ele><time>2026-04-04T10:27:32Z</time></trkpt><trkpt lat="42.56478380776387" lon="12.374239334550387"><ele>429.5</ele><time>2026-04-04T10:27:33Z</time></trkpt><trkpt lat="42.56487277786282" lon="12.374215200903919"><ele>430.0</ele><time>2026-04-04T10:27:34Z</time></trkpt><trkpt lat="42.56494488011351" lon="12.374190501880053"><ele>430.5</ele><time>2026-04-04T10:27:35Z</time></trkpt><trkpt lat="42.565021880254875" lon="12.374256375834527"><ele>431.0</ele><time>2026-04-04T10:27:36Z</time></trkpt><trkpt lat="42.56510195399225" lon="12.374244128973986"><ele>431.5</ele><time>2026-04-04T10:27:37Z</time></trkpt><trkpt lat="42.565174979036634" lon="12.374241721596787"><ele>432.0</ele><time>2026-04-04T10:27:38Z</time></trkpt><trkpt lat="42.565243281082935" lon="12.374201444443578"><ele>432.0</ele><time>2026-04-04T10:27:39Z</time></trkpt><trkpt lat="42.5653105952421" lon="12.37414234572796"><ele>432.0</ele><time>2026-04-04T10:27:40Z</time></trkpt><trkpt lat="42.565389722942626" lon="12.374105201034846"><ele>432.0</ele><time>2026-04-04T10:27:41Z</time></trkpt><trkpt lat="42.565511489636904" lon="12.374110736033673"><ele>432.0</ele><time>2026-04-04T10:27:43Z</time></trkpt><trkpt lat="42.56557165663013" lon="12.374148755967342"><ele>432.0</ele><time>2026-04-04T10:27:44Z</time></trkpt><trkpt lat="42.56564891787229" lon="12.37418585032263"><ele>432.0</ele><time>2026-04-04T10:27:45Z</time></trkpt><trkpt lat="42.56571025205088" lon="12.374277061360074"><ele>432.20000000000005</ele><time>2026-04-04T10:27:46Z</time></trkpt><trkpt lat="42.565758899853535" lon="12.374375721490788"><ele>432.40000000000003</ele><time>2026-04-04T10:27:47Z</time></trkpt><trkpt lat="42.5657936817212" lon="12.374468956088235"><ele>432.59999999999997</ele><time>2026-04-04T10:27:48Z</time></trkpt><trkpt lat="42.56586690585316" lon="12.374579841638804"><ele>432.79999999999995</ele><time>2026-04-04T10:27:50Z</time></trkpt><trkpt lat="42.56598825647396" lon="12.374684453095282"><ele>433.0</ele><time>2026-04-04T10:27:52Z</time></trkpt><trkpt lat="42.56606752341123" lon="12.374757823575553"><ele>433.00000000000006</ele><time>2026-04-04T10:27:53Z</time></trkpt><trkpt lat="42.56613469164336" lon="12.374822429097502"><ele>433.0</ele><time>2026-04-04T10:27:54Z</time></trkpt><trkpt lat="42.566202187424345" lon="12.374880496276788"><ele>433.0</ele><time>2026-04-04T10:27:55Z</time></trkpt><trkpt lat="42.566280467278666" lon="12.37490748126268"><ele>433.0</ele><time>2026-04-04T10:27:56Z</time></trkpt><trkpt lat="42.566374305839844" lon="12.374924235317176"><ele>433.00000000000006</ele><time>2026-04-04T10:27:57Z</time></trkpt><trkpt lat="42.56646912687855" lon="12.374993866122589"><ele>433.0</ele><time>2026-04-04T10:27:58Z</time></trkpt><trkpt lat="42.56657077947244" lon="12.375030245705128"><ele>434.59999999999997</ele><time>2026-04-04T10:27:59Z</time></trkpt><trkpt lat="42.56665975999195" lon="12.375064415111213"><ele>436.19999999999993</ele><time>2026-04-04T10:28:00Z</time></trkpt><trkpt lat="42.566735701740505" lon="12.375082094826022"><ele>437.8</ele><time>2026-04-04T10:28:01Z</time></trkpt><trkpt lat="42.56686699912963" lon="12.375079537748974"><ele>439.4</ele><time>2026-04-04T10:28:03Z</time></trkpt><trkpt lat="42.5669307809286" lon="12.374992682010909"><ele>441.0</ele><time>2026-04-04T10:28:04Z</time></trkpt><trkpt lat="42.567003582376046" lon="12.37495412298262"><ele>443.3333333333333</ele><time>2026-04-04T10:28:05Z</time></trkpt><trkpt lat="42.567064278679375" lon="12.374849725683953"><ele>445.66666666666663</ele><time>2026-04-04T10:28:06Z</time></trkpt><trkpt lat="42.56714369503096" lon="12.374789214025052"><ele>448.0</ele><time>2026-04-04T10:28:07Z</time></trkpt><trkpt lat="42.567217346446355" lon="12.374706469743993"><ele>450.3333333333333</ele><time>2026-04-04T10:28:08Z</time></trkpt><trkpt lat="42.56727536358077" lon="12.374619710045634"><ele>452.66666666666663</ele><time>2026-04-04T10:28:09Z</time></trkpt><trkpt lat="42.567333045845615" lon="12.374550204550806"><ele>455.0</ele><time>2026-04-04T10:28:10Z</time></trkpt><trkpt lat="42.56737982102274" lon="12.374480997514656"><ele>454.99999999999994</ele><time>2026-04-04T10:28:11Z</time></trkpt><trkpt lat="42.56744397612361" lon="12.374431407466925"><ele>455.0</ele><time>2026-04-04T10:28:12Z</time></trkpt><trkpt lat="42.567513710109516" lon="12.374353221386707"><ele>455.0</ele><time>2026-04-04T10:28:13Z</time></trkpt><trkpt lat="42.567579647116695" lon="12.374280997497522"><ele>455.0</ele><time>2026-04-04T10:28:14Z</time></trkpt><trkpt lat="42.56763915904637" lon="12.374187550578007"><ele>454.99999999999994</ele><time>2026-04-04T10:28:15Z</time></trkpt><trkpt lat="42.5677016580737" lon="12.374129028388376"><ele>455.0</ele><time>2026-04-04T10:28:16Z</time></trkpt><trkpt lat="42.567753201404564" lon="12.3740644891784"><ele>454.99999999999994</ele><time>2026-04-04T10:28:17Z</time></trkpt><trkpt lat="42.56782347684756" lon="12.373998583284077"><ele>455.0</ele><time>2026-04-04T10:28:18Z</time></trkpt><trkpt lat="42.567883359191164" lon="12.373930163017516"><ele>455.0</ele><time>2026-04-04T10:28:19Z</time></trkpt><trkpt lat="42.56795263902768" lon="12.37387418933426"><ele>455.0</ele><time>2026-04-04T10:28:20Z</time></trkpt><trkpt lat="42.56802791641858" lon="12.37383025646985"><ele>454.99999999999994</ele><time>2026-04-04T10:28:21Z</time></trkpt><trkpt lat="42.56810203524562" lon="12.373802957982665"><ele>455.0</ele><time>2026-04-04T10:28:22Z</time></trkpt><trkpt lat="42.56817852106476" lon="12.373769513862914"><ele>456.8333333333333</ele><time>2026-04-04T10:28:23Z</time></trkpt><trkpt lat="42.568242715047234" lon="12.373720154559933"><ele>458.66666666666663</ele><time>2026-04-04T10:28:24Z</time></trkpt><trkpt lat="42.56831465205295" lon="12.373714797942721"><ele>460.5</ele><time>2026-04-04T10:28:25Z</time></trkpt><trkpt lat="42.568375218116586" lon="12.373690664841611"><ele>462.33333333333337</ele><time>2026-04-04T10:28:26Z</time></trkpt><trkpt lat="42.568500055497445" lon="12.373626396935219"><ele>464.1666666666667</ele><time>2026-04-04T10:28:28Z</time></trkpt><trkpt lat="42.56857214348815" lon="12.373602764513729"><ele>466.0</ele><time>2026-04-04T10:28:29Z</time></trkpt><trkpt lat="42.568650926055184" lon="12.373605903795863"><ele>467.00000000000006</ele><time>2026-04-04T10:28:30Z</time></trkpt><trkpt lat="42.56872606029368" lon="12.373591895789142"><ele>468.0</ele><time>2026-04-04T10:28:31Z</time></trkpt><trkpt lat="42.568804249737994" lon="12.373581516316706"><ele>469.0</ele><time>2026-04-04T10:28:32Z</time></trkpt><trkpt lat="42.56887931689908" lon="12.373573813168095"><ele>470.0</ele><time>2026-04-04T10:28:33Z</time></trkpt><trkpt lat="42.56896818827793" lon="12.373565812091478"><ele>471.00000000000006</ele><time>2026-04-04T10:28:34Z</time></trkpt><trkpt lat="42.56904090061057" lon="12.373550954418754"><ele>472.0</ele><time>2026-04-04T10:28:35Z</time></trkpt><trkpt lat="42.5691121557228" lon="12.373541935688097"><ele>472.0</ele><time>2026-04-04T10:28:36Z</time></trkpt><trkpt lat="42.56918484482515" lon="12.373535626203545"><ele>472.0</ele><time>2026-04-04T10:28:37Z</time></trkpt><trkpt lat="42.569251555296596" lon="12.373531177466978"><ele>472.0</ele><time>2026-04-04T10:28:38Z</time></trkpt><trkpt lat="42.56932332721177" lon="12.373527867193397"><ele>472.0</ele><time>2026-04-04T10:28:39Z</time></trkpt><trkpt lat="42.56940287472943" lon="12.373522864873488"><ele>472.0</ele><time>2026-04-04T10:28:40Z</time></trkpt><trkpt lat="42.569485043449355" lon="12.373523581740994"><ele>472.0</ele><time>2026-04-04T10:28:41Z</time></trkpt><trkpt lat="42.56955963740304" lon="12.37352143101332"><ele>472.0</ele><time>2026-04-04T10:28:42Z</time></trkpt><trkpt lat="42.569635585616545" lon="12.373528316468983"><ele>473.00000000000006</ele><time>2026-04-04T10:28:43Z</time></trkpt><trkpt lat="42.569706548885286" lon="12.37352195992946"><ele>474.0</ele><time>2026-04-04T10:28:44Z</time></trkpt><trkpt lat="42.56978231578438" lon="12.37352046985191"><ele>475.0</ele><time>2026-04-04T10:28:45Z</time></trkpt><trkpt lat="42.569853632969185" lon="12.373505643954438"><ele>476.0</ele><time>2026-04-04T10:28:46Z</time></trkpt><trkpt lat="42.56992398786864" lon="12.373467982364987"><ele>477.00000000000006</ele><time>2026-04-04T10:28:47Z</time></trkpt><trkpt lat="42.56999318215282" lon="12.373448129266508"><ele>478.0</ele><time>2026-04-04T10:28:48Z</time></trkpt><trkpt lat="42.57008287067343" lon="12.373452769787914"><ele>478.00000000000006</ele><time>2026-04-04T10:28:49Z</time></trkpt><trkpt lat="42.570143502020805" lon="12.373413351714076"><ele>478.0</ele><time>2026-04-04T10:28:50Z</time></trkpt><trkpt lat="42.5702111696294" lon="12.373433649709366"><ele>478.00000000000006</ele><time>2026-04-04T10:28:51Z</time></trkpt><trkpt lat="42.570286646573834" lon="12.373443453062379"><ele>478.00000000000006</ele><time>2026-04-04T10:28:52Z</time></trkpt><trkpt lat="42.57036288765311" lon="12.3734375537086"><ele>478.0</ele><time>2026-04-04T10:28:53Z</time></trkpt><trkpt lat="42.570431610562984" lon="12.37346731727391"><ele>478.00000000000006</ele><time>2026-04-04T10:28:54Z</time></trkpt><trkpt lat="42.57051207626756" lon="12.373456963327953"><ele>478.00000000000006</ele><time>2026-04-04T10:28:55Z</time></trkpt><trkpt lat="42.57058813037075" lon="12.373489791565303"><ele>478.7142857142858</ele><time>2026-04-04T10:28:56Z</time></trkpt><trkpt lat="42.57067112458025" lon="12.373501506685612"><ele>479.42857142857144</ele><time>2026-04-04T10:28:57Z</time></trkpt><trkpt lat="42.57074580190828" lon="12.373491392161238"><ele>480.14285714285717</ele><time>2026-04-04T10:28:58Z</time></trkpt><trkpt lat="42.57081389353338" lon="12.37350424036698"><ele>480.8571428571429</ele><time>2026-04-04T10:28:59Z</time></trkpt><trkpt lat="42.5708876492155" lon="12.373539249083144"><ele>481.57142857142856</ele><time>2026-04-04T10:29:00Z</time></trkpt><trkpt lat="42.570957230877184" lon="12.373558928136557"><ele>482.2857142857143</ele><time>2026-04-04T10:29:01Z</time></trkpt><trkpt lat="42.571026271845426" lon="12.373590236740458"><ele>483.0</ele><time>2026-04-04T10:29:02Z</time></trkpt><trkpt lat="42.571108829736325" lon="12.373598137828324"><ele>483.0</ele><time>2026-04-04T10:29:03Z</time></trkpt><trkpt lat="42.57118872223262" lon="12.373622419557151"><ele>483.0</ele><time>2026-04-04T10:29:04Z</time></trkpt><trkpt lat="42.571265728768985" lon="12.37361887863144"><ele>483.0</ele><time>2026-04-04T10:29:05Z</time></trkpt><trkpt lat="42.57133679201389" lon="12.373628350703358"><ele>483.0</ele><time>2026-04-04T10:29:06Z</time></trkpt><trkpt lat="42.5714051277997" lon="12.373671892005591"><ele>483.0</ele><time>2026-04-04T10:29:07Z</time></trkpt><trkpt lat="42.57147401030901" lon="12.373703615063725"><ele>483.0</ele><time>2026-04-04T10:29:08Z</time></trkpt><trkpt lat="42.57154194919679" lon="12.373740501275833"><ele>483.79999999999995</ele><time>2026-04-04T10:29:09Z</time></trkpt><trkpt lat="42.57160447581234" lon="12.373755902190595"><ele>484.59999999999997</ele><time>2026-04-04T10:29:10Z</time></trkpt><trkpt lat="42.571656931834916" lon="12.373805360462757"><ele>485.40000000000003</ele><time>2026-04-04T10:29:11Z</time></trkpt><trkpt lat="42.57177214036669" lon="12.373860002648518"><ele>486.20000000000005</ele><time>2026-04-04T10:29:13Z</time></trkpt><trkpt lat="42.57185640532175" lon="12.37375445757276"><ele>487.0</ele><time>2026-04-04T10:29:15Z</time></trkpt><trkpt lat="42.57193592088018" lon="12.373594346339795"><ele>487.20000000000005</ele><time>2026-04-04T10:29:17Z</time></trkpt><trkpt lat="42.57198976924013" lon="12.373495880769395"><ele>487.40000000000003</ele><time>2026-04-04T10:29:18Z</time></trkpt><trkpt lat="42.572044973075755" lon="12.373401528802956"><ele>487.59999999999997</ele><time>2026-04-04T10:29:19Z</time></trkpt><trkpt lat="42.57210796301637" lon="12.373326715874999"><ele>487.79999999999995</ele><time>2026-04-04T10:29:20Z</time></trkpt><trkpt lat="42.572192400781525" lon="12.373261580064792"><ele>488.0</ele><time>2026-04-04T10:29:21Z</time></trkpt><trkpt lat="42.57228626624588" lon="12.373213622450924"><ele>487.49999999999994</ele><time>2026-04-04T10:29:22Z</time></trkpt><trkpt lat="42.572377480705455" lon="12.373165061004519"><ele>487.0</ele><time>2026-04-04T10:29:23Z</time></trkpt><trkpt lat="42.57245886460234" lon="12.373113822414131"><ele>486.5</ele><time>2026-04-04T10:29:24Z</time></trkpt><trkpt lat="42.57252721109611" lon="12.3730707669369"><ele>486.0</ele><time>2026-04-04T10:29:25Z</time></trkpt><trkpt lat="42.572597548957816" lon="12.37303376845529"><ele>485.49999999999994</ele><time>2026-04-04T10:29:26Z</time></trkpt><trkpt lat="42.5726640729959" lon="12.373000752942234"><ele>485.0</ele><time>2026-04-04T10:29:27Z</time></trkpt><trkpt lat="42.57272540017915" lon="12.372977630720182"><ele>485.0</ele><time>2026-04-04T10:29:28Z</time></trkpt><trkpt lat="42.5728666068304" lon="12.3730267210247"><ele>485.0</ele><time>2026-04-04T10:29:30Z</time></trkpt><trkpt lat="42.57294611140755" lon="12.3730521241831"><ele>485.0</ele><time>2026-04-04T10:29:31Z</time></trkpt><trkpt lat="42.57301915944647" lon="12.373065374750588"><ele>485.0</ele><time>2026-04-04T10:29:32Z</time></trkpt><trkpt lat="42.57309340824881" lon="12.37305871266917"><ele>485.0</ele><time>2026-04-04T10:29:33Z</time></trkpt><trkpt lat="42.573165726896605" lon="12.373033221965269"><ele>486.16666666666663</ele><time>2026-04-04T10:29:34Z</time></trkpt><trkpt lat="42.573232971570555" lon="12.372959422181015"><ele>487.3333333333333</ele><time>2026-04-04T10:29:35Z</time></trkpt><trkpt lat="42.57328778668379" lon="12.372873029066977"><ele>488.5</ele><time>2026-04-04T10:29:36Z</time></trkpt><trkpt lat="42.57333909110109" lon="12.37279279905758"><ele>489.66666666666663</ele><time>2026-04-04T10:29:37Z</time></trkpt><trkpt lat="42.57339261232271" lon="12.372697052261017"><ele>490.8333333333333</ele><time>2026-04-04T10:29:38Z</time></trkpt><trkpt lat="42.57343782495999" lon="12.372607597687571"><ele>492.0</ele><time>2026-04-04T10:29:39Z</time></trkpt><trkpt lat="42.57348233905494" lon="12.372506468493848"><ele>492.0</ele><time>2026-04-04T10:29:40Z</time></trkpt><trkpt lat="42.57352597118157" lon="12.372396819266434"><ele>492.0</ele><time>2026-04-04T10:29:41Z</time></trkpt><trkpt lat="42.573563385285816" lon="12.372305716627174"><ele>492.0</ele><time>2026-04-04T10:29:42Z</time></trkpt><trkpt lat="42.57360502938169" lon="12.372211497203283"><ele>492.0</ele><time>2026-04-04T10:29:43Z</time></trkpt><trkpt lat="42.57363591397127" lon="12.372111806926641"><ele>492.0</ele><time>2026-04-04T10:29:44Z</time></trkpt><trkpt lat="42.57365464795695" lon="12.371992931949327"><ele>492.0</ele><time>2026-04-04T10:29:45Z</time></trkpt><trkpt lat="42.573665607427024" lon="12.371881641851918"><ele>492.1666666666667</ele><time>2026-04-04T10:29:46Z</time></trkpt><trkpt lat="42.57368403543086" lon="12.371773866744785"><ele>492.33333333333337</ele><time>2026-04-04T10:29:47Z</time></trkpt><trkpt lat="42.57370910079996" lon="12.371680494283556"><ele>492.5</ele><time>2026-04-04T10:29:48Z</time></trkpt><trkpt lat="42.573739687969756" lon="12.371592470160088"><ele>492.6666666666667</ele><time>2026-04-04T10:29:49Z</time></trkpt><trkpt lat="42.5737753457198" lon="12.371495049591426"><ele>492.83333333333337</ele><time>2026-04-04T10:29:50Z</time></trkpt><trkpt lat="42.57381555551666" lon="12.37138519270724"><ele>493.0</ele><time>2026-04-04T10:29:51Z</time></trkpt><trkpt lat="42.573848183444596" lon="12.371278446795998"><ele>495.50000000000006</ele><time>2026-04-04T10:29:52Z</time></trkpt><trkpt lat="42.57389284565946" lon="12.371165842870775"><ele>498.0</ele><time>2026-04-04T10:29:53Z</time></trkpt><trkpt lat="42.573941395941766" lon="12.37107591745309"><ele>500.5</ele><time>2026-04-04T10:29:54Z</time></trkpt><trkpt lat="42.5739929849505" lon="12.370993253087686"><ele>503.0</ele><time>2026-04-04T10:29:55Z</time></trkpt><trkpt lat="42.57404815993328" lon="12.370912042791662"><ele>505.50000000000006</ele><time>2026-04-04T10:29:56Z</time></trkpt><trkpt lat="42.57411659235143" lon="12.370817515894117"><ele>508.0</ele><time>2026-04-04T10:29:57Z</time></trkpt><trkpt lat="42.57418534112826" lon="12.370731787219041"><ele>508.0</ele><time>2026-04-04T10:29:58Z</time></trkpt><trkpt lat="42.57426024763381" lon="12.370651318148509"><ele>507.99999999999994</ele><time>2026-04-04T10:29:59Z</time></trkpt><trkpt lat="42.574338179707404" lon="12.370578311023438"><ele>507.99999999999994</ele><time>2026-04-04T10:30:00Z</time></trkpt><trkpt lat="42.5744143756611" lon="12.370509333171825"><ele>508.0</ele><time>2026-04-04T10:30:01Z</time></trkpt><trkpt lat="42.57448712667753" lon="12.370417409288274"><ele>508.0</ele><time>2026-04-04T10:30:02Z</time></trkpt><trkpt lat="42.57457041141621" lon="12.370346757753442"><ele>510.0</ele><time>2026-04-04T10:30:03Z</time></trkpt><trkpt lat="42.5746484113101" lon="12.370277072105363"><ele>511.99999999999994</ele><time>2026-04-04T10:30:04Z</time></trkpt><trkpt lat="42.5747273819632" lon="12.37020692016726"><ele>514.0</ele><time>2026-04-04T10:30:05Z</time></trkpt><trkpt lat="42.57480713206658" lon="12.370122828624925"><ele>516.0</ele><time>2026-04-04T10:30:06Z</time></trkpt><trkpt lat="42.57489829094909" lon="12.370050413903048"><ele>518.0</ele><time>2026-04-04T10:30:07Z</time></trkpt><trkpt lat="42.57496438823644" lon="12.369954328342201"><ele>518.0</ele><time>2026-04-04T10:30:08Z</time></trkpt><trkpt lat="42.57504351775316" lon="12.369890005840478"><ele>518.0</ele><time>2026-04-04T10:30:09Z</time></trkpt><trkpt lat="42.57510878778371" lon="12.369818315976934"><ele>518.0</ele><time>2026-04-04T10:30:10Z</time></trkpt><trkpt lat="42.57516400945024" lon="12.369738860820373"><ele>518.0</ele><time>2026-04-04T10:30:11Z</time></trkpt><trkpt lat="42.57523146580069" lon="12.369679407615385"><ele>518.0</ele><time>2026-04-04T10:30:12Z</time></trkpt><trkpt lat="42.57530048934295" lon="12.369625382348223"><ele>518.0</ele><time>2026-04-04T10:30:13Z</time></trkpt><trkpt lat="42.57536628995366" lon="12.369545454008874"><ele>519.6666666666666</ele><time>2026-04-04T10:30:14Z</time></trkpt><trkpt lat="42.575421905204216" lon="12.36945839067649"><ele>521.3333333333333</ele><time>2026-04-04T10:30:15Z</time></trkpt><trkpt lat="42.57546274956108" lon="12.3693675006577"><ele>523.0</ele><time>2026-04-04T10:30:16Z</time></trkpt><trkpt lat="42.57550328313109" lon="12.369276768491268"><ele>524.6666666666666</ele><time>2026-04-04T10:30:17Z</time></trkpt><trkpt lat="42.57555058681208" lon="12.369183244972348"><ele>526.3333333333334</ele><time>2026-04-04T10:30:18Z</time></trkpt><trkpt lat="42.575594275641855" lon="12.369082117975157"><ele>528.0</ele><time>2026-04-04T10:30:19Z</time></trkpt><trkpt lat="42.57564704585419" lon="12.369000900634205"><ele>528.0</ele><time>2026-04-04T10:30:20Z</time></trkpt><trkpt lat="42.57569593179853" lon="12.368912138559304"><ele>528.0</ele><time>2026-04-04T10:30:21Z</time></trkpt><trkpt lat="42.575746322285895" lon="12.368827080632249"><ele>528.0</ele><time>2026-04-04T10:30:22Z</time></trkpt><trkpt lat="42.57579764421194" lon="12.368745972641577"><ele>528.0</ele><time>2026-04-04T10:30:23Z</time></trkpt><trkpt lat="42.575854585456106" lon="12.368662754708737"><ele>528.0</ele><time>2026-04-04T10:30:24Z</time></trkpt><trkpt lat="42.575917147927726" lon="12.36858021868074"><ele>528.0</ele><time>2026-04-04T10:30:25Z</time></trkpt><trkpt lat="42.57598109408895" lon="12.368520999247242"><ele>528.1666666666666</ele><time>2026-04-04T10:30:26Z</time></trkpt><trkpt lat="42.57604740767685" lon="12.36846387382924"><ele>528.3333333333334</ele><time>2026-04-04T10:30:27Z</time></trkpt><trkpt lat="42.57611288307001" lon="12.368386538848661"><ele>528.5</ele><time>2026-04-04T10:30:28Z</time></trkpt><trkpt lat="42.57619044187376" lon="12.368329605008167"><ele>528.6666666666667</ele><time>2026-04-04T10:30:29Z</time></trkpt><trkpt lat="42.57626836599864" lon="12.368262547305461"><ele>528.8333333333334</ele><time>2026-04-04T10:30:30Z</time></trkpt><trkpt lat="42.57634188671663" lon="12.368202532076273"><ele>529.0</ele><time>2026-04-04T10:30:31Z</time></trkpt><trkpt lat="42.5764031237817" lon="12.368152893047148"><ele>528.8</ele><time>2026-04-04T10:30:32Z</time></trkpt><trkpt lat="42.57647303344995" lon="12.368120500014243"><ele>528.5999999999999</ele><time>2026-04-04T10:30:33Z</time></trkpt><trkpt lat="42.57652176848135" lon="12.36806434290149"><ele>528.4</ele><time>2026-04-04T10:30:34Z</time></trkpt><trkpt lat="42.576597918809995" lon="12.368022421796054"><ele>528.1999999999999</ele><time>2026-04-04T10:30:36Z</time></trkpt><trkpt lat="42.57653699560887" lon="12.367796217944484"><ele>528.0</ele><time>2026-04-04T10:30:39Z</time></trkpt><trkpt lat="42.57646707433123" lon="12.367676815539303"><ele>528.0</ele><time>2026-04-04T10:30:41Z</time></trkpt><trkpt lat="42.57640483059907" lon="12.367582215607998"><ele>528.0</ele><time>2026-04-04T10:30:43Z</time></trkpt><trkpt lat="42.576350479881896" lon="12.367498770334265"><ele>528.0</ele><time>2026-04-04T10:30:45Z</time></trkpt><trkpt lat="42.57630304393747" lon="12.367424514936735"><ele>528.0</ele><time>2026-04-04T10:30:47Z</time></trkpt><trkpt lat="42.576249586046856" lon="12.367311594200563"><ele>528.0</ele><time>2026-04-04T10:30:49Z</time></trkpt><trkpt lat="42.57622777970727" lon="12.36717263927505"><ele>527.3333333333334</ele><time>2026-04-04T10:30:51Z</time></trkpt><trkpt lat="42.57621200356966" lon="12.367081814834167"><ele>526.6666666666666</ele><time>2026-04-04T10:30:52Z</time></trkpt><trkpt lat="42.576196795564925" lon="12.366989417730453"><ele>526.0</ele><time>2026-04-04T10:30:53Z</time></trkpt><trkpt lat="42.57619958501127" lon="12.366828853462927"><ele>525.3333333333333</ele><time>2026-04-04T10:30:55Z</time></trkpt><trkpt lat="42.57622996820603" lon="12.366751238367325"><ele>524.6666666666666</ele><time>2026-04-04T10:30:56Z</time></trkpt><trkpt lat="42.57626521216075" lon="12.366670639428317"><ele>524.0</ele><time>2026-04-04T10:30:57Z</time></trkpt><trkpt lat="42.576285433394396" lon="12.36657275922831"><ele>524.0</ele><time>2026-04-04T10:30:58Z</time></trkpt><trkpt lat="42.57629137167791" lon="12.366478738148045"><ele>524.0</ele><time>2026-04-04T10:30:59Z</time></trkpt><trkpt lat="42.576288281119666" lon="12.366386487711692"><ele>524.0</ele><time>2026-04-04T10:31:00Z</time></trkpt><trkpt lat="42.576266561489795" lon="12.366254586771282"><ele>524.0</ele><time>2026-04-04T10:31:02Z</time></trkpt><trkpt lat="42.57630588965377" lon="12.366157150747696"><ele>524.0</ele><time>2026-04-04T10:31:05Z</time></trkpt><trkpt lat="42.57638770177965" lon="12.366019183482427"><ele>524.0</ele><time>2026-04-04T10:31:07Z</time></trkpt><trkpt lat="42.576440507908835" lon="12.365944886580843"><ele>523.6666666666666</ele><time>2026-04-04T10:31:08Z</time></trkpt><trkpt lat="42.576508356852756" lon="12.365893074323049"><ele>523.3333333333333</ele><time>2026-04-04T10:31:09Z</time></trkpt><trkpt lat="42.5765764449253" lon="12.365824145702643"><ele>523.0</ele><time>2026-04-04T10:31:10Z</time></trkpt><trkpt lat="42.57664454559666" lon="12.36576260938286"><ele>522.6666666666666</ele><time>2026-04-04T10:31:11Z</time></trkpt><trkpt lat="42.57670464085463" lon="12.3656953244841"><ele>522.3333333333334</ele><time>2026-04-04T10:31:12Z</time></trkpt><trkpt lat="42.5767602623098" lon="12.365646868318427"><ele>522.0</ele><time>2026-04-04T10:31:13Z</time></trkpt><trkpt lat="42.576819572846425" lon="12.365581062918723"><ele>521.8333333333334</ele><time>2026-04-04T10:31:15Z</time></trkpt><trkpt lat="42.576896931554465" lon="12.365450158569963"><ele>521.6666666666666</ele><time>2026-04-04T10:31:17Z</time></trkpt><trkpt lat="42.57695340073905" lon="12.365371105658513"><ele>521.5</ele><time>2026-04-04T10:31:18Z</time></trkpt><trkpt lat="42.576999097240865" lon="12.365289357525874"><ele>521.3333333333333</ele><time>2026-04-04T10:31:19Z</time></trkpt><trkpt lat="42.577049733158326" lon="12.36521761414063"><ele>521.1666666666666</ele><time>2026-04-04T10:31:20Z</time></trkpt><trkpt lat="42.577105866853906" lon="12.365141911527726"><ele>521.0</ele><time>2026-04-04T10:31:21Z</time></trkpt><trkpt lat="42.577165524054905" lon="12.365070459073348"><ele>521.0</ele><time>2026-04-04T10:31:22Z</time></trkpt><trkpt lat="42.57722991389314" lon="12.36502321554118"><ele>521.0</ele><time>2026-04-04T10:31:23Z</time></trkpt><trkpt lat="42.577282818899015" lon="12.36496144447571"><ele>521.0</ele><time>2026-04-04T10:31:24Z</time></trkpt><trkpt lat="42.577364201795696" lon="12.364853633570275"><ele>521.0</ele><time>2026-04-04T10:31:26Z</time></trkpt><trkpt lat="42.57737002143108" lon="12.364692144658276"><ele>521.0</ele><time>2026-04-04T10:31:28Z</time></trkpt><trkpt lat="42.577373475090006" lon="12.36460290002152"><ele>521.0</ele><time>2026-04-04T10:31:29Z</time></trkpt><trkpt lat="42.5773977830741" lon="12.364481547127042"><ele>522.1666666666666</ele><time>2026-04-04T10:31:31Z</time></trkpt><trkpt lat="42.57736524001316" lon="12.364385887880855"><ele>523.3333333333333</ele><time>2026-04-04T10:31:33Z</time></trkpt><trkpt lat="42.57736462572563" lon="12.364284423635665"><ele>524.5</ele><time>2026-04-04T10:31:35Z</time></trkpt><trkpt lat="42.57741732490285" lon="12.36414605337966"><ele>525.6666666666666</ele><time>2026-04-04T10:31:37Z</time></trkpt><trkpt lat="42.57742078161402" lon="12.364058356801598"><ele>526.8333333333334</ele><time>2026-04-04T10:31:38Z</time></trkpt><trkpt lat="42.577435563447544" lon="12.363971229581999"><ele>528.0</ele><time>2026-04-04T10:31:39Z</time></trkpt><trkpt lat="42.57745700482562" lon="12.363817849598348"><ele>529.4</ele><time>2026-04-04T10:31:41Z</time></trkpt><trkpt lat="42.577533471840184" lon="12.363687490463194"><ele>530.8</ele><time>2026-04-04T10:31:43Z</time></trkpt><trkpt lat="42.57764153421577" lon="12.363615647238383"><ele>532.2</ele><time>2026-04-04T10:31:45Z</time></trkpt><trkpt lat="42.57773351567283" lon="12.363490632362955"><ele>533.6</ele><time>2026-04-04T10:31:47Z</time></trkpt><trkpt lat="42.57776764601593" lon="12.363405519750225"><ele>535.0</ele><time>2026-04-04T10:31:48Z</time></trkpt><trkpt lat="42.57780027253917" lon="12.363328673165034"><ele>535.0</ele><time>2026-04-04T10:31:49Z</time></trkpt><trkpt lat="42.57784740876009" lon="12.363258728974106"><ele>535.0</ele><time>2026-04-04T10:31:50Z</time></trkpt><trkpt lat="42.57789634795601" lon="12.363189049587852"><ele>535.0</ele><time>2026-04-04T10:31:51Z</time></trkpt><trkpt lat="42.57795923336279" lon="12.363150572227013"><ele>535.0</ele><time>2026-04-04T10:31:52Z</time></trkpt><trkpt lat="42.57801621785826" lon="12.363094106297742"><ele>535.0</ele><time>2026-04-04T10:31:53Z</time></trkpt><trkpt lat="42.57805203526711" lon="12.363021673854002"><ele>535.0</ele><time>2026-04-04T10:31:54Z</time></trkpt><trkpt lat="42.578082315753704" lon="12.362944872542874"><ele>535.0</ele><time>2026-04-04T10:31:55Z</time></trkpt><trkpt lat="42.57812206251265" lon="12.362868185698284"><ele>535.0</ele><time>2026-04-04T10:31:56Z</time></trkpt><trkpt lat="42.57818153562969" lon="12.362805031029268"><ele>535.0</ele><time>2026-04-04T10:31:57Z</time></trkpt><trkpt lat="42.57825001503788" lon="12.362756024741023"><ele>535.0</ele><time>2026-04-04T10:31:58Z</time></trkpt><trkpt lat="42.57832773994918" lon="12.362723659364853"><ele>535.0</ele><time>2026-04-04T10:31:59Z</time></trkpt><trkpt lat="42.578407962409784" lon="12.36269704731646"><ele>535.0</ele><time>2026-04-04T10:32:00Z</time></trkpt><trkpt lat="42.578483945768085" lon="12.36266582199287"><ele>535.0</ele><time>2026-04-04T10:32:01Z</time></trkpt><trkpt lat="42.57855703787901" lon="12.362631588540006"><ele>535.0</ele><time>2026-04-04T10:32:02Z</time></trkpt><trkpt lat="42.57861951506852" lon="12.362593926032872"><ele>535.0</ele><time>2026-04-04T10:32:03Z</time></trkpt><trkpt lat="42.57871718578707" lon="12.362504662716944"><ele>535.0</ele><time>2026-04-04T10:32:05Z</time></trkpt><trkpt lat="42.57883619526538" lon="12.362450163835343"><ele>535.0</ele><time>2026-04-04T10:32:07Z</time></trkpt><trkpt lat="42.57896544381408" lon="12.362470506325064"><ele>535.0</ele><time>2026-04-04T10:32:09Z</time></trkpt><trkpt lat="42.57903972050544" lon="12.362490638412503"><ele>534.6666666666667</ele><time>2026-04-04T10:32:10Z</time></trkpt><trkpt lat="42.57911421543073" lon="12.36250414094665"><ele>534.3333333333334</ele><time>2026-04-04T10:32:11Z</time></trkpt><trkpt lat="42.57917983990434" lon="12.36251567283306"><ele>534.0</ele><time>2026-04-04T10:32:12Z</time></trkpt><trkpt lat="42.579246549775945" lon="12.362512392165023"><ele>533.6666666666666</ele><time>2026-04-04T10:32:13Z</time></trkpt><trkpt lat="42.57930863807929" lon="12.362487546452885"><ele>533.3333333333333</ele><time>2026-04-04T10:32:14Z</time></trkpt><trkpt lat="42.579401463051774" lon="12.362391142200567"><ele>533.0</ele><time>2026-04-04T10:32:16Z</time></trkpt><trkpt lat="42.579505001003696" lon="12.362305434075468"><ele>532.5</ele><time>2026-04-04T10:32:18Z</time></trkpt><trkpt lat="42.57961212616761" lon="12.362242428262777"><ele>532.0</ele><time>2026-04-04T10:32:20Z</time></trkpt><trkpt lat="42.5797234646682" lon="12.362197498993428"><ele>531.5</ele><time>2026-04-04T10:32:22Z</time></trkpt><trkpt lat="42.57983557526907" lon="12.3621667075598"><ele>531.0</ele><time>2026-04-04T10:32:24Z</time></trkpt><trkpt lat="42.57993711170988" lon="12.362101547973072"><ele>531.0</ele><time>2026-04-04T10:32:26Z</time></trkpt><trkpt lat="42.57998512811809" lon="12.362038292414914"><ele>531.0</ele><time>2026-04-04T10:32:27Z</time></trkpt><trkpt lat="42.58002935429313" lon="12.361970686130725"><ele>531.0</ele><time>2026-04-04T10:32:28Z</time></trkpt><trkpt lat="42.58007777333879" lon="12.361903973981137"><ele>531.0</ele><time>2026-04-04T10:32:29Z</time></trkpt><trkpt lat="42.580124746692455" lon="12.361845603651163"><ele>531.0</ele><time>2026-04-04T10:32:30Z</time></trkpt><trkpt lat="42.58019701008803" lon="12.361722376159618"><ele>531.0</ele><time>2026-04-04T10:32:32Z</time></trkpt><trkpt lat="42.58024032824123" lon="12.361625462168353"><ele>531.0</ele><time>2026-04-04T10:32:34Z</time></trkpt><trkpt lat="42.58026975132945" lon="12.361516001683837"><ele>531.0</ele><time>2026-04-04T10:32:37Z</time></trkpt><trkpt lat="42.58029678419386" lon="12.361419778427"><ele>531.0</ele><time>2026-04-04T10:32:39Z</time></trkpt><trkpt lat="42.58035815186968" lon="12.361325608398795"><ele>531.0</ele><time>2026-04-04T10:32:42Z</time></trkpt><trkpt lat="42.580390553721806" lon="12.361241589233583"><ele>531.0</ele><time>2026-04-04T10:32:44Z</time></trkpt><trkpt lat="42.580430960554196" lon="12.36110354770995"><ele>531.0</ele><time>2026-04-04T10:32:46Z</time></trkpt><trkpt lat="42.580474389806234" lon="12.361006350826841"><ele>532.0</ele><time>2026-04-04T10:32:48Z</time></trkpt><trkpt lat="42.580571638941855" lon="12.36099431772931"><ele>533.0</ele><time>2026-04-04T10:32:51Z</time></trkpt><trkpt lat="42.580670140564294" lon="12.361020267710966"><ele>534.0</ele><time>2026-04-04T10:32:53Z</time></trkpt><trkpt lat="42.580778811222224" lon="12.361009251008682"><ele>535.0</ele><time>2026-04-04T10:32:55Z</time></trkpt><trkpt lat="42.58088714977498" lon="12.360967026417233"><ele>536.0</ele><time>2026-04-04T10:32:57Z</time></trkpt><trkpt lat="42.580990207890636" lon="12.360892181364143"><ele>536.0</ele><time>2026-04-04T10:32:59Z</time></trkpt><trkpt lat="42.58107278433105" lon="12.360829120746493"><ele>536.0</ele><time>2026-04-04T10:33:01Z</time></trkpt><trkpt lat="42.58115589964167" lon="12.36086126375193"><ele>536.0</ele><time>2026-04-04T10:33:03Z</time></trkpt><trkpt lat="42.581257938438654" lon="12.360951981725432"><ele>536.0</ele><time>2026-04-04T10:33:05Z</time></trkpt><trkpt lat="42.5813531532099" lon="12.360993124428216"><ele>536.0</ele><time>2026-04-04T10:33:07Z</time></trkpt><trkpt lat="42.581446644187565" lon="12.361003961470544"><ele>537.0</ele><time>2026-04-04T10:33:09Z</time></trkpt><trkpt lat="42.58153886401967" lon="12.36094259169407"><ele>538.0</ele><time>2026-04-04T10:33:11Z</time></trkpt><trkpt lat="42.581591019224" lon="12.36088950624597"><ele>539.0</ele><time>2026-04-04T10:33:12Z</time></trkpt><trkpt lat="42.581658542457596" lon="12.360789437297518"><ele>540.0</ele><time>2026-04-04T10:33:14Z</time></trkpt><trkpt lat="42.5817476512278" lon="12.360713000096837"><ele>541.0</ele><time>2026-04-04T10:33:16Z</time></trkpt><trkpt lat="42.581805381085495" lon="12.360620118284762"><ele>541.0</ele><time>2026-04-04T10:33:18Z</time></trkpt><trkpt lat="42.58176148760897" lon="12.360551240003955"><ele>541.0</ele><time>2026-04-04T10:33:24Z</time></trkpt><trkpt lat="42.58170236344607" lon="12.36062592930706"><ele>541.0</ele><time>2026-04-04T10:33:26Z</time></trkpt><trkpt lat="42.5816447268571" lon="12.360736241140634"><ele>541.0</ele><time>2026-04-04T10:33:28Z</time></trkpt><trkpt lat="42.58161196056075" lon="12.360846984539949"><ele>541.0</ele><time>2026-04-04T10:33:30Z</time></trkpt><trkpt lat="42.58156421035619" lon="12.360942786129494"><ele>541.0</ele><time>2026-04-04T10:33:32Z</time></trkpt><trkpt lat="42.58156817173149" lon="12.361052607278673"><ele>541.0</ele><time>2026-04-04T10:33:35Z</time></trkpt><trkpt lat="42.58163561265773" lon="12.36110562895332"><ele>541.0</ele><time>2026-04-04T10:33:37Z</time></trkpt><trkpt lat="42.58169108008251" lon="12.361149025912786"><ele>541.0</ele><time>2026-04-04T10:33:39Z</time></trkpt><trkpt lat="42.58178341603193" lon="12.361182610664146"><ele>541.0</ele><time>2026-04-04T10:33:42Z</time></trkpt><trkpt lat="42.581845524964194" lon="12.361201751186387"><ele>541.0</ele><time>2026-04-04T10:33:44Z</time></trkpt><trkpt lat="42.58193616220301" lon="12.36120023206808"><ele>541.0</ele><time>2026-04-04T10:33:46Z</time></trkpt><trkpt lat="42.58203646550223" lon="12.361173892659941"><ele>541.0</ele><time>2026-04-04T10:33:48Z</time></trkpt><trkpt lat="42.5821198693667" lon="12.36111872263901"><ele>541.0</ele><time>2026-04-04T10:33:50Z</time></trkpt><trkpt lat="42.582184544213774" lon="12.361106751875704"><ele>541.0</ele><time>2026-04-04T10:33:52Z</time></trkpt><trkpt lat="42.58224498957743" lon="12.361078147204086"><ele>541.0</ele><time>2026-04-04T10:33:54Z</time></trkpt><trkpt lat="42.58230718488578" lon="12.361018658940651"><ele>541.0</ele><time>2026-04-04T10:33:56Z</time></trkpt><trkpt lat="42.58235481088257" lon="12.360926949743098"><ele>541.0</ele><time>2026-04-04T10:33:58Z</time></trkpt><trkpt lat="42.582378107165745" lon="12.360823585937315"><ele>541.0</ele><time>2026-04-04T10:34:00Z</time></trkpt><trkpt lat="42.582397089293444" lon="12.360700787466861"><ele>541.0</ele><time>2026-04-04T10:34:02Z</time></trkpt><trkpt lat="42.58242821484455" lon="12.360622083565174"><ele>541.0</ele><time>2026-04-04T10:34:04Z</time></trkpt><trkpt lat="42.58249988954496" lon="12.36053953712384"><ele>541.0</ele><time>2026-04-04T10:34:06Z</time></trkpt><trkpt lat="42.5825656066766" lon="12.360525303637099"><ele>541.0</ele><time>2026-04-04T10:34:08Z</time></trkpt><trkpt lat="42.582630576645826" lon="12.360643863682364"><ele>541.0</ele><time>2026-04-04T10:34:10Z</time></trkpt><trkpt lat="42.582693473159374" lon="12.36075059522103"><ele>541.0</ele><time>2026-04-04T10:34:12Z</time></trkpt><trkpt lat="42.58278430456648" lon="12.360811573013873"><ele>541.0</ele><time>2026-04-04T10:34:14Z</time></trkpt><trkpt lat="42.58283548300048" lon="12.360875538252827"><ele>541.0</ele><time>2026-04-04T10:34:16Z</time></trkpt><trkpt lat="42.58286583345444" lon="12.360950961672238"><ele>541.0</ele><time>2026-04-04T10:34:18Z</time></trkpt><trkpt lat="42.582952490184816" lon="12.360968730403524"><ele>541.0</ele><time>2026-04-04T10:34:20Z</time></trkpt><trkpt lat="42.583032060775906" lon="12.360934996839687"><ele>541.0</ele><time>2026-04-04T10:34:22Z</time></trkpt><trkpt lat="42.58308986168532" lon="12.360897717343168"><ele>542.0</ele><time>2026-04-04T10:34:24Z</time></trkpt><trkpt lat="42.58318206173685" lon="12.360875948919041"><ele>543.0</ele><time>2026-04-04T10:34:26Z</time></trkpt><trkpt lat="42.58325183595506" lon="12.36085556882221"><ele>544.0</ele><time>2026-04-04T10:34:28Z</time></trkpt><trkpt lat="42.583320855517336" lon="12.360790271811307"><ele>545.0</ele><time>2026-04-04T10:34:30Z</time></trkpt><trkpt lat="42.58334319711608" lon="12.360709140918546"><ele>546.0</ele><time>2026-04-04T10:34:32Z</time></trkpt><trkpt lat="42.583339943836414" lon="12.360596644921378"><ele>547.0</ele><time>2026-04-04T10:34:34Z</time></trkpt><trkpt lat="42.583394819329904" lon="12.360535712030526"><ele>549.4</ele><time>2026-04-04T10:34:36Z</time></trkpt><trkpt lat="42.583489802505625" lon="12.360512685902123"><ele>551.8000000000001</ele><time>2026-04-04T10:34:38Z</time></trkpt><trkpt lat="42.58358088438977" lon="12.360515185659308"><ele>554.2</ele><time>2026-04-04T10:34:40Z</time></trkpt><trkpt lat="42.583661546926315" lon="12.360495213181396"><ele>556.6</ele><time>2026-04-04T10:34:42Z</time></trkpt><trkpt lat="42.58369331470571" lon="12.360397329485602"><ele>559.0</ele><time>2026-04-04T10:34:44Z</time></trkpt><trkpt lat="42.58369198496551" lon="12.360246248550498"><ele>559.0</ele><time>2026-04-04T10:34:46Z</time></trkpt><trkpt lat="42.58366773677469" lon="12.360107230191238"><ele>559.0</ele><time>2026-04-04T10:34:48Z</time></trkpt><trkpt lat="42.58365320922107" lon="12.359996015119407"><ele>559.0</ele><time>2026-04-04T10:34:50Z</time></trkpt><trkpt lat="42.58363131936759" lon="12.359844362415062"><ele>559.0</ele><time>2026-04-04T10:34:52Z</time></trkpt><trkpt lat="42.58359930051405" lon="12.35970875882575"><ele>559.0</ele><time>2026-04-04T10:34:54Z</time></trkpt><trkpt lat="42.583605028383" lon="12.359600074990627"><ele>560.2</ele><time>2026-04-04T10:34:56Z</time></trkpt><trkpt lat="42.58361343586059" lon="12.3594745098835"><ele>561.4</ele><time>2026-04-04T10:34:58Z</time></trkpt><trkpt lat="42.583623562643616" lon="12.359327078300284"><ele>562.6</ele><time>2026-04-04T10:35:00Z</time></trkpt><trkpt lat="42.583621745056945" lon="12.35917811192142"><ele>563.8</ele><time>2026-04-04T10:35:02Z</time></trkpt><trkpt lat="42.58358541860242" lon="12.35906939066854"><ele>565.0</ele><time>2026-04-04T10:35:05Z</time></trkpt><trkpt lat="42.58355978323156" lon="12.358985676846363"><ele>565.0</ele><time>2026-04-04T10:35:08Z</time></trkpt><trkpt lat="42.58354339473525" lon="12.358895769051463"><ele>565.0</ele><time>2026-04-04T10:35:39Z</time></trkpt><trkpt lat="42.583515801605394" lon="12.358796193889535"><ele>565.0</ele><time>2026-04-04T10:35:41Z</time></trkpt><trkpt lat="42.583491000864136" lon="12.358691903694506"><ele>565.0</ele><time>2026-04-04T10:35:43Z</time></trkpt><trkpt lat="42.583466859801305" lon="12.358591203860076"><ele>565.0</ele><time>2026-04-04T10:35:45Z</time></trkpt><trkpt lat="42.58343243982691" lon="12.35850133223911"><ele>565.0</ele><time>2026-04-04T10:35:47Z</time></trkpt><trkpt lat="42.5834348960785" lon="12.358398928138108"><ele>565.7142857142857</ele><time>2026-04-04T10:35:50Z</time></trkpt><trkpt lat="42.5833770086707" lon="12.358363149066431"><ele>566.4285714285714</ele><time>2026-04-04T10:35:54Z</time></trkpt><trkpt lat="42.583326418401555" lon="12.35826729799807"><ele>567.1428571428571</ele><time>2026-04-04T10:35:57Z</time></trkpt><trkpt lat="42.58330909942381" lon="12.358154554702418"><ele>567.8571428571429</ele><time>2026-04-04T10:37:26Z</time></trkpt><trkpt lat="42.58329639406124" lon="12.358067770527006"><ele>568.5714285714286</ele><time>2026-04-04T10:37:32Z</time></trkpt><trkpt lat="42.58326077504658" lon="12.35799523912212"><ele>569.2857142857142</ele><time>2026-04-04T10:37:38Z</time></trkpt><trkpt lat="42.58319679694039" lon="12.357938948023394"><ele>570.0</ele><time>2026-04-04T10:40:07Z</time></trkpt><trkpt lat="42.58317274498404" lon="12.357857646172745"><ele>571.1666666666666</ele><time>2026-04-04T10:40:09Z</time></trkpt><trkpt lat="42.583198384242706" lon="12.357731384796539"><ele>572.3333333333334</ele><time>2026-04-04T10:40:12Z</time></trkpt><trkpt lat="42.583239044614885" lon="12.357659975476357"><ele>573.5</ele><time>2026-04-04T10:40:15Z</time></trkpt><trkpt lat="42.58324980848155" lon="12.357531656499454"><ele>574.6666666666667</ele><time>2026-04-04T10:40:39.001Z</time></trkpt><trkpt lat="42.58321484071097" lon="12.357416014070738"><ele>575.8333333333334</ele><time>2026-04-04T10:40:42.001Z</time></trkpt><trkpt lat="42.58318466214507" lon="12.357297575025159"><ele>577.0</ele><time>2026-04-04T10:40:45.001Z</time></trkpt><trkpt lat="42.58323212228924" lon="12.357216489754636"><ele>578.6666666666667</ele><time>2026-04-04T10:40:47.001Z</time></trkpt><trkpt lat="42.583258281913004" lon="12.357136228677584"><ele>580.3333333333334</ele><time>2026-04-04T10:40:49Z</time></trkpt><trkpt lat="42.58326613586761" lon="12.35704798561054"><ele>582.0</ele><time>2026-04-04T10:40:51Z</time></trkpt><trkpt lat="42.583302890895666" lon="12.356955210159057"><ele>583.6666666666666</ele><time>2026-04-04T10:40:54Z</time></trkpt><trkpt lat="42.58329612574856" lon="12.356825949965392"><ele>585.3333333333333</ele><time>2026-04-04T10:40:56Z</time></trkpt><trkpt lat="42.58335053716379" lon="12.356734703721807"><ele>587.0</ele><time>2026-04-04T10:40:59Z</time></trkpt><trkpt lat="42.58336393445554" lon="12.356648349009946"><ele>587.0</ele><time>2026-04-04T10:41:01Z</time></trkpt><trkpt lat="42.58341192518379" lon="12.356550056456223"><ele>587.0</ele><time>2026-04-04T10:41:03Z</time></trkpt><trkpt lat="42.58346168206001" lon="12.356439702010439"><ele>587.0</ele><time>2026-04-04T10:41:05Z</time></trkpt><trkpt lat="42.583524664517746" lon="12.356369160369228"><ele>587.0</ele><time>2026-04-04T10:41:07Z</time></trkpt><trkpt lat="42.58360094981597" lon="12.356344175809959"><ele>587.0</ele><time>2026-04-04T10:41:09Z</time></trkpt><trkpt lat="42.58368331086886" lon="12.356308980528542"><ele>587.0</ele><time>2026-04-04T10:41:11Z</time></trkpt><trkpt lat="42.58376759081559" lon="12.3562157232727"><ele>589.0</ele><time>2026-04-04T10:41:13Z</time></trkpt><trkpt lat="42.583860344379445" lon="12.356152502592428"><ele>591.0</ele><time>2026-04-04T10:41:15Z</time></trkpt><trkpt lat="42.583919657939944" lon="12.356096814210696"><ele>593.0</ele><time>2026-04-04T10:41:18Z</time></trkpt><trkpt lat="42.58407852765913" lon="12.356097848845572"><ele>595.0</ele><time>2026-04-04T10:41:28Z</time></trkpt><trkpt lat="42.58415289995011" lon="12.356115197406071"><ele>597.0</ele><time>2026-04-04T10:41:30Z</time></trkpt><trkpt lat="42.584253711181944" lon="12.356104383621208"><ele>597.0</ele><time>2026-04-04T10:41:32Z</time></trkpt><trkpt lat="42.58433614721308" lon="12.356084210956288"><ele>597.0</ele><time>2026-04-04T10:41:34Z</time></trkpt><trkpt lat="42.58438858100851" lon="12.356028768279437"><ele>597.0</ele><time>2026-04-04T10:41:36Z</time></trkpt><trkpt lat="42.58445395531783" lon="12.35597173552108"><ele>597.0</ele><time>2026-04-04T10:41:38Z</time></trkpt><trkpt lat="42.58448632451974" lon="12.355896654116055"><ele>597.0</ele><time>2026-04-04T10:41:40Z</time></trkpt><trkpt lat="42.58453304191139" lon="12.355802035601965"><ele>597.0</ele><time>2026-04-04T10:42:04Z</time></trkpt><trkpt lat="42.58457453940347" lon="12.355694784611444"><ele>600.2</ele><time>2026-04-04T10:42:07Z</time></trkpt><trkpt lat="42.58462358563322" lon="12.355609319258084"><ele>603.4000000000001</ele><time>2026-04-04T10:42:10Z</time></trkpt><trkpt lat="42.58468291316529" lon="12.355458706048625"><ele>606.5999999999999</ele><time>2026-04-04T10:42:12Z</time></trkpt><trkpt lat="42.58473899383084" lon="12.355364431462524"><ele>609.8</ele><time>2026-04-04T10:42:15Z</time></trkpt><trkpt lat="42.58478842166158" lon="12.355275042684484"><ele>613.0</ele><time>2026-04-04T10:42:28Z</time></trkpt><trkpt lat="42.58485093655209" lon="12.355220616808877"><ele>613.5714285714286</ele><time>2026-04-04T10:42:31Z</time></trkpt><trkpt lat="42.58488382909821" lon="12.355143206610043"><ele>614.1428571428571</ele><time>2026-04-04T10:42:33Z</time></trkpt><trkpt lat="42.584922522775685" lon="12.355070421630403"><ele>614.7142857142858</ele><time>2026-04-04T10:42:36Z</time></trkpt><trkpt lat="42.584888126512254" lon="12.354998370468563"><ele>615.2857142857142</ele><time>2026-04-04T10:43:24Z</time></trkpt><trkpt lat="42.584958005238285" lon="12.354939697266541"><ele>615.8571428571428</ele><time>2026-04-04T10:43:33Z</time></trkpt><trkpt lat="42.58500298613289" lon="12.354837477559526"><ele>616.4285714285714</ele><time>2026-04-04T10:43:46Z</time></trkpt><trkpt lat="42.58504198992634" lon="12.354741194327294"><ele>617.0</ele><time>2026-04-04T10:43:51Z</time></trkpt><trkpt lat="42.58505606983317" lon="12.354623331213809"><ele>618.6666666666666</ele><time>2026-04-04T10:43:54Z</time></trkpt><trkpt lat="42.58508918203371" lon="12.354510028687377"><ele>620.3333333333333</ele><time>2026-04-04T10:43:57Z</time></trkpt><trkpt lat="42.585137582880364" lon="12.354423360671825"><ele>622.0</ele><time>2026-04-04T10:43:59Z</time></trkpt><trkpt lat="42.58516941357548" lon="12.35431095466653"><ele>623.6666666666666</ele><time>2026-04-04T10:44:02Z</time></trkpt><trkpt lat="42.58517359779383" lon="12.354202143992936"><ele>625.3333333333334</ele><time>2026-04-04T10:44:04Z</time></trkpt><trkpt lat="42.58521880213501" lon="12.354094817033227"><ele>627.0</ele><time>2026-04-04T10:44:06Z</time></trkpt><trkpt lat="42.58523579537475" lon="12.353982006542143"><ele>628.0</ele><time>2026-04-04T10:44:08Z</time></trkpt><trkpt lat="42.585290226177754" lon="12.353871051632801"><ele>629.0</ele><time>2026-04-04T10:44:11Z</time></trkpt><trkpt lat="42.58531756531462" lon="12.353766681652038"><ele>630.0</ele><time>2026-04-04T10:44:13Z</time></trkpt><trkpt lat="42.58536990684837" lon="12.353683687029426"><ele>631.0</ele><time>2026-04-04T10:44:15Z</time></trkpt><trkpt lat="42.58542960423932" lon="12.35359541490834"><ele>632.0</ele><time>2026-04-04T10:44:17Z</time></trkpt><trkpt lat="42.58549329736952" lon="12.353532250442507"><ele>633.0</ele><time>2026-04-04T10:44:19Z</time></trkpt><trkpt lat="42.58555444849092" lon="12.353465037712088"><ele>633.0</ele><time>2026-04-04T10:44:22Z</time></trkpt><trkpt lat="42.58562291928205" lon="12.353395328569343"><ele>633.0</ele><time>2026-04-04T10:44:24Z</time></trkpt><trkpt lat="42.58570282153029" lon="12.353322136468329"><ele>633.0</ele><time>2026-04-04T10:44:26Z</time></trkpt><trkpt lat="42.58576612702995" lon="12.353278611093453"><ele>633.0</ele><time>2026-04-04T10:44:28Z</time></trkpt><trkpt lat="42.585820843047685" lon="12.353236321959278"><ele>633.0</ele><time>2026-04-04T10:44:32Z</time></trkpt><trkpt lat="42.58592914661406" lon="12.353195183871069"><ele>633.0</ele><time>2026-04-04T10:45:42Z</time></trkpt><trkpt lat="42.58599119189689" lon="12.353111500652085"><ele>633.0</ele><time>2026-04-04T10:46:10Z</time></trkpt><trkpt lat="42.5860428051764" lon="12.35304997753879"><ele>633.0</ele><time>2026-04-04T10:46:12Z</time></trkpt><trkpt lat="42.58610058565366" lon="12.353000946597124"><ele>633.0</ele><time>2026-04-04T10:46:14Z</time></trkpt><trkpt lat="42.586146841668516" lon="12.352923729207664"><ele>633.0</ele><time>2026-04-04T10:46:16Z</time></trkpt><trkpt lat="42.58619807562127" lon="12.352870262296387"><ele>633.0</ele><time>2026-04-04T10:46:18Z</time></trkpt><trkpt lat="42.586251014313916" lon="12.352808745840127"><ele>633.0</ele><time>2026-04-04T10:46:22Z</time></trkpt><trkpt lat="42.58629781846531" lon="12.35274310976098"><ele>633.0</ele><time>2026-04-04T10:46:26Z</time></trkpt><trkpt lat="42.58636145111258" lon="12.352764748420212"><ele>632.5714285714286</ele><time>2026-04-04T10:46:36Z</time></trkpt><trkpt lat="42.58642417825394" lon="12.352798658779536"><ele>632.1428571428571</ele><time>2026-04-04T10:46:51Z</time></trkpt><trkpt lat="42.586488643179166" lon="12.35278819572786"><ele>631.7142857142858</ele><time>2026-04-04T10:46:54Z</time></trkpt><trkpt lat="42.586510193973396" lon="12.352704823130729"><ele>631.2857142857142</ele><time>2026-04-04T10:46:57Z</time></trkpt><trkpt lat="42.58655013696017" lon="12.352620402327691"><ele>630.8571428571429</ele><time>2026-04-04T10:47:05Z</time></trkpt><trkpt lat="42.58661062614271" lon="12.352578575906756"><ele>630.4285714285714</ele><time>2026-04-04T10:47:09Z</time></trkpt><trkpt lat="42.58668732668029" lon="12.35257744386221"><ele>630.0</ele><time>2026-04-04T10:47:23Z</time></trkpt><trkpt lat="42.586765977901045" lon="12.35255768475858"><ele>630.0</ele><time>2026-04-04T10:47:27Z</time></trkpt><trkpt lat="42.58683427905869" lon="12.35252872497023"><ele>630.0</ele><time>2026-04-04T10:47:30Z</time></trkpt><trkpt lat="42.58691693803074" lon="12.352497548459601"><ele>630.0</ele><time>2026-04-04T10:47:33Z</time></trkpt><trkpt lat="42.58699324979958" lon="12.352467486731278"><ele>630.0</ele><time>2026-04-04T10:47:35Z</time></trkpt><trkpt lat="42.587070226328066" lon="12.352433137751209"><ele>630.0</ele><time>2026-04-04T10:47:37Z</time></trkpt><trkpt lat="42.58714431839955" lon="12.352424915348115"><ele>630.0</ele><time>2026-04-04T10:47:39Z</time></trkpt><trkpt lat="42.58721023747076" lon="12.352412840476378"><ele>630.0</ele><time>2026-04-04T10:47:41Z</time></trkpt><trkpt lat="42.58727948460817" lon="12.352379900832041"><ele>630.0</ele><time>2026-04-04T10:47:57Z</time></trkpt><trkpt lat="42.58735039788697" lon="12.352347478249943"><ele>630.0</ele><time>2026-04-04T10:48:00Z</time></trkpt><trkpt lat="42.58740036274339" lon="12.352288878529999"><ele>630.0</ele><time>2026-04-04T10:48:02Z</time></trkpt><trkpt lat="42.58747244246722" lon="12.35221768736306"><ele>630.0</ele><time>2026-04-04T10:48:05Z</time></trkpt><trkpt lat="42.58755078512075" lon="12.352178924418672"><ele>630.0</ele><time>2026-04-04T10:48:08Z</time></trkpt><trkpt lat="42.58763731681534" lon="12.352170240983247"><ele>630.0</ele><time>2026-04-04T10:48:11Z</time></trkpt><trkpt lat="42.58770346138247" lon="12.352178864218345"><ele>630.0</ele><time>2026-04-04T10:48:13Z</time></trkpt><trkpt lat="42.5877780080995" lon="12.352202332629764"><ele>630.0</ele><time>2026-04-04T10:48:15Z</time></trkpt><trkpt lat="42.58785039684829" lon="12.352234185715195"><ele>630.0</ele><time>2026-04-04T10:48:17Z</time></trkpt><trkpt lat="42.58791167491683" lon="12.352261254510253"><ele>630.0</ele><time>2026-04-04T10:48:20Z</time></trkpt><trkpt lat="42.5879846180995" lon="12.352300272093144"><ele>630.0</ele><time>2026-04-04T10:48:35Z</time></trkpt><trkpt lat="42.588068003469004" lon="12.35234620704558"><ele>629.1666666666666</ele><time>2026-04-04T10:48:38Z</time></trkpt><trkpt lat="42.58814652086861" lon="12.352414367526013"><ele>628.3333333333334</ele><time>2026-04-04T10:48:41Z</time></trkpt><trkpt lat="42.58820261411738" lon="12.352463260839752"><ele>627.5</ele><time>2026-04-04T10:48:45Z</time></trkpt><trkpt lat="42.58825018038856" lon="12.352548469912277"><ele>626.6666666666667</ele><time>2026-04-04T10:48:48Z</time></trkpt><trkpt lat="42.588261243320275" lon="12.352647504641299"><ele>625.8333333333334</ele><time>2026-04-04T10:48:50Z</time></trkpt><trkpt lat="42.58830104014553" lon="12.352731621399096"><ele>625.0</ele><time>2026-04-04T10:48:52Z</time></trkpt><trkpt lat="42.58836235377832" lon="12.352819294448164"><ele>625.0</ele><time>2026-04-04T10:48:54Z</time></trkpt><trkpt lat="42.58842602624977" lon="12.352897434390146"><ele>625.0</ele><time>2026-04-04T10:48:56Z</time></trkpt><trkpt lat="42.5884963698771" lon="12.352976861333895"><ele>625.0</ele><time>2026-04-04T10:48:58Z</time></trkpt><trkpt lat="42.58854688806794" lon="12.353036383118008"><ele>625.0</ele><time>2026-04-04T10:48:59Z</time></trkpt><trkpt lat="42.5886498716339" lon="12.353120308857275"><ele>625.0</ele><time>2026-04-04T10:49:01Z</time></trkpt><trkpt lat="42.58872168000351" lon="12.353163242470005"><ele>625.0</ele><time>2026-04-04T10:49:03Z</time></trkpt><trkpt lat="42.5887962546272" lon="12.353121510106833"><ele>623.8333333333334</ele><time>2026-04-04T10:49:07Z</time></trkpt><trkpt lat="42.58887184360436" lon="12.353088749418731"><ele>622.6666666666667</ele><time>2026-04-04T10:49:09Z</time></trkpt><trkpt lat="42.588939206643815" lon="12.353047966392028"><ele>621.5</ele><time>2026-04-04T10:49:11Z</time></trkpt><trkpt lat="42.58901293604105" lon="12.35299800447109"><ele>620.3333333333334</ele><time>2026-04-04T10:49:13Z</time></trkpt><trkpt lat="42.58908617622705" lon="12.352942590899357"><ele>619.1666666666666</ele><time>2026-04-04T10:49:15Z</time></trkpt><trkpt lat="42.58919359886541" lon="12.35288606848588"><ele>618.0</ele><time>2026-04-04T10:49:18Z</time></trkpt><trkpt lat="42.5892879949199" lon="12.352824988006201"><ele>618.0</ele><time>2026-04-04T10:49:20Z</time></trkpt><trkpt lat="42.58937725287866" lon="12.352786968230493"><ele>618.0</ele><time>2026-04-04T10:49:22Z</time></trkpt><trkpt lat="42.58948112818366" lon="12.35276762581387"><ele>618.0</ele><time>2026-04-04T10:49:24Z</time></trkpt><trkpt lat="42.58955319159094" lon="12.352808133680659"><ele>618.0</ele><time>2026-04-04T10:49:26Z</time></trkpt><trkpt lat="42.589624813431975" lon="12.35286835362958"><ele>618.0</ele><time>2026-04-04T10:49:29Z</time></trkpt><trkpt lat="42.58968714033208" lon="12.352948705450158"><ele>618.0</ele><time>2026-04-04T10:49:32Z</time></trkpt><trkpt lat="42.58975400736261" lon="12.35304283195116"><ele>617.1666666666666</ele><time>2026-04-04T10:49:35Z</time></trkpt><trkpt lat="42.58980546686582" lon="12.35314655907186"><ele>616.3333333333334</ele><time>2026-04-04T10:49:38Z</time></trkpt><trkpt lat="42.58986298961566" lon="12.353186734963106"><ele>615.5</ele><time>2026-04-04T10:49:40Z</time></trkpt><trkpt lat="42.58993998084678" lon="12.353176014938633"><ele>614.6666666666667</ele><time>2026-04-04T10:49:42Z</time></trkpt><trkpt lat="42.59001061498577" lon="12.353151358631374"><ele>613.8333333333334</ele><time>2026-04-04T10:49:44Z</time></trkpt><trkpt lat="42.59005227454592" lon="12.353083934397157"><ele>613.0</ele><time>2026-04-04T10:49:46Z</time></trkpt><trkpt lat="42.59008674686514" lon="12.352989304846005"><ele>613.0</ele><time>2026-04-04T10:49:48Z</time></trkpt><trkpt lat="42.59014623258824" lon="12.352952262540919"><ele>613.0</ele><time>2026-04-04T10:49:51Z</time></trkpt><trkpt lat="42.59019102694064" lon="12.35301295554891"><ele>613.0</ele><time>2026-04-04T10:49:56Z</time></trkpt><trkpt lat="42.590180788824554" lon="12.353105363031384"><ele>613.0</ele><time>2026-04-04T10:50:00Z</time></trkpt><trkpt lat="42.59013224836696" lon="12.353199760827701"><ele>613.0</ele><time>2026-04-04T10:50:02Z</time></trkpt><trkpt lat="42.590087429671534" lon="12.35329773481282"><ele>613.0</ele><time>2026-04-04T10:50:04Z</time></trkpt><trkpt lat="42.590041179595154" lon="12.35340660289431"><ele>610.0</ele><time>2026-04-04T10:50:06Z</time></trkpt><trkpt lat="42.589969874657974" lon="12.353479559079833"><ele>607.0</ele><time>2026-04-04T10:50:08Z</time></trkpt><trkpt lat="42.58989818280142" lon="12.353549815858816"><ele>604.0</ele><time>2026-04-04T10:50:10Z</time></trkpt><trkpt lat="42.589826996142484" lon="12.35363403426661"><ele>601.0</ele><time>2026-04-04T10:50:12Z</time></trkpt><trkpt lat="42.589754592613524" lon="12.353688871555224"><ele>598.0</ele><time>2026-04-04T10:50:14Z</time></trkpt><trkpt lat="42.58968100783572" lon="12.353714071078672"><ele>595.0</ele><time>2026-04-04T10:50:16Z</time></trkpt><trkpt lat="42.58961688495964" lon="12.35379348522073"><ele>595.0</ele><time>2026-04-04T10:50:19Z</time></trkpt><trkpt lat="42.58963467638561" lon="12.353887535677083"><ele>595.0</ele><time>2026-04-04T10:50:21Z</time></trkpt><trkpt lat="42.58968246105792" lon="12.353951738535116"><ele>595.0</ele><time>2026-04-04T10:50:23Z</time></trkpt><trkpt lat="42.58975980248906" lon="12.353938710663337"><ele>595.0</ele><time>2026-04-04T10:50:25Z</time></trkpt><trkpt lat="42.58982866434376" lon="12.353919646725757"><ele>595.0</ele><time>2026-04-04T10:50:27Z</time></trkpt><trkpt lat="42.58991251678357" lon="12.353889696986844"><ele>595.0</ele><time>2026-04-04T10:50:29Z</time></trkpt><trkpt lat="42.58996931290385" lon="12.353846343806767"><ele>595.0</ele><time>2026-04-04T10:50:32Z</time></trkpt><trkpt lat="42.59004025573975" lon="12.353813030798028"><ele>595.0</ele><time>2026-04-04T10:50:35Z</time></trkpt><trkpt lat="42.590127094461906" lon="12.353755238313516"><ele>595.0</ele><time>2026-04-04T10:50:38Z</time></trkpt><trkpt lat="42.59019285338736" lon="12.353704196355947"><ele>595.0</ele><time>2026-04-04T10:50:40Z</time></trkpt><trkpt lat="42.59026139111582" lon="12.353645191808726"><ele>595.0</ele><time>2026-04-04T10:50:42Z</time></trkpt><trkpt lat="42.5903291373955" lon="12.35358859760373"><ele>595.0</ele><time>2026-04-04T10:50:44Z</time></trkpt><trkpt lat="42.590403779572355" lon="12.353556802057083"><ele>595.0</ele><time>2026-04-04T10:50:46Z</time></trkpt><trkpt lat="42.59048345899407" lon="12.353592600213831"><ele>594.5</ele><time>2026-04-04T10:50:49Z</time></trkpt><trkpt lat="42.59050483948613" lon="12.353689339529893"><ele>594.0</ele><time>2026-04-04T10:50:52Z</time></trkpt><trkpt lat="42.590515455359984" lon="12.353800004207965"><ele>593.5</ele><time>2026-04-04T10:50:55Z</time></trkpt><trkpt lat="42.59053078920862" lon="12.353909775004801"><ele>593.0</ele><time>2026-04-04T10:50:58Z</time></trkpt><trkpt lat="42.590527365151885" lon="12.354000445265916"><ele>592.5</ele><time>2026-04-04T10:51:00Z</time></trkpt><trkpt lat="42.59054698954093" lon="12.354105792878286"><ele>592.0</ele><time>2026-04-04T10:51:02.999Z</time></trkpt><trkpt lat="42.590559813940644" lon="12.354210494835314"><ele>589.1666666666667</ele><time>2026-04-04T10:51:05.999Z</time></trkpt><trkpt lat="42.59057997015657" lon="12.354307671371469"><ele>586.3333333333334</ele><time>2026-04-04T10:51:09Z</time></trkpt><trkpt lat="42.59059720783257" lon="12.354404938914913"><ele>583.5</ele><time>2026-04-04T10:51:12Z</time></trkpt><trkpt lat="42.59060517911917" lon="12.35450774686658"><ele>580.6666666666666</ele><time>2026-04-04T10:51:15Z</time></trkpt><trkpt lat="42.59062886233651" lon="12.354621637255017"><ele>577.8333333333333</ele><time>2026-04-04T10:51:18Z</time></trkpt><trkpt lat="42.5906938693622" lon="12.35467126876789"><ele>575.0</ele><time>2026-04-04T10:51:21Z</time></trkpt><trkpt lat="42.59077071435775" lon="12.354706374774892"><ele>572.3333333333333</ele><time>2026-04-04T10:51:24Z</time></trkpt><trkpt lat="42.59082288629619" lon="12.354754237168812"><ele>569.6666666666666</ele><time>2026-04-04T10:51:26Z</time></trkpt><trkpt lat="42.59090146909999" lon="12.354799457931483"><ele>567.0</ele><time>2026-04-04T10:51:29Z</time></trkpt><trkpt lat="42.59098659336244" lon="12.35486044418082"><ele>564.3333333333334</ele><time>2026-04-04T10:51:32Z</time></trkpt><trkpt lat="42.59104655592591" lon="12.354892503225843"><ele>561.6666666666667</ele><time>2026-04-04T10:51:34Z</time></trkpt><trkpt lat="42.59111616716516" lon="12.354941411233158"><ele>559.0</ele><time>2026-04-04T10:51:36Z</time></trkpt><trkpt lat="42.59117576798099" lon="12.354999075777283"><ele>558.7142857142858</ele><time>2026-04-04T10:51:38Z</time></trkpt><trkpt lat="42.59124734582832" lon="12.355030423037158"><ele>558.4285714285714</ele><time>2026-04-04T10:51:40Z</time></trkpt><trkpt lat="42.591310902338265" lon="12.355083023103552"><ele>558.1428571428571</ele><time>2026-04-04T10:51:42Z</time></trkpt><trkpt lat="42.59137581037599" lon="12.355097370412057"><ele>557.8571428571429</ele><time>2026-04-04T10:51:44Z</time></trkpt><trkpt lat="42.591444244669354" lon="12.355124262872144"><ele>557.5714285714286</ele><time>2026-04-04T10:51:46Z</time></trkpt><trkpt lat="42.59150993895917" lon="12.355150373135936"><ele>557.2857142857143</ele><time>2026-04-04T10:51:48Z</time></trkpt><trkpt lat="42.591591606965416" lon="12.355176676326797"><ele>557.0</ele><time>2026-04-04T10:51:50Z</time></trkpt><trkpt lat="42.59167490446486" lon="12.355242624556768"><ele>557.0</ele><time>2026-04-04T10:51:52Z</time></trkpt><trkpt lat="42.59177145747105" lon="12.355324745121491"><ele>557.0</ele><time>2026-04-04T10:51:54Z</time></trkpt><trkpt lat="42.59186249849934" lon="12.35539283999672"><ele>557.0</ele><time>2026-04-04T10:51:56Z</time></trkpt><trkpt lat="42.59194107829033" lon="12.355468937943929"><ele>557.0</ele><time>2026-04-04T10:51:58Z</time></trkpt><trkpt lat="42.59203865493625" lon="12.355525641410734"><ele>557.0</ele><time>2026-04-04T10:52:00Z</time></trkpt><trkpt lat="42.59210721952076" lon="12.355632527115676"><ele>555.3333333333333</ele><time>2026-04-04T10:52:02Z</time></trkpt><trkpt lat="42.59216756163468" lon="12.355722710584292"><ele>553.6666666666666</ele><time>2026-04-04T10:52:04Z</time></trkpt><trkpt lat="42.59218621189886" lon="12.35581329245495"><ele>552.0</ele><time>2026-04-04T10:52:06Z</time></trkpt><trkpt lat="42.59221837380739" lon="12.355923050963224"><ele>550.3333333333334</ele><time>2026-04-04T10:52:08Z</time></trkpt><trkpt lat="42.59225067863536" lon="12.356044595811"><ele>548.6666666666667</ele><time>2026-04-04T10:52:10Z</time></trkpt><trkpt lat="42.59226448809547" lon="12.356169592228763"><ele>547.0</ele><time>2026-04-04T10:52:12Z</time></trkpt><trkpt lat="42.59227164257711" lon="12.35626509726967"><ele>545.8333333333334</ele><time>2026-04-04T10:52:17Z</time></trkpt><trkpt lat="42.592262431385365" lon="12.356370096525971"><ele>544.6666666666667</ele><time>2026-04-04T10:52:32Z</time></trkpt><trkpt lat="42.59225589743715" lon="12.356494630397549"><ele>543.5</ele><time>2026-04-04T10:52:35Z</time></trkpt><trkpt lat="42.592244314087694" lon="12.356589751449512"><ele>542.3333333333334</ele><time>2026-04-04T10:52:37Z</time></trkpt><trkpt lat="42.59224657309072" lon="12.356694169082933"><ele>541.1666666666666</ele><time>2026-04-04T10:52:39Z</time></trkpt><trkpt lat="42.59227957568406" lon="12.356784673970672"><ele>540.0</ele><time>2026-04-04T10:52:41Z</time></trkpt><trkpt lat="42.592338572426875" lon="12.356858255848033"><ele>540.0</ele><time>2026-04-04T10:52:43Z</time></trkpt><trkpt lat="42.592432511434374" lon="12.356918762963994"><ele>540.0</ele><time>2026-04-04T10:52:45Z</time></trkpt><trkpt lat="42.59252719580342" lon="12.356959220900087"><ele>540.0</ele><time>2026-04-04T10:52:47Z</time></trkpt><trkpt lat="42.59259732472001" lon="12.35701507500165"><ele>540.0</ele><time>2026-04-04T10:52:49Z</time></trkpt><trkpt lat="42.59267164441711" lon="12.357033567477053"><ele>540.0</ele><time>2026-04-04T10:52:51Z</time></trkpt><trkpt lat="42.592765044492324" lon="12.35704308452299"><ele>540.0</ele><time>2026-04-04T10:52:53Z</time></trkpt><trkpt lat="42.59283915623036" lon="12.356976245242176"><ele>540.0</ele><time>2026-04-04T10:52:55Z</time></trkpt><trkpt lat="42.592904761999435" lon="12.356866926551838"><ele>540.0</ele><time>2026-04-04T10:52:57Z</time></trkpt><trkpt lat="42.592978886621786" lon="12.356835705714738"><ele>540.0</ele><time>2026-04-04T10:52:59Z</time></trkpt><trkpt lat="42.59303429361049" lon="12.356876454156682"><ele>540.0</ele><time>2026-04-04T10:53:04Z</time></trkpt><trkpt lat="42.593112248092474" lon="12.356848476005913"><ele>540.0</ele><time>2026-04-04T10:53:11Z</time></trkpt><trkpt lat="42.593185163309634" lon="12.356805207840443"><ele>539.6666666666666</ele><time>2026-04-04T10:53:13Z</time></trkpt><trkpt lat="42.593245938058615" lon="12.356740093699889"><ele>539.3333333333334</ele><time>2026-04-04T10:53:19Z</time></trkpt><trkpt lat="42.593331090257145" lon="12.356743333607211"><ele>539.0</ele><time>2026-04-04T10:53:23Z</time></trkpt><trkpt lat="42.59340392652078" lon="12.356706134558271"><ele>538.6666666666667</ele><time>2026-04-04T10:53:28Z</time></trkpt><trkpt lat="42.593461119317325" lon="12.356642360384313"><ele>538.3333333333334</ele><time>2026-04-04T10:53:32Z</time></trkpt><trkpt lat="42.59348419542646" lon="12.356559234950657"><ele>538.0</ele><time>2026-04-04T10:53:35Z</time></trkpt><trkpt lat="42.59352137708049" lon="12.356478100099036"><ele>538.0</ele><time>2026-04-04T10:53:38Z</time></trkpt><trkpt lat="42.59352873652688" lon="12.356383809798622"><ele>538.0</ele><time>2026-04-04T10:53:43Z</time></trkpt><trkpt lat="42.5934986117134" lon="12.356277666040988"><ele>538.0</ele><time>2026-04-04T10:53:46Z</time></trkpt><trkpt lat="42.59341937878301" lon="12.356194316949034"><ele>538.0</ele><time>2026-04-04T10:53:49Z</time></trkpt><trkpt lat="42.59337218789783" lon="12.356104889467256"><ele>538.0</ele><time>2026-04-04T10:53:51Z</time></trkpt><trkpt lat="42.59332760570189" lon="12.35600832622484"><ele>538.0</ele><time>2026-04-04T10:53:53Z</time></trkpt><trkpt lat="42.59330607191478" lon="12.35592533519836"><ele>538.5714285714286</ele><time>2026-04-04T10:53:56Z</time></trkpt><trkpt lat="42.59335555675458" lon="12.355825338726191"><ele>539.1428571428572</ele><time>2026-04-04T10:54:06Z</time></trkpt><trkpt lat="42.59337902329734" lon="12.355738775266515"><ele>539.7142857142858</ele><time>2026-04-04T10:54:11Z</time></trkpt><trkpt lat="42.593392400512826" lon="12.355654828346307"><ele>540.2857142857143</ele><time>2026-04-04T10:54:19Z</time></trkpt><trkpt lat="42.59340927055327" lon="12.355563625341793"><ele>540.8571428571429</ele><time>2026-04-04T10:54:23Z</time></trkpt><trkpt lat="42.593431231305" lon="12.355468982455509"><ele>541.4285714285714</ele><time>2026-04-04T10:54:28Z</time></trkpt><trkpt lat="42.59344766012676" lon="12.355366391095528"><ele>542.0</ele><time>2026-04-04T10:54:31Z</time></trkpt><trkpt lat="42.593474533657364" lon="12.355263694687732"><ele>542.1428571428571</ele><time>2026-04-04T10:54:34Z</time></trkpt><trkpt lat="42.59350566586135" lon="12.355172670100462"><ele>542.2857142857143</ele><time>2026-04-04T10:54:37Z</time></trkpt><trkpt lat="42.59355915278474" lon="12.355087605629484"><ele>542.4285714285714</ele><time>2026-04-04T10:54:40Z</time></trkpt><trkpt lat="42.593615699431545" lon="12.355015888897551"><ele>542.5714285714286</ele><time>2026-04-04T10:54:44Z</time></trkpt><trkpt lat="42.59364915320709" lon="12.354928917396785"><ele>542.7142857142857</ele><time>2026-04-04T10:54:47Z</time></trkpt><trkpt lat="42.593680739097714" lon="12.354851854801302"><ele>542.8571428571429</ele><time>2026-04-04T10:54:52Z</time></trkpt><trkpt lat="42.593716543284" lon="12.354763131119881"><ele>543.0</ele><time>2026-04-04T10:54:58Z</time></trkpt><trkpt lat="42.59376496014532" lon="12.354673782327692"><ele>541.5714285714286</ele><time>2026-04-04T10:55:02Z</time></trkpt><trkpt lat="42.59380542115381" lon="12.354599687298776"><ele>540.1428571428571</ele><time>2026-04-04T10:55:05Z</time></trkpt><trkpt lat="42.593854873704096" lon="12.354540411872733"><ele>538.7142857142857</ele><time>2026-04-04T10:55:09Z</time></trkpt><trkpt lat="42.593915166957736" lon="12.354456477092562"><ele>537.2857142857142</ele><time>2026-04-04T10:55:12Z</time></trkpt><trkpt lat="42.593973117786014" lon="12.354405479229252"><ele>535.8571428571428</ele><time>2026-04-04T10:55:17Z</time></trkpt><trkpt lat="42.594006058494216" lon="12.354313510326497"><ele>534.4285714285714</ele><time>2026-04-04T10:55:22Z</time></trkpt><trkpt lat="42.593971399828646" lon="12.35423416322628"><ele>533.0</ele><time>2026-04-04T10:55:26Z</time></trkpt><trkpt lat="42.59399513130475" lon="12.35413871916773"><ele>533.0</ele><time>2026-04-04T10:55:30Z</time></trkpt><trkpt lat="42.59404582588033" lon="12.354067003476414"><ele>533.0</ele><time>2026-04-04T10:55:34Z</time></trkpt><trkpt lat="42.59407882683419" lon="12.353992180281484"><ele>533.0</ele><time>2026-04-04T10:55:41Z</time></trkpt><trkpt lat="42.59406038147" lon="12.353898879291535"><ele>533.0</ele><time>2026-04-04T10:55:47Z</time></trkpt><trkpt lat="42.594035984207565" lon="12.353812981260903"><ele>533.0</ele><time>2026-04-04T10:55:51Z</time></trkpt><trkpt lat="42.5939901978995" lon="12.353735400940877"><ele>533.0</ele><time>2026-04-04T10:55:56Z</time></trkpt><trkpt lat="42.59395780985153" lon="12.353622080263072"><ele>533.0</ele><time>2026-04-04T10:55:59Z</time></trkpt><trkpt lat="42.593891813943785" lon="12.35352765579282"><ele>534.0</ele><time>2026-04-04T10:56:03Z</time></trkpt><trkpt lat="42.5938528259002" lon="12.353423897602871"><ele>535.0</ele><time>2026-04-04T10:56:05Z</time></trkpt><trkpt lat="42.59380111998582" lon="12.353352230587179"><ele>536.0</ele><time>2026-04-04T10:56:07Z</time></trkpt><trkpt lat="42.593811860622246" lon="12.353257168816908"><ele>537.0</ele><time>2026-04-04T10:56:13Z</time></trkpt><trkpt lat="42.593862423569114" lon="12.353176596129849"><ele>538.0</ele><time>2026-04-04T10:56:16Z</time></trkpt><trkpt lat="42.59397707808768" lon="12.353158720956046"><ele>539.0</ele><time>2026-04-04T10:56:20Z</time></trkpt><trkpt lat="42.59410074519949" lon="12.353158991892032"><ele>539.0</ele><time>2026-04-04T10:56:24Z</time></trkpt><trkpt lat="42.594164209967026" lon="12.353185380599783"><ele>539.0</ele><time>2026-04-04T10:56:28Z</time></trkpt><trkpt lat="42.59425534633796" lon="12.353219944506094"><ele>539.0</ele><time>2026-04-04T10:56:35Z</time></trkpt><trkpt lat="42.594318225045214" lon="12.353268675368852"><ele>539.0</ele><time>2026-04-04T10:56:39Z</time></trkpt><trkpt lat="42.594407211208015" lon="12.35330393976138"><ele>539.0</ele><time>2026-04-04T10:56:42Z</time></trkpt><trkpt lat="42.59447173000668" lon="12.353313511214393"><ele>539.0</ele><time>2026-04-04T10:56:44Z</time></trkpt><trkpt lat="42.59470752075045" lon="12.353331944596713"><ele>538.5</ele><time>2026-04-04T10:56:52Z</time></trkpt><trkpt lat="42.594807824800554" lon="12.353364535092698"><ele>538.0</ele><time>2026-04-04T10:56:56Z</time></trkpt><trkpt lat="42.59486511998911" lon="12.353403906580931"><ele>537.5</ele><time>2026-04-04T10:56:59Z</time></trkpt><trkpt lat="42.59490998773512" lon="12.353478548538883"><ele>537.0</ele><time>2026-04-04T10:57:05Z</time></trkpt><trkpt lat="42.59493962845241" lon="12.353573282099426"><ele>536.5</ele><time>2026-04-04T10:57:11Z</time></trkpt><trkpt lat="42.59498335323683" lon="12.353645256035907"><ele>536.0</ele><time>2026-04-04T10:57:20Z</time></trkpt><trkpt lat="42.595020922538964" lon="12.353745021739314"><ele>536.0</ele><time>2026-04-04T10:57:26Z</time></trkpt><trkpt lat="42.59507040047397" lon="12.353830108955902"><ele>536.0</ele><time>2026-04-04T10:57:29Z</time></trkpt><trkpt lat="42.5951140668283" lon="12.353927353329881"><ele>536.0</ele><time>2026-04-04T10:57:32Z</time></trkpt><trkpt lat="42.59514623063954" lon="12.354006100833296"><ele>536.0</ele><time>2026-04-04T10:57:35Z</time></trkpt><trkpt lat="42.59521087450886" lon="12.354039936594676"><ele>536.0</ele><time>2026-04-04T10:57:37Z</time></trkpt><trkpt lat="42.59529203932522" lon="12.354056600996246"><ele>536.0</ele><time>2026-04-04T10:57:39Z</time></trkpt><trkpt lat="42.59536462427494" lon="12.354073804021306"><ele>532.8333333333333</ele><time>2026-04-04T10:57:42Z</time></trkpt><trkpt lat="42.59543253668224" lon="12.354120737413195"><ele>529.6666666666666</ele><time>2026-04-04T10:57:45Z</time></trkpt><trkpt lat="42.59550628601837" lon="12.35416271024148"><ele>526.5</ele><time>2026-04-04T10:57:48Z</time></trkpt><trkpt lat="42.5955771324309" lon="12.354160742604982"><ele>523.3333333333334</ele><time>2026-04-04T10:57:50Z</time></trkpt><trkpt lat="42.59566459721332" lon="12.354103028112242"><ele>520.1666666666667</ele><time>2026-04-04T10:57:53Z</time></trkpt><trkpt lat="42.595746665677666" lon="12.354077775759805"><ele>517.0</ele><time>2026-04-04T10:57:55Z</time></trkpt><trkpt lat="42.59583411481787" lon="12.354054357651243"><ele>517.0</ele><time>2026-04-04T10:57:57Z</time></trkpt><trkpt lat="42.595910839345976" lon="12.354028852547415"><ele>517.0</ele><time>2026-04-04T10:58:00Z</time></trkpt><trkpt lat="42.595995118790945" lon="12.354074328486563"><ele>517.0</ele><time>2026-04-04T10:58:03Z</time></trkpt><trkpt lat="42.59606586840375" lon="12.354149552136374"><ele>517.0</ele><time>2026-04-04T10:58:05Z</time></trkpt><trkpt lat="42.59613586552104" lon="12.354240308677568"><ele>517.0</ele><time>2026-04-04T10:58:07Z</time></trkpt><trkpt lat="42.59619430108527" lon="12.354344397927354"><ele>515.8333333333334</ele><time>2026-04-04T10:58:09Z</time></trkpt><trkpt lat="42.596247398146005" lon="12.354451160114403"><ele>514.6666666666667</ele><time>2026-04-04T10:58:11Z</time></trkpt><trkpt lat="42.59630502511542" lon="12.354568485176749"><ele>513.5</ele><time>2026-04-04T10:58:13Z</time></trkpt><trkpt lat="42.59635070247408" lon="12.354675046257201"><ele>512.3333333333334</ele><time>2026-04-04T10:58:15Z</time></trkpt><trkpt lat="42.59637223707629" lon="12.354787511872782"><ele>511.1666666666667</ele><time>2026-04-04T10:58:17Z</time></trkpt><trkpt lat="42.59634954942469" lon="12.354880848708431"><ele>510.0</ele><time>2026-04-04T10:58:26Z</time></trkpt><trkpt lat="42.59628586803743" lon="12.354947291102613"><ele>510.0</ele><time>2026-04-04T10:58:29Z</time></trkpt><trkpt lat="42.596217101576364" lon="12.35499304984045"><ele>510.0</ele><time>2026-04-04T10:58:31Z</time></trkpt><trkpt lat="42.596135088523" lon="12.35501493806805"><ele>510.0</ele><time>2026-04-04T10:58:33Z</time></trkpt><trkpt lat="42.596047311860545" lon="12.354998372087087"><ele>510.0</ele><time>2026-04-04T10:58:35Z</time></trkpt><trkpt lat="42.5959591475634" lon="12.355004544898428"><ele>510.0</ele><time>2026-04-04T10:58:37Z</time></trkpt><trkpt lat="42.595890388988146" lon="12.355064183947212"><ele>510.0</ele><time>2026-04-04T10:58:39Z</time></trkpt><trkpt lat="42.595854984221994" lon="12.355168736437964"><ele>510.0</ele><time>2026-04-04T10:58:41Z</time></trkpt><trkpt lat="42.595835128719926" lon="12.355287358724455"><ele>510.0</ele><time>2026-04-04T10:58:43Z</time></trkpt><trkpt lat="42.59584298319643" lon="12.355402627805663"><ele>510.0</ele><time>2026-04-04T10:58:45Z</time></trkpt><trkpt lat="42.595854621379964" lon="12.355536556547316"><ele>510.0</ele><time>2026-04-04T10:58:47Z</time></trkpt><trkpt lat="42.595903295251325" lon="12.355622727814936"><ele>510.0</ele><time>2026-04-04T10:58:49Z</time></trkpt><trkpt lat="42.59589122894572" lon="12.355733081877544"><ele>510.0</ele><time>2026-04-04T10:58:51Z</time></trkpt><trkpt lat="42.59589587702829" lon="12.355844861191198"><ele>508.8</ele><time>2026-04-04T10:58:53Z</time></trkpt><trkpt lat="42.595976814230376" lon="12.35589028813064"><ele>507.6</ele><time>2026-04-04T10:58:55Z</time></trkpt><trkpt lat="42.59605798047592" lon="12.355943432513019"><ele>506.4</ele><time>2026-04-04T10:58:57Z</time></trkpt><trkpt lat="42.596124704926694" lon="12.356033669928273"><ele>505.2</ele><time>2026-04-04T10:58:59Z</time></trkpt><trkpt lat="42.596206082380576" lon="12.356090778671845"><ele>504.0</ele><time>2026-04-04T10:59:01Z</time></trkpt><trkpt lat="42.59629073045641" lon="12.356140726859227"><ele>503.4</ele><time>2026-04-04T10:59:03Z</time></trkpt><trkpt lat="42.59636884095703" lon="12.356191610539348"><ele>502.79999999999995</ele><time>2026-04-04T10:59:05Z</time></trkpt><trkpt lat="42.59642799006614" lon="12.356265283610076"><ele>502.20000000000005</ele><time>2026-04-04T10:59:07Z</time></trkpt><trkpt lat="42.596486535367895" lon="12.356374755803385"><ele>501.6</ele><time>2026-04-04T10:59:09Z</time></trkpt><trkpt lat="42.59652739783373" lon="12.356514020267502"><ele>501.0</ele><time>2026-04-04T10:59:11Z</time></trkpt><trkpt lat="42.59659112004168" lon="12.35664948384275"><ele>501.0</ele><time>2026-04-04T10:59:13Z</time></trkpt><trkpt lat="42.59666111288324" lon="12.356765026288286"><ele>501.0</ele><time>2026-04-04T10:59:15Z</time></trkpt><trkpt lat="42.59670926437617" lon="12.35687847760882"><ele>501.0</ele><time>2026-04-04T10:59:17Z</time></trkpt><trkpt lat="42.59679392932541" lon="12.35696687947484"><ele>501.0</ele><time>2026-04-04T10:59:19Z</time></trkpt><trkpt lat="42.59688476739066" lon="12.35704471432584"><ele>501.0</ele><time>2026-04-04T10:59:21Z</time></trkpt><trkpt lat="42.59696276081137" lon="12.357160613239278"><ele>499.0</ele><time>2026-04-04T10:59:23Z</time></trkpt><trkpt lat="42.59700449569219" lon="12.357231204807324"><ele>497.0</ele><time>2026-04-04T10:59:24Z</time></trkpt><trkpt lat="42.597070873712156" lon="12.357364107451133"><ele>495.0</ele><time>2026-04-04T10:59:26Z</time></trkpt><trkpt lat="42.597094990948435" lon="12.357460516667803"><ele>493.0</ele><time>2026-04-04T10:59:27Z</time></trkpt><trkpt lat="42.597138325647165" lon="12.357550732683473"><ele>491.0</ele><time>2026-04-04T10:59:28Z</time></trkpt><trkpt lat="42.59715872592604" lon="12.357633797280025"><ele>489.0</ele><time>2026-04-04T10:59:29Z</time></trkpt><trkpt lat="42.597166313074545" lon="12.357732197480537"><ele>489.0</ele><time>2026-04-04T10:59:30Z</time></trkpt><trkpt lat="42.597239692337155" lon="12.357862642944935"><ele>489.00000000000006</ele><time>2026-04-04T10:59:32Z</time></trkpt><trkpt lat="42.597300039742635" lon="12.357901379268535"><ele>489.0</ele><time>2026-04-04T10:59:33Z</time></trkpt><trkpt lat="42.597355927132035" lon="12.357942729308695"><ele>489.0</ele><time>2026-04-04T10:59:34Z</time></trkpt><trkpt lat="42.597416785109516" lon="12.35798045395245"><ele>489.00000000000006</ele><time>2026-04-04T10:59:35Z</time></trkpt><trkpt lat="42.59748163272435" lon="12.357993919859108"><ele>489.0</ele><time>2026-04-04T10:59:36Z</time></trkpt><trkpt lat="42.59754679117824" lon="12.358003143675017"><ele>489.0</ele><time>2026-04-04T10:59:37Z</time></trkpt><trkpt lat="42.59765057850473" lon="12.358050467412456"><ele>489.0</ele><time>2026-04-04T10:59:39Z</time></trkpt><trkpt lat="42.5977309246252" lon="12.358069769921405"><ele>489.0</ele><time>2026-04-04T10:59:41Z</time></trkpt><trkpt lat="42.59780133070007" lon="12.358131889954777"><ele>489.0</ele><time>2026-04-04T10:59:43Z</time></trkpt><trkpt lat="42.597820265399996" lon="12.358277137628644"><ele>489.0</ele><time>2026-04-04T10:59:45Z</time></trkpt><trkpt lat="42.597870943128136" lon="12.358420959713447"><ele>489.0</ele><time>2026-04-04T10:59:47Z</time></trkpt><trkpt lat="42.597889171691214" lon="12.35851139869565"><ele>489.0</ele><time>2026-04-04T10:59:48Z</time></trkpt><trkpt lat="42.59791671120373" lon="12.35866045281715"><ele>489.0</ele><time>2026-04-04T10:59:50Z</time></trkpt><trkpt lat="42.597917318938244" lon="12.358791246872487"><ele>489.0</ele><time>2026-04-04T10:59:52Z</time></trkpt><trkpt lat="42.59788538083235" lon="12.358904813187808"><ele>489.0</ele><time>2026-04-04T10:59:54Z</time></trkpt><trkpt lat="42.59788929931675" lon="12.359036372766226"><ele>489.0</ele><time>2026-04-04T10:59:56Z</time></trkpt><trkpt lat="42.597891449649694" lon="12.359122431724467"><ele>488.8571428571429</ele><time>2026-04-04T10:59:57Z</time></trkpt><trkpt lat="42.5979044481027" lon="12.359213831735962"><ele>488.7142857142858</ele><time>2026-04-04T10:59:58Z</time></trkpt><trkpt lat="42.597930085995394" lon="12.35930485247499"><ele>488.57142857142856</ele><time>2026-04-04T10:59:59Z</time></trkpt><trkpt lat="42.59795777660468" lon="12.359405239283568"><ele>488.42857142857144</ele><time>2026-04-04T11:00:00Z</time></trkpt><trkpt lat="42.59799484876968" lon="12.359482441125127"><ele>488.2857142857143</ele><time>2026-04-04T11:00:01Z</time></trkpt><trkpt lat="42.598029664841334" lon="12.359558348353357"><ele>488.1428571428571</ele><time>2026-04-04T11:00:02Z</time></trkpt><trkpt lat="42.59806660721603" lon="12.359633632539026"><ele>487.99999999999994</ele><time>2026-04-04T11:00:03Z</time></trkpt><trkpt lat="42.59809512735429" lon="12.359719650835"><ele>487.8333333333333</ele><time>2026-04-04T11:00:04Z</time></trkpt><trkpt lat="42.5981352695169" lon="12.359827125225493"><ele>487.66666666666663</ele><time>2026-04-04T11:00:06Z</time></trkpt><trkpt lat="42.59817089064656" lon="12.359927456491537"><ele>487.5</ele><time>2026-04-04T11:00:08Z</time></trkpt><trkpt lat="42.598206479802144" lon="12.360026935311383"><ele>487.33333333333337</ele><time>2026-04-04T11:00:10Z</time></trkpt><trkpt lat="42.59824222107956" lon="12.360139118105671"><ele>487.1666666666667</ele><time>2026-04-04T11:00:12Z</time></trkpt><trkpt lat="42.598262202556576" lon="12.3602409874337"><ele>487.0</ele><time>2026-04-04T11:00:14Z</time></trkpt><trkpt lat="42.598360317227446" lon="12.360329120884003"><ele>487.0</ele><time>2026-04-04T11:00:17Z</time></trkpt><trkpt lat="42.59848908560151" lon="12.360389832418802"><ele>487.00000000000006</ele><time>2026-04-04T11:00:19Z</time></trkpt><trkpt lat="42.59856570795924" lon="12.360425622926785"><ele>487.00000000000006</ele><time>2026-04-04T11:00:20Z</time></trkpt><trkpt lat="42.59864361405097" lon="12.360463672581393"><ele>487.0</ele><time>2026-04-04T11:00:21Z</time></trkpt><trkpt lat="42.59872163238537" lon="12.360505168001037"><ele>487.0</ele><time>2026-04-04T11:00:22Z</time></trkpt><trkpt lat="42.59879515963738" lon="12.360547061383912"><ele>485.1666666666667</ele><time>2026-04-04T11:00:23Z</time></trkpt><trkpt lat="42.59886645994269" lon="12.360592062130337"><ele>483.33333333333337</ele><time>2026-04-04T11:00:24Z</time></trkpt><trkpt lat="42.59892404065012" lon="12.360641632300995"><ele>481.5</ele><time>2026-04-04T11:00:25Z</time></trkpt><trkpt lat="42.598979246968504" lon="12.360693653667585"><ele>479.66666666666663</ele><time>2026-04-04T11:00:26Z</time></trkpt><trkpt lat="42.59903013884304" lon="12.360744379843457"><ele>477.8333333333333</ele><time>2026-04-04T11:00:27Z</time></trkpt><trkpt lat="42.599122403337546" lon="12.36085337721736"><ele>476.0</ele><time>2026-04-04T11:00:29Z</time></trkpt><trkpt lat="42.599188214461904" lon="12.360968568761962"><ele>476.0</ele><time>2026-04-04T11:00:31Z</time></trkpt><trkpt lat="42.59921502760715" lon="12.361060897822258"><ele>476.0</ele><time>2026-04-04T11:00:33Z</time></trkpt><trkpt lat="42.599218365969286" lon="12.361159607332635"><ele>476.0</ele><time>2026-04-04T11:00:36Z</time></trkpt><trkpt lat="42.59935002027242" lon="12.360984349409913"><ele>476.0</ele><time>2026-04-04T11:00:42Z</time></trkpt><trkpt lat="42.59927252075557" lon="12.360994514819309"><ele>476.0</ele><time>2026-04-04T11:00:52Z</time></trkpt><trkpt lat="42.59922686074542" lon="12.361093109677574"><ele>476.0</ele><time>2026-04-04T11:00:54Z</time></trkpt><trkpt lat="42.59921330485358" lon="12.36125432664872"><ele>476.0</ele><time>2026-04-04T11:00:56Z</time></trkpt><trkpt lat="42.599211690433705" lon="12.361426070383883"><ele>476.0</ele><time>2026-04-04T11:00:57Z</time></trkpt><trkpt lat="42.59920459574386" lon="12.361600274634096"><ele>476.0</ele><time>2026-04-04T11:00:58Z</time></trkpt><trkpt lat="42.59921328748703" lon="12.361725024916819"><ele>475.99999999999994</ele><time>2026-04-04T11:00:59Z</time></trkpt><trkpt lat="42.59922006244169" lon="12.361832328164923"><ele>476.0</ele><time>2026-04-04T11:01:00Z</time></trkpt><trkpt lat="42.59921604903817" lon="12.361927529965879"><ele>476.0</ele><time>2026-04-04T11:01:01Z</time></trkpt><trkpt lat="42.59918177931788" lon="12.362015213708924"><ele>476.0</ele><time>2026-04-04T11:01:02Z</time></trkpt><trkpt lat="42.59915288764998" lon="12.362102677616509"><ele>475.99999999999994</ele><time>2026-04-04T11:01:03Z</time></trkpt><trkpt lat="42.59913141877943" lon="12.362242971987024"><ele>476.0</ele><time>2026-04-04T11:01:05Z</time></trkpt><trkpt lat="42.59910779335673" lon="12.362387032248808"><ele>477.3333333333333</ele><time>2026-04-04T11:01:07Z</time></trkpt><trkpt lat="42.59911022144977" lon="12.362528065393382"><ele>478.66666666666663</ele><time>2026-04-04T11:01:09Z</time></trkpt><trkpt lat="42.599107476860205" lon="12.362637932492888"><ele>480.0</ele><time>2026-04-04T11:01:11Z</time></trkpt><trkpt lat="42.59910219345097" lon="12.362733683033456"><ele>481.33333333333337</ele><time>2026-04-04T11:01:14Z</time></trkpt><trkpt lat="42.59911353233552" lon="12.362636634458953"><ele>482.6666666666667</ele><time>2026-04-04T11:01:33Z</time></trkpt><trkpt lat="42.59921455102462" lon="12.362602014950403"><ele>484.0</ele><time>2026-04-04T11:01:35Z</time></trkpt><trkpt lat="42.599284511632995" lon="12.362453727502583"><ele>484.0</ele><time>2026-04-04T11:01:37Z</time></trkpt><trkpt lat="42.59932324406044" lon="12.362371630834344"><ele>483.99999999999994</ele><time>2026-04-04T11:01:38Z</time></trkpt><trkpt lat="42.59936274755518" lon="12.362288379498125"><ele>484.0</ele><time>2026-04-04T11:01:39Z</time></trkpt><trkpt lat="42.59940527702509" lon="12.362200643880062"><ele>484.0</ele><time>2026-04-04T11:01:40Z</time></trkpt><trkpt lat="42.59944439828985" lon="12.362122884902679"><ele>483.99999999999994</ele><time>2026-04-04T11:01:41Z</time></trkpt><trkpt lat="42.599484205689315" lon="12.36204431066007"><ele>484.0</ele><time>2026-04-04T11:01:42Z</time></trkpt><trkpt lat="42.599523746860676" lon="12.361947036875607"><ele>484.0</ele><time>2026-04-04T11:01:44Z</time></trkpt><trkpt lat="42.599557515944916" lon="12.361838472040947"><ele>476.0</ele><time>2026-04-04T11:01:46Z</time></trkpt><trkpt lat="42.599216315760394" lon="12.361312545437626"><ele>476.0</ele><time>2026-04-04T11:01:47Z</time></trkpt><trkpt lat="42.59923667247212" lon="12.361216235228587"><ele>476.0</ele><time>2026-04-04T11:01:48Z</time></trkpt><trkpt lat="42.599262543245516" lon="12.361119448451035"><ele>476.0</ele><time>2026-04-04T11:01:49Z</time></trkpt><trkpt lat="42.599294944268145" lon="12.36103318028573"><ele>476.0</ele><time>2026-04-04T11:01:50Z</time></trkpt><trkpt lat="42.59933684023738" lon="12.360965217796808"><ele>476.0</ele><time>2026-04-04T11:01:51Z</time></trkpt><trkpt lat="42.59939155321942" lon="12.360910647258153"><ele>476.0</ele><time>2026-04-04T11:01:52Z</time></trkpt><trkpt lat="42.59945943678623" lon="12.36082825640241"><ele>476.0</ele><time>2026-04-04T11:01:54Z</time></trkpt><trkpt lat="42.59956040118167" lon="12.360807585524359"><ele>475.99999999999994</ele><time>2026-04-04T11:01:57Z</time></trkpt><trkpt lat="42.59966835331987" lon="12.36078490887514"><ele>476.0</ele><time>2026-04-04T11:01:59Z</time></trkpt><trkpt lat="42.59973166862778" lon="12.360780066442528"><ele>476.0</ele><time>2026-04-04T11:02:00Z</time></trkpt><trkpt lat="42.5998007331612" lon="12.360762391886272"><ele>476.0</ele><time>2026-04-04T11:02:01Z</time></trkpt><trkpt lat="42.59987399216136" lon="12.360739945248632"><ele>475.99999999999994</ele><time>2026-04-04T11:02:02Z</time></trkpt><trkpt lat="42.59994314817268" lon="12.360711245900696"><ele>476.0</ele><time>2026-04-04T11:02:03Z</time></trkpt><trkpt lat="42.60001480784666" lon="12.36067643021029"><ele>476.0</ele><time>2026-04-04T11:02:04Z</time></trkpt><trkpt lat="42.60008665576598" lon="12.360642875014948"><ele>476.0</ele><time>2026-04-04T11:02:05Z</time></trkpt><trkpt lat="42.600153545087075" lon="12.36060912874309"><ele>476.0</ele><time>2026-04-04T11:02:06Z</time></trkpt><trkpt lat="42.600220418408135" lon="12.360592236358151"><ele>476.0</ele><time>2026-04-04T11:02:07Z</time></trkpt><trkpt lat="42.60028459261334" lon="12.360564815857204"><ele>476.0</ele><time>2026-04-04T11:02:08Z</time></trkpt><trkpt lat="42.600348031966135" lon="12.360531701320275"><ele>476.0</ele><time>2026-04-04T11:02:09Z</time></trkpt><trkpt lat="42.6004140643047" lon="12.360493373092801"><ele>476.0</ele><time>2026-04-04T11:02:10Z</time></trkpt><trkpt lat="42.60048240186573" lon="12.360457945608848"><ele>473.49999999999994</ele><time>2026-04-04T11:02:11Z</time></trkpt><trkpt lat="42.6005498283477" lon="12.360420962029757"><ele>471.0</ele><time>2026-04-04T11:02:12Z</time></trkpt><trkpt lat="42.60061715020138" lon="12.360381981425087"><ele>468.5</ele><time>2026-04-04T11:02:13Z</time></trkpt><trkpt lat="42.600681000849455" lon="12.360338592089247"><ele>466.0</ele><time>2026-04-04T11:02:14Z</time></trkpt><trkpt lat="42.60074792128922" lon="12.360284687190973"><ele>463.49999999999994</ele><time>2026-04-04T11:02:15Z</time></trkpt><trkpt lat="42.60082438373686" lon="12.360227092675476"><ele>461.0</ele><time>2026-04-04T11:02:16Z</time></trkpt><trkpt lat="42.60089866212766" lon="12.360178192977854"><ele>460.99999999999994</ele><time>2026-04-04T11:02:17Z</time></trkpt><trkpt lat="42.60097428247822" lon="12.360134012328485"><ele>461.0</ele><time>2026-04-04T11:02:18Z</time></trkpt><trkpt lat="42.60106007992025" lon="12.360130442168687"><ele>461.0</ele><time>2026-04-04T11:02:19Z</time></trkpt><trkpt lat="42.601131274904034" lon="12.36010449592222"><ele>461.0</ele><time>2026-04-04T11:02:20Z</time></trkpt><trkpt lat="42.601203144101824" lon="12.360086027205863"><ele>460.99999999999994</ele><time>2026-04-04T11:02:21Z</time></trkpt><trkpt lat="42.6012720201745" lon="12.360083279899944"><ele>461.0</ele><time>2026-04-04T11:02:22Z</time></trkpt><trkpt lat="42.60138161878604" lon="12.360101157578123"><ele>460.8333333333333</ele><time>2026-04-04T11:02:24Z</time></trkpt><trkpt lat="42.60149367095512" lon="12.360154836516289"><ele>460.66666666666663</ele><time>2026-04-04T11:02:26Z</time></trkpt><trkpt lat="42.601562559091896" lon="12.360190802217325"><ele>460.5</ele><time>2026-04-04T11:02:27Z</time></trkpt><trkpt lat="42.6016323255424" lon="12.36023248778949"><ele>460.33333333333337</ele><time>2026-04-04T11:02:28Z</time></trkpt><trkpt lat="42.60170457940067" lon="12.360268596105467"><ele>460.1666666666667</ele><time>2026-04-04T11:02:29Z</time></trkpt><trkpt lat="42.6017779156152" lon="12.360294112624102"><ele>460.0</ele><time>2026-04-04T11:02:30Z</time></trkpt><trkpt lat="42.60189802968138" lon="12.360338777242484"><ele>460.33333333333337</ele><time>2026-04-04T11:02:32Z</time></trkpt><trkpt lat="42.60200188304521" lon="12.360385600777796"><ele>460.6666666666667</ele><time>2026-04-04T11:02:34Z</time></trkpt><trkpt lat="42.60208038868213" lon="12.360404025572748"><ele>461.0</ele><time>2026-04-04T11:02:36Z</time></trkpt><trkpt lat="42.60215517835551" lon="12.360430127002303"><ele>461.33333333333337</ele><time>2026-04-04T11:02:38Z</time></trkpt><trkpt lat="42.602218924225866" lon="12.360490768654108"><ele>461.6666666666667</ele><time>2026-04-04T11:02:40Z</time></trkpt><trkpt lat="42.60228697267624" lon="12.360573740324247"><ele>462.0</ele><time>2026-04-04T11:02:42Z</time></trkpt><trkpt lat="42.60237401535061" lon="12.360602311564154"><ele>462.0</ele><time>2026-04-04T11:02:44Z</time></trkpt><trkpt lat="42.60244924909156" lon="12.360547698741964"><ele>462.0</ele><time>2026-04-04T11:02:46Z</time></trkpt><trkpt lat="42.60247039360742" lon="12.36042371969884"><ele>462.0</ele><time>2026-04-04T11:02:48Z</time></trkpt><trkpt lat="42.60242922413015" lon="12.360274215024507"><ele>462.0</ele><time>2026-04-04T11:02:50Z</time></trkpt><trkpt lat="42.60238420867959" lon="12.36021242518199"><ele>462.0</ele><time>2026-04-04T11:02:51Z</time></trkpt><trkpt lat="42.602334013183544" lon="12.360116503454526"><ele>462.0</ele><time>2026-04-04T11:02:53Z</time></trkpt><trkpt lat="42.60238241588248" lon="12.360030049632423"><ele>460.8</ele><time>2026-04-04T11:02:57Z</time></trkpt><trkpt lat="42.60248271963837" lon="12.360039747684283"><ele>459.6</ele><time>2026-04-04T11:02:59Z</time></trkpt><trkpt lat="42.602600235674764" lon="12.360095396542803"><ele>458.40000000000003</ele><time>2026-04-04T11:03:01Z</time></trkpt><trkpt lat="42.60270728454184" lon="12.3601174163645"><ele>457.20000000000005</ele><time>2026-04-04T11:03:03Z</time></trkpt><trkpt lat="42.602769936967434" lon="12.360130099796002"><ele>456.0</ele><time>2026-04-04T11:03:04Z</time></trkpt><trkpt lat="42.60287683348079" lon="12.360183607988859"><ele>455.6</ele><time>2026-04-04T11:03:06Z</time></trkpt><trkpt lat="42.60293741676945" lon="12.36020887703123"><ele>455.20000000000005</ele><time>2026-04-04T11:03:07Z</time></trkpt><trkpt lat="42.603007274297426" lon="12.360175947759046"><ele>454.79999999999995</ele><time>2026-04-04T11:03:08Z</time></trkpt><trkpt lat="42.603122839973736" lon="12.360192441940551"><ele>454.4</ele><time>2026-04-04T11:03:10Z</time></trkpt><trkpt lat="42.60322010269119" lon="12.360144557739195"><ele>454.0</ele><time>2026-04-04T11:03:12Z</time></trkpt><trkpt lat="42.60331218041557" lon="12.360020650415127"><ele>454.0</ele><time>2026-04-04T11:03:14Z</time></trkpt><trkpt lat="42.60336269257525" lon="12.359946267798984"><ele>454.0</ele><time>2026-04-04T11:03:15Z</time></trkpt><trkpt lat="42.60346505207405" lon="12.359852268963634"><ele>454.0</ele><time>2026-04-04T11:03:17Z</time></trkpt><trkpt lat="42.60352554698241" lon="12.359811449813524"><ele>454.0</ele><time>2026-04-04T11:03:18Z</time></trkpt><trkpt lat="42.603628104673646" lon="12.359780064264733"><ele>454.0</ele><time>2026-04-04T11:03:20Z</time></trkpt><trkpt lat="42.603733826887854" lon="12.359772095894545"><ele>454.33333333333337</ele><time>2026-04-04T11:03:22Z</time></trkpt><trkpt lat="42.603850947069965" lon="12.359759659387313"><ele>454.6666666666667</ele><time>2026-04-04T11:03:24Z</time></trkpt><trkpt lat="42.60392056535061" lon="12.35976674161662"><ele>455.0</ele><time>2026-04-04T11:03:25Z</time></trkpt><trkpt lat="42.60398893387248" lon="12.359777641361271"><ele>455.33333333333337</ele><time>2026-04-04T11:03:26Z</time></trkpt><trkpt lat="42.604054829282035" lon="12.359793501402477"><ele>455.6666666666667</ele><time>2026-04-04T11:03:27Z</time></trkpt><trkpt lat="42.604127688479934" lon="12.359801328604812"><ele>456.0</ele><time>2026-04-04T11:03:28Z</time></trkpt><trkpt lat="42.604207919165475" lon="12.35982603201868"><ele>456.0</ele><time>2026-04-04T11:03:29Z</time></trkpt><trkpt lat="42.604296245597766" lon="12.359844457317855"><ele>456.0</ele><time>2026-04-04T11:03:30Z</time></trkpt><trkpt lat="42.6043818537198" lon="12.359884662924829"><ele>456.0</ele><time>2026-04-04T11:03:31Z</time></trkpt><trkpt lat="42.60446311391619" lon="12.359906560091833"><ele>456.0</ele><time>2026-04-04T11:03:32Z</time></trkpt><trkpt lat="42.60454424702019" lon="12.359913969211775"><ele>456.0</ele><time>2026-04-04T11:03:33Z</time></trkpt><trkpt lat="42.60461584966671" lon="12.359928101937962"><ele>456.0</ele><time>2026-04-04T11:03:34Z</time></trkpt><trkpt lat="42.6046940935826" lon="12.359954472734708"><ele>458.0</ele><time>2026-04-04T11:03:35Z</time></trkpt><trkpt lat="42.604771515193335" lon="12.359973288584463"><ele>460.0</ele><time>2026-04-04T11:03:36Z</time></trkpt><trkpt lat="42.60484795710487" lon="12.359988941622413"><ele>462.0</ele><time>2026-04-04T11:03:37Z</time></trkpt><trkpt lat="42.60491467112965" lon="12.359997107591724"><ele>464.0</ele><time>2026-04-04T11:03:38Z</time></trkpt><trkpt lat="42.60499300906269" lon="12.360006190618298"><ele>466.0</ele><time>2026-04-04T11:03:39Z</time></trkpt><trkpt lat="42.60509824074179" lon="12.360050129347423"><ele>468.0</ele><time>2026-04-04T11:03:41Z</time></trkpt><trkpt lat="42.605189732846256" lon="12.360107206493238"><ele>468.0</ele><time>2026-04-04T11:03:43Z</time></trkpt><trkpt lat="42.60527013713492" lon="12.360159883346189"><ele>467.99999999999994</ele><time>2026-04-04T11:03:46Z</time></trkpt><trkpt lat="42.60529337245391" lon="12.360247145460548"><ele>467.99999999999994</ele><time>2026-04-04T11:03:48Z</time></trkpt><trkpt lat="42.60534320954632" lon="12.360299685336757"><ele>468.0</ele><time>2026-04-04T11:03:51Z</time></trkpt><trkpt lat="42.60539356122648" lon="12.360352767818691"><ele>468.0</ele><time>2026-04-04T11:03:53Z</time></trkpt><trkpt lat="42.60577684618277" lon="12.36031520117421"><ele>471.0</ele><time>2026-04-04T11:04:03Z</time></trkpt><trkpt lat="42.60583776705012" lon="12.36037257029864"><ele>474.0</ele><time>2026-04-04T11:04:05Z</time></trkpt><trkpt lat="42.60589999999372" lon="12.36040975778177"><ele>477.0</ele><time>2026-04-04T11:04:07Z</time></trkpt><trkpt lat="42.605973156173484" lon="12.3603979008472"><ele>480.0</ele><time>2026-04-04T11:04:21Z</time></trkpt><trkpt lat="42.60605811027037" lon="12.360432707603255"><ele>483.0</ele><time>2026-04-04T11:04:24Z</time></trkpt><trkpt lat="42.606130718790965" lon="12.36046992523454"><ele>486.0</ele><time>2026-04-04T11:04:27Z</time></trkpt><trkpt lat="42.606210529062" lon="12.360501983830929"><ele>485.6666666666667</ele><time>2026-04-04T11:04:31Z</time></trkpt><trkpt lat="42.606275769386116" lon="12.360528520198825"><ele>485.33333333333337</ele><time>2026-04-04T11:04:33Z</time></trkpt><trkpt lat="42.60634575339412" lon="12.360569076405051"><ele>485.0</ele><time>2026-04-04T11:04:36Z</time></trkpt><trkpt lat="42.60640655659211" lon="12.360605245111039"><ele>484.6666666666667</ele><time>2026-04-04T11:04:38Z</time></trkpt><trkpt lat="42.60647555555569" lon="12.360653710233171"><ele>484.33333333333337</ele><time>2026-04-04T11:04:40Z</time></trkpt><trkpt lat="42.606558749579975" lon="12.360696032026121"><ele>484.0</ele><time>2026-04-04T11:04:42Z</time></trkpt><trkpt lat="42.606642052569654" lon="12.360765820852889"><ele>484.00000000000006</ele><time>2026-04-04T11:04:44Z</time></trkpt><trkpt lat="42.6066990162122" lon="12.36083565531843"><ele>484.0</ele><time>2026-04-04T11:04:46Z</time></trkpt><trkpt lat="42.60679459202797" lon="12.360861857322853"><ele>484.0</ele><time>2026-04-04T11:04:48Z</time></trkpt><trkpt lat="42.606881165494" lon="12.360875023180954"><ele>484.0</ele><time>2026-04-04T11:04:50Z</time></trkpt><trkpt lat="42.60695816118646" lon="12.360863805125572"><ele>484.00000000000006</ele><time>2026-04-04T11:04:53Z</time></trkpt><trkpt lat="42.60703345067971" lon="12.360897832721198"><ele>484.0</ele><time>2026-04-04T11:04:55Z</time></trkpt><trkpt lat="42.60711515668502" lon="12.360914900337734"><ele>486.00000000000006</ele><time>2026-04-04T11:04:57Z</time></trkpt><trkpt lat="42.607187325441195" lon="12.360904835470901"><ele>488.0</ele><time>2026-04-04T11:04:59Z</time></trkpt><trkpt lat="42.607270946709555" lon="12.360900307665279"><ele>490.0</ele><time>2026-04-04T11:05:01Z</time></trkpt><trkpt lat="42.60735027571445" lon="12.360930182365598"><ele>492.0</ele><time>2026-04-04T11:05:03Z</time></trkpt><trkpt lat="42.607438307552144" lon="12.360949595600486"><ele>494.00000000000006</ele><time>2026-04-04T11:05:05Z</time></trkpt><trkpt lat="42.60751360824966" lon="12.360943534352538"><ele>496.0</ele><time>2026-04-04T11:05:07Z</time></trkpt><trkpt lat="42.60758427891902" lon="12.360946080583597"><ele>496.00000000000006</ele><time>2026-04-04T11:05:09Z</time></trkpt><trkpt lat="42.6076665599037" lon="12.360907566075195"><ele>496.0</ele><time>2026-04-04T11:05:11Z</time></trkpt><trkpt lat="42.607734952205334" lon="12.36084410441427"><ele>496.0</ele><time>2026-04-04T11:05:13Z</time></trkpt><trkpt lat="42.607798399029505" lon="12.360781480768013"><ele>496.0</ele><time>2026-04-04T11:05:15Z</time></trkpt><trkpt lat="42.60782589274462" lon="12.360684244262274"><ele>496.00000000000006</ele><time>2026-04-04T11:05:18Z</time></trkpt><trkpt lat="42.607892317621236" lon="12.360641344341854"><ele>496.0</ele><time>2026-04-04T11:05:21Z</time></trkpt><trkpt lat="42.60794686029831" lon="12.360528154556784"><ele>497.75</ele><time>2026-04-04T11:05:23Z</time></trkpt><trkpt lat="42.60802409322526" lon="12.360399251110818"><ele>499.5</ele><time>2026-04-04T11:05:25Z</time></trkpt><trkpt lat="42.608101521969985" lon="12.36027539385959"><ele>501.25</ele><time>2026-04-04T11:05:27Z</time></trkpt><trkpt lat="42.60817511716587" lon="12.360165118016468"><ele>503.0</ele><time>2026-04-04T11:05:29Z</time></trkpt><trkpt lat="42.60823859031031" lon="12.360047625582771"><ele>503.0</ele><time>2026-04-04T11:05:31Z</time></trkpt><trkpt lat="42.608294236481576" lon="12.359913832407072"><ele>502.99999999999994</ele><time>2026-04-04T11:05:33Z</time></trkpt><trkpt lat="42.60835322703791" lon="12.359861844361985"><ele>502.99999999999994</ele><time>2026-04-04T11:05:34Z</time></trkpt><trkpt lat="42.60837853625308" lon="12.35973777570338"><ele>503.0</ele><time>2026-04-04T11:05:36Z</time></trkpt><trkpt lat="42.60839522604281" lon="12.359638452637899"><ele>503.0</ele><time>2026-04-04T11:05:38.001Z</time></trkpt><trkpt lat="42.60841875174243" lon="12.359488415425986"><ele>505.0</ele><time>2026-04-04T11:05:40.001Z</time></trkpt><trkpt lat="42.608424781884764" lon="12.359318292656587"><ele>506.99999999999994</ele><time>2026-04-04T11:05:42.001Z</time></trkpt><trkpt lat="42.60844169620894" lon="12.359167860831924"><ele>508.99999999999994</ele><time>2026-04-04T11:05:44.001Z</time></trkpt><trkpt lat="42.608469303424044" lon="12.359020091498163"><ele>511.0</ele><time>2026-04-04T11:05:46Z</time></trkpt><trkpt lat="42.60846021566906" lon="12.358932937474277"><ele>513.0</ele><time>2026-04-04T11:05:47Z</time></trkpt><trkpt lat="42.60846793922656" lon="12.35880351683601"><ele>513.1666666666666</ele><time>2026-04-04T11:05:49Z</time></trkpt><trkpt lat="42.60849314377173" lon="12.35869335407378"><ele>513.3333333333334</ele><time>2026-04-04T11:05:51Z</time></trkpt><trkpt lat="42.60853283691719" lon="12.358578702085701"><ele>513.5</ele><time>2026-04-04T11:05:53Z</time></trkpt><trkpt lat="42.60858233279007" lon="12.358483796287501"><ele>513.6666666666667</ele><time>2026-04-04T11:05:55Z</time></trkpt><trkpt lat="42.608665684660046" lon="12.358461767661524"><ele>513.8333333333334</ele><time>2026-04-04T11:05:57Z</time></trkpt><trkpt lat="42.60873465811596" lon="12.358454761413514"><ele>514.0</ele><time>2026-04-04T11:05:59Z</time></trkpt><trkpt lat="42.60883868127694" lon="12.358425646672005"><ele>514.0</ele><time>2026-04-04T11:06:02Z</time></trkpt><trkpt lat="42.60892911453947" lon="12.358433250487382"><ele>514.0</ele><time>2026-04-04T11:06:04Z</time></trkpt><trkpt lat="42.609024991573584" lon="12.358399187886429"><ele>514.0</ele><time>2026-04-04T11:06:06Z</time></trkpt><trkpt lat="42.609147565823186" lon="12.35840666871497"><ele>514.0</ele><time>2026-04-04T11:06:08Z</time></trkpt><trkpt lat="42.60920939803282" lon="12.358380636589779"><ele>514.0</ele><time>2026-04-04T11:06:09Z</time></trkpt><trkpt lat="42.60927682821678" lon="12.358388425667973"><ele>514.0</ele><time>2026-04-04T11:06:10Z</time></trkpt><trkpt lat="42.6093392916122" lon="12.358357057409735"><ele>514.0</ele><time>2026-04-04T11:06:11Z</time></trkpt><trkpt lat="42.60945855827286" lon="12.358355342725886"><ele>514.0</ele><time>2026-04-04T11:06:13Z</time></trkpt><trkpt lat="42.60957287026778" lon="12.358352486672757"><ele>514.0</ele><time>2026-04-04T11:06:15Z</time></trkpt><trkpt lat="42.60970182907298" lon="12.358372732172564"><ele>514.0</ele><time>2026-04-04T11:06:17Z</time></trkpt><trkpt lat="42.6098298387926" lon="12.358388808440973"><ele>516.25</ele><time>2026-04-04T11:06:19Z</time></trkpt><trkpt lat="42.609939018342665" lon="12.358426446923756"><ele>518.5</ele><time>2026-04-04T11:06:21Z</time></trkpt><trkpt lat="42.610057790746446" lon="12.358467172615473"><ele>520.75</ele><time>2026-04-04T11:06:23Z</time></trkpt><trkpt lat="42.61016584064514" lon="12.358504145672061"><ele>523.0</ele><time>2026-04-04T11:06:25Z</time></trkpt><trkpt lat="42.610282697279494" lon="12.358540069127027"><ele>525.0</ele><time>2026-04-04T11:06:27Z</time></trkpt><trkpt lat="42.61034619924375" lon="12.358559738572168"><ele>527.0</ele><time>2026-04-04T11:06:28Z</time></trkpt><trkpt lat="42.61040791693198" lon="12.358579342739395"><ele>529.0</ele><time>2026-04-04T11:06:29Z</time></trkpt><trkpt lat="42.61053002314814" lon="12.358621368604625"><ele>531.0</ele><time>2026-04-04T11:06:31Z</time></trkpt><trkpt lat="42.6105907785947" lon="12.358653154032837"><ele>533.0</ele><time>2026-04-04T11:06:32Z</time></trkpt><trkpt lat="42.61070232254926" lon="12.35872940322751"><ele>535.0</ele><time>2026-04-04T11:06:34Z</time></trkpt><trkpt lat="42.61082334435574" lon="12.358765098411162"><ele>535.0</ele><time>2026-04-04T11:06:36Z</time></trkpt><trkpt lat="42.6109329420914" lon="12.358807436097784"><ele>535.0</ele><time>2026-04-04T11:06:38Z</time></trkpt><trkpt lat="42.61099947140597" lon="12.358755897578488"><ele>535.0</ele><time>2026-04-04T11:06:39Z</time></trkpt><trkpt lat="42.61109804329727" lon="12.358721273465953"><ele>535.0</ele><time>2026-04-04T11:06:41Z</time></trkpt><trkpt lat="42.61119148733741" lon="12.358688124035096"><ele>535.0</ele><time>2026-04-04T11:06:43Z</time></trkpt><trkpt lat="42.6113098483393" lon="12.358726896890202"><ele>535.2</ele><time>2026-04-04T11:06:45Z</time></trkpt><trkpt lat="42.61138334787298" lon="12.358648554412143"><ele>535.4</ele><time>2026-04-04T11:06:47Z</time></trkpt><trkpt lat="42.61143462296244" lon="12.358562308643533"><ele>535.6</ele><time>2026-04-04T11:06:49Z</time></trkpt><trkpt lat="42.611446876915906" lon="12.3584085725428"><ele>535.8</ele><time>2026-04-04T11:06:51Z</time></trkpt><trkpt lat="42.61146156207744" lon="12.35826222253862"><ele>536.0</ele><time>2026-04-04T11:06:53Z</time></trkpt><trkpt lat="42.61148571172912" lon="12.358126296456424"><ele>536.6666666666666</ele><time>2026-04-04T11:06:55Z</time></trkpt><trkpt lat="42.611515604752" lon="12.358015075286643"><ele>537.3333333333333</ele><time>2026-04-04T11:06:57Z</time></trkpt><trkpt lat="42.611602387964574" lon="12.357909001918728"><ele>538.0</ele><time>2026-04-04T11:07:00Z</time></trkpt><trkpt lat="42.611637920966494" lon="12.357832592404035"><ele>538.6666666666666</ele><time>2026-04-04T11:07:02Z</time></trkpt><trkpt lat="42.61169520487845" lon="12.357767390752713"><ele>539.3333333333334</ele><time>2026-04-04T11:07:04Z</time></trkpt><trkpt lat="42.6117238504863" lon="12.357647186577628"><ele>540.0</ele><time>2026-04-04T11:07:06Z</time></trkpt><trkpt lat="42.61174627527799" lon="12.357506454508075"><ele>540.0</ele><time>2026-04-04T11:07:08Z</time></trkpt><trkpt lat="42.61177053917903" lon="12.357371267095642"><ele>540.0</ele><time>2026-04-04T11:07:10Z</time></trkpt><trkpt lat="42.611810129616785" lon="12.357251430476929"><ele>540.0</ele><time>2026-04-04T11:07:12Z</time></trkpt><trkpt lat="42.61185474120489" lon="12.35712692632903"><ele>540.0</ele><time>2026-04-04T11:07:14Z</time></trkpt><trkpt lat="42.61189898494539" lon="12.357003708149065"><ele>540.0</ele><time>2026-04-04T11:07:16Z</time></trkpt><trkpt lat="42.61191551788586" lon="12.356876993152106"><ele>541.0</ele><time>2026-04-04T11:07:18Z</time></trkpt><trkpt lat="42.61193296638351" lon="12.356734421070994"><ele>542.0</ele><time>2026-04-04T11:07:20Z</time></trkpt><trkpt lat="42.611959583768275" lon="12.356573297276924"><ele>543.0</ele><time>2026-04-04T11:07:22Z</time></trkpt><trkpt lat="42.61201326658132" lon="12.356442321764414"><ele>544.0</ele><time>2026-04-04T11:07:24Z</time></trkpt><trkpt lat="42.61207664283779" lon="12.356333691890844"><ele>545.0</ele><time>2026-04-04T11:07:26Z</time></trkpt><trkpt lat="42.612168717153665" lon="12.356266422447337"><ele>545.0</ele><time>2026-04-04T11:07:28Z</time></trkpt><trkpt lat="42.61227625324758" lon="12.356194117923252"><ele>545.0</ele><time>2026-04-04T11:07:30.001Z</time></trkpt><trkpt lat="42.61238140347344" lon="12.356128877873076"><ele>545.0</ele><time>2026-04-04T11:07:32.001Z</time></trkpt><trkpt lat="42.61244270346158" lon="12.356096447572892"><ele>545.0</ele><time>2026-04-04T11:07:33.001Z</time></trkpt><trkpt lat="42.61254581143424" lon="12.356027183107198"><ele>545.0</ele><time>2026-04-04T11:07:35.001Z</time></trkpt><trkpt lat="42.612639560866555" lon="12.35593418339788"><ele>545.0</ele><time>2026-04-04T11:07:37.001Z</time></trkpt><trkpt lat="42.61272022376481" lon="12.355818453696852"><ele>545.0</ele><time>2026-04-04T11:07:39.001Z</time></trkpt><trkpt lat="42.61280181171884" lon="12.355706740679153"><ele>545.0</ele><time>2026-04-04T11:07:41.001Z</time></trkpt><trkpt lat="42.61286167027985" lon="12.355603894289029"><ele>545.0</ele><time>2026-04-04T11:07:43.001Z</time></trkpt><trkpt lat="42.61290595812407" lon="12.355522704542631"><ele>545.0</ele><time>2026-04-04T11:07:45.001Z</time></trkpt><trkpt lat="42.61299042920513" lon="12.355455285714966"><ele>545.0</ele><time>2026-04-04T11:07:47.001Z</time></trkpt><trkpt lat="42.61308238511719" lon="12.355450982085703"><ele>545.0</ele><time>2026-04-04T11:07:49.001Z</time></trkpt><trkpt lat="42.613189322070276" lon="12.355500338694513"><ele>545.0</ele><time>2026-04-04T11:07:51Z</time></trkpt><trkpt lat="42.61325241528482" lon="12.355515698672722"><ele>545.0</ele><time>2026-04-04T11:07:52Z</time></trkpt><trkpt lat="42.613351960374544" lon="12.355558969506175"><ele>545.0</ele><time>2026-04-04T11:07:54Z</time></trkpt><trkpt lat="42.613429359493345" lon="12.355645329810695"><ele>545.0</ele><time>2026-04-04T11:07:56Z</time></trkpt><trkpt lat="42.61348969452549" lon="12.355749747516832"><ele>545.0</ele><time>2026-04-04T11:07:58Z</time></trkpt><trkpt lat="42.61355341171155" lon="12.35585508433114"><ele>545.0</ele><time>2026-04-04T11:08:00Z</time></trkpt><trkpt lat="42.61362327874669" lon="12.355959466328832"><ele>545.0</ele><time>2026-04-04T11:08:02Z</time></trkpt><trkpt lat="42.6136930684256" lon="12.356060280816738"><ele>545.0</ele><time>2026-04-04T11:08:04Z</time></trkpt><trkpt lat="42.61375910352389" lon="12.35615656178418"><ele>547.6</ele><time>2026-04-04T11:08:06Z</time></trkpt><trkpt lat="42.613809247893414" lon="12.356264361758354"><ele>550.2</ele><time>2026-04-04T11:08:08Z</time></trkpt><trkpt lat="42.61385970750574" lon="12.356363407850894"><ele>552.8</ele><time>2026-04-04T11:08:10Z</time></trkpt><trkpt lat="42.61390616736003" lon="12.356466849674726"><ele>555.4</ele><time>2026-04-04T11:08:12Z</time></trkpt><trkpt lat="42.61397791238349" lon="12.35656714857917"><ele>558.0</ele><time>2026-04-04T11:08:14Z</time></trkpt><trkpt lat="42.61405790398123" lon="12.35665815430917"><ele>558.0</ele><time>2026-04-04T11:08:16Z</time></trkpt><trkpt lat="42.61413312664322" lon="12.356751640049385"><ele>558.0</ele><time>2026-04-04T11:08:18Z</time></trkpt><trkpt lat="42.61420925372114" lon="12.356859711981679"><ele>558.0</ele><time>2026-04-04T11:08:20Z</time></trkpt><trkpt lat="42.6142737182706" lon="12.356954374580944"><ele>558.0</ele><time>2026-04-04T11:08:22Z</time></trkpt><trkpt lat="42.61434430391566" lon="12.357066715737817"><ele>558.0</ele><time>2026-04-04T11:08:24Z</time></trkpt><trkpt lat="42.61441044316378" lon="12.357164188049815"><ele>559.1999999999999</ele><time>2026-04-04T11:08:26Z</time></trkpt><trkpt lat="42.61448526494163" lon="12.357245094600257"><ele>560.4</ele><time>2026-04-04T11:08:28Z</time></trkpt><trkpt lat="42.61457622640201" lon="12.357306888127646"><ele>561.5999999999999</ele><time>2026-04-04T11:08:30Z</time></trkpt><trkpt lat="42.6146694801158" lon="12.357390721628494"><ele>562.8</ele><time>2026-04-04T11:08:32Z</time></trkpt><trkpt lat="42.61476323939404" lon="12.357475947358024"><ele>564.0</ele><time>2026-04-04T11:08:34Z</time></trkpt><trkpt lat="42.614857514394494" lon="12.357563855040672"><ele>564.0</ele><time>2026-04-04T11:08:36Z</time></trkpt><trkpt lat="42.614947230616046" lon="12.35763450884368"><ele>564.0</ele><time>2026-04-04T11:08:38Z</time></trkpt><trkpt lat="42.61503130176018" lon="12.357729317220935"><ele>564.0</ele><time>2026-04-04T11:08:40Z</time></trkpt><trkpt lat="42.61512644659073" lon="12.357812279538138"><ele>564.0</ele><time>2026-04-04T11:08:42Z</time></trkpt><trkpt lat="42.61522088430504" lon="12.357892182152755"><ele>564.0</ele><time>2026-04-04T11:08:44Z</time></trkpt><trkpt lat="42.61529492103616" lon="12.35794227060564"><ele>563.1666666666666</ele><time>2026-04-04T11:08:46Z</time></trkpt><trkpt lat="42.61537451079994" lon="12.358004620340402"><ele>562.3333333333334</ele><time>2026-04-04T11:08:48Z</time></trkpt><trkpt lat="42.61545808374558" lon="12.358082965105412"><ele>561.5</ele><time>2026-04-04T11:08:50Z</time></trkpt><trkpt lat="42.61552587703656" lon="12.358151935759885"><ele>560.6666666666667</ele><time>2026-04-04T11:08:52Z</time></trkpt><trkpt lat="42.615576372168704" lon="12.358220061457581"><ele>559.8333333333334</ele><time>2026-04-04T11:08:54Z</time></trkpt><trkpt lat="42.615632854033635" lon="12.358289875248733"><ele>559.0</ele><time>2026-04-04T11:08:56Z</time></trkpt><trkpt lat="42.615684253282396" lon="12.358361344247998"><ele>559.0</ele><time>2026-04-04T11:08:58Z</time></trkpt><trkpt lat="42.61576583675773" lon="12.358425968077949"><ele>559.0</ele><time>2026-04-04T11:09:00Z</time></trkpt><trkpt lat="42.6158484678366" lon="12.358503453250496"><ele>559.0</ele><time>2026-04-04T11:09:02Z</time></trkpt><trkpt lat="42.615900640170416" lon="12.358554575694686"><ele>559.0</ele><time>2026-04-04T11:09:03Z</time></trkpt><trkpt lat="42.61599700056611" lon="12.358659992733832"><ele>559.0</ele><time>2026-04-04T11:09:05Z</time></trkpt><trkpt lat="42.61606942221212" lon="12.358777375342317"><ele>556.5</ele><time>2026-04-04T11:09:07Z</time></trkpt><trkpt lat="42.61609821863283" lon="12.35893101805297"><ele>554.0</ele><time>2026-04-04T11:09:09Z</time></trkpt><trkpt lat="42.61611054895213" lon="12.359082727525763"><ele>551.5</ele><time>2026-04-04T11:09:11Z</time></trkpt><trkpt lat="42.61613512299518" lon="12.359242014279133"><ele>549.0</ele><time>2026-04-04T11:09:13Z</time></trkpt><trkpt lat="42.61614239688221" lon="12.359397520014427"><ele>549.0</ele><time>2026-04-04T11:09:15Z</time></trkpt><trkpt lat="42.616149161005" lon="12.35951882822011"><ele>549.0</ele><time>2026-04-04T11:09:17Z</time></trkpt><trkpt lat="42.61616035225339" lon="12.359623709660426"><ele>549.0</ele><time>2026-04-04T11:09:19Z</time></trkpt><trkpt lat="42.61617444366817" lon="12.359738353743243"><ele>549.0</ele><time>2026-04-04T11:09:21Z</time></trkpt><trkpt lat="42.61622599182812" lon="12.35980323624568"><ele>549.0</ele><time>2026-04-04T11:09:23Z</time></trkpt><trkpt lat="42.616303186307256" lon="12.359806221820087"><ele>549.0</ele><time>2026-04-04T11:09:25Z</time></trkpt><trkpt lat="42.616394647205574" lon="12.359745600249598"><ele>551.5</ele><time>2026-04-04T11:09:27Z</time></trkpt><trkpt lat="42.616469748192905" lon="12.359665461496565"><ele>554.0</ele><time>2026-04-04T11:09:29Z</time></trkpt><trkpt lat="42.61655284781897" lon="12.359604426223854"><ele>556.5</ele><time>2026-04-04T11:09:31Z</time></trkpt><trkpt lat="42.61661361576237" lon="12.359546876341936"><ele>559.0</ele><time>2026-04-04T11:09:33Z</time></trkpt><trkpt lat="42.61669345438415" lon="12.359536349186703"><ele>561.5</ele><time>2026-04-04T11:09:35Z</time></trkpt><trkpt lat="42.61675350266467" lon="12.359469443833488"><ele>564.0</ele><time>2026-04-04T11:09:37Z</time></trkpt><trkpt lat="42.61680814942863" lon="12.359376258982524"><ele>564.0</ele><time>2026-04-04T11:09:39Z</time></trkpt><trkpt lat="42.6168929751349" lon="12.359289923042938"><ele>564.0</ele><time>2026-04-04T11:09:41Z</time></trkpt><trkpt lat="42.616978494251775" lon="12.359196871585487"><ele>564.0</ele><time>2026-04-04T11:09:43Z</time></trkpt><trkpt lat="42.61708219727573" lon="12.359137818902864"><ele>564.0</ele><time>2026-04-04T11:09:45Z</time></trkpt><trkpt lat="42.61718576390354" lon="12.359104676259584"><ele>564.0</ele><time>2026-04-04T11:09:47Z</time></trkpt><trkpt lat="42.61730555104595" lon="12.359055553912237"><ele>563.5</ele><time>2026-04-04T11:09:49.001Z</time></trkpt><trkpt lat="42.61739404901154" lon="12.359005550828874"><ele>563.0</ele><time>2026-04-04T11:09:51.001Z</time></trkpt><trkpt lat="42.617453783847495" lon="12.358939033490412"><ele>562.5</ele><time>2026-04-04T11:09:53.001Z</time></trkpt><trkpt lat="42.6175072199331" lon="12.35889005280277"><ele>562.0</ele><time>2026-04-04T11:09:55.001Z</time></trkpt><trkpt lat="42.61756724127172" lon="12.358833139602014"><ele>561.5</ele><time>2026-04-04T11:09:58Z</time></trkpt><trkpt lat="42.61761853020299" lon="12.358782948309926"><ele>561.0</ele><time>2026-04-04T11:10:00Z</time></trkpt><trkpt lat="42.61769438885554" lon="12.358734411301151"><ele>562.3333333333334</ele><time>2026-04-04T11:10:03Z</time></trkpt><trkpt lat="42.61777032968937" lon="12.358669325664493"><ele>563.6666666666666</ele><time>2026-04-04T11:10:06Z</time></trkpt><trkpt lat="42.61784956508676" lon="12.358604495136968"><ele>565.0</ele><time>2026-04-04T11:10:08Z</time></trkpt><trkpt lat="42.617914874144184" lon="12.358526812474212"><ele>566.3333333333333</ele><time>2026-04-04T11:10:10Z</time></trkpt><trkpt lat="42.617995872319156" lon="12.35844415816723"><ele>567.6666666666666</ele><time>2026-04-04T11:10:12Z</time></trkpt><trkpt lat="42.61806051165937" lon="12.358429025254141"><ele>569.0</ele><time>2026-04-04T11:10:13Z</time></trkpt><trkpt lat="42.61812973884473" lon="12.358328962444148"><ele>569.0</ele><time>2026-04-04T11:10:15Z</time></trkpt><trkpt lat="42.618213719191864" lon="12.358237215135802"><ele>569.0</ele><time>2026-04-04T11:10:17Z</time></trkpt><trkpt lat="42.618308762895616" lon="12.358156857446083"><ele>569.0</ele><time>2026-04-04T11:10:19Z</time></trkpt><trkpt lat="42.61841661967465" lon="12.358069192699272"><ele>569.0</ele><time>2026-04-04T11:10:21Z</time></trkpt><trkpt lat="42.61851479983434" lon="12.35799168087898"><ele>570.0</ele><time>2026-04-04T11:10:23Z</time></trkpt><trkpt lat="42.618607351336784" lon="12.357933654502219"><ele>571.0</ele><time>2026-04-04T11:10:25Z</time></trkpt><trkpt lat="42.61867494368024" lon="12.357877508035745"><ele>572.0</ele><time>2026-04-04T11:10:28Z</time></trkpt><trkpt lat="42.61875190328132" lon="12.357799895954193"><ele>573.0</ele><time>2026-04-04T11:10:31Z</time></trkpt><trkpt lat="42.61881740809964" lon="12.357728803762967"><ele>574.0</ele><time>2026-04-04T11:10:33Z</time></trkpt><trkpt lat="42.618887563230516" lon="12.357657293439035"><ele>575.0</ele><time>2026-04-04T11:10:35Z</time></trkpt><trkpt lat="42.61895988206841" lon="12.35760455142387"><ele>575.0</ele><time>2026-04-04T11:10:38Z</time></trkpt><trkpt lat="42.619034588870996" lon="12.357535698336275"><ele>575.0</ele><time>2026-04-04T11:10:41Z</time></trkpt><trkpt lat="42.61911472888893" lon="12.35746179466897"><ele>575.0</ele><time>2026-04-04T11:10:43Z</time></trkpt><trkpt lat="42.61918389697652" lon="12.357384326895396"><ele>575.0</ele><time>2026-04-04T11:10:45Z</time></trkpt><trkpt lat="42.61924634754463" lon="12.357296694263376"><ele>575.0</ele><time>2026-04-04T11:10:47Z</time></trkpt><trkpt lat="42.61931404707423" lon="12.35722997848483"><ele>574.6</ele><time>2026-04-04T11:10:49Z</time></trkpt><trkpt lat="42.6193941995121" lon="12.357181485786464"><ele>574.2</ele><time>2026-04-04T11:10:51Z</time></trkpt><trkpt lat="42.619470527695846" lon="12.357119271506384"><ele>573.8</ele><time>2026-04-04T11:10:53Z</time></trkpt><trkpt lat="42.61954644189738" lon="12.357066219801158"><ele>573.4</ele><time>2026-04-04T11:10:55Z</time></trkpt><trkpt lat="42.619629331634904" lon="12.35697746031121"><ele>573.0</ele><time>2026-04-04T11:10:57Z</time></trkpt><trkpt lat="42.61971564997905" lon="12.356877115081193"><ele>573.0</ele><time>2026-04-04T11:10:59Z</time></trkpt><trkpt lat="42.619788818299654" lon="12.356794448987493"><ele>573.0</ele><time>2026-04-04T11:11:01Z</time></trkpt><trkpt lat="42.61984928874381" lon="12.356692355423995"><ele>573.0</ele><time>2026-04-04T11:11:03Z</time></trkpt><trkpt lat="42.6198909183669" lon="12.356586697183541"><ele>573.0</ele><time>2026-04-04T11:11:05Z</time></trkpt><trkpt lat="42.61995219734858" lon="12.35644430832046"><ele>573.0</ele><time>2026-04-04T11:11:07Z</time></trkpt><trkpt lat="42.620028589897935" lon="12.356324852731575"><ele>578.0</ele><time>2026-04-04T11:11:09Z</time></trkpt><trkpt lat="42.62007285540558" lon="12.35621497184498"><ele>583.0</ele><time>2026-04-04T11:11:11Z</time></trkpt><trkpt lat="42.62012782022668" lon="12.356091641254979"><ele>588.0</ele><time>2026-04-04T11:11:13Z</time></trkpt><trkpt lat="42.62019008998978" lon="12.355975870815243"><ele>593.0</ele><time>2026-04-04T11:11:15Z</time></trkpt><trkpt lat="42.62023343016069" lon="12.355896735995698"><ele>598.0</ele><time>2026-04-04T11:11:17Z</time></trkpt><trkpt lat="42.62029190737714" lon="12.355799703525308"><ele>594.6</ele><time>2026-04-04T11:11:19Z</time></trkpt><trkpt lat="42.620336283339455" lon="12.355735748607671"><ele>591.1999999999999</ele><time>2026-04-04T11:11:20Z</time></trkpt><trkpt lat="42.62042771903886" lon="12.35563205552311"><ele>587.8</ele><time>2026-04-04T11:11:22Z</time></trkpt><trkpt lat="42.62052259556554" lon="12.355521536424922"><ele>584.4</ele><time>2026-04-04T11:11:24Z</time></trkpt><trkpt lat="42.620573362358556" lon="12.355468136124935"><ele>581.0</ele><time>2026-04-04T11:11:25Z</time></trkpt><trkpt lat="42.62063352174984" lon="12.355375876873111"><ele>581.0</ele><time>2026-04-04T11:11:27Z</time></trkpt><trkpt lat="42.620667544722444" lon="12.355289909537937"><ele>581.0</ele><time>2026-04-04T11:11:29Z</time></trkpt><trkpt lat="42.620670608973086" lon="12.355190529455628"><ele>581.0</ele><time>2026-04-04T11:11:41Z</time></trkpt><trkpt lat="42.620727703775664" lon="12.355132515698202"><ele>581.0</ele><time>2026-04-04T11:11:45Z</time></trkpt><trkpt lat="42.620752459930586" lon="12.355045090223218"><ele>581.0</ele><time>2026-04-04T11:11:51Z</time></trkpt><trkpt lat="42.6207581753205" lon="12.354926148908776"><ele>581.0</ele><time>2026-04-04T11:11:54Z</time></trkpt><trkpt lat="42.6207631203281" lon="12.354817572150932"><ele>581.0</ele><time>2026-04-04T11:11:57Z</time></trkpt><trkpt lat="42.62078890998984" lon="12.354736459526448"><ele>581.0</ele><time>2026-04-04T11:12:00Z</time></trkpt><trkpt lat="42.62084376575019" lon="12.354673001857245"><ele>581.0</ele><time>2026-04-04T11:12:04Z</time></trkpt><trkpt lat="42.620915238722354" lon="12.354635330811476"><ele>581.0</ele><time>2026-04-04T11:12:08Z</time></trkpt><trkpt lat="42.62099217463309" lon="12.354652529283289"><ele>581.0</ele><time>2026-04-04T11:12:10Z</time></trkpt><trkpt lat="42.621055259594556" lon="12.354679799340447"><ele>581.0</ele><time>2026-04-04T11:12:12Z</time></trkpt><trkpt lat="42.621119315866814" lon="12.354679281970059"><ele>581.0</ele><time>2026-04-04T11:12:14Z</time></trkpt><trkpt lat="42.621190844160736" lon="12.35463844642954"><ele>583.3333333333333</ele><time>2026-04-04T11:12:16Z</time></trkpt><trkpt lat="42.62127168412306" lon="12.354611641608848"><ele>585.6666666666666</ele><time>2026-04-04T11:12:18Z</time></trkpt><trkpt lat="42.621366640034175" lon="12.354582123197233"><ele>588.0</ele><time>2026-04-04T11:12:20Z</time></trkpt><trkpt lat="42.62146871906638" lon="12.354547521763747"><ele>590.3333333333334</ele><time>2026-04-04T11:12:22Z</time></trkpt><trkpt lat="42.62155062369101" lon="12.354513276218977"><ele>592.6666666666667</ele><time>2026-04-04T11:12:24Z</time></trkpt><trkpt lat="42.621624033006576" lon="12.35447946303127"><ele>595.0</ele><time>2026-04-04T11:12:26Z</time></trkpt><trkpt lat="42.62166912164817" lon="12.354419008274826"><ele>595.0</ele><time>2026-04-04T11:12:28Z</time></trkpt><trkpt lat="42.62172228920624" lon="12.354344368760838"><ele>595.0</ele><time>2026-04-04T11:12:30Z</time></trkpt><trkpt lat="42.62178710044669" lon="12.354288282669723"><ele>595.0</ele><time>2026-04-04T11:12:32Z</time></trkpt><trkpt lat="42.62181683565714" lon="12.35419644936054"><ele>595.0</ele><time>2026-04-04T11:12:34Z</time></trkpt><trkpt lat="42.621856835956876" lon="12.354128667789258"><ele>595.0</ele><time>2026-04-04T11:12:36Z</time></trkpt><trkpt lat="42.621897237686646" lon="12.354054603200822"><ele>595.0</ele><time>2026-04-04T11:12:43Z</time></trkpt><trkpt lat="42.621941180978304" lon="12.35399316218098"><ele>595.0</ele><time>2026-04-04T11:12:45Z</time></trkpt><trkpt lat="42.621980680033325" lon="12.353920506050411"><ele>597.4285714285714</ele><time>2026-04-04T11:12:47Z</time></trkpt><trkpt lat="42.62200870581757" lon="12.353839623925511"><ele>599.8571428571429</ele><time>2026-04-04T11:12:49Z</time></trkpt><trkpt lat="42.62201144851493" lon="12.353733763672258"><ele>602.2857142857142</ele><time>2026-04-04T11:12:51Z</time></trkpt><trkpt lat="42.62203160669644" lon="12.353646585780222"><ele>604.7142857142858</ele><time>2026-04-04T11:12:53Z</time></trkpt><trkpt lat="42.62206944440758" lon="12.353549081664804"><ele>607.1428571428571</ele><time>2026-04-04T11:12:55Z</time></trkpt><trkpt lat="42.62208664925444" lon="12.353451911287475"><ele>609.5714285714286</ele><time>2026-04-04T11:12:58Z</time></trkpt><trkpt lat="42.622128743004936" lon="12.353372577267118"><ele>612.0</ele><time>2026-04-04T11:13:07Z</time></trkpt><trkpt lat="42.622126249916896" lon="12.353280977019155"><ele>612.0</ele><time>2026-04-04T11:13:10Z</time></trkpt><trkpt lat="42.622147182612814" lon="12.353195001393559"><ele>612.0</ele><time>2026-04-04T11:13:12Z</time></trkpt><trkpt lat="42.62216975297561" lon="12.353111323373094"><ele>612.0</ele><time>2026-04-04T11:13:14Z</time></trkpt><trkpt lat="42.62218803791854" lon="12.353016005778736"><ele>612.0</ele><time>2026-04-04T11:13:16Z</time></trkpt><trkpt lat="42.622188754019845" lon="12.352909220965978"><ele>612.0</ele><time>2026-04-04T11:13:20Z</time></trkpt><trkpt lat="42.62219267694281" lon="12.352822271725039"><ele>612.0</ele><time>2026-04-04T11:13:22Z</time></trkpt><trkpt lat="42.62223479764813" lon="12.352743686083691"><ele>612.0</ele><time>2026-04-04T11:13:25Z</time></trkpt><trkpt lat="42.62228110808445" lon="12.352655991230417"><ele>612.6666666666666</ele><time>2026-04-04T11:13:27Z</time></trkpt><trkpt lat="42.62232963905958" lon="12.352566196025276"><ele>613.3333333333334</ele><time>2026-04-04T11:13:29Z</time></trkpt><trkpt lat="42.62234839910534" lon="12.35245861520739"><ele>614.0</ele><time>2026-04-04T11:13:31Z</time></trkpt><trkpt lat="42.62240311141272" lon="12.352384268684924"><ele>614.6666666666667</ele><time>2026-04-04T11:13:33Z</time></trkpt><trkpt lat="42.6224453311378" lon="12.352275725543363"><ele>615.3333333333334</ele><time>2026-04-04T11:13:36Z</time></trkpt><trkpt lat="42.62248892759928" lon="12.352213296158387"><ele>616.0</ele><time>2026-04-04T11:13:38Z</time></trkpt><trkpt lat="42.622515876405664" lon="12.352126984200089"><ele>617.6666666666667</ele><time>2026-04-04T11:13:47Z</time></trkpt><trkpt lat="42.62253367734033" lon="12.352037218135163"><ele>619.3333333333334</ele><time>2026-04-04T11:13:50Z</time></trkpt><trkpt lat="42.62255276211698" lon="12.351945736745249"><ele>621.0</ele><time>2026-04-04T11:13:53Z</time></trkpt><trkpt lat="42.6225993242229" lon="12.351848978665231"><ele>622.6666666666666</ele><time>2026-04-04T11:13:56Z</time></trkpt><trkpt lat="42.62264243208709" lon="12.351750784482897"><ele>624.3333333333333</ele><time>2026-04-04T11:13:59Z</time></trkpt><trkpt lat="42.622685963189255" lon="12.351668855399776"><ele>626.0</ele><time>2026-04-04T11:14:01Z</time></trkpt><trkpt lat="42.62272298354695" lon="12.351557555042"><ele>626.0</ele><time>2026-04-04T11:14:03Z</time></trkpt><trkpt lat="42.62273855169727" lon="12.351455675216046"><ele>626.0</ele><time>2026-04-04T11:14:05Z</time></trkpt><trkpt lat="42.62277344858548" lon="12.351344878064587"><ele>626.0</ele><time>2026-04-04T11:14:08Z</time></trkpt><trkpt lat="42.622795769961805" lon="12.35125850901314"><ele>626.0</ele><time>2026-04-04T11:15:35Z</time></trkpt><trkpt lat="42.62286107186037" lon="12.351172100003277"><ele>626.0</ele><time>2026-04-04T11:15:38Z</time></trkpt><trkpt lat="42.62290347640902" lon="12.351090656227122"><ele>626.0</ele><time>2026-04-04T11:15:40Z</time></trkpt><trkpt lat="42.62295131515853" lon="12.351022352032851"><ele>627.0</ele><time>2026-04-04T11:15:43Z</time></trkpt><trkpt lat="42.623004615548695" lon="12.350953576520135"><ele>628.0</ele><time>2026-04-04T11:15:57Z</time></trkpt><trkpt lat="42.623066177504604" lon="12.350868718577189"><ele>629.0</ele><time>2026-04-04T11:15:59Z</time></trkpt><trkpt lat="42.62310839165732" lon="12.350782029109958"><ele>630.0</ele><time>2026-04-04T11:16:01Z</time></trkpt><trkpt lat="42.62315393064202" lon="12.350720184682416"><ele>631.0</ele><time>2026-04-04T11:16:03Z</time></trkpt><trkpt lat="42.623227849811066" lon="12.350662052000974"><ele>632.0</ele><time>2026-04-04T11:16:05.001Z</time></trkpt><trkpt lat="42.62329072104936" lon="12.35063634896453"><ele>632.0</ele><time>2026-04-04T11:16:07.001Z</time></trkpt><trkpt lat="42.62335046096992" lon="12.350599663962365"><ele>632.0</ele><time>2026-04-04T11:16:09.001Z</time></trkpt><trkpt lat="42.623406102682424" lon="12.350532314653503"><ele>632.0</ele><time>2026-04-04T11:16:11.001Z</time></trkpt><trkpt lat="42.623482530401105" lon="12.350524985560952"><ele>632.0</ele><time>2026-04-04T11:16:13.001Z</time></trkpt><trkpt lat="42.623568018052936" lon="12.350530389208993"><ele>632.0</ele><time>2026-04-04T11:16:15Z</time></trkpt><trkpt lat="42.62365175501743" lon="12.350477182385756"><ele>632.0</ele><time>2026-04-04T11:16:18Z</time></trkpt><trkpt lat="42.62371380913148" lon="12.350410657865337"><ele>634.3333333333333</ele><time>2026-04-04T11:16:20Z</time></trkpt><trkpt lat="42.62378047854693" lon="12.350356000132601"><ele>636.6666666666666</ele><time>2026-04-04T11:16:22Z</time></trkpt><trkpt lat="42.62385878811515" lon="12.350329636179396"><ele>639.0</ele><time>2026-04-04T11:16:24Z</time></trkpt><trkpt lat="42.623943136196836" lon="12.35030633569805"><ele>641.3333333333334</ele><time>2026-04-04T11:16:26Z</time></trkpt><trkpt lat="42.624011537718204" lon="12.350274548747336"><ele>643.6666666666667</ele><time>2026-04-04T11:16:28Z</time></trkpt><trkpt lat="42.624104612560124" lon="12.350265004529557"><ele>646.0</ele><time>2026-04-04T11:16:30Z</time></trkpt><trkpt lat="42.624179832063675" lon="12.350265854802558"><ele>646.0</ele><time>2026-04-04T11:16:32Z</time></trkpt><trkpt lat="42.62425778288775" lon="12.35025130521687"><ele>646.0</ele><time>2026-04-04T11:16:34Z</time></trkpt><trkpt lat="42.62435283180639" lon="12.35021179210066"><ele>646.0</ele><time>2026-04-04T11:16:36Z</time></trkpt><trkpt lat="42.62444892307895" lon="12.350177484847311"><ele>646.0</ele><time>2026-04-04T11:16:38Z</time></trkpt><trkpt lat="42.62452857618509" lon="12.350141576882335"><ele>646.0</ele><time>2026-04-04T11:16:40Z</time></trkpt><trkpt lat="42.62460041298249" lon="12.350092250683154"><ele>646.0</ele><time>2026-04-04T11:16:42Z</time></trkpt><trkpt lat="42.62468954264611" lon="12.350074100769762"><ele>647.1666666666667</ele><time>2026-04-04T11:16:51Z</time></trkpt><trkpt lat="42.62478725796556" lon="12.350044032343643"><ele>648.3333333333334</ele><time>2026-04-04T11:16:54Z</time></trkpt><trkpt lat="42.62486909206799" lon="12.350039455655832"><ele>649.5</ele><time>2026-04-04T11:16:56Z</time></trkpt><trkpt lat="42.62491638947453" lon="12.349982872383661"><ele>650.6666666666666</ele><time>2026-04-04T11:16:58Z</time></trkpt><trkpt lat="42.62499286546584" lon="12.349947162071457"><ele>651.8333333333333</ele><time>2026-04-04T11:17:01Z</time></trkpt><trkpt lat="42.62506895228276" lon="12.349950403784542"><ele>653.0</ele><time>2026-04-04T11:17:04Z</time></trkpt><trkpt lat="42.62514400252484" lon="12.349917400878008"><ele>653.0000000000001</ele><time>2026-04-04T11:17:11Z</time></trkpt><trkpt lat="42.625219862666704" lon="12.34990710528226"><ele>653.0</ele><time>2026-04-04T11:17:13Z</time></trkpt><trkpt lat="42.6252917984265" lon="12.34987588774049"><ele>653.0</ele><time>2026-04-04T11:17:15Z</time></trkpt><trkpt lat="42.625360526947226" lon="12.349858994558005"><ele>653.0</ele><time>2026-04-04T11:17:17Z</time></trkpt><trkpt lat="42.62543568406964" lon="12.349863446753941"><ele>653.0</ele><time>2026-04-04T11:17:19Z</time></trkpt><trkpt lat="42.625505464290384" lon="12.34984437689267"><ele>653.0000000000001</ele><time>2026-04-04T11:17:21Z</time></trkpt><trkpt lat="42.625579759453984" lon="12.349850549750402"><ele>653.0</ele><time>2026-04-04T11:17:23Z</time></trkpt><trkpt lat="42.62564381796068" lon="12.34984073862573"><ele>654.8571428571429</ele><time>2026-04-04T11:17:25Z</time></trkpt><trkpt lat="42.62572398932332" lon="12.349828074038856"><ele>656.7142857142858</ele><time>2026-04-04T11:17:28Z</time></trkpt><trkpt lat="42.62579071635022" lon="12.349863661545838"><ele>658.5714285714287</ele><time>2026-04-04T11:17:30Z</time></trkpt><trkpt lat="42.62585588893356" lon="12.349912661563494"><ele>660.4285714285714</ele><time>2026-04-04T11:17:33Z</time></trkpt><trkpt lat="42.62593065472599" lon="12.349942470956961"><ele>662.2857142857142</ele><time>2026-04-04T11:17:36Z</time></trkpt><trkpt lat="42.626002969957895" lon="12.349982642575254"><ele>664.1428571428572</ele><time>2026-04-04T11:17:39Z</time></trkpt><trkpt lat="42.62606523648753" lon="12.35000522399364"><ele>666.0</ele><time>2026-04-04T11:17:41Z</time></trkpt><trkpt lat="42.62612714691686" lon="12.35004922456031"><ele>667.5714285714286</ele><time>2026-04-04T11:17:43Z</time></trkpt><trkpt lat="42.62620505483384" lon="12.350080139731102"><ele>669.1428571428571</ele><time>2026-04-04T11:17:45Z</time></trkpt><trkpt lat="42.62626376269831" lon="12.350118746064307"><ele>670.7142857142857</ele><time>2026-04-04T11:17:47Z</time></trkpt><trkpt lat="42.62633473516936" lon="12.350116816592422"><ele>672.2857142857142</ele><time>2026-04-04T11:17:49Z</time></trkpt><trkpt lat="42.62639795340396" lon="12.350159401456372"><ele>673.8571428571429</ele><time>2026-04-04T11:17:51Z</time></trkpt><trkpt lat="42.62646900748035" lon="12.350147325030864"><ele>675.4285714285713</ele><time>2026-04-04T11:17:53Z</time></trkpt><trkpt lat="42.626547030050695" lon="12.35020418655847"><ele>677.0</ele><time>2026-04-04T11:18:02Z</time></trkpt><trkpt lat="42.62662118981765" lon="12.350212026993711"><ele>677.0</ele><time>2026-04-04T11:18:04Z</time></trkpt><trkpt lat="42.62669012693435" lon="12.350225372878699"><ele>677.0</ele><time>2026-04-04T11:18:06Z</time></trkpt><trkpt lat="42.62675356273696" lon="12.350264524833003"><ele>677.0</ele><time>2026-04-04T11:18:08Z</time></trkpt><trkpt lat="42.62683283484348" lon="12.350295902803538"><ele>677.0</ele><time>2026-04-04T11:18:10Z</time></trkpt><trkpt lat="42.62690176691074" lon="12.35031391698079"><ele>677.0</ele><time>2026-04-04T11:18:12Z</time></trkpt><trkpt lat="42.62699743194431" lon="12.350346910568748"><ele>677.0</ele><time>2026-04-04T11:18:15Z</time></trkpt><trkpt lat="42.62708924081516" lon="12.350359485317586"><ele>678.6666666666666</ele><time>2026-04-04T11:18:18Z</time></trkpt><trkpt lat="42.6271608705111" lon="12.350365742294697"><ele>680.3333333333333</ele><time>2026-04-04T11:18:21Z</time></trkpt><trkpt lat="42.62723651514135" lon="12.350394333172353"><ele>682.0</ele><time>2026-04-04T11:18:23Z</time></trkpt><trkpt lat="42.62731283781117" lon="12.350358762659809"><ele>683.6666666666666</ele><time>2026-04-04T11:18:25Z</time></trkpt><trkpt lat="42.62740097776158" lon="12.350338846322197"><ele>685.3333333333334</ele><time>2026-04-04T11:18:27Z</time></trkpt><trkpt lat="42.62747915620062" lon="12.35030503627545"><ele>687.0</ele><time>2026-04-04T11:18:29Z</time></trkpt><trkpt lat="42.627554916279756" lon="12.350263783242479"><ele>687.0</ele><time>2026-04-04T11:18:31Z</time></trkpt><trkpt lat="42.62763259514131" lon="12.350217464512012"><ele>687.0</ele><time>2026-04-04T11:18:34Z</time></trkpt><trkpt lat="42.627724357844954" lon="12.350164069252205"><ele>687.0</ele><time>2026-04-04T11:18:36Z</time></trkpt><trkpt lat="42.62781107796371" lon="12.350123006557807"><ele>687.0</ele><time>2026-04-04T11:18:38Z</time></trkpt><trkpt lat="42.62788166338063" lon="12.350088896820285"><ele>687.0</ele><time>2026-04-04T11:18:41Z</time></trkpt><trkpt lat="42.627937322970496" lon="12.350038540110107"><ele>687.0</ele><time>2026-04-04T11:18:44Z</time></trkpt><trkpt lat="42.62798289706007" lon="12.349964595727373"><ele>688.0</ele><time>2026-04-04T11:18:47Z</time></trkpt><trkpt lat="42.6279579590688" lon="12.349842859265413"><ele>688.0</ele><time>2026-04-04T11:18:50Z</time></trkpt></trkseg><trkseg><trkpt lat="42.62791823527891" lon="12.349715730752852"><ele>688.0</ele><time>2026-04-04T11:47:59Z</time></trkpt><trkpt lat="42.62789524908345" lon="12.349635478652806"><ele>688.0</ele><time>2026-04-04T11:48:01Z</time></trkpt><trkpt lat="42.62790396074415" lon="12.349537787246465"><ele>688.0</ele><time>2026-04-04T11:48:11Z</time></trkpt><trkpt lat="42.62789155365651" lon="12.349632046586294"><ele>688.0</ele><time>2026-04-04T11:48:35Z</time></trkpt><trkpt lat="42.627938927871185" lon="12.349696019514182"><ele>688.0</ele><time>2026-04-04T11:48:37.999Z</time></trkpt><trkpt lat="42.62797964854824" lon="12.349792370378147"><ele>688.0</ele><time>2026-04-04T11:48:40.999Z</time></trkpt><trkpt lat="42.62801725736976" lon="12.349939802265201"><ele>688.0</ele><time>2026-04-04T11:48:43.999Z</time></trkpt><trkpt lat="42.62805661757882" lon="12.350058962131108"><ele>688.0</ele><time>2026-04-04T11:48:45.999Z</time></trkpt><trkpt lat="42.628087910856394" lon="12.350167480478165"><ele>688.0</ele><time>2026-04-04T11:48:47.999Z</time></trkpt><trkpt lat="42.62810336113634" lon="12.350272721102316"><ele>688.0</ele><time>2026-04-04T11:48:49.999Z</time></trkpt><trkpt lat="42.62810781656556" lon="12.350380022518552"><ele>688.0</ele><time>2026-04-04T11:48:52.999Z</time></trkpt><trkpt lat="42.62806304797642" lon="12.350479379333962"><ele>688.0</ele><time>2026-04-04T11:49:09.999Z</time></trkpt><trkpt lat="42.628003813907085" lon="12.350591276638315"><ele>688.8</ele><time>2026-04-04T11:49:11.999Z</time></trkpt><trkpt lat="42.62793654769136" lon="12.350688703684227"><ele>689.5999999999999</ele><time>2026-04-04T11:49:13.999Z</time></trkpt><trkpt lat="42.627854477579376" lon="12.350766557796227"><ele>690.4000000000001</ele><time>2026-04-04T11:49:16Z</time></trkpt><trkpt lat="42.62775515119818" lon="12.35082306239603"><ele>691.2</ele><time>2026-04-04T11:49:18Z</time></trkpt><trkpt lat="42.6276582452647" lon="12.35090286435541"><ele>692.0</ele><time>2026-04-04T11:49:20Z</time></trkpt><trkpt lat="42.62756913908106" lon="12.350994497638753"><ele>692.0</ele><time>2026-04-04T11:49:22Z</time></trkpt><trkpt lat="42.62750805244172" lon="12.351093173344724"><ele>692.0</ele><time>2026-04-04T11:49:24Z</time></trkpt><trkpt lat="42.62744393899287" lon="12.35118599059999"><ele>692.0</ele><time>2026-04-04T11:49:26Z</time></trkpt><trkpt lat="42.62736462477793" lon="12.351264410689849"><ele>692.0</ele><time>2026-04-04T11:49:28Z</time></trkpt><trkpt lat="42.62729839203748" lon="12.351314818464042"><ele>692.0</ele><time>2026-04-04T11:49:31Z</time></trkpt><trkpt lat="42.62722682706575" lon="12.35131646410755"><ele>692.0</ele><time>2026-04-04T11:49:55Z</time></trkpt><trkpt lat="42.62723798251016" lon="12.351404609107467"><ele>692.0</ele><time>2026-04-04T11:50:03Z</time></trkpt><trkpt lat="42.62732754402529" lon="12.351350391609145"><ele>692.0</ele><time>2026-04-04T11:50:06Z</time></trkpt><trkpt lat="42.62737844245402" lon="12.351244517193843"><ele>692.0</ele><time>2026-04-04T11:50:08Z</time></trkpt><trkpt lat="42.62744629798628" lon="12.351181167675533"><ele>692.0</ele><time>2026-04-04T11:50:10Z</time></trkpt><trkpt lat="42.6274934929389" lon="12.351107722263063"><ele>692.0</ele><time>2026-04-04T11:50:12Z</time></trkpt><trkpt lat="42.62754094348822" lon="12.351034313526837"><ele>692.0</ele><time>2026-04-04T11:50:14Z</time></trkpt><trkpt lat="42.62760437111" lon="12.350944557664278"><ele>692.0</ele><time>2026-04-04T11:50:16Z</time></trkpt><trkpt lat="42.62767762841921" lon="12.350865666850812"><ele>692.0</ele><time>2026-04-04T11:50:18Z</time></trkpt><trkpt lat="42.627759624962415" lon="12.350799452770922"><ele>692.0</ele><time>2026-04-04T11:50:20Z</time></trkpt><trkpt lat="42.62784168202225" lon="12.35075582646543"><ele>692.0</ele><time>2026-04-04T11:50:22Z</time></trkpt><trkpt lat="42.627924324089705" lon="12.350693144132908"><ele>692.0</ele><time>2026-04-04T11:50:24Z</time></trkpt><trkpt lat="42.62799533013571" lon="12.350607587900553"><ele>691.3333333333333</ele><time>2026-04-04T11:50:26Z</time></trkpt><trkpt lat="42.62805703563955" lon="12.35049132892614"><ele>690.6666666666666</ele><time>2026-04-04T11:50:28Z</time></trkpt><trkpt lat="42.62808806020687" lon="12.350391309981086"><ele>690.0</ele><time>2026-04-04T11:50:30Z</time></trkpt><trkpt lat="42.62811187642874" lon="12.350284899525986"><ele>689.3333333333334</ele><time>2026-04-04T11:50:32Z</time></trkpt><trkpt lat="42.628107535547436" lon="12.350171769262765"><ele>688.6666666666667</ele><time>2026-04-04T11:50:33.999Z</time></trkpt><trkpt lat="42.62808740041775" lon="12.350081720986099"><ele>688.0</ele><time>2026-04-04T11:50:35.999Z</time></trkpt><trkpt lat="42.62807104087594" lon="12.349978997577765"><ele>688.0</ele><time>2026-04-04T11:50:38.999Z</time></trkpt><trkpt lat="42.62813437854663" lon="12.349881516595305"><ele>688.0</ele><time>2026-04-04T11:50:41.999Z</time></trkpt><trkpt lat="42.62822042981067" lon="12.349833956380008"><ele>688.0</ele><time>2026-04-04T11:50:43.999Z</time></trkpt><trkpt lat="42.62831036510037" lon="12.34977179665227"><ele>688.0</ele><time>2026-04-04T11:50:45.999Z</time></trkpt><trkpt lat="42.62840028932322" lon="12.349700806212727"><ele>688.0</ele><time>2026-04-04T11:50:47.999Z</time></trkpt><trkpt lat="42.62847393231979" lon="12.349650363688403"><ele>688.1666666666667</ele><time>2026-04-04T11:50:49.999Z</time></trkpt><trkpt lat="42.62856016208603" lon="12.349613344842336"><ele>688.3333333333334</ele><time>2026-04-04T11:50:51.999Z</time></trkpt><trkpt lat="42.62864606180799" lon="12.349587425845414"><ele>688.5</ele><time>2026-04-04T11:50:53.999Z</time></trkpt><trkpt lat="42.62870745045864" lon="12.349555533952875"><ele>688.6666666666666</ele><time>2026-04-04T11:51:02.999Z</time></trkpt><trkpt lat="42.62879469037574" lon="12.349521920356576"><ele>688.8333333333333</ele><time>2026-04-04T11:51:04.999Z</time></trkpt><trkpt lat="42.62889076944155" lon="12.349482104227866"><ele>689.0</ele><time>2026-04-04T11:51:06.999Z</time></trkpt><trkpt lat="42.62897116043263" lon="12.349436580574702"><ele>687.0</ele><time>2026-04-04T11:51:08.999Z</time></trkpt><trkpt lat="42.62905477214231" lon="12.349367861530364"><ele>685.0</ele><time>2026-04-04T11:51:10.999Z</time></trkpt><trkpt lat="42.629138460448694" lon="12.349326891464159"><ele>683.0</ele><time>2026-04-04T11:51:12.999Z</time></trkpt><trkpt lat="42.62921941649741" lon="12.3492655997324"><ele>681.0</ele><time>2026-04-04T11:51:14.999Z</time></trkpt><trkpt lat="42.62929547638281" lon="12.349182409175999"><ele>679.0</ele><time>2026-04-04T11:51:16.999Z</time></trkpt><trkpt lat="42.6293776963378" lon="12.349055976091892"><ele>679.0</ele><time>2026-04-04T11:51:18.999Z</time></trkpt><trkpt lat="42.6294136220396" lon="12.348977275044925"><ele>679.0</ele><time>2026-04-04T11:51:19.999Z</time></trkpt><trkpt lat="42.629472040699355" lon="12.348837466274865"><ele>679.0</ele><time>2026-04-04T11:51:21.999Z</time></trkpt><trkpt lat="42.62954217677549" lon="12.348715464502533"><ele>679.0</ele><time>2026-04-04T11:51:23.999Z</time></trkpt><trkpt lat="42.629618569387915" lon="12.348620267604051"><ele>679.0</ele><time>2026-04-04T11:51:26Z</time></trkpt><trkpt lat="42.62971858416608" lon="12.348564114028457"><ele>678.0</ele><time>2026-04-04T11:51:28Z</time></trkpt><trkpt lat="42.629798101395195" lon="12.34850340363011"><ele>677.0</ele><time>2026-04-04T11:51:30Z</time></trkpt><trkpt lat="42.629872901749444" lon="12.34845186826621"><ele>676.0</ele><time>2026-04-04T11:51:32Z</time></trkpt><trkpt lat="42.62996321365352" lon="12.348417207488591"><ele>675.0</ele><time>2026-04-04T11:51:34Z</time></trkpt><trkpt lat="42.630047704934476" lon="12.3483920861228"><ele>674.0</ele><time>2026-04-04T11:51:36Z</time></trkpt><trkpt lat="42.63014142521278" lon="12.348321302705726"><ele>674.0</ele><time>2026-04-04T11:51:38Z</time></trkpt><trkpt lat="42.63021837010267" lon="12.348250935017786"><ele>674.0</ele><time>2026-04-04T11:51:40Z</time></trkpt><trkpt lat="42.63029523277725" lon="12.348187253728245"><ele>674.0</ele><time>2026-04-04T11:51:42Z</time></trkpt><trkpt lat="42.6303386999999" lon="12.348115254634408"><ele>674.0</ele><time>2026-04-04T11:51:44Z</time></trkpt><trkpt lat="42.63041106530588" lon="12.348075599534411"><ele>674.0</ele><time>2026-04-04T11:51:45Z</time></trkpt><trkpt lat="42.63050005662638" lon="12.348009638354174"><ele>674.0</ele><time>2026-04-04T11:51:47Z</time></trkpt><trkpt lat="42.630577591607704" lon="12.347891843794136"><ele>673.6666666666666</ele><time>2026-04-04T11:51:49Z</time></trkpt><trkpt lat="42.63065937664765" lon="12.347808038686615"><ele>673.3333333333333</ele><time>2026-04-04T11:51:52Z</time></trkpt><trkpt lat="42.63075336965046" lon="12.347752444514645"><ele>673.0</ele><time>2026-04-04T11:51:54Z</time></trkpt><trkpt lat="42.63080388067309" lon="12.347700399586712"><ele>672.6666666666666</ele><time>2026-04-04T11:51:55Z</time></trkpt><trkpt lat="42.63086097406927" lon="12.347659933563007"><ele>672.3333333333334</ele><time>2026-04-04T11:51:56Z</time></trkpt><trkpt lat="42.630950470392875" lon="12.347642068189645"><ele>672.0</ele><time>2026-04-04T11:51:58Z</time></trkpt><trkpt lat="42.63109931912951" lon="12.347609493305907"><ele>669.8</ele><time>2026-04-04T11:52:01Z</time></trkpt><trkpt lat="42.63118543204709" lon="12.347578397309086"><ele>667.6</ele><time>2026-04-04T11:52:04Z</time></trkpt><trkpt lat="42.63124453103758" lon="12.347533565214654"><ele>665.4</ele><time>2026-04-04T11:52:05Z</time></trkpt><trkpt lat="42.63133464121777" lon="12.347461060699882"><ele>663.1999999999999</ele><time>2026-04-04T11:52:07Z</time></trkpt><trkpt lat="42.63142702281215" lon="12.347403695944466"><ele>661.0</ele><time>2026-04-04T11:52:09Z</time></trkpt><trkpt lat="42.63153216895334" lon="12.347375771569281"><ele>661.0</ele><time>2026-04-04T11:52:11Z</time></trkpt><trkpt lat="42.63164348476558" lon="12.347409468750104"><ele>661.0</ele><time>2026-04-04T11:52:13Z</time></trkpt><trkpt lat="42.631748111124786" lon="12.347447942064319"><ele>661.0</ele><time>2026-04-04T11:52:15Z</time></trkpt><trkpt lat="42.63181576916897" lon="12.347479160108536"><ele>661.0</ele><time>2026-04-04T11:52:16Z</time></trkpt><trkpt lat="42.631874555929194" lon="12.347526104142673"><ele>661.0</ele><time>2026-04-04T11:52:17Z</time></trkpt><trkpt lat="42.63198909808413" lon="12.347613217911213"><ele>662.5999999999999</ele><time>2026-04-04T11:52:19Z</time></trkpt><trkpt lat="42.63211223503674" lon="12.347674852784802"><ele>664.2</ele><time>2026-04-04T11:52:21Z</time></trkpt><trkpt lat="42.63217760315265" lon="12.347684005000493"><ele>665.8</ele><time>2026-04-04T11:52:22Z</time></trkpt><trkpt lat="42.63224100998765" lon="12.347693042450764"><ele>667.4000000000001</ele><time>2026-04-04T11:52:23Z</time></trkpt><trkpt lat="42.63234511704379" lon="12.347677099476126"><ele>669.0</ele><time>2026-04-04T11:52:25Z</time></trkpt><trkpt lat="42.63246906717697" lon="12.347748429030208"><ele>669.0</ele><time>2026-04-04T11:52:27Z</time></trkpt><trkpt lat="42.63252185210967" lon="12.34782952721403"><ele>669.0</ele><time>2026-04-04T11:52:28Z</time></trkpt><trkpt lat="42.632574060045286" lon="12.347901176726536"><ele>669.0</ele><time>2026-04-04T11:52:29Z</time></trkpt><trkpt lat="42.6326175708299" lon="12.347981960225829"><ele>669.0</ele><time>2026-04-04T11:52:30Z</time></trkpt><trkpt lat="42.63272775236857" lon="12.348097731576294"><ele>669.0</ele><time>2026-04-04T11:52:32Z</time></trkpt><trkpt lat="42.63279273010763" lon="12.348153433627475"><ele>669.0</ele><time>2026-04-04T11:52:33Z</time></trkpt><trkpt lat="42.632856998345765" lon="12.348205652370272"><ele>667.1428571428571</ele><time>2026-04-04T11:52:34Z</time></trkpt><trkpt lat="42.6329193990224" lon="12.348241995480636"><ele>665.2857142857142</ele><time>2026-04-04T11:52:35Z</time></trkpt><trkpt lat="42.63298265362089" lon="12.348277688543275"><ele>663.4285714285713</ele><time>2026-04-04T11:52:36Z</time></trkpt><trkpt lat="42.63305096033642" lon="12.348306784297352"><ele>661.5714285714286</ele><time>2026-04-04T11:52:37Z</time></trkpt><trkpt lat="42.63311957601066" lon="12.348331601607429"><ele>659.7142857142857</ele><time>2026-04-04T11:52:38Z</time></trkpt><trkpt lat="42.63318857450865" lon="12.348352396676644"><ele>657.8571428571428</ele><time>2026-04-04T11:52:39Z</time></trkpt><trkpt lat="42.63325215120143" lon="12.348370070691644"><ele>656.0</ele><time>2026-04-04T11:52:40Z</time></trkpt><trkpt lat="42.63331883979427" lon="12.34838057721306"><ele>656.0</ele><time>2026-04-04T11:52:41Z</time></trkpt><trkpt lat="42.633388630341436" lon="12.348374355877645"><ele>656.0</ele><time>2026-04-04T11:52:42Z</time></trkpt><trkpt lat="42.633466135012895" lon="12.34835765043574"><ele>656.0</ele><time>2026-04-04T11:52:43Z</time></trkpt><trkpt lat="42.63353988919234" lon="12.34832630590774"><ele>656.0</ele><time>2026-04-04T11:52:44Z</time></trkpt><trkpt lat="42.63361761984662" lon="12.348297596257586"><ele>656.0</ele><time>2026-04-04T11:52:45Z</time></trkpt><trkpt lat="42.63369137541755" lon="12.348265025782949"><ele>656.0</ele><time>2026-04-04T11:52:46Z</time></trkpt><trkpt lat="42.63376465347296" lon="12.34823916129393"><ele>656.8333333333333</ele><time>2026-04-04T11:52:47Z</time></trkpt><trkpt lat="42.633828639300106" lon="12.348215972934513"><ele>657.6666666666666</ele><time>2026-04-04T11:52:48Z</time></trkpt><trkpt lat="42.63389734582032" lon="12.348228636192456"><ele>658.5</ele><time>2026-04-04T11:52:49Z</time></trkpt><trkpt lat="42.63400739239649" lon="12.34831199737447"><ele>659.3333333333334</ele><time>2026-04-04T11:52:50.999Z</time></trkpt><trkpt lat="42.634055318634594" lon="12.348375648771519"><ele>660.1666666666667</ele><time>2026-04-04T11:52:51.999Z</time></trkpt><trkpt lat="42.634108209532236" lon="12.348427210379544"><ele>661.0</ele><time>2026-04-04T11:52:52.999Z</time></trkpt><trkpt lat="42.634175301738374" lon="12.348442108215664"><ele>661.0</ele><time>2026-04-04T11:52:53.999Z</time></trkpt><trkpt lat="42.634242230404" lon="12.348467200774952"><ele>661.0</ele><time>2026-04-04T11:52:54.999Z</time></trkpt><trkpt lat="42.634316381063506" lon="12.34850891167941"><ele>661.0</ele><time>2026-04-04T11:52:55.999Z</time></trkpt><trkpt lat="42.63439530425487" lon="12.348502781183772"><ele>661.0</ele><time>2026-04-04T11:52:56.999Z</time></trkpt><trkpt lat="42.634465355257944" lon="12.348483119810941"><ele>661.0</ele><time>2026-04-04T11:52:57.999Z</time></trkpt><trkpt lat="42.63453292901512" lon="12.348468599232381"><ele>661.0</ele><time>2026-04-04T11:52:58.999Z</time></trkpt><trkpt lat="42.63459968408706" lon="12.34844370204725"><ele>661.0</ele><time>2026-04-04T11:52:59.999Z</time></trkpt><trkpt lat="42.63467546917645" lon="12.348435438348622"><ele>663.5999999999999</ele><time>2026-04-04T11:53:00.999Z</time></trkpt><trkpt lat="42.63474180870055" lon="12.34843488704733"><ele>666.2</ele><time>2026-04-04T11:53:01.999Z</time></trkpt><trkpt lat="42.6348264812214" lon="12.348485681017122"><ele>668.8</ele><time>2026-04-04T11:53:03.999Z</time></trkpt><trkpt lat="42.634875258215644" lon="12.348548861650654"><ele>671.4000000000001</ele><time>2026-04-04T11:53:04.999Z</time></trkpt><trkpt lat="42.63503996700171" lon="12.34858530290226"><ele>674.0</ele><time>2026-04-04T11:53:06.999Z</time></trkpt><trkpt lat="42.635162573700185" lon="12.348641796572988"><ele>674.0</ele><time>2026-04-04T11:53:08.999Z</time></trkpt><trkpt lat="42.63524233451777" lon="12.348678932652897"><ele>674.0</ele><time>2026-04-04T11:53:09.999Z</time></trkpt><trkpt lat="42.6353237826558" lon="12.34871850620462"><ele>674.0</ele><time>2026-04-04T11:53:10.999Z</time></trkpt><trkpt lat="42.63540564095407" lon="12.348751381506462"><ele>674.0</ele><time>2026-04-04T11:53:11.999Z</time></trkpt><trkpt lat="42.635479375920326" lon="12.348784285178727"><ele>674.0</ele><time>2026-04-04T11:53:12.999Z</time></trkpt><trkpt lat="42.63555951003691" lon="12.348786368743658"><ele>674.0</ele><time>2026-04-04T11:53:13.999Z</time></trkpt><trkpt lat="42.635639002524755" lon="12.348818015935992"><ele>676.1666666666666</ele><time>2026-04-04T11:53:14.999Z</time></trkpt><trkpt lat="42.63573638428004" lon="12.348845500162705"><ele>678.3333333333333</ele><time>2026-04-04T11:53:15.999Z</time></trkpt><trkpt lat="42.635828052306536" lon="12.348858213900698"><ele>680.5</ele><time>2026-04-04T11:53:16.999Z</time></trkpt><trkpt lat="42.635920752556096" lon="12.34885497350043"><ele>682.6666666666666</ele><time>2026-04-04T11:53:17.999Z</time></trkpt><trkpt lat="42.6359921233431" lon="12.348841866192188"><ele>684.8333333333334</ele><time>2026-04-04T11:53:18.999Z</time></trkpt><trkpt lat="42.63605947846664" lon="12.348842377777782"><ele>687.0</ele><time>2026-04-04T11:53:19.999Z</time></trkpt><trkpt lat="42.636161470956" lon="12.348857471431288"><ele>687.75</ele><time>2026-04-04T11:53:21.999Z</time></trkpt><trkpt lat="42.63626920836977" lon="12.348873424969774"><ele>688.5</ele><time>2026-04-04T11:53:23.999Z</time></trkpt><trkpt lat="42.63638560231085" lon="12.348892808930309"><ele>689.25</ele><time>2026-04-04T11:53:25.999Z</time></trkpt><trkpt lat="42.63650896706949" lon="12.348920875239193"><ele>690.0</ele><time>2026-04-04T11:53:27.999Z</time></trkpt><trkpt lat="42.63664216112053" lon="12.348904475441488"><ele>690.0</ele><time>2026-04-04T11:53:29.999Z</time></trkpt><trkpt lat="42.63673162872681" lon="12.348840804297186"><ele>690.0</ele><time>2026-04-04T11:53:31.999Z</time></trkpt><trkpt lat="42.636823003442736" lon="12.348756409709774"><ele>690.0</ele><time>2026-04-04T11:53:33.999Z</time></trkpt><trkpt lat="42.63689253806714" lon="12.348625316200351"><ele>690.0</ele><time>2026-04-04T11:53:35.999Z</time></trkpt><trkpt lat="42.636946026928015" lon="12.348474993216444"><ele>687.6</ele><time>2026-04-04T11:53:37.999Z</time></trkpt><trkpt lat="42.63697971530763" lon="12.348324009743038"><ele>685.2</ele><time>2026-04-04T11:53:39.999Z</time></trkpt><trkpt lat="42.63705999545067" lon="12.348220670406075"><ele>682.8</ele><time>2026-04-04T11:53:41.999Z</time></trkpt><trkpt lat="42.63714261426494" lon="12.348160997557118"><ele>680.4</ele><time>2026-04-04T11:53:43.999Z</time></trkpt><trkpt lat="42.637250393532" lon="12.348105792092896"><ele>678.0</ele><time>2026-04-04T11:53:45.999Z</time></trkpt><trkpt lat="42.637318958924965" lon="12.348109126016924"><ele>678.0</ele><time>2026-04-04T11:53:46.999Z</time></trkpt><trkpt lat="42.63743623995695" lon="12.34809449266448"><ele>678.0</ele><time>2026-04-04T11:53:49Z</time></trkpt><trkpt lat="42.6375618244851" lon="12.348076972841445"><ele>678.0</ele><time>2026-04-04T11:53:51Z</time></trkpt><trkpt lat="42.637672686379425" lon="12.348041189974012"><ele>678.0</ele><time>2026-04-04T11:53:53Z</time></trkpt><trkpt lat="42.63777329791669" lon="12.34799011679959"><ele>680.8</ele><time>2026-04-04T11:53:55Z</time></trkpt><trkpt lat="42.63783798179099" lon="12.347913452407386"><ele>683.5999999999999</ele><time>2026-04-04T11:53:57Z</time></trkpt><trkpt lat="42.63788777317327" lon="12.34780720839928"><ele>686.4000000000001</ele><time>2026-04-04T11:53:59Z</time></trkpt><trkpt lat="42.63794506523066" lon="12.34771495096452"><ele>689.2</ele><time>2026-04-04T11:54:01Z</time></trkpt><trkpt lat="42.63799327883081" lon="12.347607457163695"><ele>692.0</ele><time>2026-04-04T11:54:03Z</time></trkpt><trkpt lat="42.6380841351877" lon="12.347523832438359"><ele>692.0</ele><time>2026-04-04T11:54:05Z</time></trkpt><trkpt lat="42.63818969866908" lon="12.347456111464592"><ele>692.0</ele><time>2026-04-04T11:54:07Z</time></trkpt><trkpt lat="42.638301712660045" lon="12.347399788400596"><ele>692.0</ele><time>2026-04-04T11:54:09Z</time></trkpt><trkpt lat="42.638401123851374" lon="12.347389936101935"><ele>692.0</ele><time>2026-04-04T11:54:11Z</time></trkpt><trkpt lat="42.63846412622197" lon="12.347400135593194"><ele>692.0</ele><time>2026-04-04T11:54:13Z</time></trkpt><trkpt lat="42.63854766602648" lon="12.347385544152127"><ele>691.4000000000001</ele><time>2026-04-04T11:54:14Z</time></trkpt><trkpt lat="42.63865340368151" lon="12.347353620641455"><ele>690.8000000000001</ele><time>2026-04-04T11:54:16Z</time></trkpt><trkpt lat="42.638726370687834" lon="12.34733205281283"><ele>690.2</ele><time>2026-04-04T11:54:18Z</time></trkpt><trkpt lat="42.63877989892301" lon="12.347221464815851"><ele>689.6</ele><time>2026-04-04T11:54:20Z</time></trkpt><trkpt lat="42.63878383465519" lon="12.347050131062423"><ele>689.0</ele><time>2026-04-04T11:54:22Z</time></trkpt><trkpt lat="42.63880280144559" lon="12.346898715995085"><ele>689.0</ele><time>2026-04-04T11:54:24Z</time></trkpt><trkpt lat="42.63878747114932" lon="12.346758950135015"><ele>689.0</ele><time>2026-04-04T11:54:26Z</time></trkpt><trkpt lat="42.63881699681784" lon="12.34662359911285"><ele>689.0</ele><time>2026-04-04T11:54:28Z</time></trkpt><trkpt lat="42.63884580306613" lon="12.346461457235392"><ele>689.0</ele><time>2026-04-04T11:54:30Z</time></trkpt><trkpt lat="42.638858180198824" lon="12.346295922729"><ele>690.4285714285714</ele><time>2026-04-04T11:54:32Z</time></trkpt><trkpt lat="42.63886329470094" lon="12.346207952579212"><ele>691.8571428571429</ele><time>2026-04-04T11:54:33Z</time></trkpt><trkpt lat="42.63889335703623" lon="12.346130452738569"><ele>693.2857142857142</ele><time>2026-04-04T11:54:34Z</time></trkpt><trkpt lat="42.6389259450772" lon="12.346044026607817"><ele>694.7142857142858</ele><time>2026-04-04T11:54:35Z</time></trkpt><trkpt lat="42.63895376774904" lon="12.345960398580877"><ele>696.1428571428572</ele><time>2026-04-04T11:54:36Z</time></trkpt><trkpt lat="42.638983057093576" lon="12.345881380334527"><ele>697.5714285714286</ele><time>2026-04-04T11:54:37Z</time></trkpt><trkpt lat="42.6390142475521" lon="12.3457897074365"><ele>699.0</ele><time>2026-04-04T11:54:38Z</time></trkpt><trkpt lat="42.639059151576646" lon="12.345723602558522"><ele>699.0</ele><time>2026-04-04T11:54:39Z</time></trkpt><trkpt lat="42.639107140961016" lon="12.345655033467096"><ele>699.0</ele><time>2026-04-04T11:54:40Z</time></trkpt><trkpt lat="42.6391552706533" lon="12.345581777081897"><ele>699.0</ele><time>2026-04-04T11:54:41Z</time></trkpt><trkpt lat="42.639200061236544" lon="12.345517292434833"><ele>699.0</ele><time>2026-04-04T11:54:42Z</time></trkpt><trkpt lat="42.63927815677668" lon="12.345386664692091"><ele>699.0</ele><time>2026-04-04T11:54:44Z</time></trkpt><trkpt lat="42.639330427839525" lon="12.345248562399904"><ele>699.0</ele><time>2026-04-04T11:54:46Z</time></trkpt><trkpt lat="42.63936511240428" lon="12.345120196858065"><ele>701.4000000000001</ele><time>2026-04-04T11:54:48Z</time></trkpt><trkpt lat="42.63934925218389" lon="12.344967938692662"><ele>703.8</ele><time>2026-04-04T11:54:50Z</time></trkpt><trkpt lat="42.63932415227824" lon="12.344823137749357"><ele>706.2</ele><time>2026-04-04T11:54:52Z</time></trkpt><trkpt lat="42.639324866647144" lon="12.34470778323947"><ele>708.5999999999999</ele><time>2026-04-04T11:54:54Z</time></trkpt><trkpt lat="42.6393143386039" lon="12.344556335809246"><ele>711.0</ele><time>2026-04-04T11:54:56Z</time></trkpt><trkpt lat="42.639316785075735" lon="12.344421347627698"><ele>710.1999999999999</ele><time>2026-04-04T11:54:58Z</time></trkpt><trkpt lat="42.63930545308899" lon="12.344283606632413"><ele>709.4</ele><time>2026-04-04T11:55:00Z</time></trkpt><trkpt lat="42.63929645421019" lon="12.344132045439444"><ele>708.6</ele><time>2026-04-04T11:55:02Z</time></trkpt><trkpt lat="42.63929412107594" lon="12.34398737158512"><ele>707.8</ele><time>2026-04-04T11:55:04Z</time></trkpt><trkpt lat="42.639366687421486" lon="12.343851034085134"><ele>707.0</ele><time>2026-04-04T11:55:06Z</time></trkpt><trkpt lat="42.639476939774276" lon="12.343764232651488"><ele>707.0</ele><time>2026-04-04T11:55:08Z</time></trkpt><trkpt lat="42.63959077497964" lon="12.343730249355701"><ele>707.0</ele><time>2026-04-04T11:55:10Z</time></trkpt><trkpt lat="42.639696477246325" lon="12.343631324856993"><ele>707.0</ele><time>2026-04-04T11:55:12Z</time></trkpt><trkpt lat="42.639768405527725" lon="12.343609613007409"><ele>707.0</ele><time>2026-04-04T11:55:13Z</time></trkpt><trkpt lat="42.63988811135786" lon="12.343587432652892"><ele>707.0</ele><time>2026-04-04T11:55:15Z</time></trkpt><trkpt lat="42.63995085156121" lon="12.343569256297075"><ele>707.0</ele><time>2026-04-04T11:55:16Z</time></trkpt><trkpt lat="42.64001933895739" lon="12.34355555339973"><ele>707.0</ele><time>2026-04-04T11:55:17Z</time></trkpt><trkpt lat="42.64008168702611" lon="12.343539073309529"><ele>707.0</ele><time>2026-04-04T11:55:18Z</time></trkpt><trkpt lat="42.640187943387104" lon="12.343515023323421"><ele>707.0</ele><time>2026-04-04T11:55:20Z</time></trkpt><trkpt lat="42.64028970339801" lon="12.34347247073912"><ele>707.0</ele><time>2026-04-04T11:55:22Z</time></trkpt><trkpt lat="42.64037850577513" lon="12.34341607273956"><ele>707.0</ele><time>2026-04-04T11:55:24Z</time></trkpt><trkpt lat="42.64046406831674" lon="12.343348327697846"><ele>705.1666666666666</ele><time>2026-04-04T11:55:26Z</time></trkpt><trkpt lat="42.64049603142281" lon="12.343225498525678"><ele>703.3333333333333</ele><time>2026-04-04T11:55:28Z</time></trkpt><trkpt lat="42.64051094863507" lon="12.343122263195351"><ele>701.5</ele><time>2026-04-04T11:55:30Z</time></trkpt><trkpt lat="42.64054042048711" lon="12.343004141089406"><ele>699.6666666666666</ele><time>2026-04-04T11:55:32Z</time></trkpt><trkpt lat="42.64057226002608" lon="12.342897317897691"><ele>697.8333333333334</ele><time>2026-04-04T11:55:33.999Z</time></trkpt><trkpt lat="42.64060720216247" lon="12.342824546771128"><ele>696.0</ele><time>2026-04-04T11:55:35.999Z</time></trkpt><trkpt lat="42.640632637114706" lon="12.34270991532055"><ele>696.0</ele><time>2026-04-04T11:55:38.999Z</time></trkpt><trkpt lat="42.640678525293644" lon="12.342609268390428"><ele>696.0</ele><time>2026-04-04T11:55:40.999Z</time></trkpt><trkpt lat="42.64070996794097" lon="12.342534751306516"><ele>696.0</ele><time>2026-04-04T11:55:42.999Z</time></trkpt><trkpt lat="42.640782835044206" lon="12.34249500567454"><ele>696.0</ele><time>2026-04-04T11:55:44.999Z</time></trkpt><trkpt lat="42.640896223777524" lon="12.342506907369117"><ele>696.0</ele><time>2026-04-04T11:55:47.999Z</time></trkpt><trkpt lat="42.640959841419466" lon="12.34252626688967"><ele>696.0</ele><time>2026-04-04T11:55:48.999Z</time></trkpt><trkpt lat="42.64107531704389" lon="12.342543692772301"><ele>695.4</ele><time>2026-04-04T11:55:50.999Z</time></trkpt><trkpt lat="42.64118509056891" lon="12.342528244499052"><ele>694.8</ele><time>2026-04-04T11:55:52.999Z</time></trkpt><trkpt lat="42.64128176174968" lon="12.342465713489476"><ele>694.1999999999999</ele><time>2026-04-04T11:55:55Z</time></trkpt><trkpt lat="42.64132726430453" lon="12.342362463650188"><ele>693.5999999999999</ele><time>2026-04-04T11:55:57Z</time></trkpt><trkpt lat="42.64134231032416" lon="12.342234158066749"><ele>693.0</ele><time>2026-04-04T11:55:59Z</time></trkpt><trkpt lat="42.64134693257623" lon="12.342127723129591"><ele>693.0</ele><time>2026-04-04T11:56:01Z</time></trkpt><trkpt lat="42.6413794060309" lon="12.34204752231507"><ele>693.0</ele><time>2026-04-04T11:56:03Z</time></trkpt><trkpt lat="42.64146839441694" lon="12.341956686635875"><ele>693.0</ele><time>2026-04-04T11:56:05Z</time></trkpt><trkpt lat="42.64158494269023" lon="12.34193830276604"><ele>693.0</ele><time>2026-04-04T11:56:07Z</time></trkpt><trkpt lat="42.641683922312616" lon="12.34198353678243"><ele>693.0</ele><time>2026-04-04T11:56:09Z</time></trkpt><trkpt lat="42.641761475596375" lon="12.342028839711904"><ele>693.0</ele><time>2026-04-04T11:56:11Z</time></trkpt><trkpt lat="42.641835954088684" lon="12.342073782063771"><ele>693.0</ele><time>2026-04-04T11:56:13Z</time></trkpt><trkpt lat="42.64192073333364" lon="12.342114654693487"><ele>693.0</ele><time>2026-04-04T11:56:15Z</time></trkpt><trkpt lat="42.642008703348814" lon="12.34216095571595"><ele>693.0</ele><time>2026-04-04T11:56:17Z</time></trkpt><trkpt lat="42.642098776087636" lon="12.342214281979397"><ele>693.0</ele><time>2026-04-04T11:56:19Z</time></trkpt><trkpt lat="42.64220040545023" lon="12.342279921983733"><ele>687.5</ele><time>2026-04-04T11:56:21Z</time></trkpt><trkpt lat="42.64230308808572" lon="12.342356527629555"><ele>682.0</ele><time>2026-04-04T11:56:23Z</time></trkpt><trkpt lat="42.642358701888504" lon="12.342398308018424"><ele>676.5</ele><time>2026-04-04T11:56:24Z</time></trkpt><trkpt lat="42.642417469893644" lon="12.342446015768703"><ele>671.0</ele><time>2026-04-04T11:56:25Z</time></trkpt><trkpt lat="42.64247630521534" lon="12.34250389462391"><ele>665.5</ele><time>2026-04-04T11:56:26Z</time></trkpt><trkpt lat="42.6425375044474" lon="12.342544054547039"><ele>660.0</ele><time>2026-04-04T11:56:27Z</time></trkpt><trkpt lat="42.6426494826129" lon="12.342606623978657"><ele>660.0</ele><time>2026-04-04T11:56:29Z</time></trkpt><trkpt lat="42.64276410769113" lon="12.342631063951005"><ele>660.0</ele><time>2026-04-04T11:56:31Z</time></trkpt><trkpt lat="42.6428650418858" lon="12.342652700862836"><ele>660.0</ele><time>2026-04-04T11:56:33Z</time></trkpt><trkpt lat="42.64295204083384" lon="12.342690973086949"><ele>660.0</ele><time>2026-04-04T11:56:35Z</time></trkpt><trkpt lat="42.64304170412195" lon="12.34271495668627"><ele>660.0</ele><time>2026-04-04T11:56:37Z</time></trkpt><trkpt lat="42.643126589454994" lon="12.342747799548452"><ele>659.6666666666666</ele><time>2026-04-04T11:56:39Z</time></trkpt><trkpt lat="42.64320997452979" lon="12.34275019961153"><ele>659.3333333333334</ele><time>2026-04-04T11:56:41Z</time></trkpt><trkpt lat="42.64329421242053" lon="12.34275707167675"><ele>659.0</ele><time>2026-04-04T11:56:43Z</time></trkpt><trkpt lat="42.64335861142024" lon="12.342766473609645"><ele>658.6666666666667</ele><time>2026-04-04T11:56:45Z</time></trkpt><trkpt lat="42.64345582661266" lon="12.342788417196887"><ele>658.3333333333334</ele><time>2026-04-04T11:56:48Z</time></trkpt><trkpt lat="42.64352633742351" lon="12.342790722554875"><ele>658.0</ele><time>2026-04-04T11:56:50Z</time></trkpt><trkpt lat="42.64360345010429" lon="12.342810157123045"><ele>656.7142857142857</ele><time>2026-04-04T11:56:53Z</time></trkpt><trkpt lat="42.64367537186438" lon="12.342839664724258"><ele>655.4285714285714</ele><time>2026-04-04T11:56:56Z</time></trkpt><trkpt lat="42.643742905563016" lon="12.342875918038297"><ele>654.1428571428571</ele><time>2026-04-04T11:56:59Z</time></trkpt><trkpt lat="42.64380902397673" lon="12.342903433603796"><ele>652.8571428571429</ele><time>2026-04-04T11:57:03Z</time></trkpt><trkpt lat="42.64387273848757" lon="12.342914083716732"><ele>651.5714285714286</ele><time>2026-04-04T11:57:06Z</time></trkpt><trkpt lat="42.64395067041435" lon="12.34293187965229"><ele>650.2857142857142</ele><time>2026-04-04T11:57:09Z</time></trkpt><trkpt lat="42.6440187514639" lon="12.342941720726792"><ele>649.0</ele><time>2026-04-04T11:57:12Z</time></trkpt><trkpt lat="42.64408174136232" lon="12.342970763379869"><ele>644.3333333333334</ele><time>2026-04-04T11:57:17Z</time></trkpt><trkpt lat="42.644116757761054" lon="12.343085279370987"><ele>639.6666666666667</ele><time>2026-04-04T11:57:34Z</time></trkpt><trkpt lat="42.64418316014547" lon="12.343117147678077"><ele>635.0</ele><time>2026-04-04T11:57:38Z</time></trkpt><trkpt lat="42.644254757617155" lon="12.34312029048551"><ele>630.3333333333334</ele><time>2026-04-04T11:57:41.999Z</time></trkpt><trkpt lat="42.6442709169719" lon="12.343204400456587"><ele>625.6666666666666</ele><time>2026-04-04T11:57:43.999Z</time></trkpt><trkpt lat="42.64425620172063" lon="12.343325549798903"><ele>621.0</ele><time>2026-04-04T11:57:45.999Z</time></trkpt><trkpt lat="42.6442578248878" lon="12.34343015918915"><ele>621.0</ele><time>2026-04-04T11:57:47.999Z</time></trkpt><trkpt lat="42.64425576299481" lon="12.343525102699854"><ele>621.0</ele><time>2026-04-04T11:57:49.999Z</time></trkpt><trkpt lat="42.64428041952693" lon="12.343616104464717"><ele>621.0</ele><time>2026-04-04T11:57:53.999Z</time></trkpt><trkpt lat="42.64436877066668" lon="12.343632074580745"><ele>621.0</ele><time>2026-04-04T11:57:57Z</time></trkpt><trkpt lat="42.64443877164578" lon="12.343669625196227"><ele>621.0</ele><time>2026-04-04T11:58:00Z</time></trkpt><trkpt lat="42.64433544384724" lon="12.343632271356043"><ele>621.0</ele><time>2026-04-04T11:58:09Z</time></trkpt><trkpt lat="42.644271907515225" lon="12.343579858385159"><ele>621.0</ele><time>2026-04-04T11:58:11Z</time></trkpt><trkpt lat="42.644268507890196" lon="12.343492745623555"><ele>621.0</ele><time>2026-04-04T11:58:13Z</time></trkpt><trkpt lat="42.64427053484926" lon="12.343393780708833"><ele>621.0</ele><time>2026-04-04T11:58:15Z</time></trkpt><trkpt lat="42.64426944149338" lon="12.343245482509552"><ele>621.0</ele><time>2026-04-04T11:58:17Z</time></trkpt><trkpt lat="42.64424819970226" lon="12.343140112720734"><ele>621.0</ele><time>2026-04-04T11:58:19Z</time></trkpt><trkpt lat="42.64418063662682" lon="12.34313172968472"><ele>621.0</ele><time>2026-04-04T11:58:21Z</time></trkpt><trkpt lat="42.64407072461716" lon="12.343140583974394"><ele>621.0</ele><time>2026-04-04T11:58:23Z</time></trkpt><trkpt lat="42.64400173317473" lon="12.343135291159495"><ele>621.0</ele><time>2026-04-04T11:58:24Z</time></trkpt><trkpt lat="42.6439241111674" lon="12.34312982372928"><ele>621.0</ele><time>2026-04-04T11:58:25Z</time></trkpt><trkpt lat="42.6438497200343" lon="12.343127276352835"><ele>621.0</ele><time>2026-04-04T11:58:26Z</time></trkpt><trkpt lat="42.6437822072271" lon="12.34313502172495"><ele>621.0</ele><time>2026-04-04T11:58:27Z</time></trkpt><trkpt lat="42.64365591975182" lon="12.343168419009594"><ele>621.0</ele><time>2026-04-04T11:58:28Z</time></trkpt><trkpt lat="42.64355669024286" lon="12.343221169639712"><ele>621.6666666666666</ele><time>2026-04-04T11:58:29Z</time></trkpt><trkpt lat="42.64346277382182" lon="12.343241562423785"><ele>622.3333333333334</ele><time>2026-04-04T11:58:30Z</time></trkpt><trkpt lat="42.64338926965368" lon="12.343305463940492"><ele>623.0</ele><time>2026-04-04T11:58:31Z</time></trkpt><trkpt lat="42.64332076591175" lon="12.343350148717656"><ele>623.6666666666667</ele><time>2026-04-04T11:58:32Z</time></trkpt><trkpt lat="42.6432540201946" lon="12.34337573297576"><ele>624.3333333333334</ele><time>2026-04-04T11:58:33Z</time></trkpt><trkpt lat="42.64317571321015" lon="12.343397828737352"><ele>625.0</ele><time>2026-04-04T11:58:34Z</time></trkpt><trkpt lat="42.64309823199569" lon="12.3434145706029"><ele>625.0</ele><time>2026-04-04T11:58:35Z</time></trkpt><trkpt lat="42.643025192245595" lon="12.34342920049002"><ele>625.0</ele><time>2026-04-04T11:58:36Z</time></trkpt><trkpt lat="42.64294568534591" lon="12.343464672680586"><ele>625.0</ele><time>2026-04-04T11:58:37Z</time></trkpt><trkpt lat="42.64285058680125" lon="12.3434725443095"><ele>625.0</ele><time>2026-04-04T11:58:38Z</time></trkpt><trkpt lat="42.6427509404603" lon="12.343488628446769"><ele>625.0</ele><time>2026-04-04T11:58:39Z</time></trkpt><trkpt lat="42.64266025646144" lon="12.34349550688884"><ele>625.0</ele><time>2026-04-04T11:58:40Z</time></trkpt><trkpt lat="42.64256642613559" lon="12.343536384510195"><ele>626.2</ele><time>2026-04-04T11:58:41Z</time></trkpt><trkpt lat="42.642475892156575" lon="12.343609253715067"><ele>627.4</ele><time>2026-04-04T11:58:42Z</time></trkpt><trkpt lat="42.64240847085144" lon="12.343730449280969"><ele>628.6</ele><time>2026-04-04T11:58:43Z</time></trkpt><trkpt lat="42.642346882168454" lon="12.343851387253927"><ele>629.8</ele><time>2026-04-04T11:58:44Z</time></trkpt><trkpt lat="42.642301956456954" lon="12.343973918082723"><ele>631.0</ele><time>2026-04-04T11:58:45Z</time></trkpt><trkpt lat="42.64226496161729" lon="12.34407972848686"><ele>627.5</ele><time>2026-04-04T11:58:46Z</time></trkpt><trkpt lat="42.64223542739676" lon="12.344179941017448"><ele>624.0</ele><time>2026-04-04T11:58:47Z</time></trkpt><trkpt lat="42.64222209260015" lon="12.34426463313297"><ele>620.5</ele><time>2026-04-04T11:58:48Z</time></trkpt><trkpt lat="42.642236109874005" lon="12.34435800821874"><ele>617.0</ele><time>2026-04-04T11:58:49Z</time></trkpt><trkpt lat="42.64229563502025" lon="12.344425046045885"><ele>613.5</ele><time>2026-04-04T11:58:50Z</time></trkpt><trkpt lat="42.64239087663226" lon="12.344399897980123"><ele>610.0</ele><time>2026-04-04T11:58:51Z</time></trkpt><trkpt lat="42.642460153605064" lon="12.344443061772314"><ele>610.0</ele><time>2026-04-04T11:58:52Z</time></trkpt><trkpt lat="42.642526080682316" lon="12.344473759766075"><ele>610.0</ele><time>2026-04-04T11:58:53Z</time></trkpt><trkpt lat="42.64263023884125" lon="12.344535404484903"><ele>610.0</ele><time>2026-04-04T11:58:55Z</time></trkpt><trkpt lat="42.642699460826016" lon="12.34459029993666"><ele>610.0</ele><time>2026-04-04T11:58:57Z</time></trkpt><trkpt lat="42.64262542183632" lon="12.344724576012869"><ele>610.0</ele><time>2026-04-04T11:58:59Z</time></trkpt><trkpt lat="42.64257405435718" lon="12.344796910771414"><ele>608.4</ele><time>2026-04-04T11:59:00Z</time></trkpt><trkpt lat="42.64251494466712" lon="12.344890739728404"><ele>606.8</ele><time>2026-04-04T11:59:01Z</time></trkpt><trkpt lat="42.64245165323699" lon="12.34499376931747"><ele>605.2</ele><time>2026-04-04T11:59:02Z</time></trkpt><trkpt lat="42.64238495387209" lon="12.345121798604776"><ele>603.6</ele><time>2026-04-04T11:59:03Z</time></trkpt><trkpt lat="42.642316862021644" lon="12.345255490346895"><ele>602.0</ele><time>2026-04-04T11:59:04Z</time></trkpt><trkpt lat="42.642258388290806" lon="12.345386563232475"><ele>602.0</ele><time>2026-04-04T11:59:05Z</time></trkpt><trkpt lat="42.642194851792034" lon="12.345487414684507"><ele>602.0</ele><time>2026-04-04T11:59:06Z</time></trkpt><trkpt lat="42.6421456722797" lon="12.345576498848487"><ele>602.0</ele><time>2026-04-04T11:59:07Z</time></trkpt><trkpt lat="42.642104421652846" lon="12.345652611383702"><ele>602.0</ele><time>2026-04-04T11:59:08Z</time></trkpt><trkpt lat="42.642067789792875" lon="12.345770812138296"><ele>602.0</ele><time>2026-04-04T11:59:10Z</time></trkpt><trkpt lat="42.64213128161464" lon="12.345887235868286"><ele>601.6666666666666</ele><time>2026-04-04T11:59:12Z</time></trkpt><trkpt lat="42.64221930984976" lon="12.345861398994593"><ele>601.3333333333333</ele><time>2026-04-04T11:59:13Z</time></trkpt><trkpt lat="42.642294060785446" lon="12.345799979360928"><ele>601.0</ele><time>2026-04-04T11:59:14Z</time></trkpt><trkpt lat="42.642367650888296" lon="12.345740957791472"><ele>600.6666666666666</ele><time>2026-04-04T11:59:15Z</time></trkpt><trkpt lat="42.64244481728676" lon="12.345679206265553"><ele>600.3333333333334</ele><time>2026-04-04T11:59:16Z</time></trkpt><trkpt lat="42.64251971798967" lon="12.34560041444522"><ele>600.0</ele><time>2026-04-04T11:59:17Z</time></trkpt><trkpt lat="42.6425970808607" lon="12.345553218247629"><ele>600.3333333333334</ele><time>2026-04-04T11:59:18Z</time></trkpt><trkpt lat="42.64267612395704" lon="12.34551790113899"><ele>600.6666666666666</ele><time>2026-04-04T11:59:19Z</time></trkpt><trkpt lat="42.64276298115224" lon="12.345503315850294"><ele>601.0</ele><time>2026-04-04T11:59:20Z</time></trkpt><trkpt lat="42.64284549921339" lon="12.34545705605931"><ele>601.3333333333333</ele><time>2026-04-04T11:59:21Z</time></trkpt><trkpt lat="42.64293958864581" lon="12.3454375367913"><ele>601.6666666666666</ele><time>2026-04-04T11:59:22Z</time></trkpt><trkpt lat="42.64303280792722" lon="12.345430652450432"><ele>602.0</ele><time>2026-04-04T11:59:23Z</time></trkpt><trkpt lat="42.64311015624883" lon="12.345438796869216"><ele>598.2</ele><time>2026-04-04T11:59:24Z</time></trkpt><trkpt lat="42.64321314416733" lon="12.345448050066567"><ele>594.4000000000001</ele><time>2026-04-04T11:59:25Z</time></trkpt><trkpt lat="42.64329501942611" lon="12.345452012956626"><ele>590.5999999999999</ele><time>2026-04-04T11:59:26Z</time></trkpt><trkpt lat="42.64341653371083" lon="12.345467253909876"><ele>586.8</ele><time>2026-04-04T11:59:28Z</time></trkpt><trkpt lat="42.64349917370553" lon="12.345410046654095"><ele>583.0</ele><time>2026-04-04T11:59:30Z</time></trkpt><trkpt lat="42.643566196942416" lon="12.34539541967817"><ele>583.0</ele><time>2026-04-04T11:59:33Z</time></trkpt><trkpt lat="42.643551876526985" lon="12.345507821287578"><ele>583.0</ele><time>2026-04-04T11:59:34Z</time></trkpt><trkpt lat="42.64354867061239" lon="12.345677440655576"><ele>583.0</ele><time>2026-04-04T11:59:36Z</time></trkpt><trkpt lat="42.64353914972957" lon="12.34577145679452"><ele>583.0</ele><time>2026-04-04T11:59:37Z</time></trkpt><trkpt lat="42.64355053531521" lon="12.345867801848959"><ele>583.0</ele><time>2026-04-04T11:59:38Z</time></trkpt><trkpt lat="42.64356646306763" lon="12.345970860991224"><ele>583.0</ele><time>2026-04-04T11:59:39Z</time></trkpt><trkpt lat="42.643607430754194" lon="12.34604721925624"><ele>579.4</ele><time>2026-04-04T11:59:40Z</time></trkpt><trkpt lat="42.64369418258563" lon="12.34616160491669"><ele>575.8</ele><time>2026-04-04T11:59:42Z</time></trkpt><trkpt lat="42.64377784317538" lon="12.346271562444297"><ele>572.2</ele><time>2026-04-04T11:59:44Z</time></trkpt><trkpt lat="42.643828615974805" lon="12.34634788971209"><ele>568.6</ele><time>2026-04-04T11:59:44.999Z</time></trkpt><trkpt lat="42.64388628292539" lon="12.346437299467778"><ele>565.0</ele><time>2026-04-04T11:59:45.999Z</time></trkpt><trkpt lat="42.64394593888574" lon="12.346532424316024"><ele>565.0</ele><time>2026-04-04T11:59:46.999Z</time></trkpt><trkpt lat="42.644018889627866" lon="12.346625320487993"><ele>565.0</ele><time>2026-04-04T11:59:47.999Z</time></trkpt><trkpt lat="42.6440611637955" lon="12.34674954340767"><ele>565.0</ele><time>2026-04-04T11:59:48.999Z</time></trkpt><trkpt lat="42.6441219007116" lon="12.346893246621962"><ele>565.0</ele><time>2026-04-04T11:59:49.999Z</time></trkpt><trkpt lat="42.644187465223375" lon="12.347028167690386"><ele>565.0</ele><time>2026-04-04T11:59:50.999Z</time></trkpt><trkpt lat="42.644237044556704" lon="12.347179357226736"><ele>567.5</ele><time>2026-04-04T11:59:51.999Z</time></trkpt><trkpt lat="42.644269877755605" lon="12.34734199695353"><ele>570.0</ele><time>2026-04-04T11:59:52.999Z</time></trkpt><trkpt lat="42.64432086643523" lon="12.347485371769304"><ele>572.5</ele><time>2026-04-04T11:59:53.999Z</time></trkpt><trkpt lat="42.64435802619146" lon="12.347639981173906"><ele>575.0</ele><time>2026-04-04T11:59:54.999Z</time></trkpt><trkpt lat="42.644391264506545" lon="12.347786894401729"><ele>575.0</ele><time>2026-04-04T11:59:55.999Z</time></trkpt><trkpt lat="42.64443206847824" lon="12.347922227198112"><ele>575.0</ele><time>2026-04-04T11:59:56.999Z</time></trkpt><trkpt lat="42.644486444853115" lon="12.348047769589591"><ele>575.0</ele><time>2026-04-04T11:59:57.999Z</time></trkpt><trkpt lat="42.64454908152784" lon="12.348161617509389"><ele>575.0</ele><time>2026-04-04T11:59:58.999Z</time></trkpt><trkpt lat="42.644610556330655" lon="12.348266779937475"><ele>575.0</ele><time>2026-04-04T11:59:59.999Z</time></trkpt><trkpt lat="42.644656129021875" lon="12.348376298333255"><ele>571.0</ele><time>2026-04-04T12:00:00.999Z</time></trkpt><trkpt lat="42.64468723865562" lon="12.348510095654"><ele>567.0</ele><time>2026-04-04T12:00:01.999Z</time></trkpt><trkpt lat="42.644695977231805" lon="12.348664793957349"><ele>563.0</ele><time>2026-04-04T12:00:03Z</time></trkpt><trkpt lat="42.644697282151476" lon="12.348820348819471"><ele>559.0</ele><time>2026-04-04T12:00:04Z</time></trkpt><trkpt lat="42.64469833632953" lon="12.34897651797878"><ele>555.0</ele><time>2026-04-04T12:00:05Z</time></trkpt><trkpt lat="42.64470952199641" lon="12.349132726328982"><ele>555.0</ele><time>2026-04-04T12:00:06Z</time></trkpt><trkpt lat="42.64474345832966" lon="12.349289865456825"><ele>555.0</ele><time>2026-04-04T12:00:07Z</time></trkpt><trkpt lat="42.644787049216994" lon="12.349438742853224"><ele>555.0</ele><time>2026-04-04T12:00:08Z</time></trkpt><trkpt lat="42.64483441118931" lon="12.349582284923816"><ele>555.0</ele><time>2026-04-04T12:00:09Z</time></trkpt><trkpt lat="42.64487098050497" lon="12.349724998603499"><ele>555.2</ele><time>2026-04-04T12:00:10Z</time></trkpt><trkpt lat="42.644913681269365" lon="12.349863535914398"><ele>555.4</ele><time>2026-04-04T12:00:11Z</time></trkpt><trkpt lat="42.64494039554313" lon="12.34999291852377"><ele>555.6</ele><time>2026-04-04T12:00:12Z</time></trkpt><trkpt lat="42.64497256579764" lon="12.350120436288792"><ele>555.8</ele><time>2026-04-04T12:00:13Z</time></trkpt><trkpt lat="42.64498650354924" lon="12.350250132268462"><ele>556.0</ele><time>2026-04-04T12:00:14Z</time></trkpt><trkpt lat="42.644993744168424" lon="12.35037833289308"><ele>556.0</ele><time>2026-04-04T12:00:15Z</time></trkpt><trkpt lat="42.64496217781486" lon="12.35050793989331"><ele>556.0</ele><time>2026-04-04T12:00:16Z</time></trkpt><trkpt lat="42.64494009644816" lon="12.350640530549079"><ele>556.0</ele><time>2026-04-04T12:00:17Z</time></trkpt><trkpt lat="42.644912940953674" lon="12.350771371121109"><ele>556.0</ele><time>2026-04-04T12:00:18Z</time></trkpt><trkpt lat="42.644881493720966" lon="12.350910159140849"><ele>556.0</ele><time>2026-04-04T12:00:19Z</time></trkpt><trkpt lat="42.6448593487957" lon="12.351057573661265"><ele>554.8</ele><time>2026-04-04T12:00:20Z</time></trkpt><trkpt lat="42.644811882273544" lon="12.351203157726125"><ele>553.6</ele><time>2026-04-04T12:00:21Z</time></trkpt><trkpt lat="42.64474293933292" lon="12.3513324567316"><ele>552.4</ele><time>2026-04-04T12:00:22Z</time></trkpt><trkpt lat="42.6446842193375" lon="12.351457055073844"><ele>551.2</ele><time>2026-04-04T12:00:23Z</time></trkpt><trkpt lat="42.64461957866407" lon="12.351563603935526"><ele>550.0</ele><time>2026-04-04T12:00:24Z</time></trkpt><trkpt lat="42.64454776012167" lon="12.351642045245415"><ele>552.6</ele><time>2026-04-04T12:00:25Z</time></trkpt><trkpt lat="42.64446856621765" lon="12.3517166247342"><ele>555.2</ele><time>2026-04-04T12:00:26Z</time></trkpt><trkpt lat="42.644408952398145" lon="12.351773012126234"><ele>557.8</ele><time>2026-04-04T12:00:27Z</time></trkpt><trkpt lat="42.64435940645348" lon="12.3518303492964"><ele>560.4</ele><time>2026-04-04T12:00:28Z</time></trkpt><trkpt lat="42.64434023324493" lon="12.351990981931557"><ele>563.0</ele><time>2026-04-04T12:00:30Z</time></trkpt><trkpt lat="42.64439418557112" lon="12.352101488594544"><ele>556.25</ele><time>2026-04-04T12:00:32Z</time></trkpt><trkpt lat="42.64456616059403" lon="12.351974217729234"><ele>549.5</ele><time>2026-04-04T12:00:34Z</time></trkpt><trkpt lat="42.64462634640962" lon="12.351894098240994"><ele>542.75</ele><time>2026-04-04T12:00:35Z</time></trkpt><trkpt lat="42.64469832646476" lon="12.351791424918607"><ele>536.0</ele><time>2026-04-04T12:00:36Z</time></trkpt><trkpt lat="42.644761372368954" lon="12.35170600051481"><ele>536.0</ele><time>2026-04-04T12:00:37Z</time></trkpt><trkpt lat="42.64481760953934" lon="12.35160493488965"><ele>536.0</ele><time>2026-04-04T12:00:38Z</time></trkpt><trkpt lat="42.64488296702428" lon="12.351501579962468"><ele>536.0</ele><time>2026-04-04T12:00:39Z</time></trkpt><trkpt lat="42.6449570483211" lon="12.351396013161413"><ele>536.0</ele><time>2026-04-04T12:00:40Z</time></trkpt><trkpt lat="42.6450198047694" lon="12.351292934399503"><ele>536.0</ele><time>2026-04-04T12:00:41Z</time></trkpt><trkpt lat="42.645086881285415" lon="12.35118919018398"><ele>538.8</ele><time>2026-04-04T12:00:42Z</time></trkpt><trkpt lat="42.645166182409184" lon="12.351090785574055"><ele>541.6</ele><time>2026-04-04T12:00:43Z</time></trkpt><trkpt lat="42.645234012233296" lon="12.350982612095835"><ele>544.4</ele><time>2026-04-04T12:00:44Z</time></trkpt><trkpt lat="42.64530227453453" lon="12.350877149724656"><ele>547.2</ele><time>2026-04-04T12:00:45Z</time></trkpt><trkpt lat="42.645369386228616" lon="12.350771939030817"><ele>550.0</ele><time>2026-04-04T12:00:46Z</time></trkpt><trkpt lat="42.645433398749475" lon="12.350667754837305"><ele>545.8</ele><time>2026-04-04T12:00:47Z</time></trkpt><trkpt lat="42.64549792287602" lon="12.350566792696242"><ele>541.6</ele><time>2026-04-04T12:00:48Z</time></trkpt><trkpt lat="42.64556088588471" lon="12.35046317658559"><ele>537.4</ele><time>2026-04-04T12:00:49Z</time></trkpt><trkpt lat="42.64562093284308" lon="12.35036229267237"><ele>533.2</ele><time>2026-04-04T12:00:50Z</time></trkpt><trkpt lat="42.645698224158096" lon="12.35029143584155"><ele>529.0</ele><time>2026-04-04T12:00:51Z</time></trkpt><trkpt lat="42.64576517908495" lon="12.350217508917153"><ele>529.0</ele><time>2026-04-04T12:00:52Z</time></trkpt><trkpt lat="42.64583419686066" lon="12.350152603231027"><ele>529.0</ele><time>2026-04-04T12:00:53Z</time></trkpt><trkpt lat="42.64590791644968" lon="12.350114999453277"><ele>529.0</ele><time>2026-04-04T12:00:54Z</time></trkpt><trkpt lat="42.645988941299024" lon="12.350081409241792"><ele>529.0</ele><time>2026-04-04T12:00:55Z</time></trkpt><trkpt lat="42.64608180001085" lon="12.350066800624976"><ele>529.0</ele><time>2026-04-04T12:00:56Z</time></trkpt><trkpt lat="42.646182289612824" lon="12.350061865959852"><ele>529.0</ele><time>2026-04-04T12:00:57Z</time></trkpt><trkpt lat="42.64628285088002" lon="12.350071591619574"><ele>527.4</ele><time>2026-04-04T12:00:58Z</time></trkpt><trkpt lat="42.646380705378405" lon="12.350093697050696"><ele>525.8</ele><time>2026-04-04T12:00:59Z</time></trkpt><trkpt lat="42.64647991770431" lon="12.350120950442841"><ele>524.2</ele><time>2026-04-04T12:01:00Z</time></trkpt><trkpt lat="42.646580169624855" lon="12.350156098321161"><ele>522.6</ele><time>2026-04-04T12:01:01Z</time></trkpt><trkpt lat="42.646683061990565" lon="12.35019680020558"><ele>521.0</ele><time>2026-04-04T12:01:02Z</time></trkpt><trkpt lat="42.64678316048662" lon="12.350238944772194"><ele>521.0</ele><time>2026-04-04T12:01:03Z</time></trkpt><trkpt lat="42.64688510003945" lon="12.350276209155018"><ele>521.0</ele><time>2026-04-04T12:01:04Z</time></trkpt><trkpt lat="42.64696046644773" lon="12.35038136798564"><ele>521.0</ele><time>2026-04-04T12:01:05Z</time></trkpt><trkpt lat="42.64704346868742" lon="12.3504798047242"><ele>521.0</ele><time>2026-04-04T12:01:06Z</time></trkpt><trkpt lat="42.64712743592314" lon="12.350581104154337"><ele>521.0</ele><time>2026-04-04T12:01:07Z</time></trkpt><trkpt lat="42.647209137647586" lon="12.350677281369729"><ele>519.2</ele><time>2026-04-04T12:01:08Z</time></trkpt><trkpt lat="42.64729461817502" lon="12.350779674554905"><ele>517.4000000000001</ele><time>2026-04-04T12:01:09Z</time></trkpt><trkpt lat="42.6473755751713" lon="12.350876979104703"><ele>515.6</ele><time>2026-04-04T12:01:10Z</time></trkpt><trkpt lat="42.6474529353688" lon="12.350977741604074"><ele>513.8000000000001</ele><time>2026-04-04T12:01:11Z</time></trkpt><trkpt lat="42.64752555326782" lon="12.351094586361816"><ele>512.0</ele><time>2026-04-04T12:01:12Z</time></trkpt><trkpt lat="42.64760689640293" lon="12.3512028442862"><ele>512.0</ele><time>2026-04-04T12:01:13Z</time></trkpt><trkpt lat="42.64766114990756" lon="12.35133231638501"><ele>512.0</ele><time>2026-04-04T12:01:14Z</time></trkpt><trkpt lat="42.64774445550549" lon="12.351425067981408"><ele>512.0</ele><time>2026-04-04T12:01:15Z</time></trkpt><trkpt lat="42.647818861949126" lon="12.351520538497201"><ele>512.0</ele><time>2026-04-04T12:01:16Z</time></trkpt><trkpt lat="42.64788357395331" lon="12.351619770167682"><ele>512.0</ele><time>2026-04-04T12:01:17Z</time></trkpt><trkpt lat="42.64795086136951" lon="12.3516981225126"><ele>510.8</ele><time>2026-04-04T12:01:18Z</time></trkpt><trkpt lat="42.648002705131276" lon="12.351764262322323"><ele>509.6</ele><time>2026-04-04T12:01:19Z</time></trkpt><trkpt lat="42.648069178913985" lon="12.35185847897617"><ele>508.40000000000003</ele><time>2026-04-04T12:01:21Z</time></trkpt><trkpt lat="42.648055793545495" lon="12.351953741600601"><ele>507.20000000000005</ele><time>2026-04-04T12:01:24Z</time></trkpt><trkpt lat="42.648066220083436" lon="12.352051541579991"><ele>506.0</ele><time>2026-04-04T12:01:26Z</time></trkpt><trkpt lat="42.648230880661124" lon="12.352080580274936"><ele>506.0</ele><time>2026-04-04T12:01:27Z</time></trkpt><trkpt lat="42.648309074143825" lon="12.352140254772765"><ele>506.0</ele><time>2026-04-04T12:01:28Z</time></trkpt><trkpt lat="42.64838791438141" lon="12.352232115954779"><ele>506.0</ele><time>2026-04-04T12:01:29Z</time></trkpt><trkpt lat="42.648433989001006" lon="12.352365902830195"><ele>506.0</ele><time>2026-04-04T12:01:30Z</time></trkpt><trkpt lat="42.6484775176978" lon="12.352514834316876"><ele>506.0</ele><time>2026-04-04T12:01:31Z</time></trkpt><trkpt lat="42.64852810082117" lon="12.352667229742588"><ele>506.25</ele><time>2026-04-04T12:01:32Z</time></trkpt><trkpt lat="42.64862264979857" lon="12.352830127770739"><ele>506.5</ele><time>2026-04-04T12:01:33Z</time></trkpt><trkpt lat="42.64869128683839" lon="12.352999769913241"><ele>506.75</ele><time>2026-04-04T12:01:34Z</time></trkpt><trkpt lat="42.648787497527515" lon="12.353159763254657"><ele>507.0</ele><time>2026-04-04T12:01:35Z</time></trkpt><trkpt lat="42.64889146437771" lon="12.353308623980864"><ele>507.0</ele><time>2026-04-04T12:01:36Z</time></trkpt><trkpt lat="42.64900565563308" lon="12.353442115564777"><ele>507.0</ele><time>2026-04-04T12:01:37Z</time></trkpt><trkpt lat="42.64913485779582" lon="12.353563404461065"><ele>507.0</ele><time>2026-04-04T12:01:38Z</time></trkpt><trkpt lat="42.64927638390499" lon="12.353662196095089"><ele>507.0</ele><time>2026-04-04T12:01:39Z</time></trkpt><trkpt lat="42.64940926997033" lon="12.353721458101521"><ele>507.0</ele><time>2026-04-04T12:01:40Z</time></trkpt><trkpt lat="42.649532207010346" lon="12.353740846299543"><ele>507.0</ele><time>2026-04-04T12:01:41Z</time></trkpt><trkpt lat="42.64965665969002" lon="12.35371223828325"><ele>507.0</ele><time>2026-04-04T12:01:42Z</time></trkpt><trkpt lat="42.64977889915092" lon="12.353647131810359"><ele>509.66666666666663</ele><time>2026-04-04T12:01:43Z</time></trkpt><trkpt lat="42.64990413472063" lon="12.35356124449708"><ele>512.3333333333333</ele><time>2026-04-04T12:01:44Z</time></trkpt><trkpt lat="42.6500422437508" lon="12.353462272920535"><ele>515.0</ele><time>2026-04-04T12:01:45Z</time></trkpt><trkpt lat="42.65017946759378" lon="12.353368048289562"><ele>512.0</ele><time>2026-04-04T12:01:46Z</time></trkpt><trkpt lat="42.65029902857225" lon="12.353292641734388"><ele>509.0</ele><time>2026-04-04T12:01:47Z</time></trkpt><trkpt lat="42.650418065692655" lon="12.353223956671648"><ele>506.0</ele><time>2026-04-04T12:01:48Z</time></trkpt><trkpt lat="42.6505326772253" lon="12.353161043449088"><ele>503.0</ele><time>2026-04-04T12:01:49Z</time></trkpt><trkpt lat="42.65064256488656" lon="12.353093847348607"><ele>506.0</ele><time>2026-04-04T12:01:50Z</time></trkpt><trkpt lat="42.65074901160314" lon="12.353027249163885"><ele>508.99999999999994</ele><time>2026-04-04T12:01:51Z</time></trkpt><trkpt lat="42.650853511574546" lon="12.35297834717347"><ele>511.99999999999994</ele><time>2026-04-04T12:01:52Z</time></trkpt><trkpt lat="42.65095737695348" lon="12.35292675729755"><ele>515.0</ele><time>2026-04-04T12:01:53Z</time></trkpt><trkpt lat="42.65105111037934" lon="12.35288739078143"><ele>518.0</ele><time>2026-04-04T12:01:53.999Z</time></trkpt><trkpt lat="42.651131482505754" lon="12.352853717111095"><ele>518.0</ele><time>2026-04-04T12:01:54.999Z</time></trkpt><trkpt lat="42.65120766560536" lon="12.352820109820263"><ele>518.0</ele><time>2026-04-04T12:01:56Z</time></trkpt><trkpt lat="42.651278371449436" lon="12.352789969571564"><ele>518.0</ele><time>2026-04-04T12:01:57Z</time></trkpt><trkpt lat="42.651344438963754" lon="12.35275030459149"><ele>518.0</ele><time>2026-04-04T12:01:58Z</time></trkpt><trkpt lat="42.65142582069817" lon="12.352691219960473"><ele>518.0</ele><time>2026-04-04T12:01:59Z</time></trkpt><trkpt lat="42.65153031618407" lon="12.352642750064671"><ele>518.0</ele><time>2026-04-04T12:02:00Z</time></trkpt><trkpt lat="42.65162884432494" lon="12.352552009971502"><ele>518.0</ele><time>2026-04-04T12:02:01Z</time></trkpt><trkpt lat="42.65173190411203" lon="12.352475951249005"><ele>518.0</ele><time>2026-04-04T12:02:02Z</time></trkpt><trkpt lat="42.651825839480466" lon="12.35239772319576"><ele>518.0</ele><time>2026-04-04T12:02:03Z</time></trkpt><trkpt lat="42.65191169969712" lon="12.352303801930734"><ele>518.0</ele><time>2026-04-04T12:02:04Z</time></trkpt><trkpt lat="42.65199048200659" lon="12.35220649816822"><ele>518.0</ele><time>2026-04-04T12:02:05Z</time></trkpt><trkpt lat="42.652063073584586" lon="12.352101631862347"><ele>517.8</ele><time>2026-04-04T12:02:06Z</time></trkpt><trkpt lat="42.652129402543295" lon="12.351996539753651"><ele>517.5999999999999</ele><time>2026-04-04T12:02:07Z</time></trkpt><trkpt lat="42.652202889669034" lon="12.351903644907907"><ele>517.4000000000001</ele><time>2026-04-04T12:02:08Z</time></trkpt><trkpt lat="42.652253096072386" lon="12.351797071460167"><ele>517.2</ele><time>2026-04-04T12:02:09Z</time></trkpt><trkpt lat="42.652294995903844" lon="12.351692413825692"><ele>517.0</ele><time>2026-04-04T12:02:10Z</time></trkpt><trkpt lat="42.65232826000118" lon="12.351588652068417"><ele>517.0</ele><time>2026-04-04T12:02:11Z</time></trkpt><trkpt lat="42.652354544854916" lon="12.351481894682097"><ele>517.0</ele><time>2026-04-04T12:02:12Z</time></trkpt><trkpt lat="42.652375374601185" lon="12.351378380695552"><ele>517.0</ele><time>2026-04-04T12:02:13Z</time></trkpt><trkpt lat="42.652390846322376" lon="12.351273402195895"><ele>517.0</ele><time>2026-04-04T12:02:14Z</time></trkpt><trkpt lat="42.65240254253618" lon="12.351169658689246"><ele>517.0</ele><time>2026-04-04T12:02:15Z</time></trkpt><trkpt lat="42.652413178622076" lon="12.351057074466627"><ele>517.0</ele><time>2026-04-04T12:02:16Z</time></trkpt><trkpt lat="42.652402046774895" lon="12.3509505559149"><ele>518.1666666666667</ele><time>2026-04-04T12:02:17Z</time></trkpt><trkpt lat="42.65241581159775" lon="12.35085594462691"><ele>519.3333333333334</ele><time>2026-04-04T12:02:18Z</time></trkpt><trkpt lat="42.6524180383921" lon="12.35076314667368"><ele>520.5</ele><time>2026-04-04T12:02:19Z</time></trkpt><trkpt lat="42.652420440923024" lon="12.350669392440567"><ele>521.6666666666666</ele><time>2026-04-04T12:02:20Z</time></trkpt><trkpt lat="42.65242253258704" lon="12.350582470224419"><ele>522.8333333333333</ele><time>2026-04-04T12:02:21Z</time></trkpt><trkpt lat="42.65243493374193" lon="12.350411219003997"><ele>524.0</ele><time>2026-04-04T12:02:23Z</time></trkpt><trkpt lat="42.65244830780052" lon="12.350250637990081"><ele>525.6666666666666</ele><time>2026-04-04T12:02:25Z</time></trkpt><trkpt lat="42.65247216691103" lon="12.350170727237915"><ele>527.3333333333333</ele><time>2026-04-04T12:02:26Z</time></trkpt><trkpt lat="42.65250470417188" lon="12.350002874545195"><ele>529.0</ele><time>2026-04-04T12:02:28Z</time></trkpt><trkpt lat="42.65254669625505" lon="12.349924169549405"><ele>530.6666666666666</ele><time>2026-04-04T12:02:29Z</time></trkpt><trkpt lat="42.65259984543111" lon="12.349865414268036"><ele>532.3333333333334</ele><time>2026-04-04T12:02:30Z</time></trkpt><trkpt lat="42.65266544523838" lon="12.349832215100285"><ele>534.0</ele><time>2026-04-04T12:02:31Z</time></trkpt><trkpt lat="42.652745350214545" lon="12.349829878014301"><ele>535.4</ele><time>2026-04-04T12:02:32Z</time></trkpt><trkpt lat="42.65283350919026" lon="12.349868270815822"><ele>536.8</ele><time>2026-04-04T12:02:33Z</time></trkpt><trkpt lat="42.65291920912331" lon="12.349912948362133"><ele>538.2</ele><time>2026-04-04T12:02:34Z</time></trkpt><trkpt lat="42.652999390475486" lon="12.349992163239287"><ele>539.6</ele><time>2026-04-04T12:02:35Z</time></trkpt><trkpt lat="42.65305951264374" lon="12.350053453277209"><ele>541.0</ele><time>2026-04-04T12:02:36Z</time></trkpt><trkpt lat="42.6531478084621" lon="12.350117357561194"><ele>541.0</ele><time>2026-04-04T12:02:37Z</time></trkpt><trkpt lat="42.65322561156709" lon="12.350218223796661"><ele>541.0</ele><time>2026-04-04T12:02:38Z</time></trkpt><trkpt lat="42.65331321025508" lon="12.350311653177467"><ele>541.0</ele><time>2026-04-04T12:02:39Z</time></trkpt><trkpt lat="42.653404369048836" lon="12.350406903601693"><ele>541.0</ele><time>2026-04-04T12:02:40Z</time></trkpt><trkpt lat="42.65349323485896" lon="12.350502088776533"><ele>541.0</ele><time>2026-04-04T12:02:41Z</time></trkpt><trkpt lat="42.65358155253799" lon="12.350591113161496"><ele>540.25</ele><time>2026-04-04T12:02:42Z</time></trkpt><trkpt lat="42.65367934855477" lon="12.350673945220414"><ele>539.5</ele><time>2026-04-04T12:02:43Z</time></trkpt><trkpt lat="42.65378495573859" lon="12.35074899790917"><ele>538.75</ele><time>2026-04-04T12:02:44Z</time></trkpt><trkpt lat="42.653898610618576" lon="12.350814850602369"><ele>538.0</ele><time>2026-04-04T12:02:45Z</time></trkpt><trkpt lat="42.65402334040458" lon="12.35082608866572"><ele>538.0</ele><time>2026-04-04T12:02:46Z</time></trkpt><trkpt lat="42.65414690270188" lon="12.350811224405854"><ele>538.0</ele><time>2026-04-04T12:02:47Z</time></trkpt><trkpt lat="42.65426126289357" lon="12.350783332119528"><ele>538.0</ele><time>2026-04-04T12:02:48Z</time></trkpt><trkpt lat="42.65438600813205" lon="12.35073508373126"><ele>538.0</ele><time>2026-04-04T12:02:49Z</time></trkpt><trkpt lat="42.65450714974955" lon="12.35066121302534"><ele>539.25</ele><time>2026-04-04T12:02:50Z</time></trkpt><trkpt lat="42.65459886460654" lon="12.350560575741428"><ele>540.5</ele><time>2026-04-04T12:02:51Z</time></trkpt><trkpt lat="42.65465641563351" lon="12.350386782728409"><ele>541.75</ele><time>2026-04-04T12:02:52Z</time></trkpt><trkpt lat="42.654718170656594" lon="12.350210452360079"><ele>543.0</ele><time>2026-04-04T12:02:53Z</time></trkpt><trkpt lat="42.65476177691597" lon="12.350028128303046"><ele>543.0</ele><time>2026-04-04T12:02:54Z</time></trkpt><trkpt lat="42.65480326073721" lon="12.349838693677942"><ele>543.0</ele><time>2026-04-04T12:02:55Z</time></trkpt><trkpt lat="42.654840743199" lon="12.349647811142043"><ele>543.0</ele><time>2026-04-04T12:02:56Z</time></trkpt><trkpt lat="42.65488605937801" lon="12.349470449951362"><ele>543.0</ele><time>2026-04-04T12:02:57Z</time></trkpt><trkpt lat="42.654947048276064" lon="12.349312521743162"><ele>545.5</ele><time>2026-04-04T12:02:58Z</time></trkpt><trkpt lat="42.65500242548363" lon="12.349161059529155"><ele>548.0</ele><time>2026-04-04T12:02:59Z</time></trkpt><trkpt lat="42.655073500848175" lon="12.34902070575423"><ele>550.5</ele><time>2026-04-04T12:03:00Z</time></trkpt><trkpt lat="42.65515942734443" lon="12.348901149171393"><ele>553.0</ele><time>2026-04-04T12:03:01Z</time></trkpt><trkpt lat="42.65525547559445" lon="12.3487999021402"><ele>553.5</ele><time>2026-04-04T12:03:02Z</time></trkpt><trkpt lat="42.655360933044214" lon="12.348712525950006"><ele>554.0</ele><time>2026-04-04T12:03:03Z</time></trkpt><trkpt lat="42.6554763153358" lon="12.34863734285686"><ele>554.5</ele><time>2026-04-04T12:03:04Z</time></trkpt><trkpt lat="42.65558825090719" lon="12.348577243232969"><ele>555.0</ele><time>2026-04-04T12:03:05Z</time></trkpt><trkpt lat="42.65568956241187" lon="12.348517542870882"><ele>555.0</ele><time>2026-04-04T12:03:06Z</time></trkpt><trkpt lat="42.65578277689534" lon="12.348457089387859"><ele>555.0</ele><time>2026-04-04T12:03:07Z</time></trkpt><trkpt lat="42.65585876192622" lon="12.34836326194608"><ele>555.0</ele><time>2026-04-04T12:03:08Z</time></trkpt><trkpt lat="42.655924468855815" lon="12.348289154021609"><ele>555.0</ele><time>2026-04-04T12:03:09Z</time></trkpt><trkpt lat="42.6559816071515" lon="12.348223624340216"><ele>555.0</ele><time>2026-04-04T12:03:10Z</time></trkpt><trkpt lat="42.656010459917226" lon="12.348120892843513"><ele>555.0</ele><time>2026-04-04T12:03:11Z</time></trkpt><trkpt lat="42.65604077409606" lon="12.348034933342726"><ele>557.4</ele><time>2026-04-04T12:03:12Z</time></trkpt><trkpt lat="42.65606978543488" lon="12.347880687221643"><ele>559.8</ele><time>2026-04-04T12:03:14Z</time></trkpt><trkpt lat="42.65607168888241" lon="12.34779299971291"><ele>562.2</ele><time>2026-04-04T12:03:15Z</time></trkpt><trkpt lat="42.65606468586143" lon="12.347685058569564"><ele>564.6</ele><time>2026-04-04T12:03:16Z</time></trkpt><trkpt lat="42.65605830951741" lon="12.347549801006716"><ele>567.0</ele><time>2026-04-04T12:03:17Z</time></trkpt><trkpt lat="42.65605555252553" lon="12.347399068773576"><ele>567.0</ele><time>2026-04-04T12:03:18Z</time></trkpt><trkpt lat="42.65605272044663" lon="12.347264258087558"><ele>567.0</ele><time>2026-04-04T12:03:19Z</time></trkpt><trkpt lat="42.65606500038866" lon="12.34710861785898"><ele>567.0</ele><time>2026-04-04T12:03:20Z</time></trkpt><trkpt lat="42.6560563716811" lon="12.346950015779116"><ele>567.0</ele><time>2026-04-04T12:03:21Z</time></trkpt><trkpt lat="42.65603835320894" lon="12.346787179750303"><ele>567.5</ele><time>2026-04-04T12:03:22Z</time></trkpt><trkpt lat="42.655998619237536" lon="12.346616281092725"><ele>568.0</ele><time>2026-04-04T12:03:23Z</time></trkpt><trkpt lat="42.655945034171346" lon="12.346462730465372"><ele>568.5</ele><time>2026-04-04T12:03:24Z</time></trkpt><trkpt lat="42.65586625691675" lon="12.346307426476889"><ele>569.0</ele><time>2026-04-04T12:03:25Z</time></trkpt><trkpt lat="42.65576283619344" lon="12.346174686489471"><ele>567.0</ele><time>2026-04-04T12:03:26Z</time></trkpt><trkpt lat="42.65565513620393" lon="12.346025725292877"><ele>565.0</ele><time>2026-04-04T12:03:27Z</time></trkpt><trkpt lat="42.655545025430314" lon="12.345874457857725"><ele>563.0</ele><time>2026-04-04T12:03:28Z</time></trkpt><trkpt lat="42.655440591136426" lon="12.345727707156117"><ele>563.0</ele><time>2026-04-04T12:03:29Z</time></trkpt><trkpt lat="42.655349232635" lon="12.345580252470006"><ele>563.0</ele><time>2026-04-04T12:03:30Z</time></trkpt><trkpt lat="42.65527380185511" lon="12.34542352096699"><ele>563.0</ele><time>2026-04-04T12:03:31Z</time></trkpt><trkpt lat="42.65522786405537" lon="12.345242762893509"><ele>563.0</ele><time>2026-04-04T12:03:32Z</time></trkpt><trkpt lat="42.65522262430701" lon="12.345048328536835"><ele>568.0</ele><time>2026-04-04T12:03:33Z</time></trkpt><trkpt lat="42.65520421312506" lon="12.344850643777301"><ele>573.0</ele><time>2026-04-04T12:03:34Z</time></trkpt><trkpt lat="42.655206943100175" lon="12.34465456719961"><ele>578.0</ele><time>2026-04-04T12:03:35Z</time></trkpt><trkpt lat="42.65520473541063" lon="12.34446349526802"><ele>583.0</ele><time>2026-04-04T12:03:36Z</time></trkpt><trkpt lat="42.655218828255165" lon="12.3442769372429"><ele>583.0</ele><time>2026-04-04T12:03:37Z</time></trkpt><trkpt lat="42.655201974565294" lon="12.344103772106543"><ele>583.0</ele><time>2026-04-04T12:03:38Z</time></trkpt><trkpt lat="42.65520253836767" lon="12.343942463729613"><ele>583.0</ele><time>2026-04-04T12:03:39Z</time></trkpt><trkpt lat="42.65520294800698" lon="12.343787082578006"><ele>583.0</ele><time>2026-04-04T12:03:40Z</time></trkpt><trkpt lat="42.655215112436075" lon="12.343635775312418"><ele>584.0</ele><time>2026-04-04T12:03:41Z</time></trkpt><trkpt lat="42.65524342531153" lon="12.343477712094955"><ele>585.0</ele><time>2026-04-04T12:03:42Z</time></trkpt><trkpt lat="42.655293793694625" lon="12.343328594845449"><ele>586.0</ele><time>2026-04-04T12:03:43Z</time></trkpt><trkpt lat="42.65536548614449" lon="12.343188878309949"><ele>587.0</ele><time>2026-04-04T12:03:44Z</time></trkpt><trkpt lat="42.65544713767832" lon="12.343060984293388"><ele>584.25</ele><time>2026-04-04T12:03:45Z</time></trkpt><trkpt lat="42.6555334286356" lon="12.342938429707994"><ele>581.5</ele><time>2026-04-04T12:03:46Z</time></trkpt><trkpt lat="42.65562570238729" lon="12.342816393078792"><ele>578.75</ele><time>2026-04-04T12:03:47Z</time></trkpt><trkpt lat="42.655720969248954" lon="12.34268820249546"><ele>576.0</ele><time>2026-04-04T12:03:48Z</time></trkpt><trkpt lat="42.65581515715313" lon="12.342551629271501"><ele>576.0</ele><time>2026-04-04T12:03:49Z</time></trkpt><trkpt lat="42.65590874842096" lon="12.34240433565133"><ele>576.0</ele><time>2026-04-04T12:03:50Z</time></trkpt><trkpt lat="42.65600242782574" lon="12.342251061086554"><ele>576.0</ele><time>2026-04-04T12:03:51Z</time></trkpt><trkpt lat="42.6560984562265" lon="12.342100522111384"><ele>576.0</ele><time>2026-04-04T12:03:52Z</time></trkpt><trkpt lat="42.65620375857937" lon="12.341955177108456"><ele>573.75</ele><time>2026-04-04T12:03:53Z</time></trkpt><trkpt lat="42.65631834390635" lon="12.341825050419498"><ele>571.5</ele><time>2026-04-04T12:03:54Z</time></trkpt><trkpt lat="42.656445305409235" lon="12.341720681506175"><ele>569.25</ele><time>2026-04-04T12:03:55Z</time></trkpt><trkpt lat="42.65658179589099" lon="12.341634060415833"><ele>567.0</ele><time>2026-04-04T12:03:56Z</time></trkpt><trkpt lat="42.656717975319054" lon="12.341542185254134"><ele>567.0</ele><time>2026-04-04T12:03:57Z</time></trkpt><trkpt lat="42.65685601733906" lon="12.34144580609704"><ele>567.0</ele><time>2026-04-04T12:03:58Z</time></trkpt><trkpt lat="42.65700544338964" lon="12.341345648285634"><ele>567.0</ele><time>2026-04-04T12:03:59Z</time></trkpt><trkpt lat="42.657156213394316" lon="12.341238172952284"><ele>569.0</ele><time>2026-04-04T12:04:00Z</time></trkpt><trkpt lat="42.65730989784378" lon="12.341128692512278"><ele>571.0</ele><time>2026-04-04T12:04:01Z</time></trkpt><trkpt lat="42.65747444724759" lon="12.341007591910568"><ele>573.0</ele><time>2026-04-04T12:04:02Z</time></trkpt><trkpt lat="42.657647893996575" lon="12.340880374442468"><ele>575.0</ele><time>2026-04-04T12:04:03Z</time></trkpt><trkpt lat="42.65782943938802" lon="12.340753378710216"><ele>577.0</ele><time>2026-04-04T12:04:04Z</time></trkpt><trkpt lat="42.65801145152437" lon="12.340619197318157"><ele>579.0</ele><time>2026-04-04T12:04:05Z</time></trkpt><trkpt lat="42.65819144751235" lon="12.340486303421018"><ele>579.0</ele><time>2026-04-04T12:04:06Z</time></trkpt><trkpt lat="42.65838167316963" lon="12.340379300347404"><ele>579.0</ele><time>2026-04-04T12:04:07Z</time></trkpt><trkpt lat="42.65856226223916" lon="12.34025489772753"><ele>579.0</ele><time>2026-04-04T12:04:08Z</time></trkpt><trkpt lat="42.65874074760306" lon="12.340129782137112"><ele>573.0</ele><time>2026-04-04T12:04:09Z</time></trkpt><trkpt lat="42.658916091757504" lon="12.340006586120401"><ele>567.0</ele><time>2026-04-04T12:04:10Z</time></trkpt><trkpt lat="42.659083475256246" lon="12.339888983007613"><ele>561.0</ele><time>2026-04-04T12:04:11Z</time></trkpt><trkpt lat="42.659242636568734" lon="12.339777157207777"><ele>562.3333333333334</ele><time>2026-04-04T12:04:12Z</time></trkpt><trkpt lat="42.65939590909936" lon="12.339669468470396"><ele>563.6666666666667</ele><time>2026-04-04T12:04:13Z</time></trkpt><trkpt lat="42.659549772162336" lon="12.339561846853478"><ele>565.0</ele><time>2026-04-04T12:04:14Z</time></trkpt><trkpt lat="42.65969535222687" lon="12.339460215776985"><ele>565.0</ele><time>2026-04-04T12:04:15Z</time></trkpt><trkpt lat="42.65983664528471" lon="12.339361577778645"><ele>565.0</ele><time>2026-04-04T12:04:16Z</time></trkpt><trkpt lat="42.65996946581252" lon="12.339268854288248"><ele>565.0</ele><time>2026-04-04T12:04:17Z</time></trkpt><trkpt lat="42.66009552356583" lon="12.339180586882941"><ele>565.0</ele><time>2026-04-04T12:04:18Z</time></trkpt><trkpt lat="42.66021186081114" lon="12.339097242752592"><ele>565.0</ele><time>2026-04-04T12:04:19Z</time></trkpt><trkpt lat="42.66033104003707" lon="12.339004414101574"><ele>565.0</ele><time>2026-04-04T12:04:20Z</time></trkpt><trkpt lat="42.66044649820236" lon="12.338884792614072"><ele>565.0</ele><time>2026-04-04T12:04:21Z</time></trkpt><trkpt lat="42.660546442371334" lon="12.338740828379546"><ele>563.75</ele><time>2026-04-04T12:04:22Z</time></trkpt><trkpt lat="42.660627174345606" lon="12.338574028091983"><ele>562.5</ele><time>2026-04-04T12:04:23Z</time></trkpt><trkpt lat="42.66068893851606" lon="12.338423555614288"><ele>561.25</ele><time>2026-04-04T12:04:24Z</time></trkpt><trkpt lat="42.66074709560781" lon="12.33827421228803"><ele>560.0</ele><time>2026-04-04T12:04:25Z</time></trkpt><trkpt lat="42.66080444725812" lon="12.338133317537784"><ele>560.6</ele><time>2026-04-04T12:04:26Z</time></trkpt><trkpt lat="42.66086269951235" lon="12.338007991565728"><ele>561.2</ele><time>2026-04-04T12:04:27Z</time></trkpt><trkpt lat="42.6609323467746" lon="12.337903304065506"><ele>561.8</ele><time>2026-04-04T12:04:28Z</time></trkpt><trkpt lat="42.66101841083609" lon="12.337821197485717"><ele>562.4</ele><time>2026-04-04T12:04:29Z</time></trkpt><trkpt lat="42.661116905170445" lon="12.337768937231363"><ele>563.0</ele><time>2026-04-04T12:04:30Z</time></trkpt><trkpt lat="42.66122429763543" lon="12.337754665682514"><ele>563.5</ele><time>2026-04-04T12:04:31Z</time></trkpt><trkpt lat="42.66132936441733" lon="12.337781237713768"><ele>564.0</ele><time>2026-04-04T12:04:32Z</time></trkpt><trkpt lat="42.66143298103587" lon="12.337846146892591"><ele>564.5</ele><time>2026-04-04T12:04:33Z</time></trkpt><trkpt lat="42.66153240391344" lon="12.33793291264064"><ele>565.0</ele><time>2026-04-04T12:04:34Z</time></trkpt><trkpt lat="42.6616358456021" lon="12.338025414059722"><ele>563.0</ele><time>2026-04-04T12:04:35Z</time></trkpt><trkpt lat="42.66172729435485" lon="12.338127482330522"><ele>561.0</ele><time>2026-04-04T12:04:36Z</time></trkpt><trkpt lat="42.66183101399376" lon="12.338198457137743"><ele>559.0</ele><time>2026-04-04T12:04:37Z</time></trkpt><trkpt lat="42.66193752334428" lon="12.338258066673774"><ele>557.0</ele><time>2026-04-04T12:04:38Z</time></trkpt><trkpt lat="42.66205597562753" lon="12.338252659565745"><ele>556.5</ele><time>2026-04-04T12:04:39Z</time></trkpt><trkpt lat="42.66217655666692" lon="12.338208430039321"><ele>556.0</ele><time>2026-04-04T12:04:40Z</time></trkpt><trkpt lat="42.66227948140552" lon="12.338098841493407"><ele>555.5</ele><time>2026-04-04T12:04:41Z</time></trkpt><trkpt lat="42.66235330518845" lon="12.337955556635642"><ele>555.0</ele><time>2026-04-04T12:04:42Z</time></trkpt><trkpt lat="42.662406756320436" lon="12.337787723645098"><ele>557.25</ele><time>2026-04-04T12:04:43Z</time></trkpt><trkpt lat="42.662443043308" lon="12.337609655573205"><ele>559.5</ele><time>2026-04-04T12:04:44Z</time></trkpt><trkpt lat="42.662471671805626" lon="12.337435006433463"><ele>561.75</ele><time>2026-04-04T12:04:45Z</time></trkpt><trkpt lat="42.662497735432055" lon="12.337269331143188"><ele>564.0</ele><time>2026-04-04T12:04:46Z</time></trkpt><trkpt lat="42.6625239994124" lon="12.337106024144344"><ele>565.0</ele><time>2026-04-04T12:04:47Z</time></trkpt><trkpt lat="42.662560180485755" lon="12.33694618486577"><ele>566.0</ele><time>2026-04-04T12:04:48Z</time></trkpt><trkpt lat="42.66262088707655" lon="12.33679313645527"><ele>567.0</ele><time>2026-04-04T12:04:49Z</time></trkpt><trkpt lat="42.662703635514106" lon="12.336660653590705"><ele>568.0</ele><time>2026-04-04T12:04:50Z</time></trkpt><trkpt lat="42.66280304880024" lon="12.336544435372206"><ele>568.0</ele><time>2026-04-04T12:04:51Z</time></trkpt><trkpt lat="42.66291641520915" lon="12.336456642520304"><ele>568.0</ele><time>2026-04-04T12:04:52Z</time></trkpt><trkpt lat="42.663047821189316" lon="12.336412624238074"><ele>568.0</ele><time>2026-04-04T12:04:53Z</time></trkpt><trkpt lat="42.66319567214736" lon="12.336376324807578"><ele>568.0</ele><time>2026-04-04T12:04:54Z</time></trkpt><trkpt lat="42.66335718769343" lon="12.336348046441648"><ele>575.6666666666667</ele><time>2026-04-04T12:04:55Z</time></trkpt><trkpt lat="42.66352328760979" lon="12.336321912839999"><ele>583.3333333333334</ele><time>2026-04-04T12:04:56Z</time></trkpt><trkpt lat="42.66368557164709" lon="12.33629766705816"><ele>591.0</ele><time>2026-04-04T12:04:57Z</time></trkpt><trkpt lat="42.66386006296826" lon="12.336271597352082"><ele>591.0</ele><time>2026-04-04T12:04:58Z</time></trkpt><trkpt lat="42.664044688381175" lon="12.336244013680998"><ele>591.0</ele><time>2026-04-04T12:04:59Z</time></trkpt><trkpt lat="42.66422246798827" lon="12.336215553925621"><ele>591.0</ele><time>2026-04-04T12:05:00Z</time></trkpt><trkpt lat="42.664398442420456" lon="12.33618731747778"><ele>588.6666666666666</ele><time>2026-04-04T12:05:01Z</time></trkpt><trkpt lat="42.66456752868992" lon="12.33616171348761"><ele>586.3333333333333</ele><time>2026-04-04T12:05:02Z</time></trkpt><trkpt lat="42.66472062146624" lon="12.33613727125787"><ele>584.0</ele><time>2026-04-04T12:05:03Z</time></trkpt><trkpt lat="42.664866456931584" lon="12.336099336094348"><ele>584.0</ele><time>2026-04-04T12:05:04Z</time></trkpt><trkpt lat="42.66500048588227" lon="12.33603626230805"><ele>584.0</ele><time>2026-04-04T12:05:05Z</time></trkpt><trkpt lat="42.66511360535966" lon="12.33595952952458"><ele>584.0</ele><time>2026-04-04T12:05:06Z</time></trkpt><trkpt lat="42.66520992831034" lon="12.335878375350246"><ele>584.0</ele><time>2026-04-04T12:05:07Z</time></trkpt><trkpt lat="42.66529406320129" lon="12.335777251203412"><ele>583.25</ele><time>2026-04-04T12:05:08Z</time></trkpt><trkpt lat="42.665381869456034" lon="12.335679269760629"><ele>582.5</ele><time>2026-04-04T12:05:09Z</time></trkpt><trkpt lat="42.66547882811649" lon="12.335578310482012"><ele>581.75</ele><time>2026-04-04T12:05:10Z</time></trkpt><trkpt lat="42.66558141327117" lon="12.33550222577773"><ele>581.0</ele><time>2026-04-04T12:05:11Z</time></trkpt><trkpt lat="42.665697309175656" lon="12.335484108200765"><ele>581.5</ele><time>2026-04-04T12:05:12Z</time></trkpt><trkpt lat="42.66582072835547" lon="12.33550381021186"><ele>582.0</ele><time>2026-04-04T12:05:13Z</time></trkpt><trkpt lat="42.66596381338074" lon="12.335553156084243"><ele>582.5</ele><time>2026-04-04T12:05:14Z</time></trkpt><trkpt lat="42.66611721665724" lon="12.335592613238644"><ele>583.0</ele><time>2026-04-04T12:05:15Z</time></trkpt><trkpt lat="42.6662632160107" lon="12.33562676660627"><ele>583.0</ele><time>2026-04-04T12:05:16Z</time></trkpt><trkpt lat="42.666403339849644" lon="12.335651054787352"><ele>583.0</ele><time>2026-04-04T12:05:17Z</time></trkpt><trkpt lat="42.66653995745958" lon="12.335668556234912"><ele>583.0</ele><time>2026-04-04T12:05:18Z</time></trkpt><trkpt lat="42.66666218105944" lon="12.335679173395336"><ele>583.0</ele><time>2026-04-04T12:05:19Z</time></trkpt><trkpt lat="42.666789096160244" lon="12.335686510629953"><ele>583.0</ele><time>2026-04-04T12:05:20Z</time></trkpt><trkpt lat="42.666909044817224" lon="12.335692373191595"><ele>583.0</ele><time>2026-04-04T12:05:21Z</time></trkpt><trkpt lat="42.66702957333325" lon="12.335698264093743"><ele>583.0</ele><time>2026-04-04T12:05:22Z</time></trkpt><trkpt lat="42.66715158295993" lon="12.335704227392608"><ele>583.0</ele><time>2026-04-04T12:05:23Z</time></trkpt><trkpt lat="42.667271189500354" lon="12.3357100732325"><ele>583.5</ele><time>2026-04-04T12:05:24Z</time></trkpt><trkpt lat="42.667392063942465" lon="12.335715981046233"><ele>584.0</ele><time>2026-04-04T12:05:25Z</time></trkpt><trkpt lat="42.667514477214084" lon="12.335721811223971"><ele>584.5</ele><time>2026-04-04T12:05:26Z</time></trkpt><trkpt lat="42.66763977549399" lon="12.335725645910058"><ele>585.0</ele><time>2026-04-04T12:05:27Z</time></trkpt><trkpt lat="42.66776123066167" lon="12.335729362977894"><ele>584.5</ele><time>2026-04-04T12:05:28Z</time></trkpt><trkpt lat="42.66788699685375" lon="12.335732875978872"><ele>584.0</ele><time>2026-04-04T12:05:29Z</time></trkpt><trkpt lat="42.6680095765962" lon="12.335736282386906"><ele>583.5</ele><time>2026-04-04T12:05:30Z</time></trkpt><trkpt lat="42.66812706007063" lon="12.335724531616552"><ele>583.0</ele><time>2026-04-04T12:05:31Z</time></trkpt><trkpt lat="42.66824290675333" lon="12.335733141798286"><ele>583.0</ele><time>2026-04-04T12:05:32Z</time></trkpt><trkpt lat="42.66835877681237" lon="12.335735758628784"><ele>583.0</ele><time>2026-04-04T12:05:33Z</time></trkpt><trkpt lat="42.668466138194376" lon="12.33574201174381"><ele>583.0</ele><time>2026-04-04T12:05:34Z</time></trkpt><trkpt lat="42.66856469287647" lon="12.335758992514386"><ele>583.0</ele><time>2026-04-04T12:05:35Z</time></trkpt><trkpt lat="42.668661992713844" lon="12.335798896219211"><ele>583.0</ele><time>2026-04-04T12:05:36Z</time></trkpt><trkpt lat="42.668756282253625" lon="12.33585475860154"><ele>584.25</ele><time>2026-04-04T12:05:37Z</time></trkpt><trkpt lat="42.66884626023856" lon="12.335945289984021"><ele>585.5</ele><time>2026-04-04T12:05:38Z</time></trkpt><trkpt lat="42.668929710920864" lon="12.33605585593392"><ele>586.75</ele><time>2026-04-04T12:05:39Z</time></trkpt><trkpt lat="42.66900086683541" lon="12.336184397493186"><ele>588.0</ele><time>2026-04-04T12:05:40Z</time></trkpt><trkpt lat="42.66905692864497" lon="12.336318252522185"><ele>588.1999999999999</ele><time>2026-04-04T12:05:41Z</time></trkpt><trkpt lat="42.66910760173369" lon="12.336461553563359"><ele>588.4</ele><time>2026-04-04T12:05:42Z</time></trkpt><trkpt lat="42.66915427133756" lon="12.336601171404926"><ele>588.5999999999999</ele><time>2026-04-04T12:05:43Z</time></trkpt><trkpt lat="42.669201255160864" lon="12.336727749215797"><ele>588.8</ele><time>2026-04-04T12:05:44Z</time></trkpt><trkpt lat="42.66925042293878" lon="12.336841661760012"><ele>589.0</ele><time>2026-04-04T12:05:45Z</time></trkpt><trkpt lat="42.66931176839335" lon="12.336937854288974"><ele>589.0</ele><time>2026-04-04T12:05:46Z</time></trkpt><trkpt lat="42.66939811971595" lon="12.337018808921975"><ele>589.0</ele><time>2026-04-04T12:05:47Z</time></trkpt><trkpt lat="42.669507465785706" lon="12.337082124002139"><ele>589.0</ele><time>2026-04-04T12:05:48Z</time></trkpt><trkpt lat="42.670002812531635" lon="12.337329487306874"><ele>589.6</ele><time>2026-04-04T12:05:52Z</time></trkpt><trkpt lat="42.67011841458314" lon="12.337395446121766"><ele>590.2</ele><time>2026-04-04T12:05:53Z</time></trkpt><trkpt lat="42.670223287006436" lon="12.337458597625119"><ele>590.8000000000001</ele><time>2026-04-04T12:05:54Z</time></trkpt><trkpt lat="42.67031988452022" lon="12.33751932019787"><ele>591.4</ele><time>2026-04-04T12:05:55Z</time></trkpt><trkpt lat="42.67039966400833" lon="12.337580050516225"><ele>592.0</ele><time>2026-04-04T12:05:56Z</time></trkpt><trkpt lat="42.670485972768404" lon="12.337622981695374"><ele>592.0</ele><time>2026-04-04T12:05:57Z</time></trkpt><trkpt lat="42.67056710458549" lon="12.337671187542927"><ele>592.0</ele><time>2026-04-04T12:05:58.001Z</time></trkpt><trkpt lat="42.6706419319513" lon="12.337708457175118"><ele>592.0</ele><time>2026-04-04T12:05:59.001Z</time></trkpt><trkpt lat="42.67072237370634" lon="12.33772876520182"><ele>592.0</ele><time>2026-04-04T12:06:00.001Z</time></trkpt><trkpt lat="42.670802065864564" lon="12.337739312805157"><ele>592.0</ele><time>2026-04-04T12:06:01.001Z</time></trkpt><trkpt lat="42.67087200911336" lon="12.33774330917899"><ele>592.0</ele><time>2026-04-04T12:06:02.001Z</time></trkpt><trkpt lat="42.67094004208904" lon="12.337734467895974"><ele>592.0</ele><time>2026-04-04T12:06:03Z</time></trkpt><trkpt lat="42.671005897102845" lon="12.337717199483038"><ele>592.0</ele><time>2026-04-04T12:06:04Z</time></trkpt><trkpt lat="42.67106611794804" lon="12.33768669675641"><ele>592.0</ele><time>2026-04-04T12:06:05Z</time></trkpt><trkpt lat="42.67112794054693" lon="12.337640563563843"><ele>592.0</ele><time>2026-04-04T12:06:06Z</time></trkpt><trkpt lat="42.67119234535021" lon="12.337581249094978"><ele>592.0</ele><time>2026-04-04T12:06:07Z</time></trkpt><trkpt lat="42.67125506633621" lon="12.3375225163543"><ele>592.0</ele><time>2026-04-04T12:06:08Z</time></trkpt><trkpt lat="42.67132163408546" lon="12.33745981979711"><ele>592.0</ele><time>2026-04-04T12:06:09Z</time></trkpt><trkpt lat="42.671388463110816" lon="12.337399037442097"><ele>591.5714285714286</ele><time>2026-04-04T12:06:10Z</time></trkpt><trkpt lat="42.6714634245203" lon="12.337369876093213"><ele>591.1428571428571</ele><time>2026-04-04T12:06:11Z</time></trkpt><trkpt lat="42.671531953947174" lon="12.337328435076188"><ele>590.7142857142857</ele><time>2026-04-04T12:06:12Z</time></trkpt><trkpt lat="42.671603817925764" lon="12.337302435367503"><ele>590.2857142857142</ele><time>2026-04-04T12:06:13Z</time></trkpt><trkpt lat="42.67167535385049" lon="12.337287846505248"><ele>589.8571428571428</ele><time>2026-04-04T12:06:14Z</time></trkpt><trkpt lat="42.671733920941776" lon="12.337333867812143"><ele>589.4285714285714</ele><time>2026-04-04T12:06:15Z</time></trkpt><trkpt lat="42.67177680116811" lon="12.33739774399227"><ele>589.0</ele><time>2026-04-04T12:06:16Z</time></trkpt><trkpt lat="42.67182694154087" lon="12.337525410801875"><ele>589.0</ele><time>2026-04-04T12:06:18Z</time></trkpt><trkpt lat="42.67182328297007" lon="12.337418606203592"><ele>589.0</ele><time>2026-04-04T12:06:25Z</time></trkpt><trkpt lat="42.67177034139023" lon="12.337349982043147"><ele>589.0</ele><time>2026-04-04T12:06:26Z</time></trkpt><trkpt lat="42.671715616789356" lon="12.337298796748358"><ele>589.0</ele><time>2026-04-04T12:06:27Z</time></trkpt><trkpt lat="42.67164022509828" lon="12.337262644717814"><ele>589.0</ele><time>2026-04-04T12:06:28Z</time></trkpt><trkpt lat="42.67155131512977" lon="12.337270868957262"><ele>589.0</ele><time>2026-04-04T12:06:29Z</time></trkpt><trkpt lat="42.6714538619487" lon="12.337322733404633"><ele>589.0</ele><time>2026-04-04T12:06:30Z</time></trkpt><trkpt lat="42.671345956931226" lon="12.337394676143383"><ele>589.0</ele><time>2026-04-04T12:06:31Z</time></trkpt><trkpt lat="42.67124440620601" lon="12.337483260057171"><ele>589.0</ele><time>2026-04-04T12:06:32Z</time></trkpt><trkpt lat="42.67113813440192" lon="12.337577720596288"><ele>589.0</ele><time>2026-04-04T12:06:33Z</time></trkpt><trkpt lat="42.67104105145012" lon="12.337641537135314"><ele>589.75</ele><time>2026-04-04T12:06:34Z</time></trkpt><trkpt lat="42.67093465676666" lon="12.33768391875259"><ele>590.5</ele><time>2026-04-04T12:06:35Z</time></trkpt><trkpt lat="42.6708207113227" lon="12.337690420680806"><ele>591.25</ele><time>2026-04-04T12:06:36Z</time></trkpt><trkpt lat="42.670707414057496" lon="12.337676733154671"><ele>592.0</ele><time>2026-04-04T12:06:37Z</time></trkpt><trkpt lat="42.67058675566101" lon="12.337635270040831"><ele>592.0</ele><time>2026-04-04T12:06:38Z</time></trkpt><trkpt lat="42.67045391859911" lon="12.337565671063912"><ele>592.0</ele><time>2026-04-04T12:06:39Z</time></trkpt><trkpt lat="42.670328735869845" lon="12.337489826210724"><ele>592.0</ele><time>2026-04-04T12:06:40Z</time></trkpt><trkpt lat="42.67020593050185" lon="12.337412288038326"><ele>592.0</ele><time>2026-04-04T12:06:41Z</time></trkpt><trkpt lat="42.670083990673" lon="12.33733710108347"><ele>593.4</ele><time>2026-04-04T12:06:42Z</time></trkpt><trkpt lat="42.66996574320435" lon="12.33727401893179"><ele>594.8000000000001</ele><time>2026-04-04T12:06:43Z</time></trkpt><trkpt lat="42.66985687477826" lon="12.337212335031163"><ele>596.2</ele><time>2026-04-04T12:06:44Z</time></trkpt><trkpt lat="42.66975581749017" lon="12.337160251101622"><ele>597.6</ele><time>2026-04-04T12:06:45Z</time></trkpt><trkpt lat="42.669666891066576" lon="12.33711401160821"><ele>599.0</ele><time>2026-04-04T12:06:46Z</time></trkpt><trkpt lat="42.66958891530449" lon="12.337081864625816"><ele>599.0</ele><time>2026-04-04T12:06:47Z</time></trkpt><trkpt lat="42.66951698502086" lon="12.337042788322073"><ele>599.0</ele><time>2026-04-04T12:06:48Z</time></trkpt><trkpt lat="42.66940612193744" lon="12.336980965372598"><ele>599.0</ele><time>2026-04-04T12:06:50Z</time></trkpt><trkpt lat="42.6693111137655" lon="12.336880968664698"><ele>599.0</ele><time>2026-04-04T12:06:52Z</time></trkpt><trkpt lat="42.66926648786876" lon="12.336803947631996"><ele>599.0</ele><time>2026-04-04T12:06:53Z</time></trkpt><trkpt lat="42.66923066434665" lon="12.336723358604988"><ele>597.3333333333333</ele><time>2026-04-04T12:06:54Z</time></trkpt><trkpt lat="42.66920178620577" lon="12.336636873161162"><ele>595.6666666666666</ele><time>2026-04-04T12:06:55Z</time></trkpt><trkpt lat="42.66917492178886" lon="12.336554116441643"><ele>594.0</ele><time>2026-04-04T12:06:56Z</time></trkpt><trkpt lat="42.66915367876273" lon="12.336472873662167"><ele>592.3333333333334</ele><time>2026-04-04T12:06:57Z</time></trkpt><trkpt lat="42.66913316826341" lon="12.336332524694983"><ele>590.6666666666667</ele><time>2026-04-04T12:06:59Z</time></trkpt><trkpt lat="42.66908601563343" lon="12.336248257180634"><ele>589.0</ele><time>2026-04-04T12:07:01Z</time></trkpt><trkpt lat="42.66908412283009" lon="12.336401517341091"><ele>589.0</ele><time>2026-04-04T12:07:08Z</time></trkpt><trkpt lat="42.66914367958381" lon="12.33654948400294"><ele>589.0</ele><time>2026-04-04T12:07:10Z</time></trkpt><trkpt lat="42.66917342091815" lon="12.336643763410608"><ele>589.0</ele><time>2026-04-04T12:07:11Z</time></trkpt><trkpt lat="42.66920244410619" lon="12.336732190114759"><ele>589.0</ele><time>2026-04-04T12:07:12Z</time></trkpt><trkpt lat="42.669262238913184" lon="12.3368721018395"><ele>589.0</ele><time>2026-04-04T12:07:14Z</time></trkpt><trkpt lat="42.669342986698624" lon="12.336978905603695"><ele>589.0</ele><time>2026-04-04T12:07:16Z</time></trkpt><trkpt lat="42.66943215080598" lon="12.337035621921922"><ele>589.0</ele><time>2026-04-04T12:07:18Z</time></trkpt><trkpt lat="42.6695070299615" lon="12.337078125642636"><ele>589.0</ele><time>2026-04-04T12:07:20Z</time></trkpt><trkpt lat="42.66950715148482" lon="12.336896282932651"><ele>589.0</ele><time>2026-04-04T12:07:25Z</time></trkpt><trkpt lat="42.66943132870974" lon="12.336805745168615"><ele>589.0</ele><time>2026-04-04T12:07:27Z</time></trkpt><trkpt lat="42.66941202316131" lon="12.336669834642333"><ele>591.0</ele><time>2026-04-04T12:07:29Z</time></trkpt><trkpt lat="42.66946380911085" lon="12.336542488402086"><ele>593.0</ele><time>2026-04-04T12:07:31Z</time></trkpt><trkpt lat="42.669548838094855" lon="12.336424234931252"><ele>595.0</ele><time>2026-04-04T12:07:33Z</time></trkpt><trkpt lat="42.6696354525551" lon="12.336318260870257"><ele>597.0</ele><time>2026-04-04T12:07:35Z</time></trkpt><trkpt lat="42.669684607035784" lon="12.336255993888345"><ele>599.0</ele><time>2026-04-04T12:07:36Z</time></trkpt><trkpt lat="42.6697371441103" lon="12.336188071567436"><ele>599.6</ele><time>2026-04-04T12:07:37Z</time></trkpt><trkpt lat="42.66979443002593" lon="12.336114009794205"><ele>600.2</ele><time>2026-04-04T12:07:38Z</time></trkpt><trkpt lat="42.669856275896414" lon="12.336034052723045"><ele>600.8000000000001</ele><time>2026-04-04T12:07:39Z</time></trkpt><trkpt lat="42.66992383909313" lon="12.335946704024526"><ele>601.4</ele><time>2026-04-04T12:07:40Z</time></trkpt><trkpt lat="42.670000066662084" lon="12.335848153711"><ele>602.0</ele><time>2026-04-04T12:07:41Z</time></trkpt><trkpt lat="42.67007224261836" lon="12.335754841452097"><ele>602.0</ele><time>2026-04-04T12:07:42Z</time></trkpt><trkpt lat="42.670135404475296" lon="12.335643967571976"><ele>602.0</ele><time>2026-04-04T12:07:43Z</time></trkpt><trkpt lat="42.67020187366262" lon="12.33556563757924"><ele>602.0</ele><time>2026-04-04T12:07:44Z</time></trkpt><trkpt lat="42.67026919323862" lon="12.335489058569499"><ele>602.0</ele><time>2026-04-04T12:07:45Z</time></trkpt><trkpt lat="42.67032836462412" lon="12.335412235417824"><ele>602.0</ele><time>2026-04-04T12:07:46Z</time></trkpt><trkpt lat="42.67038610303013" lon="12.33533489479456"><ele>602.0</ele><time>2026-04-04T12:07:47Z</time></trkpt><trkpt lat="42.67045324893207" lon="12.335257298257773"><ele>604.6</ele><time>2026-04-04T12:07:48Z</time></trkpt><trkpt lat="42.670517310293825" lon="12.335163476585299"><ele>607.2</ele><time>2026-04-04T12:07:49Z</time></trkpt><trkpt lat="42.67060457106167" lon="12.335088465305239"><ele>609.8</ele><time>2026-04-04T12:07:50Z</time></trkpt><trkpt lat="42.6706844485065" lon="12.335009258766586"><ele>612.4</ele><time>2026-04-04T12:07:51Z</time></trkpt><trkpt lat="42.670771878422535" lon="12.334924258489533"><ele>615.0</ele><time>2026-04-04T12:07:52Z</time></trkpt><trkpt lat="42.670866677902424" lon="12.334847743821053"><ele>615.0</ele><time>2026-04-04T12:07:53Z</time></trkpt><trkpt lat="42.67095886805543" lon="12.33475994828855"><ele>615.0</ele><time>2026-04-04T12:07:54Z</time></trkpt><trkpt lat="42.67104204379833" lon="12.334653222895588"><ele>615.0</ele><time>2026-04-04T12:07:55Z</time></trkpt><trkpt lat="42.671112593144024" lon="12.334543059554829"><ele>615.0</ele><time>2026-04-04T12:07:56Z</time></trkpt><trkpt lat="42.67118050721137" lon="12.334428699521137"><ele>615.0</ele><time>2026-04-04T12:07:57Z</time></trkpt><trkpt lat="42.67125007566138" lon="12.334308821200983"><ele>618.75</ele><time>2026-04-04T12:07:58Z</time></trkpt><trkpt lat="42.67131951639318" lon="12.33418252222718"><ele>622.5</ele><time>2026-04-04T12:07:59Z</time></trkpt><trkpt lat="42.671391467445176" lon="12.334064292050426"><ele>626.25</ele><time>2026-04-04T12:08:00Z</time></trkpt><trkpt lat="42.67146708901507" lon="12.333947855080654"><ele>630.0</ele><time>2026-04-04T12:08:01Z</time></trkpt><trkpt lat="42.67155340225512" lon="12.333822002067103"><ele>630.0</ele><time>2026-04-04T12:08:02Z</time></trkpt><trkpt lat="42.67164719728256" lon="12.333678115175319"><ele>630.0</ele><time>2026-04-04T12:08:03Z</time></trkpt><trkpt lat="42.671745670096016" lon="12.333521573657684"><ele>630.0</ele><time>2026-04-04T12:08:04Z</time></trkpt><trkpt lat="42.671841219227794" lon="12.33335997757605"><ele>630.0</ele><time>2026-04-04T12:08:05.001Z</time></trkpt><trkpt lat="42.67192821542024" lon="12.33321864964007"><ele>631.25</ele><time>2026-04-04T12:08:06.001Z</time></trkpt><trkpt lat="42.67201198554986" lon="12.333098832752261"><ele>632.5</ele><time>2026-04-04T12:08:07.001Z</time></trkpt><trkpt lat="42.67209154782559" lon="12.332989820942512"><ele>633.75</ele><time>2026-04-04T12:08:08.001Z</time></trkpt><trkpt lat="42.672174151714636" lon="12.332890845316406"><ele>635.0</ele><time>2026-04-04T12:08:08.999Z</time></trkpt><trkpt lat="42.672265870003876" lon="12.3328027180327"><ele>635.0</ele><time>2026-04-04T12:08:09.999Z</time></trkpt><trkpt lat="42.67236682620448" lon="12.332725630858885"><ele>635.0</ele><time>2026-04-04T12:08:10.999Z</time></trkpt><trkpt lat="42.672468632314995" lon="12.332650214952297"><ele>635.0</ele><time>2026-04-04T12:08:11.999Z</time></trkpt><trkpt lat="42.67258064744107" lon="12.332609880593797"><ele>635.0</ele><time>2026-04-04T12:08:12.999Z</time></trkpt><trkpt lat="42.672669685394" lon="12.332532647497164"><ele>635.0</ele><time>2026-04-04T12:08:13.999Z</time></trkpt><trkpt lat="42.67275157988222" lon="12.332480844035956"><ele>635.0</ele><time>2026-04-04T12:08:14.999Z</time></trkpt><trkpt lat="42.67283117872595" lon="12.332440283691655"><ele>635.0</ele><time>2026-04-04T12:08:15.999Z</time></trkpt><trkpt lat="42.67291882198246" lon="12.33239908401255"><ele>635.0</ele><time>2026-04-04T12:08:16.999Z</time></trkpt><trkpt lat="42.673006967554485" lon="12.332359667129742"><ele>635.0</ele><time>2026-04-04T12:08:17.999Z</time></trkpt><trkpt lat="42.67309276539389" lon="12.332315267183326"><ele>635.1666666666666</ele><time>2026-04-04T12:08:18.999Z</time></trkpt><trkpt lat="42.67317321689366" lon="12.332267785063284"><ele>635.3333333333333</ele><time>2026-04-04T12:08:19.999Z</time></trkpt><trkpt lat="42.67324701150917" lon="12.332221538850307"><ele>635.5</ele><time>2026-04-04T12:08:20.999Z</time></trkpt><trkpt lat="42.67331960162123" lon="12.332168997147514"><ele>635.6666666666666</ele><time>2026-04-04T12:08:21.999Z</time></trkpt><trkpt lat="42.67339063913949" lon="12.332108047204633"><ele>635.8333333333334</ele><time>2026-04-04T12:08:22.999Z</time></trkpt><trkpt lat="42.67346027390573" lon="12.332043576999169"><ele>636.0</ele><time>2026-04-04T12:08:23.999Z</time></trkpt><trkpt lat="42.673531157980406" lon="12.331988726647415"><ele>636.2857142857142</ele><time>2026-04-04T12:08:24.999Z</time></trkpt><trkpt lat="42.67358852027089" lon="12.331928854624158"><ele>636.5714285714287</ele><time>2026-04-04T12:08:26Z</time></trkpt><trkpt lat="42.6736401392688" lon="12.331868035457743"><ele>636.8571428571429</ele><time>2026-04-04T12:08:27Z</time></trkpt><trkpt lat="42.67369842111912" lon="12.331815387074277"><ele>637.1428571428571</ele><time>2026-04-04T12:08:28Z</time></trkpt><trkpt lat="42.6737519589617" lon="12.331768167843782"><ele>637.4285714285713</ele><time>2026-04-04T12:08:29Z</time></trkpt><trkpt lat="42.67380957251626" lon="12.33172468281406"><ele>637.7142857142858</ele><time>2026-04-04T12:08:30Z</time></trkpt><trkpt lat="42.673866979948386" lon="12.331676902057659"><ele>638.0</ele><time>2026-04-04T12:08:31Z</time></trkpt><trkpt lat="42.673916159790465" lon="12.331621258844685"><ele>637.6666666666666</ele><time>2026-04-04T12:08:32Z</time></trkpt><trkpt lat="42.67395862609565" lon="12.331550886034004"><ele>637.3333333333333</ele><time>2026-04-04T12:08:33Z</time></trkpt><trkpt lat="42.67400300078993" lon="12.33148037329956"><ele>637.0</ele><time>2026-04-04T12:08:34Z</time></trkpt><trkpt lat="42.67403874418308" lon="12.331378205304823"><ele>636.6666666666666</ele><time>2026-04-04T12:08:35Z</time></trkpt><trkpt lat="42.67406990220098" lon="12.331271705683497"><ele>636.3333333333334</ele><time>2026-04-04T12:08:36Z</time></trkpt><trkpt lat="42.67409733632603" lon="12.33114968988514"><ele>636.0</ele><time>2026-04-04T12:08:37Z</time></trkpt><trkpt lat="42.67412541482278" lon="12.331040038692407"><ele>636.0</ele><time>2026-04-04T12:08:38Z</time></trkpt><trkpt lat="42.67415416748067" lon="12.3309277549559"><ele>636.0</ele><time>2026-04-04T12:08:39Z</time></trkpt><trkpt lat="42.67418650332149" lon="12.33082480797329"><ele>636.0</ele><time>2026-04-04T12:08:40Z</time></trkpt><trkpt lat="42.674231966819626" lon="12.330742151520424"><ele>636.0</ele><time>2026-04-04T12:08:41Z</time></trkpt><trkpt lat="42.6742981685351" lon="12.330690573213671"><ele>636.0</ele><time>2026-04-04T12:08:42Z</time></trkpt><trkpt lat="42.67437101695904" lon="12.33066838031577"><ele>636.0</ele><time>2026-04-04T12:08:43Z</time></trkpt><trkpt lat="42.674444595527504" lon="12.330634224151854"><ele>635.0</ele><time>2026-04-04T12:08:44Z</time></trkpt><trkpt lat="42.67452768773668" lon="12.330595539497692"><ele>634.0</ele><time>2026-04-04T12:08:45Z</time></trkpt><trkpt lat="42.67460742225727" lon="12.330555081685674"><ele>633.0</ele><time>2026-04-04T12:08:46Z</time></trkpt><trkpt lat="42.6746801987083" lon="12.330506099486994"><ele>632.0</ele><time>2026-04-04T12:08:47Z</time></trkpt><trkpt lat="42.67474329849518" lon="12.33045565739457"><ele>631.0</ele><time>2026-04-04T12:08:48Z</time></trkpt><trkpt lat="42.67480506821659" lon="12.33037951602664"><ele>630.0</ele><time>2026-04-04T12:08:49Z</time></trkpt><trkpt lat="42.67486486204755" lon="12.330294421999369"><ele>630.0</ele><time>2026-04-04T12:08:50Z</time></trkpt><trkpt lat="42.67491299464782" lon="12.330186068876564"><ele>630.0</ele><time>2026-04-04T12:08:51Z</time></trkpt><trkpt lat="42.67494527581993" lon="12.330078947314478"><ele>630.0</ele><time>2026-04-04T12:08:52Z</time></trkpt><trkpt lat="42.67497070192328" lon="12.329984521908525"><ele>630.0</ele><time>2026-04-04T12:08:53Z</time></trkpt><trkpt lat="42.67499541427383" lon="12.329885896423562"><ele>630.0</ele><time>2026-04-04T12:08:54Z</time></trkpt><trkpt lat="42.67501587368159" lon="12.329791529612512"><ele>630.0</ele><time>2026-04-04T12:08:55Z</time></trkpt><trkpt lat="42.6750311872152" lon="12.329703198588762"><ele>632.0</ele><time>2026-04-04T12:08:56Z</time></trkpt><trkpt lat="42.67505172549051" lon="12.329533352062402"><ele>634.0</ele><time>2026-04-04T12:08:58Z</time></trkpt><trkpt lat="42.67507165906405" lon="12.32939008990062"><ele>636.0</ele><time>2026-04-04T12:09:00Z</time></trkpt><trkpt lat="42.675118460934094" lon="12.329257923040657"><ele>638.0</ele><time>2026-04-04T12:09:02Z</time></trkpt><trkpt lat="42.67521922938238" lon="12.329153537484151"><ele>637.5714285714286</ele><time>2026-04-04T12:09:04Z</time></trkpt><trkpt lat="42.675281744797545" lon="12.329104498733766"><ele>637.1428571428571</ele><time>2026-04-04T12:09:05Z</time></trkpt><trkpt lat="42.67534844786124" lon="12.329059877200795"><ele>636.7142857142857</ele><time>2026-04-04T12:09:06Z</time></trkpt><trkpt lat="42.6754132456978" lon="12.328989258968504"><ele>636.2857142857142</ele><time>2026-04-04T12:09:07Z</time></trkpt><trkpt lat="42.6754821706156" lon="12.328946052434281"><ele>635.8571428571429</ele><time>2026-04-04T12:09:08Z</time></trkpt><trkpt lat="42.67554832097538" lon="12.328909156309534"><ele>635.4285714285713</ele><time>2026-04-04T12:09:09Z</time></trkpt><trkpt lat="42.675606472318755" lon="12.328867432792185"><ele>635.0</ele><time>2026-04-04T12:09:10Z</time></trkpt><trkpt lat="42.67569607802695" lon="12.328758432006543"><ele>635.0</ele><time>2026-04-04T12:09:12Z</time></trkpt><trkpt lat="42.67573130151019" lon="12.328667254816207"><ele>635.0</ele><time>2026-04-04T12:09:13Z</time></trkpt><trkpt lat="42.67576954416272" lon="12.32858540216658"><ele>635.0</ele><time>2026-04-04T12:09:14Z</time></trkpt><trkpt lat="42.67580212741783" lon="12.328505141682738"><ele>635.0</ele><time>2026-04-04T12:09:15Z</time></trkpt><trkpt lat="42.67581862772115" lon="12.32839812075962"><ele>635.0</ele><time>2026-04-04T12:09:16Z</time></trkpt><trkpt lat="42.6758482920867" lon="12.328227322268454"><ele>635.0</ele><time>2026-04-04T12:09:18Z</time></trkpt><trkpt lat="42.675857832213886" lon="12.328132386876716"><ele>636.3333333333333</ele><time>2026-04-04T12:09:19Z</time></trkpt><trkpt lat="42.675865152736336" lon="12.32804350238218"><ele>637.6666666666666</ele><time>2026-04-04T12:09:20Z</time></trkpt><trkpt lat="42.67583961519517" lon="12.327928887209314"><ele>639.0</ele><time>2026-04-04T12:09:21Z</time></trkpt><trkpt lat="42.675814221911686" lon="12.327839704135863"><ele>640.3333333333334</ele><time>2026-04-04T12:09:22Z</time></trkpt><trkpt lat="42.675816143185884" lon="12.327744011442833"><ele>641.6666666666667</ele><time>2026-04-04T12:09:23Z</time></trkpt><trkpt lat="42.67583884570284" lon="12.327584394408563"><ele>643.0</ele><time>2026-04-04T12:09:25Z</time></trkpt><trkpt lat="42.67590085865723" lon="12.32752678167427"><ele>643.0</ele><time>2026-04-04T12:09:26Z</time></trkpt><trkpt lat="42.67598147666055" lon="12.327507176691354"><ele>643.0</ele><time>2026-04-04T12:09:27Z</time></trkpt><trkpt lat="42.676060505700555" lon="12.32747573119327"><ele>643.0</ele><time>2026-04-04T12:09:28Z</time></trkpt><trkpt lat="42.67614352608131" lon="12.327446052582339"><ele>643.0</ele><time>2026-04-04T12:09:29Z</time></trkpt><trkpt lat="42.67622140808258" lon="12.327420780394476"><ele>643.0</ele><time>2026-04-04T12:09:30Z</time></trkpt><trkpt lat="42.67630631370478" lon="12.327370097906284"><ele>643.0</ele><time>2026-04-04T12:09:31Z</time></trkpt><trkpt lat="42.67639065646375" lon="12.327343226755369"><ele>642.5</ele><time>2026-04-04T12:09:32Z</time></trkpt><trkpt lat="42.67645869792187" lon="12.327288109654807"><ele>642.0</ele><time>2026-04-04T12:09:33Z</time></trkpt><trkpt lat="42.67651262805955" lon="12.3272204832016"><ele>641.5</ele><time>2026-04-04T12:09:34Z</time></trkpt><trkpt lat="42.67655822445213" lon="12.327131099383008"><ele>641.0</ele><time>2026-04-04T12:09:35Z</time></trkpt><trkpt lat="42.67659667988384" lon="12.32701798295273"><ele>640.5</ele><time>2026-04-04T12:09:36Z</time></trkpt><trkpt lat="42.67662315974255" lon="12.32690362641727"><ele>640.0</ele><time>2026-04-04T12:09:37Z</time></trkpt><trkpt lat="42.676669136841696" lon="12.326821979976353"><ele>640.0</ele><time>2026-04-04T12:09:38Z</time></trkpt><trkpt lat="42.67672340067043" lon="12.3266958079321"><ele>640.0</ele><time>2026-04-04T12:09:40Z</time></trkpt><trkpt lat="42.676787773559305" lon="12.326547516983467"><ele>640.0</ele><time>2026-04-04T12:09:42Z</time></trkpt><trkpt lat="42.676827497147734" lon="12.326461511325677"><ele>640.0</ele><time>2026-04-04T12:09:43Z</time></trkpt><trkpt lat="42.676870221222735" lon="12.326368504781309"><ele>640.0</ele><time>2026-04-04T12:09:44Z</time></trkpt><trkpt lat="42.6769314840385" lon="12.326298243638542"><ele>637.8333333333334</ele><time>2026-04-04T12:09:45Z</time></trkpt><trkpt lat="42.67699088932619" lon="12.326225337696455"><ele>635.6666666666667</ele><time>2026-04-04T12:09:46Z</time></trkpt><trkpt lat="42.67704827915924" lon="12.326149264891624"><ele>633.5</ele><time>2026-04-04T12:09:47Z</time></trkpt><trkpt lat="42.67711075853958" lon="12.326058528927271"><ele>631.3333333333334</ele><time>2026-04-04T12:09:48Z</time></trkpt><trkpt lat="42.67715419316821" lon="12.325943440758723"><ele>629.1666666666666</ele><time>2026-04-04T12:09:49Z</time></trkpt><trkpt lat="42.67720002234655" lon="12.32585512491716"><ele>627.0</ele><time>2026-04-04T12:09:50Z</time></trkpt><trkpt lat="42.67722751423978" lon="12.32576020141881"><ele>627.0</ele><time>2026-04-04T12:09:51Z</time></trkpt><trkpt lat="42.67723818953781" lon="12.325662815053736"><ele>627.0</ele><time>2026-04-04T12:09:52Z</time></trkpt><trkpt lat="42.67724031391805" lon="12.325566275345412"><ele>627.0</ele><time>2026-04-04T12:09:53Z</time></trkpt><trkpt lat="42.67719551789313" lon="12.325407367292105"><ele>627.0</ele><time>2026-04-04T12:09:55Z</time></trkpt><trkpt lat="42.67715422118146" lon="12.32533238907477"><ele>627.0</ele><time>2026-04-04T12:09:56Z</time></trkpt><trkpt lat="42.67714428789604" lon="12.325242405696534"><ele>627.0</ele><time>2026-04-04T12:09:57Z</time></trkpt><trkpt lat="42.67712684216737" lon="12.325159299276761"><ele>628.1428571428571</ele><time>2026-04-04T12:09:58Z</time></trkpt><trkpt lat="42.67713825203526" lon="12.325068717157418"><ele>629.2857142857142</ele><time>2026-04-04T12:09:59Z</time></trkpt><trkpt lat="42.677166362503954" lon="12.324982987035511"><ele>630.4285714285713</ele><time>2026-04-04T12:10:00Z</time></trkpt><trkpt lat="42.677192355973304" lon="12.32489208811646"><ele>631.5714285714286</ele><time>2026-04-04T12:10:01Z</time></trkpt><trkpt lat="42.67720180854363" lon="12.324798741754686"><ele>632.7142857142857</ele><time>2026-04-04T12:10:02Z</time></trkpt><trkpt lat="42.67724084123286" lon="12.324715372661798"><ele>633.8571428571428</ele><time>2026-04-04T12:10:03Z</time></trkpt><trkpt lat="42.67726858662983" lon="12.32462561412474"><ele>635.0</ele><time>2026-04-04T12:10:04Z</time></trkpt><trkpt lat="42.677295799867835" lon="12.324540619365976"><ele>636.8333333333333</ele><time>2026-04-04T12:10:05.001Z</time></trkpt><trkpt lat="42.67732266666342" lon="12.324461835420374"><ele>638.6666666666666</ele><time>2026-04-04T12:10:06.001Z</time></trkpt><trkpt lat="42.67733804732607" lon="12.324370575857522"><ele>640.5</ele><time>2026-04-04T12:10:07.001Z</time></trkpt><trkpt lat="42.677375577722835" lon="12.324293356908683"><ele>642.3333333333334</ele><time>2026-04-04T12:10:08.001Z</time></trkpt><trkpt lat="42.67743298580255" lon="12.324137320957796"><ele>644.1666666666667</ele><time>2026-04-04T12:10:10.001Z</time></trkpt><trkpt lat="42.67746003864503" lon="12.324054405476362"><ele>646.0</ele><time>2026-04-04T12:10:11.001Z</time></trkpt><trkpt lat="42.677518602918504" lon="12.323901809814027"><ele>647.8</ele><time>2026-04-04T12:10:13.001Z</time></trkpt><trkpt lat="42.67757725293502" lon="12.323739439883438"><ele>649.5999999999999</ele><time>2026-04-04T12:10:15Z</time></trkpt><trkpt lat="42.67759590427728" lon="12.323635222970983"><ele>651.4</ele><time>2026-04-04T12:10:16Z</time></trkpt><trkpt lat="42.67760800150501" lon="12.323538306907952"><ele>653.2</ele><time>2026-04-04T12:10:17Z</time></trkpt><trkpt lat="42.677597956728896" lon="12.323362278462248"><ele>655.0</ele><time>2026-04-04T12:10:19Z</time></trkpt><trkpt lat="42.677584840491036" lon="12.323270738925151"><ele>655.0</ele><time>2026-04-04T12:10:20Z</time></trkpt><trkpt lat="42.6775763505607" lon="12.323182672178051"><ele>655.0</ele><time>2026-04-04T12:10:21Z</time></trkpt><trkpt lat="42.67756324832582" lon="12.32309795396167"><ele>655.0</ele><time>2026-04-04T12:10:22Z</time></trkpt><trkpt lat="42.67754694720395" lon="12.322943487663835"><ele>655.0</ele><time>2026-04-04T12:10:24Z</time></trkpt><trkpt lat="42.67756154996406" lon="12.322802800660442"><ele>655.0</ele><time>2026-04-04T12:10:26Z</time></trkpt><trkpt lat="42.67756413912737" lon="12.322707947129576"><ele>655.0</ele><time>2026-04-04T12:10:27Z</time></trkpt><trkpt lat="42.67758621357902" lon="12.322616370434226"><ele>655.1666666666667</ele><time>2026-04-04T12:10:28Z</time></trkpt><trkpt lat="42.677593315214786" lon="12.322517080876771"><ele>655.3333333333334</ele><time>2026-04-04T12:10:29Z</time></trkpt><trkpt lat="42.67758710331365" lon="12.32240534548084"><ele>655.5</ele><time>2026-04-04T12:10:30Z</time></trkpt><trkpt lat="42.67758607120784" lon="12.32230383434679"><ele>655.6666666666666</ele><time>2026-04-04T12:10:31Z</time></trkpt><trkpt lat="42.67752668046083" lon="12.32217562527202"><ele>655.8333333333333</ele><time>2026-04-04T12:10:33Z</time></trkpt><trkpt lat="42.677463119998436" lon="12.322097649144212"><ele>656.0</ele><time>2026-04-04T12:10:35Z</time></trkpt><trkpt lat="42.67736698313198" lon="12.322060300828284"><ele>654.4</ele><time>2026-04-04T12:10:37Z</time></trkpt><trkpt lat="42.677257420870355" lon="12.32199588751336"><ele>652.8</ele><time>2026-04-04T12:10:39Z</time></trkpt><trkpt lat="42.677149494117785" lon="12.321949805261795"><ele>651.1999999999999</ele><time>2026-04-04T12:10:41Z</time></trkpt><trkpt lat="42.6770414593006" lon="12.321903292923794"><ele>649.5999999999999</ele><time>2026-04-04T12:10:43Z</time></trkpt><trkpt lat="42.67698465321679" lon="12.321831494784691"><ele>648.0</ele><time>2026-04-04T12:10:45Z</time></trkpt><trkpt lat="42.676923115509794" lon="12.321782753501786"><ele>650.8</ele><time>2026-04-04T12:10:47Z</time></trkpt><trkpt lat="42.67686750055264" lon="12.32169888998892"><ele>653.5999999999999</ele><time>2026-04-04T12:10:49Z</time></trkpt><trkpt lat="42.67683415928624" lon="12.321592515651563"><ele>656.4000000000001</ele><time>2026-04-04T12:10:51Z</time></trkpt><trkpt lat="42.67681741175769" lon="12.321447508178796"><ele>659.2</ele><time>2026-04-04T12:10:53Z</time></trkpt><trkpt lat="42.676804000583395" lon="12.321305136643375"><ele>662.0</ele><time>2026-04-04T12:10:55Z</time></trkpt><trkpt lat="42.676775400078874" lon="12.321165197943682"><ele>662.0</ele><time>2026-04-04T12:10:57Z</time></trkpt><trkpt lat="42.67673174736091" lon="12.321022563017266"><ele>662.0</ele><time>2026-04-04T12:10:59Z</time></trkpt><trkpt lat="42.67665823158545" lon="12.320950447503725"><ele>662.0</ele><time>2026-04-04T12:11:01Z</time></trkpt><trkpt lat="42.67660777069671" lon="12.320873172273652"><ele>662.0</ele><time>2026-04-04T12:11:03Z</time></trkpt><trkpt lat="42.676556271290295" lon="12.320823624927066"><ele>662.0</ele><time>2026-04-04T12:11:04Z</time></trkpt><trkpt lat="42.67649366325815" lon="12.320778282066366"><ele>662.0</ele><time>2026-04-04T12:11:05Z</time></trkpt><trkpt lat="42.67639056988828" lon="12.320724279110012"><ele>662.0</ele><time>2026-04-04T12:11:07Z</time></trkpt><trkpt lat="42.67629079325595" lon="12.320706481937263"><ele>662.0</ele><time>2026-04-04T12:11:09Z</time></trkpt><trkpt lat="42.67619270161768" lon="12.32071963906686"><ele>662.0</ele><time>2026-04-04T12:11:11Z</time></trkpt><trkpt lat="42.67609132229275" lon="12.320749668186915"><ele>662.0</ele><time>2026-04-04T12:11:13Z</time></trkpt><trkpt lat="42.675990151469854" lon="12.320767334517335"><ele>662.0</ele><time>2026-04-04T12:11:15Z</time></trkpt><trkpt lat="42.67589081763848" lon="12.320739671277599"><ele>663.4000000000001</ele><time>2026-04-04T12:11:17Z</time></trkpt><trkpt lat="42.675835415681746" lon="12.320659401049996"><ele>664.8000000000001</ele><time>2026-04-04T12:11:19Z</time></trkpt><trkpt lat="42.67575345831702" lon="12.32059105818144"><ele>666.2</ele><time>2026-04-04T12:11:21Z</time></trkpt><trkpt lat="42.67567081383074" lon="12.320492917650524"><ele>667.6</ele><time>2026-04-04T12:11:23Z</time></trkpt><trkpt lat="42.675608434001525" lon="12.320481092122606"><ele>669.0</ele><time>2026-04-04T12:11:24Z</time></trkpt><trkpt lat="42.67548626362913" lon="12.320465661697094"><ele>669.0</ele><time>2026-04-04T12:11:26Z</time></trkpt><trkpt lat="42.67536624362096" lon="12.320488200389404"><ele>669.0</ele><time>2026-04-04T12:11:28Z</time></trkpt><trkpt lat="42.67524829710884" lon="12.320523303404755"><ele>669.0</ele><time>2026-04-04T12:11:30Z</time></trkpt><trkpt lat="42.675143367683276" lon="12.320553915997765"><ele>669.0</ele><time>2026-04-04T12:11:32Z</time></trkpt><trkpt lat="42.67502213672885" lon="12.320576676899778"><ele>671.2</ele><time>2026-04-04T12:11:34.001Z</time></trkpt><trkpt lat="42.6749519005932" lon="12.320555706791986"><ele>673.4000000000001</ele><time>2026-04-04T12:11:35.001Z</time></trkpt><trkpt lat="42.67483619354455" lon="12.320564071779206"><ele>675.6</ele><time>2026-04-04T12:11:37.001Z</time></trkpt><trkpt lat="42.67472409982934" lon="12.320548352178085"><ele>677.8</ele><time>2026-04-04T12:11:39.001Z</time></trkpt><trkpt lat="42.67460887454213" lon="12.320570004158155"><ele>680.0</ele><time>2026-04-04T12:11:41.001Z</time></trkpt><trkpt lat="42.67454320906698" lon="12.32058590729907"><ele>683.0</ele><time>2026-04-04T12:11:42.001Z</time></trkpt><trkpt lat="42.674478833793124" lon="12.32058467839245"><ele>686.0</ele><time>2026-04-04T12:11:43.001Z</time></trkpt><trkpt lat="42.67441604879635" lon="12.320614897712229"><ele>689.0</ele><time>2026-04-04T12:11:44.001Z</time></trkpt><trkpt lat="42.67435736641844" lon="12.320647576360718"><ele>692.0</ele><time>2026-04-04T12:11:45.001Z</time></trkpt><trkpt lat="42.674301720227184" lon="12.320701431314276"><ele>695.0</ele><time>2026-04-04T12:11:46.001Z</time></trkpt><trkpt lat="42.67419487328495" lon="12.32077385988142"><ele>698.0</ele><time>2026-04-04T12:11:48.001Z</time></trkpt><trkpt lat="42.67408867393513" lon="12.320851151823803"><ele>698.0</ele><time>2026-04-04T12:11:50.001Z</time></trkpt><trkpt lat="42.67398901185471" lon="12.320920020484413"><ele>698.0</ele><time>2026-04-04T12:11:52.001Z</time></trkpt><trkpt lat="42.6739227133237" lon="12.320968499546828"><ele>698.0</ele><time>2026-04-04T12:11:54.001Z</time></trkpt><trkpt lat="42.673863429212595" lon="12.321052979680394"><ele>698.0</ele><time>2026-04-04T12:11:56.001Z</time></trkpt><trkpt lat="42.67378432056075" lon="12.321144569072006"><ele>698.0</ele><time>2026-04-04T12:11:58.001Z</time></trkpt><trkpt lat="42.67371427412219" lon="12.321231689542444"><ele>698.0</ele><time>2026-04-04T12:12:00.001Z</time></trkpt><trkpt lat="42.673622237091294" lon="12.321308892653402"><ele>698.0</ele><time>2026-04-04T12:12:02.001Z</time></trkpt><trkpt lat="42.673534741772926" lon="12.321315824744426"><ele>698.0</ele><time>2026-04-04T12:12:04.001Z</time></trkpt><trkpt lat="42.67345472386166" lon="12.321250669948954"><ele>698.0</ele><time>2026-04-04T12:12:06.001Z</time></trkpt><trkpt lat="42.67345583034733" lon="12.321121953084964"><ele>698.0</ele><time>2026-04-04T12:12:08.001Z</time></trkpt><trkpt lat="42.673486065281296" lon="12.32100744420374"><ele>699.5</ele><time>2026-04-04T12:12:10.001Z</time></trkpt><trkpt lat="42.673513666025094" lon="12.320845183359328"><ele>701.0</ele><time>2026-04-04T12:12:12.001Z</time></trkpt><trkpt lat="42.673546831142765" lon="12.320771103807047"><ele>702.5</ele><time>2026-04-04T12:12:13.001Z</time></trkpt><trkpt lat="42.67357242425247" lon="12.320669987804527"><ele>704.0</ele><time>2026-04-04T12:12:14.001Z</time></trkpt><trkpt lat="42.673592179313125" lon="12.320577238179153"><ele>705.5</ele><time>2026-04-04T12:12:15.001Z</time></trkpt><trkpt lat="42.673594692170674" lon="12.320480004057892"><ele>707.0</ele><time>2026-04-04T12:12:16.001Z</time></trkpt><trkpt lat="42.67359721405288" lon="12.320386665200335"><ele>707.0</ele><time>2026-04-04T12:12:17.001Z</time></trkpt><trkpt lat="42.67355585901563" lon="12.32022653606171"><ele>707.0</ele><time>2026-04-04T12:12:19.001Z</time></trkpt><trkpt lat="42.67348389050896" lon="12.320091590878095"><ele>707.0</ele><time>2026-04-04T12:12:21Z</time></trkpt><trkpt lat="42.67338181961018" lon="12.319988994547405"><ele>707.0</ele><time>2026-04-04T12:12:23Z</time></trkpt><trkpt lat="42.673322413299736" lon="12.319951933224422"><ele>707.0</ele><time>2026-04-04T12:12:24Z</time></trkpt><trkpt lat="42.67326170256746" lon="12.319915057596866"><ele>707.0</ele><time>2026-04-04T12:12:25Z</time></trkpt><trkpt lat="42.67319485988499" lon="12.319904048094239"><ele>707.0</ele><time>2026-04-04T12:12:26Z</time></trkpt><trkpt lat="42.67312916140688" lon="12.319868722124241"><ele>707.0</ele><time>2026-04-04T12:12:27Z</time></trkpt><trkpt lat="42.67306234893557" lon="12.319832071507536"><ele>707.0</ele><time>2026-04-04T12:12:28Z</time></trkpt><trkpt lat="42.67299671983682" lon="12.319797999451726"><ele>707.0</ele><time>2026-04-04T12:12:29Z</time></trkpt><trkpt lat="42.6729351441505" lon="12.319762774676757"><ele>707.0</ele><time>2026-04-04T12:12:30Z</time></trkpt><trkpt lat="42.672874284315" lon="12.319731545121744"><ele>707.0</ele><time>2026-04-04T12:12:31Z</time></trkpt><trkpt lat="42.67275573092308" lon="12.319670071851023"><ele>709.0</ele><time>2026-04-04T12:12:33Z</time></trkpt><trkpt lat="42.67269400079815" lon="12.319635976961651"><ele>711.0</ele><time>2026-04-04T12:12:34Z</time></trkpt><trkpt lat="42.672629894594955" lon="12.319604184007446"><ele>713.0</ele><time>2026-04-04T12:12:35Z</time></trkpt><trkpt lat="42.672571420679304" lon="12.319556599607253"><ele>715.0</ele><time>2026-04-04T12:12:36Z</time></trkpt><trkpt lat="42.67249977922505" lon="12.319545519434568"><ele>717.0</ele><time>2026-04-04T12:12:37Z</time></trkpt><trkpt lat="42.672438806744175" lon="12.319513851953944"><ele>719.0</ele><time>2026-04-04T12:12:38Z</time></trkpt><trkpt lat="42.672331056996605" lon="12.319442348111767"><ele>719.0</ele><time>2026-04-04T12:12:40Z</time></trkpt><trkpt lat="42.67227897691455" lon="12.319390466763446"><ele>719.0</ele><time>2026-04-04T12:12:41Z</time></trkpt><trkpt lat="42.67218277631164" lon="12.319322671638695"><ele>719.0</ele><time>2026-04-04T12:12:43Z</time></trkpt><trkpt lat="42.67210024628753" lon="12.319261145718007"><ele>719.0</ele><time>2026-04-04T12:12:45Z</time></trkpt><trkpt lat="42.67200548687629" lon="12.31921395413429"><ele>719.0</ele><time>2026-04-04T12:12:47Z</time></trkpt><trkpt lat="42.67189493104023" lon="12.31917311588552"><ele>721.1666666666666</ele><time>2026-04-04T12:12:49Z</time></trkpt><trkpt lat="42.67180479093053" lon="12.31913435987679"><ele>723.3333333333333</ele><time>2026-04-04T12:12:51Z</time></trkpt><trkpt lat="42.67175658838025" lon="12.319067644459237"><ele>725.5</ele><time>2026-04-04T12:12:53Z</time></trkpt><trkpt lat="42.67173064361997" lon="12.318969596062333"><ele>727.6666666666666</ele><time>2026-04-04T12:12:55Z</time></trkpt><trkpt lat="42.67175759559784" lon="12.318859312638892"><ele>729.8333333333334</ele><time>2026-04-04T12:12:57Z</time></trkpt><trkpt lat="42.67184364609424" lon="12.318766157232105"><ele>732.0</ele><time>2026-04-04T12:12:59Z</time></trkpt><trkpt lat="42.671949909645015" lon="12.318728979859504"><ele>732.0</ele><time>2026-04-04T12:13:01Z</time></trkpt><trkpt lat="42.672055743776596" lon="12.31868536695639"><ele>732.0</ele><time>2026-04-04T12:13:03Z</time></trkpt><trkpt lat="42.67216319154395" lon="12.318620352835776"><ele>732.0</ele><time>2026-04-04T12:13:05Z</time></trkpt><trkpt lat="42.67222111020873" lon="12.318578969604031"><ele>732.0</ele><time>2026-04-04T12:13:06Z</time></trkpt><trkpt lat="42.67228371145103" lon="12.31853999883072"><ele>732.0</ele><time>2026-04-04T12:13:07Z</time></trkpt><trkpt lat="42.67234433586031" lon="12.318502137246178"><ele>732.0</ele><time>2026-04-04T12:13:08Z</time></trkpt><trkpt lat="42.672401773870035" lon="12.318461148762971"><ele>732.0</ele><time>2026-04-04T12:13:09Z</time></trkpt><trkpt lat="42.6725161334863" lon="12.318412706149406"><ele>732.0</ele><time>2026-04-04T12:13:11Z</time></trkpt><trkpt lat="42.67261962723525" lon="12.318343207332724"><ele>732.0</ele><time>2026-04-04T12:13:13Z</time></trkpt><trkpt lat="42.672694474287276" lon="12.31822002350144"><ele>732.0</ele><time>2026-04-04T12:13:15Z</time></trkpt><trkpt lat="42.67274042477232" lon="12.318066379031256"><ele>730.6666666666666</ele><time>2026-04-04T12:13:17Z</time></trkpt><trkpt lat="42.67275711986501" lon="12.31798351167473"><ele>729.3333333333334</ele><time>2026-04-04T12:13:18Z</time></trkpt><trkpt lat="42.67278706503877" lon="12.317812197713279"><ele>728.0</ele><time>2026-04-04T12:13:20Z</time></trkpt><trkpt lat="42.67279885057946" lon="12.317726634121335"><ele>726.6666666666667</ele><time>2026-04-04T12:13:21Z</time></trkpt><trkpt lat="42.672814874891635" lon="12.317634577225693"><ele>725.3333333333334</ele><time>2026-04-04T12:13:22Z</time></trkpt><trkpt lat="42.67283008776772" lon="12.317542341828624"><ele>724.0</ele><time>2026-04-04T12:13:23Z</time></trkpt><trkpt lat="42.67284396419535" lon="12.317451338058712"><ele>724.0</ele><time>2026-04-04T12:13:24Z</time></trkpt><trkpt lat="42.67285914902369" lon="12.317358150603766"><ele>724.0</ele><time>2026-04-04T12:13:25Z</time></trkpt><trkpt lat="42.67287044959654" lon="12.317265258022621"><ele>724.0</ele><time>2026-04-04T12:13:26Z</time></trkpt><trkpt lat="42.67288785743941" lon="12.317181547766328"><ele>724.0</ele><time>2026-04-04T12:13:27Z</time></trkpt><trkpt lat="42.672954188068054" lon="12.317050338835742"><ele>724.0</ele><time>2026-04-04T12:13:29Z</time></trkpt><trkpt lat="42.67303604697011" lon="12.316942287674724"><ele>724.0</ele><time>2026-04-04T12:13:31Z</time></trkpt><trkpt lat="42.673120701202436" lon="12.31685279470364"><ele>727.5</ele><time>2026-04-04T12:13:33Z</time></trkpt><trkpt lat="42.67318424874113" lon="12.316738537804065"><ele>731.0</ele><time>2026-04-04T12:13:35.001Z</time></trkpt><trkpt lat="42.673213214001535" lon="12.316635340384344"><ele>734.5</ele><time>2026-04-04T12:13:37.001Z</time></trkpt><trkpt lat="42.67323229601551" lon="12.31653836092469"><ele>738.0</ele><time>2026-04-04T12:13:39.001Z</time></trkpt><trkpt lat="42.67324966250938" lon="12.316415068270084"><ele>741.5</ele><time>2026-04-04T12:13:41.001Z</time></trkpt><trkpt lat="42.673280645927015" lon="12.316294082362889"><ele>745.0</ele><time>2026-04-04T12:13:43.001Z</time></trkpt><trkpt lat="42.67332527727618" lon="12.316184112287857"><ele>748.2</ele><time>2026-04-04T12:13:45.001Z</time></trkpt><trkpt lat="42.6733665314414" lon="12.316087605851664"><ele>751.4</ele><time>2026-04-04T12:13:47.001Z</time></trkpt><trkpt lat="42.67339363406495" lon="12.315943219518346"><ele>754.5999999999999</ele><time>2026-04-04T12:13:49.001Z</time></trkpt><trkpt lat="42.67341787625426" lon="12.31582555444159"><ele>757.8</ele><time>2026-04-04T12:13:51.001Z</time></trkpt><trkpt lat="42.67345013135226" lon="12.315695510906481"><ele>761.0</ele><time>2026-04-04T12:13:53.001Z</time></trkpt><trkpt lat="42.67348195616205" lon="12.315551167254464"><ele>763.0</ele><time>2026-04-04T12:13:55.001Z</time></trkpt><trkpt lat="42.673507371169016" lon="12.315418464820416"><ele>765.0</ele><time>2026-04-04T12:13:57.001Z</time></trkpt><trkpt lat="42.67353342303463" lon="12.315306720439578"><ele>767.0</ele><time>2026-04-04T12:13:59.001Z</time></trkpt><trkpt lat="42.673543756897345" lon="12.315170628438617"><ele>769.0</ele><time>2026-04-04T12:14:01.001Z</time></trkpt><trkpt lat="42.67355788789758" lon="12.315028554754873"><ele>771.0</ele><time>2026-04-04T12:14:03.001Z</time></trkpt><trkpt lat="42.67358908700608" lon="12.314860136273207"><ele>771.0</ele><time>2026-04-04T12:14:05.001Z</time></trkpt><trkpt lat="42.67360057986753" lon="12.314698656922344"><ele>771.0</ele><time>2026-04-04T12:14:07.001Z</time></trkpt><trkpt lat="42.673602048982026" lon="12.314544060249885"><ele>771.0</ele><time>2026-04-04T12:14:09.001Z</time></trkpt><trkpt lat="42.67358274686252" lon="12.314392897517456"><ele>771.0</ele><time>2026-04-04T12:14:11.001Z</time></trkpt><trkpt lat="42.67356572355126" lon="12.314281291656474"><ele>771.0</ele><time>2026-04-04T12:14:13.001Z</time></trkpt><trkpt lat="42.67353742448833" lon="12.314185076775145"><ele>771.0</ele><time>2026-04-04T12:14:15.001Z</time></trkpt><trkpt lat="42.67349796966205" lon="12.31411161707772"><ele>771.0</ele><time>2026-04-04T12:14:18.001Z</time></trkpt><trkpt lat="42.67341765235448" lon="12.314114839915522"><ele>771.0</ele><time>2026-04-04T12:25:24Z</time></trkpt><trkpt lat="42.67335181353647" lon="12.314061495990098"><ele>771.0</ele><time>2026-04-04T12:25:26Z</time></trkpt><trkpt lat="42.67329096727682" lon="12.313977476762846"><ele>771.0</ele><time>2026-04-04T12:25:28Z</time></trkpt><trkpt lat="42.67325298200829" lon="12.313840448993236"><ele>771.0</ele><time>2026-04-04T12:25:30Z</time></trkpt><trkpt lat="42.673236470608394" lon="12.313693768265365"><ele>771.0</ele><time>2026-04-04T12:25:32Z</time></trkpt><trkpt lat="42.67320901000721" lon="12.313601186197731"><ele>771.0</ele><time>2026-04-04T12:25:33Z</time></trkpt><trkpt lat="42.673167073588424" lon="12.313470661637295"><ele>771.0</ele><time>2026-04-04T12:25:35Z</time></trkpt><trkpt lat="42.673128250425904" lon="12.313357038107602"><ele>771.0</ele><time>2026-04-04T12:25:37Z</time></trkpt><trkpt lat="42.673107290866575" lon="12.313251105194608"><ele>771.0</ele><time>2026-04-04T12:25:46Z</time></trkpt><trkpt lat="42.673050188310945" lon="12.31317427816226"><ele>771.0</ele><time>2026-04-04T12:25:48Z</time></trkpt><trkpt lat="42.67298314832593" lon="12.313101214421888"><ele>770.1428571428572</ele><time>2026-04-04T12:25:50Z</time></trkpt><trkpt lat="42.67292970207664" lon="12.313017264826088"><ele>769.2857142857142</ele><time>2026-04-04T12:25:52Z</time></trkpt><trkpt lat="42.672911429614764" lon="12.312932190485517"><ele>768.4285714285714</ele><time>2026-04-04T12:25:54Z</time></trkpt><trkpt lat="42.67295277184066" lon="12.31283787681684"><ele>767.5714285714287</ele><time>2026-04-04T12:25:57Z</time></trkpt><trkpt lat="42.673014503400594" lon="12.312788283023744"><ele>766.7142857142858</ele><time>2026-04-04T12:25:59Z</time></trkpt><trkpt lat="42.673080998099714" lon="12.312726765431687"><ele>765.8571428571429</ele><time>2026-04-04T12:26:01Z</time></trkpt><trkpt lat="42.67312881565336" lon="12.312667709194622"><ele>765.0</ele><time>2026-04-04T12:26:03Z</time></trkpt><trkpt lat="42.67316531290783" lon="12.312579741677144"><ele>765.0</ele><time>2026-04-04T12:26:05Z</time></trkpt><trkpt lat="42.67318502445758" lon="12.312487749987792"><ele>765.0</ele><time>2026-04-04T12:26:07Z</time></trkpt><trkpt lat="42.67319871403724" lon="12.312368372579758"><ele>765.0</ele><time>2026-04-04T12:26:09Z</time></trkpt><trkpt lat="42.673192749920645" lon="12.312204006942698"><ele>765.0</ele><time>2026-04-04T12:26:11Z</time></trkpt><trkpt lat="42.67319521596338" lon="12.31211724775919"><ele>765.0</ele><time>2026-04-04T12:26:12Z</time></trkpt><trkpt lat="42.67320209136099" lon="12.312024909253747"><ele>765.0</ele><time>2026-04-04T12:26:13Z</time></trkpt><trkpt lat="42.67320317079974" lon="12.311933539754977"><ele>764.2857142857143</ele><time>2026-04-04T12:26:14Z</time></trkpt><trkpt lat="42.673218875920476" lon="12.311839852809475"><ele>763.5714285714286</ele><time>2026-04-04T12:26:15Z</time></trkpt><trkpt lat="42.673207870733386" lon="12.311741831872164"><ele>762.8571428571429</ele><time>2026-04-04T12:26:16Z</time></trkpt><trkpt lat="42.67321153764852" lon="12.311645955536411"><ele>762.1428571428571</ele><time>2026-04-04T12:26:17Z</time></trkpt><trkpt lat="42.67323362192021" lon="12.3115507570193"><ele>761.4285714285714</ele><time>2026-04-04T12:26:18Z</time></trkpt><trkpt lat="42.673240164579816" lon="12.311450256832506"><ele>760.7142857142858</ele><time>2026-04-04T12:26:19Z</time></trkpt><trkpt lat="42.67323520563697" lon="12.311347214581524"><ele>760.0</ele><time>2026-04-04T12:26:20Z</time></trkpt><trkpt lat="42.6732561555603" lon="12.311250639281823"><ele>759.3333333333334</ele><time>2026-04-04T12:26:21Z</time></trkpt><trkpt lat="42.67326625690094" lon="12.311158987696388"><ele>758.6666666666667</ele><time>2026-04-04T12:26:22Z</time></trkpt><trkpt lat="42.673276488166564" lon="12.311072444760242"><ele>758.0</ele><time>2026-04-04T12:26:23Z</time></trkpt><trkpt lat="42.67328840648942" lon="12.31098423282551"><ele>757.3333333333334</ele><time>2026-04-04T12:26:24Z</time></trkpt><trkpt lat="42.67330130661453" lon="12.310898219565216"><ele>756.6666666666666</ele><time>2026-04-04T12:26:25Z</time></trkpt><trkpt lat="42.673328127413555" lon="12.310736998810418"><ele>756.0</ele><time>2026-04-04T12:26:27Z</time></trkpt><trkpt lat="42.67332928322898" lon="12.310647817421115"><ele>755.5</ele><time>2026-04-04T12:26:28Z</time></trkpt><trkpt lat="42.67336033728877" lon="12.310570550625624"><ele>755.0</ele><time>2026-04-04T12:26:29Z</time></trkpt><trkpt lat="42.67336099199175" lon="12.31048051409305"><ele>754.5</ele><time>2026-04-04T12:26:30Z</time></trkpt><trkpt lat="42.67337730817298" lon="12.310396373856323"><ele>754.0</ele><time>2026-04-04T12:26:31Z</time></trkpt><trkpt lat="42.673391399652346" lon="12.310310689126606"><ele>753.5</ele><time>2026-04-04T12:26:32Z</time></trkpt><trkpt lat="42.67340120578245" lon="12.310148837932232"><ele>753.0</ele><time>2026-04-04T12:26:34Z</time></trkpt><trkpt lat="42.67339467670807" lon="12.309986835408235"><ele>753.0</ele><time>2026-04-04T12:26:36Z</time></trkpt><trkpt lat="42.673355923869835" lon="12.309835284144814"><ele>753.0</ele><time>2026-04-04T12:26:38Z</time></trkpt><trkpt lat="42.67334062535907" lon="12.309749940501728"><ele>753.0</ele><time>2026-04-04T12:26:39Z</time></trkpt><trkpt lat="42.673319502928145" lon="12.309662211978697"><ele>753.0</ele><time>2026-04-04T12:26:40Z</time></trkpt><trkpt lat="42.673302281690674" lon="12.309578379049457"><ele>753.0</ele><time>2026-04-04T12:26:41Z</time></trkpt><trkpt lat="42.673269778162265" lon="12.309429947360703"><ele>753.0</ele><time>2026-04-04T12:26:43Z</time></trkpt><trkpt lat="42.67326409213855" lon="12.30929045842905"><ele>752.4</ele><time>2026-04-04T12:26:45Z</time></trkpt><trkpt lat="42.67325124251485" lon="12.30915532684362"><ele>751.8</ele><time>2026-04-04T12:26:47Z</time></trkpt><trkpt lat="42.67324483061154" lon="12.309019925952667"><ele>751.2</ele><time>2026-04-04T12:26:49Z</time></trkpt><trkpt lat="42.6732408578332" lon="12.308889359735536"><ele>750.6</ele><time>2026-04-04T12:26:51Z</time></trkpt><trkpt lat="42.673237513836845" lon="12.308772404466518"><ele>750.0</ele><time>2026-04-04T12:26:53Z</time></trkpt><trkpt lat="42.67323500516333" lon="12.308653774798271"><ele>749.0</ele><time>2026-04-04T12:26:55Z</time></trkpt><trkpt lat="42.67323344183868" lon="12.308530545855138"><ele>748.0</ele><time>2026-04-04T12:26:57Z</time></trkpt><trkpt lat="42.673236503691385" lon="12.308387455697002"><ele>747.0</ele><time>2026-04-04T12:26:59Z</time></trkpt><trkpt lat="42.6732454882711" lon="12.308252776234582"><ele>746.0</ele><time>2026-04-04T12:27:01Z</time></trkpt><trkpt lat="42.67326278381269" lon="12.3081549721721"><ele>745.0</ele><time>2026-04-04T12:27:03Z</time></trkpt><trkpt lat="42.67330567602968" lon="12.30806562731704"><ele>744.0</ele><time>2026-04-04T12:27:11Z</time></trkpt><trkpt lat="42.67337661355199" lon="12.307996520050132"><ele>743.4000000000001</ele><time>2026-04-04T12:27:14Z</time></trkpt><trkpt lat="42.67345582684986" lon="12.307935302399043"><ele>742.8</ele><time>2026-04-04T12:27:16Z</time></trkpt><trkpt lat="42.673542441771474" lon="12.307868565394854"><ele>742.2</ele><time>2026-04-04T12:27:18Z</time></trkpt><trkpt lat="42.673621816498716" lon="12.307780107039266"><ele>741.5999999999999</ele><time>2026-04-04T12:27:20Z</time></trkpt><trkpt lat="42.67371369976439" lon="12.307708046039906"><ele>741.0</ele><time>2026-04-04T12:27:22Z</time></trkpt><trkpt lat="42.67380958615998" lon="12.307629407442459"><ele>741.4</ele><time>2026-04-04T12:27:24Z</time></trkpt><trkpt lat="42.67388088914949" lon="12.307519793927877"><ele>741.8</ele><time>2026-04-04T12:27:26Z</time></trkpt><trkpt lat="42.673955134763425" lon="12.30742445498743"><ele>742.1999999999999</ele><time>2026-04-04T12:27:28Z</time></trkpt><trkpt lat="42.674020771576586" lon="12.307323915900525"><ele>742.5999999999999</ele><time>2026-04-04T12:27:30Z</time></trkpt><trkpt lat="42.674084607680044" lon="12.307224422012524"><ele>743.0</ele><time>2026-04-04T12:27:32Z</time></trkpt><trkpt lat="42.67415770947769" lon="12.307128079096268"><ele>743.0</ele><time>2026-04-04T12:27:34Z</time></trkpt><trkpt lat="42.67422402984884" lon="12.307005704467953"><ele>743.0</ele><time>2026-04-04T12:27:36Z</time></trkpt><trkpt lat="42.674276082725235" lon="12.306869095997873"><ele>743.0</ele><time>2026-04-04T12:27:38Z</time></trkpt><trkpt lat="42.67433778847104" lon="12.306760710338997"><ele>743.0</ele><time>2026-04-04T12:27:40Z</time></trkpt><trkpt lat="42.67438919167263" lon="12.306668153133993"><ele>743.0</ele><time>2026-04-04T12:27:42Z</time></trkpt><trkpt lat="42.67444129324931" lon="12.306578256089734"><ele>738.0</ele><time>2026-04-04T12:27:44Z</time></trkpt><trkpt lat="42.67450397675913" lon="12.306481259370557"><ele>733.0</ele><time>2026-04-04T12:27:46Z</time></trkpt><trkpt lat="42.67454472534727" lon="12.306375606305958"><ele>728.0</ele><time>2026-04-04T12:27:48Z</time></trkpt><trkpt lat="42.67459941778176" lon="12.306280581054864"><ele>723.0</ele><time>2026-04-04T12:27:50Z</time></trkpt><trkpt lat="42.67464434456781" lon="12.30616612160748"><ele>718.0</ele><time>2026-04-04T12:27:52Z</time></trkpt><trkpt lat="42.674684073218906" lon="12.306043250524459"><ele>718.0</ele><time>2026-04-04T12:27:54Z</time></trkpt><trkpt lat="42.67471372202545" lon="12.305940761493591"><ele>718.0</ele><time>2026-04-04T12:27:56Z</time></trkpt><trkpt lat="42.674736562447045" lon="12.305822841575255"><ele>718.0</ele><time>2026-04-04T12:27:58Z</time></trkpt><trkpt lat="42.67476732641124" lon="12.305711599822102"><ele>718.0</ele><time>2026-04-04T12:28:00Z</time></trkpt><trkpt lat="42.674807166903435" lon="12.305592360198512"><ele>718.0</ele><time>2026-04-04T12:28:02Z</time></trkpt><trkpt lat="42.67482842999616" lon="12.305466394304139"><ele>718.0</ele><time>2026-04-04T12:28:04Z</time></trkpt><trkpt lat="42.67482157574234" lon="12.305346488561286"><ele>718.2</ele><time>2026-04-04T12:28:06Z</time></trkpt><trkpt lat="42.67481119992914" lon="12.305222698824831"><ele>718.4</ele><time>2026-04-04T12:28:08Z</time></trkpt><trkpt lat="42.67482573823282" lon="12.30509876636844"><ele>718.6</ele><time>2026-04-04T12:28:10Z</time></trkpt><trkpt lat="42.67481076783695" lon="12.304963060741036"><ele>718.8000000000001</ele><time>2026-04-04T12:28:12Z</time></trkpt><trkpt lat="42.674825188506766" lon="12.304828240773018"><ele>719.0</ele><time>2026-04-04T12:28:14Z</time></trkpt><trkpt lat="42.67481523925486" lon="12.304691603876739"><ele>719.0</ele><time>2026-04-04T12:28:16Z</time></trkpt><trkpt lat="42.67481107359811" lon="12.304549578662145"><ele>719.0</ele><time>2026-04-04T12:28:18Z</time></trkpt><trkpt lat="42.67481456135076" lon="12.304418616439678"><ele>719.0</ele><time>2026-04-04T12:28:20Z</time></trkpt><trkpt lat="42.674812068834164" lon="12.304283838132333"><ele>719.0</ele><time>2026-04-04T12:28:22Z</time></trkpt><trkpt lat="42.67482007537729" lon="12.30413716692294"><ele>719.0</ele><time>2026-04-04T12:28:24Z</time></trkpt><trkpt lat="42.67484343642803" lon="12.303999293658029"><ele>718.6</ele><time>2026-04-04T12:28:26Z</time></trkpt><trkpt lat="42.67484304719906" lon="12.303857406228436"><ele>718.2</ele><time>2026-04-04T12:28:28Z</time></trkpt><trkpt lat="42.67485021494105" lon="12.303715841294203"><ele>717.8000000000001</ele><time>2026-04-04T12:28:30Z</time></trkpt><trkpt lat="42.67486283420791" lon="12.303574845294515"><ele>717.4000000000001</ele><time>2026-04-04T12:28:32Z</time></trkpt><trkpt lat="42.67488724989881" lon="12.30343351364396"><ele>717.0</ele><time>2026-04-04T12:28:34Z</time></trkpt><trkpt lat="42.67490612868233" lon="12.3033024788765"><ele>717.0</ele><time>2026-04-04T12:28:36Z</time></trkpt><trkpt lat="42.67493222261561" lon="12.303173436433982"><ele>717.0</ele><time>2026-04-04T12:28:37.999Z</time></trkpt><trkpt lat="42.67495987435877" lon="12.303046660616491"><ele>717.0</ele><time>2026-04-04T12:28:39.999Z</time></trkpt><trkpt lat="42.67497616492615" lon="12.302931132300568"><ele>717.0</ele><time>2026-04-04T12:28:41.999Z</time></trkpt><trkpt lat="42.6749683330385" lon="12.302836006116314"><ele>717.0</ele><time>2026-04-04T12:28:43.999Z</time></trkpt><trkpt lat="42.6749615366919" lon="12.302742566670384"><ele>717.0</ele><time>2026-04-04T12:28:45.999Z</time></trkpt><trkpt lat="42.67494380361753" lon="12.302654443198048"><ele>715.8571428571429</ele><time>2026-04-04T12:28:47.999Z</time></trkpt><trkpt lat="42.674925377185666" lon="12.302555062617644"><ele>714.7142857142857</ele><time>2026-04-04T12:28:49.999Z</time></trkpt><trkpt lat="42.674925647174625" lon="12.302461088133796"><ele>713.5714285714287</ele><time>2026-04-04T12:28:51.999Z</time></trkpt><trkpt lat="42.6748951687427" lon="12.302361352258073"><ele>712.4285714285714</ele><time>2026-04-04T12:28:53.999Z</time></trkpt><trkpt lat="42.67487920837386" lon="12.302268270144241"><ele>711.2857142857143</ele><time>2026-04-04T12:28:55.999Z</time></trkpt><trkpt lat="42.67484426210276" lon="12.302184506100192"><ele>710.1428571428572</ele><time>2026-04-04T12:28:57.999Z</time></trkpt><trkpt lat="42.67479393202314" lon="12.30210748457561"><ele>709.0</ele><time>2026-04-04T12:28:59.999Z</time></trkpt><trkpt lat="42.67471946186175" lon="12.302053942546989"><ele>706.1666666666667</ele><time>2026-04-04T12:29:01.999Z</time></trkpt><trkpt lat="42.6746329463663" lon="12.302063599710069"><ele>703.3333333333334</ele><time>2026-04-04T12:29:03.999Z</time></trkpt><trkpt lat="42.67456166519294" lon="12.302106135030648"><ele>700.5</ele><time>2026-04-04T12:29:05.999Z</time></trkpt><trkpt lat="42.674493936603575" lon="12.30213668384515"><ele>697.6666666666666</ele><time>2026-04-04T12:29:07.999Z</time></trkpt><trkpt lat="42.67442603878448" lon="12.30216961865905"><ele>694.8333333333333</ele><time>2026-04-04T12:29:09.999Z</time></trkpt><trkpt lat="42.67436418694377" lon="12.30219962069518"><ele>692.0</ele><time>2026-04-04T12:29:11.999Z</time></trkpt><trkpt lat="42.67427383474271" lon="12.30222635057505"><ele>691.2857142857142</ele><time>2026-04-04T12:29:14.999Z</time></trkpt><trkpt lat="42.67420186256806" lon="12.302240516254418"><ele>690.5714285714287</ele><time>2026-04-04T12:29:16.999Z</time></trkpt><trkpt lat="42.674119891558675" lon="12.302245458973983"><ele>689.8571428571429</ele><time>2026-04-04T12:29:18.999Z</time></trkpt><trkpt lat="42.674042245795825" lon="12.30224702285194"><ele>689.1428571428571</ele><time>2026-04-04T12:29:20.999Z</time></trkpt><trkpt lat="42.67396982146905" lon="12.302248543043262"><ele>688.4285714285713</ele><time>2026-04-04T12:29:22.999Z</time></trkpt><trkpt lat="42.673894500787426" lon="12.30226712745488"><ele>687.7142857142858</ele><time>2026-04-04T12:29:24.999Z</time></trkpt><trkpt lat="42.6738271435452" lon="12.30227400980592"><ele>687.0</ele><time>2026-04-04T12:29:26.999Z</time></trkpt><trkpt lat="42.673740343938846" lon="12.302280712382588"><ele>688.6666666666666</ele><time>2026-04-04T12:29:29.999Z</time></trkpt><trkpt lat="42.673656922344506" lon="12.30231489606679"><ele>690.3333333333334</ele><time>2026-04-04T12:29:32.999Z</time></trkpt><trkpt lat="42.6735946382741" lon="12.302338698096058"><ele>692.0</ele><time>2026-04-04T12:29:34.999Z</time></trkpt><trkpt lat="42.67351742975344" lon="12.302393089109264"><ele>693.6666666666667</ele><time>2026-04-04T12:29:37.999Z</time></trkpt><trkpt lat="42.673445966819564" lon="12.302468154790606"><ele>695.3333333333334</ele><time>2026-04-04T12:29:40.999Z</time></trkpt><trkpt lat="42.673397713290655" lon="12.302524192451893"><ele>697.0</ele><time>2026-04-04T12:29:42.999Z</time></trkpt><trkpt lat="42.673334318816785" lon="12.302589299640331"><ele>697.0</ele><time>2026-04-04T12:29:45.999Z</time></trkpt><trkpt lat="42.67326726578302" lon="12.3026741881823"><ele>697.0</ele><time>2026-04-04T12:29:48.999Z</time></trkpt><trkpt lat="42.6732179479694" lon="12.302732855713554"><ele>697.0</ele><time>2026-04-04T12:29:50.999Z</time></trkpt><trkpt lat="42.67316459824504" lon="12.302792071519441"><ele>697.0</ele><time>2026-04-04T12:29:52.999Z</time></trkpt><trkpt lat="42.67309009692663" lon="12.302867432747425"><ele>697.0</ele><time>2026-04-04T12:29:55.999Z</time></trkpt><trkpt lat="42.673047770095884" lon="12.30293348166657"><ele>697.0</ele><time>2026-04-04T12:29:57.999Z</time></trkpt><trkpt lat="42.672973608901614" lon="12.303008082323599"><ele>694.0</ele><time>2026-04-04T12:30:00.999Z</time></trkpt><trkpt lat="42.67290964593393" lon="12.303093240589423"><ele>691.0</ele><time>2026-04-04T12:30:03.999Z</time></trkpt><trkpt lat="42.67283430346316" lon="12.303172667310555"><ele>688.0</ele><time>2026-04-04T12:30:06.999Z</time></trkpt><trkpt lat="42.67281653354583" lon="12.303257211434945"><ele>685.0</ele><time>2026-04-04T12:30:08.999Z</time></trkpt><trkpt lat="42.67277080688022" lon="12.303364395453558"><ele>682.0</ele><time>2026-04-04T12:30:11.999Z</time></trkpt><trkpt lat="42.67272346663497" lon="12.303468443104197"><ele>679.0</ele><time>2026-04-04T12:30:14.999Z</time></trkpt><trkpt lat="42.67269308818481" lon="12.303581587452477"><ele>679.0</ele><time>2026-04-04T12:30:17.999Z</time></trkpt><trkpt lat="42.67267268260829" lon="12.30369960501561"><ele>679.0</ele><time>2026-04-04T12:30:20.999Z</time></trkpt><trkpt lat="42.67264977050624" lon="12.303807461262128"><ele>679.0</ele><time>2026-04-04T12:30:23.999Z</time></trkpt><trkpt lat="42.67262316026722" lon="12.303894290369467"><ele>679.0</ele><time>2026-04-04T12:30:25.999Z</time></trkpt><trkpt lat="42.672598321217784" lon="12.303978139697548"><ele>679.0</ele><time>2026-04-04T12:30:27.999Z</time></trkpt><trkpt lat="42.672571206326076" lon="12.304063248522295"><ele>679.0</ele><time>2026-04-04T12:30:29.999Z</time></trkpt><trkpt lat="42.67254500830622" lon="12.304148133718844"><ele>679.0</ele><time>2026-04-04T12:30:31.999Z</time></trkpt><trkpt lat="42.67252555249314" lon="12.304234015283823"><ele>680.1428571428571</ele><time>2026-04-04T12:30:33.999Z</time></trkpt><trkpt lat="42.67250306045712" lon="12.304320126783555"><ele>681.2857142857142</ele><time>2026-04-04T12:30:35.999Z</time></trkpt><trkpt lat="42.672478966211415" lon="12.304402117977329"><ele>682.4285714285714</ele><time>2026-04-04T12:30:37.999Z</time></trkpt><trkpt lat="42.67245267458979" lon="12.304491745090441"><ele>683.5714285714286</ele><time>2026-04-04T12:30:39.999Z</time></trkpt><trkpt lat="42.67243828499579" lon="12.304579750135263"><ele>684.7142857142857</ele><time>2026-04-04T12:30:41.999Z</time></trkpt><trkpt lat="42.67242281115866" lon="12.304663905629273"><ele>685.8571428571429</ele><time>2026-04-04T12:30:43.999Z</time></trkpt><trkpt lat="42.67240113223577" lon="12.304752938121458"><ele>687.0</ele><time>2026-04-04T12:30:45.999Z</time></trkpt><trkpt lat="42.672388031492915" lon="12.304843560114884"><ele>687.5714285714286</ele><time>2026-04-04T12:30:47.999Z</time></trkpt><trkpt lat="42.67237118109601" lon="12.304932728461484"><ele>688.1428571428571</ele><time>2026-04-04T12:30:49.999Z</time></trkpt><trkpt lat="42.67235880994106" lon="12.305024712325505"><ele>688.7142857142857</ele><time>2026-04-04T12:30:51.999Z</time></trkpt><trkpt lat="42.67233574290331" lon="12.305150425326115"><ele>689.2857142857142</ele><time>2026-04-04T12:30:54.999Z</time></trkpt><trkpt lat="42.67232537887014" lon="12.305249196825471"><ele>689.8571428571429</ele><time>2026-04-04T12:30:56.999Z</time></trkpt><trkpt lat="42.672307897584695" lon="12.305340741837881"><ele>690.4285714285713</ele><time>2026-04-04T12:30:58.999Z</time></trkpt><trkpt lat="42.67228963357275" lon="12.305438941864704"><ele>691.0</ele><time>2026-04-04T12:31:00.999Z</time></trkpt><trkpt lat="42.672261355003485" lon="12.305546164568009"><ele>691.3333333333334</ele><time>2026-04-04T12:31:02.999Z</time></trkpt><trkpt lat="42.67223944990727" lon="12.305654531147207"><ele>691.6666666666667</ele><time>2026-04-04T12:31:04.999Z</time></trkpt><trkpt lat="42.67220878557616" lon="12.305757568877631"><ele>692.0</ele><time>2026-04-04T12:31:06.999Z</time></trkpt><trkpt lat="42.67214240801058" lon="12.305836783259153"><ele>692.3333333333334</ele><time>2026-04-04T12:31:08.999Z</time></trkpt><trkpt lat="42.67210102083123" lon="12.305949358625162"><ele>692.6666666666666</ele><time>2026-04-04T12:31:10.999Z</time></trkpt><trkpt lat="42.6720665297891" lon="12.306034912773915"><ele>693.0</ele><time>2026-04-04T12:31:12.999Z</time></trkpt><trkpt lat="42.67203135720492" lon="12.30611630460355"><ele>693.0</ele><time>2026-04-04T12:31:14.999Z</time></trkpt><trkpt lat="42.67198686753699" lon="12.306206154556332"><ele>693.0</ele><time>2026-04-04T12:31:16.999Z</time></trkpt><trkpt lat="42.671949160029634" lon="12.306306372694253"><ele>693.0</ele><time>2026-04-04T12:31:18.999Z</time></trkpt><trkpt lat="42.67190808083643" lon="12.306377208615805"><ele>693.0</ele><time>2026-04-04T12:31:20.999Z</time></trkpt><trkpt lat="42.67184856641636" lon="12.306451996186006"><ele>693.0</ele><time>2026-04-04T12:31:22.999Z</time></trkpt><trkpt lat="42.671792850344" lon="12.306534816684836"><ele>693.0</ele><time>2026-04-04T12:31:24.999Z</time></trkpt><trkpt lat="42.67173879658986" lon="12.306609892788757"><ele>689.5</ele><time>2026-04-04T12:31:26.999Z</time></trkpt><trkpt lat="42.67168004370817" lon="12.306670303688758"><ele>686.0</ele><time>2026-04-04T12:31:28.999Z</time></trkpt><trkpt lat="42.67162282626185" lon="12.306736572615858"><ele>682.5</ele><time>2026-04-04T12:31:30.999Z</time></trkpt><trkpt lat="42.67155280672257" lon="12.306810161049535"><ele>679.0</ele><time>2026-04-04T12:31:32.999Z</time></trkpt><trkpt lat="42.67147953111247" lon="12.306863061984215"><ele>675.5</ele><time>2026-04-04T12:31:34.999Z</time></trkpt><trkpt lat="42.671418957292175" lon="12.306894023538664"><ele>672.0</ele><time>2026-04-04T12:31:36.999Z</time></trkpt><trkpt lat="42.671340757659536" lon="12.306900862993187"><ele>672.0</ele><time>2026-04-04T12:31:38.999Z</time></trkpt><trkpt lat="42.67127304500485" lon="12.306927969483617"><ele>672.0</ele><time>2026-04-04T12:31:40.999Z</time></trkpt><trkpt lat="42.671186958576996" lon="12.306940036196409"><ele>672.0</ele><time>2026-04-04T12:31:42.999Z</time></trkpt><trkpt lat="42.671098125428706" lon="12.306923046688839"><ele>672.0</ele><time>2026-04-04T12:31:44.999Z</time></trkpt><trkpt lat="42.67102546444295" lon="12.306900847931002"><ele>672.0</ele><time>2026-04-04T12:31:46.999Z</time></trkpt><trkpt lat="42.670938293481555" lon="12.306880321323916"><ele>672.0</ele><time>2026-04-04T12:31:48.999Z</time></trkpt><trkpt lat="42.670865395835314" lon="12.30687914979471"><ele>669.5</ele><time>2026-04-04T12:31:50.999Z</time></trkpt><trkpt lat="42.67080571199439" lon="12.306842274333922"><ele>667.0</ele><time>2026-04-04T12:31:52.999Z</time></trkpt><trkpt lat="42.67070368194424" lon="12.306804394711696"><ele>664.5</ele><time>2026-04-04T12:31:55.999Z</time></trkpt><trkpt lat="42.67062036350821" lon="12.306790662491927"><ele>662.0</ele><time>2026-04-04T12:31:57.999Z</time></trkpt><trkpt lat="42.6705469949846" lon="12.306741904574436"><ele>659.5</ele><time>2026-04-04T12:31:59.999Z</time></trkpt><trkpt lat="42.67045606360287" lon="12.306723567960505"><ele>657.0</ele><time>2026-04-04T12:32:01.999Z</time></trkpt><trkpt lat="42.67037228969814" lon="12.306685413830454"><ele>657.0</ele><time>2026-04-04T12:32:04Z</time></trkpt><trkpt lat="42.67030265882453" lon="12.306633608478696"><ele>657.0</ele><time>2026-04-04T12:32:06Z</time></trkpt><trkpt lat="42.67022046948535" lon="12.30658284269218"><ele>657.0</ele><time>2026-04-04T12:32:08Z</time></trkpt><trkpt lat="42.67013434388172" lon="12.30652746039068"><ele>657.0</ele><time>2026-04-04T12:32:10Z</time></trkpt><trkpt lat="42.67005159544038" lon="12.306462314388149"><ele>657.0</ele><time>2026-04-04T12:32:12Z</time></trkpt><trkpt lat="42.66996367575184" lon="12.306412746258598"><ele>653.0</ele><time>2026-04-04T12:32:14Z</time></trkpt><trkpt lat="42.66987997240849" lon="12.30633564384844"><ele>649.0</ele><time>2026-04-04T12:32:16Z</time></trkpt><trkpt lat="42.66980378414104" lon="12.306272111466583"><ele>645.0</ele><time>2026-04-04T12:32:18Z</time></trkpt><trkpt lat="42.669734482059994" lon="12.306185610752594"><ele>641.0</ele><time>2026-04-04T12:32:20Z</time></trkpt><trkpt lat="42.66967210673153" lon="12.306148981351736"><ele>637.0</ele><time>2026-04-04T12:32:22Z</time></trkpt><trkpt lat="42.66960895107431" lon="12.306076742644047"><ele>633.0</ele><time>2026-04-04T12:32:24Z</time></trkpt><trkpt lat="42.66953963035024" lon="12.3060336580455"><ele>633.0</ele><time>2026-04-04T12:32:26Z</time></trkpt><trkpt lat="42.66946294300983" lon="12.305974279460697"><ele>633.0</ele><time>2026-04-04T12:32:28Z</time></trkpt><trkpt lat="42.669398742888795" lon="12.30592086952987"><ele>633.0</ele><time>2026-04-04T12:32:30Z</time></trkpt><trkpt lat="42.669329596688755" lon="12.305862551975588"><ele>633.0</ele><time>2026-04-04T12:32:32Z</time></trkpt><trkpt lat="42.669267868506225" lon="12.30580359587913"><ele>633.0</ele><time>2026-04-04T12:32:34Z</time></trkpt><trkpt lat="42.669175456718705" lon="12.305765074634545"><ele>633.0</ele><time>2026-04-04T12:32:36Z</time></trkpt><trkpt lat="42.66909986099583" lon="12.305714686346661"><ele>634.1666666666666</ele><time>2026-04-04T12:32:38Z</time></trkpt><trkpt lat="42.6690336234965" lon="12.305685117874757"><ele>635.3333333333334</ele><time>2026-04-04T12:32:40Z</time></trkpt><trkpt lat="42.6689709317612" lon="12.305650781258608"><ele>636.5</ele><time>2026-04-04T12:32:43Z</time></trkpt><trkpt lat="42.668898000141986" lon="12.305600829616406"><ele>637.6666666666667</ele><time>2026-04-04T12:32:46Z</time></trkpt><trkpt lat="42.66880720152075" lon="12.30556817977816"><ele>638.8333333333334</ele><time>2026-04-04T12:32:48Z</time></trkpt><trkpt lat="42.66874106018507" lon="12.305560293160136"><ele>640.0</ele><time>2026-04-04T12:32:49Z</time></trkpt><trkpt lat="42.66866059224574" lon="12.305588958420431"><ele>638.0</ele><time>2026-04-04T12:32:51Z</time></trkpt><trkpt lat="42.668578175775906" lon="12.305639612599443"><ele>636.0</ele><time>2026-04-04T12:32:53Z</time></trkpt><trkpt lat="42.668506640239386" lon="12.30568457838687"><ele>634.0</ele><time>2026-04-04T12:32:56Z</time></trkpt><trkpt lat="42.668437457553" lon="12.305694407779383"><ele>632.0</ele><time>2026-04-04T12:33:08Z</time></trkpt><trkpt lat="42.66842045200399" lon="12.305597833622736"><ele>630.0</ele><time>2026-04-04T12:33:17Z</time></trkpt><trkpt lat="42.66842451634648" lon="12.30550097711184"><ele>628.0</ele><time>2026-04-04T12:35:56Z</time></trkpt><trkpt lat="42.66849828662008" lon="12.305446141402792"><ele>625.9999999999999</ele><time>2026-04-04T12:35:59Z</time></trkpt><trkpt lat="42.66855846474687" lon="12.305386088843754"><ele>624.0</ele><time>2026-04-04T12:36:02Z</time></trkpt><trkpt lat="42.66862525675216" lon="12.305341848468172"><ele>622.0</ele><time>2026-04-04T12:36:05Z</time></trkpt><trkpt lat="42.668688993428404" lon="12.305308069956876"><ele>620.0</ele><time>2026-04-04T12:36:08Z</time></trkpt><trkpt lat="42.66874865182682" lon="12.305280069171253"><ele>618.0</ele><time>2026-04-04T12:36:11Z</time></trkpt><trkpt lat="42.66882097427644" lon="12.305255494794505"><ele>615.9999999999999</ele><time>2026-04-04T12:36:14Z</time></trkpt><trkpt lat="42.66889415427648" lon="12.305239514596508"><ele>614.0</ele><time>2026-04-04T12:36:17Z</time></trkpt><trkpt lat="42.668966159056716" lon="12.305234166674985"><ele>614.0</ele><time>2026-04-04T12:36:20Z</time></trkpt><trkpt lat="42.66904152159359" lon="12.305233165918882"><ele>614.0</ele><time>2026-04-04T12:36:23Z</time></trkpt><trkpt lat="42.669127817492644" lon="12.305237376916766"><ele>614.0</ele><time>2026-04-04T12:36:26Z</time></trkpt><trkpt lat="42.66921047897233" lon="12.305222395534004"><ele>614.0</ele><time>2026-04-04T12:36:29Z</time></trkpt><trkpt lat="42.66929863624463" lon="12.305236735957797"><ele>614.0</ele><time>2026-04-04T12:36:32Z</time></trkpt><trkpt lat="42.66937785656314" lon="12.30525642146251"><ele>614.0</ele><time>2026-04-04T12:36:35Z</time></trkpt><trkpt lat="42.669439594705544" lon="12.305276688900829"><ele>612.8333333333333</ele><time>2026-04-04T12:36:37Z</time></trkpt><trkpt lat="42.66952605494669" lon="12.305315393146309"><ele>611.6666666666666</ele><time>2026-04-04T12:36:40Z</time></trkpt><trkpt lat="42.66962708154958" lon="12.30532447213571"><ele>610.5</ele><time>2026-04-04T12:36:43Z</time></trkpt><trkpt lat="42.6696856870362" lon="12.30536249232854"><ele>609.3333333333334</ele><time>2026-04-04T12:36:45Z</time></trkpt><trkpt lat="42.66974791329983" lon="12.305380870222113"><ele>608.1666666666667</ele><time>2026-04-04T12:36:47Z</time></trkpt><trkpt lat="42.66983675319879" lon="12.305407108210318"><ele>607.0</ele><time>2026-04-04T12:36:50Z</time></trkpt><trkpt lat="42.66990595558143" lon="12.305426730247957"><ele>607.0</ele><time>2026-04-04T12:36:52Z</time></trkpt><trkpt lat="42.66997274008787" lon="12.30544555376974"><ele>607.0</ele><time>2026-04-04T12:36:54Z</time></trkpt><trkpt lat="42.67005594749541" lon="12.305469006155302"><ele>607.0</ele><time>2026-04-04T12:36:56Z</time></trkpt><trkpt lat="42.67015584135025" lon="12.30547910870829"><ele>607.0</ele><time>2026-04-04T12:36:59Z</time></trkpt><trkpt lat="42.670233792773445" lon="12.30551812041692"><ele>607.0</ele><time>2026-04-04T12:37:01Z</time></trkpt><trkpt lat="42.670303432886556" lon="12.30553695157341"><ele>607.0</ele><time>2026-04-04T12:37:03Z</time></trkpt><trkpt lat="42.67038574904341" lon="12.305559210388758"><ele>608.6</ele><time>2026-04-04T12:37:05Z</time></trkpt><trkpt lat="42.67047749406427" lon="12.305581673720855"><ele>610.2</ele><time>2026-04-04T12:37:07Z</time></trkpt><trkpt lat="42.67058107126436" lon="12.305596294211776"><ele>611.8</ele><time>2026-04-04T12:37:09Z</time></trkpt><trkpt lat="42.67067180330171" lon="12.305596213019205"><ele>613.4</ele><time>2026-04-04T12:37:11Z</time></trkpt><trkpt lat="42.670762379424325" lon="12.305563498192845"><ele>615.0</ele><time>2026-04-04T12:37:13Z</time></trkpt><trkpt lat="42.67083329530609" lon="12.305468918029607"><ele>615.0</ele><time>2026-04-04T12:37:15Z</time></trkpt><trkpt lat="42.67086498745871" lon="12.30538227515469"><ele>615.0</ele><time>2026-04-04T12:37:17Z</time></trkpt><trkpt lat="42.67087777994338" lon="12.305277804185485"><ele>615.0</ele><time>2026-04-04T12:37:19Z</time></trkpt><trkpt lat="42.670879922960005" lon="12.305178391730713"><ele>615.0</ele><time>2026-04-04T12:37:21Z</time></trkpt><trkpt lat="42.67087885426069" lon="12.305081116888207"><ele>615.0</ele><time>2026-04-04T12:37:23Z</time></trkpt><trkpt lat="42.67086074355832" lon="12.304982143890792"><ele>615.0</ele><time>2026-04-04T12:37:25Z</time></trkpt><trkpt lat="42.67085675084255" lon="12.304879892817207"><ele>615.0</ele><time>2026-04-04T12:37:27Z</time></trkpt><trkpt lat="42.67085208283472" lon="12.30477433455998"><ele>613.3333333333334</ele><time>2026-04-04T12:37:29Z</time></trkpt><trkpt lat="42.670842154245065" lon="12.304669280361093"><ele>611.6666666666666</ele><time>2026-04-04T12:37:31Z</time></trkpt><trkpt lat="42.67083732821544" lon="12.304574658804032"><ele>610.0</ele><time>2026-04-04T12:37:32.999Z</time></trkpt><trkpt lat="42.67083308276714" lon="12.304486269481455"><ele>608.3333333333333</ele><time>2026-04-04T12:37:35Z</time></trkpt><trkpt lat="42.67084389933195" lon="12.304379505340027"><ele>606.6666666666666</ele><time>2026-04-04T12:37:36.999Z</time></trkpt><trkpt lat="42.670831836305624" lon="12.304278437573469"><ele>605.0</ele><time>2026-04-04T12:37:39Z</time></trkpt><trkpt lat="42.67083603709534" lon="12.304163056617224"><ele>605.0</ele><time>2026-04-04T12:37:41Z</time></trkpt><trkpt lat="42.670842546186044" lon="12.304068219006915"><ele>605.0</ele><time>2026-04-04T12:37:43Z</time></trkpt><trkpt lat="42.67083102574689" lon="12.30396388093617"><ele>605.0</ele><time>2026-04-04T12:37:45Z</time></trkpt><trkpt lat="42.670816808266906" lon="12.30386598254589"><ele>605.0</ele><time>2026-04-04T12:37:47Z</time></trkpt><trkpt lat="42.67079785274798" lon="12.303766762084914"><ele>605.0</ele><time>2026-04-04T12:37:49Z</time></trkpt><trkpt lat="42.67078869879069" lon="12.303669537786028"><ele>605.0</ele><time>2026-04-04T12:37:51Z</time></trkpt><trkpt lat="42.67078592016114" lon="12.303571360118102"><ele>605.0</ele><time>2026-04-04T12:37:53Z</time></trkpt><trkpt lat="42.670776252702154" lon="12.303474900288597"><ele>604.1666666666666</ele><time>2026-04-04T12:37:55Z</time></trkpt><trkpt lat="42.670765068131985" lon="12.303367735410788"><ele>603.3333333333333</ele><time>2026-04-04T12:37:57Z</time></trkpt><trkpt lat="42.67077326823128" lon="12.303270451830743"><ele>602.5</ele><time>2026-04-04T12:37:59Z</time></trkpt><trkpt lat="42.67074904734166" lon="12.303169168105356"><ele>601.6666666666666</ele><time>2026-04-04T12:38:01Z</time></trkpt><trkpt lat="42.67074088909881" lon="12.303057769899349"><ele>600.8333333333334</ele><time>2026-04-04T12:38:03Z</time></trkpt><trkpt lat="42.67073646585701" lon="12.302955607852114"><ele>600.0</ele><time>2026-04-04T12:38:05Z</time></trkpt><trkpt lat="42.670732972667956" lon="12.302834610087855"><ele>599.1428571428571</ele><time>2026-04-04T12:38:07Z</time></trkpt><trkpt lat="42.67072852815254" lon="12.302736389517817"><ele>598.2857142857142</ele><time>2026-04-04T12:38:09Z</time></trkpt><trkpt lat="42.67072634901456" lon="12.302648017154672"><ele>597.4285714285714</ele><time>2026-04-04T12:38:11Z</time></trkpt><trkpt lat="42.6707234363799" lon="12.302552397635827"><ele>596.5714285714286</ele><time>2026-04-04T12:38:13Z</time></trkpt><trkpt lat="42.67071650884494" lon="12.302439058780621"><ele>595.7142857142858</ele><time>2026-04-04T12:38:15Z</time></trkpt><trkpt lat="42.67071377430442" lon="12.302332020168876"><ele>594.8571428571429</ele><time>2026-04-04T12:38:17Z</time></trkpt><trkpt lat="42.670716165245956" lon="12.302237126823604"><ele>594.0</ele><time>2026-04-04T12:38:19Z</time></trkpt><trkpt lat="42.67071608292837" lon="12.302141108103276"><ele>592.6666666666666</ele><time>2026-04-04T12:38:21Z</time></trkpt><trkpt lat="42.67071826011623" lon="12.302037943960572"><ele>591.3333333333334</ele><time>2026-04-04T12:38:23Z</time></trkpt><trkpt lat="42.67071510297337" lon="12.30191574127623"><ele>590.0</ele><time>2026-04-04T12:38:26Z</time></trkpt><trkpt lat="42.670732241282174" lon="12.301786909142567"><ele>588.6666666666667</ele><time>2026-04-04T12:38:29Z</time></trkpt><trkpt lat="42.67075671684265" lon="12.301667556994321"><ele>587.3333333333334</ele><time>2026-04-04T12:38:32Z</time></trkpt><trkpt lat="42.67077632610377" lon="12.301576493216434"><ele>586.0</ele><time>2026-04-04T12:38:34Z</time></trkpt><trkpt lat="42.67079389745257" lon="12.301482084731559"><ele>583.7142857142857</ele><time>2026-04-04T12:38:36Z</time></trkpt><trkpt lat="42.670823843766506" lon="12.301384199577345"><ele>581.4285714285714</ele><time>2026-04-04T12:38:38Z</time></trkpt><trkpt lat="42.670869171008626" lon="12.301300041249299"><ele>579.1428571428571</ele><time>2026-04-04T12:38:40Z</time></trkpt><trkpt lat="42.67088907082216" lon="12.301210001697207"><ele>576.8571428571429</ele><time>2026-04-04T12:38:42Z</time></trkpt><trkpt lat="42.67092471369073" lon="12.30112678739116"><ele>574.5714285714286</ele><time>2026-04-04T12:38:44Z</time></trkpt><trkpt lat="42.67095479975018" lon="12.301040363534948"><ele>572.2857142857142</ele><time>2026-04-04T12:38:46Z</time></trkpt><trkpt lat="42.67098890777187" lon="12.300953164870954"><ele>570.0</ele><time>2026-04-04T12:38:48Z</time></trkpt><trkpt lat="42.67103733113329" lon="12.300847516444826"><ele>570.0</ele><time>2026-04-04T12:38:51Z</time></trkpt><trkpt lat="42.671083448107474" lon="12.300769193542228"><ele>570.0</ele><time>2026-04-04T12:38:54Z</time></trkpt><trkpt lat="42.67115716485401" lon="12.300696163439296"><ele>570.0</ele><time>2026-04-04T12:38:57Z</time></trkpt><trkpt lat="42.67123103158777" lon="12.300613595705096"><ele>570.0</ele><time>2026-04-04T12:39:00Z</time></trkpt><trkpt lat="42.671303738806365" lon="12.300566870342548"><ele>570.0</ele><time>2026-04-04T12:39:02Z</time></trkpt><trkpt lat="42.671377823924075" lon="12.300513313673747"><ele>570.0</ele><time>2026-04-04T12:39:04Z</time></trkpt><trkpt lat="42.67144812747794" lon="12.300426856299211"><ele>570.8333333333334</ele><time>2026-04-04T12:39:06Z</time></trkpt><trkpt lat="42.67149437329777" lon="12.300312086439977"><ele>571.6666666666666</ele><time>2026-04-04T12:39:08Z</time></trkpt><trkpt lat="42.67151703238891" lon="12.300200300349726"><ele>572.5</ele><time>2026-04-04T12:39:10Z</time></trkpt><trkpt lat="42.67152738387737" lon="12.300078390029611"><ele>573.3333333333333</ele><time>2026-04-04T12:39:12Z</time></trkpt><trkpt lat="42.6715547216134" lon="12.299972831526738"><ele>574.1666666666666</ele><time>2026-04-04T12:39:14Z</time></trkpt><trkpt lat="42.67155558845546" lon="12.29986384933967"><ele>575.0</ele><time>2026-04-04T12:39:16Z</time></trkpt><trkpt lat="42.671566887227804" lon="12.29976056213647"><ele>572.0</ele><time>2026-04-04T12:39:18Z</time></trkpt><trkpt lat="42.671594417342014" lon="12.299651305765208"><ele>569.0</ele><time>2026-04-04T12:39:21Z</time></trkpt><trkpt lat="42.67160639517315" lon="12.299565872260759"><ele>566.0</ele><time>2026-04-04T12:39:23Z</time></trkpt><trkpt lat="42.671633644240565" lon="12.299453705026698"><ele>563.0</ele><time>2026-04-04T12:39:26Z</time></trkpt><trkpt lat="42.67165556556287" lon="12.299337886671314"><ele>560.0</ele><time>2026-04-04T12:39:29Z</time></trkpt><trkpt lat="42.67170750021442" lon="12.299221547318727"><ele>557.0</ele><time>2026-04-04T12:39:32Z</time></trkpt><trkpt lat="42.67174448477597" lon="12.299147305130939"><ele>557.0</ele><time>2026-04-04T12:39:34Z</time></trkpt><trkpt lat="42.67179784502294" lon="12.299045803871834"><ele>557.0</ele><time>2026-04-04T12:39:37Z</time></trkpt><trkpt lat="42.671858392477645" lon="12.298958173254174"><ele>557.0</ele><time>2026-04-04T12:39:39.999Z</time></trkpt><trkpt lat="42.67192312434239" lon="12.298856954028881"><ele>557.0</ele><time>2026-04-04T12:39:42.999Z</time></trkpt><trkpt lat="42.671971667896926" lon="12.298785645594071"><ele>557.0</ele><time>2026-04-04T12:39:44.999Z</time></trkpt><trkpt lat="42.672017076784506" lon="12.298702815166303"><ele>557.0</ele><time>2026-04-04T12:39:46.999Z</time></trkpt><trkpt lat="42.672068944145536" lon="12.298647256033739"><ele>556.3333333333333</ele><time>2026-04-04T12:39:48.999Z</time></trkpt><trkpt lat="42.67211848683614" lon="12.298577499532186"><ele>555.6666666666666</ele><time>2026-04-04T12:39:50.999Z</time></trkpt><trkpt lat="42.67217979078653" lon="12.298516919867454"><ele>555.0</ele><time>2026-04-04T12:39:52.999Z</time></trkpt><trkpt lat="42.67223862961079" lon="12.29845686409481"><ele>554.3333333333334</ele><time>2026-04-04T12:39:54.999Z</time></trkpt><trkpt lat="42.67230569025114" lon="12.298420710352499"><ele>553.6666666666667</ele><time>2026-04-04T12:39:56.999Z</time></trkpt><trkpt lat="42.67237743432591" lon="12.29836285863227"><ele>553.0</ele><time>2026-04-04T12:39:59Z</time></trkpt><trkpt lat="42.67244665727442" lon="12.298311553727537"><ele>553.0</ele><time>2026-04-04T12:40:01Z</time></trkpt><trkpt lat="42.672505460968644" lon="12.298247420772455"><ele>553.0</ele><time>2026-04-04T12:40:03Z</time></trkpt><trkpt lat="42.67257581696437" lon="12.29819364683704"><ele>553.0</ele><time>2026-04-04T12:40:05Z</time></trkpt><trkpt lat="42.672650969148044" lon="12.298143840046771"><ele>553.0</ele><time>2026-04-04T12:40:07Z</time></trkpt><trkpt lat="42.67272233555705" lon="12.29809429623873"><ele>553.0</ele><time>2026-04-04T12:40:09Z</time></trkpt><trkpt lat="42.672810944639075" lon="12.298028113491782"><ele>553.0</ele><time>2026-04-04T12:40:11Z</time></trkpt><trkpt lat="42.67287649634301" lon="12.297971599508557"><ele>550.1999999999999</ele><time>2026-04-04T12:40:13Z</time></trkpt><trkpt lat="42.672956046606686" lon="12.297912833504608"><ele>547.4</ele><time>2026-04-04T12:40:15Z</time></trkpt><trkpt lat="42.673034747662534" lon="12.297856249875974"><ele>544.5999999999999</ele><time>2026-04-04T12:40:17Z</time></trkpt><trkpt lat="42.67311090744761" lon="12.29779624524513"><ele>541.8</ele><time>2026-04-04T12:40:19Z</time></trkpt><trkpt lat="42.67319183091687" lon="12.297735529865879"><ele>539.0</ele><time>2026-04-04T12:40:21Z</time></trkpt><trkpt lat="42.67327558312064" lon="12.297673640956264"><ele>539.0</ele><time>2026-04-04T12:40:23Z</time></trkpt><trkpt lat="42.67337435425888" lon="12.297625502325351"><ele>539.0</ele><time>2026-04-04T12:40:25Z</time></trkpt><trkpt lat="42.67346058028353" lon="12.297542968239506"><ele>539.0</ele><time>2026-04-04T12:40:27Z</time></trkpt><trkpt lat="42.673555923227724" lon="12.297485388520892"><ele>539.0</ele><time>2026-04-04T12:40:29Z</time></trkpt><trkpt lat="42.673651671258355" lon="12.297419228938294"><ele>539.0</ele><time>2026-04-04T12:40:31Z</time></trkpt><trkpt lat="42.67374609609971" lon="12.297353664515454"><ele>540.8</ele><time>2026-04-04T12:40:33Z</time></trkpt><trkpt lat="42.67384073058549" lon="12.297284530214121"><ele>542.5999999999999</ele><time>2026-04-04T12:40:35Z</time></trkpt><trkpt lat="42.67393460712788" lon="12.297226979492347"><ele>544.4</ele><time>2026-04-04T12:40:37Z</time></trkpt><trkpt lat="42.674020635679085" lon="12.297178439832937"><ele>546.1999999999999</ele><time>2026-04-04T12:40:39Z</time></trkpt><trkpt lat="42.674113690204294" lon="12.297141270592805"><ele>548.0</ele><time>2026-04-04T12:40:41Z</time></trkpt><trkpt lat="42.67421922736238" lon="12.297100946356815"><ele>542.1999999999999</ele><time>2026-04-04T12:40:43Z</time></trkpt><trkpt lat="42.67432048879333" lon="12.297072679287481"><ele>536.4</ele><time>2026-04-04T12:40:45Z</time></trkpt><trkpt lat="42.67442453036471" lon="12.297043788512086"><ele>530.5999999999999</ele><time>2026-04-04T12:40:47Z</time></trkpt><trkpt lat="42.67451784598359" lon="12.297013246065717"><ele>524.8</ele><time>2026-04-04T12:40:49Z</time></trkpt><trkpt lat="42.67461679602062" lon="12.29700986473524"><ele>519.0</ele><time>2026-04-04T12:40:51Z</time></trkpt><trkpt lat="42.674718799356945" lon="12.296983040663731"><ele>519.0</ele><time>2026-04-04T12:40:53Z</time></trkpt><trkpt lat="42.67479393241703" lon="12.296946335524455"><ele>519.0</ele><time>2026-04-04T12:40:55Z</time></trkpt><trkpt lat="42.67488835144141" lon="12.296944975173489"><ele>519.0</ele><time>2026-04-04T12:40:57Z</time></trkpt><trkpt lat="42.67498076853556" lon="12.29691646110103"><ele>519.0</ele><time>2026-04-04T12:40:59Z</time></trkpt><trkpt lat="42.67507521236055" lon="12.296899792053539"><ele>519.0</ele><time>2026-04-04T12:41:01Z</time></trkpt><trkpt lat="42.67516009199744" lon="12.296885503319983"><ele>519.0</ele><time>2026-04-04T12:41:03Z</time></trkpt><trkpt lat="42.675255455696245" lon="12.296890237761081"><ele>519.0</ele><time>2026-04-04T12:41:05Z</time></trkpt><trkpt lat="42.67535748181086" lon="12.296858483173628"><ele>519.0</ele><time>2026-04-04T12:41:07Z</time></trkpt><trkpt lat="42.67546706629203" lon="12.296841029919984"><ele>519.0</ele><time>2026-04-04T12:41:09Z</time></trkpt><trkpt lat="42.67557190701164" lon="12.296827248340465"><ele>519.0</ele><time>2026-04-04T12:41:11Z</time></trkpt><trkpt lat="42.675663536952655" lon="12.296817882558571"><ele>518.5</ele><time>2026-04-04T12:41:13Z</time></trkpt><trkpt lat="42.67573523794003" lon="12.296802983524834"><ele>518.0</ele><time>2026-04-04T12:41:15Z</time></trkpt><trkpt lat="42.67581939539702" lon="12.296818848819344"><ele>517.5</ele><time>2026-04-04T12:41:17Z</time></trkpt><trkpt lat="42.67590631642651" lon="12.296816594397175"><ele>517.0</ele><time>2026-04-04T12:41:19Z</time></trkpt><trkpt lat="42.67600397839015" lon="12.296832605707092"><ele>516.5</ele><time>2026-04-04T12:41:21Z</time></trkpt><trkpt lat="42.676100249066685" lon="12.296877664628825"><ele>516.0</ele><time>2026-04-04T12:41:23Z</time></trkpt><trkpt lat="42.67619145974735" lon="12.296900280563781"><ele>514.3333333333334</ele><time>2026-04-04T12:41:25Z</time></trkpt><trkpt lat="42.6762728034394" lon="12.296949952546505"><ele>512.6666666666666</ele><time>2026-04-04T12:41:27Z</time></trkpt><trkpt lat="42.67636184804999" lon="12.296968042709265"><ele>511.0</ele><time>2026-04-04T12:41:29Z</time></trkpt><trkpt lat="42.676440103190735" lon="12.29700082841565"><ele>509.3333333333333</ele><time>2026-04-04T12:41:31Z</time></trkpt><trkpt lat="42.676519774178075" lon="12.297028399820121"><ele>507.66666666666663</ele><time>2026-04-04T12:41:33.001Z</time></trkpt><trkpt lat="42.67659749046733" lon="12.297074850805485"><ele>506.0</ele><time>2026-04-04T12:41:35.001Z</time></trkpt><trkpt lat="42.67670006070414" lon="12.29709568106644"><ele>506.0</ele><time>2026-04-04T12:41:37.001Z</time></trkpt><trkpt lat="42.67680198042303" lon="12.297143875443036"><ele>506.0</ele><time>2026-04-04T12:41:39.001Z</time></trkpt><trkpt lat="42.676905047232395" lon="12.29717615492776"><ele>506.0</ele><time>2026-04-04T12:41:41.001Z</time></trkpt><trkpt lat="42.6770026364917" lon="12.297160507216773"><ele>506.0</ele><time>2026-04-04T12:41:43.001Z</time></trkpt><trkpt lat="42.67709295828176" lon="12.297106151986094"><ele>506.0</ele><time>2026-04-04T12:41:44.999Z</time></trkpt><trkpt lat="42.677185821734874" lon="12.297063355574307"><ele>505.20000000000005</ele><time>2026-04-04T12:41:46.999Z</time></trkpt><trkpt lat="42.677271636416634" lon="12.297010629075533"><ele>504.40000000000003</ele><time>2026-04-04T12:41:48.999Z</time></trkpt><trkpt lat="42.67735173421227" lon="12.29698391687092"><ele>503.6</ele><time>2026-04-04T12:41:50.999Z</time></trkpt><trkpt lat="42.67744507247629" lon="12.29697000199309"><ele>502.8</ele><time>2026-04-04T12:41:52.999Z</time></trkpt><trkpt lat="42.67754335183724" lon="12.296953776290078"><ele>502.0</ele><time>2026-04-04T12:41:54.999Z</time></trkpt><trkpt lat="42.677640607332265" lon="12.2969685469565"><ele>502.0</ele><time>2026-04-04T12:41:56.999Z</time></trkpt><trkpt lat="42.67773492910454" lon="12.296996354875956"><ele>502.00000000000006</ele><time>2026-04-04T12:41:58.999Z</time></trkpt><trkpt lat="42.67782770713839" lon="12.296991123270598"><ele>502.00000000000006</ele><time>2026-04-04T12:42:00.999Z</time></trkpt><trkpt lat="42.67791539345528" lon="12.2970100344978"><ele>502.0</ele><time>2026-04-04T12:42:02.999Z</time></trkpt><trkpt lat="42.67799958482152" lon="12.297066389353057"><ele>502.0</ele><time>2026-04-04T12:42:04.999Z</time></trkpt><trkpt lat="42.678093422488146" lon="12.297098766987862"><ele>500.40000000000003</ele><time>2026-04-04T12:42:06.999Z</time></trkpt><trkpt lat="42.67818795847528" lon="12.297081464246734"><ele>498.80000000000007</ele><time>2026-04-04T12:42:09Z</time></trkpt><trkpt lat="42.67826076043875" lon="12.29702004978138"><ele>497.2</ele><time>2026-04-04T12:42:11Z</time></trkpt><trkpt lat="42.67832613789823" lon="12.296959344382813"><ele>495.6</ele><time>2026-04-04T12:42:14Z</time></trkpt><trkpt lat="42.678424667861016" lon="12.297045679812758"><ele>494.0</ele><time>2026-04-04T12:42:16Z</time></trkpt><trkpt lat="42.6784982929282" lon="12.29709880247716"><ele>494.0</ele><time>2026-04-04T12:42:17Z</time></trkpt><trkpt lat="42.67856559949755" lon="12.297185894625578"><ele>494.0</ele><time>2026-04-04T12:42:18Z</time></trkpt><trkpt lat="42.67863791258748" lon="12.297288028317983"><ele>494.0</ele><time>2026-04-04T12:42:19Z</time></trkpt><trkpt lat="42.678717822337006" lon="12.29738270352395"><ele>494.0</ele><time>2026-04-04T12:42:20Z</time></trkpt><trkpt lat="42.67880626379075" lon="12.297447264345758"><ele>494.0</ele><time>2026-04-04T12:42:21Z</time></trkpt><trkpt lat="42.67891631361355" lon="12.297487392452494"><ele>496.75</ele><time>2026-04-04T12:42:22Z</time></trkpt><trkpt lat="42.679037873440386" lon="12.297502397293433"><ele>499.5</ele><time>2026-04-04T12:42:23Z</time></trkpt><trkpt lat="42.67916143439519" lon="12.29748311844746"><ele>502.25</ele><time>2026-04-04T12:42:24Z</time></trkpt><trkpt lat="42.679286554727796" lon="12.297450023767494"><ele>505.0</ele><time>2026-04-04T12:42:25Z</time></trkpt><trkpt lat="42.67940293667689" lon="12.297435288073757"><ele>506.5</ele><time>2026-04-04T12:42:26Z</time></trkpt><trkpt lat="42.67951580358411" lon="12.297446873782764"><ele>508.0</ele><time>2026-04-04T12:42:27Z</time></trkpt><trkpt lat="42.67962575228309" lon="12.297495713892728"><ele>509.5</ele><time>2026-04-04T12:42:28Z</time></trkpt><trkpt lat="42.67973474791052" lon="12.297592041556221"><ele>511.0</ele><time>2026-04-04T12:42:29Z</time></trkpt><trkpt lat="42.67982355329824" lon="12.297736160212521"><ele>511.0</ele><time>2026-04-04T12:42:30Z</time></trkpt><trkpt lat="42.679927903761616" lon="12.297849592319952"><ele>511.0</ele><time>2026-04-04T12:42:31Z</time></trkpt><trkpt lat="42.68000959777899" lon="12.297961969255597"><ele>511.0</ele><time>2026-04-04T12:42:32Z</time></trkpt><trkpt lat="42.68009511706346" lon="12.298039700641274"><ele>511.0</ele><time>2026-04-04T12:42:33Z</time></trkpt><trkpt lat="42.680190387252075" lon="12.298061488339393"><ele>511.0</ele><time>2026-04-04T12:42:34Z</time></trkpt><trkpt lat="42.68029082328639" lon="12.298032345807005"><ele>513.25</ele><time>2026-04-04T12:42:35Z</time></trkpt><trkpt lat="42.6803726409884" lon="12.297941912243115"><ele>515.5</ele><time>2026-04-04T12:42:36Z</time></trkpt><trkpt lat="42.68043055092477" lon="12.297799293342614"><ele>517.75</ele><time>2026-04-04T12:42:37Z</time></trkpt><trkpt lat="42.68044192972447" lon="12.297645579525474"><ele>520.0</ele><time>2026-04-04T12:42:38Z</time></trkpt><trkpt lat="42.68041676011534" lon="12.297490992600757"><ele>520.0</ele><time>2026-04-04T12:42:39Z</time></trkpt><trkpt lat="42.68037231539714" lon="12.297335574893998"><ele>520.0</ele><time>2026-04-04T12:42:40Z</time></trkpt><trkpt lat="42.680311650977" lon="12.297186113860574"><ele>520.0</ele><time>2026-04-04T12:42:41Z</time></trkpt><trkpt lat="42.68026139570275" lon="12.297053006305354"><ele>520.0</ele><time>2026-04-04T12:42:42Z</time></trkpt><trkpt lat="42.68024910185647" lon="12.296911574384712"><ele>518.0</ele><time>2026-04-04T12:42:43Z</time></trkpt><trkpt lat="42.68028086890065" lon="12.296769593884996"><ele>516.0</ele><time>2026-04-04T12:42:44Z</time></trkpt><trkpt lat="42.68033104289642" lon="12.29666215796625"><ele>514.0</ele><time>2026-04-04T12:42:45Z</time></trkpt><trkpt lat="42.680413700424275" lon="12.296600429812178"><ele>512.0</ele><time>2026-04-04T12:42:46Z</time></trkpt><trkpt lat="42.68051248881493" lon="12.296587725126003"><ele>510.0</ele><time>2026-04-04T12:42:47Z</time></trkpt><trkpt lat="42.680609677698165" lon="12.296635926167218"><ele>510.0</ele><time>2026-04-04T12:42:48Z</time></trkpt><trkpt lat="42.68069322459633" lon="12.296729040636352"><ele>510.0</ele><time>2026-04-04T12:42:49Z</time></trkpt><trkpt lat="42.68073293873927" lon="12.296862951718294"><ele>510.0</ele><time>2026-04-04T12:42:50Z</time></trkpt><trkpt lat="42.68075872163347" lon="12.297018124809073"><ele>510.0</ele><time>2026-04-04T12:42:51Z</time></trkpt><trkpt lat="42.68078229367432" lon="12.297199052943112"><ele>512.5</ele><time>2026-04-04T12:42:52Z</time></trkpt><trkpt lat="42.680788676836315" lon="12.29739598050428"><ele>515.0</ele><time>2026-04-04T12:42:53Z</time></trkpt><trkpt lat="42.68080465692859" lon="12.297577990727374"><ele>517.5</ele><time>2026-04-04T12:42:54Z</time></trkpt><trkpt lat="42.68083355359058" lon="12.29775307974414"><ele>520.0</ele><time>2026-04-04T12:42:55Z</time></trkpt><trkpt lat="42.68087575943491" lon="12.297929001895103"><ele>521.0</ele><time>2026-04-04T12:42:56Z</time></trkpt><trkpt lat="42.680953446011756" lon="12.298093146083756"><ele>522.0</ele><time>2026-04-04T12:42:57Z</time></trkpt><trkpt lat="42.68102246820182" lon="12.29827302990172"><ele>523.0</ele><time>2026-04-04T12:42:58Z</time></trkpt><trkpt lat="42.681097384163024" lon="12.298446782252455"><ele>524.0</ele><time>2026-04-04T12:42:59Z</time></trkpt><trkpt lat="42.681168847885345" lon="12.298632431000579"><ele>524.0</ele><time>2026-04-04T12:43:00Z</time></trkpt><trkpt lat="42.68122391678286" lon="12.298831999011917"><ele>524.0</ele><time>2026-04-04T12:43:01Z</time></trkpt><trkpt lat="42.6812658721244" lon="12.299052379015016"><ele>524.0</ele><time>2026-04-04T12:43:02Z</time></trkpt><trkpt lat="42.681309342736085" lon="12.2992603375873"><ele>527.0</ele><time>2026-04-04T12:43:03Z</time></trkpt><trkpt lat="42.681358266892076" lon="12.299448459221193"><ele>530.0</ele><time>2026-04-04T12:43:04Z</time></trkpt><trkpt lat="42.68142898036025" lon="12.29962972355077"><ele>533.0</ele><time>2026-04-04T12:43:05Z</time></trkpt><trkpt lat="42.68152175381359" lon="12.299801639913893"><ele>535.5</ele><time>2026-04-04T12:43:06Z</time></trkpt><trkpt lat="42.68161495610719" lon="12.299969694401744"><ele>538.0</ele><time>2026-04-04T12:43:07Z</time></trkpt><trkpt lat="42.68169559479115" lon="12.300135729455913"><ele>540.5</ele><time>2026-04-04T12:43:08Z</time></trkpt><trkpt lat="42.68175367931484" lon="12.300302677385819"><ele>543.0</ele><time>2026-04-04T12:43:09Z</time></trkpt><trkpt lat="42.681782356091" lon="12.300472920218953"><ele>544.75</ele><time>2026-04-04T12:43:10Z</time></trkpt><trkpt lat="42.68177969287915" lon="12.300652942236628"><ele>546.5</ele><time>2026-04-04T12:43:11Z</time></trkpt><trkpt lat="42.68171636464869" lon="12.300837194933075"><ele>548.25</ele><time>2026-04-04T12:43:12Z</time></trkpt><trkpt lat="42.68166368999269" lon="12.301050005262221"><ele>550.0</ele><time>2026-04-04T12:43:13Z</time></trkpt><trkpt lat="42.68159287135909" lon="12.301253296417494"><ele>551.2</ele><time>2026-04-04T12:43:14Z</time></trkpt><trkpt lat="42.68154317459287" lon="12.301436266505172"><ele>552.4</ele><time>2026-04-04T12:43:15Z</time></trkpt><trkpt lat="42.681519299887775" lon="12.301582289402829"><ele>553.6</ele><time>2026-04-04T12:43:16Z</time></trkpt><trkpt lat="42.68152562025826" lon="12.301706706310593"><ele>554.8</ele><time>2026-04-04T12:43:17Z</time></trkpt><trkpt lat="42.68157648820828" lon="12.301812210457753"><ele>556.0</ele><time>2026-04-04T12:43:18Z</time></trkpt><trkpt lat="42.681665721092976" lon="12.301899581740553"><ele>556.0</ele><time>2026-04-04T12:43:19Z</time></trkpt><trkpt lat="42.681777476204225" lon="12.301926611786357"><ele>556.0</ele><time>2026-04-04T12:43:20Z</time></trkpt><trkpt lat="42.68188748367444" lon="12.30189602002294"><ele>556.0</ele><time>2026-04-04T12:43:21Z</time></trkpt><trkpt lat="42.68198368461651" lon="12.301799888707624"><ele>556.0</ele><time>2026-04-04T12:43:22Z</time></trkpt><trkpt lat="42.68205961737893" lon="12.301652187319272"><ele>558.0</ele><time>2026-04-04T12:43:23Z</time></trkpt><trkpt lat="42.68214077910506" lon="12.30146986143448"><ele>560.0</ele><time>2026-04-04T12:43:24Z</time></trkpt><trkpt lat="42.682244262272256" lon="12.301268638661567"><ele>562.0</ele><time>2026-04-04T12:43:25Z</time></trkpt><trkpt lat="42.682348805579004" lon="12.301077781768116"><ele>562.0</ele><time>2026-04-04T12:43:26Z</time></trkpt><trkpt lat="42.68246787340031" lon="12.300882753147317"><ele>562.0</ele><time>2026-04-04T12:43:27Z</time></trkpt><trkpt lat="42.682591668050236" lon="12.300701952920232"><ele>562.0</ele><time>2026-04-04T12:43:28Z</time></trkpt><trkpt lat="42.68272617411028" lon="12.30053349829963"><ele>565.6666666666667</ele><time>2026-04-04T12:43:29.001Z</time></trkpt><trkpt lat="42.682882341482234" lon="12.30038899249224"><ele>569.3333333333334</ele><time>2026-04-04T12:43:30.001Z</time></trkpt><trkpt lat="42.6830498436591" lon="12.300266818182392"><ele>573.0</ele><time>2026-04-04T12:43:31.001Z</time></trkpt><trkpt lat="42.68319464102705" lon="12.30014699666952"><ele>573.0</ele><time>2026-04-04T12:43:32.001Z</time></trkpt><trkpt lat="42.68332652272349" lon="12.300000490376894"><ele>573.0</ele><time>2026-04-04T12:43:33.001Z</time></trkpt><trkpt lat="42.68344104585174" lon="12.299806332213016"><ele>573.0</ele><time>2026-04-04T12:43:34.001Z</time></trkpt><trkpt lat="42.68355491878586" lon="12.299588985600762"><ele>577.6666666666666</ele><time>2026-04-04T12:43:35.001Z</time></trkpt><trkpt lat="42.683674136537384" lon="12.299373244693024"><ele>582.3333333333333</ele><time>2026-04-04T12:43:36.001Z</time></trkpt><trkpt lat="42.6838016965131" lon="12.299181727939056"><ele>587.0</ele><time>2026-04-04T12:43:37.001Z</time></trkpt><trkpt lat="42.683949707799" lon="12.29900040303217"><ele>582.6666666666666</ele><time>2026-04-04T12:43:38.001Z</time></trkpt><trkpt lat="42.68411335205755" lon="12.29882792958614"><ele>578.3333333333334</ele><time>2026-04-04T12:43:39.001Z</time></trkpt><trkpt lat="42.68427743025315" lon="12.298655648015378"><ele>574.0</ele><time>2026-04-04T12:43:40.001Z</time></trkpt><trkpt lat="42.68444158505036" lon="12.29847132513289"><ele>576.6666666666667</ele><time>2026-04-04T12:43:41.001Z</time></trkpt><trkpt lat="42.68459880923863" lon="12.298278201427015"><ele>579.3333333333334</ele><time>2026-04-04T12:43:42.001Z</time></trkpt><trkpt lat="42.68474529874858" lon="12.298080869411706"><ele>582.0</ele><time>2026-04-04T12:43:43.001Z</time></trkpt><trkpt lat="42.68488721996192" lon="12.297891244460068"><ele>582.0</ele><time>2026-04-04T12:43:44.001Z</time></trkpt><trkpt lat="42.68502005906532" lon="12.29772438698786"><ele>582.0</ele><time>2026-04-04T12:43:45.001Z</time></trkpt><trkpt lat="42.685158368153786" lon="12.297575428884336"><ele>582.0</ele><time>2026-04-04T12:43:46.001Z</time></trkpt><trkpt lat="42.68530304864436" lon="12.297451905900322"><ele>586.6666666666666</ele><time>2026-04-04T12:43:47.001Z</time></trkpt><trkpt lat="42.68546230036549" lon="12.297372445979262"><ele>591.3333333333333</ele><time>2026-04-04T12:43:48.001Z</time></trkpt><trkpt lat="42.68563634981386" lon="12.297327478679897"><ele>596.0</ele><time>2026-04-04T12:43:49.001Z</time></trkpt><trkpt lat="42.68581648986328" lon="12.297319019208775"><ele>596.0</ele><time>2026-04-04T12:43:50.001Z</time></trkpt><trkpt lat="42.68597331188049" lon="12.297339926774757"><ele>596.0</ele><time>2026-04-04T12:43:50.999Z</time></trkpt><trkpt lat="42.686130077477536" lon="12.297405390844657"><ele>596.0</ele><time>2026-04-04T12:43:51.999Z</time></trkpt><trkpt lat="42.68627500067572" lon="12.297509009809025"><ele>597.25</ele><time>2026-04-04T12:43:52.999Z</time></trkpt><trkpt lat="42.68640112649186" lon="12.297614124646637"><ele>598.5</ele><time>2026-04-04T12:43:53.999Z</time></trkpt><trkpt lat="42.68651776570463" lon="12.297681103497215"><ele>599.75</ele><time>2026-04-04T12:43:54.999Z</time></trkpt><trkpt lat="42.6866342619266" lon="12.297705929841637"><ele>601.0</ele><time>2026-04-04T12:43:55.999Z</time></trkpt><trkpt lat="42.68674235718802" lon="12.297686119512544"><ele>601.0</ele><time>2026-04-04T12:43:56.999Z</time></trkpt><trkpt lat="42.686833193520904" lon="12.297606010220843"><ele>601.0</ele><time>2026-04-04T12:43:57.999Z</time></trkpt><trkpt lat="42.68689759568565" lon="12.297495430917712"><ele>601.0</ele><time>2026-04-04T12:43:58.999Z</time></trkpt><trkpt lat="42.68693299938835" lon="12.29734097617926"><ele>601.0</ele><time>2026-04-04T12:43:59.999Z</time></trkpt><trkpt lat="42.68695459445451" lon="12.29716313587871"><ele>603.6666666666667</ele><time>2026-04-04T12:44:00.999Z</time></trkpt><trkpt lat="42.68697023394515" lon="12.296954655483761"><ele>606.3333333333334</ele><time>2026-04-04T12:44:01.999Z</time></trkpt><trkpt lat="42.68703041546435" lon="12.296763068067943"><ele>609.0</ele><time>2026-04-04T12:44:02.999Z</time></trkpt><trkpt lat="42.687150563512425" lon="12.296652226236331"><ele>609.0</ele><time>2026-04-04T12:44:03.999Z</time></trkpt><trkpt lat="42.68726704760565" lon="12.296585899670399"><ele>609.0</ele><time>2026-04-04T12:44:04.999Z</time></trkpt><trkpt lat="42.68739512480072" lon="12.296554960647404"><ele>609.0</ele><time>2026-04-04T12:44:05.999Z</time></trkpt><trkpt lat="42.68753756732105" lon="12.296596835768106"><ele>609.0</ele><time>2026-04-04T12:44:06.999Z</time></trkpt><trkpt lat="42.68766794408988" lon="12.296686281808574"><ele>613.75</ele><time>2026-04-04T12:44:07.999Z</time></trkpt><trkpt lat="42.687776837878424" lon="12.296799396768893"><ele>618.5</ele><time>2026-04-04T12:44:08.999Z</time></trkpt><trkpt lat="42.68786697209062" lon="12.296848253009408"><ele>623.25</ele><time>2026-04-04T12:44:09.999Z</time></trkpt><trkpt lat="42.68799060209969" lon="12.296830746931594"><ele>628.0</ele><time>2026-04-04T12:44:10.999Z</time></trkpt><trkpt lat="42.68809691428092" lon="12.2967345599309"><ele>628.0</ele><time>2026-04-04T12:44:11.999Z</time></trkpt><trkpt lat="42.688180433726664" lon="12.296606433540662"><ele>628.0</ele><time>2026-04-04T12:44:13Z</time></trkpt><trkpt lat="42.6882304230102" lon="12.296434300968453"><ele>628.0</ele><time>2026-04-04T12:44:14Z</time></trkpt><trkpt lat="42.68825339755479" lon="12.296216759575476"><ele>628.0</ele><time>2026-04-04T12:44:15Z</time></trkpt><trkpt lat="42.688280838231634" lon="12.295985819768763"><ele>625.0</ele><time>2026-04-04T12:44:16Z</time></trkpt><trkpt lat="42.68832165156203" lon="12.295785241432029"><ele>622.0</ele><time>2026-04-04T12:44:17Z</time></trkpt><trkpt lat="42.68837158260807" lon="12.295587624762447"><ele>619.0</ele><time>2026-04-04T12:44:18Z</time></trkpt><trkpt lat="42.68844216638838" lon="12.295396655173102"><ele>617.0</ele><time>2026-04-04T12:44:19Z</time></trkpt><trkpt lat="42.68855257413522" lon="12.295209263645312"><ele>615.0</ele><time>2026-04-04T12:44:20Z</time></trkpt><trkpt lat="42.68869100422531" lon="12.295038599340979"><ele>613.0</ele><time>2026-04-04T12:44:21Z</time></trkpt><trkpt lat="42.68884961551149" lon="12.294879384480417"><ele>616.6666666666667</ele><time>2026-04-04T12:44:22Z</time></trkpt><trkpt lat="42.68902094250722" lon="12.294730237860982"><ele>620.3333333333334</ele><time>2026-04-04T12:44:23Z</time></trkpt><trkpt lat="42.68918786634883" lon="12.29459530076823"><ele>624.0</ele><time>2026-04-04T12:44:24Z</time></trkpt><trkpt lat="42.68937097344631" lon="12.294464274187803"><ele>630.0</ele><time>2026-04-04T12:44:25Z</time></trkpt><trkpt lat="42.68954262450048" lon="12.294349635720538"><ele>636.0</ele><time>2026-04-04T12:44:26Z</time></trkpt><trkpt lat="42.689697623653245" lon="12.294246558422396"><ele>642.0</ele><time>2026-04-04T12:44:27Z</time></trkpt><trkpt lat="42.68982522680572" lon="12.294140755022054"><ele>642.0</ele><time>2026-04-04T12:44:28Z</time></trkpt><trkpt lat="42.689921406485695" lon="12.294008925786732"><ele>642.0</ele><time>2026-04-04T12:44:29Z</time></trkpt><trkpt lat="42.689988628542494" lon="12.293849097695828"><ele>642.0</ele><time>2026-04-04T12:44:30Z</time></trkpt><trkpt lat="42.690027525807544" lon="12.293658120777776"><ele>642.0</ele><time>2026-04-04T12:44:31Z</time></trkpt><trkpt lat="42.690065304088755" lon="12.293462411186177"><ele>642.25</ele><time>2026-04-04T12:44:32Z</time></trkpt><trkpt lat="42.69012777097802" lon="12.293298030477077"><ele>642.5</ele><time>2026-04-04T12:44:33Z</time></trkpt><trkpt lat="42.69021451405467" lon="12.293171178728526"><ele>642.75</ele><time>2026-04-04T12:44:34Z</time></trkpt><trkpt lat="42.690310381798874" lon="12.293093619147736"><ele>643.0</ele><time>2026-04-04T12:44:35Z</time></trkpt><trkpt lat="42.69040325991978" lon="12.293067291492259"><ele>643.0</ele><time>2026-04-04T12:44:36Z</time></trkpt><trkpt lat="42.69049613226438" lon="12.293102212942928"><ele>643.0</ele><time>2026-04-04T12:44:37Z</time></trkpt><trkpt lat="42.69057321659323" lon="12.29318511594619"><ele>643.0</ele><time>2026-04-04T12:44:38Z</time></trkpt><trkpt lat="42.690628711424864" lon="12.293300328883122"><ele>643.0</ele><time>2026-04-04T12:44:39Z</time></trkpt><trkpt lat="42.6906483771371" lon="12.293432477848675"><ele>643.0</ele><time>2026-04-04T12:44:40Z</time></trkpt><trkpt lat="42.69064349580286" lon="12.293595614807048"><ele>643.0</ele><time>2026-04-04T12:44:41Z</time></trkpt><trkpt lat="42.69058952828993" lon="12.293763564639962"><ele>643.0</ele><time>2026-04-04T12:44:42Z</time></trkpt><trkpt lat="42.69054914898817" lon="12.293965058127629"><ele>643.0</ele><time>2026-04-04T12:44:43Z</time></trkpt><trkpt lat="42.69052103241784" lon="12.294149420615202"><ele>643.0</ele><time>2026-04-04T12:44:44Z</time></trkpt><trkpt lat="42.690548751459815" lon="12.294314233672962"><ele>643.5</ele><time>2026-04-04T12:44:45Z</time></trkpt><trkpt lat="42.69061603771744" lon="12.294465754140695"><ele>644.0</ele><time>2026-04-04T12:44:46Z</time></trkpt><trkpt lat="42.69071877142953" lon="12.2945995930785"><ele>644.5</ele><time>2026-04-04T12:44:47Z</time></trkpt><trkpt lat="42.69084609694531" lon="12.294704959962782"><ele>645.0</ele><time>2026-04-04T12:44:48Z</time></trkpt><trkpt lat="42.6909896228663" lon="12.29478666078596"><ele>644.75</ele><time>2026-04-04T12:44:49Z</time></trkpt><trkpt lat="42.69111288432782" lon="12.294872143843032"><ele>644.5</ele><time>2026-04-04T12:44:50Z</time></trkpt><trkpt lat="42.69120847952456" lon="12.294989570369461"><ele>644.25</ele><time>2026-04-04T12:44:51Z</time></trkpt><trkpt lat="42.691268407886284" lon="12.29513902132785"><ele>644.0</ele><time>2026-04-04T12:44:52Z</time></trkpt><trkpt lat="42.69128556875098" lon="12.295288162102437"><ele>644.0</ele><time>2026-04-04T12:44:53Z</time></trkpt><trkpt lat="42.6912496681432" lon="12.29540575513439"><ele>644.0</ele><time>2026-04-04T12:44:54Z</time></trkpt><trkpt lat="42.69118055482559" lon="12.29549220389878"><ele>644.0</ele><time>2026-04-04T12:44:55Z</time></trkpt><trkpt lat="42.691079139366934" lon="12.295544685006377"><ele>644.0</ele><time>2026-04-04T12:44:56Z</time></trkpt><trkpt lat="42.690952657477474" lon="12.295538380833834"><ele>644.0</ele><time>2026-04-04T12:44:57Z</time></trkpt><trkpt lat="42.69080580197566" lon="12.29553479487951"><ele>648.3333333333333</ele><time>2026-04-04T12:44:58Z</time></trkpt><trkpt lat="42.690644798479426" lon="12.29550945813926"><ele>652.6666666666666</ele><time>2026-04-04T12:44:59Z</time></trkpt><trkpt lat="42.69049267262466" lon="12.29553070786459"><ele>657.0</ele><time>2026-04-04T12:45:00Z</time></trkpt><trkpt lat="42.69033056279677" lon="12.295602844947652"><ele>660.3333333333334</ele><time>2026-04-04T12:45:01Z</time></trkpt><trkpt lat="42.69016887958324" lon="12.2957102287432"><ele>663.6666666666667</ele><time>2026-04-04T12:45:02Z</time></trkpt><trkpt lat="42.69001114931917" lon="12.295846495076006"><ele>667.0</ele><time>2026-04-04T12:45:03Z</time></trkpt><trkpt lat="42.68986438894676" lon="12.296007658850149"><ele>667.0</ele><time>2026-04-04T12:45:04Z</time></trkpt><trkpt lat="42.6897406860717" lon="12.296176872574943"><ele>667.0</ele><time>2026-04-04T12:45:05Z</time></trkpt><trkpt lat="42.689618825802235" lon="12.29632309507495"><ele>667.0</ele><time>2026-04-04T12:45:06Z</time></trkpt><trkpt lat="42.68952076484969" lon="12.296480737317204"><ele>665.3333333333334</ele><time>2026-04-04T12:45:07.001Z</time></trkpt><trkpt lat="42.68945427343351" lon="12.29666467312899"><ele>663.6666666666666</ele><time>2026-04-04T12:45:08.001Z</time></trkpt><trkpt lat="42.68940472970982" lon="12.296866016481447"><ele>662.0</ele><time>2026-04-04T12:45:09.001Z</time></trkpt><trkpt lat="42.68939166779511" lon="12.297095975940188"><ele>664.3333333333333</ele><time>2026-04-04T12:45:10.001Z</time></trkpt><trkpt lat="42.689401835754126" lon="12.297344779652072"><ele>666.6666666666666</ele><time>2026-04-04T12:45:11.001Z</time></trkpt><trkpt lat="42.68938498731445" lon="12.297601072182236"><ele>669.0</ele><time>2026-04-04T12:45:12.001Z</time></trkpt><trkpt lat="42.68937615923197" lon="12.297849691096493"><ele>672.3333333333334</ele><time>2026-04-04T12:45:13.001Z</time></trkpt><trkpt lat="42.689348872665065" lon="12.298086810986083"><ele>675.6666666666667</ele><time>2026-04-04T12:45:14.001Z</time></trkpt><trkpt lat="42.68930721555517" lon="12.298329734620387"><ele>679.0</ele><time>2026-04-04T12:45:15.001Z</time></trkpt><trkpt lat="42.68926419823221" lon="12.298563353464948"><ele>679.0</ele><time>2026-04-04T12:45:16.001Z</time></trkpt><trkpt lat="42.689187814158444" lon="12.298784356148413"><ele>679.0</ele><time>2026-04-04T12:45:17.001Z</time></trkpt><trkpt lat="42.68909952562155" lon="12.298996030454592"><ele>679.0</ele><time>2026-04-04T12:45:18.001Z</time></trkpt><trkpt lat="42.68900711200932" lon="12.299203402102899"><ele>684.3333333333334</ele><time>2026-04-04T12:45:19.001Z</time></trkpt><trkpt lat="42.68891647946203" lon="12.29939706479254"><ele>689.6666666666666</ele><time>2026-04-04T12:45:20.001Z</time></trkpt><trkpt lat="42.688831690310124" lon="12.299598259400378"><ele>695.0</ele><time>2026-04-04T12:45:21.001Z</time></trkpt><trkpt lat="42.68876545976754" lon="12.299810709208048"><ele>700.6666666666666</ele><time>2026-04-04T12:45:22.001Z</time></trkpt><trkpt lat="42.68872291782985" lon="12.300031947448765"><ele>706.3333333333334</ele><time>2026-04-04T12:45:23.001Z</time></trkpt><trkpt lat="42.68869194407788" lon="12.300238057814832"><ele>712.0</ele><time>2026-04-04T12:45:24.001Z</time></trkpt><trkpt lat="42.68867890525195" lon="12.300431216608613"><ele>713.0</ele><time>2026-04-04T12:45:25.001Z</time></trkpt><trkpt lat="42.68867899429057" lon="12.300628742794602"><ele>714.0</ele><time>2026-04-04T12:45:26.001Z</time></trkpt><trkpt lat="42.68873053572514" lon="12.300824229034022"><ele>715.0</ele><time>2026-04-04T12:45:27.001Z</time></trkpt><trkpt lat="42.68878423817896" lon="12.301009578302326"><ele>716.0</ele><time>2026-04-04T12:45:28.001Z</time></trkpt><trkpt lat="42.688833313360476" lon="12.30116640440213"><ele>716.0</ele><time>2026-04-04T12:45:29.001Z</time></trkpt><trkpt lat="42.68882181752483" lon="12.301306002860025"><ele>716.0</ele><time>2026-04-04T12:45:30.001Z</time></trkpt><trkpt lat="42.68877163186606" lon="12.301416561139353"><ele>716.0</ele><time>2026-04-04T12:45:31.001Z</time></trkpt><trkpt lat="42.68869322855711" lon="12.301488725099242"><ele>716.0</ele><time>2026-04-04T12:45:32.001Z</time></trkpt><trkpt lat="42.688585016691114" lon="12.301514635578247"><ele>716.0</ele><time>2026-04-04T12:45:33.001Z</time></trkpt><trkpt lat="42.688451078292985" lon="12.30150328882693"><ele>714.4</ele><time>2026-04-04T12:45:34.001Z</time></trkpt><trkpt lat="42.68832117878959" lon="12.301504940027737"><ele>712.8</ele><time>2026-04-04T12:45:35.001Z</time></trkpt><trkpt lat="42.68821729213167" lon="12.301554088626748"><ele>711.1999999999999</ele><time>2026-04-04T12:45:36.001Z</time></trkpt><trkpt lat="42.6881475518344" lon="12.301650269206972"><ele>709.5999999999999</ele><time>2026-04-04T12:45:37.001Z</time></trkpt><trkpt lat="42.68809635732075" lon="12.301755297930281"><ele>708.0</ele><time>2026-04-04T12:45:38.001Z</time></trkpt><trkpt lat="42.688092659527115" lon="12.301879000454212"><ele>708.0</ele><time>2026-04-04T12:45:39.001Z</time></trkpt><trkpt lat="42.688156006870415" lon="12.30199684728258"><ele>708.0</ele><time>2026-04-04T12:45:40.001Z</time></trkpt><trkpt lat="42.68826315867203" lon="12.302066583586612"><ele>708.0</ele><time>2026-04-04T12:45:41.001Z</time></trkpt><trkpt lat="42.68839186298087" lon="12.302073958007158"><ele>708.0</ele><time>2026-04-04T12:45:42.001Z</time></trkpt><trkpt lat="42.68853676751366" lon="12.302009548091698"><ele>711.6666666666666</ele><time>2026-04-04T12:45:43.001Z</time></trkpt><trkpt lat="42.6886869390386" lon="12.301910182889577"><ele>715.3333333333333</ele><time>2026-04-04T12:45:44.001Z</time></trkpt><trkpt lat="42.68884940770467" lon="12.30180658001061"><ele>719.0</ele><time>2026-04-04T12:45:45.001Z</time></trkpt><trkpt lat="42.68901484423687" lon="12.301722086875813"><ele>719.0</ele><time>2026-04-04T12:45:46.001Z</time></trkpt><trkpt lat="42.689185579399165" lon="12.301630196971134"><ele>719.0</ele><time>2026-04-04T12:45:47.001Z</time></trkpt><trkpt lat="42.689336662298395" lon="12.301541130854908"><ele>719.0</ele><time>2026-04-04T12:45:48.001Z</time></trkpt><trkpt lat="42.689475168509034" lon="12.301475194919316"><ele>720.25</ele><time>2026-04-04T12:45:49.001Z</time></trkpt><trkpt lat="42.689617164826615" lon="12.301448395807867"><ele>721.5</ele><time>2026-04-04T12:45:50.001Z</time></trkpt><trkpt lat="42.68976281731818" lon="12.301460538604942"><ele>722.75</ele><time>2026-04-04T12:45:51.001Z</time></trkpt><trkpt lat="42.689907067134406" lon="12.301507382771018"><ele>724.0</ele><time>2026-04-04T12:45:52.001Z</time></trkpt><trkpt lat="42.69006023488913" lon="12.301581715102406"><ele>724.0</ele><time>2026-04-04T12:45:53.001Z</time></trkpt><trkpt lat="42.69020613626564" lon="12.301658523638073"><ele>724.0</ele><time>2026-04-04T12:45:54.001Z</time></trkpt><trkpt lat="42.69034792485635" lon="12.301748184111192"><ele>724.0</ele><time>2026-04-04T12:45:55.001Z</time></trkpt><trkpt lat="42.69048161019414" lon="12.301846895268934"><ele>724.25</ele><time>2026-04-04T12:45:56.001Z</time></trkpt><trkpt lat="42.690600378214704" lon="12.301968705072728"><ele>724.5</ele><time>2026-04-04T12:45:57Z</time></trkpt><trkpt lat="42.690707311207404" lon="12.302112477150438"><ele>724.75</ele><time>2026-04-04T12:45:58Z</time></trkpt><trkpt lat="42.69079280839863" lon="12.302262455547956"><ele>725.0</ele><time>2026-04-04T12:45:59Z</time></trkpt><trkpt lat="42.690841555962514" lon="12.302447645557603"><ele>725.0</ele><time>2026-04-04T12:46:00Z</time></trkpt><trkpt lat="42.69088907759005" lon="12.302643455705029"><ele>725.0</ele><time>2026-04-04T12:46:01Z</time></trkpt><trkpt lat="42.690939924673515" lon="12.302841320610453"><ele>725.0</ele><time>2026-04-04T12:46:02Z</time></trkpt><trkpt lat="42.69099449511668" lon="12.303029706041759"><ele>722.0</ele><time>2026-04-04T12:46:03Z</time></trkpt><trkpt lat="42.69105266030293" lon="12.303213099806504"><ele>719.0</ele><time>2026-04-04T12:46:04Z</time></trkpt><trkpt lat="42.69111245405255" lon="12.303376852943307"><ele>716.0</ele><time>2026-04-04T12:46:05Z</time></trkpt><trkpt lat="42.69118482837112" lon="12.303520743529376"><ele>713.0</ele><time>2026-04-04T12:46:06Z</time></trkpt><trkpt lat="42.691286398204895" lon="12.30362519924401"><ele>713.0</ele><time>2026-04-04T12:46:07Z</time></trkpt><trkpt lat="42.6914027887244" lon="12.303719625320783"><ele>713.0</ele><time>2026-04-04T12:46:08Z</time></trkpt><trkpt lat="42.69154237995751" lon="12.303802428074137"><ele>713.0</ele><time>2026-04-04T12:46:09Z</time></trkpt><trkpt lat="42.691690864741226" lon="12.303892234357448"><ele>715.3333333333333</ele><time>2026-04-04T12:46:10Z</time></trkpt><trkpt lat="42.691843494601784" lon="12.303991020987768"><ele>717.6666666666666</ele><time>2026-04-04T12:46:11Z</time></trkpt><trkpt lat="42.69199933819614" lon="12.304108308672085"><ele>720.0</ele><time>2026-04-04T12:46:12Z</time></trkpt><trkpt lat="42.6921553834953" lon="12.304231526679732"><ele>720.0</ele><time>2026-04-04T12:46:13Z</time></trkpt><trkpt lat="42.692308548796426" lon="12.304339507308729"><ele>720.0</ele><time>2026-04-04T12:46:14Z</time></trkpt><trkpt lat="42.69242765502923" lon="12.304477018447646"><ele>720.0</ele><time>2026-04-04T12:46:15Z</time></trkpt><trkpt lat="42.69254304354345" lon="12.304630964650968"><ele>723.6666666666666</ele><time>2026-04-04T12:46:16Z</time></trkpt><trkpt lat="42.69266613776977" lon="12.304797560240981"><ele>727.3333333333333</ele><time>2026-04-04T12:46:17Z</time></trkpt><trkpt lat="42.692791039617234" lon="12.304931327163638"><ele>731.0</ele><time>2026-04-04T12:46:18Z</time></trkpt><trkpt lat="42.69290663840407" lon="12.305061652392336"><ele>731.0</ele><time>2026-04-04T12:46:19Z</time></trkpt><trkpt lat="42.69302222671256" lon="12.305190270279075"><ele>731.0</ele><time>2026-04-04T12:46:20Z</time></trkpt><trkpt lat="42.69316778665416" lon="12.305253903779757"><ele>731.0</ele><time>2026-04-04T12:46:21Z</time></trkpt><trkpt lat="42.69329251303234" lon="12.30531232576242"><ele>731.0</ele><time>2026-04-04T12:46:22Z</time></trkpt><trkpt lat="42.693408491037765" lon="12.30535957422796"><ele>731.0</ele><time>2026-04-04T12:46:23Z</time></trkpt><trkpt lat="42.69351355150087" lon="12.305399200385914"><ele>731.0</ele><time>2026-04-04T12:46:24Z</time></trkpt><trkpt lat="42.69362516054716" lon="12.305465501642596"><ele>731.0</ele><time>2026-04-04T12:46:25Z</time></trkpt><trkpt lat="42.693748961504895" lon="12.305521943452925"><ele>731.0</ele><time>2026-04-04T12:46:26Z</time></trkpt><trkpt lat="42.6938635629933" lon="12.305581655609728"><ele>734.0</ele><time>2026-04-04T12:46:27Z</time></trkpt><trkpt lat="42.693968773209534" lon="12.305620371963311"><ele>737.0</ele><time>2026-04-04T12:46:28Z</time></trkpt><trkpt lat="42.694056965756204" lon="12.305679577327378"><ele>740.0</ele><time>2026-04-04T12:46:29Z</time></trkpt><trkpt lat="42.69413617819447" lon="12.305733918931812"><ele>743.0</ele><time>2026-04-04T12:46:30Z</time></trkpt><trkpt lat="42.694199021942666" lon="12.30578186533448"><ele>746.0</ele><time>2026-04-04T12:46:31Z</time></trkpt><trkpt lat="42.69427181322198" lon="12.305861712737592"><ele>746.0</ele><time>2026-04-04T12:46:33Z</time></trkpt><trkpt lat="42.69438155357995" lon="12.305691650747628"><ele>746.0</ele><time>2026-04-04T12:46:35Z</time></trkpt><trkpt lat="42.694432931013026" lon="12.305599655195486"><ele>746.0</ele><time>2026-04-04T12:46:36Z</time></trkpt><trkpt lat="42.69451072373504" lon="12.305535060541834"><ele>746.0</ele><time>2026-04-04T12:46:37Z</time></trkpt><trkpt lat="42.69461020201121" lon="12.305473942409304"><ele>743.5999999999999</ele><time>2026-04-04T12:46:38Z</time></trkpt><trkpt lat="42.69471439094874" lon="12.305408374191574"><ele>741.2</ele><time>2026-04-04T12:46:39Z</time></trkpt><trkpt lat="42.69480972138975" lon="12.305346621802746"><ele>738.8</ele><time>2026-04-04T12:46:40Z</time></trkpt><trkpt lat="42.694885726336985" lon="12.305258853969105"><ele>736.4000000000001</ele><time>2026-04-04T12:46:41Z</time></trkpt><trkpt lat="42.69495746043236" lon="12.305143573456236"><ele>734.0</ele><time>2026-04-04T12:46:42Z</time></trkpt><trkpt lat="42.695007748590236" lon="12.305010463413922"><ele>734.0</ele><time>2026-04-04T12:46:43Z</time></trkpt><trkpt lat="42.69504643486277" lon="12.304873127917858"><ele>734.0</ele><time>2026-04-04T12:46:44Z</time></trkpt><trkpt lat="42.6950662528231" lon="12.304719299495721"><ele>734.0</ele><time>2026-04-04T12:46:45Z</time></trkpt><trkpt lat="42.69506865476696" lon="12.304552360903068"><ele>734.0</ele><time>2026-04-04T12:46:46Z</time></trkpt><trkpt lat="42.69506526179839" lon="12.304384712594914"><ele>733.5</ele><time>2026-04-04T12:46:47.001Z</time></trkpt><trkpt lat="42.695061640714854" lon="12.304209724082"><ele>733.0</ele><time>2026-04-04T12:46:48.001Z</time></trkpt><trkpt lat="42.69506149801444" lon="12.30404361243179"><ele>732.5</ele><time>2026-04-04T12:46:49.001Z</time></trkpt><trkpt lat="42.69505774627917" lon="12.303881660475016"><ele>732.0</ele><time>2026-04-04T12:46:50.001Z</time></trkpt><trkpt lat="42.695059143689996" lon="12.303728977779105"><ele>731.6666666666666</ele><time>2026-04-04T12:46:51.001Z</time></trkpt><trkpt lat="42.695066211336936" lon="12.303579129752197"><ele>731.3333333333334</ele><time>2026-04-04T12:46:52.001Z</time></trkpt><trkpt lat="42.695078854382395" lon="12.303451052332123"><ele>731.0</ele><time>2026-04-04T12:46:53.001Z</time></trkpt><trkpt lat="42.69510603724562" lon="12.303352255810312"><ele>730.6666666666667</ele><time>2026-04-04T12:46:54.001Z</time></trkpt><trkpt lat="42.69515395816105" lon="12.303274106641862"><ele>730.3333333333334</ele><time>2026-04-04T12:46:55.001Z</time></trkpt><trkpt lat="42.69522759372099" lon="12.303229163314313"><ele>730.0</ele><time>2026-04-04T12:46:56.001Z</time></trkpt><trkpt lat="42.69531505783772" lon="12.303258773430128"><ele>728.5</ele><time>2026-04-04T12:46:57.001Z</time></trkpt><trkpt lat="42.69540146951203" lon="12.303312920695799"><ele>727.0</ele><time>2026-04-04T12:46:58.001Z</time></trkpt><trkpt lat="42.69551323480614" lon="12.303372770176853"><ele>725.5</ele><time>2026-04-04T12:46:59.001Z</time></trkpt><trkpt lat="42.69563602774291" lon="12.303442959656618"><ele>724.0</ele><time>2026-04-04T12:47:00.001Z</time></trkpt><trkpt lat="42.69575628883054" lon="12.303501423350738"><ele>724.0</ele><time>2026-04-04T12:47:01.001Z</time></trkpt><trkpt lat="42.695872656949206" lon="12.303572949257136"><ele>724.0</ele><time>2026-04-04T12:47:02.001Z</time></trkpt><trkpt lat="42.69597761793292" lon="12.30364189371531"><ele>724.0</ele><time>2026-04-04T12:47:03.001Z</time></trkpt><trkpt lat="42.69607851472775" lon="12.30370228772068"><ele>724.0</ele><time>2026-04-04T12:47:04.001Z</time></trkpt><trkpt lat="42.69617680372242" lon="12.30373430082803"><ele>721.0</ele><time>2026-04-04T12:47:05.001Z</time></trkpt><trkpt lat="42.69626960838584" lon="12.303740648040733"><ele>718.0</ele><time>2026-04-04T12:47:06.001Z</time></trkpt><trkpt lat="42.69636332627849" lon="12.303686226473864"><ele>715.0</ele><time>2026-04-04T12:47:07.001Z</time></trkpt><trkpt lat="42.69645449183753" lon="12.30360375011198"><ele>712.0</ele><time>2026-04-04T12:47:08.001Z</time></trkpt><trkpt lat="42.69654315499674" lon="12.303499809439534"><ele>709.0</ele><time>2026-04-04T12:47:09.001Z</time></trkpt><trkpt lat="42.696621448084166" lon="12.303367924974639"><ele>709.0</ele><time>2026-04-04T12:47:10.001Z</time></trkpt><trkpt lat="42.69668088029408" lon="12.303211331731548"><ele>709.0</ele><time>2026-04-04T12:47:11.001Z</time></trkpt><trkpt lat="42.69673657194588" lon="12.30304660659363"><ele>709.0</ele><time>2026-04-04T12:47:12.001Z</time></trkpt><trkpt lat="42.69679049514482" lon="12.302887311168554"><ele>709.0</ele><time>2026-04-04T12:47:13.001Z</time></trkpt><trkpt lat="42.69684741708316" lon="12.302735450310205"><ele>710.2</ele><time>2026-04-04T12:47:14.001Z</time></trkpt><trkpt lat="42.69690006321784" lon="12.302585263898024"><ele>711.4000000000001</ele><time>2026-04-04T12:47:15.001Z</time></trkpt><trkpt lat="42.69694432646969" lon="12.302439762881523"><ele>712.6</ele><time>2026-04-04T12:47:16.001Z</time></trkpt><trkpt lat="42.69697120927435" lon="12.302297146793226"><ele>713.8</ele><time>2026-04-04T12:47:17.001Z</time></trkpt><trkpt lat="42.69697168145939" lon="12.30216707244466"><ele>715.0</ele><time>2026-04-04T12:47:18.001Z</time></trkpt><trkpt lat="42.696966025931694" lon="12.302063360580481"><ele>709.4</ele><time>2026-04-04T12:47:19.001Z</time></trkpt><trkpt lat="42.69700873130207" lon="12.301929574718532"><ele>703.8</ele><time>2026-04-04T12:47:21.001Z</time></trkpt><trkpt lat="42.697124940614344" lon="12.301923326720152"><ele>698.2</ele><time>2026-04-04T12:47:23.001Z</time></trkpt><trkpt lat="42.697175778114726" lon="12.301994204209983"><ele>692.6</ele><time>2026-04-04T12:47:24.001Z</time></trkpt><trkpt lat="42.697176054424084" lon="12.30211447448479"><ele>687.0</ele><time>2026-04-04T12:47:25.001Z</time></trkpt><trkpt lat="42.697147980043006" lon="12.302226242974022"><ele>686.8</ele><time>2026-04-04T12:47:26.001Z</time></trkpt><trkpt lat="42.697136941818975" lon="12.302358573057772"><ele>686.6</ele><time>2026-04-04T12:47:27.001Z</time></trkpt><trkpt lat="42.69712257188591" lon="12.302494161650596"><ele>686.4</ele><time>2026-04-04T12:47:28.001Z</time></trkpt><trkpt lat="42.6971079826763" lon="12.302639696852214"><ele>686.1999999999999</ele><time>2026-04-04T12:47:29.001Z</time></trkpt><trkpt lat="42.69710814755456" lon="12.30279034307275"><ele>686.0</ele><time>2026-04-04T12:47:30.001Z</time></trkpt><trkpt lat="42.69709050828217" lon="12.302921945334276"><ele>686.0</ele><time>2026-04-04T12:47:31.001Z</time></trkpt><trkpt lat="42.697084006555656" lon="12.303061456926946"><ele>686.0</ele><time>2026-04-04T12:47:32.001Z</time></trkpt><trkpt lat="42.69707419177785" lon="12.303201052278022"><ele>686.0</ele><time>2026-04-04T12:47:33.001Z</time></trkpt><trkpt lat="42.69710331705657" lon="12.303335680012218"><ele>686.0</ele><time>2026-04-04T12:47:34.001Z</time></trkpt><trkpt lat="42.69713711805755" lon="12.303458910106494"><ele>686.0</ele><time>2026-04-04T12:47:35.001Z</time></trkpt><trkpt lat="42.69719320230141" lon="12.303573214793325"><ele>685.0</ele><time>2026-04-04T12:47:36.001Z</time></trkpt><trkpt lat="42.6972629678078" lon="12.303675805671825"><ele>684.0</ele><time>2026-04-04T12:47:37.001Z</time></trkpt><trkpt lat="42.697347089694084" lon="12.303764533601711"><ele>683.0</ele><time>2026-04-04T12:47:38.001Z</time></trkpt><trkpt lat="42.697432882015406" lon="12.303845808746736"><ele>682.0</ele><time>2026-04-04T12:47:39.001Z</time></trkpt><trkpt lat="42.697519865265434" lon="12.303927188016647"><ele>681.0</ele><time>2026-04-04T12:47:40.001Z</time></trkpt><trkpt lat="42.69761259061551" lon="12.304008575476162"><ele>679.75</ele><time>2026-04-04T12:47:41.001Z</time></trkpt><trkpt lat="42.69771669483209" lon="12.304080881267433"><ele>678.5</ele><time>2026-04-04T12:47:42.001Z</time></trkpt><trkpt lat="42.6978316696215" lon="12.304134990559227"><ele>677.25</ele><time>2026-04-04T12:47:43.001Z</time></trkpt><trkpt lat="42.697959609487334" lon="12.304178074048975"><ele>676.0</ele><time>2026-04-04T12:47:44.001Z</time></trkpt><trkpt lat="42.69808786262488" lon="12.304210864647464"><ele>676.0</ele><time>2026-04-04T12:47:45.001Z</time></trkpt><trkpt lat="42.698215182618576" lon="12.304236052548896"><ele>676.0</ele><time>2026-04-04T12:47:46.001Z</time></trkpt><trkpt lat="42.69834284565271" lon="12.304269466297352"><ele>676.0</ele><time>2026-04-04T12:47:47.001Z</time></trkpt><trkpt lat="42.69846821915054" lon="12.304306507386828"><ele>676.0</ele><time>2026-04-04T12:47:48.001Z</time></trkpt><trkpt lat="42.69859286301437" lon="12.30432832437166"><ele>673.25</ele><time>2026-04-04T12:47:49.001Z</time></trkpt><trkpt lat="42.69871981949019" lon="12.304328815900767"><ele>670.5</ele><time>2026-04-04T12:47:50.001Z</time></trkpt><trkpt lat="42.69884312088444" lon="12.304336710433109"><ele>667.75</ele><time>2026-04-04T12:47:51.001Z</time></trkpt><trkpt lat="42.69895724863167" lon="12.304356037096976"><ele>665.0</ele><time>2026-04-04T12:47:52.001Z</time></trkpt><trkpt lat="42.69905853253631" lon="12.304365037572657"><ele>665.0</ele><time>2026-04-04T12:47:53.001Z</time></trkpt><trkpt lat="42.699145921836475" lon="12.304370967631135"><ele>665.0</ele><time>2026-04-04T12:47:54.001Z</time></trkpt><trkpt lat="42.699236983492405" lon="12.304321171524421"><ele>665.0</ele><time>2026-04-04T12:47:55.001Z</time></trkpt><trkpt lat="42.699319235107325" lon="12.304223637567075"><ele>665.0</ele><time>2026-04-04T12:47:56.001Z</time></trkpt><trkpt lat="42.699408177773236" lon="12.304084399752181"><ele>665.0</ele><time>2026-04-04T12:47:57.001Z</time></trkpt><trkpt lat="42.699512030037305" lon="12.303964394609718"><ele>660.75</ele><time>2026-04-04T12:47:58.001Z</time></trkpt><trkpt lat="42.699630196687906" lon="12.303857472478855"><ele>656.5</ele><time>2026-04-04T12:47:59.001Z</time></trkpt><trkpt lat="42.69974716019579" lon="12.303759880512509"><ele>652.25</ele><time>2026-04-04T12:48:00.001Z</time></trkpt><trkpt lat="42.69986883000287" lon="12.303658278403837"><ele>648.0</ele><time>2026-04-04T12:48:01.001Z</time></trkpt><trkpt lat="42.699984520426625" lon="12.303551467620666"><ele>648.0</ele><time>2026-04-04T12:48:02.002Z</time></trkpt><trkpt lat="42.700090966886975" lon="12.303429298045739"><ele>648.0</ele><time>2026-04-04T12:48:03.001Z</time></trkpt><trkpt lat="42.70018600039128" lon="12.303294402872945"><ele>648.0</ele><time>2026-04-04T12:48:04.001Z</time></trkpt><trkpt lat="42.70027640179643" lon="12.303162647067417"><ele>648.0</ele><time>2026-04-04T12:48:05.001Z</time></trkpt><trkpt lat="42.70037961864919" lon="12.303057911319492"><ele>644.75</ele><time>2026-04-04T12:48:06.001Z</time></trkpt><trkpt lat="42.70050070426369" lon="12.302992401556935"><ele>641.5</ele><time>2026-04-04T12:48:07.001Z</time></trkpt><trkpt lat="42.700625023816016" lon="12.302938208307513"><ele>638.25</ele><time>2026-04-04T12:48:08.001Z</time></trkpt><trkpt lat="42.70075896852629" lon="12.302889246937799"><ele>635.0</ele><time>2026-04-04T12:48:09.001Z</time></trkpt><trkpt lat="42.70089219129154" lon="12.302828522428678"><ele>635.0</ele><time>2026-04-04T12:48:10.001Z</time></trkpt><trkpt lat="42.70102486734004" lon="12.302792440590382"><ele>635.0</ele><time>2026-04-04T12:48:11.001Z</time></trkpt><trkpt lat="42.70115194125117" lon="12.302757287964043"><ele>635.0</ele><time>2026-04-04T12:48:12.001Z</time></trkpt><trkpt lat="42.701278508888485" lon="12.302725571361142"><ele>635.0</ele><time>2026-04-04T12:48:13.001Z</time></trkpt><trkpt lat="42.701409432855236" lon="12.30272154322096"><ele>632.75</ele><time>2026-04-04T12:48:14.001Z</time></trkpt><trkpt lat="42.701529344970005" lon="12.302731056422244"><ele>630.5</ele><time>2026-04-04T12:48:15.001Z</time></trkpt><trkpt lat="42.701647358916844" lon="12.302770651482124"><ele>628.25</ele><time>2026-04-04T12:48:16.001Z</time></trkpt><trkpt lat="42.70175482300059" lon="12.302828863977044"><ele>626.0</ele><time>2026-04-04T12:48:17.001Z</time></trkpt><trkpt lat="42.70185388354428" lon="12.302902818176753"><ele>625.2</ele><time>2026-04-04T12:48:18.001Z</time></trkpt><trkpt lat="42.70192061664386" lon="12.30301861888838"><ele>624.4000000000001</ele><time>2026-04-04T12:48:19.001Z</time></trkpt><trkpt lat="42.70196894398004" lon="12.303140576020397"><ele>623.6</ele><time>2026-04-04T12:48:20.001Z</time></trkpt><trkpt lat="42.702016445645185" lon="12.3032846412983"><ele>622.8000000000001</ele><time>2026-04-04T12:48:21.001Z</time></trkpt><trkpt lat="42.70208336539244" lon="12.303423833926308"><ele>622.0</ele><time>2026-04-04T12:48:22.001Z</time></trkpt><trkpt lat="42.70214407980636" lon="12.303563341644976"><ele>622.0</ele><time>2026-04-04T12:48:23.001Z</time></trkpt><trkpt lat="42.70221677967298" lon="12.30366683635926"><ele>622.0</ele><time>2026-04-04T12:48:24.001Z</time></trkpt><trkpt lat="42.70230936389755" lon="12.303750641851675"><ele>622.0</ele><time>2026-04-04T12:48:25.001Z</time></trkpt><trkpt lat="42.702392639860925" lon="12.303820919810237"><ele>622.0</ele><time>2026-04-04T12:48:26.001Z</time></trkpt><trkpt lat="42.70248183431339" lon="12.3038531732116"><ele>622.0</ele><time>2026-04-04T12:48:27.001Z</time></trkpt><trkpt lat="42.7025653756675" lon="12.303867554076183"><ele>622.0</ele><time>2026-04-04T12:48:28.001Z</time></trkpt><trkpt lat="42.70263018260051" lon="12.303813466993791"><ele>622.0</ele><time>2026-04-04T12:48:29.001Z</time></trkpt><trkpt lat="42.70266793374923" lon="12.303742793086283"><ele>622.0</ele><time>2026-04-04T12:48:30.001Z</time></trkpt><trkpt lat="42.702687799444554" lon="12.30358183928333"><ele>622.0</ele><time>2026-04-04T12:48:32.001Z</time></trkpt><trkpt lat="42.70270315970351" lon="12.303477631380739"><ele>622.0</ele><time>2026-04-04T12:48:33.001Z</time></trkpt><trkpt lat="42.70272732504949" lon="12.303365193939038"><ele>622.0</ele><time>2026-04-04T12:48:34.001Z</time></trkpt><trkpt lat="42.702767245579835" lon="12.303276894962037"><ele>622.4</ele><time>2026-04-04T12:48:35.001Z</time></trkpt><trkpt lat="42.70283127116733" lon="12.303213056241324"><ele>622.8000000000001</ele><time>2026-04-04T12:48:36.001Z</time></trkpt><trkpt lat="42.702914281651914" lon="12.30319875707131"><ele>623.2</ele><time>2026-04-04T12:48:37.001Z</time></trkpt><trkpt lat="42.70301146652228" lon="12.303154464936695"><ele>623.6</ele><time>2026-04-04T12:48:38.001Z</time></trkpt><trkpt lat="42.70311958986089" lon="12.303097468215716"><ele>624.0</ele><time>2026-04-04T12:48:39.001Z</time></trkpt><trkpt lat="42.70324598155802" lon="12.303034879984379"><ele>617.25</ele><time>2026-04-04T12:48:40.001Z</time></trkpt><trkpt lat="42.70338170428259" lon="12.302968186569618"><ele>610.5</ele><time>2026-04-04T12:48:41.001Z</time></trkpt><trkpt lat="42.703513212396075" lon="12.30290851125968"><ele>603.75</ele><time>2026-04-04T12:48:42.001Z</time></trkpt><trkpt lat="42.703631434501375" lon="12.30283734727867"><ele>597.0</ele><time>2026-04-04T12:48:43.001Z</time></trkpt><trkpt lat="42.70374806174062" lon="12.302779491477683"><ele>597.0</ele><time>2026-04-04T12:48:44.001Z</time></trkpt><trkpt lat="42.70386728942259" lon="12.302735668198526"><ele>597.0</ele><time>2026-04-04T12:48:45.001Z</time></trkpt><trkpt lat="42.70398464886061" lon="12.30271117325469"><ele>597.0</ele><time>2026-04-04T12:48:46.001Z</time></trkpt><trkpt lat="42.70410859126251" lon="12.302697485945998"><ele>597.0</ele><time>2026-04-04T12:48:47.001Z</time></trkpt><trkpt lat="42.70423822079858" lon="12.302693681839235"><ele>597.0</ele><time>2026-04-04T12:48:48.001Z</time></trkpt><trkpt lat="42.70436929002924" lon="12.302707242305269"><ele>597.0</ele><time>2026-04-04T12:48:49.001Z</time></trkpt><trkpt lat="42.70450626395768" lon="12.302728874703618"><ele>597.0</ele><time>2026-04-04T12:48:50.001Z</time></trkpt><trkpt lat="42.70465088010262" lon="12.302753352760156"><ele>597.0</ele><time>2026-04-04T12:48:51.001Z</time></trkpt><trkpt lat="42.70479194373161" lon="12.302779165135377"><ele>595.25</ele><time>2026-04-04T12:48:52.001Z</time></trkpt><trkpt lat="42.704934879080966" lon="12.302820876776241"><ele>593.5</ele><time>2026-04-04T12:48:53.001Z</time></trkpt><trkpt lat="42.70507847054757" lon="12.302877467098028"><ele>591.75</ele><time>2026-04-04T12:48:54.001Z</time></trkpt><trkpt lat="42.70520927322602" lon="12.302975580581423"><ele>590.0</ele><time>2026-04-04T12:48:55.001Z</time></trkpt><trkpt lat="42.70534208879815" lon="12.30306848145925"><ele>589.75</ele><time>2026-04-04T12:48:56.001Z</time></trkpt><trkpt lat="42.705473884721584" lon="12.303148865007465"><ele>589.5</ele><time>2026-04-04T12:48:57.001Z</time></trkpt><trkpt lat="42.70558871547315" lon="12.30325518647548"><ele>589.25</ele><time>2026-04-04T12:48:58.001Z</time></trkpt><trkpt lat="42.70569612243589" lon="12.303354737372144"><ele>589.0</ele><time>2026-04-04T12:48:59.001Z</time></trkpt><trkpt lat="42.70578290759314" lon="12.303437715251514"><ele>589.0</ele><time>2026-04-04T12:49:00.001Z</time></trkpt><trkpt lat="42.70586120922638" lon="12.303486834342841"><ele>589.0</ele><time>2026-04-04T12:49:01.001Z</time></trkpt><trkpt lat="42.70592809679953" lon="12.303473579702098"><ele>589.0</ele><time>2026-04-04T12:49:02.001Z</time></trkpt><trkpt lat="42.70598568069875" lon="12.303427966382813"><ele>589.0</ele><time>2026-04-04T12:49:03.001Z</time></trkpt><trkpt lat="42.70602590961876" lon="12.303354563682367"><ele>589.0</ele><time>2026-04-04T12:49:04.001Z</time></trkpt><trkpt lat="42.70598815181282" lon="12.303178977639835"><ele>589.0</ele><time>2026-04-04T12:49:06.001Z</time></trkpt><trkpt lat="42.70592683448381" lon="12.303087857724094"><ele>586.5</ele><time>2026-04-04T12:49:07.001Z</time></trkpt><trkpt lat="42.70585014413056" lon="12.30298344190362"><ele>584.0</ele><time>2026-04-04T12:49:08.001Z</time></trkpt><trkpt lat="42.705775196819964" lon="12.302858232372078"><ele>581.5</ele><time>2026-04-04T12:49:09.001Z</time></trkpt><trkpt lat="42.705694982675226" lon="12.302709214031953"><ele>579.0</ele><time>2026-04-04T12:49:10.001Z</time></trkpt><trkpt lat="42.705624571087306" lon="12.302549319647037"><ele>579.0</ele><time>2026-04-04T12:49:11.001Z</time></trkpt><trkpt lat="42.70556112178876" lon="12.302386574950074"><ele>579.0</ele><time>2026-04-04T12:49:12.001Z</time></trkpt><trkpt lat="42.705492022529015" lon="12.302230873783897"><ele>579.0</ele><time>2026-04-04T12:49:13.001Z</time></trkpt><trkpt lat="42.705418949427276" lon="12.302071320193058"><ele>579.0</ele><time>2026-04-04T12:49:14.001Z</time></trkpt><trkpt lat="42.70534320917082" lon="12.301927315805916"><ele>578.0</ele><time>2026-04-04T12:49:15.001Z</time></trkpt><trkpt lat="42.705265203741135" lon="12.30177952696891"><ele>577.0</ele><time>2026-04-04T12:49:16.001Z</time></trkpt><trkpt lat="42.7051803862644" lon="12.301634881200012"><ele>576.0</ele><time>2026-04-04T12:49:17.001Z</time></trkpt><trkpt lat="42.705086639703026" lon="12.301503045565486"><ele>575.0</ele><time>2026-04-04T12:49:18.001Z</time></trkpt><trkpt lat="42.7049819582665" lon="12.301389704326606"><ele>571.5</ele><time>2026-04-04T12:49:19.001Z</time></trkpt><trkpt lat="42.704882789613016" lon="12.301280627724879"><ele>568.0</ele><time>2026-04-04T12:49:20.001Z</time></trkpt><trkpt lat="42.70477615906602" lon="12.301186746303049"><ele>564.5</ele><time>2026-04-04T12:49:21.001Z</time></trkpt><trkpt lat="42.70467437262006" lon="12.301111546253674"><ele>561.0</ele><time>2026-04-04T12:49:22.001Z</time></trkpt><trkpt lat="42.704577774386806" lon="12.301059825678033"><ele>561.0</ele><time>2026-04-04T12:49:23.001Z</time></trkpt><trkpt lat="42.70450437324487" lon="12.301003851515341"><ele>561.0</ele><time>2026-04-04T12:49:24.001Z</time></trkpt><trkpt lat="42.70444211229721" lon="12.300963915132876"><ele>561.0</ele><time>2026-04-04T12:49:25.001Z</time></trkpt><trkpt lat="42.70437743442707" lon="12.300840599451297"><ele>561.0</ele><time>2026-04-04T12:49:27.001Z</time></trkpt><trkpt lat="42.70441379367655" lon="12.300761368400154"><ele>561.0</ele><time>2026-04-04T12:49:28.001Z</time></trkpt><trkpt lat="42.70447385302448" lon="12.300702690638587"><ele>561.0</ele><time>2026-04-04T12:49:29.001Z</time></trkpt><trkpt lat="42.704561058346144" lon="12.300672014421666"><ele>561.0</ele><time>2026-04-04T12:49:30.001Z</time></trkpt><trkpt lat="42.704666638326344" lon="12.300668217179673"><ele>561.0</ele><time>2026-04-04T12:49:31.001Z</time></trkpt><trkpt lat="42.7047838117399" lon="12.300679416693697"><ele>561.0</ele><time>2026-04-04T12:49:32.001Z</time></trkpt><trkpt lat="42.704900873334005" lon="12.300680539006706"><ele>561.0</ele><time>2026-04-04T12:49:33.001Z</time></trkpt><trkpt lat="42.70502678949593" lon="12.30067502445527"><ele>561.0</ele><time>2026-04-04T12:49:34.001Z</time></trkpt><trkpt lat="42.70515871901152" lon="12.300655361881443"><ele>561.0</ele><time>2026-04-04T12:49:35.001Z</time></trkpt><trkpt lat="42.70527902213186" lon="12.300624721037945"><ele>561.0</ele><time>2026-04-04T12:49:36.001Z</time></trkpt><trkpt lat="42.70539367745629" lon="12.300579143653682"><ele>561.0</ele><time>2026-04-04T12:49:37.001Z</time></trkpt><trkpt lat="42.70550771197266" lon="12.300523010530371"><ele>556.75</ele><time>2026-04-04T12:49:38.001Z</time></trkpt><trkpt lat="42.705624611878584" lon="12.300466982951068"><ele>552.5</ele><time>2026-04-04T12:49:39.001Z</time></trkpt><trkpt lat="42.70573990538724" lon="12.30041984801999"><ele>548.25</ele><time>2026-04-04T12:49:40.001Z</time></trkpt><trkpt lat="42.70585920715766" lon="12.300367704631904"><ele>544.0</ele><time>2026-04-04T12:49:41.001Z</time></trkpt><trkpt lat="42.70597958917065" lon="12.300318473891412"><ele>544.0</ele><time>2026-04-04T12:49:42.001Z</time></trkpt><trkpt lat="42.70610971922483" lon="12.300269399243081"><ele>544.0</ele><time>2026-04-04T12:49:43.001Z</time></trkpt><trkpt lat="42.7062427953163" lon="12.300202935719662"><ele>544.0</ele><time>2026-04-04T12:49:44.001Z</time></trkpt><trkpt lat="42.70637679029671" lon="12.300130622161266"><ele>544.0</ele><time>2026-04-04T12:49:45.001Z</time></trkpt><trkpt lat="42.706510700785586" lon="12.300054867749466"><ele>544.0</ele><time>2026-04-04T12:49:46.001Z</time></trkpt><trkpt lat="42.70663913112902" lon="12.299969997482476"><ele>544.0</ele><time>2026-04-04T12:49:47.001Z</time></trkpt><trkpt lat="42.706768399106224" lon="12.299883594669653"><ele>544.0</ele><time>2026-04-04T12:49:48.001Z</time></trkpt><trkpt lat="42.706896062838595" lon="12.299789845550725"><ele>544.0</ele><time>2026-04-04T12:49:49.001Z</time></trkpt><trkpt lat="42.70702249348864" lon="12.299690434919052"><ele>541.25</ele><time>2026-04-04T12:49:50.001Z</time></trkpt><trkpt lat="42.70714238091877" lon="12.299593350210182"><ele>538.5</ele><time>2026-04-04T12:49:51.001Z</time></trkpt><trkpt lat="42.70726355595332" lon="12.299501713544336"><ele>535.75</ele><time>2026-04-04T12:49:52.001Z</time></trkpt><trkpt lat="42.7073775932215" lon="12.299407703612012"><ele>533.0</ele><time>2026-04-04T12:49:53.001Z</time></trkpt><trkpt lat="42.707474039767014" lon="12.299312388086204"><ele>533.0</ele><time>2026-04-04T12:49:54.001Z</time></trkpt><trkpt lat="42.70755562747014" lon="12.299200089542126"><ele>533.0</ele><time>2026-04-04T12:49:55.001Z</time></trkpt><trkpt lat="42.707622606196345" lon="12.29905650226213"><ele>533.0</ele><time>2026-04-04T12:49:56.001Z</time></trkpt><trkpt lat="42.7077015368655" lon="12.29891249867328"><ele>533.0</ele><time>2026-04-04T12:49:57.002Z</time></trkpt><trkpt lat="42.707763485587" lon="12.298755532247558"><ele>532.25</ele><time>2026-04-04T12:49:58.002Z</time></trkpt><trkpt lat="42.70782651526008" lon="12.298610761266598"><ele>531.5</ele><time>2026-04-04T12:49:59.002Z</time></trkpt><trkpt lat="42.70787844522956" lon="12.298464047799756"><ele>530.75</ele><time>2026-04-04T12:50:00.002Z</time></trkpt><trkpt lat="42.707911616541004" lon="12.298302713335604"><ele>530.0</ele><time>2026-04-04T12:50:01.002Z</time></trkpt><trkpt lat="42.70791372195635" lon="12.29813015294025"><ele>530.75</ele><time>2026-04-04T12:50:02.002Z</time></trkpt><trkpt lat="42.707889430705805" lon="12.297956082053252"><ele>531.5</ele><time>2026-04-04T12:50:03.002Z</time></trkpt><trkpt lat="42.70784032023798" lon="12.297784590920418"><ele>532.25</ele><time>2026-04-04T12:50:04.002Z</time></trkpt><trkpt lat="42.7077639465677" lon="12.297622587263694"><ele>533.0</ele><time>2026-04-04T12:50:05.002Z</time></trkpt><trkpt lat="42.7076657460709" lon="12.297475115969993"><ele>532.0</ele><time>2026-04-04T12:50:06.002Z</time></trkpt><trkpt lat="42.70754496743758" lon="12.297338067277037"><ele>531.0</ele><time>2026-04-04T12:50:07.002Z</time></trkpt><trkpt lat="42.707416145999375" lon="12.297195377920442"><ele>530.0</ele><time>2026-04-04T12:50:08.002Z</time></trkpt><trkpt lat="42.70728668863847" lon="12.297049986933043"><ele>530.0</ele><time>2026-04-04T12:50:09.001Z</time></trkpt><trkpt lat="42.70715995806897" lon="12.296902726352776"><ele>530.0</ele><time>2026-04-04T12:50:10.001Z</time></trkpt><trkpt lat="42.70702233863148" lon="12.296741315270578"><ele>530.0</ele><time>2026-04-04T12:50:11.001Z</time></trkpt><trkpt lat="42.70688829980934" lon="12.296577514504207"><ele>529.6666666666666</ele><time>2026-04-04T12:50:12.001Z</time></trkpt><trkpt lat="42.70675882249254" lon="12.296428784258607"><ele>529.3333333333334</ele><time>2026-04-04T12:50:13.001Z</time></trkpt><trkpt lat="42.70662580259842" lon="12.296288516506241"><ele>529.0</ele><time>2026-04-04T12:50:14.001Z</time></trkpt><trkpt lat="42.70650148889931" lon="12.296146618308406"><ele>529.0</ele><time>2026-04-04T12:50:15.001Z</time></trkpt><trkpt lat="42.706392412375784" lon="12.295985555061515"><ele>529.0</ele><time>2026-04-04T12:50:16.001Z</time></trkpt><trkpt lat="42.7062804574779" lon="12.295819392750635"><ele>529.0</ele><time>2026-04-04T12:50:17.001Z</time></trkpt><trkpt lat="42.70616173301376" lon="12.295676453511533"><ele>524.75</ele><time>2026-04-04T12:50:18.001Z</time></trkpt><trkpt lat="42.70606220897323" lon="12.295523273126124"><ele>520.5</ele><time>2026-04-04T12:50:19.001Z</time></trkpt><trkpt lat="42.70597026033194" lon="12.295386068240736"><ele>516.25</ele><time>2026-04-04T12:50:20.001Z</time></trkpt><trkpt lat="42.70589139128467" lon="12.295240139494233"><ele>512.0</ele><time>2026-04-04T12:50:21.001Z</time></trkpt><trkpt lat="42.70583086577537" lon="12.29508919945169"><ele>512.0</ele><time>2026-04-04T12:50:22.001Z</time></trkpt><trkpt lat="42.70580171555864" lon="12.29492841127896"><ele>512.0</ele><time>2026-04-04T12:50:23.001Z</time></trkpt><trkpt lat="42.705789732900826" lon="12.29475630664634"><ele>512.0</ele><time>2026-04-04T12:50:24.001Z</time></trkpt><trkpt lat="42.705786473909825" lon="12.29456784517549"><ele>512.0</ele><time>2026-04-04T12:50:25.001Z</time></trkpt><trkpt lat="42.70577029103927" lon="12.294385159563681"><ele>512.25</ele><time>2026-04-04T12:50:26.001Z</time></trkpt><trkpt lat="42.705779033605175" lon="12.29421274658232"><ele>512.5</ele><time>2026-04-04T12:50:27.001Z</time></trkpt><trkpt lat="42.705788780269536" lon="12.294040083170865"><ele>512.75</ele><time>2026-04-04T12:50:28.001Z</time></trkpt><trkpt lat="42.70583510042998" lon="12.293878921821655"><ele>513.0</ele><time>2026-04-04T12:50:29.001Z</time></trkpt><trkpt lat="42.70587013140077" lon="12.293717395129548"><ele>510.0</ele><time>2026-04-04T12:50:30.001Z</time></trkpt><trkpt lat="42.70590892339291" lon="12.293568324895755"><ele>507.0</ele><time>2026-04-04T12:50:31.001Z</time></trkpt><trkpt lat="42.70592775309675" lon="12.293410215685302"><ele>504.0</ele><time>2026-04-04T12:50:32.001Z</time></trkpt><trkpt lat="42.70593690988516" lon="12.29324029659401"><ele>501.0</ele><time>2026-04-04T12:50:33.001Z</time></trkpt><trkpt lat="42.70596233978492" lon="12.293073591897741"><ele>500.8333333333333</ele><time>2026-04-04T12:50:34.001Z</time></trkpt><trkpt lat="42.70599041116639" lon="12.292916123492008"><ele>500.66666666666663</ele><time>2026-04-04T12:50:35.001Z</time></trkpt><trkpt lat="42.70601807916121" lon="12.292781279087128"><ele>500.5</ele><time>2026-04-04T12:50:36.001Z</time></trkpt><trkpt lat="42.7060478517673" lon="12.292684167875889"><ele>500.3333333333333</ele><time>2026-04-04T12:50:37.001Z</time></trkpt><trkpt lat="42.70610210597611" lon="12.292626785153686"><ele>500.16666666666663</ele><time>2026-04-04T12:50:38.001Z</time></trkpt><trkpt lat="42.70617649577311" lon="12.2926143231243"><ele>500.0</ele><time>2026-04-04T12:50:39.001Z</time></trkpt><trkpt lat="42.706258988227944" lon="12.292630355508399"><ele>500.0</ele><time>2026-04-04T12:50:40.001Z</time></trkpt><trkpt lat="42.70634044958583" lon="12.292711131043768"><ele>500.0</ele><time>2026-04-04T12:50:41.001Z</time></trkpt><trkpt lat="42.70644459171922" lon="12.292751711565613"><ele>500.0</ele><time>2026-04-04T12:50:42.001Z</time></trkpt><trkpt lat="42.70655340290518" lon="12.292822430063572"><ele>500.0</ele><time>2026-04-04T12:50:43.001Z</time></trkpt><trkpt lat="42.70667000294767" lon="12.292882760267045"><ele>500.0</ele><time>2026-04-04T12:50:44.001Z</time></trkpt><trkpt lat="42.70678109963739" lon="12.292920728448976"><ele>500.0</ele><time>2026-04-04T12:50:45.001Z</time></trkpt><trkpt lat="42.70689275523514" lon="12.292937428346818"><ele>500.0</ele><time>2026-04-04T12:50:46.001Z</time></trkpt><trkpt lat="42.70700191938834" lon="12.292921680091625"><ele>500.0</ele><time>2026-04-04T12:50:47.001Z</time></trkpt><trkpt lat="42.70711121856633" lon="12.292882691029561"><ele>500.25</ele><time>2026-04-04T12:50:48.001Z</time></trkpt><trkpt lat="42.707225149936185" lon="12.292830831917692"><ele>500.5</ele><time>2026-04-04T12:50:49.001Z</time></trkpt><trkpt lat="42.70732744364253" lon="12.292755001803808"><ele>500.75</ele><time>2026-04-04T12:50:50.001Z</time></trkpt><trkpt lat="42.707414093907055" lon="12.292652996784115"><ele>501.0</ele><time>2026-04-04T12:50:51.001Z</time></trkpt><trkpt lat="42.70750240587998" lon="12.29253951669733"><ele>501.0</ele><time>2026-04-04T12:50:52.001Z</time></trkpt><trkpt lat="42.707575141554464" lon="12.292403429324978"><ele>501.0</ele><time>2026-04-04T12:50:53.001Z</time></trkpt><trkpt lat="42.7076338645082" lon="12.29225962417741"><ele>501.0</ele><time>2026-04-04T12:50:54.001Z</time></trkpt><trkpt lat="42.70768074869793" lon="12.29211712488897"><ele>501.0</ele><time>2026-04-04T12:50:55.001Z</time></trkpt><trkpt lat="42.707722136282165" lon="12.291978853789086"><ele>500.4</ele><time>2026-04-04T12:50:56.001Z</time></trkpt><trkpt lat="42.70776069026638" lon="12.291853506237207"><ele>499.8</ele><time>2026-04-04T12:50:57.001Z</time></trkpt><trkpt lat="42.70778611248317" lon="12.291717917972312"><ele>499.19999999999993</ele><time>2026-04-04T12:50:58.001Z</time></trkpt><trkpt lat="42.707790310974126" lon="12.291575552122868"><ele>498.59999999999997</ele><time>2026-04-04T12:50:59.001Z</time></trkpt><trkpt lat="42.70776174525524" lon="12.291433395904242"><ele>498.0</ele><time>2026-04-04T12:51:00.001Z</time></trkpt><trkpt lat="42.7077469475232" lon="12.291304509654918"><ele>496.79999999999995</ele><time>2026-04-04T12:51:01.001Z</time></trkpt><trkpt lat="42.70774236189323" lon="12.291174229579605"><ele>495.59999999999997</ele><time>2026-04-04T12:51:02.001Z</time></trkpt><trkpt lat="42.70775084854948" lon="12.291044641232293"><ele>494.40000000000003</ele><time>2026-04-04T12:51:03.001Z</time></trkpt><trkpt lat="42.70777844252498" lon="12.290913469171528"><ele>493.20000000000005</ele><time>2026-04-04T12:51:04.001Z</time></trkpt><trkpt lat="42.70782821110045" lon="12.29077741849487"><ele>492.0</ele><time>2026-04-04T12:51:05.001Z</time></trkpt><trkpt lat="42.70789393002849" lon="12.290642988373989"><ele>488.5</ele><time>2026-04-04T12:51:06.001Z</time></trkpt><trkpt lat="42.707972550306984" lon="12.290512394779311"><ele>485.0</ele><time>2026-04-04T12:51:07.001Z</time></trkpt><trkpt lat="42.708061822555294" lon="12.290383727827038"><ele>481.5</ele><time>2026-04-04T12:51:08.001Z</time></trkpt><trkpt lat="42.708150261981565" lon="12.290257607752231"><ele>478.0</ele><time>2026-04-04T12:51:09.001Z</time></trkpt><trkpt lat="42.70824151010078" lon="12.29014415978787"><ele>478.0</ele><time>2026-04-04T12:51:10.001Z</time></trkpt><trkpt lat="42.7083423342262" lon="12.290051487858834"><ele>478.0</ele><time>2026-04-04T12:51:11.001Z</time></trkpt><trkpt lat="42.70846358250833" lon="12.289984812462727"><ele>478.0</ele><time>2026-04-04T12:51:12.001Z</time></trkpt><trkpt lat="42.70859308076023" lon="12.289963195384443"><ele>478.0</ele><time>2026-04-04T12:51:13.001Z</time></trkpt><trkpt lat="42.70871560190949" lon="12.289919744728852"><ele>477.5</ele><time>2026-04-04T12:51:14.001Z</time></trkpt><trkpt lat="42.708840901666505" lon="12.289932816534808"><ele>477.0</ele><time>2026-04-04T12:51:15.001Z</time></trkpt><trkpt lat="42.70894713624252" lon="12.29001181086503"><ele>476.5</ele><time>2026-04-04T12:51:16.001Z</time></trkpt><trkpt lat="42.70905105495349" lon="12.290077003797036"><ele>476.0</ele><time>2026-04-04T12:51:17.001Z</time></trkpt><trkpt lat="42.70916514308386" lon="12.290131644452293"><ele>476.0</ele><time>2026-04-04T12:51:18.001Z</time></trkpt><trkpt lat="42.70927203828295" lon="12.290189884291012"><ele>476.0</ele><time>2026-04-04T12:51:19.001Z</time></trkpt><trkpt lat="42.70938165404196" lon="12.290199801859567"><ele>476.0</ele><time>2026-04-04T12:51:20.001Z</time></trkpt><trkpt lat="42.70949054264631" lon="12.290177558564345"><ele>476.0</ele><time>2026-04-04T12:51:21.001Z</time></trkpt><trkpt lat="42.70961312221679" lon="12.290129837984649"><ele>474.5</ele><time>2026-04-04T12:51:22.001Z</time></trkpt><trkpt lat="42.70974033867403" lon="12.290068031108575"><ele>473.0</ele><time>2026-04-04T12:51:23.001Z</time></trkpt><trkpt lat="42.70986743622689" lon="12.29005117744838"><ele>471.5</ele><time>2026-04-04T12:51:24.001Z</time></trkpt><trkpt lat="42.709991454439844" lon="12.290005252118718"><ele>470.0</ele><time>2026-04-04T12:51:25.001Z</time></trkpt><trkpt lat="42.71011885549063" lon="12.289986009805553"><ele>468.5</ele><time>2026-04-04T12:51:26.001Z</time></trkpt><trkpt lat="42.71024802472472" lon="12.28997436873538"><ele>467.0</ele><time>2026-04-04T12:51:27.001Z</time></trkpt><trkpt lat="42.710381338625574" lon="12.290001797857693"><ele>465.5</ele><time>2026-04-04T12:51:28.001Z</time></trkpt><trkpt lat="42.71051481215771" lon="12.290027747616712"><ele>464.0</ele><time>2026-04-04T12:51:29.001Z</time></trkpt><trkpt lat="42.710649662493545" lon="12.290049911589097"><ele>464.0</ele><time>2026-04-04T12:51:30.001Z</time></trkpt><trkpt lat="42.710773162731805" lon="12.290079732648021"><ele>464.0</ele><time>2026-04-04T12:51:31.001Z</time></trkpt><trkpt lat="42.71088856347158" lon="12.290110661474934"><ele>464.0</ele><time>2026-04-04T12:51:32.001Z</time></trkpt><trkpt lat="42.7109950399665" lon="12.290112830540407"><ele>464.0</ele><time>2026-04-04T12:51:33.001Z</time></trkpt><trkpt lat="42.71109324756391" lon="12.290087768681094"><ele>464.0</ele><time>2026-04-04T12:51:34.001Z</time></trkpt><trkpt lat="42.711178661857375" lon="12.290019308060154"><ele>464.0</ele><time>2026-04-04T12:51:35.001Z</time></trkpt><trkpt lat="42.71125842002676" lon="12.289928324423993"><ele>464.0</ele><time>2026-04-04T12:51:36.001Z</time></trkpt><trkpt lat="42.71133626754569" lon="12.289839328404716"><ele>464.0</ele><time>2026-04-04T12:51:37.001Z</time></trkpt><trkpt lat="42.71141195484528" lon="12.289759345147962"><ele>464.0</ele><time>2026-04-04T12:51:38.001Z</time></trkpt><trkpt lat="42.7114769296423" lon="12.28967501590923"><ele>464.0</ele><time>2026-04-04T12:51:39.001Z</time></trkpt><trkpt lat="42.71151377921385" lon="12.289572205335174"><ele>461.5</ele><time>2026-04-04T12:51:40.001Z</time></trkpt><trkpt lat="42.71151715877066" lon="12.28945159900638"><ele>459.0</ele><time>2026-04-04T12:51:41.001Z</time></trkpt><trkpt lat="42.71149247076346" lon="12.289309149985348"><ele>456.5</ele><time>2026-04-04T12:51:42.001Z</time></trkpt><trkpt lat="42.71143934233858" lon="12.289156600320279"><ele>454.0</ele><time>2026-04-04T12:51:43.001Z</time></trkpt><trkpt lat="42.71136920757206" lon="12.288982567840085"><ele>453.25</ele><time>2026-04-04T12:51:44.001Z</time></trkpt><trkpt lat="42.71130052184533" lon="12.288807620303311"><ele>452.5</ele><time>2026-04-04T12:51:45.001Z</time></trkpt><trkpt lat="42.71122745865416" lon="12.288643030336917"><ele>451.75</ele><time>2026-04-04T12:51:46.001Z</time></trkpt><trkpt lat="42.71114650109549" lon="12.288486294707468"><ele>451.0</ele><time>2026-04-04T12:51:47.001Z</time></trkpt><trkpt lat="42.71107729465079" lon="12.288333426605869"><ele>451.0</ele><time>2026-04-04T12:51:48.001Z</time></trkpt><trkpt lat="42.71103756818078" lon="12.288169980060971"><ele>451.0</ele><time>2026-04-04T12:51:49.001Z</time></trkpt><trkpt lat="42.71098364342085" lon="12.288030062058517"><ele>451.0</ele><time>2026-04-04T12:51:50.001Z</time></trkpt><trkpt lat="42.7109504307102" lon="12.287892841055076"><ele>451.0</ele><time>2026-04-04T12:51:51.001Z</time></trkpt><trkpt lat="42.71094236374157" lon="12.287760643344535"><ele>451.0</ele><time>2026-04-04T12:51:52.001Z</time></trkpt><trkpt lat="42.710904986116105" lon="12.287648787180393"><ele>451.8</ele><time>2026-04-04T12:51:53.001Z</time></trkpt><trkpt lat="42.71087939478111" lon="12.287556673320593"><ele>452.6</ele><time>2026-04-04T12:51:54.001Z</time></trkpt><trkpt lat="42.710861156330324" lon="12.287465761654252"><ele>453.4</ele><time>2026-04-04T12:51:55.001Z</time></trkpt><trkpt lat="42.710796092515515" lon="12.287335544985734"><ele>454.2</ele><time>2026-04-04T12:51:57.001Z</time></trkpt><trkpt lat="42.71065371074322" lon="12.287316826286858"><ele>455.0</ele><time>2026-04-04T12:52:00.001Z</time></trkpt><trkpt lat="42.71054820857031" lon="12.287401686723909"><ele>454.99999999999994</ele><time>2026-04-04T12:52:02.001Z</time></trkpt><trkpt lat="42.71047850548625" lon="12.287437914010281"><ele>455.0</ele><time>2026-04-04T12:52:03.001Z</time></trkpt><trkpt lat="42.71040273508288" lon="12.287449622145356"><ele>455.0</ele><time>2026-04-04T12:52:04.001Z</time></trkpt><trkpt lat="42.71032922134037" lon="12.287447264124502"><ele>455.0</ele><time>2026-04-04T12:52:05.001Z</time></trkpt><trkpt lat="42.71025629282241" lon="12.28741495283623"><ele>454.99999999999994</ele><time>2026-04-04T12:52:06.001Z</time></trkpt><trkpt lat="42.71018711172229" lon="12.287368992426334"><ele>455.0</ele><time>2026-04-04T12:52:07.001Z</time></trkpt><trkpt lat="42.71012306207363" lon="12.287314869133311"><ele>454.66666666666663</ele><time>2026-04-04T12:52:08.001Z</time></trkpt><trkpt lat="42.710055431244655" lon="12.287265503331135"><ele>454.3333333333333</ele><time>2026-04-04T12:52:09.001Z</time></trkpt><trkpt lat="42.70998530630045" lon="12.287213676336815"><ele>454.0</ele><time>2026-04-04T12:52:10.001Z</time></trkpt><trkpt lat="42.70991239548997" lon="12.287156552596931"><ele>453.66666666666663</ele><time>2026-04-04T12:52:11.001Z</time></trkpt><trkpt lat="42.70984379012067" lon="12.287100504026798"><ele>453.3333333333333</ele><time>2026-04-04T12:52:12.001Z</time></trkpt><trkpt lat="42.70977984271765" lon="12.287028735884588"><ele>453.0</ele><time>2026-04-04T12:52:13.001Z</time></trkpt><trkpt lat="42.709723248228386" lon="12.286941921917746"><ele>453.0</ele><time>2026-04-04T12:52:14.001Z</time></trkpt><trkpt lat="42.70967373974282" lon="12.286845601479822"><ele>453.0</ele><time>2026-04-04T12:52:15.001Z</time></trkpt><trkpt lat="42.70963007263153" lon="12.286739868056767"><ele>453.0</ele><time>2026-04-04T12:52:16.001Z</time></trkpt><trkpt lat="42.709586621016776" lon="12.286634260130848"><ele>453.0</ele><time>2026-04-04T12:52:17.001Z</time></trkpt><trkpt lat="42.70953888968476" lon="12.286526029863941"><ele>453.0</ele><time>2026-04-04T12:52:18.001Z</time></trkpt><trkpt lat="42.70948583165971" lon="12.286426518174096"><ele>453.0</ele><time>2026-04-04T12:52:19.001Z</time></trkpt><trkpt lat="42.70943388253513" lon="12.28631504684901"><ele>452.0</ele><time>2026-04-04T12:52:20.001Z</time></trkpt><trkpt lat="42.70934367448252" lon="12.286241200939246"><ele>450.99999999999994</ele><time>2026-04-04T12:52:21.001Z</time></trkpt><trkpt lat="42.70925391393833" lon="12.286163023567159"><ele>449.99999999999994</ele><time>2026-04-04T12:52:22.001Z</time></trkpt><trkpt lat="42.709163163647304" lon="12.286088799510681"><ele>449.0</ele><time>2026-04-04T12:52:23.001Z</time></trkpt><trkpt lat="42.70906575741579" lon="12.286016705490308"><ele>448.0</ele><time>2026-04-04T12:52:24.001Z</time></trkpt><trkpt lat="42.70896274360811" lon="12.285940526551848"><ele>448.0</ele><time>2026-04-04T12:52:25.001Z</time></trkpt><trkpt lat="42.708871441051414" lon="12.285854448478661"><ele>448.0</ele><time>2026-04-04T12:52:26.001Z</time></trkpt><trkpt lat="42.708767881082146" lon="12.28577323454818"><ele>448.0</ele><time>2026-04-04T12:52:27.001Z</time></trkpt><trkpt lat="42.70866845252756" lon="12.285692611598085"><ele>448.0</ele><time>2026-04-04T12:52:28.001Z</time></trkpt><trkpt lat="42.708565987260734" lon="12.285599739968164"><ele>445.5</ele><time>2026-04-04T12:52:29.001Z</time></trkpt><trkpt lat="42.708484981795365" lon="12.285472099860527"><ele>443.0</ele><time>2026-04-04T12:52:30.001Z</time></trkpt><trkpt lat="42.708406944106834" lon="12.28533095503093"><ele>440.5</ele><time>2026-04-04T12:52:31.001Z</time></trkpt><trkpt lat="42.70834216282807" lon="12.285172085762992"><ele>438.0</ele><time>2026-04-04T12:52:32.001Z</time></trkpt><trkpt lat="42.70828115241298" lon="12.28499913113262"><ele>438.0</ele><time>2026-04-04T12:52:33.001Z</time></trkpt><trkpt lat="42.708231324477005" lon="12.28480966590877"><ele>438.0</ele><time>2026-04-04T12:52:34.001Z</time></trkpt><trkpt lat="42.708179633290506" lon="12.284606179454885"><ele>438.0</ele><time>2026-04-04T12:52:35.001Z</time></trkpt><trkpt lat="42.70813419862024" lon="12.284395903864858"><ele>438.33333333333337</ele><time>2026-04-04T12:52:36.001Z</time></trkpt><trkpt lat="42.7080849461282" lon="12.284186777294185"><ele>438.6666666666667</ele><time>2026-04-04T12:52:37.001Z</time></trkpt><trkpt lat="42.70803572247396" lon="12.283981795569503"><ele>439.0</ele><time>2026-04-04T12:52:38.001Z</time></trkpt><trkpt lat="42.70799078809475" lon="12.283772456480445"><ele>439.0</ele><time>2026-04-04T12:52:39.001Z</time></trkpt><trkpt lat="42.70795493282166" lon="12.283573810123045"><ele>439.0</ele><time>2026-04-04T12:52:40.001Z</time></trkpt><trkpt lat="42.70793333965126" lon="12.283377215105004"><ele>439.0</ele><time>2026-04-04T12:52:41.001Z</time></trkpt><trkpt lat="42.707938015829214" lon="12.283191489722542"><ele>439.0</ele><time>2026-04-04T12:52:42.001Z</time></trkpt><trkpt lat="42.70795248975912" lon="12.28300969387041"><ele>436.75</ele><time>2026-04-04T12:52:43.001Z</time></trkpt><trkpt lat="42.70798307619816" lon="12.282845104801032"><ele>434.5</ele><time>2026-04-04T12:52:44.001Z</time></trkpt><trkpt lat="42.70802252699795" lon="12.282675141074446"><ele>432.25</ele><time>2026-04-04T12:52:45.001Z</time></trkpt><trkpt lat="42.70807235424835" lon="12.282505603770575"><ele>430.0</ele><time>2026-04-04T12:52:46.001Z</time></trkpt><trkpt lat="42.70812447831913" lon="12.282321874858473"><ele>426.6666666666667</ele><time>2026-04-04T12:52:47.001Z</time></trkpt><trkpt lat="42.70817871696758" lon="12.28213124587621"><ele>423.33333333333337</ele><time>2026-04-04T12:52:48.001Z</time></trkpt><trkpt lat="42.70822798071643" lon="12.281931745483023"><ele>420.0</ele><time>2026-04-04T12:52:49.001Z</time></trkpt><trkpt lat="42.70828648499856" lon="12.281735506435368"><ele>420.0</ele><time>2026-04-04T12:52:50.001Z</time></trkpt><trkpt lat="42.70834217131189" lon="12.281544609436223"><ele>420.0</ele><time>2026-04-04T12:52:51.001Z</time></trkpt><trkpt lat="42.708399464829945" lon="12.281362443349636"><ele>420.0</ele><time>2026-04-04T12:52:52.001Z</time></trkpt><trkpt lat="42.70847113639649" lon="12.281201949341826"><ele>420.0</ele><time>2026-04-04T12:52:53.001Z</time></trkpt><trkpt lat="42.70855216564933" lon="12.281051907231246"><ele>422.25</ele><time>2026-04-04T12:52:54.001Z</time></trkpt><trkpt lat="42.70863658712057" lon="12.280898450778002"><ele>424.5</ele><time>2026-04-04T12:52:55.001Z</time></trkpt><trkpt lat="42.70871883578266" lon="12.280743693409503"><ele>426.75</ele><time>2026-04-04T12:52:56.001Z</time></trkpt><trkpt lat="42.7087939687152" lon="12.280588674271764"><ele>429.0</ele><time>2026-04-04T12:52:57.001Z</time></trkpt><trkpt lat="42.70886371531144" lon="12.280432564857767"><ele>424.5</ele><time>2026-04-04T12:52:58.001Z</time></trkpt><trkpt lat="42.708932840441854" lon="12.280282461663068"><ele>420.0</ele><time>2026-04-04T12:52:59.001Z</time></trkpt><trkpt lat="42.709007196709805" lon="12.280130261437725"><ele>415.5</ele><time>2026-04-04T12:53:00.001Z</time></trkpt><trkpt lat="42.70910692742147" lon="12.279998773162953"><ele>411.0</ele><time>2026-04-04T12:53:01.001Z</time></trkpt><trkpt lat="42.70919043119153" lon="12.279850734108608"><ele>409.25</ele><time>2026-04-04T12:53:02.001Z</time></trkpt><trkpt lat="42.7092905463118" lon="12.279727376306305"><ele>407.5</ele><time>2026-04-04T12:53:03.001Z</time></trkpt><trkpt lat="42.709401828806186" lon="12.279625400884306"><ele>405.75</ele><time>2026-04-04T12:53:04.001Z</time></trkpt><trkpt lat="42.70951052050921" lon="12.279533089643573"><ele>404.0</ele><time>2026-04-04T12:53:05.001Z</time></trkpt><trkpt lat="42.709620220839746" lon="12.279459875557425"><ele>403.99999999999994</ele><time>2026-04-04T12:53:06.001Z</time></trkpt><trkpt lat="42.709717266807765" lon="12.27939911712196"><ele>404.0</ele><time>2026-04-04T12:53:07.001Z</time></trkpt><trkpt lat="42.70978747925729" lon="12.279330289551886"><ele>404.0</ele><time>2026-04-04T12:53:08.001Z</time></trkpt><trkpt lat="42.70982959495822" lon="12.279249309965001"><ele>404.0</ele><time>2026-04-04T12:53:09.001Z</time></trkpt><trkpt lat="42.709836783104045" lon="12.279154869171078"><ele>403.99999999999994</ele><time>2026-04-04T12:53:10.001Z</time></trkpt><trkpt lat="42.70983022790141" lon="12.279057401356175"><ele>404.0</ele><time>2026-04-04T12:53:11.001Z</time></trkpt><trkpt lat="42.70978817770476" lon="12.278964049165053"><ele>404.0</ele><time>2026-04-04T12:53:12.001Z</time></trkpt><trkpt lat="42.70968222325131" lon="12.278941427801813"><ele>404.0</ele><time>2026-04-04T12:53:13.001Z</time></trkpt><trkpt lat="42.709597530327684" lon="12.278944233444658"><ele>404.0</ele><time>2026-04-04T12:53:14.001Z</time></trkpt><trkpt lat="42.70949972412136" lon="12.27896892800787"><ele>404.0</ele><time>2026-04-04T12:53:15.001Z</time></trkpt><trkpt lat="42.70939623135719" lon="12.279005271116505"><ele>404.0</ele><time>2026-04-04T12:53:16.001Z</time></trkpt><trkpt lat="42.709293403700556" lon="12.27905449981793"><ele>401.79999999999995</ele><time>2026-04-04T12:53:17.001Z</time></trkpt><trkpt lat="42.70919154093036" lon="12.279103642874086"><ele>399.59999999999997</ele><time>2026-04-04T12:53:18.001Z</time></trkpt><trkpt lat="42.7090957230723" lon="12.279168530154696"><ele>397.4</ele><time>2026-04-04T12:53:19.001Z</time></trkpt><trkpt lat="42.70899158860965" lon="12.279231695004157"><ele>395.2</ele><time>2026-04-04T12:53:20.001Z</time></trkpt><trkpt lat="42.70889264900625" lon="12.27931533889431"><ele>393.0</ele><time>2026-04-04T12:53:21.001Z</time></trkpt><trkpt lat="42.708789340164245" lon="12.279414354460664"><ele>393.0</ele><time>2026-04-04T12:53:22.001Z</time></trkpt><trkpt lat="42.70867715323391" lon="12.27952474297472"><ele>393.0</ele><time>2026-04-04T12:53:23.001Z</time></trkpt><trkpt lat="42.708549700740775" lon="12.279620582034916"><ele>393.0</ele><time>2026-04-04T12:53:24.001Z</time></trkpt><trkpt lat="42.708424182671095" lon="12.279740348975636"><ele>393.0</ele><time>2026-04-04T12:53:25.001Z</time></trkpt><trkpt lat="42.708291756638296" lon="12.27983379324296"><ele>392.75</ele><time>2026-04-04T12:53:26.001Z</time></trkpt><trkpt lat="42.708164514174875" lon="12.279927219734112"><ele>392.5</ele><time>2026-04-04T12:53:27.001Z</time></trkpt><trkpt lat="42.708051761792916" lon="12.280023318651816"><ele>392.25</ele><time>2026-04-04T12:53:28.001Z</time></trkpt><trkpt lat="42.70793703090862" lon="12.280112899230463"><ele>392.0</ele><time>2026-04-04T12:53:29.001Z</time></trkpt><trkpt lat="42.70782592601112" lon="12.280207970814475"><ele>389.75</ele><time>2026-04-04T12:53:30.001Z</time></trkpt><trkpt lat="42.70770158579416" lon="12.280309611588562"><ele>387.5</ele><time>2026-04-04T12:53:31.001Z</time></trkpt><trkpt lat="42.70759062316207" lon="12.280431940001144"><ele>385.25</ele><time>2026-04-04T12:53:32.001Z</time></trkpt><trkpt lat="42.707480570246155" lon="12.280554058634252"><ele>383.0</ele><time>2026-04-04T12:53:33.001Z</time></trkpt><trkpt lat="42.7073731328917" lon="12.280680975789688"><ele>383.0</ele><time>2026-04-04T12:53:34.001Z</time></trkpt><trkpt lat="42.7072670374112" lon="12.28080440004731"><ele>383.0</ele><time>2026-04-04T12:53:35.001Z</time></trkpt><trkpt lat="42.70715726242783" lon="12.280930309690458"><ele>383.0</ele><time>2026-04-04T12:53:36.001Z</time></trkpt><trkpt lat="42.70704618710774" lon="12.281057224060223"><ele>383.0</ele><time>2026-04-04T12:53:37.001Z</time></trkpt><trkpt lat="42.70693269105009" lon="12.281183003790726"><ele>380.33333333333337</ele><time>2026-04-04T12:53:38.001Z</time></trkpt><trkpt lat="42.70681468131681" lon="12.28131825034634"><ele>377.6666666666667</ele><time>2026-04-04T12:53:39.001Z</time></trkpt><trkpt lat="42.70669240698841" lon="12.281450796141307"><ele>375.0</ele><time>2026-04-04T12:53:40.001Z</time></trkpt><trkpt lat="42.706571291940044" lon="12.28159372280837"><ele>375.0</ele><time>2026-04-04T12:53:41.001Z</time></trkpt><trkpt lat="42.70646325174548" lon="12.281759915203727"><ele>375.0</ele><time>2026-04-04T12:53:42.001Z</time></trkpt><trkpt lat="42.70637160354716" lon="12.281940847842401"><ele>375.0</ele><time>2026-04-04T12:53:43.001Z</time></trkpt><trkpt lat="42.70628169369523" lon="12.2821296180187"><ele>377.3333333333333</ele><time>2026-04-04T12:53:44.001Z</time></trkpt><trkpt lat="42.706163401769594" lon="12.282295820234"><ele>379.66666666666663</ele><time>2026-04-04T12:53:45.001Z</time></trkpt><trkpt lat="42.70603533444002" lon="12.282431752857983"><ele>382.0</ele><time>2026-04-04T12:53:46.001Z</time></trkpt><trkpt lat="42.70590220061946" lon="12.282542909950639"><ele>378.0</ele><time>2026-04-04T12:53:47.001Z</time></trkpt><trkpt lat="42.705768913348344" lon="12.282636324182688"><ele>374.0</ele><time>2026-04-04T12:53:48.001Z</time></trkpt><trkpt lat="42.70562776590762" lon="12.282693845388403"><ele>370.0</ele><time>2026-04-04T12:53:49.001Z</time></trkpt><trkpt lat="42.705505369033226" lon="12.28274453419356"><ele>366.0</ele><time>2026-04-04T12:53:50.001Z</time></trkpt><trkpt lat="42.70540416138808" lon="12.28281508885143"><ele>366.0</ele><time>2026-04-04T12:53:51.001Z</time></trkpt><trkpt lat="42.70533683570173" lon="12.282933884333811"><ele>366.0</ele><time>2026-04-04T12:53:52.001Z</time></trkpt><trkpt lat="42.70529302389784" lon="12.283085308496757"><ele>366.0</ele><time>2026-04-04T12:53:53.001Z</time></trkpt><trkpt lat="42.70524555921747" lon="12.283195755150283"><ele>366.0</ele><time>2026-04-04T12:53:54.001Z</time></trkpt><trkpt lat="42.70517755852575" lon="12.283256840736955"><ele>366.0</ele><time>2026-04-04T12:53:55.001Z</time></trkpt><trkpt lat="42.70508693312958" lon="12.283265461324419"><ele>365.0</ele><time>2026-04-04T12:53:56.001Z</time></trkpt><trkpt lat="42.70498272937324" lon="12.283211602091473"><ele>364.0</ele><time>2026-04-04T12:53:57.001Z</time></trkpt><trkpt lat="42.704865373794306" lon="12.283190957747482"><ele>363.0</ele><time>2026-04-04T12:53:58.001Z</time></trkpt><trkpt lat="42.70475393082516" lon="12.283116642975818"><ele>362.0</ele><time>2026-04-04T12:53:59.001Z</time></trkpt><trkpt lat="42.70468216743483" lon="12.282979264740472"><ele>360.5</ele><time>2026-04-04T12:54:00.001Z</time></trkpt><trkpt lat="42.70460245598248" lon="12.282840911924572"><ele>359.0</ele><time>2026-04-04T12:54:01.001Z</time></trkpt><trkpt lat="42.70451158063625" lon="12.282692225922283"><ele>357.5</ele><time>2026-04-04T12:54:02.001Z</time></trkpt><trkpt lat="42.704411787836136" lon="12.282528578779017"><ele>356.0</ele><time>2026-04-04T12:54:03.001Z</time></trkpt><trkpt lat="42.70432017673871" lon="12.28237199877259"><ele>353.25</ele><time>2026-04-04T12:54:04.001Z</time></trkpt><trkpt lat="42.7042278396757" lon="12.282213994921356"><ele>350.5</ele><time>2026-04-04T12:54:05.001Z</time></trkpt><trkpt lat="42.70414537263186" lon="12.28205475508867"><ele>347.75</ele><time>2026-04-04T12:54:06.001Z</time></trkpt><trkpt lat="42.70404521124782" lon="12.281925173909377"><ele>345.0</ele><time>2026-04-04T12:54:07.001Z</time></trkpt><trkpt lat="42.70394638185436" lon="12.281800115303831"><ele>345.0</ele><time>2026-04-04T12:54:08.001Z</time></trkpt><trkpt lat="42.70385396906954" lon="12.281679682739792"><ele>345.0</ele><time>2026-04-04T12:54:09.001Z</time></trkpt><trkpt lat="42.70380019190314" lon="12.281529549816524"><ele>345.0</ele><time>2026-04-04T12:54:10.001Z</time></trkpt><trkpt lat="42.703732015415355" lon="12.281383108057492"><ele>345.0</ele><time>2026-04-04T12:54:11.001Z</time></trkpt><trkpt lat="42.70369391071638" lon="12.281213690888142"><ele>344.25</ele><time>2026-04-04T12:54:12.001Z</time></trkpt><trkpt lat="42.7036595777464" lon="12.281036125906498"><ele>343.5</ele><time>2026-04-04T12:54:13.001Z</time></trkpt><trkpt lat="42.70361609644241" lon="12.280875740541768"><ele>342.75</ele><time>2026-04-04T12:54:14.001Z</time></trkpt><trkpt lat="42.703564461674866" lon="12.280726091103123"><ele>342.0</ele><time>2026-04-04T12:54:15.001Z</time></trkpt><trkpt lat="42.70349931976854" lon="12.280594123756593"><ele>340.20000000000005</ele><time>2026-04-04T12:54:16.001Z</time></trkpt><trkpt lat="42.70342904163981" lon="12.28047733372292"><ele>338.4</ele><time>2026-04-04T12:54:17.001Z</time></trkpt><trkpt lat="42.703340556152504" lon="12.28040343623505"><ele>336.6</ele><time>2026-04-04T12:54:18.001Z</time></trkpt><trkpt lat="42.70323825871675" lon="12.280371338724757"><ele>334.79999999999995</ele><time>2026-04-04T12:54:19.001Z</time></trkpt><trkpt lat="42.70312974183273" lon="12.280377868433776"><ele>333.0</ele><time>2026-04-04T12:54:20.001Z</time></trkpt><trkpt lat="42.703025471393346" lon="12.2804320869881"><ele>333.0</ele><time>2026-04-04T12:54:21.001Z</time></trkpt><trkpt lat="42.70293897060786" lon="12.280535345833142"><ele>333.0</ele><time>2026-04-04T12:54:22.001Z</time></trkpt><trkpt lat="42.70286423418608" lon="12.280665053341904"><ele>333.0</ele><time>2026-04-04T12:54:23.001Z</time></trkpt><trkpt lat="42.70279855538908" lon="12.280784173584712"><ele>333.0</ele><time>2026-04-04T12:54:24.001Z</time></trkpt><trkpt lat="42.70274829993149" lon="12.280893997813278"><ele>333.0</ele><time>2026-04-04T12:54:25.001Z</time></trkpt><trkpt lat="42.70272579482844" lon="12.281012015102721"><ele>334.79999999999995</ele><time>2026-04-04T12:54:26.001Z</time></trkpt><trkpt lat="42.702746023223504" lon="12.281141184304387"><ele>336.6</ele><time>2026-04-04T12:54:27.001Z</time></trkpt><trkpt lat="42.70280138921841" lon="12.281265880960369"><ele>338.4</ele><time>2026-04-04T12:54:28Z</time></trkpt><trkpt lat="42.70286785844636" lon="12.281389340894275"><ele>340.20000000000005</ele><time>2026-04-04T12:54:29Z</time></trkpt><trkpt lat="42.70292948153749" lon="12.28152281266203"><ele>342.0</ele><time>2026-04-04T12:54:30Z</time></trkpt><trkpt lat="42.70298380959363" lon="12.281666931201208"><ele>342.0</ele><time>2026-04-04T12:54:31Z</time></trkpt><trkpt lat="42.70303228564786" lon="12.281823133258102"><ele>342.0</ele><time>2026-04-04T12:54:32Z</time></trkpt><trkpt lat="42.703054931186024" lon="12.28198872663446"><ele>342.0</ele><time>2026-04-04T12:54:33Z</time></trkpt><trkpt lat="42.703073900177756" lon="12.282161121470873"><ele>342.0</ele><time>2026-04-04T12:54:34Z</time></trkpt><trkpt lat="42.70306630965957" lon="12.282336569092289"><ele>341.25</ele><time>2026-04-04T12:54:35Z</time></trkpt><trkpt lat="42.70308700647284" lon="12.282507874614474"><ele>340.5</ele><time>2026-04-04T12:54:36Z</time></trkpt><trkpt lat="42.70309121353155" lon="12.282672098926037"><ele>339.75</ele><time>2026-04-04T12:54:37Z</time></trkpt><trkpt lat="42.70310667732828" lon="12.282832045818108"><ele>339.0</ele><time>2026-04-04T12:54:38Z</time></trkpt><trkpt lat="42.703126575270936" lon="12.282979369121712"><ele>337.79999999999995</ele><time>2026-04-04T12:54:39Z</time></trkpt><trkpt lat="42.703176580558896" lon="12.283100793527424"><ele>336.59999999999997</ele><time>2026-04-04T12:54:40Z</time></trkpt><trkpt lat="42.703247542731624" lon="12.283194740961834"><ele>335.4</ele><time>2026-04-04T12:54:41Z</time></trkpt><trkpt lat="42.703325776609255" lon="12.283275071025685"><ele>334.2</ele><time>2026-04-04T12:54:42Z</time></trkpt><trkpt lat="42.703383465593255" lon="12.283387209331703"><ele>333.0</ele><time>2026-04-04T12:54:43Z</time></trkpt><trkpt lat="42.70341074102298" lon="12.283548718669765"><ele>333.0</ele><time>2026-04-04T12:54:44Z</time></trkpt><trkpt lat="42.70340878206703" lon="12.283708136317076"><ele>333.0</ele><time>2026-04-04T12:54:45Z</time></trkpt><trkpt lat="42.70338228279546" lon="12.28385407945658"><ele>333.0</ele><time>2026-04-04T12:54:46Z</time></trkpt><trkpt lat="42.70333467247881" lon="12.283980913697398"><ele>333.0</ele><time>2026-04-04T12:54:47Z</time></trkpt><trkpt lat="42.703262645135744" lon="12.284092248427413"><ele>333.0</ele><time>2026-04-04T12:54:48Z</time></trkpt><trkpt lat="42.70317958866569" lon="12.284134286516894"><ele>333.0</ele><time>2026-04-04T12:54:49Z</time></trkpt><trkpt lat="42.70309524382967" lon="12.284112191032449"><ele>333.0</ele><time>2026-04-04T12:54:50Z</time></trkpt><trkpt lat="42.70302551932256" lon="12.28403441231323"><ele>333.0</ele><time>2026-04-04T12:54:51Z</time></trkpt><trkpt lat="42.70293571142515" lon="12.283938224457254"><ele>333.0</ele><time>2026-04-04T12:54:52Z</time></trkpt><trkpt lat="42.70282334998326" lon="12.283831910610404"><ele>333.0</ele><time>2026-04-04T12:54:53Z</time></trkpt><trkpt lat="42.70271960719318" lon="12.28368057086971"><ele>332.5</ele><time>2026-04-04T12:54:54Z</time></trkpt><trkpt lat="42.702633397242195" lon="12.283519962056971"><ele>332.0</ele><time>2026-04-04T12:54:55Z</time></trkpt><trkpt lat="42.70256708703022" lon="12.283342289843448"><ele>331.5</ele><time>2026-04-04T12:54:56Z</time></trkpt><trkpt lat="42.70250969790653" lon="12.283157640445685"><ele>331.0</ele><time>2026-04-04T12:54:57Z</time></trkpt><trkpt lat="42.702454278114885" lon="12.282975668911051"><ele>327.25</ele><time>2026-04-04T12:54:58Z</time></trkpt><trkpt lat="42.70236668958865" lon="12.282811598728932"><ele>323.5</ele><time>2026-04-04T12:54:59Z</time></trkpt><trkpt lat="42.70228182781123" lon="12.282656780534305"><ele>319.75</ele><time>2026-04-04T12:55:00Z</time></trkpt><trkpt lat="42.7021982332028" lon="12.282505252798678"><ele>316.0</ele><time>2026-04-04T12:55:01Z</time></trkpt><trkpt lat="42.70209498899383" lon="12.282386340683376"><ele>316.0</ele><time>2026-04-04T12:55:02Z</time></trkpt><trkpt lat="42.70197546368163" lon="12.282297009358295"><ele>316.0</ele><time>2026-04-04T12:55:03Z</time></trkpt><trkpt lat="42.70187518223972" lon="12.28219766491999"><ele>316.0</ele><time>2026-04-04T12:55:04Z</time></trkpt><trkpt lat="42.70177704264263" lon="12.282082361965925"><ele>316.0</ele><time>2026-04-04T12:55:05Z</time></trkpt><trkpt lat="42.701694698029456" lon="12.281998307838807"><ele>315.40000000000003</ele><time>2026-04-04T12:55:06Z</time></trkpt><trkpt lat="42.70160262479666" lon="12.281927180110177"><ele>314.8</ele><time>2026-04-04T12:55:07Z</time></trkpt><trkpt lat="42.70150169375576" lon="12.281931173961821"><ele>314.20000000000005</ele><time>2026-04-04T12:55:08Z</time></trkpt><trkpt lat="42.70141696011494" lon="12.281963826131166"><ele>313.6</ele><time>2026-04-04T12:55:09Z</time></trkpt><trkpt lat="42.70132235035799" lon="12.281985440951415"><ele>313.0</ele><time>2026-04-04T12:55:10Z</time></trkpt><trkpt lat="42.70122914800938" lon="12.281964662995684"><ele>313.0</ele><time>2026-04-04T12:55:11Z</time></trkpt><trkpt lat="42.70116017991592" lon="12.281892919298082"><ele>313.0</ele><time>2026-04-04T12:55:12Z</time></trkpt><trkpt lat="42.70113314305463" lon="12.281778188331325"><ele>313.0</ele><time>2026-04-04T12:55:13Z</time></trkpt><trkpt lat="42.70113919004531" lon="12.281638950888626"><ele>313.0</ele><time>2026-04-04T12:55:14Z</time></trkpt><trkpt lat="42.701187239719516" lon="12.28148496720974"><ele>313.0</ele><time>2026-04-04T12:55:15Z</time></trkpt><trkpt lat="42.70123992789253" lon="12.28132902420085"><ele>311.5</ele><time>2026-04-04T12:55:16Z</time></trkpt><trkpt lat="42.70130035584435" lon="12.281147638373707"><ele>310.0</ele><time>2026-04-04T12:55:17Z</time></trkpt><trkpt lat="42.70134215348942" lon="12.280957837183228"><ele>308.5</ele><time>2026-04-04T12:55:18Z</time></trkpt><trkpt lat="42.701354473867596" lon="12.280776770128849"><ele>307.0</ele><time>2026-04-04T12:55:19.001Z</time></trkpt><trkpt lat="42.701348432684" lon="12.28059943528184"><ele>305.5</ele><time>2026-04-04T12:55:20.001Z</time></trkpt><trkpt lat="42.70131872398462" lon="12.280436110733149"><ele>304.0</ele><time>2026-04-04T12:55:21.001Z</time></trkpt><trkpt lat="42.70126098190165" lon="12.280280352348978"><ele>302.5</ele><time>2026-04-04T12:55:22.001Z</time></trkpt><trkpt lat="42.70118221335293" lon="12.280140444333657"><ele>301.0</ele><time>2026-04-04T12:55:23.001Z</time></trkpt><trkpt lat="42.70111299056203" lon="12.280004166423028"><ele>300.0</ele><time>2026-04-04T12:55:24.001Z</time></trkpt><trkpt lat="42.70104839961655" lon="12.279874417377753"><ele>299.0</ele><time>2026-04-04T12:55:25.001Z</time></trkpt><trkpt lat="42.70102154743538" lon="12.279743646826901"><ele>298.0</ele><time>2026-04-04T12:55:26.001Z</time></trkpt><trkpt lat="42.701032771565785" lon="12.279602961864766"><ele>297.0</ele><time>2026-04-04T12:55:27.001Z</time></trkpt><trkpt lat="42.701072886685324" lon="12.279449387919332"><ele>296.0</ele><time>2026-04-04T12:55:28.001Z</time></trkpt><trkpt lat="42.70112578644534" lon="12.279310941700441"><ele>296.0</ele><time>2026-04-04T12:55:29.001Z</time></trkpt><trkpt lat="42.70116547484041" lon="12.279186551076421"><ele>296.0</ele><time>2026-04-04T12:55:30.001Z</time></trkpt><trkpt lat="42.70117021525294" lon="12.27905740381883"><ele>296.0</ele><time>2026-04-04T12:55:31.001Z</time></trkpt><trkpt lat="42.70112780159247" lon="12.27891568182509"><ele>296.0</ele><time>2026-04-04T12:55:32.001Z</time></trkpt><trkpt lat="42.70105992276117" lon="12.27877239199513"><ele>296.0</ele><time>2026-04-04T12:55:33.001Z</time></trkpt><trkpt lat="42.70100590108372" lon="12.278628046930647"><ele>300.5</ele><time>2026-04-04T12:55:34.001Z</time></trkpt><trkpt lat="42.70098914801607" lon="12.278471033212599"><ele>305.0</ele><time>2026-04-04T12:55:35.001Z</time></trkpt><trkpt lat="42.70100531988767" lon="12.278298133709367"><ele>309.5</ele><time>2026-04-04T12:55:36.001Z</time></trkpt><trkpt lat="42.70103964793162" lon="12.278114793186429"><ele>314.0</ele><time>2026-04-04T12:55:37.001Z</time></trkpt><trkpt lat="42.70106397620646" lon="12.277928742980246"><ele>314.0</ele><time>2026-04-04T12:55:38.001Z</time></trkpt><trkpt lat="42.70107098459488" lon="12.2777448565142"><ele>314.0</ele><time>2026-04-04T12:55:39.001Z</time></trkpt><trkpt lat="42.70109173191528" lon="12.277571069437856"><ele>314.0</ele><time>2026-04-04T12:55:40.001Z</time></trkpt><trkpt lat="42.70114643314281" lon="12.277417395161176"><ele>314.0</ele><time>2026-04-04T12:55:41.001Z</time></trkpt><trkpt lat="42.70122790783882" lon="12.277265332080859"><ele>306.6666666666667</ele><time>2026-04-04T12:55:42.001Z</time></trkpt><trkpt lat="42.70132979265122" lon="12.27710996593579"><ele>299.3333333333333</ele><time>2026-04-04T12:55:43.001Z</time></trkpt><trkpt lat="42.7014385507262" lon="12.276943530306207"><ele>292.0</ele><time>2026-04-04T12:55:44.001Z</time></trkpt><trkpt lat="42.701539982545754" lon="12.276765063693645"><ele>292.0</ele><time>2026-04-04T12:55:45.001Z</time></trkpt><trkpt lat="42.70163075062263" lon="12.27658989675112"><ele>292.0</ele><time>2026-04-04T12:55:46.001Z</time></trkpt><trkpt lat="42.70171970155597" lon="12.2764300478293"><ele>292.0</ele><time>2026-04-04T12:55:47.001Z</time></trkpt><trkpt lat="42.70180131915587" lon="12.276276003779806"><ele>292.0</ele><time>2026-04-04T12:55:48.001Z</time></trkpt><trkpt lat="42.70185614892828" lon="12.276119624264338"><ele>292.5</ele><time>2026-04-04T12:55:49.001Z</time></trkpt><trkpt lat="42.701880504726645" lon="12.2759472930998"><ele>293.0</ele><time>2026-04-04T12:55:50.001Z</time></trkpt><trkpt lat="42.70187735101821" lon="12.275755130067576"><ele>293.5</ele><time>2026-04-04T12:55:51.001Z</time></trkpt><trkpt lat="42.70189297016185" lon="12.275543701491369"><ele>294.0</ele><time>2026-04-04T12:55:52.001Z</time></trkpt><trkpt lat="42.70188215833034" lon="12.275327388849732"><ele>294.0</ele><time>2026-04-04T12:55:53.001Z</time></trkpt><trkpt lat="42.70189112584774" lon="12.275086517336913"><ele>294.0</ele><time>2026-04-04T12:55:54.001Z</time></trkpt><trkpt lat="42.70189701976342" lon="12.274857191833885"><ele>294.0</ele><time>2026-04-04T12:55:55.001Z</time></trkpt><trkpt lat="42.70190389550486" lon="12.274641258950794"><ele>293.75</ele><time>2026-04-04T12:55:56.001Z</time></trkpt><trkpt lat="42.70190766073752" lon="12.27443312703432"><ele>293.5</ele><time>2026-04-04T12:55:57.001Z</time></trkpt><trkpt lat="42.70191220282496" lon="12.274240975681579"><ele>293.25</ele><time>2026-04-04T12:55:58.001Z</time></trkpt><trkpt lat="42.70191606529997" lon="12.274061246780521"><ele>293.0</ele><time>2026-04-04T12:55:59.001Z</time></trkpt><trkpt lat="42.70191833230314" lon="12.273909177417389"><ele>287.8</ele><time>2026-04-04T12:56:00.001Z</time></trkpt><trkpt lat="42.701930164819146" lon="12.273781555559877"><ele>282.6</ele><time>2026-04-04T12:56:01.001Z</time></trkpt><trkpt lat="42.70195454504909" lon="12.27368054769542"><ele>277.4</ele><time>2026-04-04T12:56:02.001Z</time></trkpt><trkpt lat="42.701999421093106" lon="12.273584122997299"><ele>272.2</ele><time>2026-04-04T12:56:03.001Z</time></trkpt><trkpt lat="42.70207915475378" lon="12.273509373913248"><ele>267.0</ele><time>2026-04-04T12:56:04.001Z</time></trkpt><trkpt lat="42.70215277323488" lon="12.273419714989863"><ele>267.0</ele><time>2026-04-04T12:56:05.001Z</time></trkpt><trkpt lat="42.70222339043491" lon="12.273311027915296"><ele>267.0</ele><time>2026-04-04T12:56:06.001Z</time></trkpt><trkpt lat="42.7022755879503" lon="12.273192914234134"><ele>267.0</ele><time>2026-04-04T12:56:07.001Z</time></trkpt><trkpt lat="42.70232493260106" lon="12.273064933057293"><ele>267.0</ele><time>2026-04-04T12:56:08.001Z</time></trkpt><trkpt lat="42.70235831124517" lon="12.27291667837069"><ele>267.0</ele><time>2026-04-04T12:56:09.001Z</time></trkpt><trkpt lat="42.702394361163314" lon="12.272757978205355"><ele>269.0</ele><time>2026-04-04T12:56:10.001Z</time></trkpt><trkpt lat="42.702438541042056" lon="12.272600688711172"><ele>271.0</ele><time>2026-04-04T12:56:11.001Z</time></trkpt><trkpt lat="42.70250098510114" lon="12.272447495203684"><ele>273.0</ele><time>2026-04-04T12:56:12.001Z</time></trkpt><trkpt lat="42.7025624683166" lon="12.272304232532324"><ele>275.0</ele><time>2026-04-04T12:56:13.001Z</time></trkpt><trkpt lat="42.7026154905532" lon="12.272162424739923"><ele>277.0</ele><time>2026-04-04T12:56:14.001Z</time></trkpt><trkpt lat="42.70264974923874" lon="12.272016785351273"><ele>279.0</ele><time>2026-04-04T12:56:15.001Z</time></trkpt><trkpt lat="42.70265981504787" lon="12.271863447474372"><ele>281.0</ele><time>2026-04-04T12:56:16.001Z</time></trkpt><trkpt lat="42.702639113191886" lon="12.271711785338923"><ele>283.0</ele><time>2026-04-04T12:56:17.001Z</time></trkpt><trkpt lat="42.702630789009724" lon="12.27154834187965"><ele>283.75</ele><time>2026-04-04T12:56:18.001Z</time></trkpt><trkpt lat="42.70266563675403" lon="12.271402290634617"><ele>284.5</ele><time>2026-04-04T12:56:19.001Z</time></trkpt><trkpt lat="42.70270869887693" lon="12.271253269621546"><ele>285.25</ele><time>2026-04-04T12:56:20.001Z</time></trkpt><trkpt lat="42.702788557434076" lon="12.271105824593144"><ele>286.0</ele><time>2026-04-04T12:56:21.001Z</time></trkpt><trkpt lat="42.702874975762334" lon="12.270957843717582"><ele>279.66666666666663</ele><time>2026-04-04T12:56:22.001Z</time></trkpt><trkpt lat="42.70295872553905" lon="12.270794514082446"><ele>273.3333333333333</ele><time>2026-04-04T12:56:23.001Z</time></trkpt><trkpt lat="42.70304941550013" lon="12.270629511385534"><ele>267.0</ele><time>2026-04-04T12:56:24.001Z</time></trkpt><trkpt lat="42.70316098653653" lon="12.270467028391332"><ele>267.0</ele><time>2026-04-04T12:56:25.001Z</time></trkpt><trkpt lat="42.70327989686241" lon="12.270306093431623"><ele>267.0</ele><time>2026-04-04T12:56:26.001Z</time></trkpt><trkpt lat="42.70339202464794" lon="12.270143312904533"><ele>267.0</ele><time>2026-04-04T12:56:27Z</time></trkpt><trkpt lat="42.703486436504505" lon="12.269961406481853"><ele>270.6666666666667</ele><time>2026-04-04T12:56:28Z</time></trkpt><trkpt lat="42.70357857968454" lon="12.269767849179063"><ele>274.33333333333337</ele><time>2026-04-04T12:56:29Z</time></trkpt><trkpt lat="42.70367185301422" lon="12.269583331156772"><ele>278.0</ele><time>2026-04-04T12:56:30Z</time></trkpt><trkpt lat="42.70374548305717" lon="12.269379651359102"><ele>268.0</ele><time>2026-04-04T12:56:31Z</time></trkpt><trkpt lat="42.70382402895204" lon="12.269173173497244"><ele>258.0</ele><time>2026-04-04T12:56:32Z</time></trkpt><trkpt lat="42.70388703290136" lon="12.268973828255197"><ele>248.0</ele><time>2026-04-04T12:56:33Z</time></trkpt><trkpt lat="42.70395848716969" lon="12.268782619666691"><ele>248.0</ele><time>2026-04-04T12:56:34Z</time></trkpt><trkpt lat="42.7040243995525" lon="12.268598190137046"><ele>248.0</ele><time>2026-04-04T12:56:35Z</time></trkpt><trkpt lat="42.70408079598004" lon="12.268416658649741"><ele>248.0</ele><time>2026-04-04T12:56:36Z</time></trkpt><trkpt lat="42.70411912669349" lon="12.268222278627428"><ele>248.0</ele><time>2026-04-04T12:56:37Z</time></trkpt><trkpt lat="42.70413287661726" lon="12.268021107160903"><ele>248.25</ele><time>2026-04-04T12:56:38Z</time></trkpt><trkpt lat="42.704139229475054" lon="12.267830069304377"><ele>248.5</ele><time>2026-04-04T12:56:39Z</time></trkpt><trkpt lat="42.70414665019217" lon="12.267664084082348"><ele>248.75</ele><time>2026-04-04T12:56:40Z</time></trkpt><trkpt lat="42.70414472093663" lon="12.26751242486489"><ele>249.0</ele><time>2026-04-04T12:56:41Z</time></trkpt><trkpt lat="42.70410547053935" lon="12.267362739309176"><ele>248.25</ele><time>2026-04-04T12:56:42Z</time></trkpt><trkpt lat="42.70405220969504" lon="12.267205128791076"><ele>247.5</ele><time>2026-04-04T12:56:43Z</time></trkpt><trkpt lat="42.70401722688473" lon="12.267036636414566"><ele>246.75</ele><time>2026-04-04T12:56:44Z</time></trkpt><trkpt lat="42.70404193882491" lon="12.266855281527302"><ele>246.0</ele><time>2026-04-04T12:56:45Z</time></trkpt><trkpt lat="42.704056599026536" lon="12.266668298213833"><ele>246.0</ele><time>2026-04-04T12:56:46Z</time></trkpt><trkpt lat="42.704104189274865" lon="12.26649560006229"><ele>246.0</ele><time>2026-04-04T12:56:47Z</time></trkpt><trkpt lat="42.70418420658321" lon="12.266357502504164"><ele>246.0</ele><time>2026-04-04T12:56:48Z</time></trkpt><trkpt lat="42.704274592264255" lon="12.266213782622867"><ele>246.0</ele><time>2026-04-04T12:56:49Z</time></trkpt><trkpt lat="42.70435080715757" lon="12.266049224634779"><ele>240.75</ele><time>2026-04-04T12:56:50Z</time></trkpt><trkpt lat="42.7044288140913" lon="12.265877588103477"><ele>235.5</ele><time>2026-04-04T12:56:51Z</time></trkpt><trkpt lat="42.70448236354886" lon="12.265681100245766"><ele>230.25</ele><time>2026-04-04T12:56:52Z</time></trkpt><trkpt lat="42.70454674794845" lon="12.265505548897556"><ele>225.0</ele><time>2026-04-04T12:56:53Z</time></trkpt><trkpt lat="42.70460921133994" lon="12.265339374596172"><ele>225.0</ele><time>2026-04-04T12:56:54Z</time></trkpt><trkpt lat="42.704671358359384" lon="12.265169626694673"><ele>225.0</ele><time>2026-04-04T12:56:55Z</time></trkpt><trkpt lat="42.704722136113034" lon="12.26501021625674"><ele>225.0</ele><time>2026-04-04T12:56:56Z</time></trkpt><trkpt lat="42.70474784848967" lon="12.264858374177008"><ele>225.0</ele><time>2026-04-04T12:56:57Z</time></trkpt><trkpt lat="42.70474699791798" lon="12.2647232837066"><ele>226.2</ele><time>2026-04-04T12:56:58Z</time></trkpt><trkpt lat="42.70475668549103" lon="12.26460935999079"><ele>227.4</ele><time>2026-04-04T12:56:59Z</time></trkpt><trkpt lat="42.70483211371747" lon="12.264533494540409"><ele>228.60000000000002</ele><time>2026-04-04T12:57:00Z</time></trkpt><trkpt lat="42.70489231227945" lon="12.264417339458786"><ele>229.8</ele><time>2026-04-04T12:57:01Z</time></trkpt><trkpt lat="42.70496737760354" lon="12.264295809947326"><ele>231.0</ele><time>2026-04-04T12:57:02Z</time></trkpt><trkpt lat="42.70502599445893" lon="12.264150179492708"><ele>231.0</ele><time>2026-04-04T12:57:03Z</time></trkpt><trkpt lat="42.70508831626875" lon="12.264005649346528"><ele>231.00000000000003</ele><time>2026-04-04T12:57:04Z</time></trkpt><trkpt lat="42.705125620375966" lon="12.26386836858253"><ele>231.00000000000003</ele><time>2026-04-04T12:57:05Z</time></trkpt><trkpt lat="42.70513670543541" lon="12.263733596380314"><ele>231.0</ele><time>2026-04-04T12:57:06Z</time></trkpt><trkpt lat="42.70511846828452" lon="12.263597287048306"><ele>231.0</ele><time>2026-04-04T12:57:07Z</time></trkpt><trkpt lat="42.70505939096592" lon="12.263465300099327"><ele>231.5</ele><time>2026-04-04T12:57:08Z</time></trkpt><trkpt lat="42.704991888814746" lon="12.263362480508897"><ele>232.0</ele><time>2026-04-04T12:57:09Z</time></trkpt><trkpt lat="42.704946854934434" lon="12.263266077076674"><ele>232.5</ele><time>2026-04-04T12:57:10Z</time></trkpt><trkpt lat="42.70493728294019" lon="12.26317437518595"><ele>233.0</ele><time>2026-04-04T12:57:11Z</time></trkpt><trkpt lat="42.70495905154467" lon="12.263071880480808"><ele>233.5</ele><time>2026-04-04T12:57:12Z</time></trkpt><trkpt lat="42.705004658845624" lon="12.262968803168222"><ele>234.0</ele><time>2026-04-04T12:57:13Z</time></trkpt><trkpt lat="42.705065811522076" lon="12.262886431080526"><ele>235.2</ele><time>2026-04-04T12:57:14Z</time></trkpt><trkpt lat="42.70514628950963" lon="12.262857264455183"><ele>236.39999999999998</ele><time>2026-04-04T12:57:15Z</time></trkpt><trkpt lat="42.7052383588803" lon="12.262902868523307"><ele>237.6</ele><time>2026-04-04T12:57:16Z</time></trkpt><trkpt lat="42.70532717211505" lon="12.262950005296078"><ele>238.8</ele><time>2026-04-04T12:57:17Z</time></trkpt><trkpt lat="42.70543142999698" lon="12.263000958163927"><ele>240.0</ele><time>2026-04-04T12:57:18Z</time></trkpt><trkpt lat="42.705540201640055" lon="12.26299860086344"><ele>237.0</ele><time>2026-04-04T12:57:19Z</time></trkpt><trkpt lat="42.70566909048851" lon="12.262963863849107"><ele>234.0</ele><time>2026-04-04T12:57:20Z</time></trkpt><trkpt lat="42.70580312301685" lon="12.262876709687339"><ele>231.0</ele><time>2026-04-04T12:57:21Z</time></trkpt><trkpt lat="42.70591922398402" lon="12.262809306772123"><ele>228.0</ele><time>2026-04-04T12:57:22Z</time></trkpt><trkpt lat="42.706023006651996" lon="12.262749513634446"><ele>219.0</ele><time>2026-04-04T12:57:23Z</time></trkpt><trkpt lat="42.70612661436015" lon="12.26267704446902"><ele>210.0</ele><time>2026-04-04T12:57:24Z</time></trkpt><trkpt lat="42.706222700740256" lon="12.262568990465459"><ele>201.0</ele><time>2026-04-04T12:57:25Z</time></trkpt><trkpt lat="42.70628508442754" lon="12.26242870673573"><ele>192.0</ele><time>2026-04-04T12:57:26Z</time></trkpt><trkpt lat="42.706332331948694" lon="12.262285390976434"><ele>194.75</ele><time>2026-04-04T12:57:27Z</time></trkpt><trkpt lat="42.70632677160374" lon="12.262128147992675"><ele>197.5</ele><time>2026-04-04T12:57:28Z</time></trkpt><trkpt lat="42.70630670922448" lon="12.26196363624506"><ele>200.25</ele><time>2026-04-04T12:57:29Z</time></trkpt><trkpt lat="42.7062603052685" lon="12.261799076570213"><ele>203.0</ele><time>2026-04-04T12:57:30Z</time></trkpt><trkpt lat="42.706249803738864" lon="12.261644251946725"><ele>203.0</ele><time>2026-04-04T12:57:31Z</time></trkpt><trkpt lat="42.70628775472936" lon="12.261510712326878"><ele>203.0</ele><time>2026-04-04T12:57:32Z</time></trkpt><trkpt lat="42.706343370551224" lon="12.261392371798317"><ele>203.0</ele><time>2026-04-04T12:57:33Z</time></trkpt><trkpt lat="42.70641946547331" lon="12.261297180140199"><ele>203.0</ele><time>2026-04-04T12:57:34Z</time></trkpt><trkpt lat="42.70653473846564" lon="12.261242279262312"><ele>203.0</ele><time>2026-04-04T12:57:35Z</time></trkpt><trkpt lat="42.7066641034782" lon="12.261206947196683"><ele>204.60000000000002</ele><time>2026-04-04T12:57:36Z</time></trkpt><trkpt lat="42.70678150951381" lon="12.261182390431918"><ele>206.20000000000002</ele><time>2026-04-04T12:57:37Z</time></trkpt><trkpt lat="42.706887788373145" lon="12.261153439455605"><ele>207.8</ele><time>2026-04-04T12:57:38Z</time></trkpt><trkpt lat="42.70698962719854" lon="12.26111622218031"><ele>209.4</ele><time>2026-04-04T12:57:39Z</time></trkpt><trkpt lat="42.707078472729336" lon="12.261047076015034"><ele>211.0</ele><time>2026-04-04T12:57:40Z</time></trkpt><trkpt lat="42.70715295062759" lon="12.260956591246005"><ele>207.0</ele><time>2026-04-04T12:57:41Z</time></trkpt><trkpt lat="42.70721571015631" lon="12.260847297406482"><ele>203.0</ele><time>2026-04-04T12:57:42Z</time></trkpt><trkpt lat="42.7072490973347" lon="12.260719618211567"><ele>199.0</ele><time>2026-04-04T12:57:43Z</time></trkpt><trkpt lat="42.70727558713986" lon="12.260597954083151"><ele>195.0</ele><time>2026-04-04T12:57:44Z</time></trkpt><trkpt lat="42.707257897994666" lon="12.260488368736317"><ele>191.0</ele><time>2026-04-04T12:57:45Z</time></trkpt><trkpt lat="42.70719252896248" lon="12.260385226120347"><ele>189.25</ele><time>2026-04-04T12:57:46Z</time></trkpt><trkpt lat="42.707111617553586" lon="12.260295504402096"><ele>187.5</ele><time>2026-04-04T12:57:47Z</time></trkpt><trkpt lat="42.70701343839102" lon="12.260208330391198"><ele>185.75</ele><time>2026-04-04T12:57:48Z</time></trkpt><trkpt lat="42.70692259922576" lon="12.26009538143657"><ele>184.0</ele><time>2026-04-04T12:57:49Z</time></trkpt><trkpt lat="42.70683056803486" lon="12.259966357387983"><ele>181.25</ele><time>2026-04-04T12:57:50Z</time></trkpt><trkpt lat="42.70673549948485" lon="12.259836695781212"><ele>178.5</ele><time>2026-04-04T12:57:51Z</time></trkpt><trkpt lat="42.70664689767805" lon="12.25971064783344"><ele>175.75</ele><time>2026-04-04T12:57:52Z</time></trkpt><trkpt lat="42.706528680566194" lon="12.259613393974302"><ele>173.0</ele><time>2026-04-04T12:57:53Z</time></trkpt><trkpt lat="42.70640957746636" lon="12.25955991347911"><ele>173.0</ele><time>2026-04-04T12:57:54Z</time></trkpt><trkpt lat="42.70629713809403" lon="12.25950147179344"><ele>173.0</ele><time>2026-04-04T12:57:55Z</time></trkpt><trkpt lat="42.706181317557814" lon="12.259448938889657"><ele>173.0</ele><time>2026-04-04T12:57:56Z</time></trkpt><trkpt lat="42.70605624009971" lon="12.259411509903725"><ele>173.0</ele><time>2026-04-04T12:57:57.001Z</time></trkpt><trkpt lat="42.7059303977435" lon="12.259363583384133"><ele>176.25</ele><time>2026-04-04T12:57:58.001Z</time></trkpt><trkpt lat="42.70580279062337" lon="12.259292817129834"><ele>179.5</ele><time>2026-04-04T12:57:59.001Z</time></trkpt><trkpt lat="42.705690943307346" lon="12.259192814291236"><ele>182.75</ele><time>2026-04-04T12:58:00.001Z</time></trkpt><trkpt lat="42.70559178951022" lon="12.259071365959022"><ele>186.0</ele><time>2026-04-04T12:58:01.001Z</time></trkpt><trkpt lat="42.7054988984468" lon="12.258943322022812"><ele>182.75</ele><time>2026-04-04T12:58:02.001Z</time></trkpt><trkpt lat="42.705396261399336" lon="12.258820727774394"><ele>179.5</ele><time>2026-04-04T12:58:03.001Z</time></trkpt><trkpt lat="42.705283777136174" lon="12.258722147385042"><ele>176.25</ele><time>2026-04-04T12:58:04.001Z</time></trkpt><trkpt lat="42.705166666249546" lon="12.258644721741945"><ele>173.0</ele><time>2026-04-04T12:58:05.001Z</time></trkpt><trkpt lat="42.70505072389296" lon="12.258573615719333"><ele>173.0</ele><time>2026-04-04T12:58:06.001Z</time></trkpt><trkpt lat="42.70493066770778" lon="12.258524030964153"><ele>173.0</ele><time>2026-04-04T12:58:07.001Z</time></trkpt><trkpt lat="42.70482061610314" lon="12.258456711853583"><ele>173.0</ele><time>2026-04-04T12:58:08.001Z</time></trkpt><trkpt lat="42.7047189118222" lon="12.258360757476034"><ele>173.0</ele><time>2026-04-04T12:58:09.001Z</time></trkpt><trkpt lat="42.70463490801942" lon="12.258248740545024"><ele>173.0</ele><time>2026-04-04T12:58:10.001Z</time></trkpt><trkpt lat="42.704556553520554" lon="12.258141774474987"><ele>173.0</ele><time>2026-04-04T12:58:11.001Z</time></trkpt><trkpt lat="42.70445152011249" lon="12.258064205845006"><ele>173.0</ele><time>2026-04-04T12:58:12.001Z</time></trkpt><trkpt lat="42.704321173659764" lon="12.258036708684562"><ele>173.0</ele><time>2026-04-04T12:58:13.001Z</time></trkpt><trkpt lat="42.704178107572375" lon="12.258022081439572"><ele>170.20000000000002</ele><time>2026-04-04T12:58:14.001Z</time></trkpt><trkpt lat="42.70404074146608" lon="12.257973906774028"><ele>167.4</ele><time>2026-04-04T12:58:15.001Z</time></trkpt><trkpt lat="42.703928861978724" lon="12.257925006749781"><ele>164.60000000000002</ele><time>2026-04-04T12:58:16.001Z</time></trkpt><trkpt lat="42.70384139079118" lon="12.257871483083568"><ele>161.8</ele><time>2026-04-04T12:58:17.001Z</time></trkpt><trkpt lat="42.70377283353816" lon="12.257824644058028"><ele>159.0</ele><time>2026-04-04T12:58:18.001Z</time></trkpt><trkpt lat="42.7036982330962" lon="12.257738368108308"><ele>159.0</ele><time>2026-04-04T12:58:20.001Z</time></trkpt><trkpt lat="42.703647280237114" lon="12.257658120339459"><ele>159.0</ele><time>2026-04-04T12:58:22.001Z</time></trkpt><trkpt lat="42.70361422241838" lon="12.25757602399287"><ele>159.0</ele><time>2026-04-04T12:58:23.001Z</time></trkpt><trkpt lat="42.70351606724693" lon="12.25752263141206"><ele>159.0</ele><time>2026-04-04T12:58:24.001Z</time></trkpt><trkpt lat="42.70341577762256" lon="12.257453302383137"><ele>159.0</ele><time>2026-04-04T12:58:25.001Z</time></trkpt><trkpt lat="42.70330979287765" lon="12.257400079334948"><ele>156.5</ele><time>2026-04-04T12:58:26.001Z</time></trkpt><trkpt lat="42.70318486533175" lon="12.257336340183905"><ele>154.0</ele><time>2026-04-04T12:58:27.001Z</time></trkpt><trkpt lat="42.70304728713899" lon="12.257256748702208"><ele>151.5</ele><time>2026-04-04T12:58:28.001Z</time></trkpt><trkpt lat="42.70291563406851" lon="12.257184697037774"><ele>149.0</ele><time>2026-04-04T12:58:29.001Z</time></trkpt><trkpt lat="42.702788566498754" lon="12.257073639708384"><ele>156.0</ele><time>2026-04-04T12:58:30.001Z</time></trkpt><trkpt lat="42.70264608065526" lon="12.256967163585669"><ele>163.0</ele><time>2026-04-04T12:58:31.001Z</time></trkpt><trkpt lat="42.70249537540753" lon="12.256864894433608"><ele>170.0</ele><time>2026-04-04T12:58:32.001Z</time></trkpt><trkpt lat="42.70234542161151" lon="12.256779336586419"><ele>170.0</ele><time>2026-04-04T12:58:33Z</time></trkpt><trkpt lat="42.70218577322632" lon="12.256724020226365"><ele>170.0</ele><time>2026-04-04T12:58:34Z</time></trkpt><trkpt lat="42.702055172388185" lon="12.256644227823735"><ele>170.0</ele><time>2026-04-04T12:58:35Z</time></trkpt><trkpt lat="42.701937981849724" lon="12.256541494340196"><ele>170.0</ele><time>2026-04-04T12:58:36Z</time></trkpt><trkpt lat="42.701839865062176" lon="12.256391996604526"><ele>175.0</ele><time>2026-04-04T12:58:37Z</time></trkpt><trkpt lat="42.70177227215204" lon="12.256209734593424"><ele>180.0</ele><time>2026-04-04T12:58:38Z</time></trkpt><trkpt lat="42.701718287103866" lon="12.256004716366318"><ele>185.0</ele><time>2026-04-04T12:58:39Z</time></trkpt><trkpt lat="42.701652777447" lon="12.255827731818815"><ele>185.0</ele><time>2026-04-04T12:58:40Z</time></trkpt><trkpt lat="42.70157054785117" lon="12.255666227881997"><ele>185.0</ele><time>2026-04-04T12:58:41Z</time></trkpt><trkpt lat="42.70143919836336" lon="12.255562677083478"><ele>185.0</ele><time>2026-04-04T12:58:42Z</time></trkpt><trkpt lat="42.70128024602099" lon="12.255498796391013"><ele>185.5</ele><time>2026-04-04T12:58:43Z</time></trkpt><trkpt lat="42.7011332392222" lon="12.255446464937995"><ele>186.0</ele><time>2026-04-04T12:58:44Z</time></trkpt><trkpt lat="42.701005385461826" lon="12.25537828881766"><ele>186.5</ele><time>2026-04-04T12:58:45Z</time></trkpt><trkpt lat="42.70088809853019" lon="12.255269348379318"><ele>187.0</ele><time>2026-04-04T12:58:46Z</time></trkpt><trkpt lat="42.700827114296104" lon="12.255087464482468"><ele>187.0</ele><time>2026-04-04T12:58:47Z</time></trkpt><trkpt lat="42.70076836472452" lon="12.254877495997146"><ele>187.0</ele><time>2026-04-04T12:58:48Z</time></trkpt><trkpt lat="42.70073916216102" lon="12.254645098880719"><ele>187.0</ele><time>2026-04-04T12:58:49Z</time></trkpt><trkpt lat="42.70069970553531" lon="12.254420147104929"><ele>184.33333333333334</ele><time>2026-04-04T12:58:50Z</time></trkpt><trkpt lat="42.70065559144277" lon="12.254206507488018"><ele>181.66666666666666</ele><time>2026-04-04T12:58:51Z</time></trkpt><trkpt lat="42.70060288375956" lon="12.253975225872887"><ele>179.0</ele><time>2026-04-04T12:58:52Z</time></trkpt><trkpt lat="42.70051612459044" lon="12.253760063895657"><ele>182.66666666666666</ele><time>2026-04-04T12:58:53Z</time></trkpt><trkpt lat="42.700410088127974" lon="12.253571780844535"><ele>186.33333333333334</ele><time>2026-04-04T12:58:54Z</time></trkpt><trkpt lat="42.70029717550861" lon="12.25340661872204"><ele>190.0</ele><time>2026-04-04T12:58:55Z</time></trkpt><trkpt lat="42.70018689313504" lon="12.253252551913603"><ele>190.0</ele><time>2026-04-04T12:58:56Z</time></trkpt><trkpt lat="42.70002797157299" lon="12.253159024121373"><ele>190.0</ele><time>2026-04-04T12:58:57Z</time></trkpt><trkpt lat="42.699854367013636" lon="12.25307736620977"><ele>190.0</ele><time>2026-04-04T12:58:58Z</time></trkpt><trkpt lat="42.69969347545077" lon="12.25294927812307"><ele>188.0</ele><time>2026-04-04T12:58:59Z</time></trkpt><trkpt lat="42.699540924221104" lon="12.2527980963281"><ele>186.0</ele><time>2026-04-04T12:59:00Z</time></trkpt><trkpt lat="42.69938723245291" lon="12.252644284980423"><ele>184.0</ele><time>2026-04-04T12:59:01Z</time></trkpt><trkpt lat="42.699239641332866" lon="12.25251639043876"><ele>184.0</ele><time>2026-04-04T12:59:02Z</time></trkpt><trkpt lat="42.69910986732798" lon="12.252385085050415"><ele>184.0</ele><time>2026-04-04T12:59:03Z</time></trkpt><trkpt lat="42.69899611224646" lon="12.252252395134825"><ele>184.0</ele><time>2026-04-04T12:59:04Z</time></trkpt><trkpt lat="42.698906864214365" lon="12.252092886106961"><ele>180.5</ele><time>2026-04-04T12:59:05Z</time></trkpt><trkpt lat="42.6988506002602" lon="12.251904210100559"><ele>177.0</ele><time>2026-04-04T12:59:06Z</time></trkpt><trkpt lat="42.6988174020765" lon="12.25170039332392"><ele>173.5</ele><time>2026-04-04T12:59:07Z</time></trkpt><trkpt lat="42.6988058524065" lon="12.251503670572465"><ele>170.0</ele><time>2026-04-04T12:59:08Z</time></trkpt><trkpt lat="42.69882499795342" lon="12.251302124329554"><ele>169.33333333333331</ele><time>2026-04-04T12:59:09Z</time></trkpt><trkpt lat="42.698870709883785" lon="12.251095470968401"><ele>168.66666666666666</ele><time>2026-04-04T12:59:10Z</time></trkpt><trkpt lat="42.69890895655984" lon="12.25086531564788"><ele>168.0</ele><time>2026-04-04T12:59:11Z</time></trkpt><trkpt lat="42.69892596484032" lon="12.25063450024876"><ele>168.33333333333334</ele><time>2026-04-04T12:59:12Z</time></trkpt><trkpt lat="42.69892860649653" lon="12.250393691701817"><ele>168.66666666666669</ele><time>2026-04-04T12:59:13Z</time></trkpt><trkpt lat="42.698940460413006" lon="12.250141724244248"><ele>169.0</ele><time>2026-04-04T12:59:14Z</time></trkpt><trkpt lat="42.69896469943012" lon="12.249890511081553"><ele>168.66666666666669</ele><time>2026-04-04T12:59:15Z</time></trkpt><trkpt lat="42.699007081481064" lon="12.249638977407571"><ele>168.33333333333334</ele><time>2026-04-04T12:59:16Z</time></trkpt><trkpt lat="42.69907201567971" lon="12.249409742103122"><ele>168.0</ele><time>2026-04-04T12:59:17Z</time></trkpt><trkpt lat="42.69913736697289" lon="12.249189193483343"><ele>168.0</ele><time>2026-04-04T12:59:18Z</time></trkpt><trkpt lat="42.69919998097456" lon="12.24896428497314"><ele>168.0</ele><time>2026-04-04T12:59:19Z</time></trkpt><trkpt lat="42.69926239659544" lon="12.248735974190064"><ele>168.0</ele><time>2026-04-04T12:59:20Z</time></trkpt><trkpt lat="42.69932300547334" lon="12.248519698889405"><ele>167.0</ele><time>2026-04-04T12:59:21Z</time></trkpt><trkpt lat="42.69938150959553" lon="12.248309384031772"><ele>166.0</ele><time>2026-04-04T12:59:22Z</time></trkpt><trkpt lat="42.69943822621456" lon="12.248100518665211"><ele>165.0</ele><time>2026-04-04T12:59:23Z</time></trkpt><trkpt lat="42.69948769701725" lon="12.247908162818314"><ele>163.5</ele><time>2026-04-04T12:59:24Z</time></trkpt><trkpt lat="42.69953081136024" lon="12.247732987038956"><ele>162.0</ele><time>2026-04-04T12:59:25Z</time></trkpt><trkpt lat="42.69956668630417" lon="12.247573290836923"><ele>160.5</ele><time>2026-04-04T12:59:26Z</time></trkpt><trkpt lat="42.69957659257578" lon="12.247431239775162"><ele>159.0</ele><time>2026-04-04T12:59:27Z</time></trkpt><trkpt lat="42.699541664228924" lon="12.247296565374413"><ele>158.8</ele><time>2026-04-04T12:59:28Z</time></trkpt><trkpt lat="42.699475812593285" lon="12.247185892078708"><ele>158.60000000000002</ele><time>2026-04-04T12:59:29Z</time></trkpt><trkpt lat="42.699389235072985" lon="12.247122680282201"><ele>158.4</ele><time>2026-04-04T12:59:30Z</time></trkpt><trkpt lat="42.699280690570234" lon="12.247129484502404"><ele>158.20000000000002</ele><time>2026-04-04T12:59:31Z</time></trkpt><trkpt lat="42.69916327834317" lon="12.247177899751428"><ele>158.0</ele><time>2026-04-04T12:59:32Z</time></trkpt><trkpt lat="42.69903749731751" lon="12.247260296649257"><ele>157.5</ele><time>2026-04-04T12:59:33Z</time></trkpt><trkpt lat="42.698917256520176" lon="12.247339755420626"><ele>157.0</ele><time>2026-04-04T12:59:34Z</time></trkpt><trkpt lat="42.69879892218469" lon="12.24740898271631"><ele>156.5</ele><time>2026-04-04T12:59:35Z</time></trkpt><trkpt lat="42.69869252945187" lon="12.247460798579604"><ele>156.0</ele><time>2026-04-04T12:59:36Z</time></trkpt><trkpt lat="42.69858795596464" lon="12.247466523105441"><ele>154.75</ele><time>2026-04-04T12:59:37Z</time></trkpt><trkpt lat="42.69848303607289" lon="12.247408848721758"><ele>153.5</ele><time>2026-04-04T12:59:38Z</time></trkpt><trkpt lat="42.6983929350073" lon="12.247288569149823"><ele>152.25</ele><time>2026-04-04T12:59:39Z</time></trkpt><trkpt lat="42.69833247511024" lon="12.247114399821136"><ele>151.0</ele><time>2026-04-04T12:59:40Z</time></trkpt><trkpt lat="42.69831313432996" lon="12.246921581556578"><ele>150.66666666666669</ele><time>2026-04-04T12:59:41Z</time></trkpt><trkpt lat="42.69826239055525" lon="12.246722470906365"><ele>150.33333333333334</ele><time>2026-04-04T12:59:42Z</time></trkpt><trkpt lat="42.698220447103225" lon="12.246500615736643"><ele>150.0</ele><time>2026-04-04T12:59:43Z</time></trkpt><trkpt lat="42.69817042878738" lon="12.246273241270744"><ele>149.33333333333334</ele><time>2026-04-04T12:59:44Z</time></trkpt><trkpt lat="42.698122983527114" lon="12.246053323510672"><ele>148.66666666666669</ele><time>2026-04-04T12:59:45Z</time></trkpt><trkpt lat="42.69807922911932" lon="12.245832493562416"><ele>148.0</ele><time>2026-04-04T12:59:46Z</time></trkpt><trkpt lat="42.69803847416681" lon="12.245611969932716"><ele>148.0</ele><time>2026-04-04T12:59:47Z</time></trkpt><trkpt lat="42.698004606142874" lon="12.245399371706034"><ele>148.0</ele><time>2026-04-04T12:59:48Z</time></trkpt><trkpt lat="42.69798262649504" lon="12.24518296364419"><ele>148.0</ele><time>2026-04-04T12:59:49Z</time></trkpt><trkpt lat="42.69797773849238" lon="12.244956118462879"><ele>148.66666666666669</ele><time>2026-04-04T12:59:50Z</time></trkpt><trkpt lat="42.697990526280414" lon="12.244727192075443"><ele>149.33333333333334</ele><time>2026-04-04T12:59:51Z</time></trkpt><trkpt lat="42.69801719241412" lon="12.244506902679333"><ele>150.0</ele><time>2026-04-04T12:59:52Z</time></trkpt><trkpt lat="42.6980553687914" lon="12.244290451065256"><ele>150.0</ele><time>2026-04-04T12:59:53Z</time></trkpt><trkpt lat="42.698110540750385" lon="12.244068176802166"><ele>150.0</ele><time>2026-04-04T12:59:54Z</time></trkpt><trkpt lat="42.698184197144684" lon="12.24382883379246"><ele>150.0</ele><time>2026-04-04T12:59:55Z</time></trkpt><trkpt lat="42.69826531547091" lon="12.243578653883787"><ele>149.66666666666666</ele><time>2026-04-04T12:59:56Z</time></trkpt><trkpt lat="42.698347264858725" lon="12.24332135222203"><ele>149.33333333333331</ele><time>2026-04-04T12:59:57Z</time></trkpt><trkpt lat="42.69842537277265" lon="12.243071395622842"><ele>149.0</ele><time>2026-04-04T12:59:58Z</time></trkpt><trkpt lat="42.69849837061174" lon="12.242836121745238"><ele>149.33333333333331</ele><time>2026-04-04T12:59:59Z</time></trkpt><trkpt lat="42.698572047970835" lon="12.24260415280959"><ele>149.66666666666666</ele><time>2026-04-04T13:00:00Z</time></trkpt><trkpt lat="42.6986458890854" lon="12.242381913283062"><ele>150.0</ele><time>2026-04-04T13:00:01Z</time></trkpt><trkpt lat="42.69871398997524" lon="12.242168991615037"><ele>149.5</ele><time>2026-04-04T13:00:02Z</time></trkpt><trkpt lat="42.69877676067581" lon="12.241962336074375"><ele>149.0</ele><time>2026-04-04T13:00:03Z</time></trkpt><trkpt lat="42.69883454072769" lon="12.241775893262405"><ele>148.5</ele><time>2026-04-04T13:00:04Z</time></trkpt><trkpt lat="42.698875977902595" lon="12.241611108140127"><ele>148.0</ele><time>2026-04-04T13:00:05Z</time></trkpt><trkpt lat="42.69888252290891" lon="12.241453810495553"><ele>145.75</ele><time>2026-04-04T13:00:06Z</time></trkpt><trkpt lat="42.69885739556786" lon="12.241296640383034"><ele>143.5</ele><time>2026-04-04T13:00:07.001Z</time></trkpt><trkpt lat="42.69880784764976" lon="12.241142660088515"><ele>141.25</ele><time>2026-04-04T13:00:08.001Z</time></trkpt><trkpt lat="42.698739086664425" lon="12.240999135699592"><ele>139.0</ele><time>2026-04-04T13:00:09.001Z</time></trkpt><trkpt lat="42.69866746556166" lon="12.240856587857577"><ele>139.0</ele><time>2026-04-04T13:00:10.001Z</time></trkpt><trkpt lat="42.69859537783342" lon="12.240708351755956"><ele>139.0</ele><time>2026-04-04T13:00:11.001Z</time></trkpt><trkpt lat="42.698527475596556" lon="12.240552598903149"><ele>139.0</ele><time>2026-04-04T13:00:12.001Z</time></trkpt><trkpt lat="42.698456044835645" lon="12.240392063613468"><ele>139.0</ele><time>2026-04-04T13:00:13.001Z</time></trkpt><trkpt lat="42.69837868704149" lon="12.240227187969177"><ele>138.0</ele><time>2026-04-04T13:00:14.001Z</time></trkpt><trkpt lat="42.69830140450702" lon="12.240057143064423"><ele>137.0</ele><time>2026-04-04T13:00:15.001Z</time></trkpt><trkpt lat="42.698221226593006" lon="12.239889008398519"><ele>136.0</ele><time>2026-04-04T13:00:16.001Z</time></trkpt><trkpt lat="42.698138003842836" lon="12.239716770131997"><ele>135.0</ele><time>2026-04-04T13:00:17.001Z</time></trkpt><trkpt lat="42.69805284105122" lon="12.239542662063853"><ele>135.0</ele><time>2026-04-04T13:00:18.001Z</time></trkpt><trkpt lat="42.69798744081377" lon="12.23934994452514"><ele>135.0</ele><time>2026-04-04T13:00:19.001Z</time></trkpt><trkpt lat="42.69790847931227" lon="12.239171817645339"><ele>135.0</ele><time>2026-04-04T13:00:20.001Z</time></trkpt><trkpt lat="42.69787204868452" lon="12.238981309223249"><ele>135.5</ele><time>2026-04-04T13:00:21.001Z</time></trkpt><trkpt lat="42.69786015923918" lon="12.238789942645555"><ele>136.0</ele><time>2026-04-04T13:00:22.001Z</time></trkpt><trkpt lat="42.69786654027277" lon="12.23859103158146"><ele>136.5</ele><time>2026-04-04T13:00:23.001Z</time></trkpt><trkpt lat="42.697885462243086" lon="12.238373934294746"><ele>137.0</ele><time>2026-04-04T13:00:24.001Z</time></trkpt><trkpt lat="42.697904000004044" lon="12.23814512032287"><ele>136.66666666666666</ele><time>2026-04-04T13:00:25.001Z</time></trkpt><trkpt lat="42.697920686611084" lon="12.237922109146043"><ele>136.33333333333334</ele><time>2026-04-04T13:00:26.001Z</time></trkpt><trkpt lat="42.69793196122617" lon="12.237705195695607"><ele>136.0</ele><time>2026-04-04T13:00:27.001Z</time></trkpt><trkpt lat="42.697928941904706" lon="12.237476334841174"><ele>136.66666666666669</ele><time>2026-04-04T13:00:28.001Z</time></trkpt><trkpt lat="42.69791159458597" lon="12.237240187799134"><ele>137.33333333333334</ele><time>2026-04-04T13:00:29.001Z</time></trkpt><trkpt lat="42.69789177724959" lon="12.23700267278807"><ele>138.0</ele><time>2026-04-04T13:00:30.001Z</time></trkpt><trkpt lat="42.69788293442632" lon="12.236763356560084"><ele>138.0</ele><time>2026-04-04T13:00:31.001Z</time></trkpt><trkpt lat="42.697882425575095" lon="12.23651960213063"><ele>138.0</ele><time>2026-04-04T13:00:32.001Z</time></trkpt><trkpt lat="42.6978925451764" lon="12.236280201608759"><ele>138.0</ele><time>2026-04-04T13:00:33.001Z</time></trkpt><trkpt lat="42.697911964225064" lon="12.236042432315754"><ele>137.33333333333334</ele><time>2026-04-04T13:00:34.001Z</time></trkpt><trkpt lat="42.6979422026504" lon="12.235816412266518"><ele>136.66666666666669</ele><time>2026-04-04T13:00:35.001Z</time></trkpt><trkpt lat="42.69796973020666" lon="12.235589557832535"><ele>136.0</ele><time>2026-04-04T13:00:36.001Z</time></trkpt><trkpt lat="42.69799387821004" lon="12.235359623646117"><ele>135.66666666666669</ele><time>2026-04-04T13:00:37.001Z</time></trkpt><trkpt lat="42.6980153431639" lon="12.235126623730066"><ele>135.33333333333334</ele><time>2026-04-04T13:00:38.001Z</time></trkpt><trkpt lat="42.69803875240435" lon="12.234896806188296"><ele>135.0</ele><time>2026-04-04T13:00:39Z</time></trkpt><trkpt lat="42.698065797364265" lon="12.234667915174956"><ele>137.66666666666666</ele><time>2026-04-04T13:00:40Z</time></trkpt><trkpt lat="42.6980965580866" lon="12.234442885385729"><ele>140.33333333333331</ele><time>2026-04-04T13:00:41Z</time></trkpt><trkpt lat="42.69812800018092" lon="12.234230670704227"><ele>143.0</ele><time>2026-04-04T13:00:42Z</time></trkpt><trkpt lat="42.698160041509354" lon="12.234014023098899"><ele>146.0</ele><time>2026-04-04T13:00:43Z</time></trkpt><trkpt lat="42.69820333045905" lon="12.233809055960155"><ele>149.0</ele><time>2026-04-04T13:00:44Z</time></trkpt><trkpt lat="42.698264662327034" lon="12.233618338588998"><ele>152.0</ele><time>2026-04-04T13:00:45Z</time></trkpt><trkpt lat="42.698363910224394" lon="12.233439110577237"><ele>152.0</ele><time>2026-04-04T13:00:46Z</time></trkpt><trkpt lat="42.69849544104516" lon="12.233286688933983"><ele>152.0</ele><time>2026-04-04T13:00:47Z</time></trkpt><trkpt lat="42.69859688023272" lon="12.233088437971004"><ele>152.0</ele><time>2026-04-04T13:00:48Z</time></trkpt><trkpt lat="42.69870477944147" lon="12.232896443860511"><ele>148.66666666666666</ele><time>2026-04-04T13:00:49Z</time></trkpt><trkpt lat="42.69880328470094" lon="12.232714895991423"><ele>145.33333333333334</ele><time>2026-04-04T13:00:50Z</time></trkpt><trkpt lat="42.69889367750119" lon="12.2325404913945"><ele>142.0</ele><time>2026-04-04T13:00:51Z</time></trkpt><trkpt lat="42.698980987789405" lon="12.232373161732715"><ele>142.5</ele><time>2026-04-04T13:00:52Z</time></trkpt><trkpt lat="42.69906116475472" lon="12.232207320585575"><ele>143.0</ele><time>2026-04-04T13:00:53Z</time></trkpt><trkpt lat="42.699132267542986" lon="12.232054074490783"><ele>143.5</ele><time>2026-04-04T13:00:54Z</time></trkpt><trkpt lat="42.699194079831344" lon="12.231906963191493"><ele>144.0</ele><time>2026-04-04T13:00:55Z</time></trkpt><trkpt lat="42.699258534949216" lon="12.231774710874014"><ele>144.0</ele><time>2026-04-04T13:00:56Z</time></trkpt><trkpt lat="42.69926187449876" lon="12.231606442956535"><ele>144.0</ele><time>2026-04-04T13:00:57Z</time></trkpt><trkpt lat="42.69925590196564" lon="12.231439164092032"><ele>144.0</ele><time>2026-04-04T13:00:58Z</time></trkpt><trkpt lat="42.699242509948114" lon="12.231265672931327"><ele>144.0</ele><time>2026-04-04T13:00:59Z</time></trkpt><trkpt lat="42.69923383837346" lon="12.231084669592038"><ele>144.0</ele><time>2026-04-04T13:01:00Z</time></trkpt><trkpt lat="42.69922771932338" lon="12.230907595703812"><ele>144.0</ele><time>2026-04-04T13:01:01Z</time></trkpt><trkpt lat="42.69921596326702" lon="12.230731684188425"><ele>144.0</ele><time>2026-04-04T13:01:02Z</time></trkpt><trkpt lat="42.699193585725816" lon="12.230555149778949"><ele>144.0</ele><time>2026-04-04T13:01:03Z</time></trkpt><trkpt lat="42.699159180665646" lon="12.230374157348503"><ele>142.25</ele><time>2026-04-04T13:01:04Z</time></trkpt><trkpt lat="42.69911043216239" lon="12.230190830680796"><ele>140.5</ele><time>2026-04-04T13:01:05Z</time></trkpt><trkpt lat="42.69905098586511" lon="12.230015438323209"><ele>138.75</ele><time>2026-04-04T13:01:06Z</time></trkpt><trkpt lat="42.69898867068094" lon="12.229858480181857"><ele>137.0</ele><time>2026-04-04T13:01:07Z</time></trkpt><trkpt lat="42.698946996705885" lon="12.229702636263461"><ele>136.0</ele><time>2026-04-04T13:01:08Z</time></trkpt><trkpt lat="42.69893310900301" lon="12.229538534762039"><ele>135.0</ele><time>2026-04-04T13:01:09Z</time></trkpt><trkpt lat="42.69894586508073" lon="12.22937247985077"><ele>134.0</ele><time>2026-04-04T13:01:10Z</time></trkpt><trkpt lat="42.698964321148765" lon="12.229202389766598"><ele>133.0</ele><time>2026-04-04T13:01:11Z</time></trkpt><trkpt lat="42.69896943540645" lon="12.229025013410936"><ele>132.0</ele><time>2026-04-04T13:01:12Z</time></trkpt><trkpt lat="42.698985598237684" lon="12.228845806550545"><ele>131.0</ele><time>2026-04-04T13:01:13Z</time></trkpt><trkpt lat="42.698973050203165" lon="12.22867038658312"><ele>130.0</ele><time>2026-04-04T13:01:14Z</time></trkpt><trkpt lat="42.69895179335054" lon="12.228500955581163"><ele>129.0</ele><time>2026-04-04T13:01:15Z</time></trkpt><trkpt lat="42.69892860857772" lon="12.228345279817718"><ele>129.0</ele><time>2026-04-04T13:01:16Z</time></trkpt><trkpt lat="42.69890726556807" lon="12.228199387158842"><ele>129.0</ele><time>2026-04-04T13:01:17Z</time></trkpt><trkpt lat="42.69889171638058" lon="12.228066464536228"><ele>129.0</ele><time>2026-04-04T13:01:18Z</time></trkpt><trkpt lat="42.6988855630005" lon="12.227963270523507"><ele>129.0</ele><time>2026-04-04T13:01:19Z</time></trkpt><trkpt lat="42.69889356678311" lon="12.22785158838938"><ele>129.0</ele><time>2026-04-04T13:01:21Z</time></trkpt><trkpt lat="42.69895807376466" lon="12.227854864686448"><ele>129.0</ele><time>2026-04-04T13:01:23Z</time></trkpt><trkpt lat="42.69897890881271" lon="12.227975748460565"><ele>129.0</ele><time>2026-04-04T13:01:25Z</time></trkpt><trkpt lat="42.69903347816917" lon="12.228118438704222"><ele>129.0</ele><time>2026-04-04T13:01:27Z</time></trkpt><trkpt lat="42.69905874690572" lon="12.228228686708002"><ele>129.0</ele><time>2026-04-04T13:01:28Z</time></trkpt><trkpt lat="42.699092404011104" lon="12.228344666724372"><ele>129.0</ele><time>2026-04-04T13:01:29Z</time></trkpt><trkpt lat="42.6991354162034" lon="12.228459917995382"><ele>129.0</ele><time>2026-04-04T13:01:30Z</time></trkpt><trkpt lat="42.699184574433865" lon="12.228574632623502"><ele>129.0</ele><time>2026-04-04T13:01:31Z</time></trkpt><trkpt lat="42.69923670749032" lon="12.2286768495312"><ele>129.0</ele><time>2026-04-04T13:01:32Z</time></trkpt><trkpt lat="42.69928715832269" lon="12.228768515987122"><ele>129.0</ele><time>2026-04-04T13:01:33Z</time></trkpt><trkpt lat="42.6993340156737" lon="12.228858583913105"><ele>129.0</ele><time>2026-04-04T13:01:34Z</time></trkpt><trkpt lat="42.69938152469075" lon="12.228945995676746"><ele>129.0</ele><time>2026-04-04T13:01:35Z</time></trkpt><trkpt lat="42.699428879371496" lon="12.229027971179887"><ele>129.0</ele><time>2026-04-04T13:01:36Z</time></trkpt><trkpt lat="42.69946931925979" lon="12.229104421414075"><ele>126.5</ele><time>2026-04-04T13:01:37Z</time></trkpt><trkpt lat="42.6995381143742" lon="12.22913990655065"><ele>124.0</ele><time>2026-04-04T13:01:38Z</time></trkpt><trkpt lat="42.69961982555695" lon="12.229129299125177"><ele>121.5</ele><time>2026-04-04T13:01:39Z</time></trkpt><trkpt lat="42.69969175559285" lon="12.229083606352802"><ele>119.0</ele><time>2026-04-04T13:01:40Z</time></trkpt><trkpt lat="42.699782033898565" lon="12.229049913709707"><ele>116.5</ele><time>2026-04-04T13:01:41Z</time></trkpt><trkpt lat="42.6998835983548" lon="12.22902070233562"><ele>114.0</ele><time>2026-04-04T13:01:42Z</time></trkpt><trkpt lat="42.699985975689025" lon="12.228985083854676"><ele>113.25</ele><time>2026-04-04T13:01:43Z</time></trkpt><trkpt lat="42.70009545574961" lon="12.228945722031089"><ele>112.5</ele><time>2026-04-04T13:01:44Z</time></trkpt><trkpt lat="42.70020498294145" lon="12.228909976812501"><ele>111.75</ele><time>2026-04-04T13:01:45Z</time></trkpt><trkpt lat="42.700313095382214" lon="12.228875121000376"><ele>111.0</ele><time>2026-04-04T13:01:46Z</time></trkpt><trkpt lat="42.70042335170273" lon="12.228838183779189"><ele>110.6</ele><time>2026-04-04T13:01:47Z</time></trkpt><trkpt lat="42.70053823495711" lon="12.22880717231535"><ele>110.19999999999999</ele><time>2026-04-04T13:01:48Z</time></trkpt><trkpt lat="42.70064797525917" lon="12.228779696046917"><ele>109.80000000000001</ele><time>2026-04-04T13:01:49Z</time></trkpt><trkpt lat="42.700754784500404" lon="12.228747168933857"><ele>109.4</ele><time>2026-04-04T13:01:50Z</time></trkpt><trkpt lat="42.70085624813263" lon="12.22871083140537"><ele>109.0</ele><time>2026-04-04T13:01:51Z</time></trkpt><trkpt lat="42.700955700135154" lon="12.22866858579652"><ele>109.0</ele><time>2026-04-04T13:01:52Z</time></trkpt><trkpt lat="42.70106081190713" lon="12.228618111887926"><ele>109.0</ele><time>2026-04-04T13:01:53Z</time></trkpt><trkpt lat="42.70114630630475" lon="12.228589191219442"><ele>109.0</ele><time>2026-04-04T13:01:54Z</time></trkpt><trkpt lat="42.701217890271145" lon="12.228513573713178"><ele>109.0</ele><time>2026-04-04T13:01:55Z</time></trkpt><trkpt lat="42.701298880425945" lon="12.228458958023008"><ele>109.0</ele><time>2026-04-04T13:01:56Z</time></trkpt><trkpt lat="42.701385047223866" lon="12.228434164407467"><ele>108.33333333333334</ele><time>2026-04-04T13:01:57Z</time></trkpt><trkpt lat="42.70146455141964" lon="12.228380265336488"><ele>107.66666666666667</ele><time>2026-04-04T13:01:58Z</time></trkpt><trkpt lat="42.70154804175269" lon="12.228345630878444"><ele>107.0</ele><time>2026-04-04T13:01:59Z</time></trkpt><trkpt lat="42.701628051794195" lon="12.228309684297745"><ele>106.33333333333334</ele><time>2026-04-04T13:02:00Z</time></trkpt><trkpt lat="42.70170306890092" lon="12.228261490331027"><ele>105.66666666666667</ele><time>2026-04-04T13:02:01Z</time></trkpt><trkpt lat="42.70177645455638" lon="12.228217079909024"><ele>105.0</ele><time>2026-04-04T13:02:02Z</time></trkpt><trkpt lat="42.701855566264115" lon="12.228168682951036"><ele>103.66666666666667</ele><time>2026-04-04T13:02:03Z</time></trkpt><trkpt lat="42.70193490082644" lon="12.22812456148484"><ele>102.33333333333334</ele><time>2026-04-04T13:02:04Z</time></trkpt><trkpt lat="42.70201026151235" lon="12.228068676443442"><ele>101.0</ele><time>2026-04-04T13:02:05Z</time></trkpt><trkpt lat="42.70208617888254" lon="12.228036726174988"><ele>99.66666666666667</ele><time>2026-04-04T13:02:06Z</time></trkpt><trkpt lat="42.70217248361602" lon="12.228015478299033"><ele>98.33333333333334</ele><time>2026-04-04T13:02:07Z</time></trkpt><trkpt lat="42.7022601955407" lon="12.228049271205757"><ele>97.0</ele><time>2026-04-04T13:02:08Z</time></trkpt><trkpt lat="42.70234336119665" lon="12.228078974089605"><ele>97.00000000000001</ele><time>2026-04-04T13:02:09Z</time></trkpt><trkpt lat="42.702427111850284" lon="12.228075736636132"><ele>97.0</ele><time>2026-04-04T13:02:10Z</time></trkpt><trkpt lat="42.702505090448355" lon="12.228102154777122"><ele>97.0</ele><time>2026-04-04T13:02:11Z</time></trkpt><trkpt lat="42.70258638370821" lon="12.228119942572807"><ele>97.0</ele><time>2026-04-04T13:02:12Z</time></trkpt><trkpt lat="42.70266431323187" lon="12.228137058675125"><ele>97.00000000000001</ele><time>2026-04-04T13:02:13Z</time></trkpt><trkpt lat="42.70272756038493" lon="12.228152793009498"><ele>97.0</ele><time>2026-04-04T13:02:14Z</time></trkpt><trkpt lat="42.70281197927745" lon="12.22817877303558"><ele>97.8</ele><time>2026-04-04T13:02:15Z</time></trkpt><trkpt lat="42.70290587665763" lon="12.22819555784124"><ele>98.6</ele><time>2026-04-04T13:02:16Z</time></trkpt><trkpt lat="42.70300649896537" lon="12.22821973089617"><ele>99.39999999999999</ele><time>2026-04-04T13:02:17Z</time></trkpt><trkpt lat="42.70310172358553" lon="12.228255587991516"><ele>100.19999999999999</ele><time>2026-04-04T13:02:18Z</time></trkpt><trkpt lat="42.70318457898037" lon="12.228240305643277"><ele>101.0</ele><time>2026-04-04T13:02:19Z</time></trkpt><trkpt lat="42.70325658435926" lon="12.228217408624344"><ele>102.6</ele><time>2026-04-04T13:02:20Z</time></trkpt><trkpt lat="42.70330799565228" lon="12.228098367068565"><ele>104.19999999999999</ele><time>2026-04-04T13:02:21Z</time></trkpt><trkpt lat="42.7033273198263" lon="12.227979473455514"><ele>105.80000000000001</ele><time>2026-04-04T13:02:22.001Z</time></trkpt><trkpt lat="42.70328106624299" lon="12.227828558385394"><ele>107.4</ele><time>2026-04-04T13:02:23.001Z</time></trkpt><trkpt lat="42.70322973656086" lon="12.22768918469927"><ele>109.0</ele><time>2026-04-04T13:02:24.001Z</time></trkpt><trkpt lat="42.70315380605821" lon="12.227552489830057"><ele>109.00000000000001</ele><time>2026-04-04T13:02:25.001Z</time></trkpt><trkpt lat="42.703121552430964" lon="12.227406138281216"><ele>109.0</ele><time>2026-04-04T13:02:26.001Z</time></trkpt><trkpt lat="42.703099564365615" lon="12.227278964439103"><ele>109.0</ele><time>2026-04-04T13:02:27.001Z</time></trkpt><trkpt lat="42.70307956981199" lon="12.227170344008169"><ele>109.0</ele><time>2026-04-04T13:02:28.001Z</time></trkpt><trkpt lat="42.70306143973596" lon="12.227078623589845"><ele>109.00000000000001</ele><time>2026-04-04T13:02:29.001Z</time></trkpt><trkpt lat="42.70304612860393" lon="12.226987195198749"><ele>109.0</ele><time>2026-04-04T13:02:30.001Z</time></trkpt><trkpt lat="42.703042124688494" lon="12.22689590817451"><ele>109.50000000000001</ele><time>2026-04-04T13:02:31.001Z</time></trkpt><trkpt lat="42.70304857366162" lon="12.226806318207384"><ele>110.0</ele><time>2026-04-04T13:02:32.001Z</time></trkpt><trkpt lat="42.70309873528" lon="12.226663725502007"><ele>110.5</ele><time>2026-04-04T13:02:34.001Z</time></trkpt><trkpt lat="42.70314203440525" lon="12.22659702576264"><ele>111.0</ele><time>2026-04-04T13:02:35.001Z</time></trkpt><trkpt lat="42.70318924343485" lon="12.226509790484366"><ele>111.50000000000001</ele><time>2026-04-04T13:02:36.001Z</time></trkpt><trkpt lat="42.703224531885105" lon="12.226390173591481"><ele>112.0</ele><time>2026-04-04T13:02:37.001Z</time></trkpt><trkpt lat="42.70322685436902" lon="12.22625763605203"><ele>112.6</ele><time>2026-04-04T13:02:38.001Z</time></trkpt><trkpt lat="42.70324212005098" lon="12.226139020799076"><ele>113.19999999999999</ele><time>2026-04-04T13:02:39.001Z</time></trkpt><trkpt lat="42.70318459900051" lon="12.226011945100288"><ele>113.8</ele><time>2026-04-04T13:02:40.001Z</time></trkpt><trkpt lat="42.70313023658031" lon="12.225901380739169"><ele>114.4</ele><time>2026-04-04T13:02:41.001Z</time></trkpt><trkpt lat="42.703052888373335" lon="12.225801719771566"><ele>115.0</ele><time>2026-04-04T13:02:42.001Z</time></trkpt><trkpt lat="42.70298429822647" lon="12.225693288837066"><ele>114.0</ele><time>2026-04-04T13:02:43.001Z</time></trkpt><trkpt lat="42.70292665092657" lon="12.225592916749962"><ele>113.0</ele><time>2026-04-04T13:02:44.001Z</time></trkpt><trkpt lat="42.70288225501638" lon="12.225485993346496"><ele>112.0</ele><time>2026-04-04T13:02:45Z</time></trkpt><trkpt lat="42.70282914113577" lon="12.22538539683713"><ele>111.0</ele><time>2026-04-04T13:02:46Z</time></trkpt><trkpt lat="42.70278278121133" lon="12.22528656140408"><ele>110.0</ele><time>2026-04-04T13:02:47Z</time></trkpt><trkpt lat="42.702732350609004" lon="12.225178986891592"><ele>109.99999999999999</ele><time>2026-04-04T13:02:48Z</time></trkpt><trkpt lat="42.702697044503985" lon="12.225080747787619"><ele>110.0</ele><time>2026-04-04T13:02:49Z</time></trkpt><trkpt lat="42.70267855089373" lon="12.224996379559482"><ele>110.0</ele><time>2026-04-04T13:02:50Z</time></trkpt><trkpt lat="42.70268297669977" lon="12.224905354383738"><ele>110.0</ele><time>2026-04-04T13:02:51Z</time></trkpt><trkpt lat="42.70273837595199" lon="12.224790211607674"><ele>109.99999999999999</ele><time>2026-04-04T13:02:53Z</time></trkpt><trkpt lat="42.70280138817859" lon="12.224771642291568"><ele>110.0</ele><time>2026-04-04T13:02:55Z</time></trkpt><trkpt lat="42.70288170795919" lon="12.22489035637269"><ele>112.4</ele><time>2026-04-04T13:02:57Z</time></trkpt><trkpt lat="42.70295289231219" lon="12.225030177668991"><ele>114.8</ele><time>2026-04-04T13:02:59Z</time></trkpt><trkpt lat="42.7030287485498" lon="12.225162819334248"><ele>117.19999999999999</ele><time>2026-04-04T13:03:01Z</time></trkpt><trkpt lat="42.70307096066855" lon="12.225235439556045"><ele>119.6</ele><time>2026-04-04T13:03:02Z</time></trkpt><trkpt lat="42.70312157416931" lon="12.225306105070056"><ele>122.0</ele><time>2026-04-04T13:03:03Z</time></trkpt><trkpt lat="42.70317320616215" lon="12.225385214703318"><ele>122.0</ele><time>2026-04-04T13:03:04Z</time></trkpt><trkpt lat="42.703248902825415" lon="12.225426663401132"><ele>121.99999999999999</ele><time>2026-04-04T13:03:05Z</time></trkpt><trkpt lat="42.70333672734411" lon="12.225409719435316"><ele>121.99999999999999</ele><time>2026-04-04T13:03:06Z</time></trkpt><trkpt lat="42.70341765506424" lon="12.225416255885891"><ele>122.0</ele><time>2026-04-04T13:03:07Z</time></trkpt><trkpt lat="42.70349546688647" lon="12.225397712778044"><ele>122.0</ele><time>2026-04-04T13:03:08Z</time></trkpt><trkpt lat="42.70362387180236" lon="12.225346891315558"><ele>125.6</ele><time>2026-04-04T13:03:10Z</time></trkpt><trkpt lat="42.703734584771276" lon="12.225322866432196"><ele>129.2</ele><time>2026-04-04T13:03:12Z</time></trkpt><trkpt lat="42.70381246669515" lon="12.225312761776411"><ele>132.8</ele><time>2026-04-04T13:03:14Z</time></trkpt><trkpt lat="42.70392372101371" lon="12.225294702576495"><ele>136.4</ele><time>2026-04-04T13:03:16Z</time></trkpt><trkpt lat="42.704020488146305" lon="12.225371792931545"><ele>140.0</ele><time>2026-04-04T13:03:18Z</time></trkpt><trkpt lat="42.70405593624386" lon="12.225560529634873"><ele>139.16666666666666</ele><time>2026-04-04T13:03:20Z</time></trkpt><trkpt lat="42.70401546901775" lon="12.225657642261568"><ele>138.33333333333331</ele><time>2026-04-04T13:03:21Z</time></trkpt><trkpt lat="42.703997080095796" lon="12.225764179267085"><ele>137.5</ele><time>2026-04-04T13:03:22Z</time></trkpt><trkpt lat="42.7039622193472" lon="12.225841773130455"><ele>136.66666666666666</ele><time>2026-04-04T13:03:23Z</time></trkpt><trkpt lat="42.7039504375324" lon="12.225947015248448"><ele>135.83333333333334</ele><time>2026-04-04T13:03:25Z</time></trkpt><trkpt lat="42.70395706589626" lon="12.226057648140932"><ele>135.0</ele><time>2026-04-04T13:03:27Z</time></trkpt><trkpt lat="42.70401025001211" lon="12.226196011596265"><ele>135.0</ele><time>2026-04-04T13:03:29Z</time></trkpt><trkpt lat="42.704039363328874" lon="12.226285821432322"><ele>135.0</ele><time>2026-04-04T13:03:30Z</time></trkpt><trkpt lat="42.7041114000738" lon="12.226394331350855"><ele>135.0</ele><time>2026-04-04T13:03:31Z</time></trkpt><trkpt lat="42.70420243040393" lon="12.226517729663176"><ele>135.0</ele><time>2026-04-04T13:03:32Z</time></trkpt><trkpt lat="42.70429251022146" lon="12.226630500119951"><ele>135.0</ele><time>2026-04-04T13:03:33Z</time></trkpt><trkpt lat="42.704379573043255" lon="12.226732707286198"><ele>134.8</ele><time>2026-04-04T13:03:34Z</time></trkpt><trkpt lat="42.70441203106207" lon="12.226875325951093"><ele>134.6</ele><time>2026-04-04T13:03:35Z</time></trkpt><trkpt lat="42.704459431565894" lon="12.227003290146222"><ele>134.4</ele><time>2026-04-04T13:03:36Z</time></trkpt><trkpt lat="42.70451142139503" lon="12.227121926709591"><ele>134.2</ele><time>2026-04-04T13:03:37Z</time></trkpt><trkpt lat="42.70458662326422" lon="12.22723715767643"><ele>134.0</ele><time>2026-04-04T13:03:38Z</time></trkpt><trkpt lat="42.704662733181735" lon="12.22733782452791"><ele>139.6</ele><time>2026-04-04T13:03:39Z</time></trkpt><trkpt lat="42.704734306338125" lon="12.2274386410015"><ele>145.2</ele><time>2026-04-04T13:03:40Z</time></trkpt><trkpt lat="42.704788541014075" lon="12.227541996056235"><ele>150.79999999999998</ele><time>2026-04-04T13:03:41Z</time></trkpt><trkpt lat="42.70482708111953" lon="12.22764169838504"><ele>156.4</ele><time>2026-04-04T13:03:42Z</time></trkpt><trkpt lat="42.70486627027281" lon="12.227745178439548"><ele>162.0</ele><time>2026-04-04T13:03:43Z</time></trkpt><trkpt lat="42.70490493476052" lon="12.227848671404475"><ele>162.0</ele><time>2026-04-04T13:03:44Z</time></trkpt><trkpt lat="42.70492781126277" lon="12.227935157707641"><ele>162.0</ele><time>2026-04-04T13:03:45Z</time></trkpt><trkpt lat="42.70492827428283" lon="12.228034107595288"><ele>162.0</ele><time>2026-04-04T13:03:46Z</time></trkpt><trkpt lat="42.7049296149768" lon="12.228146634702087"><ele>162.0</ele><time>2026-04-04T13:03:47Z</time></trkpt><trkpt lat="42.70488776183037" lon="12.22826374765983"><ele>162.0</ele><time>2026-04-04T13:03:48Z</time></trkpt><trkpt lat="42.704859426328774" lon="12.228374411281333"><ele>162.0</ele><time>2026-04-04T13:03:49Z</time></trkpt><trkpt lat="42.70485569896221" lon="12.228468162518228"><ele>161.0</ele><time>2026-04-04T13:03:50Z</time></trkpt><trkpt lat="42.704847465076405" lon="12.228560829345657"><ele>160.0</ele><time>2026-04-04T13:03:51Z</time></trkpt><trkpt lat="42.70490256126512" lon="12.228638123129919"><ele>159.0</ele><time>2026-04-04T13:03:52Z</time></trkpt><trkpt lat="42.70501835915431" lon="12.228647704277714"><ele>158.0</ele><time>2026-04-04T13:03:53Z</time></trkpt><trkpt lat="42.705127386557535" lon="12.228652107356183"><ele>157.0</ele><time>2026-04-04T13:03:54Z</time></trkpt><trkpt lat="42.70524593119423" lon="12.228660116549795"><ele>162.2</ele><time>2026-04-04T13:03:55Z</time></trkpt><trkpt lat="42.705348392430984" lon="12.228701594361246"><ele>167.39999999999998</ele><time>2026-04-04T13:03:56Z</time></trkpt><trkpt lat="42.70545173271549" lon="12.228755795661305"><ele>172.60000000000002</ele><time>2026-04-04T13:03:57Z</time></trkpt><trkpt lat="42.70555352102836" lon="12.228809486652139"><ele>177.8</ele><time>2026-04-04T13:03:58Z</time></trkpt><trkpt lat="42.70564110722682" lon="12.228859640215271"><ele>183.0</ele><time>2026-04-04T13:03:59Z</time></trkpt><trkpt lat="42.705715372759464" lon="12.228911071675977"><ele>183.0</ele><time>2026-04-04T13:04:00Z</time></trkpt><trkpt lat="42.70577570553929" lon="12.228963988977663"><ele>183.0</ele><time>2026-04-04T13:04:01Z</time></trkpt><trkpt lat="42.705837000196134" lon="12.229062976784423"><ele>183.0</ele><time>2026-04-04T13:04:03Z</time></trkpt><trkpt lat="42.70579902280819" lon="12.229177280921409"><ele>183.0</ele><time>2026-04-04T13:04:05Z</time></trkpt><trkpt lat="42.70572809001235" lon="12.22920403337855"><ele>183.0</ele><time>2026-04-04T13:04:06Z</time></trkpt><trkpt lat="42.70564248262699" lon="12.229269641621888"><ele>183.0</ele><time>2026-04-04T13:04:07Z</time></trkpt><trkpt lat="42.705542413400806" lon="12.229293199969554"><ele>181.66666666666666</ele><time>2026-04-04T13:04:08Z</time></trkpt><trkpt lat="42.705439205449665" lon="12.22928266355335"><ele>180.33333333333334</ele><time>2026-04-04T13:04:09Z</time></trkpt><trkpt lat="42.70535527086629" lon="12.229255325185495"><ele>179.0</ele><time>2026-04-04T13:04:10Z</time></trkpt><trkpt lat="42.70527518971825" lon="12.229232945204119"><ele>177.66666666666669</ele><time>2026-04-04T13:04:11Z</time></trkpt><trkpt lat="42.70519777465348" lon="12.229207795155043"><ele>176.33333333333334</ele><time>2026-04-04T13:04:12Z</time></trkpt><trkpt lat="42.70511851375131" lon="12.229221559998553"><ele>175.0</ele><time>2026-04-04T13:04:13Z</time></trkpt><trkpt lat="42.70504445434767" lon="12.2292501959558"><ele>170.5</ele><time>2026-04-04T13:04:14Z</time></trkpt><trkpt lat="42.70498552184187" lon="12.229283096195571"><ele>166.0</ele><time>2026-04-04T13:04:15Z</time></trkpt><trkpt lat="42.704916656291736" lon="12.229350356144687"><ele>161.5</ele><time>2026-04-04T13:04:17Z</time></trkpt><trkpt lat="42.70491225093047" lon="12.229474883895948"><ele>157.0</ele><time>2026-04-04T13:04:20Z</time></trkpt><trkpt lat="42.70497819188317" lon="12.229563055906628"><ele>152.5</ele><time>2026-04-04T13:04:22Z</time></trkpt><trkpt lat="42.70506417476273" lon="12.229651307603"><ele>148.0</ele><time>2026-04-04T13:04:24Z</time></trkpt><trkpt lat="42.70512740097762" lon="12.229702468709068"><ele>146.66666666666669</ele><time>2026-04-04T13:04:25Z</time></trkpt><trkpt lat="42.70520365510656" lon="12.229849197012635"><ele>145.33333333333334</ele><time>2026-04-04T13:04:27Z</time></trkpt><trkpt lat="42.705232643293584" lon="12.229935648361655"><ele>144.0</ele><time>2026-04-04T13:04:28Z</time></trkpt><trkpt lat="42.705253340591156" lon="12.230032154134344"><ele>142.66666666666666</ele><time>2026-04-04T13:04:29Z</time></trkpt><trkpt lat="42.705266790151654" lon="12.23013353423328"><ele>141.33333333333331</ele><time>2026-04-04T13:04:30Z</time></trkpt><trkpt lat="42.705275097744824" lon="12.230246619567787"><ele>140.0</ele><time>2026-04-04T13:04:31Z</time></trkpt><trkpt lat="42.70526460012541" lon="12.230361433880779"><ele>143.4</ele><time>2026-04-04T13:04:32Z</time></trkpt><trkpt lat="42.7052858281149" lon="12.230475645335526"><ele>146.8</ele><time>2026-04-04T13:04:33Z</time></trkpt><trkpt lat="42.705318552281966" lon="12.230590170857127"><ele>150.2</ele><time>2026-04-04T13:04:34Z</time></trkpt><trkpt lat="42.70535759862429" lon="12.230700803824469"><ele>153.6</ele><time>2026-04-04T13:04:35Z</time></trkpt><trkpt lat="42.705399711596826" lon="12.230816282453311"><ele>157.0</ele><time>2026-04-04T13:04:36Z</time></trkpt><trkpt lat="42.705458433941374" lon="12.230923110643754"><ele>157.0</ele><time>2026-04-04T13:04:37Z</time></trkpt><trkpt lat="42.705501011144584" lon="12.2310352475373"><ele>157.0</ele><time>2026-04-04T13:04:38Z</time></trkpt><trkpt lat="42.705553711375316" lon="12.231136752098793"><ele>157.0</ele><time>2026-04-04T13:04:39Z</time></trkpt><trkpt lat="42.70561678895298" lon="12.231222488019313"><ele>157.0</ele><time>2026-04-04T13:04:40Z</time></trkpt><trkpt lat="42.705681108699146" lon="12.2313194256249"><ele>157.0</ele><time>2026-04-04T13:04:41Z</time></trkpt><trkpt lat="42.70575139091076" lon="12.23140267345843"><ele>158.6</ele><time>2026-04-04T13:04:42Z</time></trkpt><trkpt lat="42.70581254317545" lon="12.231502913317632"><ele>160.2</ele><time>2026-04-04T13:04:43Z</time></trkpt><trkpt lat="42.70588402001796" lon="12.231608659973409"><ele>161.8</ele><time>2026-04-04T13:04:44Z</time></trkpt><trkpt lat="42.705967127181744" lon="12.231698639821225"><ele>163.4</ele><time>2026-04-04T13:04:45Z</time></trkpt><trkpt lat="42.706048548717774" lon="12.231774264783793"><ele>165.0</ele><time>2026-04-04T13:04:46Z</time></trkpt><trkpt lat="42.70614100209134" lon="12.231847520675892"><ele>165.0</ele><time>2026-04-04T13:04:47Z</time></trkpt><trkpt lat="42.70623160144931" lon="12.231943843845825"><ele>165.0</ele><time>2026-04-04T13:04:48Z</time></trkpt><trkpt lat="42.7063336332906" lon="12.232021554436452"><ele>165.0</ele><time>2026-04-04T13:04:49Z</time></trkpt><trkpt lat="42.70642995075337" lon="12.232122438095278"><ele>165.0</ele><time>2026-04-04T13:04:50Z</time></trkpt><trkpt lat="42.70652181543878" lon="12.232231797650904"><ele>160.25</ele><time>2026-04-04T13:04:50.999Z</time></trkpt><trkpt lat="42.706611077949795" lon="12.232349348963927"><ele>155.5</ele><time>2026-04-04T13:04:51.999Z</time></trkpt><trkpt lat="42.70670326106151" lon="12.232463767405056"><ele>150.75</ele><time>2026-04-04T13:04:52.999Z</time></trkpt><trkpt lat="42.70678820402099" lon="12.23259025388234"><ele>146.0</ele><time>2026-04-04T13:04:53.999Z</time></trkpt><trkpt lat="42.706878051606935" lon="12.232692233552646"><ele>148.2</ele><time>2026-04-04T13:04:54.999Z</time></trkpt><trkpt lat="42.7069532412837" lon="12.232782094731983"><ele>150.39999999999998</ele><time>2026-04-04T13:04:55.999Z</time></trkpt><trkpt lat="42.70705174358679" lon="12.23281977291716"><ele>152.6</ele><time>2026-04-04T13:04:56.999Z</time></trkpt><trkpt lat="42.70715485200744" lon="12.232823383164037"><ele>154.79999999999998</ele><time>2026-04-04T13:04:57.999Z</time></trkpt><trkpt lat="42.70726372814208" lon="12.23279982197884"><ele>157.0</ele><time>2026-04-04T13:04:58.999Z</time></trkpt><trkpt lat="42.70736487651808" lon="12.23276748075082"><ele>157.0</ele><time>2026-04-04T13:04:59.999Z</time></trkpt><trkpt lat="42.70746375391649" lon="12.232741254555469"><ele>157.0</ele><time>2026-04-04T13:05:00.999Z</time></trkpt><trkpt lat="42.707561124604844" lon="12.232705725415174"><ele>157.0</ele><time>2026-04-04T13:05:01.999Z</time></trkpt><trkpt lat="42.70766538270096" lon="12.232662677019988"><ele>157.0</ele><time>2026-04-04T13:05:02.999Z</time></trkpt><trkpt lat="42.70777843284065" lon="12.232612673335709"><ele>157.0</ele><time>2026-04-04T13:05:03.999Z</time></trkpt><trkpt lat="42.707902676765094" lon="12.232564829785467"><ele>155.75</ele><time>2026-04-04T13:05:05Z</time></trkpt><trkpt lat="42.70802884743588" lon="12.232518130909076"><ele>154.5</ele><time>2026-04-04T13:05:06Z</time></trkpt><trkpt lat="42.70814807468168" lon="12.23247664143029"><ele>153.25</ele><time>2026-04-04T13:05:07Z</time></trkpt><trkpt lat="42.70826428176182" lon="12.232440673248814"><ele>152.0</ele><time>2026-04-04T13:05:08Z</time></trkpt><trkpt lat="42.708372340773586" lon="12.232430851094497"><ele>152.0</ele><time>2026-04-04T13:05:09Z</time></trkpt><trkpt lat="42.70847756057166" lon="12.23242890210945"><ele>152.0</ele><time>2026-04-04T13:05:10Z</time></trkpt><trkpt lat="42.70856925263574" lon="12.232437280024524"><ele>152.0</ele><time>2026-04-04T13:05:11Z</time></trkpt><trkpt lat="42.70864798436454" lon="12.232434855698541"><ele>152.0</ele><time>2026-04-04T13:05:12Z</time></trkpt><trkpt lat="42.70871365389677" lon="12.232486578054733"><ele>152.0</ele><time>2026-04-04T13:05:13Z</time></trkpt><trkpt lat="42.70874188817139" lon="12.232576731693438"><ele>152.0</ele><time>2026-04-04T13:05:14Z</time></trkpt><trkpt lat="42.70876457378867" lon="12.23265790406028"><ele>151.2</ele><time>2026-04-04T13:05:15Z</time></trkpt><trkpt lat="42.7087890549289" lon="12.23274597622798"><ele>150.39999999999998</ele><time>2026-04-04T13:05:16Z</time></trkpt><trkpt lat="42.708819794119265" lon="12.232853086343695"><ele>149.60000000000002</ele><time>2026-04-04T13:05:17Z</time></trkpt><trkpt lat="42.7088552227348" lon="12.232975833127675"><ele>148.8</ele><time>2026-04-04T13:05:18Z</time></trkpt><trkpt lat="42.70889319775482" lon="12.23310740215103"><ele>148.0</ele><time>2026-04-04T13:05:19Z</time></trkpt><trkpt lat="42.70894855090085" lon="12.233236386189207"><ele>144.75</ele><time>2026-04-04T13:05:20Z</time></trkpt><trkpt lat="42.70898355002781" lon="12.233388895064053"><ele>141.5</ele><time>2026-04-04T13:05:21Z</time></trkpt><trkpt lat="42.70902879215141" lon="12.233539558113282"><ele>138.25</ele><time>2026-04-04T13:05:22Z</time></trkpt><trkpt lat="42.709071576701064" lon="12.233691365860096"><ele>135.0</ele><time>2026-04-04T13:05:23Z</time></trkpt><trkpt lat="42.70911658525589" lon="12.23384061444851"><ele>135.75</ele><time>2026-04-04T13:05:24Z</time></trkpt><trkpt lat="42.70916099262835" lon="12.233996907687077"><ele>136.5</ele><time>2026-04-04T13:05:25Z</time></trkpt><trkpt lat="42.70920558828908" lon="12.234156411259885"><ele>137.25</ele><time>2026-04-04T13:05:26Z</time></trkpt><trkpt lat="42.70924775669415" lon="12.234309155599393"><ele>138.0</ele><time>2026-04-04T13:05:27Z</time></trkpt><trkpt lat="42.70929077535165" lon="12.234453418901504"><ele>138.0</ele><time>2026-04-04T13:05:28Z</time></trkpt><trkpt lat="42.709333397433774" lon="12.234599935700285"><ele>138.0</ele><time>2026-04-04T13:05:29Z</time></trkpt><trkpt lat="42.70938211086778" lon="12.234748245748902"><ele>138.0</ele><time>2026-04-04T13:05:30Z</time></trkpt><trkpt lat="42.70944283459288" lon="12.23490516391771"><ele>138.0</ele><time>2026-04-04T13:05:31Z</time></trkpt><trkpt lat="42.70950977003684" lon="12.235063901533119"><ele>142.75</ele><time>2026-04-04T13:05:32Z</time></trkpt><trkpt lat="42.70958544122441" lon="12.23521917088501"><ele>147.5</ele><time>2026-04-04T13:05:33Z</time></trkpt><trkpt lat="42.70966861852549" lon="12.235368313487196"><ele>152.25</ele><time>2026-04-04T13:05:34Z</time></trkpt><trkpt lat="42.7097536279206" lon="12.235527603244675"><ele>157.0</ele><time>2026-04-04T13:05:35Z</time></trkpt><trkpt lat="42.70984173296814" lon="12.235694300744994"><ele>157.0</ele><time>2026-04-04T13:05:36Z</time></trkpt><trkpt lat="42.70993329592664" lon="12.235855162583933"><ele>157.0</ele><time>2026-04-04T13:05:37Z</time></trkpt><trkpt lat="42.71001431356687" lon="12.2360198200973"><ele>157.0</ele><time>2026-04-04T13:05:38Z</time></trkpt><trkpt lat="42.710091468391646" lon="12.236180597589327"><ele>157.0</ele><time>2026-04-04T13:05:39Z</time></trkpt><trkpt lat="42.71016363851417" lon="12.236331685823318"><ele>158.25</ele><time>2026-04-04T13:05:40Z</time></trkpt><trkpt lat="42.71023297176169" lon="12.236469964888553"><ele>159.5</ele><time>2026-04-04T13:05:41Z</time></trkpt><trkpt lat="42.71029874322414" lon="12.23661636073734"><ele>160.75</ele><time>2026-04-04T13:05:42Z</time></trkpt><trkpt lat="42.71036990740362" lon="12.236758016087823"><ele>162.0</ele><time>2026-04-04T13:05:43Z</time></trkpt><trkpt lat="42.7104386505975" lon="12.236899280984181"><ele>162.0</ele><time>2026-04-04T13:05:44Z</time></trkpt><trkpt lat="42.71050856653" lon="12.237042951944193"><ele>162.0</ele><time>2026-04-04T13:05:45Z</time></trkpt><trkpt lat="42.71057678106394" lon="12.237186213409663"><ele>162.0</ele><time>2026-04-04T13:05:46Z</time></trkpt><trkpt lat="42.710653684895846" lon="12.23733406712945"><ele>162.0</ele><time>2026-04-04T13:05:47Z</time></trkpt><trkpt lat="42.710735054277144" lon="12.237484027817278"><ele>158.75</ele><time>2026-04-04T13:05:48Z</time></trkpt><trkpt lat="42.710812702093904" lon="12.237633142532072"><ele>155.5</ele><time>2026-04-04T13:05:49Z</time></trkpt><trkpt lat="42.710896153399126" lon="12.23777186567168"><ele>152.25</ele><time>2026-04-04T13:05:50Z</time></trkpt><trkpt lat="42.71096888518742" lon="12.237905224972545"><ele>149.0</ele><time>2026-04-04T13:05:51Z</time></trkpt><trkpt lat="42.71103787682473" lon="12.238040991380485"><ele>151.75</ele><time>2026-04-04T13:05:52Z</time></trkpt><trkpt lat="42.711100782537095" lon="12.238187522588756"><ele>154.5</ele><time>2026-04-04T13:05:53Z</time></trkpt><trkpt lat="42.71115590671837" lon="12.23834451646938"><ele>157.25</ele><time>2026-04-04T13:05:54Z</time></trkpt><trkpt lat="42.711201191657416" lon="12.238504372076282"><ele>160.0</ele><time>2026-04-04T13:05:55Z</time></trkpt><trkpt lat="42.711239176802735" lon="12.238640675256281"><ele>160.0</ele><time>2026-04-04T13:05:56Z</time></trkpt><trkpt lat="42.71128382983566" lon="12.238768718201797"><ele>160.0</ele><time>2026-04-04T13:05:57Z</time></trkpt><trkpt lat="42.71134530872204" lon="12.238883738755298"><ele>160.0</ele><time>2026-04-04T13:05:58Z</time></trkpt><trkpt lat="42.71141757754859" lon="12.238992671034474"><ele>160.0</ele><time>2026-04-04T13:05:59Z</time></trkpt><trkpt lat="42.71149853193084" lon="12.239094520020947"><ele>160.0</ele><time>2026-04-04T13:06:00Z</time></trkpt><trkpt lat="42.71158247182512" lon="12.239200775024981"><ele>159.0</ele><time>2026-04-04T13:06:01Z</time></trkpt><trkpt lat="42.711664691257056" lon="12.239310845185159"><ele>158.0</ele><time>2026-04-04T13:06:02Z</time></trkpt><trkpt lat="42.71174765160589" lon="12.23942265867199"><ele>157.0</ele><time>2026-04-04T13:06:03Z</time></trkpt><trkpt lat="42.71183158078061" lon="12.239536599541562"><ele>156.0</ele><time>2026-04-04T13:06:04Z</time></trkpt><trkpt lat="42.71191791896949" lon="12.239656586129934"><ele>156.0</ele><time>2026-04-04T13:06:05Z</time></trkpt><trkpt lat="42.712003467990996" lon="12.239781986268765"><ele>156.0</ele><time>2026-04-04T13:06:06Z</time></trkpt><trkpt lat="42.712085234028415" lon="12.23990478784125"><ele>156.0</ele><time>2026-04-04T13:06:07Z</time></trkpt><trkpt lat="42.71216996002294" lon="12.240030328723606"><ele>156.0</ele><time>2026-04-04T13:06:08Z</time></trkpt><trkpt lat="42.712257576123925" lon="12.240163403850485"><ele>154.25</ele><time>2026-04-04T13:06:09Z</time></trkpt><trkpt lat="42.712334865023855" lon="12.240299312121355"><ele>152.5</ele><time>2026-04-04T13:06:10Z</time></trkpt><trkpt lat="42.71241701638219" lon="12.240421865321041"><ele>150.75</ele><time>2026-04-04T13:06:11Z</time></trkpt><trkpt lat="42.71249250396716" lon="12.240539766657044"><ele>149.0</ele><time>2026-04-04T13:06:12Z</time></trkpt><trkpt lat="42.71255815765938" lon="12.240645344232641"><ele>148.33333333333331</ele><time>2026-04-04T13:06:13Z</time></trkpt><trkpt lat="42.71262028469499" lon="12.240739388240593"><ele>147.66666666666666</ele><time>2026-04-04T13:06:14Z</time></trkpt><trkpt lat="42.71267619455737" lon="12.24082169293344"><ele>147.0</ele><time>2026-04-04T13:06:15Z</time></trkpt><trkpt lat="42.712724817152235" lon="12.2408934109742"><ele>146.33333333333334</ele><time>2026-04-04T13:06:16Z</time></trkpt><trkpt lat="42.71276689756035" lon="12.240957754542922"><ele>145.66666666666669</ele><time>2026-04-04T13:06:17Z</time></trkpt><trkpt lat="42.71281388097933" lon="12.241032033105087"><ele>145.0</ele><time>2026-04-04T13:06:18Z</time></trkpt><trkpt lat="42.712862527976164" lon="12.241100856664296"><ele>145.42857142857144</ele><time>2026-04-04T13:06:19Z</time></trkpt><trkpt lat="42.712904061759666" lon="12.241177301631998"><ele>145.85714285714286</ele><time>2026-04-04T13:06:20Z</time></trkpt><trkpt lat="42.712952444611894" lon="12.241241085613703"><ele>146.28571428571428</ele><time>2026-04-04T13:06:21Z</time></trkpt><trkpt lat="42.71299295295907" lon="12.241318747477251"><ele>146.71428571428572</ele><time>2026-04-04T13:06:22Z</time></trkpt><trkpt lat="42.71304340294049" lon="12.241392004799232"><ele>147.14285714285714</ele><time>2026-04-04T13:06:23Z</time></trkpt><trkpt lat="42.71308914739488" lon="12.241469626911403"><ele>147.57142857142858</ele><time>2026-04-04T13:06:24Z</time></trkpt><trkpt lat="42.713139120154054" lon="12.241552634060332"><ele>148.0</ele><time>2026-04-04T13:06:25Z</time></trkpt><trkpt lat="42.713197275811176" lon="12.241637357029065"><ele>148.0</ele><time>2026-04-04T13:06:26Z</time></trkpt><trkpt lat="42.71325027299662" lon="12.241723927340596"><ele>148.0</ele><time>2026-04-04T13:06:27Z</time></trkpt><trkpt lat="42.71330713573074" lon="12.241816966673369"><ele>148.0</ele><time>2026-04-04T13:06:28Z</time></trkpt><trkpt lat="42.71336690222423" lon="12.241904440031348"><ele>148.0</ele><time>2026-04-04T13:06:29Z</time></trkpt><trkpt lat="42.71342712903011" lon="12.241990606042258"><ele>148.0</ele><time>2026-04-04T13:06:30Z</time></trkpt><trkpt lat="42.71347272651453" lon="12.242089048758267"><ele>148.0</ele><time>2026-04-04T13:06:31Z</time></trkpt><trkpt lat="42.71353778186298" lon="12.242164228783045"><ele>147.5</ele><time>2026-04-04T13:06:32Z</time></trkpt><trkpt lat="42.71358573574461" lon="12.242253875959193"><ele>147.0</ele><time>2026-04-04T13:06:33Z</time></trkpt><trkpt lat="42.71363101413012" lon="12.24233554889981"><ele>146.5</ele><time>2026-04-04T13:06:34Z</time></trkpt><trkpt lat="42.713689144725606" lon="12.242423420255136"><ele>146.0</ele><time>2026-04-04T13:06:35Z</time></trkpt><trkpt lat="42.71375071095337" lon="12.242512046005372"><ele>145.5</ele><time>2026-04-04T13:06:36Z</time></trkpt><trkpt lat="42.71380692636672" lon="12.242603932100032"><ele>145.0</ele><time>2026-04-04T13:06:37Z</time></trkpt><trkpt lat="42.71386860337434" lon="12.242677704151353"><ele>145.0</ele><time>2026-04-04T13:06:38Z</time></trkpt><trkpt lat="42.7139408438083" lon="12.242722838292089"><ele>145.0</ele><time>2026-04-04T13:06:39Z</time></trkpt><trkpt lat="42.71402184050268" lon="12.242732660727095"><ele>145.0</ele><time>2026-04-04T13:06:40Z</time></trkpt><trkpt lat="42.71410744957227" lon="12.242707205170957"><ele>145.0</ele><time>2026-04-04T13:06:41Z</time></trkpt><trkpt lat="42.714192168920974" lon="12.242643619621514"><ele>145.0</ele><time>2026-04-04T13:06:42Z</time></trkpt><trkpt lat="42.714267472328395" lon="12.242554577983027"><ele>145.0</ele><time>2026-04-04T13:06:43Z</time></trkpt><trkpt lat="42.71435870212367" lon="12.242468477861525"><ele>145.2</ele><time>2026-04-04T13:06:44Z</time></trkpt><trkpt lat="42.71444458635202" lon="12.242369478984081"><ele>145.4</ele><time>2026-04-04T13:06:45Z</time></trkpt><trkpt lat="42.714526889553206" lon="12.242268095451363"><ele>145.6</ele><time>2026-04-04T13:06:46Z</time></trkpt><trkpt lat="42.71459608052232" lon="12.242150692225383"><ele>145.8</ele><time>2026-04-04T13:06:47Z</time></trkpt><trkpt lat="42.71467304493621" lon="12.242053250588457"><ele>146.0</ele><time>2026-04-04T13:06:48Z</time></trkpt><trkpt lat="42.7147537993735" lon="12.241970562042283"><ele>147.16666666666666</ele><time>2026-04-04T13:06:49Z</time></trkpt><trkpt lat="42.714839566055595" lon="12.241930268956443"><ele>148.33333333333331</ele><time>2026-04-04T13:06:50Z</time></trkpt><trkpt lat="42.71491726356488" lon="12.241897813913873"><ele>149.5</ele><time>2026-04-04T13:06:51Z</time></trkpt><trkpt lat="42.714994046437276" lon="12.24188831943975"><ele>150.66666666666666</ele><time>2026-04-04T13:06:52Z</time></trkpt><trkpt lat="42.71506106945568" lon="12.241936827799728"><ele>151.83333333333334</ele><time>2026-04-04T13:06:53Z</time></trkpt><trkpt lat="42.71511647544727" lon="12.241985778075723"><ele>153.0</ele><time>2026-04-04T13:06:54Z</time></trkpt><trkpt lat="42.7151518428857" lon="12.242078689172288"><ele>153.0</ele><time>2026-04-04T13:06:55Z</time></trkpt><trkpt lat="42.715178873781014" lon="12.2421832587751"><ele>153.0</ele><time>2026-04-04T13:06:56Z</time></trkpt><trkpt lat="42.715182966232156" lon="12.242292923348181"><ele>153.0</ele><time>2026-04-04T13:06:57Z</time></trkpt><trkpt lat="42.71517811062263" lon="12.242413901789101"><ele>153.0</ele><time>2026-04-04T13:06:58Z</time></trkpt><trkpt lat="42.71517188494767" lon="12.242554639767826"><ele>153.0</ele><time>2026-04-04T13:06:59Z</time></trkpt><trkpt lat="42.71515368983745" lon="12.242699514648216"><ele>151.6</ele><time>2026-04-04T13:07:00Z</time></trkpt><trkpt lat="42.71514346400808" lon="12.242835636385577"><ele>150.20000000000002</ele><time>2026-04-04T13:07:01Z</time></trkpt><trkpt lat="42.71516581111384" lon="12.242960524537391"><ele>148.8</ele><time>2026-04-04T13:07:02Z</time></trkpt><trkpt lat="42.715219204903214" lon="12.24307079977235"><ele>147.4</ele><time>2026-04-04T13:07:03Z</time></trkpt><trkpt lat="42.71529763167485" lon="12.243161927216663"><ele>146.0</ele><time>2026-04-04T13:07:04Z</time></trkpt><trkpt lat="42.71539414010945" lon="12.243227684017716"><ele>145.6</ele><time>2026-04-04T13:07:05Z</time></trkpt><trkpt lat="42.71549652869269" lon="12.243272791096052"><ele>145.2</ele><time>2026-04-04T13:07:06Z</time></trkpt><trkpt lat="42.71560692403462" lon="12.243292597962904"><ele>144.8</ele><time>2026-04-04T13:07:07Z</time></trkpt><trkpt lat="42.71572281130819" lon="12.243295247226975"><ele>144.4</ele><time>2026-04-04T13:07:08Z</time></trkpt><trkpt lat="42.71583742049588" lon="12.243292679433392"><ele>144.0</ele><time>2026-04-04T13:07:09Z</time></trkpt><trkpt lat="42.71594387023737" lon="12.243275537505026"><ele>144.0</ele><time>2026-04-04T13:07:10Z</time></trkpt><trkpt lat="42.71603501732738" lon="12.243251375903455"><ele>144.0</ele><time>2026-04-04T13:07:11Z</time></trkpt><trkpt lat="42.71611819609305" lon="12.243229344639722"><ele>144.0</ele><time>2026-04-04T13:07:12Z</time></trkpt><trkpt lat="42.71622302554364" lon="12.243189621206643"><ele>144.0</ele><time>2026-04-04T13:07:13Z</time></trkpt><trkpt lat="42.71632304512753" lon="12.243161123056035"><ele>144.0</ele><time>2026-04-04T13:07:14Z</time></trkpt><trkpt lat="42.716426878204736" lon="12.243163704502509"><ele>143.8</ele><time>2026-04-04T13:07:15Z</time></trkpt><trkpt lat="42.71652174064704" lon="12.243193462417125"><ele>143.60000000000002</ele><time>2026-04-04T13:07:16Z</time></trkpt><trkpt lat="42.716626461437606" lon="12.243230887020813"><ele>143.4</ele><time>2026-04-04T13:07:17Z</time></trkpt><trkpt lat="42.71673805516908" lon="12.243216819132968"><ele>143.20000000000002</ele><time>2026-04-04T13:07:18Z</time></trkpt><trkpt lat="42.716832406086006" lon="12.243188261155526"><ele>143.0</ele><time>2026-04-04T13:07:19Z</time></trkpt><trkpt lat="42.71693351241612" lon="12.243153831726152"><ele>142.83333333333331</ele><time>2026-04-04T13:07:20Z</time></trkpt><trkpt lat="42.717039354523486" lon="12.243123472121875"><ele>142.66666666666666</ele><time>2026-04-04T13:07:21Z</time></trkpt><trkpt lat="42.717112881816846" lon="12.243122941237452"><ele>142.5</ele><time>2026-04-04T13:07:22Z</time></trkpt><trkpt lat="42.71717851898711" lon="12.243157086877948"><ele>142.33333333333334</ele><time>2026-04-04T13:07:23Z</time></trkpt><trkpt lat="42.71721664071277" lon="12.243245142378862"><ele>142.16666666666669</ele><time>2026-04-04T13:07:24Z</time></trkpt><trkpt lat="42.71725668930598" lon="12.24333872053928"><ele>142.0</ele><time>2026-04-04T13:07:25Z</time></trkpt><trkpt lat="42.71731117842596" lon="12.243453896364272"><ele>142.0</ele><time>2026-04-04T13:07:26Z</time></trkpt><trkpt lat="42.71736797679976" lon="12.243577624436679"><ele>142.0</ele><time>2026-04-04T13:07:27Z</time></trkpt><trkpt lat="42.717425439269405" lon="12.243706795100415"><ele>142.0</ele><time>2026-04-04T13:07:28Z</time></trkpt><trkpt lat="42.71748768615362" lon="12.243842467049225"><ele>142.0</ele><time>2026-04-04T13:07:29Z</time></trkpt><trkpt lat="42.717564046846164" lon="12.24396546497261"><ele>142.6</ele><time>2026-04-04T13:07:30Z</time></trkpt><trkpt lat="42.71761285056304" lon="12.24408907700166"><ele>143.2</ele><time>2026-04-04T13:07:31Z</time></trkpt><trkpt lat="42.71770345732131" lon="12.244175401392098"><ele>143.8</ele><time>2026-04-04T13:07:32Z</time></trkpt><trkpt lat="42.71779926320284" lon="12.244217204319343"><ele>144.4</ele><time>2026-04-04T13:07:33Z</time></trkpt><trkpt lat="42.71791197752387" lon="12.244239902827614"><ele>145.0</ele><time>2026-04-04T13:07:34Z</time></trkpt><trkpt lat="42.71803470214899" lon="12.244291562280187"><ele>147.8</ele><time>2026-04-04T13:07:35Z</time></trkpt><trkpt lat="42.7181421974983" lon="12.244350164356165"><ele>150.6</ele><time>2026-04-04T13:07:36Z</time></trkpt><trkpt lat="42.718229062200685" lon="12.24442316581155"><ele>153.4</ele><time>2026-04-04T13:07:37Z</time></trkpt><trkpt lat="42.71830696429851" lon="12.244520058664262"><ele>156.2</ele><time>2026-04-04T13:07:38Z</time></trkpt><trkpt lat="42.71837502054421" lon="12.244607187211201"><ele>159.0</ele><time>2026-04-04T13:07:39Z</time></trkpt><trkpt lat="42.71843890197515" lon="12.244699480073546"><ele>159.0</ele><time>2026-04-04T13:07:40Z</time></trkpt><trkpt lat="42.718510961356195" lon="12.24478088534981"><ele>159.0</ele><time>2026-04-04T13:07:41Z</time></trkpt><trkpt lat="42.71860353129993" lon="12.2448342418894"><ele>159.0</ele><time>2026-04-04T13:07:42Z</time></trkpt><trkpt lat="42.718703527202535" lon="12.244883436904667"><ele>159.0</ele><time>2026-04-04T13:07:43Z</time></trkpt><trkpt lat="42.71878254415857" lon="12.244941767245281"><ele>159.0</ele><time>2026-04-04T13:07:44Z</time></trkpt><trkpt lat="42.71883639238486" lon="12.245015525709636"><ele>160.5</ele><time>2026-04-04T13:07:46Z</time></trkpt><trkpt lat="42.718911632292894" lon="12.245132880778543"><ele>162.0</ele><time>2026-04-04T13:07:48Z</time></trkpt><trkpt lat="42.718945049720176" lon="12.24520709368308"><ele>163.5</ele><time>2026-04-04T13:07:49Z</time></trkpt><trkpt lat="42.71900241628348" lon="12.24528503822852"><ele>165.0</ele><time>2026-04-04T13:07:50Z</time></trkpt><trkpt lat="42.71906676399682" lon="12.245341408752825"><ele>166.5</ele><time>2026-04-04T13:07:51Z</time></trkpt><trkpt lat="42.71913970008703" lon="12.245353809627945"><ele>168.0</ele><time>2026-04-04T13:07:52Z</time></trkpt><trkpt lat="42.719216174730505" lon="12.245416097970038"><ele>168.0</ele><time>2026-04-04T13:07:53Z</time></trkpt><trkpt lat="42.7193023288337" lon="12.245445188449754"><ele>168.0</ele><time>2026-04-04T13:07:54Z</time></trkpt><trkpt lat="42.71938463497778" lon="12.245462458938945"><ele>168.0</ele><time>2026-04-04T13:07:55Z</time></trkpt><trkpt lat="42.719461163500426" lon="12.245497974716445"><ele>168.0</ele><time>2026-04-04T13:07:56Z</time></trkpt><trkpt lat="42.719528017065414" lon="12.245559893831249"><ele>168.0</ele><time>2026-04-04T13:07:57Z</time></trkpt><trkpt lat="42.71960702598921" lon="12.245606518593043"><ele>168.0</ele><time>2026-04-04T13:07:58Z</time></trkpt><trkpt lat="42.719695078704746" lon="12.245653927037296"><ele>165.33333333333334</ele><time>2026-04-04T13:07:59Z</time></trkpt><trkpt lat="42.719774333432404" lon="12.245703502824018"><ele>162.66666666666666</ele><time>2026-04-04T13:08:00Z</time></trkpt><trkpt lat="42.719844155740844" lon="12.245764082103449"><ele>160.0</ele><time>2026-04-04T13:08:01Z</time></trkpt><trkpt lat="42.71992641421658" lon="12.245806753547367"><ele>157.33333333333331</ele><time>2026-04-04T13:08:02Z</time></trkpt><trkpt lat="42.720009425307126" lon="12.245830419396553"><ele>154.66666666666666</ele><time>2026-04-04T13:08:03Z</time></trkpt><trkpt lat="42.720090577936695" lon="12.245786787967498"><ele>152.0</ele><time>2026-04-04T13:08:04Z</time></trkpt><trkpt lat="42.7201735073722" lon="12.245801826704259"><ele>153.0</ele><time>2026-04-04T13:08:05Z</time></trkpt><trkpt lat="42.72025241042569" lon="12.245809628164787"><ele>154.0</ele><time>2026-04-04T13:08:06Z</time></trkpt><trkpt lat="42.72031278396314" lon="12.245843355683531"><ele>155.0</ele><time>2026-04-04T13:08:07Z</time></trkpt><trkpt lat="42.72037531651051" lon="12.245895435244147"><ele>156.0</ele><time>2026-04-04T13:08:08Z</time></trkpt><trkpt lat="42.72043331693695" lon="12.245973355178668"><ele>157.0</ele><time>2026-04-04T13:08:09Z</time></trkpt><trkpt lat="42.72049096188153" lon="12.246049579060944"><ele>158.0</ele><time>2026-04-04T13:08:10Z</time></trkpt><trkpt lat="42.720553340610145" lon="12.246139325657484"><ele>158.0</ele><time>2026-04-04T13:08:11Z</time></trkpt><trkpt lat="42.720613236537844" lon="12.2462212308452"><ele>158.0</ele><time>2026-04-04T13:08:12Z</time></trkpt><trkpt lat="42.720679829520506" lon="12.24627784632239"><ele>158.0</ele><time>2026-04-04T13:08:13Z</time></trkpt><trkpt lat="42.720764548246564" lon="12.24630282776201"><ele>158.0</ele><time>2026-04-04T13:08:14Z</time></trkpt><trkpt lat="42.72086035680747" lon="12.246320425952629"><ele>158.0</ele><time>2026-04-04T13:08:15Z</time></trkpt><trkpt lat="42.72095499170132" lon="12.246339794470012"><ele>158.0</ele><time>2026-04-04T13:08:16Z</time></trkpt><trkpt lat="42.72105874093452" lon="12.24636269519772"><ele>160.0</ele><time>2026-04-04T13:08:17Z</time></trkpt><trkpt lat="42.72115399017655" lon="12.246390711702988"><ele>162.0</ele><time>2026-04-04T13:08:18Z</time></trkpt><trkpt lat="42.72125752216296" lon="12.246426056697084"><ele>164.0</ele><time>2026-04-04T13:08:19Z</time></trkpt><trkpt lat="42.72135084690563" lon="12.24646773557885"><ele>166.0</ele><time>2026-04-04T13:08:20Z</time></trkpt><trkpt lat="42.721452888289974" lon="12.246519388998053"><ele>168.0</ele><time>2026-04-04T13:08:21Z</time></trkpt><trkpt lat="42.721556155364894" lon="12.246542089326832"><ele>164.4</ele><time>2026-04-04T13:08:22Z</time></trkpt><trkpt lat="42.721656629962375" lon="12.246572866660852"><ele>160.8</ele><time>2026-04-04T13:08:23Z</time></trkpt><trkpt lat="42.721761646036164" lon="12.246568220533641"><ele>157.2</ele><time>2026-04-04T13:08:24Z</time></trkpt><trkpt lat="42.721852796376915" lon="12.246556685812875"><ele>153.6</ele><time>2026-04-04T13:08:25Z</time></trkpt><trkpt lat="42.72194093960741" lon="12.246558515758647"><ele>150.0</ele><time>2026-04-04T13:08:26Z</time></trkpt><trkpt lat="42.722020709707145" lon="12.24662924279522"><ele>150.0</ele><time>2026-04-04T13:08:27Z</time></trkpt><trkpt lat="42.72211173072607" lon="12.246646041778014"><ele>150.0</ele><time>2026-04-04T13:08:28Z</time></trkpt><trkpt lat="42.722208902293765" lon="12.2466357212602"><ele>150.0</ele><time>2026-04-04T13:08:29Z</time></trkpt><trkpt lat="42.722290235654945" lon="12.246685068858374"><ele>150.0</ele><time>2026-04-04T13:08:30Z</time></trkpt><trkpt lat="42.72236564553947" lon="12.246725458878071"><ele>150.0</ele><time>2026-04-04T13:08:31Z</time></trkpt><trkpt lat="42.72242559097608" lon="12.24678089815146"><ele>150.0</ele><time>2026-04-04T13:08:32Z</time></trkpt><trkpt lat="42.72248665029648" lon="12.24684183508869"><ele>150.0</ele><time>2026-04-04T13:08:33Z</time></trkpt><trkpt lat="42.72255036732946" lon="12.246909015421643"><ele>150.0</ele><time>2026-04-04T13:08:34Z</time></trkpt><trkpt lat="42.722648459767576" lon="12.246925480512084"><ele>150.0</ele><time>2026-04-04T13:08:35Z</time></trkpt><trkpt lat="42.72274995363203" lon="12.246894822502087"><ele>150.0</ele><time>2026-04-04T13:08:36Z</time></trkpt><trkpt lat="42.72284149641104" lon="12.246869726555662"><ele>150.0</ele><time>2026-04-04T13:08:37Z</time></trkpt><trkpt lat="42.722924965259196" lon="12.246864049275445"><ele>149.8</ele><time>2026-04-04T13:08:38Z</time></trkpt><trkpt lat="42.722999251453075" lon="12.246894820185833"><ele>149.6</ele><time>2026-04-04T13:08:39Z</time></trkpt><trkpt lat="42.723065512639835" lon="12.24696440898675"><ele>149.4</ele><time>2026-04-04T13:08:40Z</time></trkpt><trkpt lat="42.72315243553242" lon="12.24702848175296"><ele>149.2</ele><time>2026-04-04T13:08:41Z</time></trkpt><trkpt lat="42.723251533453656" lon="12.247073148065612"><ele>149.0</ele><time>2026-04-04T13:08:42Z</time></trkpt><trkpt lat="42.72335973204946" lon="12.24709173619399"><ele>149.0</ele><time>2026-04-04T13:08:43.001Z</time></trkpt><trkpt lat="42.72346650341203" lon="12.247091670083922"><ele>149.0</ele><time>2026-04-04T13:08:44.001Z</time></trkpt><trkpt lat="42.72356194531528" lon="12.247094336308185"><ele>149.0</ele><time>2026-04-04T13:08:45.001Z</time></trkpt><trkpt lat="42.72365419680508" lon="12.247059699026483"><ele>149.0</ele><time>2026-04-04T13:08:46.001Z</time></trkpt><trkpt lat="42.72375361582498" lon="12.247008754234733"><ele>149.0</ele><time>2026-04-04T13:08:47.001Z</time></trkpt><trkpt lat="42.723843923993236" lon="12.246911187531254"><ele>147.25</ele><time>2026-04-04T13:08:48.001Z</time></trkpt><trkpt lat="42.72393392121827" lon="12.246823571383649"><ele>145.5</ele><time>2026-04-04T13:08:49.001Z</time></trkpt><trkpt lat="42.72403031544529" lon="12.246755917286608"><ele>143.75</ele><time>2026-04-04T13:08:50.001Z</time></trkpt><trkpt lat="42.724149005389826" lon="12.246694558096861"><ele>142.0</ele><time>2026-04-04T13:08:51.001Z</time></trkpt><trkpt lat="42.72427394635036" lon="12.24663709843651"><ele>142.0</ele><time>2026-04-04T13:08:52.001Z</time></trkpt><trkpt lat="42.724373709131285" lon="12.246575476401176"><ele>142.0</ele><time>2026-04-04T13:08:53.001Z</time></trkpt><trkpt lat="42.72446693606077" lon="12.246492221651854"><ele>142.0</ele><time>2026-04-04T13:08:54.001Z</time></trkpt><trkpt lat="42.724567066789355" lon="12.246418142988249"><ele>142.0</ele><time>2026-04-04T13:08:55.001Z</time></trkpt><trkpt lat="42.72467915227787" lon="12.246396287079671"><ele>142.0</ele><time>2026-04-04T13:08:56.001Z</time></trkpt><trkpt lat="42.72480634886584" lon="12.246370674278113"><ele>143.75</ele><time>2026-04-04T13:08:57.001Z</time></trkpt><trkpt lat="42.72493971039761" lon="12.246329905527338"><ele>145.5</ele><time>2026-04-04T13:08:58.001Z</time></trkpt><trkpt lat="42.72508387299511" lon="12.246295156571"><ele>147.25</ele><time>2026-04-04T13:08:59.001Z</time></trkpt><trkpt lat="42.72523230507127" lon="12.246276757785878"><ele>149.0</ele><time>2026-04-04T13:09:00.001Z</time></trkpt><trkpt lat="42.72536916061784" lon="12.246233456758375"><ele>149.5</ele><time>2026-04-04T13:09:01.001Z</time></trkpt><trkpt lat="42.7254948759724" lon="12.246202708463471"><ele>150.0</ele><time>2026-04-04T13:09:02.001Z</time></trkpt><trkpt lat="42.725618727554156" lon="12.246170994206297"><ele>150.5</ele><time>2026-04-04T13:09:03Z</time></trkpt><trkpt lat="42.72574667753159" lon="12.246141454495874"><ele>151.0</ele><time>2026-04-04T13:09:04Z</time></trkpt><trkpt lat="42.725867570614795" lon="12.246119583246143"><ele>151.0</ele><time>2026-04-04T13:09:05Z</time></trkpt><trkpt lat="42.72598574594697" lon="12.246098094475393"><ele>151.0</ele><time>2026-04-04T13:09:06Z</time></trkpt><trkpt lat="42.7261076618136" lon="12.246066598463317"><ele>151.0</ele><time>2026-04-04T13:09:07Z</time></trkpt><trkpt lat="42.72620575254672" lon="12.24602134859457"><ele>151.0</ele><time>2026-04-04T13:09:08Z</time></trkpt><trkpt lat="42.726300254173914" lon="12.245945184656634"><ele>149.5</ele><time>2026-04-04T13:09:09Z</time></trkpt><trkpt lat="42.72639671784585" lon="12.245879488017858"><ele>148.0</ele><time>2026-04-04T13:09:10Z</time></trkpt><trkpt lat="42.7265188887457" lon="12.24585316603436"><ele>146.5</ele><time>2026-04-04T13:09:11Z</time></trkpt><trkpt lat="42.72662763071916" lon="12.24584405868692"><ele>145.0</ele><time>2026-04-04T13:09:12Z</time></trkpt><trkpt lat="42.726743453695356" lon="12.245831887789116"><ele>145.0</ele><time>2026-04-04T13:09:13Z</time></trkpt><trkpt lat="42.72685741124859" lon="12.245777524237203"><ele>145.0</ele><time>2026-04-04T13:09:14Z</time></trkpt><trkpt lat="42.726961226143665" lon="12.245729955888423"><ele>145.0</ele><time>2026-04-04T13:09:15Z</time></trkpt><trkpt lat="42.72705660677227" lon="12.245652089567404"><ele>145.0</ele><time>2026-04-04T13:09:16Z</time></trkpt><trkpt lat="42.72713720728657" lon="12.245657100361834"><ele>145.0</ele><time>2026-04-04T13:09:17Z</time></trkpt><trkpt lat="42.72720783043386" lon="12.245681508764171"><ele>144.0</ele><time>2026-04-04T13:09:18Z</time></trkpt><trkpt lat="42.72732162989007" lon="12.245777906791702"><ele>143.0</ele><time>2026-04-04T13:09:20Z</time></trkpt><trkpt lat="42.72734127227065" lon="12.245888474884937"><ele>142.0</ele><time>2026-04-04T13:09:21Z</time></trkpt><trkpt lat="42.72738699840169" lon="12.245990969885927"><ele>141.0</ele><time>2026-04-04T13:09:22Z</time></trkpt><trkpt lat="42.72743086425185" lon="12.246085957505944"><ele>140.0</ele><time>2026-04-04T13:09:23Z</time></trkpt><trkpt lat="42.72747521882643" lon="12.246187329542577"><ele>140.0</ele><time>2026-04-04T13:09:24Z</time></trkpt><trkpt lat="42.72751464364728" lon="12.246269200402496"><ele>140.0</ele><time>2026-04-04T13:09:25Z</time></trkpt><trkpt lat="42.72755123018597" lon="12.246347358872182"><ele>140.0</ele><time>2026-04-04T13:09:26Z</time></trkpt><trkpt lat="42.72758739618664" lon="12.246417928893884"><ele>140.0</ele><time>2026-04-04T13:09:27Z</time></trkpt><trkpt lat="42.727636818280104" lon="12.24647812690641"><ele>140.0</ele><time>2026-04-04T13:09:28Z</time></trkpt><trkpt lat="42.727691968231596" lon="12.246522113850146"><ele>140.0</ele><time>2026-04-04T13:09:29Z</time></trkpt><trkpt lat="42.72781059605287" lon="12.246543195859283"><ele>140.66666666666666</ele><time>2026-04-04T13:09:31Z</time></trkpt><trkpt lat="42.72786911678119" lon="12.246505642313103"><ele>141.33333333333331</ele><time>2026-04-04T13:09:32Z</time></trkpt><trkpt lat="42.72793242360075" lon="12.246454214651507"><ele>142.0</ele><time>2026-04-04T13:09:33Z</time></trkpt><trkpt lat="42.72799614136586" lon="12.246386224714652"><ele>142.66666666666666</ele><time>2026-04-04T13:09:34Z</time></trkpt><trkpt lat="42.72805452365999" lon="12.246313071892564"><ele>143.33333333333334</ele><time>2026-04-04T13:09:35Z</time></trkpt><trkpt lat="42.728114888787395" lon="12.246234940500747"><ele>144.0</ele><time>2026-04-04T13:09:36Z</time></trkpt><trkpt lat="42.728169861153326" lon="12.246152359345036"><ele>145.33333333333334</ele><time>2026-04-04T13:09:37Z</time></trkpt><trkpt lat="42.728254487548476" lon="12.24609491878192"><ele>146.66666666666666</ele><time>2026-04-04T13:09:38Z</time></trkpt><trkpt lat="42.72832070373312" lon="12.24603750397367"><ele>148.0</ele><time>2026-04-04T13:09:39Z</time></trkpt><trkpt lat="42.72838703435523" lon="12.24596954255391"><ele>149.33333333333331</ele><time>2026-04-04T13:09:40Z</time></trkpt><trkpt lat="42.72847333179222" lon="12.245931362380713"><ele>150.66666666666666</ele><time>2026-04-04T13:09:41Z</time></trkpt><trkpt lat="42.728538937472194" lon="12.24590009605304"><ele>152.0</ele><time>2026-04-04T13:09:42Z</time></trkpt><trkpt lat="42.72860127800329" lon="12.245859781873333"><ele>153.16666666666666</ele><time>2026-04-04T13:09:43Z</time></trkpt><trkpt lat="42.7286621632735" lon="12.245771932586566"><ele>154.33333333333331</ele><time>2026-04-04T13:09:45Z</time></trkpt><trkpt lat="42.72864685664762" lon="12.245646965177206"><ele>155.5</ele><time>2026-04-04T13:09:46Z</time></trkpt><trkpt lat="42.72861994176498" lon="12.245558964437686"><ele>156.66666666666666</ele><time>2026-04-04T13:09:47Z</time></trkpt><trkpt lat="42.72859484535678" lon="12.245474234000769"><ele>157.83333333333334</ele><time>2026-04-04T13:09:48Z</time></trkpt><trkpt lat="42.7285572492974" lon="12.24536395873535"><ele>159.0</ele><time>2026-04-04T13:09:49Z</time></trkpt><trkpt lat="42.72850933651504" lon="12.245296632900395"><ele>159.0</ele><time>2026-04-04T13:09:50Z</time></trkpt><trkpt lat="42.72844555638312" lon="12.24519480496133"><ele>159.0</ele><time>2026-04-04T13:09:52Z</time></trkpt><trkpt lat="42.72840289141028" lon="12.245101627462349"><ele>159.0</ele><time>2026-04-04T13:09:54Z</time></trkpt><trkpt lat="42.7284160461483" lon="12.24500055003606"><ele>159.0</ele><time>2026-04-04T13:09:56Z</time></trkpt><trkpt lat="42.72845220452191" lon="12.244874620405652"><ele>159.0</ele><time>2026-04-04T13:09:58Z</time></trkpt><trkpt lat="42.72851242091778" lon="12.244837316775639"><ele>159.0</ele><time>2026-04-04T13:09:59Z</time></trkpt><trkpt lat="42.72863022992398" lon="12.244817349318472"><ele>161.5</ele><time>2026-04-04T13:10:01Z</time></trkpt><trkpt lat="42.728694541447474" lon="12.244845971962595"><ele>164.0</ele><time>2026-04-04T13:10:02Z</time></trkpt><trkpt lat="42.728762858573" lon="12.244854867998225"><ele>166.5</ele><time>2026-04-04T13:10:03Z</time></trkpt><trkpt lat="42.728870500571" lon="12.24479000664417"><ele>169.0</ele><time>2026-04-04T13:10:05Z</time></trkpt><trkpt lat="42.72889961975677" lon="12.244704300933472"><ele>171.5</ele><time>2026-04-04T13:10:06Z</time></trkpt><trkpt lat="42.728925880709255" lon="12.244620894358007"><ele>174.0</ele><time>2026-04-04T13:10:07Z</time></trkpt><trkpt lat="42.72896888392099" lon="12.244536723855749"><ele>174.0</ele><time>2026-04-04T13:10:08Z</time></trkpt><trkpt lat="42.729008077965865" lon="12.244463889393574"><ele>174.0</ele><time>2026-04-04T13:10:09Z</time></trkpt><trkpt lat="42.729061803740905" lon="12.244398107739297"><ele>174.0</ele><time>2026-04-04T13:10:10Z</time></trkpt><trkpt lat="42.72911407093041" lon="12.244321137582912"><ele>174.0</ele><time>2026-04-04T13:10:11Z</time></trkpt><trkpt lat="42.729182275367634" lon="12.244259789799676"><ele>174.0</ele><time>2026-04-04T13:10:12Z</time></trkpt><trkpt lat="42.729252812226875" lon="12.24422538350033"><ele>174.0</ele><time>2026-04-04T13:10:13Z</time></trkpt><trkpt lat="42.72931028724234" lon="12.244118791515147"><ele>174.0</ele><time>2026-04-04T13:10:14Z</time></trkpt><trkpt lat="42.72938966282557" lon="12.244080964965342"><ele>174.0</ele><time>2026-04-04T13:10:15Z</time></trkpt><trkpt lat="42.72946674519001" lon="12.244028725506686"><ele>174.0</ele><time>2026-04-04T13:10:16Z</time></trkpt><trkpt lat="42.72955221985912" lon="12.243976717248424"><ele>174.0</ele><time>2026-04-04T13:10:17Z</time></trkpt><trkpt lat="42.72962793753953" lon="12.243930736998417"><ele>174.0</ele><time>2026-04-04T13:10:18Z</time></trkpt><trkpt lat="42.7296890025569" lon="12.243836063436934"><ele>174.0</ele><time>2026-04-04T13:10:19Z</time></trkpt><trkpt lat="42.72977332718589" lon="12.243788790279146"><ele>175.39999999999998</ele><time>2026-04-04T13:10:20Z</time></trkpt><trkpt lat="42.72984734452053" lon="12.24372565142578"><ele>176.8</ele><time>2026-04-04T13:10:21Z</time></trkpt><trkpt lat="42.729930254796756" lon="12.243688145644501"><ele>178.2</ele><time>2026-04-04T13:10:22Z</time></trkpt><trkpt lat="42.730018135971825" lon="12.243624094259335"><ele>179.60000000000002</ele><time>2026-04-04T13:10:23Z</time></trkpt><trkpt lat="42.730110304387566" lon="12.243567615766647"><ele>181.0</ele><time>2026-04-04T13:10:24Z</time></trkpt><trkpt lat="42.73021112962761" lon="12.24352518965641"><ele>186.20000000000002</ele><time>2026-04-04T13:10:25Z</time></trkpt><trkpt lat="42.7302922764648" lon="12.243459189873613"><ele>191.4</ele><time>2026-04-04T13:10:26Z</time></trkpt><trkpt lat="42.73037005845297" lon="12.24338382199631"><ele>196.6</ele><time>2026-04-04T13:10:27Z</time></trkpt><trkpt lat="42.73048039298156" lon="12.24335522290447"><ele>201.8</ele><time>2026-04-04T13:10:28Z</time></trkpt><trkpt lat="42.73057524971958" lon="12.24332284264354"><ele>207.0</ele><time>2026-04-04T13:10:29Z</time></trkpt><trkpt lat="42.73065429855388" lon="12.243267414215735"><ele>207.0</ele><time>2026-04-04T13:10:30Z</time></trkpt><trkpt lat="42.730726072617564" lon="12.243179158092262"><ele>207.0</ele><time>2026-04-04T13:10:31Z</time></trkpt><trkpt lat="42.7307969054658" lon="12.243085765589534"><ele>207.0</ele><time>2026-04-04T13:10:32Z</time></trkpt><trkpt lat="42.73086803413476" lon="12.24298562936439"><ele>207.0</ele><time>2026-04-04T13:10:33Z</time></trkpt><trkpt lat="42.730948283354394" lon="12.242895057721242"><ele>207.0</ele><time>2026-04-04T13:10:34Z</time></trkpt><trkpt lat="42.731039533196295" lon="12.242824041874918"><ele>209.0</ele><time>2026-04-04T13:10:35Z</time></trkpt><trkpt lat="42.73113024028637" lon="12.242739371224758"><ele>211.0</ele><time>2026-04-04T13:10:36Z</time></trkpt><trkpt lat="42.73119764755785" lon="12.2426406147678"><ele>213.0</ele><time>2026-04-04T13:10:37Z</time></trkpt><trkpt lat="42.73127999474921" lon="12.242549116509409"><ele>215.0</ele><time>2026-04-04T13:10:38.001Z</time></trkpt><trkpt lat="42.731364400781274" lon="12.242457770976346"><ele>217.0</ele><time>2026-04-04T13:10:39.001Z</time></trkpt><trkpt lat="42.731455348322896" lon="12.242383017860119"><ele>213.6</ele><time>2026-04-04T13:10:40.001Z</time></trkpt><trkpt lat="42.731528677721535" lon="12.24228872280888"><ele>210.2</ele><time>2026-04-04T13:10:41.001Z</time></trkpt><trkpt lat="42.731601315635466" lon="12.242207376219836"><ele>206.8</ele><time>2026-04-04T13:10:42.001Z</time></trkpt><trkpt lat="42.73168604011807" lon="12.242154748668733"><ele>203.4</ele><time>2026-04-04T13:10:43.001Z</time></trkpt><trkpt lat="42.731770772917166" lon="12.242110573351559"><ele>200.0</ele><time>2026-04-04T13:10:44.001Z</time></trkpt><trkpt lat="42.731843725427886" lon="12.242045127470574"><ele>203.83333333333334</ele><time>2026-04-04T13:10:45.001Z</time></trkpt><trkpt lat="42.73190758976087" lon="12.24197535756512"><ele>207.66666666666669</ele><time>2026-04-04T13:10:46.001Z</time></trkpt><trkpt lat="42.73196869842514" lon="12.241914999062194"><ele>211.5</ele><time>2026-04-04T13:10:47.001Z</time></trkpt><trkpt lat="42.73202673653255" lon="12.24184928861673"><ele>215.33333333333331</ele><time>2026-04-04T13:10:48.001Z</time></trkpt><trkpt lat="42.73209064670607" lon="12.241787689365372"><ele>219.16666666666666</ele><time>2026-04-04T13:10:49.001Z</time></trkpt><trkpt lat="42.732175436688244" lon="12.241759489782842"><ele>223.0</ele><time>2026-04-04T13:10:50.001Z</time></trkpt><trkpt lat="42.73225218545811" lon="12.241705012812785"><ele>222.99999999999997</ele><time>2026-04-04T13:10:51.001Z</time></trkpt><trkpt lat="42.732336925921516" lon="12.241666957022506"><ele>223.0</ele><time>2026-04-04T13:10:52.001Z</time></trkpt><trkpt lat="42.73241687715588" lon="12.241630100777025"><ele>223.0</ele><time>2026-04-04T13:10:53.001Z</time></trkpt><trkpt lat="42.732492832298966" lon="12.241574827484648"><ele>223.0</ele><time>2026-04-04T13:10:54.001Z</time></trkpt><trkpt lat="42.73256133543866" lon="12.241541274027883"><ele>222.99999999999997</ele><time>2026-04-04T13:10:55.001Z</time></trkpt><trkpt lat="42.73260262676912" lon="12.241474564671272"><ele>223.0</ele><time>2026-04-04T13:10:56.001Z</time></trkpt><trkpt lat="42.7326578117116" lon="12.241397897264362"><ele>222.66666666666666</ele><time>2026-04-04T13:10:58.001Z</time></trkpt><trkpt lat="42.73265376480968" lon="12.241303206617264"><ele>222.33333333333331</ele><time>2026-04-04T13:11:00.001Z</time></trkpt><trkpt lat="42.732587556582516" lon="12.241214890354335"><ele>222.0</ele><time>2026-04-04T13:11:01.001Z</time></trkpt><trkpt lat="42.732518266669466" lon="12.241162736624169"><ele>221.66666666666669</ele><time>2026-04-04T13:11:02.001Z</time></trkpt><trkpt lat="42.73245764036653" lon="12.241107267504807"><ele>221.33333333333334</ele><time>2026-04-04T13:11:03.001Z</time></trkpt><trkpt lat="42.732387145602644" lon="12.240970884306448"><ele>221.0</ele><time>2026-04-04T13:11:05.001Z</time></trkpt><trkpt lat="42.73239111809185" lon="12.240805823319125"><ele>221.00000000000003</ele><time>2026-04-04T13:11:07.001Z</time></trkpt><trkpt lat="42.732422883977996" lon="12.240712978213743"><ele>221.0</ele><time>2026-04-04T13:11:08.001Z</time></trkpt><trkpt lat="42.73246913375951" lon="12.240618025005588"><ele>221.0</ele><time>2026-04-04T13:11:09Z</time></trkpt><trkpt lat="42.73251516053115" lon="12.240524617964866"><ele>221.0</ele><time>2026-04-04T13:11:10Z</time></trkpt><trkpt lat="42.732572558832956" lon="12.240437800423697"><ele>221.00000000000003</ele><time>2026-04-04T13:11:11Z</time></trkpt><trkpt lat="42.73263379213525" lon="12.240365701352093"><ele>221.0</ele><time>2026-04-04T13:11:12Z</time></trkpt><trkpt lat="42.73270827306446" lon="12.240311483956297"><ele>222.66666666666669</ele><time>2026-04-04T13:11:13Z</time></trkpt><trkpt lat="42.732781426183486" lon="12.240259195645566"><ele>224.33333333333334</ele><time>2026-04-04T13:11:14Z</time></trkpt><trkpt lat="42.732848120715076" lon="12.24023035926764"><ele>226.0</ele><time>2026-04-04T13:11:15Z</time></trkpt><trkpt lat="42.73293508497988" lon="12.240196252952208"><ele>227.66666666666669</ele><time>2026-04-04T13:11:17Z</time></trkpt><trkpt lat="42.73299456202219" lon="12.240243792261781"><ele>229.33333333333334</ele><time>2026-04-04T13:11:19Z</time></trkpt><trkpt lat="42.73299914183264" lon="12.240340030663852"><ele>231.0</ele><time>2026-04-04T13:11:21Z</time></trkpt><trkpt lat="42.73291700917152" lon="12.240342525185476"><ele>231.0</ele><time>2026-04-04T13:11:23Z</time></trkpt><trkpt lat="42.73281397441455" lon="12.240416908542327"><ele>231.0</ele><time>2026-04-04T13:11:25Z</time></trkpt><trkpt lat="42.73275048902853" lon="12.240454751958953"><ele>231.0</ele><time>2026-04-04T13:11:26Z</time></trkpt><trkpt lat="42.732693747053375" lon="12.240500669372775"><ele>231.0</ele><time>2026-04-04T13:11:27Z</time></trkpt><trkpt lat="42.73264692558957" lon="12.240579088428387"><ele>231.0</ele><time>2026-04-04T13:11:28Z</time></trkpt><trkpt lat="42.73261586880339" lon="12.24066049258707"><ele>231.0</ele><time>2026-04-04T13:11:29Z</time></trkpt><trkpt lat="42.732582035705676" lon="12.240816828178174"><ele>229.57142857142858</ele><time>2026-04-04T13:11:31Z</time></trkpt><trkpt lat="42.732611940675355" lon="12.240902903515334"><ele>228.14285714285714</ele><time>2026-04-04T13:11:32Z</time></trkpt><trkpt lat="42.732671555140534" lon="12.240959714436178"><ele>226.71428571428572</ele><time>2026-04-04T13:11:33Z</time></trkpt><trkpt lat="42.73273936228059" lon="12.240999061966514"><ele>225.28571428571428</ele><time>2026-04-04T13:11:34Z</time></trkpt><trkpt lat="42.73280233676644" lon="12.2409957231768"><ele>223.85714285714286</ele><time>2026-04-04T13:11:35Z</time></trkpt><trkpt lat="42.73286764943612" lon="12.241002921770198"><ele>222.42857142857144</ele><time>2026-04-04T13:11:36Z</time></trkpt><trkpt lat="42.73293980199816" lon="12.240985863133135"><ele>221.0</ele><time>2026-04-04T13:11:37Z</time></trkpt><trkpt lat="42.73301630542507" lon="12.240998489124836"><ele>224.2857142857143</ele><time>2026-04-04T13:11:38Z</time></trkpt><trkpt lat="42.733094338056496" lon="12.240981368013609"><ele>227.57142857142856</ele><time>2026-04-04T13:11:39Z</time></trkpt><trkpt lat="42.73316451476529" lon="12.24099284699246"><ele>230.85714285714283</ele><time>2026-04-04T13:11:40Z</time></trkpt><trkpt lat="42.73323302676808" lon="12.240998234603365"><ele>234.14285714285714</ele><time>2026-04-04T13:11:41Z</time></trkpt><trkpt lat="42.733303663622515" lon="12.241025313957865"><ele>237.42857142857142</ele><time>2026-04-04T13:11:42Z</time></trkpt><trkpt lat="42.73337480633754" lon="12.24105137232978"><ele>240.7142857142857</ele><time>2026-04-04T13:11:43Z</time></trkpt><trkpt lat="42.73345774930422" lon="12.241065568699804"><ele>243.99999999999997</ele><time>2026-04-04T13:11:44Z</time></trkpt><trkpt lat="42.73353442612242" lon="12.241071563287676"><ele>247.99999999999997</ele><time>2026-04-04T13:11:45Z</time></trkpt><trkpt lat="42.73361072902779" lon="12.241082297201118"><ele>252.0</ele><time>2026-04-04T13:11:46Z</time></trkpt><trkpt lat="42.73367756403612" lon="12.241117794866842"><ele>256.0</ele><time>2026-04-04T13:11:47Z</time></trkpt><trkpt lat="42.73375716028376" lon="12.241186196796988"><ele>260.0</ele><time>2026-04-04T13:11:48Z</time></trkpt><trkpt lat="42.7338359255822" lon="12.241198031126382"><ele>264.0</ele><time>2026-04-04T13:11:49Z</time></trkpt><trkpt lat="42.733916839416096" lon="12.241230951703109"><ele>268.0</ele><time>2026-04-04T13:11:50Z</time></trkpt><trkpt lat="42.73399986660161" lon="12.241275413585267"><ele>268.0</ele><time>2026-04-04T13:11:51Z</time></trkpt><trkpt lat="42.734098241304594" lon="12.241292636403752"><ele>268.0</ele><time>2026-04-04T13:11:52Z</time></trkpt><trkpt lat="42.73420096006884" lon="12.241334729097307"><ele>268.0</ele><time>2026-04-04T13:11:53Z</time></trkpt><trkpt lat="42.73429161104142" lon="12.241382420128161"><ele>268.0</ele><time>2026-04-04T13:11:54Z</time></trkpt><trkpt lat="42.73438855902188" lon="12.241417375910734"><ele>268.0</ele><time>2026-04-04T13:11:55Z</time></trkpt><trkpt lat="42.73447028785374" lon="12.241437116008973"><ele>269.8333333333333</ele><time>2026-04-04T13:11:56Z</time></trkpt><trkpt lat="42.73456003608334" lon="12.2415005571213"><ele>271.66666666666663</ele><time>2026-04-04T13:11:57Z</time></trkpt><trkpt lat="42.734633604664786" lon="12.241524639733235"><ele>273.5</ele><time>2026-04-04T13:11:58Z</time></trkpt><trkpt lat="42.73470204441108" lon="12.241575087776347"><ele>275.3333333333333</ele><time>2026-04-04T13:11:59Z</time></trkpt><trkpt lat="42.73478485641724" lon="12.241630535880876"><ele>277.1666666666667</ele><time>2026-04-04T13:12:00Z</time></trkpt><trkpt lat="42.73487250316496" lon="12.241671025330822"><ele>279.0</ele><time>2026-04-04T13:12:01Z</time></trkpt><trkpt lat="42.73498228705273" lon="12.241690960046093"><ele>279.0</ele><time>2026-04-04T13:12:03Z</time></trkpt><trkpt lat="42.7350696698175" lon="12.241669825165218"><ele>279.0</ele><time>2026-04-04T13:12:04Z</time></trkpt><trkpt lat="42.735168939823424" lon="12.241683304803477"><ele>279.0</ele><time>2026-04-04T13:12:05Z</time></trkpt><trkpt lat="42.73526094971792" lon="12.24169194761551"><ele>279.0</ele><time>2026-04-04T13:12:06Z</time></trkpt><trkpt lat="42.73533614589495" lon="12.241688453140588"><ele>279.0</ele><time>2026-04-04T13:12:07Z</time></trkpt><trkpt lat="42.7354163764103" lon="12.24167319546387"><ele>279.0</ele><time>2026-04-04T13:12:08Z</time></trkpt><trkpt lat="42.735482800735916" lon="12.241634341409497"><ele>280.8333333333333</ele><time>2026-04-04T13:12:09Z</time></trkpt><trkpt lat="42.73551459436299" lon="12.241536045368846"><ele>282.6666666666667</ele><time>2026-04-04T13:12:11Z</time></trkpt><trkpt lat="42.7354554126935" lon="12.241415496173655"><ele>284.5</ele><time>2026-04-04T13:12:14Z</time></trkpt><trkpt lat="42.73537045972267" lon="12.241353581351143"><ele>286.33333333333337</ele><time>2026-04-04T13:12:16Z</time></trkpt><trkpt lat="42.73529685646216" lon="12.241348196858416"><ele>288.1666666666667</ele><time>2026-04-04T13:12:17Z</time></trkpt><trkpt lat="42.735233540555896" lon="12.241340406872041"><ele>290.0</ele><time>2026-04-04T13:12:18Z</time></trkpt><trkpt lat="42.73516635827099" lon="12.241306496726517"><ele>290.6666666666667</ele><time>2026-04-04T13:12:19Z</time></trkpt><trkpt lat="42.73505398246902" lon="12.241246045788472"><ele>291.33333333333337</ele><time>2026-04-04T13:12:21Z</time></trkpt><trkpt lat="42.73499521475823" lon="12.24119751504093"><ele>292.0</ele><time>2026-04-04T13:12:22Z</time></trkpt><trkpt lat="42.734942304555645" lon="12.241145263200456"><ele>292.6666666666667</ele><time>2026-04-04T13:12:23Z</time></trkpt><trkpt lat="42.73489270471377" lon="12.241089662296265"><ele>293.3333333333333</ele><time>2026-04-04T13:12:24Z</time></trkpt><trkpt lat="42.73483169679596" lon="12.241018085385994"><ele>294.0</ele><time>2026-04-04T13:12:25Z</time></trkpt><trkpt lat="42.73478712111773" lon="12.240921975965914"><ele>294.0</ele><time>2026-04-04T13:12:26.001Z</time></trkpt><trkpt lat="42.734739315580455" lon="12.240841067102245"><ele>294.0</ele><time>2026-04-04T13:12:27.001Z</time></trkpt><trkpt lat="42.734685417756566" lon="12.240773571193763"><ele>294.0</ele><time>2026-04-04T13:12:28.001Z</time></trkpt><trkpt lat="42.73463298243207" lon="12.240719486863767"><ele>294.0</ele><time>2026-04-04T13:12:29.001Z</time></trkpt><trkpt lat="42.734557716811516" lon="12.240613070067676"><ele>294.0</ele><time>2026-04-04T13:12:31.001Z</time></trkpt><trkpt lat="42.73457867800248" lon="12.240465873712765"><ele>294.0</ele><time>2026-04-04T13:12:33.001Z</time></trkpt><trkpt lat="42.73466437961481" lon="12.240376349358614"><ele>294.0</ele><time>2026-04-04T13:12:35.001Z</time></trkpt><trkpt lat="42.73475550987333" lon="12.24025659024765"><ele>294.0</ele><time>2026-04-04T13:12:37.001Z</time></trkpt><trkpt lat="42.73480329972019" lon="12.240182052880971"><ele>294.0</ele><time>2026-04-04T13:12:38.001Z</time></trkpt><trkpt lat="42.73486483825351" lon="12.24011483622815"><ele>294.0</ele><time>2026-04-04T13:12:39.001Z</time></trkpt><trkpt lat="42.73493145976305" lon="12.240047237936407"><ele>294.0</ele><time>2026-04-04T13:12:40.001Z</time></trkpt><trkpt lat="42.73500001303002" lon="12.239988950716432"><ele>294.0</ele><time>2026-04-04T13:12:41.001Z</time></trkpt><trkpt lat="42.73507455549472" lon="12.239941283454401"><ele>294.0</ele><time>2026-04-04T13:12:42.001Z</time></trkpt><trkpt lat="42.7351457371808" lon="12.239914196789666"><ele>294.0</ele><time>2026-04-04T13:12:43.001Z</time></trkpt><trkpt lat="42.73521691746849" lon="12.239931969082678"><ele>294.0</ele><time>2026-04-04T13:12:44.001Z</time></trkpt><trkpt lat="42.73532995400396" lon="12.239960227825721"><ele>294.0</ele><time>2026-04-04T13:12:46.001Z</time></trkpt><trkpt lat="42.73538811061831" lon="12.240011309892061"><ele>294.0</ele><time>2026-04-04T13:12:47.001Z</time></trkpt><trkpt lat="42.73549348853257" lon="12.24004408268374"><ele>294.0</ele><time>2026-04-04T13:12:49.001Z</time></trkpt><trkpt lat="42.73555795545491" lon="12.240044270080201"><ele>293.5</ele><time>2026-04-04T13:12:51.001Z</time></trkpt><trkpt lat="42.73562666366755" lon="12.239986315146446"><ele>293.0</ele><time>2026-04-04T13:12:53.001Z</time></trkpt><trkpt lat="42.73567769890139" lon="12.239928488063855"><ele>292.5</ele><time>2026-04-04T13:12:54.001Z</time></trkpt><trkpt lat="42.7357422359866" lon="12.239896763240282"><ele>292.0</ele><time>2026-04-04T13:12:55.001Z</time></trkpt><trkpt lat="42.73579619730749" lon="12.23983412745609"><ele>291.5</ele><time>2026-04-04T13:12:56.001Z</time></trkpt><trkpt lat="42.735923757057236" lon="12.239752799624885"><ele>291.0</ele><time>2026-04-04T13:12:58.001Z</time></trkpt><trkpt lat="42.73599259107456" lon="12.239664368192429"><ele>291.0</ele><time>2026-04-04T13:12:59.001Z</time></trkpt><trkpt lat="42.73605210325903" lon="12.239601706820558"><ele>291.0</ele><time>2026-04-04T13:13:00.001Z</time></trkpt><trkpt lat="42.73613026973146" lon="12.239541460707754"><ele>291.0</ele><time>2026-04-04T13:13:01.001Z</time></trkpt><trkpt lat="42.736203578413644" lon="12.239483558482227"><ele>291.0</ele><time>2026-04-04T13:13:02.001Z</time></trkpt><trkpt lat="42.736284943891526" lon="12.239440031253187"><ele>291.0</ele><time>2026-04-04T13:13:03.001Z</time></trkpt><trkpt lat="42.736349015194236" lon="12.239396633511701"><ele>291.0</ele><time>2026-04-04T13:13:04.001Z</time></trkpt><trkpt lat="42.73642689935167" lon="12.239355880507903"><ele>293.3333333333333</ele><time>2026-04-04T13:13:05.001Z</time></trkpt><trkpt lat="42.736511508521325" lon="12.239329152636898"><ele>295.6666666666667</ele><time>2026-04-04T13:13:06.001Z</time></trkpt><trkpt lat="42.73659098026244" lon="12.239331372754528"><ele>298.0</ele><time>2026-04-04T13:13:07.001Z</time></trkpt><trkpt lat="42.73666844786527" lon="12.239344973658325"><ele>300.33333333333337</ele><time>2026-04-04T13:13:08.001Z</time></trkpt><trkpt lat="42.7367626432802" lon="12.239365157771864"><ele>302.6666666666667</ele><time>2026-04-04T13:13:09.001Z</time></trkpt><trkpt lat="42.73685524012843" lon="12.239382419169699"><ele>305.0</ele><time>2026-04-04T13:13:10.001Z</time></trkpt><trkpt lat="42.73695122323453" lon="12.239397607418223"><ele>307.0</ele><time>2026-04-04T13:13:11.001Z</time></trkpt><trkpt lat="42.73704412088379" lon="12.239409451543658"><ele>309.0</ele><time>2026-04-04T13:13:12.001Z</time></trkpt><trkpt lat="42.73712040196207" lon="12.239402464847117"><ele>311.0</ele><time>2026-04-04T13:13:13.001Z</time></trkpt><trkpt lat="42.737188512094676" lon="12.239388605192877"><ele>313.0</ele><time>2026-04-04T13:13:14.001Z</time></trkpt><trkpt lat="42.73725728785061" lon="12.239366818690549"><ele>315.0</ele><time>2026-04-04T13:13:15Z</time></trkpt><trkpt lat="42.73731462419815" lon="12.239310583236035"><ele>317.0</ele><time>2026-04-04T13:13:16Z</time></trkpt><trkpt lat="42.73735837498805" lon="12.239217305866735"><ele>317.0</ele><time>2026-04-04T13:13:17Z</time></trkpt><trkpt lat="42.737374579006456" lon="12.239095287890956"><ele>317.0</ele><time>2026-04-04T13:13:18Z</time></trkpt><trkpt lat="42.73733564586246" lon="12.238967774188572"><ele>317.0</ele><time>2026-04-04T13:13:19Z</time></trkpt><trkpt lat="42.737316608053426" lon="12.23884755086209"><ele>317.0</ele><time>2026-04-04T13:13:20Z</time></trkpt><trkpt lat="42.73729488899002" lon="12.238727992544327"><ele>317.0</ele><time>2026-04-04T13:13:21Z</time></trkpt><trkpt lat="42.73727318414742" lon="12.238609109508971"><ele>316.6</ele><time>2026-04-04T13:13:22Z</time></trkpt><trkpt lat="42.737263018994575" lon="12.238478952213397"><ele>316.2</ele><time>2026-04-04T13:13:23Z</time></trkpt><trkpt lat="42.73727962295848" lon="12.238355665960526"><ele>315.8</ele><time>2026-04-04T13:13:24Z</time></trkpt><trkpt lat="42.737306880401995" lon="12.23826332518869"><ele>315.4</ele><time>2026-04-04T13:13:25Z</time></trkpt><trkpt lat="42.73738264183313" lon="12.238127831152052"><ele>315.0</ele><time>2026-04-04T13:13:27Z</time></trkpt><trkpt lat="42.73749354180388" lon="12.23806380635703"><ele>317.2</ele><time>2026-04-04T13:13:29Z</time></trkpt><trkpt lat="42.737560338633465" lon="12.238041688852906"><ele>319.4</ele><time>2026-04-04T13:13:30Z</time></trkpt><trkpt lat="42.737642142516364" lon="12.23808784804096"><ele>321.6</ele><time>2026-04-04T13:13:31Z</time></trkpt><trkpt lat="42.73773089893102" lon="12.238127707047656"><ele>323.8</ele><time>2026-04-04T13:13:32Z</time></trkpt><trkpt lat="42.73783106476735" lon="12.238151827901616"><ele>326.0</ele><time>2026-04-04T13:13:33Z</time></trkpt><trkpt lat="42.737923336664075" lon="12.238206719851918"><ele>326.0</ele><time>2026-04-04T13:13:34Z</time></trkpt><trkpt lat="42.73802062144988" lon="12.238244958533162"><ele>326.0</ele><time>2026-04-04T13:13:35Z</time></trkpt><trkpt lat="42.73813005974221" lon="12.238264790407285"><ele>326.0</ele><time>2026-04-04T13:13:36Z</time></trkpt><trkpt lat="42.73823779131784" lon="12.238292207037922"><ele>326.0</ele><time>2026-04-04T13:13:37Z</time></trkpt><trkpt lat="42.738343031981195" lon="12.238310109272383"><ele>326.0</ele><time>2026-04-04T13:13:38Z</time></trkpt><trkpt lat="42.73843386958464" lon="12.238334664465429"><ele>326.0</ele><time>2026-04-04T13:13:39Z</time></trkpt><trkpt lat="42.73853147588745" lon="12.238338790536165"><ele>326.0</ele><time>2026-04-04T13:13:40Z</time></trkpt><trkpt lat="42.73861910399752" lon="12.238314534634593"><ele>326.0</ele><time>2026-04-04T13:13:41Z</time></trkpt><trkpt lat="42.73869354148361" lon="12.238300195007213"><ele>326.0</ele><time>2026-04-04T13:13:42Z</time></trkpt><trkpt lat="42.73876988144289" lon="12.238221770876883"><ele>326.0</ele><time>2026-04-04T13:13:43Z</time></trkpt><trkpt lat="42.73883378764116" lon="12.238158648749238"><ele>326.0</ele><time>2026-04-04T13:13:44Z</time></trkpt><trkpt lat="42.738891255072325" lon="12.238106008997573"><ele>327.0</ele><time>2026-04-04T13:13:45Z</time></trkpt><trkpt lat="42.73900207123227" lon="12.23808762016411"><ele>328.0</ele><time>2026-04-04T13:13:47Z</time></trkpt><trkpt lat="42.73906854050934" lon="12.238131768118055"><ele>329.0</ele><time>2026-04-04T13:13:48Z</time></trkpt><trkpt lat="42.7391413546246" lon="12.238193430726536"><ele>330.0</ele><time>2026-04-04T13:13:49Z</time></trkpt><trkpt lat="42.73922204551335" lon="12.238270853738854"><ele>331.0</ele><time>2026-04-04T13:13:50Z</time></trkpt><trkpt lat="42.73931348396987" lon="12.238342998806422"><ele>331.75</ele><time>2026-04-04T13:13:51Z</time></trkpt><trkpt lat="42.73940992759328" lon="12.23841684130463"><ele>332.5</ele><time>2026-04-04T13:13:52Z</time></trkpt><trkpt lat="42.739515765569315" lon="12.238497085818553"><ele>333.25</ele><time>2026-04-04T13:13:53Z</time></trkpt><trkpt lat="42.739610621130836" lon="12.23857258878928"><ele>334.0</ele><time>2026-04-04T13:13:54Z</time></trkpt><trkpt lat="42.73971010606975" lon="12.238631197171097"><ele>334.0</ele><time>2026-04-04T13:13:55Z</time></trkpt><trkpt lat="42.73981301718546" lon="12.238690027592547"><ele>334.0</ele><time>2026-04-04T13:13:56Z</time></trkpt><trkpt lat="42.73991238445242" lon="12.23875022122544"><ele>334.0</ele><time>2026-04-04T13:13:57Z</time></trkpt><trkpt lat="42.7400023017344" lon="12.238804533486132"><ele>334.0</ele><time>2026-04-04T13:13:58Z</time></trkpt><trkpt lat="42.74008162989175" lon="12.238832156481914"><ele>334.0</ele><time>2026-04-04T13:13:59Z</time></trkpt><trkpt lat="42.74015728422796" lon="12.23884635280829"><ele>336.6</ele><time>2026-04-04T13:14:00Z</time></trkpt><trkpt lat="42.740234306423375" lon="12.238839170294051"><ele>339.2</ele><time>2026-04-04T13:14:01Z</time></trkpt><trkpt lat="42.74031793932134" lon="12.238823505188357"><ele>341.8</ele><time>2026-04-04T13:14:02Z</time></trkpt><trkpt lat="42.74041155553396" lon="12.238801950336542"><ele>344.40000000000003</ele><time>2026-04-04T13:14:03Z</time></trkpt><trkpt lat="42.74051467134017" lon="12.238773922814648"><ele>347.0</ele><time>2026-04-04T13:14:04Z</time></trkpt><trkpt lat="42.74062814625565" lon="12.238766055719442"><ele>347.0</ele><time>2026-04-04T13:14:05Z</time></trkpt><trkpt lat="42.74074921078573" lon="12.238721038719728"><ele>347.0</ele><time>2026-04-04T13:14:06Z</time></trkpt><trkpt lat="42.74087291010248" lon="12.23868504363325"><ele>347.0</ele><time>2026-04-04T13:14:07Z</time></trkpt><trkpt lat="42.740984270733016" lon="12.238670598829192"><ele>347.0</ele><time>2026-04-04T13:14:08Z</time></trkpt><trkpt lat="42.741087723913566" lon="12.238659791861963"><ele>349.40000000000003</ele><time>2026-04-04T13:14:09Z</time></trkpt><trkpt lat="42.74120138836675" lon="12.238667789154833"><ele>351.8</ele><time>2026-04-04T13:14:10Z</time></trkpt><trkpt lat="42.7413131545434" lon="12.23868632670722"><ele>354.2</ele><time>2026-04-04T13:14:11Z</time></trkpt><trkpt lat="42.74142073547314" lon="12.238728540726122"><ele>356.6</ele><time>2026-04-04T13:14:12Z</time></trkpt><trkpt lat="42.741522131462226" lon="12.238785138012258"><ele>359.0</ele><time>2026-04-04T13:14:13Z</time></trkpt><trkpt lat="42.74161080424057" lon="12.238846424657225"><ele>359.0</ele><time>2026-04-04T13:14:14Z</time></trkpt><trkpt lat="42.74170491905956" lon="12.23890061178356"><ele>359.0</ele><time>2026-04-04T13:14:15Z</time></trkpt><trkpt lat="42.74179064636862" lon="12.238965798710154"><ele>359.0</ele><time>2026-04-04T13:14:16Z</time></trkpt><trkpt lat="42.74187743641488" lon="12.239024627581562"><ele>359.0</ele><time>2026-04-04T13:14:17Z</time></trkpt><trkpt lat="42.74195822935069" lon="12.23908379835182"><ele>359.0</ele><time>2026-04-04T13:14:18Z</time></trkpt><trkpt lat="42.742029465941705" lon="12.239126699976508"><ele>358.5</ele><time>2026-04-04T13:14:19Z</time></trkpt><trkpt lat="42.742125561149734" lon="12.239147989142367"><ele>358.0</ele><time>2026-04-04T13:14:21Z</time></trkpt><trkpt lat="42.74219034821916" lon="12.239082923328027"><ele>357.5</ele><time>2026-04-04T13:14:23Z</time></trkpt><trkpt lat="42.742219906504516" lon="12.2390009048271"><ele>357.0</ele><time>2026-04-04T13:14:24Z</time></trkpt><trkpt lat="42.74224611225882" lon="12.238907145098734"><ele>356.5</ele><time>2026-04-04T13:14:25Z</time></trkpt><trkpt lat="42.74226547290482" lon="12.238788572873963"><ele>356.0</ele><time>2026-04-04T13:14:26Z</time></trkpt><trkpt lat="42.74229159405902" lon="12.238663848249862"><ele>356.0</ele><time>2026-04-04T13:14:27Z</time></trkpt><trkpt lat="42.74232451911781" lon="12.238517913335988"><ele>356.0</ele><time>2026-04-04T13:14:28.001Z</time></trkpt><trkpt lat="42.742361420240954" lon="12.238385403736984"><ele>356.0</ele><time>2026-04-04T13:14:29.001Z</time></trkpt><trkpt lat="42.742403296833665" lon="12.238256703894214"><ele>356.0</ele><time>2026-04-04T13:14:30.001Z</time></trkpt><trkpt lat="42.7424463337335" lon="12.238148194883935"><ele>356.0</ele><time>2026-04-04T13:14:31.001Z</time></trkpt><trkpt lat="42.74249722814659" lon="12.238052797791122"><ele>356.20000000000005</ele><time>2026-04-04T13:14:32.001Z</time></trkpt><trkpt lat="42.74256238212335" lon="12.237956869612"><ele>356.40000000000003</ele><time>2026-04-04T13:14:33.001Z</time></trkpt><trkpt lat="42.74263705755046" lon="12.237876456737204"><ele>356.6</ele><time>2026-04-04T13:14:34.001Z</time></trkpt><trkpt lat="42.742709740513526" lon="12.237817094326354"><ele>356.8</ele><time>2026-04-04T13:14:35.001Z</time></trkpt><trkpt lat="42.742793196826355" lon="12.23776057043778"><ele>357.0</ele><time>2026-04-04T13:14:36.001Z</time></trkpt><trkpt lat="42.742886745803666" lon="12.237702534353042"><ele>357.0</ele><time>2026-04-04T13:14:37.001Z</time></trkpt><trkpt lat="42.74298601515494" lon="12.237643110932954"><ele>357.0</ele><time>2026-04-04T13:14:38.001Z</time></trkpt><trkpt lat="42.743082537051514" lon="12.237561512474802"><ele>357.0</ele><time>2026-04-04T13:14:39.001Z</time></trkpt><trkpt lat="42.74318769669164" lon="12.237505645647392"><ele>357.0</ele><time>2026-04-04T13:14:40.001Z</time></trkpt><trkpt lat="42.74328428424244" lon="12.237444550643447"><ele>357.0</ele><time>2026-04-04T13:14:41.001Z</time></trkpt><trkpt lat="42.743380198285536" lon="12.237394916643298"><ele>357.0</ele><time>2026-04-04T13:14:42.001Z</time></trkpt><trkpt lat="42.743463155698706" lon="12.237327663777306"><ele>357.0</ele><time>2026-04-04T13:14:43.001Z</time></trkpt><trkpt lat="42.743546073157525" lon="12.237264740866303"><ele>357.0</ele><time>2026-04-04T13:14:44.001Z</time></trkpt><trkpt lat="42.743620392346386" lon="12.237197387606287"><ele>357.0</ele><time>2026-04-04T13:14:45.001Z</time></trkpt><trkpt lat="42.74367701273377" lon="12.237118727991879"><ele>357.0</ele><time>2026-04-04T13:14:46.001Z</time></trkpt><trkpt lat="42.74371950023117" lon="12.237037734749821"><ele>357.0</ele><time>2026-04-04T13:14:47.001Z</time></trkpt><trkpt lat="42.74375042032812" lon="12.236961033395447"><ele>359.1666666666667</ele><time>2026-04-04T13:14:48.001Z</time></trkpt><trkpt lat="42.74380631673903" lon="12.236859372022309"><ele>361.3333333333333</ele><time>2026-04-04T13:14:50.001Z</time></trkpt><trkpt lat="42.743856057491705" lon="12.236737406162113"><ele>363.5</ele><time>2026-04-04T13:14:52.001Z</time></trkpt><trkpt lat="42.743889537454784" lon="12.236651751597266"><ele>365.66666666666663</ele><time>2026-04-04T13:14:53.001Z</time></trkpt><trkpt lat="42.743927054207475" lon="12.236552525397743"><ele>367.8333333333333</ele><time>2026-04-04T13:14:54.001Z</time></trkpt><trkpt lat="42.74396438401238" lon="12.23645379392463"><ele>370.0</ele><time>2026-04-04T13:14:55.001Z</time></trkpt><trkpt lat="42.74399968226412" lon="12.236360435474044"><ele>370.16666666666663</ele><time>2026-04-04T13:14:56.001Z</time></trkpt><trkpt lat="42.7440281486542" lon="12.236265812033592"><ele>370.3333333333333</ele><time>2026-04-04T13:14:57.001Z</time></trkpt><trkpt lat="42.744073916391734" lon="12.236161372318014"><ele>370.5</ele><time>2026-04-04T13:14:58.001Z</time></trkpt><trkpt lat="42.74411753553165" lon="12.236035003213429"><ele>370.6666666666667</ele><time>2026-04-04T13:14:59.001Z</time></trkpt><trkpt lat="42.74414464639429" lon="12.235953556741565"><ele>370.83333333333337</ele><time>2026-04-04T13:15:00.001Z</time></trkpt><trkpt lat="42.744183772182424" lon="12.235885755426214"><ele>371.0</ele><time>2026-04-04T13:15:01.001Z</time></trkpt><trkpt lat="42.74424723320412" lon="12.235785932287454"><ele>371.0</ele><time>2026-04-04T13:15:03.001Z</time></trkpt><trkpt lat="42.74431382046312" lon="12.235825150421698"><ele>371.0</ele><time>2026-04-04T13:15:05.001Z</time></trkpt><trkpt lat="42.74432979321434" lon="12.235936356252195"><ele>371.0</ele><time>2026-04-04T13:15:07.001Z</time></trkpt><trkpt lat="42.74432896955134" lon="12.236024559562999"><ele>371.0</ele><time>2026-04-04T13:15:08.001Z</time></trkpt><trkpt lat="42.744315557592294" lon="12.236126399036193"><ele>371.0</ele><time>2026-04-04T13:15:09.001Z</time></trkpt><trkpt lat="42.74432464304845" lon="12.23622488356739"><ele>371.0</ele><time>2026-04-04T13:15:10.001Z</time></trkpt><trkpt lat="42.74433927295307" lon="12.23631711585322"><ele>371.0</ele><time>2026-04-04T13:15:11.001Z</time></trkpt><trkpt lat="42.744377454918045" lon="12.236395155648468"><ele>372.33333333333337</ele><time>2026-04-04T13:15:12.001Z</time></trkpt><trkpt lat="42.74449295157561" lon="12.23645823484496"><ele>373.6666666666667</ele><time>2026-04-04T13:15:14.001Z</time></trkpt><trkpt lat="42.744557940042085" lon="12.23646390961165"><ele>375.0</ele><time>2026-04-04T13:15:15.001Z</time></trkpt><trkpt lat="42.744632123072606" lon="12.236476677918024"><ele>376.3333333333333</ele><time>2026-04-04T13:15:16.001Z</time></trkpt><trkpt lat="42.744718161274605" lon="12.236467767501798"><ele>377.66666666666663</ele><time>2026-04-04T13:15:17.001Z</time></trkpt><trkpt lat="42.74480856511596" lon="12.236441611552106"><ele>379.0</ele><time>2026-04-04T13:15:18.001Z</time></trkpt><trkpt lat="42.744902713809616" lon="12.236391774894189"><ele>381.0</ele><time>2026-04-04T13:15:19.001Z</time></trkpt><trkpt lat="42.7450075435647" lon="12.236334873280445"><ele>383.0</ele><time>2026-04-04T13:15:20.001Z</time></trkpt><trkpt lat="42.74511737589473" lon="12.236305831993445"><ele>385.0</ele><time>2026-04-04T13:15:21Z</time></trkpt><trkpt lat="42.74523265163807" lon="12.236243759337853"><ele>387.0</ele><time>2026-04-04T13:15:22Z</time></trkpt><trkpt lat="42.745334121706165" lon="12.236184756207779"><ele>388.0</ele><time>2026-04-04T13:15:23Z</time></trkpt><trkpt lat="42.74544780454176" lon="12.236122161661271"><ele>389.0</ele><time>2026-04-04T13:15:24Z</time></trkpt><trkpt lat="42.74554430847927" lon="12.236050960650813"><ele>390.0</ele><time>2026-04-04T13:15:25Z</time></trkpt><trkpt lat="42.7456465535092" lon="12.23599755809636"><ele>391.0</ele><time>2026-04-04T13:15:26Z</time></trkpt><trkpt lat="42.74573901365683" lon="12.235927199263859"><ele>392.0</ele><time>2026-04-04T13:15:27Z</time></trkpt><trkpt lat="42.74583793995182" lon="12.235870942352964"><ele>392.0</ele><time>2026-04-04T13:15:28Z</time></trkpt><trkpt lat="42.74593277999689" lon="12.235838398794009"><ele>392.0</ele><time>2026-04-04T13:15:29Z</time></trkpt><trkpt lat="42.746018275495736" lon="12.23581857949685"><ele>392.0</ele><time>2026-04-04T13:15:30Z</time></trkpt><trkpt lat="42.74610740854137" lon="12.235825908579223"><ele>392.0</ele><time>2026-04-04T13:15:31Z</time></trkpt><trkpt lat="42.74619590208762" lon="12.235865869684751"><ele>392.0</ele><time>2026-04-04T13:15:32Z</time></trkpt><trkpt lat="42.746294284591514" lon="12.2359262995561"><ele>392.0</ele><time>2026-04-04T13:15:33Z</time></trkpt><trkpt lat="42.746395617455526" lon="12.235986038392674"><ele>392.0</ele><time>2026-04-04T13:15:34Z</time></trkpt><trkpt lat="42.74649695104494" lon="12.236031815910003"><ele>392.0</ele><time>2026-04-04T13:15:35Z</time></trkpt><trkpt lat="42.74659598649569" lon="12.236042937407634"><ele>392.0</ele><time>2026-04-04T13:15:36Z</time></trkpt><trkpt lat="42.746702074592854" lon="12.23602169545862"><ele>392.0</ele><time>2026-04-04T13:15:37Z</time></trkpt><trkpt lat="42.74681861240308" lon="12.235985880240303"><ele>393.0</ele><time>2026-04-04T13:15:38Z</time></trkpt><trkpt lat="42.746939316153835" lon="12.23594120419337"><ele>394.0</ele><time>2026-04-04T13:15:39Z</time></trkpt><trkpt lat="42.747048174409414" lon="12.235884957801211"><ele>395.0</ele><time>2026-04-04T13:15:40Z</time></trkpt><trkpt lat="42.74715292285558" lon="12.235817978867706"><ele>396.0</ele><time>2026-04-04T13:15:41Z</time></trkpt><trkpt lat="42.747254066628436" lon="12.235738232744106"><ele>396.0</ele><time>2026-04-04T13:15:42Z</time></trkpt><trkpt lat="42.74736391055733" lon="12.235674922971247"><ele>396.0</ele><time>2026-04-04T13:15:43Z</time></trkpt><trkpt lat="42.74746904946363" lon="12.235586019971166"><ele>396.0</ele><time>2026-04-04T13:15:44Z</time></trkpt><trkpt lat="42.7475597333334" lon="12.23547726336814"><ele>396.0</ele><time>2026-04-04T13:15:45Z</time></trkpt><trkpt lat="42.747657851870414" lon="12.235379314451333"><ele>399.25</ele><time>2026-04-04T13:15:46Z</time></trkpt><trkpt lat="42.747760230836846" lon="12.235280571721143"><ele>402.5</ele><time>2026-04-04T13:15:47Z</time></trkpt><trkpt lat="42.74786679245303" lon="12.235187152372523"><ele>405.75</ele><time>2026-04-04T13:15:48Z</time></trkpt><trkpt lat="42.74797005195442" lon="12.235081790954684"><ele>409.0</ele><time>2026-04-04T13:15:49Z</time></trkpt><trkpt lat="42.74807132686317" lon="12.234994122023638"><ele>409.0</ele><time>2026-04-04T13:15:50Z</time></trkpt><trkpt lat="42.748175837282666" lon="12.234930742202401"><ele>409.0</ele><time>2026-04-04T13:15:51Z</time></trkpt><trkpt lat="42.74827572797389" lon="12.234847057721911"><ele>409.0</ele><time>2026-04-04T13:15:52Z</time></trkpt><trkpt lat="42.74839314588737" lon="12.23479668313434"><ele>409.0</ele><time>2026-04-04T13:15:53Z</time></trkpt><trkpt lat="42.7485156951133" lon="12.234755120402564"><ele>410.6666666666667</ele><time>2026-04-04T13:15:54Z</time></trkpt><trkpt lat="42.74861723654938" lon="12.234716175356363"><ele>412.33333333333337</ele><time>2026-04-04T13:15:55Z</time></trkpt><trkpt lat="42.74870223857472" lon="12.234676111758558"><ele>414.0</ele><time>2026-04-04T13:15:56Z</time></trkpt><trkpt lat="42.74875605699337" lon="12.234594714869445"><ele>415.66666666666663</ele><time>2026-04-04T13:15:57Z</time></trkpt><trkpt lat="42.74879825566415" lon="12.234508239986129"><ele>417.3333333333333</ele><time>2026-04-04T13:15:58Z</time></trkpt><trkpt lat="42.74883054765136" lon="12.234384005106254"><ele>419.0</ele><time>2026-04-04T13:15:59Z</time></trkpt><trkpt lat="42.74888193718256" lon="12.234280657447556"><ele>418.99999999999994</ele><time>2026-04-04T13:16:00Z</time></trkpt><trkpt lat="42.748942177941124" lon="12.234225800687263"><ele>419.0</ele><time>2026-04-04T13:16:01Z</time></trkpt><trkpt lat="42.749003540539974" lon="12.234193789809968"><ele>419.0</ele><time>2026-04-04T13:16:02Z</time></trkpt><trkpt lat="42.749069420292415" lon="12.23419703626663"><ele>419.0</ele><time>2026-04-04T13:16:03Z</time></trkpt><trkpt lat="42.74914379154915" lon="12.234175886385204"><ele>418.99999999999994</ele><time>2026-04-04T13:16:04Z</time></trkpt><trkpt lat="42.74922804868114" lon="12.234190365397522"><ele>419.0</ele><time>2026-04-04T13:16:05Z</time></trkpt><trkpt lat="42.749334608085434" lon="12.234199286821068"><ele>420.25</ele><time>2026-04-04T13:16:06Z</time></trkpt><trkpt lat="42.74944565439895" lon="12.234192899425842"><ele>421.5</ele><time>2026-04-04T13:16:07Z</time></trkpt><trkpt lat="42.749564758002506" lon="12.234194866649368"><ele>422.75</ele><time>2026-04-04T13:16:08Z</time></trkpt><trkpt lat="42.74969486743395" lon="12.234206160159355"><ele>424.0</ele><time>2026-04-04T13:16:09Z</time></trkpt><trkpt lat="42.7498344162205" lon="12.234206063095174"><ele>424.0</ele><time>2026-04-04T13:16:10Z</time></trkpt><trkpt lat="42.74996634536539" lon="12.234210665521966"><ele>424.0</ele><time>2026-04-04T13:16:11Z</time></trkpt><trkpt lat="42.75009653167273" lon="12.234213059696582"><ele>424.0</ele><time>2026-04-04T13:16:12Z</time></trkpt><trkpt lat="42.750227504472335" lon="12.23423609096008"><ele>424.0</ele><time>2026-04-04T13:16:13Z</time></trkpt><trkpt lat="42.75036893139774" lon="12.234261656616544"><ele>425.6666666666667</ele><time>2026-04-04T13:16:14Z</time></trkpt><trkpt lat="42.75051176424386" lon="12.234292771865064"><ele>427.33333333333337</ele><time>2026-04-04T13:16:15Z</time></trkpt><trkpt lat="42.75066601270619" lon="12.234338584628185"><ele>429.0</ele><time>2026-04-04T13:16:16Z</time></trkpt><trkpt lat="42.75082595722354" lon="12.234387262072971"><ele>429.0</ele><time>2026-04-04T13:16:17Z</time></trkpt><trkpt lat="42.75098910943139" lon="12.23443122450482"><ele>429.0</ele><time>2026-04-04T13:16:18Z</time></trkpt><trkpt lat="42.75116456452028" lon="12.234475698749268"><ele>429.0</ele><time>2026-04-04T13:16:19Z</time></trkpt><trkpt lat="42.75134759194444" lon="12.23453017242439"><ele>429.75</ele><time>2026-04-04T13:16:20Z</time></trkpt><trkpt lat="42.7515015039955" lon="12.234573307481854"><ele>430.5</ele><time>2026-04-04T13:16:21Z</time></trkpt><trkpt lat="42.75163448662042" lon="12.234615855009585"><ele>431.25</ele><time>2026-04-04T13:16:22Z</time></trkpt><trkpt lat="42.75176412932598" lon="12.234645478355423"><ele>432.0</ele><time>2026-04-04T13:16:23Z</time></trkpt><trkpt lat="42.751891141258795" lon="12.234682833772995"><ele>433.5</ele><time>2026-04-04T13:16:24Z</time></trkpt><trkpt lat="42.75201506453329" lon="12.234718675993962"><ele>435.0</ele><time>2026-04-04T13:16:25Z</time></trkpt><trkpt lat="42.752135617327546" lon="12.234747145126295"><ele>436.5</ele><time>2026-04-04T13:16:26.001Z</time></trkpt><trkpt lat="42.752253170774296" lon="12.234790779242807"><ele>438.0</ele><time>2026-04-04T13:16:27.001Z</time></trkpt><trkpt lat="42.75236850870527" lon="12.234814407983674"><ele>438.0</ele><time>2026-04-04T13:16:28.001Z</time></trkpt><trkpt lat="42.752474342442376" lon="12.234824349996867"><ele>437.99999999999994</ele><time>2026-04-04T13:16:29.001Z</time></trkpt><trkpt lat="42.75257569558073" lon="12.234804128599727"><ele>437.99999999999994</ele><time>2026-04-04T13:16:30.001Z</time></trkpt><trkpt lat="42.752661758647456" lon="12.234748984875026"><ele>438.0</ele><time>2026-04-04T13:16:31.001Z</time></trkpt><trkpt lat="42.75274798372598" lon="12.234665274281806"><ele>438.0</ele><time>2026-04-04T13:16:32.001Z</time></trkpt><trkpt lat="42.75286667730993" lon="12.234587921640415"><ele>439.75</ele><time>2026-04-04T13:16:33.001Z</time></trkpt><trkpt lat="42.75298537454469" lon="12.234477963758888"><ele>441.5</ele><time>2026-04-04T13:16:34.001Z</time></trkpt><trkpt lat="42.75309407243845" lon="12.234374893748091"><ele>443.25</ele><time>2026-04-04T13:16:35.001Z</time></trkpt><trkpt lat="42.75319579096929" lon="12.234278441867941"><ele>445.0</ele><time>2026-04-04T13:16:36.001Z</time></trkpt><trkpt lat="42.75328930673682" lon="12.234194098901627"><ele>445.0</ele><time>2026-04-04T13:16:37.001Z</time></trkpt><trkpt lat="42.75337377288257" lon="12.234123082144261"><ele>445.0</ele><time>2026-04-04T13:16:38.001Z</time></trkpt><trkpt lat="42.7534460625827" lon="12.234071120390935"><ele>445.0</ele><time>2026-04-04T13:16:39.001Z</time></trkpt><trkpt lat="42.75351328296162" lon="12.234011570118032"><ele>445.0</ele><time>2026-04-04T13:16:40.001Z</time></trkpt><trkpt lat="42.75360396458727" lon="12.23400136089793"><ele>445.0</ele><time>2026-04-04T13:16:41.001Z</time></trkpt><trkpt lat="42.753700983947475" lon="12.234012295303387"><ele>447.5</ele><time>2026-04-04T13:16:42.001Z</time></trkpt><trkpt lat="42.75380761043225" lon="12.23403523091455"><ele>450.0</ele><time>2026-04-04T13:16:43.001Z</time></trkpt><trkpt lat="42.753926137564434" lon="12.234060186464065"><ele>452.5</ele><time>2026-04-04T13:16:44.001Z</time></trkpt><trkpt lat="42.75404531764858" lon="12.234081787350622"><ele>455.0</ele><time>2026-04-04T13:16:45.001Z</time></trkpt><trkpt lat="42.75417175559711" lon="12.234105430579781"><ele>455.0</ele><time>2026-04-04T13:16:46.001Z</time></trkpt><trkpt lat="42.75430495681863" lon="12.234125995050805"><ele>455.0</ele><time>2026-04-04T13:16:47.001Z</time></trkpt><trkpt lat="42.75443892075685" lon="12.23415212682611"><ele>455.0</ele><time>2026-04-04T13:16:48.001Z</time></trkpt><trkpt lat="42.754571268101955" lon="12.23417254891852"><ele>455.0</ele><time>2026-04-04T13:16:49.001Z</time></trkpt><trkpt lat="42.75470644285412" lon="12.234191434592395"><ele>456.75</ele><time>2026-04-04T13:16:50.001Z</time></trkpt><trkpt lat="42.75484512703683" lon="12.234213647287499"><ele>458.5</ele><time>2026-04-04T13:16:51.001Z</time></trkpt><trkpt lat="42.7549819507682" lon="12.234222063838187"><ele>460.25</ele><time>2026-04-04T13:16:52.001Z</time></trkpt><trkpt lat="42.75510634009752" lon="12.234221532617681"><ele>462.0</ele><time>2026-04-04T13:16:53.001Z</time></trkpt><trkpt lat="42.75521963869756" lon="12.234224383546497"><ele>463.8333333333333</ele><time>2026-04-04T13:16:54.001Z</time></trkpt><trkpt lat="42.75531267075462" lon="12.234213529214102"><ele>465.66666666666663</ele><time>2026-04-04T13:16:55.001Z</time></trkpt><trkpt lat="42.75539027874866" lon="12.234207061189183"><ele>467.5</ele><time>2026-04-04T13:16:56.001Z</time></trkpt><trkpt lat="42.755491806299226" lon="12.23418137822592"><ele>469.3333333333333</ele><time>2026-04-04T13:16:58.001Z</time></trkpt><trkpt lat="42.755509795386644" lon="12.234055569118409"><ele>471.16666666666663</ele><time>2026-04-04T13:17:00.001Z</time></trkpt><trkpt lat="42.75548296878267" lon="12.233973300657013"><ele>473.0</ele><time>2026-04-04T13:17:01.001Z</time></trkpt><trkpt lat="42.755421643298575" lon="12.233914277650552"><ele>473.8333333333333</ele><time>2026-04-04T13:17:02.001Z</time></trkpt><trkpt lat="42.75535886295498" lon="12.233877264199077"><ele>474.66666666666663</ele><time>2026-04-04T13:17:03.001Z</time></trkpt><trkpt lat="42.755294206972984" lon="12.233841148137257"><ele>475.5</ele><time>2026-04-04T13:17:04.001Z</time></trkpt><trkpt lat="42.75521388939927" lon="12.233794343356319"><ele>476.33333333333337</ele><time>2026-04-04T13:17:05.001Z</time></trkpt><trkpt lat="42.75512676312228" lon="12.233741612171846"><ele>477.1666666666667</ele><time>2026-04-04T13:17:06.001Z</time></trkpt><trkpt lat="42.75505420920015" lon="12.233663295266709"><ele>478.0</ele><time>2026-04-04T13:17:07.001Z</time></trkpt><trkpt lat="42.75496838968804" lon="12.233570100646176"><ele>478.0</ele><time>2026-04-04T13:17:08.001Z</time></trkpt><trkpt lat="42.75487707865596" lon="12.233468170515737"><ele>478.0</ele><time>2026-04-04T13:17:09.001Z</time></trkpt><trkpt lat="42.75478852352973" lon="12.233362911532346"><ele>478.0</ele><time>2026-04-04T13:17:10.001Z</time></trkpt><trkpt lat="42.754692781511466" lon="12.233259442363734"><ele>478.0</ele><time>2026-04-04T13:17:11.001Z</time></trkpt><trkpt lat="42.754612698049996" lon="12.233151309093259"><ele>480.79999999999995</ele><time>2026-04-04T13:17:12.001Z</time></trkpt><trkpt lat="42.75456813803375" lon="12.233020048224825"><ele>483.59999999999997</ele><time>2026-04-04T13:17:13.001Z</time></trkpt><trkpt lat="42.75452281094547" lon="12.232897079021894"><ele>486.40000000000003</ele><time>2026-04-04T13:17:14.001Z</time></trkpt><trkpt lat="42.75447568828283" lon="12.23275894016624"><ele>489.20000000000005</ele><time>2026-04-04T13:17:15.001Z</time></trkpt><trkpt lat="42.75442546200085" lon="12.232606259780912"><ele>492.0</ele><time>2026-04-04T13:17:16.001Z</time></trkpt><trkpt lat="42.75437201612459" lon="12.232440793925988"><ele>491.0</ele><time>2026-04-04T13:17:17.001Z</time></trkpt><trkpt lat="42.75431878868599" lon="12.232277866959874"><ele>490.0</ele><time>2026-04-04T13:17:18.001Z</time></trkpt><trkpt lat="42.75426665604538" lon="12.232126497426853"><ele>489.0</ele><time>2026-04-04T13:17:19.001Z</time></trkpt><trkpt lat="42.75420459904522" lon="12.231984097994635"><ele>488.0</ele><time>2026-04-04T13:17:20.001Z</time></trkpt><trkpt lat="42.754161108415424" lon="12.231843219244187"><ele>488.0</ele><time>2026-04-04T13:17:21.001Z</time></trkpt><trkpt lat="42.754097680425964" lon="12.231717461251728"><ele>488.0</ele><time>2026-04-04T13:17:22.001Z</time></trkpt><trkpt lat="42.75402931117394" lon="12.231591473281432"><ele>488.0</ele><time>2026-04-04T13:17:23.001Z</time></trkpt><trkpt lat="42.753981095061896" lon="12.23145450173041"><ele>488.0</ele><time>2026-04-04T13:17:24.001Z</time></trkpt><trkpt lat="42.75392354375091" lon="12.231317994479394"><ele>489.59999999999997</ele><time>2026-04-04T13:17:25.001Z</time></trkpt><trkpt lat="42.75387106994007" lon="12.231193201564572"><ele>491.19999999999993</ele><time>2026-04-04T13:17:26.001Z</time></trkpt><trkpt lat="42.75381009775608" lon="12.231076014131576"><ele>492.8</ele><time>2026-04-04T13:17:27Z</time></trkpt><trkpt lat="42.75376348798406" lon="12.230947201538491"><ele>494.4</ele><time>2026-04-04T13:17:28Z</time></trkpt><trkpt lat="42.75372149084998" lon="12.230839736526582"><ele>496.0</ele><time>2026-04-04T13:17:29Z</time></trkpt><trkpt lat="42.75368599215035" lon="12.230738135299829"><ele>495.6666666666667</ele><time>2026-04-04T13:17:30Z</time></trkpt><trkpt lat="42.75364745051552" lon="12.23063661193718"><ele>495.33333333333337</ele><time>2026-04-04T13:17:31Z</time></trkpt><trkpt lat="42.753605673068975" lon="12.230520805892791"><ele>495.0</ele><time>2026-04-04T13:17:32Z</time></trkpt><trkpt lat="42.75356486021463" lon="12.230405800238998"><ele>494.66666666666663</ele><time>2026-04-04T13:17:33Z</time></trkpt><trkpt lat="42.75352537613172" lon="12.23030992621907"><ele>494.3333333333333</ele><time>2026-04-04T13:17:34Z</time></trkpt><trkpt lat="42.753488661701596" lon="12.23020899017439"><ele>494.0</ele><time>2026-04-04T13:17:35Z</time></trkpt><trkpt lat="42.75346574300787" lon="12.230107093275107"><ele>493.16666666666663</ele><time>2026-04-04T13:17:36Z</time></trkpt><trkpt lat="42.75345757129989" lon="12.23000435696024"><ele>492.3333333333333</ele><time>2026-04-04T13:17:37Z</time></trkpt><trkpt lat="42.7534748998881" lon="12.229916689175784"><ele>491.5</ele><time>2026-04-04T13:17:38Z</time></trkpt><trkpt lat="42.75351589479359" lon="12.229837682821742"><ele>490.66666666666663</ele><time>2026-04-04T13:17:39Z</time></trkpt><trkpt lat="42.753583281406655" lon="12.229777342513573"><ele>489.8333333333333</ele><time>2026-04-04T13:17:40Z</time></trkpt><trkpt lat="42.75367691681933" lon="12.22975529139607"><ele>489.0</ele><time>2026-04-04T13:17:41Z</time></trkpt><trkpt lat="42.753769819278915" lon="12.229709735198265"><ele>487.79999999999995</ele><time>2026-04-04T13:17:42Z</time></trkpt><trkpt lat="42.75386614897896" lon="12.229645607728102"><ele>486.59999999999997</ele><time>2026-04-04T13:17:43Z</time></trkpt><trkpt lat="42.753971105038815" lon="12.229598092441563"><ele>485.4</ele><time>2026-04-04T13:17:44Z</time></trkpt><trkpt lat="42.75407398886118" lon="12.229550686299627"><ele>484.2</ele><time>2026-04-04T13:17:45Z</time></trkpt><trkpt lat="42.75417791034283" lon="12.229502359073392"><ele>483.0</ele><time>2026-04-04T13:17:46Z</time></trkpt><trkpt lat="42.754285046371486" lon="12.229452877265146"><ele>483.2</ele><time>2026-04-04T13:17:47Z</time></trkpt><trkpt lat="42.754390818361486" lon="12.2294109697612"><ele>483.4</ele><time>2026-04-04T13:17:48Z</time></trkpt><trkpt lat="42.75449134259101" lon="12.229361288770196"><ele>483.59999999999997</ele><time>2026-04-04T13:17:49Z</time></trkpt><trkpt lat="42.75459288420598" lon="12.22931681012248"><ele>483.79999999999995</ele><time>2026-04-04T13:17:50Z</time></trkpt><trkpt lat="42.754686722338505" lon="12.229274123270221"><ele>484.0</ele><time>2026-04-04T13:17:51Z</time></trkpt><trkpt lat="42.75478078901381" lon="12.229234793982119"><ele>484.00000000000006</ele><time>2026-04-04T13:17:52Z</time></trkpt><trkpt lat="42.75486675185737" lon="12.22917261989497"><ele>484.0</ele><time>2026-04-04T13:17:53Z</time></trkpt><trkpt lat="42.75494537492975" lon="12.229093227484654"><ele>484.0</ele><time>2026-04-04T13:17:54Z</time></trkpt><trkpt lat="42.75500648277479" lon="12.229005104653956"><ele>484.0</ele><time>2026-04-04T13:17:55Z</time></trkpt><trkpt lat="42.7550574609572" lon="12.22891995639398"><ele>484.00000000000006</ele><time>2026-04-04T13:17:56Z</time></trkpt><trkpt lat="42.75510452977623" lon="12.228855288283777"><ele>484.0</ele><time>2026-04-04T13:17:57Z</time></trkpt><trkpt lat="42.75521322304333" lon="12.2287668589336"><ele>482.33333333333337</ele><time>2026-04-04T13:17:59Z</time></trkpt><trkpt lat="42.755287596687694" lon="12.228751999187981"><ele>480.6666666666667</ele><time>2026-04-04T13:18:00Z</time></trkpt><trkpt lat="42.75537285415005" lon="12.2287582767551"><ele>479.0</ele><time>2026-04-04T13:18:01Z</time></trkpt><trkpt lat="42.755459947627806" lon="12.228769771210764"><ele>477.33333333333337</ele><time>2026-04-04T13:18:02Z</time></trkpt><trkpt lat="42.755551141971914" lon="12.228783043114547"><ele>475.6666666666667</ele><time>2026-04-04T13:18:03Z</time></trkpt><trkpt lat="42.75563349460314" lon="12.228800914908206"><ele>474.0</ele><time>2026-04-04T13:18:04Z</time></trkpt><trkpt lat="42.75571343547976" lon="12.228810079143827"><ele>474.0</ele><time>2026-04-04T13:18:05Z</time></trkpt><trkpt lat="42.755788012903906" lon="12.228818548549944"><ele>474.0</ele><time>2026-04-04T13:18:06Z</time></trkpt><trkpt lat="42.75585727349375" lon="12.228795668561498"><ele>474.0</ele><time>2026-04-04T13:18:07Z</time></trkpt><trkpt lat="42.75592223935036" lon="12.228750398420805"><ele>474.0</ele><time>2026-04-04T13:18:08Z</time></trkpt><trkpt lat="42.755986410473106" lon="12.228685229305444"><ele>474.0</ele><time>2026-04-04T13:18:09Z</time></trkpt><trkpt lat="42.75604634181866" lon="12.228603821129031"><ele>474.0</ele><time>2026-04-04T13:18:10Z</time></trkpt><trkpt lat="42.75610711326128" lon="12.228521515547232"><ele>472.8333333333333</ele><time>2026-04-04T13:18:11Z</time></trkpt><trkpt lat="42.75615927229349" lon="12.228441075499141"><ele>471.66666666666663</ele><time>2026-04-04T13:18:12Z</time></trkpt><trkpt lat="42.75619490679419" lon="12.228350380797055"><ele>470.5</ele><time>2026-04-04T13:18:13Z</time></trkpt><trkpt lat="42.756209454730964" lon="12.228250693872607"><ele>469.3333333333333</ele><time>2026-04-04T13:18:14Z</time></trkpt><trkpt lat="42.756204819256176" lon="12.228145461610717"><ele>468.16666666666663</ele><time>2026-04-04T13:18:15Z</time></trkpt><trkpt lat="42.75618032879291" lon="12.228034356090635"><ele>467.0</ele><time>2026-04-04T13:18:16Z</time></trkpt><trkpt lat="42.75614476198463" lon="12.227922150417"><ele>467.0</ele><time>2026-04-04T13:18:17Z</time></trkpt><trkpt lat="42.756138838760606" lon="12.227796446213546"><ele>467.00000000000006</ele><time>2026-04-04T13:18:18Z</time></trkpt><trkpt lat="42.75613409386645" lon="12.227676485390399"><ele>467.00000000000006</ele><time>2026-04-04T13:18:19Z</time></trkpt><trkpt lat="42.75615347738848" lon="12.227561607104352"><ele>467.0</ele><time>2026-04-04T13:18:20Z</time></trkpt><trkpt lat="42.75619521987996" lon="12.227456747664815"><ele>467.0</ele><time>2026-04-04T13:18:21Z</time></trkpt><trkpt lat="42.756237452739455" lon="12.227338338434187"><ele>466.99999999999994</ele><time>2026-04-04T13:18:22Z</time></trkpt><trkpt lat="42.756281707939536" lon="12.227216179135459"><ele>467.0</ele><time>2026-04-04T13:18:23Z</time></trkpt><trkpt lat="42.75632415551356" lon="12.227101505964022"><ele>467.0</ele><time>2026-04-04T13:18:24Z</time></trkpt><trkpt lat="42.75636896981254" lon="12.226995601106045"><ele>467.0</ele><time>2026-04-04T13:18:25Z</time></trkpt><trkpt lat="42.75642152306486" lon="12.226913937153949"><ele>466.99999999999994</ele><time>2026-04-04T13:18:26Z</time></trkpt><trkpt lat="42.75647714739708" lon="12.226861248327808"><ele>467.0</ele><time>2026-04-04T13:18:27Z</time></trkpt><trkpt lat="42.75653344954559" lon="12.226810737473476"><ele>467.0</ele><time>2026-04-04T13:18:28Z</time></trkpt><trkpt lat="42.75661121703466" lon="12.226823963629458"><ele>467.00000000000006</ele><time>2026-04-04T13:18:29Z</time></trkpt><trkpt lat="42.75669553116081" lon="12.226837359574668"><ele>467.00000000000006</ele><time>2026-04-04T13:18:30Z</time></trkpt><trkpt lat="42.75679676109662" lon="12.226852612782457"><ele>467.0</ele><time>2026-04-04T13:18:31Z</time></trkpt><trkpt lat="42.756912142489234" lon="12.226854890944177"><ele>467.0</ele><time>2026-04-04T13:18:32Z</time></trkpt><trkpt lat="42.75702998037476" lon="12.226904664572535"><ele>466.75</ele><time>2026-04-04T13:18:33Z</time></trkpt><trkpt lat="42.75715412141391" lon="12.226944203646022"><ele>466.5</ele><time>2026-04-04T13:18:34Z</time></trkpt><trkpt lat="42.7572815741592" lon="12.22696924371476"><ele>466.25</ele><time>2026-04-04T13:18:35Z</time></trkpt><trkpt lat="42.75739702752958" lon="12.227046914437336"><ele>466.0</ele><time>2026-04-04T13:18:36Z</time></trkpt><trkpt lat="42.75752704564752" lon="12.227088312840765"><ele>466.0</ele><time>2026-04-04T13:18:37Z</time></trkpt><trkpt lat="42.75764780445767" lon="12.2271464026498"><ele>466.0</ele><time>2026-04-04T13:18:38Z</time></trkpt><trkpt lat="42.75776388799905" lon="12.227180820698063"><ele>466.0</ele><time>2026-04-04T13:18:39Z</time></trkpt><trkpt lat="42.75787992715397" lon="12.227194736973148"><ele>466.0</ele><time>2026-04-04T13:18:40.001Z</time></trkpt><trkpt lat="42.75799485740699" lon="12.227199053818183"><ele>466.25</ele><time>2026-04-04T13:18:41.001Z</time></trkpt><trkpt lat="42.7581085545019" lon="12.227196859198862"><ele>466.5</ele><time>2026-04-04T13:18:42.001Z</time></trkpt><trkpt lat="42.758224873656076" lon="12.227182805861306"><ele>466.75</ele><time>2026-04-04T13:18:43.001Z</time></trkpt><trkpt lat="42.75833598424774" lon="12.227183190419556"><ele>467.0</ele><time>2026-04-04T13:18:44.001Z</time></trkpt><trkpt lat="42.75844522391867" lon="12.227170549348255"><ele>467.75</ele><time>2026-04-04T13:18:45.001Z</time></trkpt><trkpt lat="42.758550997486616" lon="12.227163500461995"><ele>468.5</ele><time>2026-04-04T13:18:46.001Z</time></trkpt><trkpt lat="42.75866618612578" lon="12.2271585426011"><ele>469.25</ele><time>2026-04-04T13:18:47.001Z</time></trkpt><trkpt lat="42.75878412770632" lon="12.227151927087123"><ele>470.0</ele><time>2026-04-04T13:18:48.001Z</time></trkpt><trkpt lat="42.75889722578175" lon="12.227143390594778"><ele>470.0</ele><time>2026-04-04T13:18:49.001Z</time></trkpt><trkpt lat="42.75900215747613" lon="12.227134551273725"><ele>470.0</ele><time>2026-04-04T13:18:50.001Z</time></trkpt><trkpt lat="42.75909739758013" lon="12.227122414835849"><ele>470.0</ele><time>2026-04-04T13:18:51.001Z</time></trkpt><trkpt lat="42.75917960910595" lon="12.227098454779933"><ele>470.0</ele><time>2026-04-04T13:18:52.001Z</time></trkpt><trkpt lat="42.75925609053457" lon="12.227060023235532"><ele>470.0</ele><time>2026-04-04T13:18:53.001Z</time></trkpt><trkpt lat="42.75934097485399" lon="12.227022531908972"><ele>469.8333333333333</ele><time>2026-04-04T13:18:54.001Z</time></trkpt><trkpt lat="42.75941705729334" lon="12.226944659174729"><ele>469.66666666666663</ele><time>2026-04-04T13:18:55.001Z</time></trkpt><trkpt lat="42.75948306861129" lon="12.226859637316199"><ele>469.5</ele><time>2026-04-04T13:18:56.001Z</time></trkpt><trkpt lat="42.75954282388553" lon="12.226773433274506"><ele>469.33333333333337</ele><time>2026-04-04T13:18:57.001Z</time></trkpt><trkpt lat="42.75959017219252" lon="12.22668776656619"><ele>469.1666666666667</ele><time>2026-04-04T13:18:58.001Z</time></trkpt><trkpt lat="42.7596233116931" lon="12.226587371758354"><ele>469.0</ele><time>2026-04-04T13:18:59.001Z</time></trkpt><trkpt lat="42.7596492433391" lon="12.226472537694587"><ele>469.00000000000006</ele><time>2026-04-04T13:19:00.001Z</time></trkpt><trkpt lat="42.75964911195007" lon="12.226348571893721"><ele>469.0</ele><time>2026-04-04T13:19:01.001Z</time></trkpt><trkpt lat="42.75967388883751" lon="12.226242539895136"><ele>469.0</ele><time>2026-04-04T13:19:02.001Z</time></trkpt><trkpt lat="42.75967634814679" lon="12.226134539000961"><ele>469.0</ele><time>2026-04-04T13:19:03.001Z</time></trkpt><trkpt lat="42.75968130505807" lon="12.226018481830202"><ele>469.00000000000006</ele><time>2026-04-04T13:19:04.001Z</time></trkpt><trkpt lat="42.75969488935403" lon="12.225890963818188"><ele>469.0</ele><time>2026-04-04T13:19:05.001Z</time></trkpt><trkpt lat="42.7597142509451" lon="12.225759528057472"><ele>468.4</ele><time>2026-04-04T13:19:06.001Z</time></trkpt><trkpt lat="42.75973600874435" lon="12.225626220487843"><ele>467.79999999999995</ele><time>2026-04-04T13:19:07.001Z</time></trkpt><trkpt lat="42.75974429925928" lon="12.225486929147886"><ele>467.20000000000005</ele><time>2026-04-04T13:19:08.001Z</time></trkpt><trkpt lat="42.75977069707294" lon="12.225367371860916"><ele>466.6</ele><time>2026-04-04T13:19:09.001Z</time></trkpt><trkpt lat="42.75979364536415" lon="12.225253394561985"><ele>466.0</ele><time>2026-04-04T13:19:10.001Z</time></trkpt><trkpt lat="42.75981394505157" lon="12.225135543225779"><ele>466.00000000000006</ele><time>2026-04-04T13:19:11.001Z</time></trkpt><trkpt lat="42.75983503956994" lon="12.225019459338737"><ele>466.0</ele><time>2026-04-04T13:19:12.001Z</time></trkpt><trkpt lat="42.75985962357157" lon="12.224907938578664"><ele>466.0</ele><time>2026-04-04T13:19:13.001Z</time></trkpt><trkpt lat="42.75990672989166" lon="12.224798914534317"><ele>466.0</ele><time>2026-04-04T13:19:14.001Z</time></trkpt><trkpt lat="42.759947551958334" lon="12.224689197207704"><ele>466.00000000000006</ele><time>2026-04-04T13:19:15.001Z</time></trkpt><trkpt lat="42.76000126520353" lon="12.224592287459892"><ele>466.0</ele><time>2026-04-04T13:19:16.001Z</time></trkpt><trkpt lat="42.760049917595545" lon="12.224481694060946"><ele>465.83333333333337</ele><time>2026-04-04T13:19:17.001Z</time></trkpt><trkpt lat="42.76011345493963" lon="12.224387802560342"><ele>465.6666666666667</ele><time>2026-04-04T13:19:18.001Z</time></trkpt><trkpt lat="42.760182199822665" lon="12.224309673420654"><ele>465.5</ele><time>2026-04-04T13:19:19.001Z</time></trkpt><trkpt lat="42.76024723312565" lon="12.224243513787204"><ele>465.33333333333337</ele><time>2026-04-04T13:19:20.001Z</time></trkpt><trkpt lat="42.76032715193026" lon="12.224202712358245"><ele>465.1666666666667</ele><time>2026-04-04T13:19:21.001Z</time></trkpt><trkpt lat="42.76041353202836" lon="12.224181995146555"><ele>465.0</ele><time>2026-04-04T13:19:22.001Z</time></trkpt><trkpt lat="42.76050721577023" lon="12.224188177300247"><ele>465.6</ele><time>2026-04-04T13:19:23.001Z</time></trkpt><trkpt lat="42.7605957478137" lon="12.2242416552045"><ele>466.2</ele><time>2026-04-04T13:19:24.001Z</time></trkpt><trkpt lat="42.76069457718236" lon="12.224271552867766"><ele>466.79999999999995</ele><time>2026-04-04T13:19:25.001Z</time></trkpt><trkpt lat="42.7607983135022" lon="12.224305567995104"><ele>467.4</ele><time>2026-04-04T13:19:26.001Z</time></trkpt><trkpt lat="42.76090337735" lon="12.22434312479372"><ele>468.0</ele><time>2026-04-04T13:19:27.001Z</time></trkpt><trkpt lat="42.76101298003258" lon="12.224376986893043"><ele>468.75</ele><time>2026-04-04T13:19:28.001Z</time></trkpt><trkpt lat="42.761115443163646" lon="12.224419224981443"><ele>469.5</ele><time>2026-04-04T13:19:29.001Z</time></trkpt><trkpt lat="42.76123371584795" lon="12.224448308970288"><ele>470.25</ele><time>2026-04-04T13:19:30.001Z</time></trkpt><trkpt lat="42.76134461516382" lon="12.224492965641344"><ele>471.0</ele><time>2026-04-04T13:19:31.001Z</time></trkpt><trkpt lat="42.76145361539434" lon="12.22452052893233"><ele>471.0</ele><time>2026-04-04T13:19:32.001Z</time></trkpt><trkpt lat="42.76156319636339" lon="12.224564099546956"><ele>471.0</ele><time>2026-04-04T13:19:33Z</time></trkpt><trkpt lat="42.76166759261586" lon="12.2246116547461"><ele>471.0</ele><time>2026-04-04T13:19:34Z</time></trkpt><trkpt lat="42.761771069664405" lon="12.22468082933599"><ele>471.0</ele><time>2026-04-04T13:19:35Z</time></trkpt><trkpt lat="42.7618710344732" lon="12.22471867563909"><ele>471.0</ele><time>2026-04-04T13:19:36Z</time></trkpt><trkpt lat="42.76197902375349" lon="12.22475769362489"><ele>471.8</ele><time>2026-04-04T13:19:37Z</time></trkpt><trkpt lat="42.7620834612541" lon="12.224795329070979"><ele>472.6</ele><time>2026-04-04T13:19:38Z</time></trkpt><trkpt lat="42.762192942746935" lon="12.22480948982775"><ele>473.4</ele><time>2026-04-04T13:19:39Z</time></trkpt><trkpt lat="42.76230048032923" lon="12.224825690989634"><ele>474.2</ele><time>2026-04-04T13:19:40Z</time></trkpt><trkpt lat="42.76239035464232" lon="12.224849257376667"><ele>475.0</ele><time>2026-04-04T13:19:41Z</time></trkpt><trkpt lat="42.76247853305688" lon="12.224866272116609"><ele>475.00000000000006</ele><time>2026-04-04T13:19:42Z</time></trkpt><trkpt lat="42.76257421965201" lon="12.224879766221402"><ele>475.0</ele><time>2026-04-04T13:19:43Z</time></trkpt><trkpt lat="42.76265394789071" lon="12.224902681049732"><ele>475.0</ele><time>2026-04-04T13:19:44Z</time></trkpt><trkpt lat="42.76272793738706" lon="12.224895027325779"><ele>475.0</ele><time>2026-04-04T13:19:45Z</time></trkpt><trkpt lat="42.762794547385866" lon="12.224884977278798"><ele>475.00000000000006</ele><time>2026-04-04T13:19:46Z</time></trkpt><trkpt lat="42.762856755570596" lon="12.224813834197949"><ele>475.0</ele><time>2026-04-04T13:19:47Z</time></trkpt><trkpt lat="42.76286304596096" lon="12.224632256837655"><ele>475.00000000000006</ele><time>2026-04-04T13:19:49Z</time></trkpt><trkpt lat="42.76285469368452" lon="12.224530851929266"><ele>475.0</ele><time>2026-04-04T13:19:50Z</time></trkpt><trkpt lat="42.762869001942846" lon="12.224411475029973"><ele>475.0</ele><time>2026-04-04T13:19:51Z</time></trkpt><trkpt lat="42.762871188769964" lon="12.224320621616574"><ele>475.0</ele><time>2026-04-04T13:19:52Z</time></trkpt><trkpt lat="42.76286980015252" lon="12.224161383434904"><ele>475.00000000000006</ele><time>2026-04-04T13:19:54Z</time></trkpt><trkpt lat="42.76289553022323" lon="12.2240578050475"><ele>475.0</ele><time>2026-04-04T13:20:29Z</time></trkpt><trkpt lat="42.762890523534175" lon="12.22388661270516"><ele>475.4</ele><time>2026-04-04T13:20:31Z</time></trkpt><trkpt lat="42.76289546650695" lon="12.223777723208686"><ele>475.8</ele><time>2026-04-04T13:20:32Z</time></trkpt><trkpt lat="42.76289969851375" lon="12.223642826423147"><ele>476.20000000000005</ele><time>2026-04-04T13:20:33Z</time></trkpt><trkpt lat="42.76290255472068" lon="12.223495390530898"><ele>476.6</ele><time>2026-04-04T13:20:34Z</time></trkpt><trkpt lat="42.762898503583244" lon="12.223349791159292"><ele>477.0</ele><time>2026-04-04T13:20:35Z</time></trkpt><trkpt lat="42.76288458954645" lon="12.223202394731615"><ele>477.5</ele><time>2026-04-04T13:20:36Z</time></trkpt><trkpt lat="42.762864021960375" lon="12.22306622664339"><ele>478.0</ele><time>2026-04-04T13:20:37Z</time></trkpt><trkpt lat="42.76284636344566" lon="12.222942406090176"><ele>478.5</ele><time>2026-04-04T13:20:38Z</time></trkpt><trkpt lat="42.762833810745676" lon="12.222833729948128"><ele>479.0</ele><time>2026-04-04T13:20:39Z</time></trkpt><trkpt lat="42.76282445056647" lon="12.222733955703765"><ele>479.5</ele><time>2026-04-04T13:20:40Z</time></trkpt><trkpt lat="42.762816498055" lon="12.222648707577019"><ele>480.0</ele><time>2026-04-04T13:20:41Z</time></trkpt><trkpt lat="42.762802816532044" lon="12.222529848656071"><ele>480.0</ele><time>2026-04-04T13:20:43Z</time></trkpt><trkpt lat="42.7628117390332" lon="12.222652726314035"><ele>480.0</ele><time>2026-04-04T13:20:51Z</time></trkpt><trkpt lat="42.76282522101053" lon="12.222741905651072"><ele>480.0</ele><time>2026-04-04T13:20:52Z</time></trkpt><trkpt lat="42.762828680660775" lon="12.222931172238376"><ele>480.0</ele><time>2026-04-04T13:20:53Z</time></trkpt><trkpt lat="42.76285152155461" lon="12.223051127282318"><ele>480.0</ele><time>2026-04-04T13:20:54Z</time></trkpt><trkpt lat="42.762868170929494" lon="12.223177353747317"><ele>479.4</ele><time>2026-04-04T13:20:55Z</time></trkpt><trkpt lat="42.762878940088704" lon="12.22330613918847"><ele>478.8</ele><time>2026-04-04T13:20:56.001Z</time></trkpt><trkpt lat="42.76288388546773" lon="12.223433281866601"><ele>478.20000000000005</ele><time>2026-04-04T13:20:57.001Z</time></trkpt><trkpt lat="42.76288297865928" lon="12.223566431792268"><ele>477.6</ele><time>2026-04-04T13:20:58.001Z</time></trkpt><trkpt lat="42.76287637080717" lon="12.223695700684267"><ele>477.0</ele><time>2026-04-04T13:20:59.001Z</time></trkpt><trkpt lat="42.76286863403895" lon="12.223809628694276"><ele>477.0</ele><time>2026-04-04T13:21:00.001Z</time></trkpt><trkpt lat="42.762870796876456" lon="12.22391866024485"><ele>477.0</ele><time>2026-04-04T13:21:01.001Z</time></trkpt><trkpt lat="42.762880681090344" lon="12.22402812097675"><ele>477.0</ele><time>2026-04-04T13:21:02.001Z</time></trkpt><trkpt lat="42.762914181432215" lon="12.224130517368001"><ele>477.0</ele><time>2026-04-04T13:21:03.001Z</time></trkpt><trkpt lat="42.76296574924705" lon="12.224225890475315"><ele>477.0</ele><time>2026-04-04T13:21:04.001Z</time></trkpt><trkpt lat="42.76303627009593" lon="12.224308781864256"><ele>477.0</ele><time>2026-04-04T13:21:05.001Z</time></trkpt><trkpt lat="42.76311943575028" lon="12.224384818101427"><ele>477.0</ele><time>2026-04-04T13:21:06.001Z</time></trkpt><trkpt lat="42.76320919396103" lon="12.224470084693534"><ele>477.0</ele><time>2026-04-04T13:21:07.001Z</time></trkpt><trkpt lat="42.76332020526176" lon="12.22449663424839"><ele>477.0</ele><time>2026-04-04T13:21:08.001Z</time></trkpt><trkpt lat="42.76343250857642" lon="12.224542493994887"><ele>477.0</ele><time>2026-04-04T13:21:09.001Z</time></trkpt><trkpt lat="42.76355032560747" lon="12.224591502184687"><ele>477.0</ele><time>2026-04-04T13:21:10.001Z</time></trkpt><trkpt lat="42.76366903518826" lon="12.224660427040146"><ele>477.0</ele><time>2026-04-04T13:21:11.001Z</time></trkpt><trkpt lat="42.76378752858594" lon="12.224736800798585"><ele>477.0</ele><time>2026-04-04T13:21:12.001Z</time></trkpt><trkpt lat="42.76391193865715" lon="12.224812778876993"><ele>477.0</ele><time>2026-04-04T13:21:13.001Z</time></trkpt><trkpt lat="42.764033156261206" lon="12.22489434166313"><ele>474.25</ele><time>2026-04-04T13:21:14.001Z</time></trkpt><trkpt lat="42.76416978132234" lon="12.224920031596488"><ele>471.5</ele><time>2026-04-04T13:21:15.001Z</time></trkpt><trkpt lat="42.76431014106462" lon="12.224943294399843"><ele>468.75</ele><time>2026-04-04T13:21:16.001Z</time></trkpt><trkpt lat="42.764464053267204" lon="12.22496143321924"><ele>466.0</ele><time>2026-04-04T13:21:17.001Z</time></trkpt><trkpt lat="42.764623691779434" lon="12.224993578939651"><ele>466.0</ele><time>2026-04-04T13:21:18.001Z</time></trkpt><trkpt lat="42.76477744240949" lon="12.225034632379174"><ele>466.0</ele><time>2026-04-04T13:21:19.001Z</time></trkpt><trkpt lat="42.764935093740405" lon="12.225068692404284"><ele>466.0</ele><time>2026-04-04T13:21:20.001Z</time></trkpt><trkpt lat="42.76508533054314" lon="12.225106297218225"><ele>465.6666666666667</ele><time>2026-04-04T13:21:21.001Z</time></trkpt><trkpt lat="42.765248787339104" lon="12.225151486898456"><ele>465.33333333333337</ele><time>2026-04-04T13:21:22.001Z</time></trkpt><trkpt lat="42.76542945775119" lon="12.225202738353676"><ele>465.0</ele><time>2026-04-04T13:21:23.001Z</time></trkpt><trkpt lat="42.765603010025956" lon="12.225261156326788"><ele>465.0</ele><time>2026-04-04T13:21:24.001Z</time></trkpt><trkpt lat="42.76577076443568" lon="12.225317901881082"><ele>465.0</ele><time>2026-04-04T13:21:25.001Z</time></trkpt><trkpt lat="42.765934005277046" lon="12.225369571376095"><ele>465.0</ele><time>2026-04-04T13:21:26.001Z</time></trkpt><trkpt lat="42.766094834189886" lon="12.225422793050138"><ele>461.0</ele><time>2026-04-04T13:21:27.001Z</time></trkpt><trkpt lat="42.766253617458936" lon="12.225471878201885"><ele>457.0</ele><time>2026-04-04T13:21:28.001Z</time></trkpt><trkpt lat="42.766408310655734" lon="12.225500706177257"><ele>453.0</ele><time>2026-04-04T13:21:29.001Z</time></trkpt><trkpt lat="42.76655399890781" lon="12.225516653467897"><ele>453.0</ele><time>2026-04-04T13:21:30.001Z</time></trkpt><trkpt lat="42.766679095445646" lon="12.225510847060962"><ele>452.99999999999994</ele><time>2026-04-04T13:21:31.001Z</time></trkpt><trkpt lat="42.76678048477827" lon="12.225484912529254"><ele>452.99999999999994</ele><time>2026-04-04T13:21:32.001Z</time></trkpt><trkpt lat="42.766862778121364" lon="12.225434326428076"><ele>453.0</ele><time>2026-04-04T13:21:33.001Z</time></trkpt><trkpt lat="42.7669188680297" lon="12.225346165872073"><ele>453.0</ele><time>2026-04-04T13:21:34.001Z</time></trkpt><trkpt lat="42.766907430284235" lon="12.225204585451012"><ele>453.0</ele><time>2026-04-04T13:21:35.001Z</time></trkpt><trkpt lat="42.76686765958989" lon="12.225058433324197"><ele>453.0</ele><time>2026-04-04T13:21:36.001Z</time></trkpt><trkpt lat="42.766799484960856" lon="12.2248839448365"><ele>453.0</ele><time>2026-04-04T13:21:37.001Z</time></trkpt><trkpt lat="42.76673983651052" lon="12.224678911948368"><ele>453.0</ele><time>2026-04-04T13:21:38.001Z</time></trkpt><trkpt lat="42.76669655819464" lon="12.224498343092115"><ele>453.0</ele><time>2026-04-04T13:21:39Z</time></trkpt><trkpt lat="42.76664228918807" lon="12.224341232044504"><ele>452.99999999999994</ele><time>2026-04-04T13:21:40Z</time></trkpt><trkpt lat="42.766562755046934" lon="12.224229290201535"><ele>452.99999999999994</ele><time>2026-04-04T13:21:41Z</time></trkpt><trkpt lat="42.76647541317433" lon="12.224158720754664"><ele>453.0</ele><time>2026-04-04T13:21:42Z</time></trkpt><trkpt lat="42.76640201163447" lon="12.224105695375322"><ele>453.0</ele><time>2026-04-04T13:21:43Z</time></trkpt><trkpt lat="42.76636829005983" lon="12.22395423643959"><ele>453.0</ele><time>2026-04-04T13:21:45Z</time></trkpt><trkpt lat="42.76641378886513" lon="12.223881502980895"><ele>452.99999999999994</ele><time>2026-04-04T13:21:46Z</time></trkpt><trkpt lat="42.766496442443554" lon="12.223863729441868"><ele>452.99999999999994</ele><time>2026-04-04T13:21:47Z</time></trkpt><trkpt lat="42.766578603060836" lon="12.223925234307096"><ele>453.0</ele><time>2026-04-04T13:21:48Z</time></trkpt><trkpt lat="42.76668063477194" lon="12.223951916221571"><ele>453.0</ele><time>2026-04-04T13:21:49Z</time></trkpt><trkpt lat="42.76677824937638" lon="12.22401059298817"><ele>452.4</ele><time>2026-04-04T13:21:50Z</time></trkpt><trkpt lat="42.76684863432071" lon="12.224113644206183"><ele>451.79999999999995</ele><time>2026-04-04T13:21:51Z</time></trkpt><trkpt lat="42.76683963880516" lon="12.22425099302673"><ele>451.2</ele><time>2026-04-04T13:21:52Z</time></trkpt><trkpt lat="42.76685417577933" lon="12.224390019256298"><ele>450.6</ele><time>2026-04-04T13:21:53Z</time></trkpt><trkpt lat="42.76689825349687" lon="12.22454829437118"><ele>450.0</ele><time>2026-04-04T13:21:54Z</time></trkpt><trkpt lat="42.766966202834524" lon="12.224703049007818"><ele>444.25</ele><time>2026-04-04T13:21:55Z</time></trkpt><trkpt lat="42.76705959815493" lon="12.22483665904372"><ele>438.5</ele><time>2026-04-04T13:21:56Z</time></trkpt><trkpt lat="42.767167682712774" lon="12.224929891217597"><ele>432.75</ele><time>2026-04-04T13:21:57Z</time></trkpt><trkpt lat="42.76727015765108" lon="12.225056269337522"><ele>427.0</ele><time>2026-04-04T13:21:58Z</time></trkpt><trkpt lat="42.767341838646296" lon="12.225224619108683"><ele>427.0</ele><time>2026-04-04T13:21:59Z</time></trkpt><trkpt lat="42.76738053967445" lon="12.225392279778312"><ele>427.0</ele><time>2026-04-04T13:22:00Z</time></trkpt><trkpt lat="42.767388907070504" lon="12.225560776237025"><ele>427.0</ele><time>2026-04-04T13:22:01Z</time></trkpt><trkpt lat="42.767355413952906" lon="12.22574452180615"><ele>427.0</ele><time>2026-04-04T13:22:02Z</time></trkpt><trkpt lat="42.76731417123048" lon="12.225933822491735"><ele>427.25</ele><time>2026-04-04T13:22:03Z</time></trkpt><trkpt lat="42.76727016469541" lon="12.226135081104989"><ele>427.5</ele><time>2026-04-04T13:22:04Z</time></trkpt><trkpt lat="42.76721663287179" lon="12.226318062250627"><ele>427.75</ele><time>2026-04-04T13:22:05Z</time></trkpt><trkpt lat="42.76714404019632" lon="12.226471831288746"><ele>428.0</ele><time>2026-04-04T13:22:06Z</time></trkpt><trkpt lat="42.76705398049127" lon="12.226601408344267"><ele>426.75</ele><time>2026-04-04T13:22:07Z</time></trkpt><trkpt lat="42.766947228171624" lon="12.226685474562656"><ele>425.5</ele><time>2026-04-04T13:22:08Z</time></trkpt><trkpt lat="42.766834949444416" lon="12.226712670512114"><ele>424.25</ele><time>2026-04-04T13:22:09Z</time></trkpt><trkpt lat="42.766722564069525" lon="12.226651061768901"><ele>423.0</ele><time>2026-04-04T13:22:10Z</time></trkpt><trkpt lat="42.766622999778164" lon="12.226549548515116"><ele>427.5</ele><time>2026-04-04T13:22:11Z</time></trkpt><trkpt lat="42.766507431935956" lon="12.226470165106555"><ele>432.0</ele><time>2026-04-04T13:22:12Z</time></trkpt><trkpt lat="42.76637628298679" lon="12.226427354000005"><ele>436.5</ele><time>2026-04-04T13:22:13Z</time></trkpt><trkpt lat="42.76622738054548" lon="12.226420977043873"><ele>441.0</ele><time>2026-04-04T13:22:14Z</time></trkpt><trkpt lat="42.76607881816157" lon="12.226388587471432"><ele>440.5</ele><time>2026-04-04T13:22:15Z</time></trkpt><trkpt lat="42.7659325014737" lon="12.22639582414275"><ele>440.0</ele><time>2026-04-04T13:22:16Z</time></trkpt><trkpt lat="42.76579414921805" lon="12.226384385141495"><ele>439.5</ele><time>2026-04-04T13:22:17Z</time></trkpt><trkpt lat="42.76565657368686" lon="12.226377854084232"><ele>439.0</ele><time>2026-04-04T13:22:18Z</time></trkpt><trkpt lat="42.765536824168066" lon="12.226381615272754"><ele>439.00000000000006</ele><time>2026-04-04T13:22:19Z</time></trkpt><trkpt lat="42.76543974170545" lon="12.22639142998367"><ele>439.0</ele><time>2026-04-04T13:22:20Z</time></trkpt><trkpt lat="42.765364121268384" lon="12.226432921126277"><ele>439.0</ele><time>2026-04-04T13:22:21Z</time></trkpt><trkpt lat="42.76532628968184" lon="12.226516021267365"><ele>439.0</ele><time>2026-04-04T13:22:22Z</time></trkpt><trkpt lat="42.76533226190465" lon="12.226629239614534"><ele>439.00000000000006</ele><time>2026-04-04T13:22:23Z</time></trkpt><trkpt lat="42.76539203586783" lon="12.226741839358077"><ele>439.0</ele><time>2026-04-04T13:22:24Z</time></trkpt><trkpt lat="42.76546917510829" lon="12.226843071397132"><ele>432.6666666666667</ele><time>2026-04-04T13:22:25Z</time></trkpt><trkpt lat="42.765574400413854" lon="12.22697755336452"><ele>426.33333333333337</ele><time>2026-04-04T13:22:26Z</time></trkpt><trkpt lat="42.76569100218498" lon="12.22714902449384"><ele>420.0</ele><time>2026-04-04T13:22:27Z</time></trkpt><trkpt lat="42.76580843283862" lon="12.227330921037124"><ele>419.33333333333337</ele><time>2026-04-04T13:22:28Z</time></trkpt><trkpt lat="42.765945624968076" lon="12.227532380543737"><ele>418.6666666666667</ele><time>2026-04-04T13:22:29Z</time></trkpt><trkpt lat="42.76608093075546" lon="12.227737892909735"><ele>418.0</ele><time>2026-04-04T13:22:30Z</time></trkpt><trkpt lat="42.7662078674079" lon="12.227910318419449"><ele>415.0</ele><time>2026-04-04T13:22:31Z</time></trkpt><trkpt lat="42.76632022228009" lon="12.228066844130147"><ele>412.0</ele><time>2026-04-04T13:22:32Z</time></trkpt><trkpt lat="42.766432281465136" lon="12.228182990568198"><ele>409.0</ele><time>2026-04-04T13:22:33Z</time></trkpt><trkpt lat="42.7665342704288" lon="12.228268053415265"><ele>406.0</ele><time>2026-04-04T13:22:34Z</time></trkpt><trkpt lat="42.76661437034781" lon="12.228342097703665"><ele>404.4</ele><time>2026-04-04T13:22:35Z</time></trkpt><trkpt lat="42.766664407296766" lon="12.228444536496136"><ele>402.8</ele><time>2026-04-04T13:22:36Z</time></trkpt><trkpt lat="42.76668394461779" lon="12.228565260918177"><ele>401.2</ele><time>2026-04-04T13:22:37Z</time></trkpt><trkpt lat="42.76666111445046" lon="12.228690460250291"><ele>399.59999999999997</ele><time>2026-04-04T13:22:38Z</time></trkpt><trkpt lat="42.76659858732862" lon="12.228806481118648"><ele>398.0</ele><time>2026-04-04T13:22:39Z</time></trkpt><trkpt lat="42.76649025397665" lon="12.228878017902417"><ele>396.75</ele><time>2026-04-04T13:22:40Z</time></trkpt><trkpt lat="42.76636707884673" lon="12.22899000289227"><ele>395.5</ele><time>2026-04-04T13:22:41Z</time></trkpt><trkpt lat="42.76623149356688" lon="12.22908568784865"><ele>394.25</ele><time>2026-04-04T13:22:42Z</time></trkpt><trkpt lat="42.7661127642658" lon="12.229207167006445"><ele>393.0</ele><time>2026-04-04T13:22:43Z</time></trkpt><trkpt lat="42.7660158790272" lon="12.229336805546112"><ele>393.0</ele><time>2026-04-04T13:22:44Z</time></trkpt><trkpt lat="42.7659251834688" lon="12.22944000780411"><ele>393.0</ele><time>2026-04-04T13:22:45Z</time></trkpt><trkpt lat="42.76581525418867" lon="12.22951079699389"><ele>393.0</ele><time>2026-04-04T13:22:46Z</time></trkpt><trkpt lat="42.76571645394344" lon="12.229513964787504"><ele>393.0</ele><time>2026-04-04T13:22:47Z</time></trkpt><trkpt lat="42.76562427948699" lon="12.229455237684812"><ele>393.0</ele><time>2026-04-04T13:22:48Z</time></trkpt><trkpt lat="42.76556325268339" lon="12.229319947664864"><ele>393.0</ele><time>2026-04-04T13:22:49Z</time></trkpt><trkpt lat="42.765466165240866" lon="12.22920326868122"><ele>393.0</ele><time>2026-04-04T13:22:50Z</time></trkpt><trkpt lat="42.76537679951641" lon="12.229077912067092"><ele>393.0</ele><time>2026-04-04T13:22:51Z</time></trkpt><trkpt lat="42.7652892614464" lon="12.228987500037732"><ele>393.0</ele><time>2026-04-04T13:22:52Z</time></trkpt><trkpt lat="42.76520053508382" lon="12.228934311560616"><ele>392.0</ele><time>2026-04-04T13:22:53Z</time></trkpt><trkpt lat="42.76511515113411" lon="12.228911342744352"><ele>391.0</ele><time>2026-04-04T13:22:54.001Z</time></trkpt><trkpt lat="42.76504146973254" lon="12.228953942608284"><ele>390.0</ele><time>2026-04-04T13:22:55.001Z</time></trkpt><trkpt lat="42.76501380247437" lon="12.229075162718773"><ele>389.0</ele><time>2026-04-04T13:22:56.001Z</time></trkpt><trkpt lat="42.765020185350096" lon="12.229195306224183"><ele>388.0</ele><time>2026-04-04T13:22:57.001Z</time></trkpt><trkpt lat="42.76507722700743" lon="12.22931177216642"><ele>388.0</ele><time>2026-04-04T13:22:58.001Z</time></trkpt><trkpt lat="42.76515534962091" lon="12.229431113168182"><ele>388.0</ele><time>2026-04-04T13:22:59.001Z</time></trkpt><trkpt lat="42.765255269184934" lon="12.229583942349054"><ele>388.0</ele><time>2026-04-04T13:23:00.001Z</time></trkpt><trkpt lat="42.765346753537315" lon="12.229725696927957"><ele>388.0</ele><time>2026-04-04T13:23:01.001Z</time></trkpt><trkpt lat="42.76542811567049" lon="12.229852560207409"><ele>385.25</ele><time>2026-04-04T13:23:02.001Z</time></trkpt><trkpt lat="42.76552546693808" lon="12.22993452640534"><ele>382.5</ele><time>2026-04-04T13:23:03.001Z</time></trkpt><trkpt lat="42.76565730070337" lon="12.229968806694439"><ele>379.75</ele><time>2026-04-04T13:23:04.001Z</time></trkpt><trkpt lat="42.76581774377864" lon="12.229960054316326"><ele>377.0</ele><time>2026-04-04T13:23:05.001Z</time></trkpt><trkpt lat="42.76596962572659" lon="12.229943842348094"><ele>374.33333333333337</ele><time>2026-04-04T13:23:06.001Z</time></trkpt><trkpt lat="42.766133659084545" lon="12.229916864914522"><ele>371.6666666666667</ele><time>2026-04-04T13:23:07.001Z</time></trkpt><trkpt lat="42.766283736041686" lon="12.229880079664973"><ele>369.0</ele><time>2026-04-04T13:23:08.001Z</time></trkpt><trkpt lat="42.766433094923364" lon="12.22980865238624"><ele>374.0</ele><time>2026-04-04T13:23:09.001Z</time></trkpt><trkpt lat="42.766578347060765" lon="12.229704893158816"><ele>379.0</ele><time>2026-04-04T13:23:10.001Z</time></trkpt><trkpt lat="42.76670870790241" lon="12.229587337212001"><ele>384.0</ele><time>2026-04-04T13:23:11.001Z</time></trkpt><trkpt lat="42.76683155619066" lon="12.229474554367506"><ele>380.0</ele><time>2026-04-04T13:23:12.001Z</time></trkpt><trkpt lat="42.7669535091794" lon="12.229366650187428"><ele>376.0</ele><time>2026-04-04T13:23:13.001Z</time></trkpt><trkpt lat="42.76706729158357" lon="12.229251771964494"><ele>372.0</ele><time>2026-04-04T13:23:14.001Z</time></trkpt><trkpt lat="42.767167979054165" lon="12.229136774239606"><ele>368.0</ele><time>2026-04-04T13:23:15.001Z</time></trkpt><trkpt lat="42.767242598372995" lon="12.229031221904012"><ele>368.0</ele><time>2026-04-04T13:23:16.001Z</time></trkpt><trkpt lat="42.76731085933644" lon="12.228968238097815"><ele>368.0</ele><time>2026-04-04T13:23:17.001Z</time></trkpt><trkpt lat="42.767380498550814" lon="12.228964824845566"><ele>368.0</ele><time>2026-04-04T13:23:18.001Z</time></trkpt><trkpt lat="42.76744587330462" lon="12.228974757624163"><ele>368.0</ele><time>2026-04-04T13:23:19.001Z</time></trkpt><trkpt lat="42.76749493301173" lon="12.22911105735539"><ele>368.0</ele><time>2026-04-04T13:23:20.001Z</time></trkpt><trkpt lat="42.767586889878366" lon="12.229213015215455"><ele>368.0</ele><time>2026-04-04T13:23:21.001Z</time></trkpt><trkpt lat="42.767617113183555" lon="12.22936146114577"><ele>368.0</ele><time>2026-04-04T13:23:22.001Z</time></trkpt><trkpt lat="42.76762025653301" lon="12.229511407815142"><ele>368.0</ele><time>2026-04-04T13:23:23.001Z</time></trkpt><trkpt lat="42.767582201548144" lon="12.229690116808131"><ele>368.0</ele><time>2026-04-04T13:23:24.001Z</time></trkpt><trkpt lat="42.76752203091289" lon="12.229830652532215"><ele>368.0</ele><time>2026-04-04T13:23:25.001Z</time></trkpt><trkpt lat="42.767435403022695" lon="12.229977147820629"><ele>370.0</ele><time>2026-04-04T13:23:26.001Z</time></trkpt><trkpt lat="42.76733629635766" lon="12.23011808055574"><ele>372.0</ele><time>2026-04-04T13:23:27.001Z</time></trkpt><trkpt lat="42.7672279066364" lon="12.230273433420148"><ele>374.0</ele><time>2026-04-04T13:23:28.001Z</time></trkpt><trkpt lat="42.767108461981344" lon="12.230397021105901"><ele>374.0</ele><time>2026-04-04T13:23:29.001Z</time></trkpt><trkpt lat="42.767017608799335" lon="12.230520811108605"><ele>374.0</ele><time>2026-04-04T13:23:30.001Z</time></trkpt><trkpt lat="42.7669382371466" lon="12.230664991983886"><ele>374.0</ele><time>2026-04-04T13:23:31.001Z</time></trkpt><trkpt lat="42.76688615937572" lon="12.230835166319292"><ele>374.0</ele><time>2026-04-04T13:23:32.001Z</time></trkpt><trkpt lat="42.76684870178355" lon="12.2310193846902"><ele>372.6</ele><time>2026-04-04T13:23:33.001Z</time></trkpt><trkpt lat="42.76678008670643" lon="12.231163106626429"><ele>371.2</ele><time>2026-04-04T13:23:34.001Z</time></trkpt><trkpt lat="42.76669970225765" lon="12.231274595506497"><ele>369.8</ele><time>2026-04-04T13:23:35.001Z</time></trkpt><trkpt lat="42.76663226173306" lon="12.231398792469259"><ele>368.40000000000003</ele><time>2026-04-04T13:23:36.001Z</time></trkpt><trkpt lat="42.76658327588078" lon="12.231495338933117"><ele>367.0</ele><time>2026-04-04T13:23:37.001Z</time></trkpt><trkpt lat="42.76657563861809" lon="12.231608032347395"><ele>367.0</ele><time>2026-04-04T13:23:38.001Z</time></trkpt><trkpt lat="42.76659781772289" lon="12.231717327003945"><ele>367.0</ele><time>2026-04-04T13:23:39.001Z</time></trkpt><trkpt lat="42.766653877706126" lon="12.231802722836733"><ele>367.0</ele><time>2026-04-04T13:23:40.001Z</time></trkpt><trkpt lat="42.76674009581775" lon="12.231890941608128"><ele>367.0</ele><time>2026-04-04T13:23:41.001Z</time></trkpt><trkpt lat="42.766843197425295" lon="12.231990146548238"><ele>367.0</ele><time>2026-04-04T13:23:42.001Z</time></trkpt><trkpt lat="42.76695618701471" lon="12.23210077635549"><ele>368.25</ele><time>2026-04-04T13:23:43.001Z</time></trkpt><trkpt lat="42.76707689299611" lon="12.232198307089599"><ele>369.5</ele><time>2026-04-04T13:23:44.001Z</time></trkpt><trkpt lat="42.76719547418762" lon="12.23227113307849"><ele>370.75</ele><time>2026-04-04T13:23:45Z</time></trkpt><trkpt lat="42.767322987348315" lon="12.232322699167161"><ele>372.0</ele><time>2026-04-04T13:23:46Z</time></trkpt><trkpt lat="42.76746297105309" lon="12.232368229455655"><ele>372.0</ele><time>2026-04-04T13:23:47Z</time></trkpt><trkpt lat="42.76761048076398" lon="12.232431450592511"><ele>372.0</ele><time>2026-04-04T13:23:48Z</time></trkpt><trkpt lat="42.76775629364227" lon="12.232531329627195"><ele>372.0</ele><time>2026-04-04T13:23:49Z</time></trkpt><trkpt lat="42.767898462164716" lon="12.232617008468546"><ele>375.5</ele><time>2026-04-04T13:23:50Z</time></trkpt><trkpt lat="42.76802654358621" lon="12.232692565503678"><ele>379.0</ele><time>2026-04-04T13:23:51Z</time></trkpt><trkpt lat="42.768161930852955" lon="12.23274226137705"><ele>382.5</ele><time>2026-04-04T13:23:52Z</time></trkpt><trkpt lat="42.768274107392266" lon="12.232799444296665"><ele>386.0</ele><time>2026-04-04T13:23:53Z</time></trkpt><trkpt lat="42.76836543961284" lon="12.232833561339097"><ele>386.0</ele><time>2026-04-04T13:23:54Z</time></trkpt><trkpt lat="42.76842280291155" lon="12.23289740800722"><ele>386.0</ele><time>2026-04-04T13:23:55Z</time></trkpt><trkpt lat="42.768448738810456" lon="12.233048296821828"><ele>386.0</ele><time>2026-04-04T13:23:57Z</time></trkpt><trkpt lat="42.7683827727804" lon="12.233144146660756"><ele>386.0</ele><time>2026-04-04T13:23:58Z</time></trkpt><trkpt lat="42.768336075719915" lon="12.233270993412244"><ele>386.0</ele><time>2026-04-04T13:23:59Z</time></trkpt><trkpt lat="42.768254922354444" lon="12.233364085915339"><ele>385.5</ele><time>2026-04-04T13:24:00Z</time></trkpt><trkpt lat="42.768126172842855" lon="12.233405126794237"><ele>385.0</ele><time>2026-04-04T13:24:01Z</time></trkpt><trkpt lat="42.767994660769816" lon="12.23339389914735"><ele>384.5</ele><time>2026-04-04T13:24:02Z</time></trkpt><trkpt lat="42.767855762098115" lon="12.23339661327862"><ele>384.0</ele><time>2026-04-04T13:24:03Z</time></trkpt><trkpt lat="42.76772711214154" lon="12.233359107098478"><ele>382.75</ele><time>2026-04-04T13:24:04Z</time></trkpt><trkpt lat="42.767592951995525" lon="12.233319466655606"><ele>381.5</ele><time>2026-04-04T13:24:05Z</time></trkpt><trkpt lat="42.76746410698388" lon="12.233295330621862"><ele>380.25</ele><time>2026-04-04T13:24:06Z</time></trkpt><trkpt lat="42.76734250026505" lon="12.233278284235709"><ele>379.0</ele><time>2026-04-04T13:24:07Z</time></trkpt><trkpt lat="42.7672268825581" lon="12.233288436673442"><ele>379.0</ele><time>2026-04-04T13:24:08Z</time></trkpt><trkpt lat="42.76711908805219" lon="12.233338309201887"><ele>379.0</ele><time>2026-04-04T13:24:09Z</time></trkpt><trkpt lat="42.76703684654572" lon="12.233391892929513"><ele>379.0</ele><time>2026-04-04T13:24:10Z</time></trkpt><trkpt lat="42.76698056843937" lon="12.233458492876574"><ele>379.0</ele><time>2026-04-04T13:24:12Z</time></trkpt><trkpt lat="42.767104532335956" lon="12.23352257402"><ele>379.0</ele><time>2026-04-04T13:24:19Z</time></trkpt><trkpt lat="42.76719793253693" lon="12.233532681236237"><ele>379.0</ele><time>2026-04-04T13:24:21Z</time></trkpt><trkpt lat="42.767298518720885" lon="12.233534433975542"><ele>379.0</ele><time>2026-04-04T13:24:23Z</time></trkpt><trkpt lat="42.76741306949622" lon="12.233590582533806"><ele>379.0</ele><time>2026-04-04T13:24:25Z</time></trkpt><trkpt lat="42.76754421596815" lon="12.233628616455812"><ele>379.0</ele><time>2026-04-04T13:24:27Z</time></trkpt><trkpt lat="42.76761680723994" lon="12.23364080637554"><ele>379.0</ele><time>2026-04-04T13:24:28Z</time></trkpt><trkpt lat="42.76769036926551" lon="12.23365542483409"><ele>379.8333333333333</ele><time>2026-04-04T13:24:29Z</time></trkpt><trkpt lat="42.76775890346526" lon="12.233677446848224"><ele>380.66666666666663</ele><time>2026-04-04T13:24:30Z</time></trkpt><trkpt lat="42.76781668558465" lon="12.233712106544017"><ele>381.5</ele><time>2026-04-04T13:24:31Z</time></trkpt><trkpt lat="42.767933673024785" lon="12.233775023730574"><ele>382.3333333333333</ele><time>2026-04-04T13:24:33Z</time></trkpt><trkpt lat="42.76804607152683" lon="12.23382230944583"><ele>383.1666666666667</ele><time>2026-04-04T13:24:35Z</time></trkpt><trkpt lat="42.76811203240777" lon="12.233823589740322"><ele>384.0</ele><time>2026-04-04T13:24:36Z</time></trkpt><trkpt lat="42.76817988120981" lon="12.233828946069025"><ele>384.0</ele><time>2026-04-04T13:24:37Z</time></trkpt><trkpt lat="42.768244839208926" lon="12.23384485906491"><ele>384.0</ele><time>2026-04-04T13:24:38Z</time></trkpt><trkpt lat="42.768314496227845" lon="12.23384702605563"><ele>384.0</ele><time>2026-04-04T13:24:39Z</time></trkpt><trkpt lat="42.7683864555283" lon="12.233832488282777"><ele>384.0</ele><time>2026-04-04T13:24:40Z</time></trkpt><trkpt lat="42.768460633448164" lon="12.233815097790455"><ele>384.0</ele><time>2026-04-04T13:24:41Z</time></trkpt><trkpt lat="42.768532221525156" lon="12.233818688273347"><ele>384.0</ele><time>2026-04-04T13:24:42Z</time></trkpt><trkpt lat="42.76863063967296" lon="12.233786330297626"><ele>384.6666666666667</ele><time>2026-04-04T13:24:44Z</time></trkpt><trkpt lat="42.768753354327956" lon="12.233738927012105"><ele>385.33333333333337</ele><time>2026-04-04T13:24:46Z</time></trkpt><trkpt lat="42.76883153088011" lon="12.233706000641495"><ele>386.0</ele><time>2026-04-04T13:24:47Z</time></trkpt><trkpt lat="42.768891019397266" lon="12.233677047662018"><ele>386.6666666666667</ele><time>2026-04-04T13:24:48Z</time></trkpt><trkpt lat="42.76895634348755" lon="12.233638213520338"><ele>387.33333333333337</ele><time>2026-04-04T13:24:49Z</time></trkpt><trkpt lat="42.76902723621507" lon="12.233602208075979"><ele>388.0</ele><time>2026-04-04T13:24:50Z</time></trkpt><trkpt lat="42.76910321187271" lon="12.233567878671304"><ele>388.00000000000006</ele><time>2026-04-04T13:24:51Z</time></trkpt><trkpt lat="42.769174602865576" lon="12.233526750179449"><ele>388.0</ele><time>2026-04-04T13:24:52Z</time></trkpt><trkpt lat="42.76925193412964" lon="12.233489441791177"><ele>388.0</ele><time>2026-04-04T13:24:53Z</time></trkpt><trkpt lat="42.76932740497615" lon="12.23345053353551"><ele>388.0</ele><time>2026-04-04T13:24:54Z</time></trkpt><trkpt lat="42.76940791585167" lon="12.23341223834846"><ele>388.00000000000006</ele><time>2026-04-04T13:24:55Z</time></trkpt><trkpt lat="42.76948280881206" lon="12.233374238607722"><ele>388.0</ele><time>2026-04-04T13:24:56Z</time></trkpt><trkpt lat="42.76955882083739" lon="12.233353947445494"><ele>388.57142857142856</ele><time>2026-04-04T13:24:57Z</time></trkpt><trkpt lat="42.76963611720503" lon="12.233343427714418"><ele>389.14285714285717</ele><time>2026-04-04T13:24:58Z</time></trkpt><trkpt lat="42.76971030143959" lon="12.233318422740451"><ele>389.7142857142857</ele><time>2026-04-04T13:24:59Z</time></trkpt><trkpt lat="42.76978438250846" lon="12.233326838552951"><ele>390.2857142857143</ele><time>2026-04-04T13:25:00Z</time></trkpt><trkpt lat="42.76985236268018" lon="12.233329970692225"><ele>390.8571428571429</ele><time>2026-04-04T13:25:01Z</time></trkpt><trkpt lat="42.76992135325103" lon="12.233330833560116"><ele>391.42857142857144</ele><time>2026-04-04T13:25:02Z</time></trkpt><trkpt lat="42.769989566543344" lon="12.23337068853175"><ele>392.0</ele><time>2026-04-04T13:25:03Z</time></trkpt><trkpt lat="42.77006508199715" lon="12.233360556304378"><ele>392.0</ele><time>2026-04-04T13:25:04Z</time></trkpt><trkpt lat="42.77014894294244" lon="12.23337801541574"><ele>392.0</ele><time>2026-04-04T13:25:05.001Z</time></trkpt><trkpt lat="42.77024036279313" lon="12.233364637636955"><ele>392.0</ele><time>2026-04-04T13:25:06.001Z</time></trkpt><trkpt lat="42.77034170868303" lon="12.233349151939485"><ele>392.0</ele><time>2026-04-04T13:25:07.001Z</time></trkpt><trkpt lat="42.77043587031333" lon="12.233333651489804"><ele>392.0</ele><time>2026-04-04T13:25:08.001Z</time></trkpt><trkpt lat="42.77053676911937" lon="12.233317487435464"><ele>392.20000000000005</ele><time>2026-04-04T13:25:09.001Z</time></trkpt><trkpt lat="42.77063655574853" lon="12.2332880589058"><ele>392.4</ele><time>2026-04-04T13:25:10.001Z</time></trkpt><trkpt lat="42.77073950527825" lon="12.233285805929249"><ele>392.6</ele><time>2026-04-04T13:25:11.001Z</time></trkpt><trkpt lat="42.77083703609697" lon="12.233283307712865"><ele>392.79999999999995</ele><time>2026-04-04T13:25:12.001Z</time></trkpt><trkpt lat="42.77093813368425" lon="12.233287284961893"><ele>393.0</ele><time>2026-04-04T13:25:13.001Z</time></trkpt><trkpt lat="42.77103177987811" lon="12.2333004512483"><ele>393.59999999999997</ele><time>2026-04-04T13:25:14.001Z</time></trkpt><trkpt lat="42.77112444160872" lon="12.233291022483787"><ele>394.2</ele><time>2026-04-04T13:25:15.001Z</time></trkpt><trkpt lat="42.77121908880835" lon="12.233286996371369"><ele>394.8</ele><time>2026-04-04T13:25:16.001Z</time></trkpt><trkpt lat="42.77130529389262" lon="12.233236140844399"><ele>395.4</ele><time>2026-04-04T13:25:17.001Z</time></trkpt><trkpt lat="42.771385284324346" lon="12.233166276739105"><ele>396.0</ele><time>2026-04-04T13:25:18.001Z</time></trkpt><trkpt lat="42.77146888800532" lon="12.233083354907373"><ele>394.4</ele><time>2026-04-04T13:25:19.001Z</time></trkpt><trkpt lat="42.7715529850088" lon="12.232999166645437"><ele>392.8</ele><time>2026-04-04T13:25:20.001Z</time></trkpt><trkpt lat="42.771622506754944" lon="12.232919282072992"><ele>391.2</ele><time>2026-04-04T13:25:21.001Z</time></trkpt><trkpt lat="42.77170251549082" lon="12.232839311942985"><ele>389.59999999999997</ele><time>2026-04-04T13:25:22.001Z</time></trkpt><trkpt lat="42.771779912222314" lon="12.23278201716828"><ele>388.0</ele><time>2026-04-04T13:25:23.001Z</time></trkpt><trkpt lat="42.77184035121316" lon="12.232720477067607"><ele>388.2857142857143</ele><time>2026-04-04T13:25:24.001Z</time></trkpt><trkpt lat="42.77190113076142" lon="12.232669266107527"><ele>388.5714285714286</ele><time>2026-04-04T13:25:25.001Z</time></trkpt><trkpt lat="42.77196825615006" lon="12.232611944553323"><ele>388.8571428571429</ele><time>2026-04-04T13:25:26.001Z</time></trkpt><trkpt lat="42.77203386928769" lon="12.23255178604682"><ele>389.1428571428571</ele><time>2026-04-04T13:25:27.001Z</time></trkpt><trkpt lat="42.77207849507794" lon="12.232478363778068"><ele>389.42857142857144</ele><time>2026-04-04T13:25:28.001Z</time></trkpt><trkpt lat="42.77212367751" lon="12.232407914495887"><ele>389.7142857142857</ele><time>2026-04-04T13:25:29.001Z</time></trkpt><trkpt lat="42.77216946672916" lon="12.23233454086448"><ele>390.0</ele><time>2026-04-04T13:25:30.001Z</time></trkpt><trkpt lat="42.772267142418656" lon="12.232242621824208"><ele>390.0</ele><time>2026-04-04T13:25:32.001Z</time></trkpt><trkpt lat="42.77241541428429" lon="12.232297735556433"><ele>390.0</ele><time>2026-04-04T13:25:34.001Z</time></trkpt><trkpt lat="42.77248721355457" lon="12.23235214242819"><ele>390.0</ele><time>2026-04-04T13:25:35.001Z</time></trkpt><trkpt lat="42.77255181243955" lon="12.23241110951179"><ele>390.0</ele><time>2026-04-04T13:25:36.001Z</time></trkpt><trkpt lat="42.7726225878864" lon="12.23244258115385"><ele>390.0</ele><time>2026-04-04T13:25:37.001Z</time></trkpt><trkpt lat="42.77269985178051" lon="12.232479617057779"><ele>392.0</ele><time>2026-04-04T13:25:38.001Z</time></trkpt><trkpt lat="42.772784139357086" lon="12.232464535446946"><ele>394.0</ele><time>2026-04-04T13:25:39.001Z</time></trkpt><trkpt lat="42.77286064875672" lon="12.23241783434759"><ele>396.0</ele><time>2026-04-04T13:25:40.001Z</time></trkpt><trkpt lat="42.77293614097057" lon="12.232394956814998"><ele>398.0</ele><time>2026-04-04T13:25:41.001Z</time></trkpt><trkpt lat="42.77300252002617" lon="12.232398633023388"><ele>400.0</ele><time>2026-04-04T13:25:42.001Z</time></trkpt><trkpt lat="42.77310809608305" lon="12.232450699653057"><ele>402.0</ele><time>2026-04-04T13:25:44.001Z</time></trkpt><trkpt lat="42.773193932756456" lon="12.232531565710397"><ele>402.0</ele><time>2026-04-04T13:25:46.001Z</time></trkpt><trkpt lat="42.77324242630564" lon="12.232587955319508"><ele>402.0</ele><time>2026-04-04T13:25:47.001Z</time></trkpt><trkpt lat="42.7733029497474" lon="12.232660778205224"><ele>402.0</ele><time>2026-04-04T13:25:48.001Z</time></trkpt><trkpt lat="42.773357552289255" lon="12.23272427365778"><ele>402.0</ele><time>2026-04-04T13:25:49.001Z</time></trkpt><trkpt lat="42.773407326617324" lon="12.232778596474366"><ele>402.0</ele><time>2026-04-04T13:25:50.001Z</time></trkpt><trkpt lat="42.77346519827832" lon="12.232812804789171"><ele>402.0</ele><time>2026-04-04T13:25:51Z</time></trkpt><trkpt lat="42.77353534474062" lon="12.232815311791093"><ele>402.0</ele><time>2026-04-04T13:25:52Z</time></trkpt><trkpt lat="42.77361103911084" lon="12.232766954442168"><ele>404.3333333333333</ele><time>2026-04-04T13:25:53Z</time></trkpt><trkpt lat="42.773679335725305" lon="12.232712861660136"><ele>406.66666666666663</ele><time>2026-04-04T13:25:54Z</time></trkpt><trkpt lat="42.77375287331964" lon="12.232665505394223"><ele>409.0</ele><time>2026-04-04T13:25:55Z</time></trkpt><trkpt lat="42.77382229908283" lon="12.23261671841371"><ele>411.3333333333333</ele><time>2026-04-04T13:25:56Z</time></trkpt><trkpt lat="42.77388211523566" lon="12.232574687936165"><ele>413.66666666666663</ele><time>2026-04-04T13:25:57Z</time></trkpt><trkpt lat="42.773980702402895" lon="12.232527354540805"><ele>416.0</ele><time>2026-04-04T13:25:59Z</time></trkpt><trkpt lat="42.774074780724035" lon="12.232541750908494"><ele>415.99999999999994</ele><time>2026-04-04T13:26:01Z</time></trkpt><trkpt lat="42.774186944377725" lon="12.232641269245399"><ele>416.0</ele><time>2026-04-04T13:26:03Z</time></trkpt><trkpt lat="42.77423660768877" lon="12.232712539333148"><ele>416.0</ele><time>2026-04-04T13:26:04Z</time></trkpt><trkpt lat="42.77429344610353" lon="12.232784137034745"><ele>416.0</ele><time>2026-04-04T13:26:05Z</time></trkpt><trkpt lat="42.77435513067936" lon="12.232843625159962"><ele>415.99999999999994</ele><time>2026-04-04T13:26:06Z</time></trkpt><trkpt lat="42.774409846117166" lon="12.232905126635602"><ele>416.0</ele><time>2026-04-04T13:26:07Z</time></trkpt><trkpt lat="42.774486587743674" lon="12.232938946682868"><ele>417.99999999999994</ele><time>2026-04-04T13:26:08Z</time></trkpt><trkpt lat="42.774572042036276" lon="12.232958546531593"><ele>420.0</ele><time>2026-04-04T13:26:09Z</time></trkpt><trkpt lat="42.77465339818855" lon="12.232980113970408"><ele>422.0</ele><time>2026-04-04T13:26:10Z</time></trkpt><trkpt lat="42.774737487235974" lon="12.232998867919324"><ele>424.0</ele><time>2026-04-04T13:26:11Z</time></trkpt><trkpt lat="42.77483210999286" lon="12.232999320431468"><ele>425.99999999999994</ele><time>2026-04-04T13:26:12Z</time></trkpt><trkpt lat="42.77491671352972" lon="12.233026521310055"><ele>428.0</ele><time>2026-04-04T13:26:13Z</time></trkpt><trkpt lat="42.77500450599252" lon="12.233049781575867"><ele>427.99999999999994</ele><time>2026-04-04T13:26:14Z</time></trkpt><trkpt lat="42.775093059737095" lon="12.233070842724945"><ele>428.0</ele><time>2026-04-04T13:26:15Z</time></trkpt><trkpt lat="42.77518447092602" lon="12.23310743558658"><ele>428.0</ele><time>2026-04-04T13:26:16Z</time></trkpt><trkpt lat="42.775252548022586" lon="12.233101521604944"><ele>428.0</ele><time>2026-04-04T13:26:17Z</time></trkpt><trkpt lat="42.77532357627541" lon="12.233091689082164"><ele>427.99999999999994</ele><time>2026-04-04T13:26:18Z</time></trkpt><trkpt lat="42.775387667191005" lon="12.23307307602044"><ele>428.0</ele><time>2026-04-04T13:26:19Z</time></trkpt><trkpt lat="42.775451437162445" lon="12.233046350361596"><ele>429.00000000000006</ele><time>2026-04-04T13:26:20Z</time></trkpt><trkpt lat="42.77552111427493" lon="12.23302541858043"><ele>430.0</ele><time>2026-04-04T13:26:21Z</time></trkpt><trkpt lat="42.77559248154047" lon="12.23300126948964"><ele>431.0</ele><time>2026-04-04T13:26:22Z</time></trkpt><trkpt lat="42.77565890107815" lon="12.232979563157489"><ele>432.0</ele><time>2026-04-04T13:26:23Z</time></trkpt><trkpt lat="42.775718287678" lon="12.23294697560977"><ele>433.0</ele><time>2026-04-04T13:26:24Z</time></trkpt><trkpt lat="42.77576967191616" lon="12.232895321120452"><ele>434.00000000000006</ele><time>2026-04-04T13:26:25Z</time></trkpt><trkpt lat="42.775803405203234" lon="12.232822893912115"><ele>435.0</ele><time>2026-04-04T13:26:26Z</time></trkpt><trkpt lat="42.77581077901134" lon="12.232733005743805"><ele>435.0</ele><time>2026-04-04T13:26:27Z</time></trkpt><trkpt lat="42.775798038204286" lon="12.23263861232181"><ele>435.0</ele><time>2026-04-04T13:26:28Z</time></trkpt><trkpt lat="42.77577883271167" lon="12.232550923032194"><ele>435.0</ele><time>2026-04-04T13:26:29Z</time></trkpt><trkpt lat="42.77575495382746" lon="12.232463681834567"><ele>435.0</ele><time>2026-04-04T13:26:30Z</time></trkpt><trkpt lat="42.7757108226719" lon="12.232386668082443"><ele>435.0</ele><time>2026-04-04T13:26:31Z</time></trkpt><trkpt lat="42.77565828416728" lon="12.232326595662945"><ele>435.0</ele><time>2026-04-04T13:26:32Z</time></trkpt><trkpt lat="42.775545660733485" lon="12.232310767423916"><ele>435.00000000000006</ele><time>2026-04-04T13:26:34Z</time></trkpt><trkpt lat="42.77547678326961" lon="12.232333778082173"><ele>435.0</ele><time>2026-04-04T13:26:35Z</time></trkpt><trkpt lat="42.775408598234996" lon="12.232337400376982"><ele>435.0</ele><time>2026-04-04T13:26:36Z</time></trkpt><trkpt lat="42.77534634514775" lon="12.23232075735451"><ele>435.0</ele><time>2026-04-04T13:26:37Z</time></trkpt><trkpt lat="42.77528290595707" lon="12.23230240281412"><ele>435.0</ele><time>2026-04-04T13:26:38Z</time></trkpt><trkpt lat="42.7752145583251" lon="12.232274202419301"><ele>435.00000000000006</ele><time>2026-04-04T13:26:39Z</time></trkpt><trkpt lat="42.775150729812964" lon="12.232257293056852"><ele>435.0</ele><time>2026-04-04T13:26:40Z</time></trkpt><trkpt lat="42.77514147796046" lon="12.232143511444624"><ele>437.5</ele><time>2026-04-04T13:26:41Z</time></trkpt><trkpt lat="42.775102639810854" lon="12.2320594409372"><ele>440.0</ele><time>2026-04-04T13:26:42Z</time></trkpt><trkpt lat="42.775066287814894" lon="12.231975434339807"><ele>442.5</ele><time>2026-04-04T13:26:43Z</time></trkpt><trkpt lat="42.77500892005347" lon="12.23183231658957"><ele>445.0</ele><time>2026-04-04T13:26:45Z</time></trkpt><trkpt lat="42.774965083437166" lon="12.231712844614593"><ele>447.5</ele><time>2026-04-04T13:26:47Z</time></trkpt><trkpt lat="42.7749325446296" lon="12.231633899613913"><ele>450.0</ele><time>2026-04-04T13:26:50Z</time></trkpt><trkpt lat="42.77495391056501" lon="12.231719658400367"><ele>450.0</ele><time>2026-04-04T13:27:39.001Z</time></trkpt><trkpt lat="42.774997065973764" lon="12.231838679859322"><ele>450.0</ele><time>2026-04-04T13:27:42.001Z</time></trkpt><trkpt lat="42.775060929036805" lon="12.231998561198923"><ele>450.0</ele><time>2026-04-04T13:27:44.001Z</time></trkpt><trkpt lat="42.77510905026871" lon="12.232072645719782"><ele>450.0</ele><time>2026-04-04T13:27:45.001Z</time></trkpt><trkpt lat="42.77514549329919" lon="12.232147691916081"><ele>450.0</ele><time>2026-04-04T13:27:46.001Z</time></trkpt><trkpt lat="42.77521119373538" lon="12.232297557803227"><ele>447.5</ele><time>2026-04-04T13:27:48.001Z</time></trkpt><trkpt lat="42.77526978622419" lon="12.232335098782825"><ele>445.0</ele><time>2026-04-04T13:27:49.001Z</time></trkpt><trkpt lat="42.77534374543674" lon="12.232326703695442"><ele>442.5</ele><time>2026-04-04T13:27:50.001Z</time></trkpt><trkpt lat="42.77540144181548" lon="12.232364349626105"><ele>440.0</ele><time>2026-04-04T13:27:51.001Z</time></trkpt><trkpt lat="42.77549120630376" lon="12.232341798182052"><ele>437.5</ele><time>2026-04-04T13:27:53.001Z</time></trkpt><trkpt lat="42.77557664152836" lon="12.232323631629031"><ele>435.0</ele><time>2026-04-04T13:27:55.001Z</time></trkpt><trkpt lat="42.775658089269776" lon="12.232338277319464"><ele>435.0</ele><time>2026-04-04T13:27:57Z</time></trkpt><trkpt lat="42.77574848208345" lon="12.232412646701498"><ele>435.0</ele><time>2026-04-04T13:27:59Z</time></trkpt><trkpt lat="42.77577209709828" lon="12.232509260290701"><ele>435.0</ele><time>2026-04-04T13:28:00Z</time></trkpt><trkpt lat="42.775793293433814" lon="12.232649030687643"><ele>435.0</ele><time>2026-04-04T13:28:02Z</time></trkpt><trkpt lat="42.77579737390636" lon="12.23277173353344"><ele>435.0</ele><time>2026-04-04T13:28:04Z</time></trkpt><trkpt lat="42.77575644387392" lon="12.232892355277997"><ele>435.0</ele><time>2026-04-04T13:28:06Z</time></trkpt><trkpt lat="42.77570601983205" lon="12.232992881284344"><ele>435.0</ele><time>2026-04-04T13:28:08Z</time></trkpt><trkpt lat="42.77560310882862" lon="12.233019176424806"><ele>435.0</ele><time>2026-04-04T13:28:10Z</time></trkpt><trkpt lat="42.77564966951599" lon="12.233110087224109"><ele>435.0</ele><time>2026-04-04T13:28:18Z</time></trkpt><trkpt lat="42.77572063076753" lon="12.233112876740726"><ele>435.0</ele><time>2026-04-04T13:28:19Z</time></trkpt><trkpt lat="42.775833258047435" lon="12.233088335874658"><ele>435.0</ele><time>2026-04-04T13:28:21Z</time></trkpt><trkpt lat="42.77589708309603" lon="12.233076937380593"><ele>435.0</ele><time>2026-04-04T13:28:22Z</time></trkpt><trkpt lat="42.7759429659729" lon="12.233014831686926"><ele>435.0</ele><time>2026-04-04T13:28:23Z</time></trkpt><trkpt lat="42.776054135537" lon="12.232989746959868"><ele>435.0</ele><time>2026-04-04T13:28:25Z</time></trkpt><trkpt lat="42.77615725088414" lon="12.232977527284024"><ele>435.0</ele><time>2026-04-04T13:28:27Z</time></trkpt><trkpt lat="42.77626639243228" lon="12.232986612699198"><ele>434.2</ele><time>2026-04-04T13:28:29Z</time></trkpt><trkpt lat="42.776370524272544" lon="12.232983394617413"><ele>433.4</ele><time>2026-04-04T13:28:31Z</time></trkpt><trkpt lat="42.77645368499552" lon="12.232925738996915"><ele>432.6</ele><time>2026-04-04T13:28:33Z</time></trkpt><trkpt lat="42.77654631922535" lon="12.232818270335066"><ele>431.8</ele><time>2026-04-04T13:28:35Z</time></trkpt><trkpt lat="42.77661328422912" lon="12.232703208688175"><ele>431.0</ele><time>2026-04-04T13:28:37Z</time></trkpt><trkpt lat="42.776729562793605" lon="12.232679001102504"><ele>430.99999999999994</ele><time>2026-04-04T13:28:39Z</time></trkpt><trkpt lat="42.776793189051574" lon="12.232663189597863"><ele>431.0</ele><time>2026-04-04T13:28:40Z</time></trkpt><trkpt lat="42.77685974729586" lon="12.232619216972676"><ele>431.0</ele><time>2026-04-04T13:28:41Z</time></trkpt><trkpt lat="42.77692652647001" lon="12.23250424323938"><ele>431.0</ele><time>2026-04-04T13:28:43Z</time></trkpt><trkpt lat="42.776984798207366" lon="12.232359731095576"><ele>430.99999999999994</ele><time>2026-04-04T13:28:45Z</time></trkpt><trkpt lat="42.77703095872603" lon="12.232289802860297"><ele>431.0</ele><time>2026-04-04T13:28:46Z</time></trkpt><trkpt lat="42.77708020631574" lon="12.232222681793777"><ele>430.0</ele><time>2026-04-04T13:28:47Z</time></trkpt><trkpt lat="42.777113867883365" lon="12.23212835081315"><ele>429.0</ele><time>2026-04-04T13:28:48Z</time></trkpt><trkpt lat="42.777150799766005" lon="12.23205594562451"><ele>428.0</ele><time>2026-04-04T13:28:49Z</time></trkpt><trkpt lat="42.77722073185889" lon="12.231932229902883"><ele>427.0</ele><time>2026-04-04T13:28:51Z</time></trkpt><trkpt lat="42.77727570565839" lon="12.23186608797573"><ele>426.0</ele><time>2026-04-04T13:28:52Z</time></trkpt><trkpt lat="42.7773657698992" lon="12.231746093053944"><ele>426.0</ele><time>2026-04-04T13:28:54Z</time></trkpt><trkpt lat="42.777441890171154" lon="12.231704808707747"><ele>426.0</ele><time>2026-04-04T13:28:55Z</time></trkpt><trkpt lat="42.77751566774363" lon="12.231645236802217"><ele>426.0</ele><time>2026-04-04T13:28:56Z</time></trkpt><trkpt lat="42.77757634286" lon="12.231584882256318"><ele>426.0</ele><time>2026-04-04T13:28:57Z</time></trkpt><trkpt lat="42.77765748396357" lon="12.231502428221305"><ele>426.0</ele><time>2026-04-04T13:28:58Z</time></trkpt><trkpt lat="42.77772918978941" lon="12.231466725933494"><ele>426.0</ele><time>2026-04-04T13:28:59Z</time></trkpt><trkpt lat="42.777818346359794" lon="12.231430915043568"><ele>427.0</ele><time>2026-04-04T13:29:00Z</time></trkpt><trkpt lat="42.77789444426899" lon="12.231418224416746"><ele>428.0</ele><time>2026-04-04T13:29:01Z</time></trkpt><trkpt lat="42.77797647864961" lon="12.231430445753654"><ele>429.0</ele><time>2026-04-04T13:29:02Z</time></trkpt><trkpt lat="42.778049473179635" lon="12.231426395285038"><ele>430.0</ele><time>2026-04-04T13:29:03Z</time></trkpt><trkpt lat="42.77814206652488" lon="12.231410492456343"><ele>431.0</ele><time>2026-04-04T13:29:04Z</time></trkpt><trkpt lat="42.77822844926257" lon="12.231385548621448"><ele>432.0</ele><time>2026-04-04T13:29:05Z</time></trkpt><trkpt lat="42.778309897244306" lon="12.231361549884049"><ele>432.0</ele><time>2026-04-04T13:29:06Z</time></trkpt><trkpt lat="42.77838520449013" lon="12.231338684376972"><ele>432.0</ele><time>2026-04-04T13:29:07Z</time></trkpt><trkpt lat="42.778458805902" lon="12.231290331442596"><ele>432.0</ele><time>2026-04-04T13:29:08Z</time></trkpt><trkpt lat="42.778519790098585" lon="12.231217566763053"><ele>432.0</ele><time>2026-04-04T13:29:09Z</time></trkpt><trkpt lat="42.77856068104066" lon="12.231129673448656"><ele>432.0</ele><time>2026-04-04T13:29:10Z</time></trkpt><trkpt lat="42.77858602423926" lon="12.2310282048988"><ele>432.0</ele><time>2026-04-04T13:29:11Z</time></trkpt><trkpt lat="42.778627946170865" lon="12.23093492431242"><ele>431.5</ele><time>2026-04-04T13:29:12Z</time></trkpt><trkpt lat="42.77867619280425" lon="12.230854309832782"><ele>431.0</ele><time>2026-04-04T13:29:13Z</time></trkpt><trkpt lat="42.77872780380354" lon="12.23079062921965"><ele>430.5</ele><time>2026-04-04T13:29:14Z</time></trkpt><trkpt lat="42.778841944141206" lon="12.230726173810096"><ele>430.0</ele><time>2026-04-04T13:29:16Z</time></trkpt><trkpt lat="42.77892468904771" lon="12.230744466612421"><ele>429.5</ele><time>2026-04-04T13:29:18Z</time></trkpt><trkpt lat="42.77897878568156" lon="12.230802645818615"><ele>429.0</ele><time>2026-04-04T13:29:22Z</time></trkpt><trkpt lat="42.77904310472737" lon="12.230840756934338"><ele>429.0</ele><time>2026-04-04T13:29:24Z</time></trkpt><trkpt lat="42.779112956693055" lon="12.230876420186428"><ele>429.0</ele><time>2026-04-04T13:29:26Z</time></trkpt><trkpt lat="42.77917712007079" lon="12.230909179113892"><ele>429.0</ele><time>2026-04-04T13:29:28Z</time></trkpt><trkpt lat="42.77924644788517" lon="12.230891969152138"><ele>429.0</ele><time>2026-04-04T13:29:30.001Z</time></trkpt><trkpt lat="42.779350302873915" lon="12.230876359960643"><ele>429.0</ele><time>2026-04-04T13:29:32.001Z</time></trkpt><trkpt lat="42.779473656339505" lon="12.23083957933508"><ele>429.0</ele><time>2026-04-04T13:29:34.001Z</time></trkpt><trkpt lat="42.77955476261161" lon="12.230803047381096"><ele>429.6</ele><time>2026-04-04T13:29:35.001Z</time></trkpt><trkpt lat="42.77964719911069" lon="12.230762388746005"><ele>430.2</ele><time>2026-04-04T13:29:36.001Z</time></trkpt><trkpt lat="42.7797388679053" lon="12.230699013542818"><ele>430.80000000000007</ele><time>2026-04-04T13:29:37.001Z</time></trkpt><trkpt lat="42.77982009389343" lon="12.23063872801713"><ele>431.40000000000003</ele><time>2026-04-04T13:29:38.001Z</time></trkpt><trkpt lat="42.77990640881295" lon="12.230574711063788"><ele>432.0</ele><time>2026-04-04T13:29:39.001Z</time></trkpt><trkpt lat="42.77998505620201" lon="12.230514525503644"><ele>432.0</ele><time>2026-04-04T13:29:40.001Z</time></trkpt><trkpt lat="42.78005476687122" lon="12.23046798701208"><ele>432.00000000000006</ele><time>2026-04-04T13:29:41.001Z</time></trkpt><trkpt lat="42.78018907867867" lon="12.230457508345362"><ele>432.00000000000006</ele><time>2026-04-04T13:29:43.001Z</time></trkpt><trkpt lat="42.7802807766173" lon="12.230452820472507"><ele>432.0</ele><time>2026-04-04T13:29:44.001Z</time></trkpt><trkpt lat="42.78035238934359" lon="12.230460271191427"><ele>432.0</ele><time>2026-04-04T13:29:45.001Z</time></trkpt><trkpt lat="42.78044530179211" lon="12.2304224536181"><ele>433.5</ele><time>2026-04-04T13:29:47.001Z</time></trkpt><trkpt lat="42.780507605661114" lon="12.230316564115302"><ele>435.0</ele><time>2026-04-04T13:29:49.001Z</time></trkpt><trkpt lat="42.780605607453374" lon="12.230253369385531"><ele>436.5</ele><time>2026-04-04T13:29:51.001Z</time></trkpt><trkpt lat="42.78066687077771" lon="12.2302312531962"><ele>438.0</ele><time>2026-04-04T13:29:52.001Z</time></trkpt><trkpt lat="42.78072892237034" lon="12.23020588813624"><ele>439.5</ele><time>2026-04-04T13:29:53.001Z</time></trkpt><trkpt lat="42.78079897551491" lon="12.230165627847246"><ele>441.0</ele><time>2026-04-04T13:29:54.001Z</time></trkpt><trkpt lat="42.78085786759955" lon="12.230116576891872"><ele>441.0</ele><time>2026-04-04T13:29:55.001Z</time></trkpt><trkpt lat="42.780959410852326" lon="12.230059073889404"><ele>441.0</ele><time>2026-04-04T13:29:57.001Z</time></trkpt><trkpt lat="42.781081555809244" lon="12.230120761654158"><ele>441.0</ele><time>2026-04-04T13:29:59.001Z</time></trkpt><trkpt lat="42.781156721507564" lon="12.230168186419437"><ele>441.0</ele><time>2026-04-04T13:30:00.001Z</time></trkpt><trkpt lat="42.781230015784985" lon="12.230199611968503"><ele>441.0</ele><time>2026-04-04T13:30:01.001Z</time></trkpt><trkpt lat="42.78129473946216" lon="12.23021236016881"><ele>441.6666666666667</ele><time>2026-04-04T13:30:02.001Z</time></trkpt><trkpt lat="42.78137358119948" lon="12.230212310739597"><ele>442.33333333333337</ele><time>2026-04-04T13:30:03Z</time></trkpt><trkpt lat="42.78145736538115" lon="12.230217525553895"><ele>443.0</ele><time>2026-04-04T13:30:04Z</time></trkpt><trkpt lat="42.78153985915555" lon="12.23022106370923"><ele>443.6666666666667</ele><time>2026-04-04T13:30:05Z</time></trkpt><trkpt lat="42.781626195089295" lon="12.230225541520072"><ele>444.33333333333337</ele><time>2026-04-04T13:30:06Z</time></trkpt><trkpt lat="42.78170360930845" lon="12.230235921974907"><ele>445.0</ele><time>2026-04-04T13:30:07Z</time></trkpt><trkpt lat="42.781771541335694" lon="12.230238454837755"><ele>447.4</ele><time>2026-04-04T13:30:08Z</time></trkpt><trkpt lat="42.781856082981236" lon="12.23023379657547"><ele>449.8</ele><time>2026-04-04T13:30:09Z</time></trkpt><trkpt lat="42.78192724889006" lon="12.230220615880459"><ele>452.20000000000005</ele><time>2026-04-04T13:30:10Z</time></trkpt><trkpt lat="42.78200011111678" lon="12.230216969888636"><ele>454.6</ele><time>2026-04-04T13:30:11Z</time></trkpt><trkpt lat="42.78212697008625" lon="12.23022187125646"><ele>457.0</ele><time>2026-04-04T13:30:13Z</time></trkpt><trkpt lat="42.7822546464877" lon="12.23019121984907"><ele>457.00000000000006</ele><time>2026-04-04T13:30:15Z</time></trkpt><trkpt lat="42.78233880675663" lon="12.230164489762"><ele>457.0</ele><time>2026-04-04T13:30:16Z</time></trkpt><trkpt lat="42.78243146944639" lon="12.230145029201761"><ele>457.0</ele><time>2026-04-04T13:30:17Z</time></trkpt><trkpt lat="42.78251886913404" lon="12.2301318453478"><ele>457.0</ele><time>2026-04-04T13:30:18Z</time></trkpt><trkpt lat="42.782594742576805" lon="12.230126073559687"><ele>457.00000000000006</ele><time>2026-04-04T13:30:19Z</time></trkpt><trkpt lat="42.78267645572707" lon="12.230131356947291"><ele>457.0</ele><time>2026-04-04T13:30:20Z</time></trkpt><trkpt lat="42.782751920671814" lon="12.230155101730787"><ele>458.6666666666667</ele><time>2026-04-04T13:30:21Z</time></trkpt><trkpt lat="42.78282466709726" lon="12.230184264966878"><ele>460.33333333333337</ele><time>2026-04-04T13:30:22Z</time></trkpt><trkpt lat="42.782901451865456" lon="12.230200875618971"><ele>462.0</ele><time>2026-04-04T13:30:23Z</time></trkpt><trkpt lat="42.7829700254474" lon="12.23020534806083"><ele>463.66666666666663</ele><time>2026-04-04T13:30:24Z</time></trkpt><trkpt lat="42.783050075820114" lon="12.230197491970381"><ele>465.3333333333333</ele><time>2026-04-04T13:30:25Z</time></trkpt><trkpt lat="42.7831326354735" lon="12.230187921381727"><ele>467.0</ele><time>2026-04-04T13:30:26Z</time></trkpt><trkpt lat="42.78319988699042" lon="12.23016637430266"><ele>467.0</ele><time>2026-04-04T13:30:27Z</time></trkpt><trkpt lat="42.783300589520074" lon="12.230166169523724"><ele>467.00000000000006</ele><time>2026-04-04T13:30:29Z</time></trkpt><trkpt lat="42.78337465687434" lon="12.230214832873397"><ele>467.00000000000006</ele><time>2026-04-04T13:30:31Z</time></trkpt><trkpt lat="42.78340786328755" lon="12.230314888864148"><ele>467.0</ele><time>2026-04-04T13:30:33Z</time></trkpt><trkpt lat="42.78343107951719" lon="12.23046629656521"><ele>467.0</ele><time>2026-04-04T13:30:35Z</time></trkpt><trkpt lat="42.78353310970464" lon="12.23054642101217"><ele>468.40000000000003</ele><time>2026-04-04T13:30:37Z</time></trkpt><trkpt lat="42.78359416687681" lon="12.230605049823685"><ele>469.80000000000007</ele><time>2026-04-04T13:30:39Z</time></trkpt><trkpt lat="42.78357217425882" lon="12.230697239069624"><ele>471.2</ele><time>2026-04-04T13:30:42Z</time></trkpt><trkpt lat="42.783462974991025" lon="12.230729622602828"><ele>472.6</ele><time>2026-04-04T13:30:45Z</time></trkpt><trkpt lat="42.783364946974174" lon="12.230751172522819"><ele>474.0</ele><time>2026-04-04T13:30:47Z</time></trkpt><trkpt lat="42.78326489241133" lon="12.23080808774649"><ele>476.4</ele><time>2026-04-04T13:30:49Z</time></trkpt><trkpt lat="42.78317031088551" lon="12.230866802059825"><ele>478.79999999999995</ele><time>2026-04-04T13:30:51Z</time></trkpt><trkpt lat="42.78307894963869" lon="12.230940157706659"><ele>481.20000000000005</ele><time>2026-04-04T13:30:53Z</time></trkpt><trkpt lat="42.783022836691764" lon="12.230990669240592"><ele>483.6</ele><time>2026-04-04T13:30:54Z</time></trkpt><trkpt lat="42.782922946792645" lon="12.231060943499648"><ele>486.0</ele><time>2026-04-04T13:30:56Z</time></trkpt><trkpt lat="42.782815983664136" lon="12.231164317154475"><ele>486.0</ele><time>2026-04-04T13:30:58Z</time></trkpt><trkpt lat="42.782760686294544" lon="12.231231162154227"><ele>486.0</ele><time>2026-04-04T13:30:59Z</time></trkpt><trkpt lat="42.78270422790836" lon="12.231301563344605"><ele>486.0</ele><time>2026-04-04T13:31:00Z</time></trkpt><trkpt lat="42.78264984783424" lon="12.231347911893373"><ele>486.0</ele><time>2026-04-04T13:31:01Z</time></trkpt><trkpt lat="42.782552113649984" lon="12.231440440060037"><ele>486.0</ele><time>2026-04-04T13:31:03Z</time></trkpt><trkpt lat="42.782510828641804" lon="12.231581830088043"><ele>486.0</ele><time>2026-04-04T13:31:05Z</time></trkpt><trkpt lat="42.78248754193766" lon="12.23173609516081"><ele>489.6</ele><time>2026-04-04T13:31:07Z</time></trkpt><trkpt lat="42.78244908654659" lon="12.231876060878314"><ele>493.20000000000005</ele><time>2026-04-04T13:31:09Z</time></trkpt><trkpt lat="42.78239833744856" lon="12.23199889469217"><ele>496.79999999999995</ele><time>2026-04-04T13:31:11Z</time></trkpt><trkpt lat="42.78236182068398" lon="12.232068989777124"><ele>500.4</ele><time>2026-04-04T13:31:13Z</time></trkpt><trkpt lat="42.782413987284265" lon="12.23195332124777"><ele>504.0</ele><time>2026-04-04T13:31:34.001Z</time></trkpt><trkpt lat="42.78245029666791" lon="12.23184644572073"><ele>504.0</ele><time>2026-04-04T13:31:36.001Z</time></trkpt><trkpt lat="42.78248403197636" lon="12.23169841479828"><ele>504.0</ele><time>2026-04-04T13:31:38.001Z</time></trkpt><trkpt lat="42.78250967238394" lon="12.23156781998807"><ele>504.0</ele><time>2026-04-04T13:31:40.001Z</time></trkpt><trkpt lat="42.78253081832893" lon="12.231466561701424"><ele>504.0</ele><time>2026-04-04T13:31:42.001Z</time></trkpt><trkpt lat="42.78257868058822" lon="12.23138111238744"><ele>504.0</ele><time>2026-04-04T13:31:44.001Z</time></trkpt><trkpt lat="42.7826495520577" lon="12.231318124367686"><ele>500.4</ele><time>2026-04-04T13:31:46.001Z</time></trkpt><trkpt lat="42.78273053962546" lon="12.231249724795845"><ele>496.79999999999995</ele><time>2026-04-04T13:31:48.001Z</time></trkpt><trkpt lat="42.78280836208945" lon="12.231164647018444"><ele>493.20000000000005</ele><time>2026-04-04T13:31:50.001Z</time></trkpt><trkpt lat="42.782891146567735" lon="12.231079311046907"><ele>489.6</ele><time>2026-04-04T13:31:52.001Z</time></trkpt><trkpt lat="42.78296748157961" lon="12.231017187473672"><ele>486.0</ele><time>2026-04-04T13:31:54.001Z</time></trkpt><trkpt lat="42.78304189297336" lon="12.230967613868808"><ele>486.0</ele><time>2026-04-04T13:31:56.001Z</time></trkpt><trkpt lat="42.783102301859714" lon="12.230918666529629"><ele>486.0</ele><time>2026-04-04T13:31:58.001Z</time></trkpt><trkpt lat="42.78316865169507" lon="12.230863964350288"><ele>486.0</ele><time>2026-04-04T13:32:00.001Z</time></trkpt><trkpt lat="42.78323310001265" lon="12.230819264065804"><ele>486.0</ele><time>2026-04-04T13:32:02.001Z</time></trkpt><trkpt lat="42.78330500929568" lon="12.230785817723888"><ele>486.0</ele><time>2026-04-04T13:32:04.001Z</time></trkpt><trkpt lat="42.78337638842323" lon="12.230757673562"><ele>486.0</ele><time>2026-04-04T13:32:06.001Z</time></trkpt><trkpt lat="42.78348135496831" lon="12.230724944748367"><ele>487.6666666666667</ele><time>2026-04-04T13:32:09Z</time></trkpt><trkpt lat="42.78355434770498" lon="12.230698580783901"><ele>489.33333333333337</ele><time>2026-04-04T13:32:11Z</time></trkpt><trkpt lat="42.78358159039789" lon="12.230606763868126"><ele>491.0</ele><time>2026-04-04T13:32:14Z</time></trkpt><trkpt lat="42.78350642150661" lon="12.230529116657642"><ele>492.6666666666667</ele><time>2026-04-04T13:32:17Z</time></trkpt><trkpt lat="42.78344424196145" lon="12.230491196049476"><ele>494.33333333333337</ele><time>2026-04-04T13:32:19Z</time></trkpt><trkpt lat="42.78340461381607" lon="12.230421454315158"><ele>496.0</ele><time>2026-04-04T13:32:21Z</time></trkpt><trkpt lat="42.78337244516519" lon="12.230308901329764"><ele>491.1666666666667</ele><time>2026-04-04T13:32:24Z</time></trkpt><trkpt lat="42.78332670875648" lon="12.230226134441294"><ele>486.33333333333337</ele><time>2026-04-04T13:32:26Z</time></trkpt><trkpt lat="42.78326282381028" lon="12.230188553018492"><ele>481.5</ele><time>2026-04-04T13:32:28Z</time></trkpt><trkpt lat="42.783185021950935" lon="12.230196773587078"><ele>476.66666666666663</ele><time>2026-04-04T13:32:30Z</time></trkpt><trkpt lat="42.78309812959129" lon="12.230216428886795"><ele>471.8333333333333</ele><time>2026-04-04T13:32:32Z</time></trkpt><trkpt lat="42.78301432982246" lon="12.230220278063936"><ele>467.0</ele><time>2026-04-04T13:32:34Z</time></trkpt><trkpt lat="42.782927572894685" lon="12.230224218590825"><ele>467.0</ele><time>2026-04-04T13:32:36Z</time></trkpt><trkpt lat="42.78282201612922" lon="12.23022106258301"><ele>467.00000000000006</ele><time>2026-04-04T13:32:38Z</time></trkpt><trkpt lat="42.782717232136065" lon="12.230187227983185"><ele>467.00000000000006</ele><time>2026-04-04T13:32:40Z</time></trkpt><trkpt lat="42.782643638705494" lon="12.230163204374422"><ele>467.0</ele><time>2026-04-04T13:32:41Z</time></trkpt><trkpt lat="42.78254086758069" lon="12.230140914678978"><ele>467.0</ele><time>2026-04-04T13:32:43Z</time></trkpt><trkpt lat="42.782472850116456" lon="12.230150746406622"><ele>465.0</ele><time>2026-04-04T13:32:44Z</time></trkpt><trkpt lat="42.782398547208594" lon="12.230162752915257"><ele>463.00000000000006</ele><time>2026-04-04T13:32:45Z</time></trkpt><trkpt lat="42.782325868380155" lon="12.23018164228684"><ele>461.00000000000006</ele><time>2026-04-04T13:32:46Z</time></trkpt><trkpt lat="42.782252959833365" lon="12.23019932042278"><ele>459.0</ele><time>2026-04-04T13:32:47Z</time></trkpt><trkpt lat="42.78213679904267" lon="12.230236487728392"><ele>457.0</ele><time>2026-04-04T13:32:49Z</time></trkpt><trkpt lat="42.78202191309165" lon="12.230232368843668"><ele>457.00000000000006</ele><time>2026-04-04T13:32:51Z</time></trkpt><trkpt lat="42.78190491185176" lon="12.230231942082145"><ele>457.0</ele><time>2026-04-04T13:32:53Z</time></trkpt><trkpt lat="42.78183904828442" lon="12.230237299866833"><ele>457.0</ele><time>2026-04-04T13:32:54Z</time></trkpt><trkpt lat="42.78176652794747" lon="12.230245626103372"><ele>457.0</ele><time>2026-04-04T13:32:55Z</time></trkpt><trkpt lat="42.78170134048041" lon="12.230250842708719"><ele>457.00000000000006</ele><time>2026-04-04T13:32:56Z</time></trkpt><trkpt lat="42.78162706303779" lon="12.230245799099174"><ele>457.0</ele><time>2026-04-04T13:32:57Z</time></trkpt><trkpt lat="42.78154948859541" lon="12.23024255931903"><ele>455.28571428571433</ele><time>2026-04-04T13:32:58Z</time></trkpt><trkpt lat="42.781469843189385" lon="12.230230141798707"><ele>453.57142857142856</ele><time>2026-04-04T13:32:59Z</time></trkpt><trkpt lat="42.78140773383246" lon="12.230194655820291"><ele>451.8571428571429</ele><time>2026-04-04T13:33:00Z</time></trkpt><trkpt lat="42.78133317263864" lon="12.230198518182549"><ele>450.14285714285717</ele><time>2026-04-04T13:33:01Z</time></trkpt><trkpt lat="42.781269673170854" lon="12.2302044919265"><ele>448.42857142857144</ele><time>2026-04-04T13:33:02Z</time></trkpt><trkpt lat="42.78120628898263" lon="12.230182296974164"><ele>446.7142857142857</ele><time>2026-04-04T13:33:03Z</time></trkpt><trkpt lat="42.78114346964043" lon="12.230163390835036"><ele>445.0</ele><time>2026-04-04T13:33:04Z</time></trkpt><trkpt lat="42.78103908679784" lon="12.230116521715257"><ele>444.2</ele><time>2026-04-04T13:33:06Z</time></trkpt><trkpt lat="42.78095710641761" lon="12.230089116583851"><ele>443.4</ele><time>2026-04-04T13:33:08Z</time></trkpt><trkpt lat="42.78085829099422" lon="12.230122154901494"><ele>442.6</ele><time>2026-04-04T13:33:15Z</time></trkpt><trkpt lat="42.78077776712155" lon="12.230186990603062"><ele>441.8</ele><time>2026-04-04T13:33:17Z</time></trkpt><trkpt lat="42.780689007194596" lon="12.23024542096973"><ele>441.0</ele><time>2026-04-04T13:33:19Z</time></trkpt><trkpt lat="42.78058254236975" lon="12.230288547147683"><ele>441.0</ele><time>2026-04-04T13:33:21Z</time></trkpt><trkpt lat="42.78049693982455" lon="12.230340118274267"><ele>441.0</ele><time>2026-04-04T13:33:23Z</time></trkpt><trkpt lat="42.78044289012193" lon="12.230421631634544"><ele>441.0</ele><time>2026-04-04T13:33:26Z</time></trkpt><trkpt lat="42.780437072465126" lon="12.23051267046535"><ele>441.0</ele><time>2026-04-04T13:33:32Z</time></trkpt><trkpt lat="42.780509375047636" lon="12.230549569760894"><ele>441.0</ele><time>2026-04-04T13:33:36Z</time></trkpt><trkpt lat="42.78058279220348" lon="12.230587106965684"><ele>441.0</ele><time>2026-04-04T13:33:38Z</time></trkpt><trkpt lat="42.780653658491296" lon="12.230641900936321"><ele>442.3333333333333</ele><time>2026-04-04T13:33:40Z</time></trkpt><trkpt lat="42.78071738679428" lon="12.230721921399544"><ele>443.66666666666663</ele><time>2026-04-04T13:33:42Z</time></trkpt><trkpt lat="42.78076218933813" lon="12.230806879341934"><ele>445.0</ele><time>2026-04-04T13:33:44Z</time></trkpt><trkpt lat="42.78077008545883" lon="12.23089888270465"><ele>446.3333333333333</ele><time>2026-04-04T13:33:46Z</time></trkpt><trkpt lat="42.78073293333441" lon="12.23099152287825"><ele>447.66666666666663</ele><time>2026-04-04T13:33:48Z</time></trkpt><trkpt lat="42.780660037529316" lon="12.231073453806884"><ele>449.0</ele><time>2026-04-04T13:33:50Z</time></trkpt><trkpt lat="42.780610273270646" lon="12.231150706134954"><ele>449.0</ele><time>2026-04-04T13:33:51Z</time></trkpt><trkpt lat="42.78052770663232" lon="12.231199358386615"><ele>449.0</ele><time>2026-04-04T13:33:53Z</time></trkpt><trkpt lat="42.780427787772645" lon="12.23126284656143"><ele>449.0</ele><time>2026-04-04T13:33:55Z</time></trkpt><trkpt lat="42.78033388286729" lon="12.231317346858527"><ele>449.0</ele><time>2026-04-04T13:33:57Z</time></trkpt><trkpt lat="42.780245718698076" lon="12.231362039894263"><ele>449.0</ele><time>2026-04-04T13:33:59.001Z</time></trkpt><trkpt lat="42.7801404565891" lon="12.231401612320935"><ele>447.4</ele><time>2026-04-04T13:34:01.001Z</time></trkpt><trkpt lat="42.780046125634364" lon="12.23143859999349"><ele>445.79999999999995</ele><time>2026-04-04T13:34:03.001Z</time></trkpt><trkpt lat="42.77994297026841" lon="12.2314751351878"><ele>444.20000000000005</ele><time>2026-04-04T13:34:05.001Z</time></trkpt><trkpt lat="42.77983015541116" lon="12.231541859986105"><ele>442.6</ele><time>2026-04-04T13:34:07.001Z</time></trkpt><trkpt lat="42.77976178118731" lon="12.23159939861556"><ele>441.0</ele><time>2026-04-04T13:34:08.001Z</time></trkpt><trkpt lat="42.77968951877675" lon="12.231703676223034"><ele>444.8</ele><time>2026-04-04T13:34:10.001Z</time></trkpt><trkpt lat="42.779627286517574" lon="12.231836735433664"><ele>448.6</ele><time>2026-04-04T13:34:12.001Z</time></trkpt><trkpt lat="42.779606412328455" lon="12.231986255003386"><ele>452.4</ele><time>2026-04-04T13:34:14.001Z</time></trkpt><trkpt lat="42.77958930778144" lon="12.232069483574639"><ele>456.2</ele><time>2026-04-04T13:34:14.999Z</time></trkpt><trkpt lat="42.779562830259565" lon="12.23222689376837"><ele>460.0</ele><time>2026-04-04T13:34:16.999Z</time></trkpt><trkpt lat="42.779526440169924" lon="12.232377859956006"><ele>459.8</ele><time>2026-04-04T13:34:18.999Z</time></trkpt><trkpt lat="42.779498102719614" lon="12.23252232411031"><ele>459.6</ele><time>2026-04-04T13:34:20.999Z</time></trkpt><trkpt lat="42.77946837594273" lon="12.232672899291831"><ele>459.4</ele><time>2026-04-04T13:34:22.999Z</time></trkpt><trkpt lat="42.77943951503921" lon="12.23276974641836"><ele>459.2</ele><time>2026-04-04T13:34:24.999Z</time></trkpt><trkpt lat="42.77939025889964" lon="12.232858901674723"><ele>459.0</ele><time>2026-04-04T13:34:26.999Z</time></trkpt><trkpt lat="42.77934033655206" lon="12.232925192860458"><ele>462.1666666666667</ele><time>2026-04-04T13:34:28.999Z</time></trkpt><trkpt lat="42.77936034099292" lon="12.233015297143396"><ele>465.33333333333337</ele><time>2026-04-04T13:34:32Z</time></trkpt><trkpt lat="42.77943998907226" lon="12.233038437050554"><ele>468.5</ele><time>2026-04-04T13:34:35Z</time></trkpt><trkpt lat="42.77954157836789" lon="12.233004406702662"><ele>471.6666666666667</ele><time>2026-04-04T13:34:37Z</time></trkpt><trkpt lat="42.77961288348647" lon="12.232984073158532"><ele>474.83333333333337</ele><time>2026-04-04T13:34:39Z</time></trkpt><trkpt lat="42.779700407623444" lon="12.23294294408693"><ele>478.0</ele><time>2026-04-04T13:34:41Z</time></trkpt><trkpt lat="42.77979362213112" lon="12.232877358611567"><ele>478.0</ele><time>2026-04-04T13:34:43Z</time></trkpt><trkpt lat="42.77988620319878" lon="12.232815738302289"><ele>477.99999999999994</ele><time>2026-04-04T13:34:45Z</time></trkpt><trkpt lat="42.77997521113181" lon="12.23274706831838"><ele>477.99999999999994</ele><time>2026-04-04T13:34:47Z</time></trkpt><trkpt lat="42.78004390799588" lon="12.232685403471775"><ele>478.0</ele><time>2026-04-04T13:34:49Z</time></trkpt><trkpt lat="42.78010831838244" lon="12.232648510891606"><ele>478.0</ele><time>2026-04-04T13:34:51Z</time></trkpt><trkpt lat="42.78020703599615" lon="12.232631282642746"><ele>481.5</ele><time>2026-04-04T13:34:53Z</time></trkpt><trkpt lat="42.7803235643895" lon="12.232628513474278"><ele>485.0</ele><time>2026-04-04T13:34:55Z</time></trkpt><trkpt lat="42.78043199822147" lon="12.23257120520975"><ele>488.5</ele><time>2026-04-04T13:34:57Z</time></trkpt><trkpt lat="42.7805307825317" lon="12.232484366664378"><ele>492.0</ele><time>2026-04-04T13:34:59Z</time></trkpt><trkpt lat="42.78064172831773" lon="12.232440311101739"><ele>492.0</ele><time>2026-04-04T13:35:01Z</time></trkpt><trkpt lat="42.780717465663045" lon="12.232423513688834"><ele>492.0</ele><time>2026-04-04T13:35:03Z</time></trkpt><trkpt lat="42.7807953714305" lon="12.232438781486069"><ele>492.0</ele><time>2026-04-04T13:35:07Z</time></trkpt><trkpt lat="42.78087477421416" lon="12.23242546938342"><ele>492.0</ele><time>2026-04-04T13:35:10Z</time></trkpt><trkpt lat="42.78095231385119" lon="12.232387944894853"><ele>492.0</ele><time>2026-04-04T13:35:13Z</time></trkpt><trkpt lat="42.781024944542416" lon="12.23243889008195"><ele>492.0</ele><time>2026-04-04T13:35:16Z</time></trkpt><trkpt lat="42.78100788569982" lon="12.232525267194688"><ele>492.0</ele><time>2026-04-04T13:35:18Z</time></trkpt><trkpt lat="42.78094631386097" lon="12.232585656386089"><ele>492.0</ele><time>2026-04-04T13:35:20Z</time></trkpt><trkpt lat="42.78087656342281" lon="12.232610794607515"><ele>492.0</ele><time>2026-04-04T13:35:22Z</time></trkpt><trkpt lat="42.78080152192877" lon="12.232666396444912"><ele>492.0</ele><time>2026-04-04T13:35:24Z</time></trkpt><trkpt lat="42.780718306218255" lon="12.232738859961454"><ele>492.0</ele><time>2026-04-04T13:35:26Z</time></trkpt><trkpt lat="42.78064636526234" lon="12.232808171390879"><ele>492.0</ele><time>2026-04-04T13:35:27Z</time></trkpt><trkpt lat="42.780570446170955" lon="12.232849665312793"><ele>492.0</ele><time>2026-04-04T13:35:29Z</time></trkpt><trkpt lat="42.78046889744931" lon="12.232888187063539"><ele>492.00000000000006</ele><time>2026-04-04T13:35:31Z</time></trkpt><trkpt lat="42.78038173852174" lon="12.232931417387896"><ele>492.00000000000006</ele><time>2026-04-04T13:35:33Z</time></trkpt><trkpt lat="42.78029069647189" lon="12.23297588942608"><ele>492.0</ele><time>2026-04-04T13:35:35Z</time></trkpt><trkpt lat="42.780222554973044" lon="12.23301776445615"><ele>492.0</ele><time>2026-04-04T13:35:37Z</time></trkpt><trkpt lat="42.78016722403869" lon="12.233096486256342"><ele>493.0</ele><time>2026-04-04T13:35:41Z</time></trkpt><trkpt lat="42.78010489689309" lon="12.233157762036468"><ele>494.0</ele><time>2026-04-04T13:35:43Z</time></trkpt><trkpt lat="42.780031339823836" lon="12.233207140618836"><ele>495.0</ele><time>2026-04-04T13:35:45Z</time></trkpt><trkpt lat="42.77995373067096" lon="12.233268532752646"><ele>496.0</ele><time>2026-04-04T13:35:47Z</time></trkpt><trkpt lat="42.779894133884554" lon="12.23334155507787"><ele>497.0</ele><time>2026-04-04T13:35:49Z</time></trkpt><trkpt lat="42.77983381450463" lon="12.233415741103045"><ele>498.0</ele><time>2026-04-04T13:35:51Z</time></trkpt><trkpt lat="42.77979206757262" lon="12.233484411222918"><ele>498.0</ele><time>2026-04-04T13:35:53Z</time></trkpt><trkpt lat="42.779755571940406" lon="12.233578682299111"><ele>498.0</ele><time>2026-04-04T13:35:56Z</time></trkpt><trkpt lat="42.77971982997787" lon="12.233687907862368"><ele>498.0</ele><time>2026-04-04T13:36:00Z</time></trkpt><trkpt lat="42.77965608506773" lon="12.233781182040417"><ele>498.0</ele><time>2026-04-04T13:36:02Z</time></trkpt><trkpt lat="42.77969902240231" lon="12.233853703615402"><ele>498.0</ele><time>2026-04-04T13:36:07.001Z</time></trkpt><trkpt lat="42.77975936764554" lon="12.23380608884768"><ele>498.0</ele><time>2026-04-04T13:36:09.001Z</time></trkpt><trkpt lat="42.77982227733504" lon="12.233789689446475"><ele>498.0</ele><time>2026-04-04T13:36:11.001Z</time></trkpt><trkpt lat="42.77988960944291" lon="12.2338125318617"><ele>498.0</ele><time>2026-04-04T13:36:13.001Z</time></trkpt><trkpt lat="42.77995529506145" lon="12.233871666019109"><ele>498.0</ele><time>2026-04-04T13:36:15.001Z</time></trkpt><trkpt lat="42.78001979301436" lon="12.233930792969497"><ele>498.0</ele><time>2026-04-04T13:36:17.001Z</time></trkpt><trkpt lat="42.7800872592522" lon="12.23397678284885"><ele>498.0</ele><time>2026-04-04T13:36:19.001Z</time></trkpt><trkpt lat="42.78017069890619" lon="12.234042880137528"><ele>498.0</ele><time>2026-04-04T13:36:20.999Z</time></trkpt><trkpt lat="42.78024790538041" lon="12.23409835319737"><ele>503.4</ele><time>2026-04-04T13:36:22.999Z</time></trkpt><trkpt lat="42.78032955929895" lon="12.234155915717166"><ele>508.79999999999995</ele><time>2026-04-04T13:36:24.999Z</time></trkpt><trkpt lat="42.78041722223238" lon="12.2341824229558"><ele>514.2</ele><time>2026-04-04T13:36:26.999Z</time></trkpt><trkpt lat="42.78050674168413" lon="12.23421709986913"><ele>519.6</ele><time>2026-04-04T13:36:28.999Z</time></trkpt><trkpt lat="42.780610724507454" lon="12.23424151295334"><ele>525.0</ele><time>2026-04-04T13:36:30.999Z</time></trkpt><trkpt lat="42.78071161797594" lon="12.234260849063048"><ele>525.0</ele><time>2026-04-04T13:36:32.999Z</time></trkpt><trkpt lat="42.780817799133" lon="12.234270211702867"><ele>525.0</ele><time>2026-04-04T13:36:34.999Z</time></trkpt><trkpt lat="42.780927471715216" lon="12.234268782993857"><ele>525.0</ele><time>2026-04-04T13:36:36.999Z</time></trkpt><trkpt lat="42.78103939846278" lon="12.234271030924075"><ele>525.0</ele><time>2026-04-04T13:36:38.999Z</time></trkpt><trkpt lat="42.78115118764151" lon="12.234281305431049"><ele>525.0</ele><time>2026-04-04T13:36:40.999Z</time></trkpt><trkpt lat="42.78126428969087" lon="12.234274618270543"><ele>526.6</ele><time>2026-04-04T13:36:43Z</time></trkpt><trkpt lat="42.78135630113778" lon="12.23425693694138"><ele>528.2</ele><time>2026-04-04T13:36:45Z</time></trkpt><trkpt lat="42.781439575470294" lon="12.234245303675511"><ele>529.8</ele><time>2026-04-04T13:36:47Z</time></trkpt><trkpt lat="42.781541061791515" lon="12.234209098866842"><ele>531.4</ele><time>2026-04-04T13:36:49Z</time></trkpt><trkpt lat="42.78164476313763" lon="12.234160627967787"><ele>533.0</ele><time>2026-04-04T13:36:51Z</time></trkpt><trkpt lat="42.78174297342931" lon="12.23409969508985"><ele>533.0</ele><time>2026-04-04T13:36:53Z</time></trkpt><trkpt lat="42.781827815054264" lon="12.234033664063999"><ele>533.0</ele><time>2026-04-04T13:36:55Z</time></trkpt><trkpt lat="42.78189503986138" lon="12.233959964156266"><ele>533.0</ele><time>2026-04-04T13:36:57Z</time></trkpt><trkpt lat="42.78195733627084" lon="12.233900013174805"><ele>533.0</ele><time>2026-04-04T13:36:59Z</time></trkpt><trkpt lat="42.78204096157626" lon="12.233814391411183"><ele>533.0</ele><time>2026-04-04T13:37:02Z</time></trkpt><trkpt lat="42.782110787645166" lon="12.233741074348575"><ele>534.1666666666666</ele><time>2026-04-04T13:37:04Z</time></trkpt><trkpt lat="42.78219888065897" lon="12.233661728371315"><ele>535.3333333333333</ele><time>2026-04-04T13:37:06Z</time></trkpt><trkpt lat="42.78228657749925" lon="12.233595710690114"><ele>536.5</ele><time>2026-04-04T13:37:08Z</time></trkpt><trkpt lat="42.78235494815032" lon="12.233550042840939"><ele>537.6666666666666</ele><time>2026-04-04T13:37:10Z</time></trkpt><trkpt lat="42.78243177255618" lon="12.233500860868862"><ele>538.8333333333334</ele><time>2026-04-04T13:37:12Z</time></trkpt><trkpt lat="42.78248435526768" lon="12.233440374762669"><ele>540.0</ele><time>2026-04-04T13:37:13Z</time></trkpt><trkpt lat="42.78257672687505" lon="12.23336918398174"><ele>540.0</ele><time>2026-04-04T13:37:15Z</time></trkpt><trkpt lat="42.78264366141256" lon="12.23329238622195"><ele>540.0</ele><time>2026-04-04T13:37:17Z</time></trkpt><trkpt lat="42.782711728635896" lon="12.233252321961572"><ele>540.0</ele><time>2026-04-04T13:37:19Z</time></trkpt><trkpt lat="42.78280558288935" lon="12.23323458518088"><ele>540.0</ele><time>2026-04-04T13:37:22Z</time></trkpt><trkpt lat="42.782896010241814" lon="12.233239104808284"><ele>540.0</ele><time>2026-04-04T13:37:24Z</time></trkpt><trkpt lat="42.78298436552382" lon="12.233249245278783"><ele>540.0</ele><time>2026-04-04T13:37:26Z</time></trkpt><trkpt lat="42.783068139009416" lon="12.233219812789981"><ele>539.3333333333334</ele><time>2026-04-04T13:37:28Z</time></trkpt><trkpt lat="42.7831486887491" lon="12.23316044544317"><ele>538.6666666666666</ele><time>2026-04-04T13:37:30Z</time></trkpt><trkpt lat="42.78324168406053" lon="12.233101966769908"><ele>538.0</ele><time>2026-04-04T13:37:32Z</time></trkpt><trkpt lat="42.783304798991225" lon="12.233059352435076"><ele>537.3333333333333</ele><time>2026-04-04T13:43:18.001Z</time></trkpt><trkpt lat="42.78336494836247" lon="12.233016956823885"><ele>536.6666666666666</ele><time>2026-04-04T13:43:20.001Z</time></trkpt><trkpt lat="42.783437247702274" lon="12.23297559574916"><ele>536.0</ele><time>2026-04-04T13:43:22.001Z</time></trkpt><trkpt lat="42.783507740189556" lon="12.232968919411833"><ele>537.4285714285714</ele><time>2026-04-04T13:43:25.001Z</time></trkpt><trkpt lat="42.78357240410033" lon="12.232973465894554"><ele>538.8571428571429</ele><time>2026-04-04T13:43:27.001Z</time></trkpt><trkpt lat="42.78363123809098" lon="12.233010808724263"><ele>540.2857142857142</ele><time>2026-04-04T13:43:29.001Z</time></trkpt><trkpt lat="42.78368881257211" lon="12.23305515002254"><ele>541.7142857142858</ele><time>2026-04-04T13:43:31.001Z</time></trkpt><trkpt lat="42.783752260886416" lon="12.233049655184347"><ele>543.1428571428571</ele><time>2026-04-04T13:43:33.001Z</time></trkpt><trkpt lat="42.783835221546475" lon="12.23306523912162"><ele>544.5714285714286</ele><time>2026-04-04T13:43:35.001Z</time></trkpt><trkpt lat="42.78390486970668" lon="12.233091752512646"><ele>546.0</ele><time>2026-04-04T13:43:37.001Z</time></trkpt><trkpt lat="42.783962855351646" lon="12.233137010514891"><ele>547.6</ele><time>2026-04-04T13:43:39.001Z</time></trkpt><trkpt lat="42.78399029507124" lon="12.233231865668328"><ele>549.2</ele><time>2026-04-04T13:43:42.001Z</time></trkpt><trkpt lat="42.784026098639515" lon="12.23334276530092"><ele>550.8</ele><time>2026-04-04T13:43:45.001Z</time></trkpt><trkpt lat="42.784071936047745" lon="12.233453030350642"><ele>552.4</ele><time>2026-04-04T13:43:48.001Z</time></trkpt><trkpt lat="42.7841493093899" lon="12.233542727481769"><ele>554.0</ele><time>2026-04-04T13:43:51.001Z</time></trkpt><trkpt lat="42.78420759913212" lon="12.23364739727566"><ele>554.0</ele><time>2026-04-04T13:43:53.001Z</time></trkpt><trkpt lat="42.78428647490888" lon="12.233736058234141"><ele>554.0</ele><time>2026-04-04T13:43:56.001Z</time></trkpt><trkpt lat="42.78435606536682" lon="12.233773451234214"><ele>554.0</ele><time>2026-04-04T13:43:58.001Z</time></trkpt><trkpt lat="42.78445043697797" lon="12.233804739144805"><ele>554.0</ele><time>2026-04-04T13:44:00.001Z</time></trkpt><trkpt lat="42.78455359526026" lon="12.233807557162132"><ele>554.0</ele><time>2026-04-04T13:44:02.001Z</time></trkpt><trkpt lat="42.784623497427326" lon="12.233810447111255"><ele>554.0</ele><time>2026-04-04T13:44:04.001Z</time></trkpt><trkpt lat="42.784671721922045" lon="12.233875537909029"><ele>555.3333333333333</ele><time>2026-04-04T13:44:07.001Z</time></trkpt><trkpt lat="42.78469031998703" lon="12.233987805716026"><ele>556.6666666666666</ele><time>2026-04-04T13:44:10.001Z</time></trkpt><trkpt lat="42.784733785008456" lon="12.234093527225387"><ele>558.0</ele><time>2026-04-04T13:44:13.001Z</time></trkpt><trkpt lat="42.78479550624485" lon="12.234148464679668"><ele>559.3333333333334</ele><time>2026-04-04T13:44:15.001Z</time></trkpt><trkpt lat="42.78486151253477" lon="12.23416910105131"><ele>560.6666666666667</ele><time>2026-04-04T13:44:17.001Z</time></trkpt><trkpt lat="42.78494355594352" lon="12.234167680138219"><ele>562.0</ele><time>2026-04-04T13:44:19.001Z</time></trkpt><trkpt lat="42.785046873449396" lon="12.234166583246497"><ele>562.0</ele><time>2026-04-04T13:44:21.001Z</time></trkpt><trkpt lat="42.78516044410287" lon="12.234170082967132"><ele>562.0</ele><time>2026-04-04T13:44:23.001Z</time></trkpt><trkpt lat="42.78524477129423" lon="12.23419272406444"><ele>562.0</ele><time>2026-04-04T13:44:25.001Z</time></trkpt><trkpt lat="42.78534267463719" lon="12.234227158088729"><ele>562.0</ele><time>2026-04-04T13:44:27.001Z</time></trkpt><trkpt lat="42.785424444804946" lon="12.23423066066043"><ele>562.0</ele><time>2026-04-04T13:44:29.001Z</time></trkpt><trkpt lat="42.78550644759112" lon="12.234220619911236"><ele>564.3333333333334</ele><time>2026-04-04T13:44:31.001Z</time></trkpt><trkpt lat="42.78559405990307" lon="12.23420915884817"><ele>566.6666666666667</ele><time>2026-04-04T13:44:33.001Z</time></trkpt><trkpt lat="42.78566920845023" lon="12.234213355528922"><ele>569.0</ele><time>2026-04-04T13:44:35.001Z</time></trkpt><trkpt lat="42.78573165124111" lon="12.234285211225416"><ele>571.3333333333334</ele><time>2026-04-04T13:44:37.001Z</time></trkpt><trkpt lat="42.78577701306749" lon="12.23438420166604"><ele>573.6666666666666</ele><time>2026-04-04T13:44:39.001Z</time></trkpt><trkpt lat="42.7858425811191" lon="12.234459836952201"><ele>576.0</ele><time>2026-04-04T13:44:41.001Z</time></trkpt><trkpt lat="42.78588085801511" lon="12.234531601553282"><ele>576.0</ele><time>2026-04-04T13:44:43.001Z</time></trkpt><trkpt lat="42.785921450429136" lon="12.23460893933948"><ele>576.0</ele><time>2026-04-04T13:44:45Z</time></trkpt><trkpt lat="42.78596648923455" lon="12.234707568530325"><ele>576.0</ele><time>2026-04-04T13:44:47Z</time></trkpt><trkpt lat="42.78600526114901" lon="12.234800811486869"><ele>576.0</ele><time>2026-04-04T13:44:49Z</time></trkpt><trkpt lat="42.78604646142391" lon="12.234905055703573"><ele>576.0</ele><time>2026-04-04T13:44:51Z</time></trkpt><trkpt lat="42.786066101624975" lon="12.23499073475171"><ele>576.0</ele><time>2026-04-04T13:44:53Z</time></trkpt><trkpt lat="42.78610658429484" lon="12.235071601922106"><ele>578.0</ele><time>2026-04-04T13:44:55Z</time></trkpt><trkpt lat="42.7861417047593" lon="12.235190486270277"><ele>580.0</ele><time>2026-04-04T13:44:58Z</time></trkpt><trkpt lat="42.786187625072614" lon="12.235303287877697"><ele>582.0</ele><time>2026-04-04T13:45:01Z</time></trkpt><trkpt lat="42.786226429978655" lon="12.235420121272684"><ele>584.0</ele><time>2026-04-04T13:45:03Z</time></trkpt><trkpt lat="42.78627936976668" lon="12.23552973074428"><ele>586.0</ele><time>2026-04-04T13:45:05Z</time></trkpt><trkpt lat="42.786321684686264" lon="12.235629419012968"><ele>584.0</ele><time>2026-04-04T13:45:07Z</time></trkpt><trkpt lat="42.78635681949717" lon="12.2357120382982"><ele>582.0</ele><time>2026-04-04T13:45:09Z</time></trkpt><trkpt lat="42.78640127099211" lon="12.235790984470933"><ele>580.0</ele><time>2026-04-04T13:45:11Z</time></trkpt><trkpt lat="42.78644967743859" lon="12.235890207564596"><ele>578.0</ele><time>2026-04-04T13:45:13Z</time></trkpt><trkpt lat="42.786493532964016" lon="12.235980133304446"><ele>576.0</ele><time>2026-04-04T13:45:15Z</time></trkpt><trkpt lat="42.78653552560438" lon="12.23607572999367"><ele>574.0</ele><time>2026-04-04T13:45:17Z</time></trkpt><trkpt lat="42.78657022766218" lon="12.236174449719602"><ele>574.0</ele><time>2026-04-04T13:45:19Z</time></trkpt><trkpt lat="42.78660103780872" lon="12.23627621201413"><ele>574.0</ele><time>2026-04-04T13:45:21Z</time></trkpt><trkpt lat="42.78664410531839" lon="12.236381982901483"><ele>574.0</ele><time>2026-04-04T13:45:23Z</time></trkpt><trkpt lat="42.78667584731513" lon="12.236480638585158"><ele>574.0</ele><time>2026-04-04T13:45:25Z</time></trkpt><trkpt lat="42.78670885954876" lon="12.236579542255958"><ele>574.0</ele><time>2026-04-04T13:45:27Z</time></trkpt><trkpt lat="42.78675660801019" lon="12.236670946803168"><ele>574.0</ele><time>2026-04-04T13:45:29Z</time></trkpt><trkpt lat="42.786800483231914" lon="12.23673859310332"><ele>574.1666666666667</ele><time>2026-04-04T13:45:31Z</time></trkpt><trkpt lat="42.78686180013968" lon="12.236796766120673"><ele>574.3333333333334</ele><time>2026-04-04T13:45:35Z</time></trkpt><trkpt lat="42.78694396566228" lon="12.23682524718553"><ele>574.5</ele><time>2026-04-04T13:46:25.001Z</time></trkpt><trkpt lat="42.7868365345942" lon="12.236767477238105"><ele>574.6666666666666</ele><time>2026-04-04T13:46:52Z</time></trkpt><trkpt lat="42.7867754811561" lon="12.236834211489075"><ele>574.8333333333333</ele><time>2026-04-04T13:46:56Z</time></trkpt><trkpt lat="42.78677041048865" lon="12.236932029671564"><ele>575.0</ele><time>2026-04-04T13:46:58Z</time></trkpt><trkpt lat="42.78678436238118" lon="12.237041071409731"><ele>573.6666666666666</ele><time>2026-04-04T13:47:01Z</time></trkpt><trkpt lat="42.78679555099233" lon="12.23713916188717"><ele>572.3333333333333</ele><time>2026-04-04T13:47:04Z</time></trkpt><trkpt lat="42.786820389124976" lon="12.237257499165493"><ele>571.0</ele><time>2026-04-04T13:47:07Z</time></trkpt><trkpt lat="42.78683777977417" lon="12.237341783507656"><ele>569.6666666666666</ele><time>2026-04-04T13:47:09Z</time></trkpt><trkpt lat="42.7868740542563" lon="12.237440198433841"><ele>568.3333333333334</ele><time>2026-04-04T13:47:11Z</time></trkpt><trkpt lat="42.78692130497934" lon="12.237512064698283"><ele>567.0</ele><time>2026-04-04T13:47:13Z</time></trkpt><trkpt lat="42.786986526467274" lon="12.237589166242113"><ele>567.0</ele><time>2026-04-04T13:47:15Z</time></trkpt><trkpt lat="42.787049266917954" lon="12.237671301878791"><ele>567.0</ele><time>2026-04-04T13:47:17Z</time></trkpt><trkpt lat="42.78707194071711" lon="12.237785862361621"><ele>567.0</ele><time>2026-04-04T13:47:19Z</time></trkpt><trkpt lat="42.78707332045898" lon="12.237891569639872"><ele>567.0</ele><time>2026-04-04T13:47:21Z</time></trkpt><trkpt lat="42.78710214277698" lon="12.237978758230792"><ele>567.0</ele><time>2026-04-04T13:47:23Z</time></trkpt><trkpt lat="42.78715988075424" lon="12.238073482975864"><ele>567.0</ele><time>2026-04-04T13:47:27Z</time></trkpt><trkpt lat="42.78720914625647" lon="12.238195054168397"><ele>565.2</ele><time>2026-04-04T13:47:29Z</time></trkpt><trkpt lat="42.78724796625854" lon="12.238316780518241"><ele>563.4000000000001</ele><time>2026-04-04T13:47:31Z</time></trkpt><trkpt lat="42.78727970632565" lon="12.238439311666736"><ele>561.5999999999999</ele><time>2026-04-04T13:47:33Z</time></trkpt><trkpt lat="42.78731462606406" lon="12.23853145119775"><ele>559.8</ele><time>2026-04-04T13:47:35Z</time></trkpt><trkpt lat="42.78735785629028" lon="12.238639656047681"><ele>558.0</ele><time>2026-04-04T13:47:37Z</time></trkpt><trkpt lat="42.7874217360248" lon="12.238738601269109"><ele>558.0</ele><time>2026-04-04T13:47:39Z</time></trkpt><trkpt lat="42.7874947083538" lon="12.238819410981222"><ele>558.0</ele><time>2026-04-04T13:47:41Z</time></trkpt><trkpt lat="42.78759249541508" lon="12.238886634453465"><ele>558.0</ele><time>2026-04-04T13:47:43Z</time></trkpt><trkpt lat="42.78769877931483" lon="12.238933177008482"><ele>558.0</ele><time>2026-04-04T13:47:45Z</time></trkpt><trkpt lat="42.787808335862195" lon="12.238895951178202"><ele>558.0</ele><time>2026-04-04T13:47:47Z</time></trkpt><trkpt lat="42.78792044223946" lon="12.238894223505792"><ele>558.0</ele><time>2026-04-04T13:47:49Z</time></trkpt><trkpt lat="42.787976604332535" lon="12.23900252750553"><ele>558.0</ele><time>2026-04-04T13:47:51Z</time></trkpt><trkpt lat="42.7879646480571" lon="12.239112906378619"><ele>558.0</ele><time>2026-04-04T13:47:53Z</time></trkpt><trkpt lat="42.787910211620265" lon="12.239216066672345"><ele>558.0</ele><time>2026-04-04T13:47:55Z</time></trkpt><trkpt lat="42.787822454214485" lon="12.239279200706877"><ele>558.0</ele><time>2026-04-04T13:47:57Z</time></trkpt><trkpt lat="42.78776362841767" lon="12.239337587655942"><ele>558.0</ele><time>2026-04-04T13:47:58Z</time></trkpt><trkpt lat="42.78767751845106" lon="12.23944673473107"><ele>556.4</ele><time>2026-04-04T13:47:59Z</time></trkpt><trkpt lat="42.78760052670554" lon="12.239502574186474"><ele>554.8</ele><time>2026-04-04T13:48:00Z</time></trkpt><trkpt lat="42.78751497722872" lon="12.239540703330961"><ele>553.2</ele><time>2026-04-04T13:48:01Z</time></trkpt><trkpt lat="42.787418508102554" lon="12.239587920730767"><ele>551.6</ele><time>2026-04-04T13:48:02Z</time></trkpt><trkpt lat="42.787323289435044" lon="12.239637190379408"><ele>550.0</ele><time>2026-04-04T13:48:03Z</time></trkpt><trkpt lat="42.78723521114623" lon="12.239706695018993"><ele>550.0</ele><time>2026-04-04T13:48:04Z</time></trkpt><trkpt lat="42.78713223395803" lon="12.239758334314502"><ele>550.0</ele><time>2026-04-04T13:48:05Z</time></trkpt><trkpt lat="42.78704026720426" lon="12.239818883327288"><ele>550.0</ele><time>2026-04-04T13:48:06Z</time></trkpt><trkpt lat="42.78695390476567" lon="12.239894324075102"><ele>550.0</ele><time>2026-04-04T13:48:07Z</time></trkpt><trkpt lat="42.786877966844095" lon="12.23997806568981"><ele>550.0</ele><time>2026-04-04T13:48:08Z</time></trkpt><trkpt lat="42.7868123897223" lon="12.240059984085576"><ele>549.5</ele><time>2026-04-04T13:48:09Z</time></trkpt><trkpt lat="42.78674746473238" lon="12.240130867281717"><ele>549.0</ele><time>2026-04-04T13:48:10Z</time></trkpt><trkpt lat="42.786671456581594" lon="12.240185989367978"><ele>548.5</ele><time>2026-04-04T13:48:11Z</time></trkpt><trkpt lat="42.78659172291327" lon="12.240202681868157"><ele>548.0</ele><time>2026-04-04T13:48:12Z</time></trkpt><trkpt lat="42.78651362633988" lon="12.240229107758795"><ele>547.5</ele><time>2026-04-04T13:48:13Z</time></trkpt><trkpt lat="42.78643015399388" lon="12.240248510823363"><ele>547.0</ele><time>2026-04-04T13:48:14Z</time></trkpt><trkpt lat="42.786349945321795" lon="12.240260913615671"><ele>547.0</ele><time>2026-04-04T13:48:15Z</time></trkpt><trkpt lat="42.78626363850517" lon="12.240270791962153"><ele>547.0</ele><time>2026-04-04T13:48:16Z</time></trkpt><trkpt lat="42.78618276208411" lon="12.240279929632885"><ele>547.0</ele><time>2026-04-04T13:48:17Z</time></trkpt><trkpt lat="42.78610396589478" lon="12.240303868071841"><ele>547.0</ele><time>2026-04-04T13:48:18Z</time></trkpt><trkpt lat="42.78602852139317" lon="12.240314573950707"><ele>547.0</ele><time>2026-04-04T13:48:19Z</time></trkpt><trkpt lat="42.785959716607515" lon="12.240336989070508"><ele>547.0</ele><time>2026-04-04T13:48:20Z</time></trkpt><trkpt lat="42.78586296102939" lon="12.240393262395855"><ele>546.1666666666667</ele><time>2026-04-04T13:48:22Z</time></trkpt><trkpt lat="42.78584760860916" lon="12.240567627540198"><ele>545.3333333333334</ele><time>2026-04-04T13:48:24Z</time></trkpt><trkpt lat="42.78584629541716" lon="12.240673207166314"><ele>544.5</ele><time>2026-04-04T13:48:25Z</time></trkpt><trkpt lat="42.785830408666676" lon="12.240778855829037"><ele>543.6666666666666</ele><time>2026-04-04T13:48:26Z</time></trkpt><trkpt lat="42.78582117964305" lon="12.240875671744913"><ele>542.8333333333333</ele><time>2026-04-04T13:48:27.001Z</time></trkpt><trkpt lat="42.7858126719168" lon="12.240971128987104"><ele>542.0</ele><time>2026-04-04T13:48:28.001Z</time></trkpt><trkpt lat="42.78580143647754" lon="12.24107291973703"><ele>542.0</ele><time>2026-04-04T13:48:29.001Z</time></trkpt><trkpt lat="42.78578045018355" lon="12.241176230348508"><ele>542.0</ele><time>2026-04-04T13:48:30.001Z</time></trkpt><trkpt lat="42.78575306079023" lon="12.241266141010566"><ele>542.0</ele><time>2026-04-04T13:48:31.001Z</time></trkpt><trkpt lat="42.78571954444674" lon="12.241349521598476"><ele>542.0</ele><time>2026-04-04T13:48:32.001Z</time></trkpt><trkpt lat="42.785696036055796" lon="12.241446448675328"><ele>542.0</ele><time>2026-04-04T13:48:33.001Z</time></trkpt><trkpt lat="42.785642386294995" lon="12.24151614677036"><ele>542.0</ele><time>2026-04-04T13:48:34.001Z</time></trkpt><trkpt lat="42.78559701503764" lon="12.241599930955722"><ele>542.0</ele><time>2026-04-04T13:48:35.001Z</time></trkpt><trkpt lat="42.785551383985116" lon="12.241674519806988"><ele>540.8571428571429</ele><time>2026-04-04T13:48:36.001Z</time></trkpt><trkpt lat="42.78549717729644" lon="12.241756671287945"><ele>539.7142857142858</ele><time>2026-04-04T13:48:37.001Z</time></trkpt><trkpt lat="42.78544632331128" lon="12.241830250340136"><ele>538.5714285714287</ele><time>2026-04-04T13:48:38.001Z</time></trkpt><trkpt lat="42.78538797716695" lon="12.241908348195574"><ele>537.4285714285714</ele><time>2026-04-04T13:48:39.001Z</time></trkpt><trkpt lat="42.78532990281827" lon="12.241972467059528"><ele>536.2857142857143</ele><time>2026-04-04T13:48:40.001Z</time></trkpt><trkpt lat="42.78526908431399" lon="12.242013465090889"><ele>535.1428571428572</ele><time>2026-04-04T13:48:41.001Z</time></trkpt><trkpt lat="42.78520405262295" lon="12.242047738299908"><ele>534.0</ele><time>2026-04-04T13:48:42.001Z</time></trkpt><trkpt lat="42.78514071586739" lon="12.242084806243943"><ele>533.4285714285714</ele><time>2026-04-04T13:48:43.001Z</time></trkpt><trkpt lat="42.78506966236428" lon="12.242092126592913"><ele>532.8571428571429</ele><time>2026-04-04T13:48:44.001Z</time></trkpt><trkpt lat="42.784993204114755" lon="12.24207486436213"><ele>532.2857142857142</ele><time>2026-04-04T13:48:45.001Z</time></trkpt><trkpt lat="42.784924184391855" lon="12.242109122159807"><ele>531.7142857142858</ele><time>2026-04-04T13:48:46.001Z</time></trkpt><trkpt lat="42.784846594396406" lon="12.242102576302283"><ele>531.1428571428571</ele><time>2026-04-04T13:48:47.001Z</time></trkpt><trkpt lat="42.7847736927885" lon="12.242116356047282"><ele>530.5714285714286</ele><time>2026-04-04T13:48:48.001Z</time></trkpt><trkpt lat="42.78470395368004" lon="12.24211489172897"><ele>530.0</ele><time>2026-04-04T13:48:49.001Z</time></trkpt><trkpt lat="42.78463081019794" lon="12.242118163855805"><ele>530.0</ele><time>2026-04-04T13:48:50.001Z</time></trkpt><trkpt lat="42.78456141183285" lon="12.242157514941589"><ele>530.0</ele><time>2026-04-04T13:48:51.001Z</time></trkpt><trkpt lat="42.784497629003" lon="12.242218389544016"><ele>530.0</ele><time>2026-04-04T13:48:52.001Z</time></trkpt><trkpt lat="42.7844591644871" lon="12.242314503658264"><ele>530.0</ele><time>2026-04-04T13:48:53.001Z</time></trkpt><trkpt lat="42.78442551177282" lon="12.24239953018892"><ele>530.0</ele><time>2026-04-04T13:48:54.001Z</time></trkpt><trkpt lat="42.78440167907839" lon="12.242490399414352"><ele>530.0</ele><time>2026-04-04T13:48:55.001Z</time></trkpt><trkpt lat="42.78438470590462" lon="12.242589255011781"><ele>529.8333333333333</ele><time>2026-04-04T13:48:56.001Z</time></trkpt><trkpt lat="42.78435575045586" lon="12.242690022552686"><ele>529.6666666666666</ele><time>2026-04-04T13:48:56.999Z</time></trkpt><trkpt lat="42.784370265982226" lon="12.242786962840052"><ele>529.5</ele><time>2026-04-04T13:48:57.999Z</time></trkpt><trkpt lat="42.78439718906145" lon="12.242883350085986"><ele>529.3333333333334</ele><time>2026-04-04T13:48:58.999Z</time></trkpt><trkpt lat="42.784457947720746" lon="12.242974794197213"><ele>529.1666666666667</ele><time>2026-04-04T13:48:59.999Z</time></trkpt><trkpt lat="42.78453500491957" lon="12.24304004281746"><ele>529.0</ele><time>2026-04-04T13:49:00.999Z</time></trkpt><trkpt lat="42.78460769526159" lon="12.243073527989843"><ele>529.0</ele><time>2026-04-04T13:49:01.999Z</time></trkpt><trkpt lat="42.78467780244866" lon="12.24308362505736"><ele>529.0</ele><time>2026-04-04T13:49:02.999Z</time></trkpt><trkpt lat="42.78474409311245" lon="12.24310160829656"><ele>529.0</ele><time>2026-04-04T13:49:03.999Z</time></trkpt><trkpt lat="42.78481876752649" lon="12.243105471647397"><ele>529.0</ele><time>2026-04-04T13:49:04.999Z</time></trkpt><trkpt lat="42.78491726095932" lon="12.24313402681305"><ele>529.0</ele><time>2026-04-04T13:49:06.999Z</time></trkpt><trkpt lat="42.78495050243765" lon="12.243210618267804"><ele>529.0</ele><time>2026-04-04T13:49:08.999Z</time></trkpt><trkpt lat="42.784949662875384" lon="12.24333549825083"><ele>528.6</ele><time>2026-04-04T13:49:28Z</time></trkpt><trkpt lat="42.78489587542838" lon="12.243440117846182"><ele>528.2</ele><time>2026-04-04T13:49:30Z</time></trkpt><trkpt lat="42.784880887910944" lon="12.24359293734077"><ele>527.8000000000001</ele><time>2026-04-04T13:49:32Z</time></trkpt><trkpt lat="42.78487239130259" lon="12.243739657314414"><ele>527.4</ele><time>2026-04-04T13:49:34Z</time></trkpt><trkpt lat="42.78483452698488" lon="12.243851778454362"><ele>527.0</ele><time>2026-04-04T13:49:36Z</time></trkpt><trkpt lat="42.784792506310616" lon="12.243954493600283"><ele>527.0</ele><time>2026-04-04T13:49:38Z</time></trkpt><trkpt lat="42.7847415988138" lon="12.244068276749006"><ele>527.0</ele><time>2026-04-04T13:49:40Z</time></trkpt><trkpt lat="42.78467017592379" lon="12.244190089067773"><ele>527.0</ele><time>2026-04-04T13:49:42Z</time></trkpt><trkpt lat="42.784616735501416" lon="12.244332514237547"><ele>527.0</ele><time>2026-04-04T13:49:44Z</time></trkpt><trkpt lat="42.7845638119221" lon="12.244467606496725"><ele>527.0</ele><time>2026-04-04T13:49:46Z</time></trkpt><trkpt lat="42.784555835488526" lon="12.244614821436311"><ele>527.0</ele><time>2026-04-04T13:49:48Z</time></trkpt><trkpt lat="42.78459891813834" lon="12.244721895353283"><ele>527.0</ele><time>2026-04-04T13:49:50Z</time></trkpt><trkpt lat="42.78461527300491" lon="12.244819125043776"><ele>527.0</ele><time>2026-04-04T13:49:58Z</time></trkpt><trkpt lat="42.78459713477337" lon="12.244928509406458"><ele>527.0</ele><time>2026-04-04T13:50:00Z</time></trkpt><trkpt lat="42.78460642386603" lon="12.24508782951767"><ele>527.0</ele><time>2026-04-04T13:50:02Z</time></trkpt><trkpt lat="42.78463384357416" lon="12.24517861322901"><ele>527.0</ele><time>2026-04-04T13:50:03Z</time></trkpt><trkpt lat="42.78466881227672" lon="12.245250919413872"><ele>527.0000000000001</ele><time>2026-04-04T13:50:04Z</time></trkpt><trkpt lat="42.78470617548724" lon="12.245323399998846"><ele>527.0</ele><time>2026-04-04T13:50:05Z</time></trkpt><trkpt lat="42.78474915965105" lon="12.245390483558346"><ele>527.0</ele><time>2026-04-04T13:50:06Z</time></trkpt><trkpt lat="42.78480061492803" lon="12.245456923418178"><ele>527.0</ele><time>2026-04-04T13:50:07Z</time></trkpt><trkpt lat="42.78485564159911" lon="12.245514441999045"><ele>527.0</ele><time>2026-04-04T13:50:08Z</time></trkpt><trkpt lat="42.78490792096774" lon="12.245562229082429"><ele>527.0000000000001</ele><time>2026-04-04T13:50:09Z</time></trkpt><trkpt lat="42.78500239055359" lon="12.2456343463906"><ele>527.0</ele><time>2026-04-04T13:50:11Z</time></trkpt><trkpt lat="42.78511794510761" lon="12.245690075364205"><ele>525.8000000000001</ele><time>2026-04-04T13:50:13Z</time></trkpt><trkpt lat="42.785215016657496" lon="12.24574284520585"><ele>524.6</ele><time>2026-04-04T13:50:15Z</time></trkpt><trkpt lat="42.785310393633296" lon="12.245770342716877"><ele>523.4000000000001</ele><time>2026-04-04T13:50:17Z</time></trkpt><trkpt lat="42.7853781492313" lon="12.245823467351928"><ele>522.2</ele><time>2026-04-04T13:50:19Z</time></trkpt><trkpt lat="42.78537331951449" lon="12.24593848156367"><ele>521.0</ele><time>2026-04-04T13:50:21Z</time></trkpt><trkpt lat="42.78537145890761" lon="12.246108322545343"><ele>521.0</ele><time>2026-04-04T13:50:23Z</time></trkpt><trkpt lat="42.78539361723043" lon="12.24627979654883"><ele>521.0</ele><time>2026-04-04T13:50:25Z</time></trkpt><trkpt lat="42.785417470106594" lon="12.246368726095753"><ele>521.0</ele><time>2026-04-04T13:50:26Z</time></trkpt><trkpt lat="42.78546252192516" lon="12.246434177117983"><ele>521.0</ele><time>2026-04-04T13:50:27Z</time></trkpt><trkpt lat="42.78550881007233" lon="12.246557327708977"><ele>521.0</ele><time>2026-04-04T13:50:29Z</time></trkpt><trkpt lat="42.78555422013245" lon="12.24669891297341"><ele>519.6</ele><time>2026-04-04T13:50:31Z</time></trkpt><trkpt lat="42.78558734853739" lon="12.246837761478291"><ele>518.2</ele><time>2026-04-04T13:50:33Z</time></trkpt><trkpt lat="42.78561006266716" lon="12.246970037513048"><ele>516.8</ele><time>2026-04-04T13:50:35Z</time></trkpt><trkpt lat="42.785652650594784" lon="12.247114139452163"><ele>515.4</ele><time>2026-04-04T13:50:37Z</time></trkpt><trkpt lat="42.78569771995398" lon="12.247261913002395"><ele>514.0</ele><time>2026-04-04T13:50:39Z</time></trkpt><trkpt lat="42.78570760743815" lon="12.24740621916258"><ele>513.2</ele><time>2026-04-04T13:50:41Z</time></trkpt><trkpt lat="42.785738173239714" lon="12.24751277674262"><ele>512.4</ele><time>2026-04-04T13:50:43Z</time></trkpt><trkpt lat="42.785738619491106" lon="12.247653116076101"><ele>511.6</ele><time>2026-04-04T13:50:45Z</time></trkpt><trkpt lat="42.78566714716433" lon="12.247739945036852"><ele>510.8</ele><time>2026-04-04T13:50:47.001Z</time></trkpt><trkpt lat="42.785589850689036" lon="12.247794998485672"><ele>510.0</ele><time>2026-04-04T13:50:49.001Z</time></trkpt><trkpt lat="42.78551018175137" lon="12.24782957012596"><ele>510.0</ele><time>2026-04-04T13:50:52.001Z</time></trkpt><trkpt lat="42.78544382652107" lon="12.247849151470703"><ele>510.0</ele><time>2026-04-04T13:50:56.001Z</time></trkpt><trkpt lat="42.78525801530955" lon="12.247730760292374"><ele>510.0</ele><time>2026-04-04T13:51:07.999Z</time></trkpt><trkpt lat="42.785176638237246" lon="12.247697964961406"><ele>510.0</ele><time>2026-04-04T13:51:09.999Z</time></trkpt><trkpt lat="42.78510677384346" lon="12.247669688511941"><ele>510.0</ele><time>2026-04-04T13:51:11.999Z</time></trkpt><trkpt lat="42.785016860009385" lon="12.24763523671868"><ele>510.0</ele><time>2026-04-04T13:51:13.999Z</time></trkpt><trkpt lat="42.78495228808563" lon="12.247615562460444"><ele>510.0</ele><time>2026-04-04T13:51:15.999Z</time></trkpt><trkpt lat="42.784828250759446" lon="12.248088343025524"><ele>510.0</ele><time>2026-04-04T13:51:19.999Z</time></trkpt><trkpt lat="42.784827592899084" lon="12.248196529675472"><ele>511.6666666666667</ele><time>2026-04-04T13:51:21.999Z</time></trkpt><trkpt lat="42.784876686052044" lon="12.24829259323377"><ele>513.3333333333334</ele><time>2026-04-04T13:51:24Z</time></trkpt><trkpt lat="42.78492765241602" lon="12.24839783256778"><ele>515.0</ele><time>2026-04-04T13:51:26Z</time></trkpt><trkpt lat="42.78493491852337" lon="12.248497835232511"><ele>516.6666666666667</ele><time>2026-04-04T13:51:28Z</time></trkpt><trkpt lat="42.78495276367215" lon="12.248597556685608"><ele>518.3333333333334</ele><time>2026-04-04T13:51:30Z</time></trkpt><trkpt lat="42.78503702088852" lon="12.248693935080883"><ele>520.0</ele><time>2026-04-04T13:51:32Z</time></trkpt><trkpt lat="42.78508749282393" lon="12.248749747753203"><ele>520.0</ele><time>2026-04-04T13:51:33Z</time></trkpt><trkpt lat="42.785172839424625" lon="12.248855695797749"><ele>520.0</ele><time>2026-04-04T13:51:35Z</time></trkpt><trkpt lat="42.785226441999775" lon="12.248904779236257"><ele>520.0</ele><time>2026-04-04T13:51:36Z</time></trkpt><trkpt lat="42.785293774710496" lon="12.248949052442033"><ele>520.0</ele><time>2026-04-04T13:51:37Z</time></trkpt><trkpt lat="42.78535700788071" lon="12.248981137957228"><ele>520.0</ele><time>2026-04-04T13:51:38Z</time></trkpt><trkpt lat="42.78541941126022" lon="12.249017337703004"><ele>520.0</ele><time>2026-04-04T13:51:39Z</time></trkpt><trkpt lat="42.78548296096129" lon="12.249050921012701"><ele>521.8333333333334</ele><time>2026-04-04T13:51:40Z</time></trkpt><trkpt lat="42.78554236377813" lon="12.249085203540359"><ele>523.6666666666667</ele><time>2026-04-04T13:51:41Z</time></trkpt><trkpt lat="42.78560441855389" lon="12.249118663198457"><ele>525.5</ele><time>2026-04-04T13:51:42Z</time></trkpt><trkpt lat="42.78566469013541" lon="12.249154483544286"><ele>527.3333333333334</ele><time>2026-04-04T13:51:43Z</time></trkpt><trkpt lat="42.785724472021165" lon="12.249196785464967"><ele>529.1666666666666</ele><time>2026-04-04T13:51:44Z</time></trkpt><trkpt lat="42.78578274400674" lon="12.249246285356435"><ele>531.0</ele><time>2026-04-04T13:51:45Z</time></trkpt><trkpt lat="42.7858799603601" lon="12.249346773577107"><ele>531.0</ele><time>2026-04-04T13:51:47Z</time></trkpt><trkpt lat="42.78597239665673" lon="12.249447153517652"><ele>531.0</ele><time>2026-04-04T13:51:49Z</time></trkpt><trkpt lat="42.786050932237686" lon="12.249548910321149"><ele>531.0</ele><time>2026-04-04T13:51:51Z</time></trkpt><trkpt lat="42.78613144750302" lon="12.249654894676448"><ele>531.0</ele><time>2026-04-04T13:51:53Z</time></trkpt><trkpt lat="42.786224279957636" lon="12.249729185276708"><ele>531.0</ele><time>2026-04-04T13:51:55Z</time></trkpt><trkpt lat="42.78631668994496" lon="12.249775492240948"><ele>532.3333333333334</ele><time>2026-04-04T13:51:57Z</time></trkpt><trkpt lat="42.786405522608874" lon="12.24980603195923"><ele>533.6666666666666</ele><time>2026-04-04T13:51:59Z</time></trkpt><trkpt lat="42.786486558093245" lon="12.249837133251567"><ele>535.0</ele><time>2026-04-04T13:52:01Z</time></trkpt><trkpt lat="42.78656722916391" lon="12.249883354359344"><ele>536.3333333333333</ele><time>2026-04-04T13:52:03Z</time></trkpt><trkpt lat="42.78664212349675" lon="12.249940585402916"><ele>537.6666666666666</ele><time>2026-04-04T13:52:05Z</time></trkpt><trkpt lat="42.78669944028482" lon="12.250002647935668"><ele>539.0</ele><time>2026-04-04T13:52:07Z</time></trkpt><trkpt lat="42.78671754711406" lon="12.250113935157515"><ele>539.0</ele><time>2026-04-04T13:52:10Z</time></trkpt><trkpt lat="42.78668063455015" lon="12.250193891984368"><ele>539.0</ele><time>2026-04-04T13:52:12Z</time></trkpt><trkpt lat="42.78663712649011" lon="12.250282752988587"><ele>539.0</ele><time>2026-04-04T13:52:14Z</time></trkpt><trkpt lat="42.78659708521168" lon="12.250389840524543"><ele>539.0</ele><time>2026-04-04T13:52:16Z</time></trkpt><trkpt lat="42.7865538737357" lon="12.250504750243467"><ele>539.0</ele><time>2026-04-04T13:52:18Z</time></trkpt><trkpt lat="42.78650549330441" lon="12.25063082380779"><ele>539.0</ele><time>2026-04-04T13:52:20Z</time></trkpt><trkpt lat="42.78644014406986" lon="12.250757926753407"><ele>538.3333333333333</ele><time>2026-04-04T13:52:22Z</time></trkpt><trkpt lat="42.78636629413738" lon="12.25087250843248"><ele>537.6666666666666</ele><time>2026-04-04T13:52:24Z</time></trkpt><trkpt lat="42.78631266327424" lon="12.250945797581448"><ele>537.0</ele><time>2026-04-04T13:52:26Z</time></trkpt><trkpt lat="42.78626165643489" lon="12.251002368200151"><ele>536.3333333333334</ele><time>2026-04-04T13:52:28Z</time></trkpt><trkpt lat="42.78619929987396" lon="12.25106032284504"><ele>535.6666666666667</ele><time>2026-04-04T13:52:30Z</time></trkpt><trkpt lat="42.78615138008513" lon="12.251116999318176"><ele>535.0</ele><time>2026-04-04T13:52:37.001Z</time></trkpt><trkpt lat="42.78612014763873" lon="12.251195192624508"><ele>535.0</ele><time>2026-04-04T13:52:40.001Z</time></trkpt><trkpt lat="42.78608795420206" lon="12.25127139614876"><ele>535.0</ele><time>2026-04-04T13:52:43.001Z</time></trkpt><trkpt lat="42.786075115222204" lon="12.25135901100899"><ele>535.0</ele><time>2026-04-04T13:53:06.001Z</time></trkpt><trkpt lat="42.786051352563334" lon="12.251454938239208"><ele>535.0</ele><time>2026-04-04T13:53:08.999Z</time></trkpt><trkpt lat="42.7860293508258" lon="12.251556886724101"><ele>535.0</ele><time>2026-04-04T13:53:11.999Z</time></trkpt><trkpt lat="42.786038801765464" lon="12.251652255632914"><ele>535.0</ele><time>2026-04-04T13:53:14.999Z</time></trkpt><trkpt lat="42.78606307014364" lon="12.251750472725384"><ele>535.0</ele><time>2026-04-04T13:53:17Z</time></trkpt><trkpt lat="42.786053991639115" lon="12.251856191118256"><ele>535.8333333333334</ele><time>2026-04-04T13:53:19Z</time></trkpt><trkpt lat="42.786091973253626" lon="12.251966135524714"><ele>536.6666666666667</ele><time>2026-04-04T13:53:22Z</time></trkpt><trkpt lat="42.7861540257615" lon="12.252056824831852"><ele>537.5</ele><time>2026-04-04T13:53:24Z</time></trkpt><trkpt lat="42.78612926501402" lon="12.252153340924156"><ele>538.3333333333334</ele><time>2026-04-04T13:53:26Z</time></trkpt><trkpt lat="42.78615500780404" lon="12.252245096266117"><ele>539.1666666666666</ele><time>2026-04-04T13:53:28Z</time></trkpt><trkpt lat="42.786197920618754" lon="12.252330199992196"><ele>540.0</ele><time>2026-04-04T13:53:31Z</time></trkpt><trkpt lat="42.78624944047835" lon="12.25239141986418"><ele>541.1666666666666</ele><time>2026-04-04T13:53:33Z</time></trkpt><trkpt lat="42.78630470476489" lon="12.252471636348073"><ele>542.3333333333334</ele><time>2026-04-04T13:53:35Z</time></trkpt><trkpt lat="42.78638481259631" lon="12.252554828932722"><ele>543.5</ele><time>2026-04-04T13:53:37Z</time></trkpt><trkpt lat="42.786442224360364" lon="12.25264635708818"><ele>544.6666666666667</ele><time>2026-04-04T13:53:39Z</time></trkpt><trkpt lat="42.78649478730843" lon="12.252722972656448"><ele>545.8333333333334</ele><time>2026-04-04T13:53:41Z</time></trkpt><trkpt lat="42.78652897998709" lon="12.252836361297726"><ele>547.0</ele><time>2026-04-04T13:53:43Z</time></trkpt><trkpt lat="42.78658878953375" lon="12.252919829320847"><ele>547.0</ele><time>2026-04-04T13:53:45Z</time></trkpt><trkpt lat="42.7866618851881" lon="12.253031245767161"><ele>547.0</ele><time>2026-04-04T13:53:47Z</time></trkpt><trkpt lat="42.78674252250343" lon="12.253130732523044"><ele>547.0</ele><time>2026-04-04T13:53:49Z</time></trkpt><trkpt lat="42.78682429607297" lon="12.253234586019857"><ele>547.0</ele><time>2026-04-04T13:53:51Z</time></trkpt><trkpt lat="42.78687673064857" lon="12.253361338998657"><ele>547.0</ele><time>2026-04-04T13:53:53Z</time></trkpt><trkpt lat="42.78693423016804" lon="12.253490581648913"><ele>547.8333333333334</ele><time>2026-04-04T13:53:55Z</time></trkpt><trkpt lat="42.7869997790857" lon="12.253636650506428"><ele>548.6666666666667</ele><time>2026-04-04T13:53:57Z</time></trkpt><trkpt lat="42.78702788775186" lon="12.253714955738854"><ele>549.5</ele><time>2026-04-04T13:53:58Z</time></trkpt><trkpt lat="42.78708545397128" lon="12.253856665514476"><ele>550.3333333333334</ele><time>2026-04-04T13:54:00Z</time></trkpt><trkpt lat="42.78712152192048" lon="12.25393616612841"><ele>551.1666666666666</ele><time>2026-04-04T13:54:01Z</time></trkpt><trkpt lat="42.787166773401474" lon="12.254009811065053"><ele>552.0</ele><time>2026-04-04T13:54:02Z</time></trkpt><trkpt lat="42.78724473301458" lon="12.254132993389304"><ele>552.1428571428571</ele><time>2026-04-04T13:54:04Z</time></trkpt><trkpt lat="42.787307020378286" lon="12.254158383825139"><ele>552.2857142857143</ele><time>2026-04-04T13:54:05Z</time></trkpt><trkpt lat="42.787371636155285" lon="12.254166327414262"><ele>552.4285714285714</ele><time>2026-04-04T13:54:06Z</time></trkpt><trkpt lat="42.78744115991923" lon="12.254149601905496"><ele>552.5714285714286</ele><time>2026-04-04T13:54:07Z</time></trkpt><trkpt lat="42.78750768009047" lon="12.254118613868659"><ele>552.7142857142858</ele><time>2026-04-04T13:54:08Z</time></trkpt><trkpt lat="42.78757678048637" lon="12.254077047426929"><ele>552.8571428571429</ele><time>2026-04-04T13:54:09Z</time></trkpt><trkpt lat="42.78765329066983" lon="12.254057085348897"><ele>553.0</ele><time>2026-04-04T13:54:10Z</time></trkpt><trkpt lat="42.78772508238201" lon="12.254027893892255"><ele>553.5</ele><time>2026-04-04T13:54:11Z</time></trkpt><trkpt lat="42.787807079060464" lon="12.25400218588647"><ele>554.0</ele><time>2026-04-04T13:54:12Z</time></trkpt><trkpt lat="42.78789078969178" lon="12.25397616898436"><ele>554.5</ele><time>2026-04-04T13:54:13Z</time></trkpt><trkpt lat="42.787969768825675" lon="12.253951622609742"><ele>555.0</ele><time>2026-04-04T13:54:14Z</time></trkpt><trkpt lat="42.78804371816259" lon="12.253906653774632"><ele>555.5</ele><time>2026-04-04T13:54:15Z</time></trkpt><trkpt lat="42.788125982328616" lon="12.253896722977185"><ele>556.0</ele><time>2026-04-04T13:54:16Z</time></trkpt><trkpt lat="42.78820363436403" lon="12.253845821857212"><ele>556.0</ele><time>2026-04-04T13:54:17Z</time></trkpt><trkpt lat="42.78828886881632" lon="12.253818902158308"><ele>556.0</ele><time>2026-04-04T13:54:18Z</time></trkpt><trkpt lat="42.78836984062454" lon="12.253791055777146"><ele>556.0</ele><time>2026-04-04T13:54:19Z</time></trkpt><trkpt lat="42.7884472619746" lon="12.25376333031369"><ele>556.0</ele><time>2026-04-04T13:54:20Z</time></trkpt><trkpt lat="42.788525385734125" lon="12.253762657261086"><ele>556.0</ele><time>2026-04-04T13:54:21.001Z</time></trkpt><trkpt lat="42.788604481102986" lon="12.253741125829821"><ele>556.0</ele><time>2026-04-04T13:54:22.001Z</time></trkpt><trkpt lat="42.78869145410488" lon="12.25371831913805"><ele>556.1666666666667</ele><time>2026-04-04T13:54:23.001Z</time></trkpt><trkpt lat="42.78878690006242" lon="12.25369329060813"><ele>556.3333333333334</ele><time>2026-04-04T13:54:24.001Z</time></trkpt><trkpt lat="42.78887700082717" lon="12.253672705055727"><ele>556.5</ele><time>2026-04-04T13:54:25.001Z</time></trkpt><trkpt lat="42.78896121019847" lon="12.253658600880343"><ele>556.6666666666666</ele><time>2026-04-04T13:54:26.001Z</time></trkpt><trkpt lat="42.78904329114148" lon="12.253626524248366"><ele>556.8333333333333</ele><time>2026-04-04T13:54:27.001Z</time></trkpt><trkpt lat="42.7891191668855" lon="12.253611471224318"><ele>557.0</ele><time>2026-04-04T13:54:28.001Z</time></trkpt><trkpt lat="42.789200982564495" lon="12.253599233401607"><ele>557.0</ele><time>2026-04-04T13:54:29.001Z</time></trkpt><trkpt lat="42.78928811145151" lon="12.253608554817047"><ele>557.0</ele><time>2026-04-04T13:54:30.001Z</time></trkpt><trkpt lat="42.789371156521206" lon="12.253598187970036"><ele>557.0</ele><time>2026-04-04T13:54:31.001Z</time></trkpt><trkpt lat="42.78945026069174" lon="12.253573481697071"><ele>557.0</ele><time>2026-04-04T13:54:32.001Z</time></trkpt><trkpt lat="42.78953360430867" lon="12.25355759791918"><ele>557.0</ele><time>2026-04-04T13:54:33.001Z</time></trkpt><trkpt lat="42.78961680400664" lon="12.253546918691251"><ele>557.0</ele><time>2026-04-04T13:54:34.001Z</time></trkpt><trkpt lat="42.78970121259271" lon="12.253556985748283"><ele>557.6666666666666</ele><time>2026-04-04T13:54:35.001Z</time></trkpt><trkpt lat="42.78978864067894" lon="12.25354519627647"><ele>558.3333333333333</ele><time>2026-04-04T13:54:36.001Z</time></trkpt><trkpt lat="42.78987709595949" lon="12.253532935148916"><ele>559.0</ele><time>2026-04-04T13:54:37.001Z</time></trkpt><trkpt lat="42.7899517001983" lon="12.25350537236145"><ele>559.6666666666666</ele><time>2026-04-04T13:54:38.001Z</time></trkpt><trkpt lat="42.79003938612114" lon="12.253507256855688"><ele>560.3333333333334</ele><time>2026-04-04T13:54:39.001Z</time></trkpt><trkpt lat="42.790122766727315" lon="12.253470435990756"><ele>561.0</ele><time>2026-04-04T13:54:40.001Z</time></trkpt><trkpt lat="42.79020712485188" lon="12.253468279444975"><ele>561.6666666666666</ele><time>2026-04-04T13:54:41.001Z</time></trkpt><trkpt lat="42.79028868231239" lon="12.253431965690147"><ele>562.3333333333334</ele><time>2026-04-04T13:54:42.001Z</time></trkpt><trkpt lat="42.790367295063724" lon="12.253421917684461"><ele>563.0</ele><time>2026-04-04T13:54:43.001Z</time></trkpt><trkpt lat="42.79044074074649" lon="12.253442512942074"><ele>563.6666666666667</ele><time>2026-04-04T13:54:44.001Z</time></trkpt><trkpt lat="42.79051131538565" lon="12.253487007247896"><ele>564.3333333333334</ele><time>2026-04-04T13:54:45.001Z</time></trkpt><trkpt lat="42.790571447029734" lon="12.25353550707154"><ele>565.0</ele><time>2026-04-04T13:54:46.001Z</time></trkpt><trkpt lat="42.79064146431243" lon="12.253606111345963"><ele>565.0</ele><time>2026-04-04T13:54:47.001Z</time></trkpt><trkpt lat="42.790711692263265" lon="12.25366162517722"><ele>565.0</ele><time>2026-04-04T13:54:48.001Z</time></trkpt><trkpt lat="42.79076336373142" lon="12.253771138256733"><ele>565.0</ele><time>2026-04-04T13:54:49.001Z</time></trkpt><trkpt lat="42.79084543050486" lon="12.253848732378131"><ele>565.0</ele><time>2026-04-04T13:54:50.001Z</time></trkpt><trkpt lat="42.79089622712692" lon="12.253935367841748"><ele>565.0</ele><time>2026-04-04T13:54:51.001Z</time></trkpt><trkpt lat="42.79101326880909" lon="12.254012898784323"><ele>565.4</ele><time>2026-04-04T13:54:53.001Z</time></trkpt><trkpt lat="42.791068188194686" lon="12.254062775334482"><ele>565.8</ele><time>2026-04-04T13:54:54.001Z</time></trkpt><trkpt lat="42.791121966341514" lon="12.254112004365304"><ele>566.2</ele><time>2026-04-04T13:54:55.001Z</time></trkpt><trkpt lat="42.7911885466707" lon="12.254155810084491"><ele>566.6</ele><time>2026-04-04T13:54:57.001Z</time></trkpt><trkpt lat="42.79126678205084" lon="12.254207284101003"><ele>567.0</ele><time>2026-04-04T13:54:59.001Z</time></trkpt><trkpt lat="42.791383908496876" lon="12.254038155331145"><ele>567.0</ele><time>2026-04-04T13:55:00.001Z</time></trkpt><trkpt lat="42.791455815659035" lon="12.254018993352485"><ele>567.0</ele><time>2026-04-04T13:55:01.001Z</time></trkpt><trkpt lat="42.79151998206378" lon="12.254010496353349"><ele>567.0</ele><time>2026-04-04T13:55:02.001Z</time></trkpt><trkpt lat="42.791591450260555" lon="12.253978154339581"><ele>567.0</ele><time>2026-04-04T13:55:03.001Z</time></trkpt><trkpt lat="42.791659660829474" lon="12.253933675076809"><ele>567.0</ele><time>2026-04-04T13:55:04.001Z</time></trkpt><trkpt lat="42.791762061970445" lon="12.253827251515427"><ele>567.0</ele><time>2026-04-04T13:55:06.001Z</time></trkpt><trkpt lat="42.791809680835435" lon="12.253734123824758"><ele>567.1666666666666</ele><time>2026-04-04T13:55:07.001Z</time></trkpt><trkpt lat="42.791855167934216" lon="12.253634625818615"><ele>567.3333333333334</ele><time>2026-04-04T13:55:08.001Z</time></trkpt><trkpt lat="42.791893056887716" lon="12.253543731631273"><ele>567.5</ele><time>2026-04-04T13:55:09.001Z</time></trkpt><trkpt lat="42.79192837294442" lon="12.25344922555439"><ele>567.6666666666667</ele><time>2026-04-04T13:55:10.001Z</time></trkpt><trkpt lat="42.79195654053933" lon="12.253361910882079"><ele>567.8333333333334</ele><time>2026-04-04T13:55:11.001Z</time></trkpt><trkpt lat="42.79197556623993" lon="12.253257683870425"><ele>568.0</ele><time>2026-04-04T13:55:12.001Z</time></trkpt><trkpt lat="42.79198549427387" lon="12.253159085642471"><ele>567.6666666666667</ele><time>2026-04-04T13:55:13.001Z</time></trkpt><trkpt lat="42.791983351879836" lon="12.253054952348512"><ele>567.3333333333334</ele><time>2026-04-04T13:55:14.001Z</time></trkpt><trkpt lat="42.791927602721415" lon="12.252976059758819"><ele>567.0</ele><time>2026-04-04T13:55:15Z</time></trkpt><trkpt lat="42.791895532892305" lon="12.252888062917139"><ele>566.6666666666666</ele><time>2026-04-04T13:55:16Z</time></trkpt><trkpt lat="42.791890937214326" lon="12.252795256581482"><ele>566.3333333333333</ele><time>2026-04-04T13:55:17Z</time></trkpt><trkpt lat="42.79190555186623" lon="12.252688677050648"><ele>566.0</ele><time>2026-04-04T13:55:18Z</time></trkpt><trkpt lat="42.791987694246" lon="12.252571917367364"><ele>566.0</ele><time>2026-04-04T13:55:20Z</time></trkpt><trkpt lat="42.79202722095689" lon="12.252495215092353"><ele>566.0</ele><time>2026-04-04T13:55:21Z</time></trkpt><trkpt lat="42.792067519679435" lon="12.252427550851161"><ele>566.0</ele><time>2026-04-04T13:55:22Z</time></trkpt><trkpt lat="42.79211485104717" lon="12.252356144210193"><ele>566.0</ele><time>2026-04-04T13:55:23Z</time></trkpt><trkpt lat="42.79216789055068" lon="12.252277535848094"><ele>566.0</ele><time>2026-04-04T13:55:24Z</time></trkpt><trkpt lat="42.792223025723374" lon="12.252200253496351"><ele>566.0</ele><time>2026-04-04T13:55:25Z</time></trkpt><trkpt lat="42.79228289623296" lon="12.2521214882157"><ele>566.0</ele><time>2026-04-04T13:55:26Z</time></trkpt><trkpt lat="42.792340155256326" lon="12.25205503137616"><ele>566.0</ele><time>2026-04-04T13:55:27Z</time></trkpt><trkpt lat="42.79240040880539" lon="12.251999308312325"><ele>566.0</ele><time>2026-04-04T13:55:28Z</time></trkpt><trkpt lat="42.792464013224226" lon="12.251957786555561"><ele>566.0</ele><time>2026-04-04T13:55:29Z</time></trkpt><trkpt lat="42.79252959837462" lon="12.251935567933826"><ele>566.0</ele><time>2026-04-04T13:55:30Z</time></trkpt><trkpt lat="42.79260105132715" lon="12.251918129394184"><ele>566.0</ele><time>2026-04-04T13:55:31Z</time></trkpt><trkpt lat="42.792673026566746" lon="12.251908241380411"><ele>566.0</ele><time>2026-04-04T13:55:32Z</time></trkpt><trkpt lat="42.792745663216714" lon="12.251918880282874"><ele>566.0</ele><time>2026-04-04T13:55:33Z</time></trkpt><trkpt lat="42.79282311948651" lon="12.25193673111462"><ele>566.0</ele><time>2026-04-04T13:55:34Z</time></trkpt><trkpt lat="42.79289748848566" lon="12.251957526016104"><ele>566.0</ele><time>2026-04-04T13:55:35Z</time></trkpt><trkpt lat="42.79297855344475" lon="12.251981229513417"><ele>566.0</ele><time>2026-04-04T13:55:36Z</time></trkpt><trkpt lat="42.79307166026013" lon="12.251978588867724"><ele>566.0</ele><time>2026-04-04T13:55:37Z</time></trkpt><trkpt lat="42.79314195784272" lon="12.251989794401869"><ele>566.0</ele><time>2026-04-04T13:55:38Z</time></trkpt><trkpt lat="42.79322131059596" lon="12.251984318050772"><ele>566.0</ele><time>2026-04-04T13:55:39Z</time></trkpt><trkpt lat="42.793314805440694" lon="12.251978201827024"><ele>566.0</ele><time>2026-04-04T13:55:40Z</time></trkpt><trkpt lat="42.7933968186123" lon="12.251961964039568"><ele>566.0</ele><time>2026-04-04T13:55:41Z</time></trkpt><trkpt lat="42.79347391599132" lon="12.251937064144617"><ele>566.0</ele><time>2026-04-04T13:55:42Z</time></trkpt><trkpt lat="42.7935414127094" lon="12.251899283055941"><ele>566.0</ele><time>2026-04-04T13:55:43Z</time></trkpt><trkpt lat="42.7936058834414" lon="12.251855418899096"><ele>566.0</ele><time>2026-04-04T13:55:44Z</time></trkpt><trkpt lat="42.79366310378003" lon="12.251813693038075"><ele>566.0</ele><time>2026-04-04T13:55:45Z</time></trkpt><trkpt lat="42.79372205310865" lon="12.251760165833401"><ele>566.0</ele><time>2026-04-04T13:55:46Z</time></trkpt><trkpt lat="42.793774362550614" lon="12.251698909682013"><ele>566.6666666666666</ele><time>2026-04-04T13:55:47Z</time></trkpt><trkpt lat="42.79383868005296" lon="12.251653922417228"><ele>567.3333333333333</ele><time>2026-04-04T13:55:48Z</time></trkpt><trkpt lat="42.793894019840046" lon="12.25159447135327"><ele>568.0</ele><time>2026-04-04T13:55:49Z</time></trkpt><trkpt lat="42.79400080817745" lon="12.25149881356568"><ele>568.6666666666666</ele><time>2026-04-04T13:55:51Z</time></trkpt><trkpt lat="42.794066138079025" lon="12.251459196861159"><ele>569.3333333333334</ele><time>2026-04-04T13:55:53Z</time></trkpt><trkpt lat="42.794130053734776" lon="12.251448962209148"><ele>570.0</ele><time>2026-04-04T13:55:56Z</time></trkpt><trkpt lat="42.7942207691397" lon="12.251367513274525"><ele>570.0</ele><time>2026-04-04T13:55:58Z</time></trkpt><trkpt lat="42.79426208619324" lon="12.251439371830427"><ele>570.0</ele><time>2026-04-04T13:55:59Z</time></trkpt><trkpt lat="42.79439611444692" lon="12.251069330453326"><ele>570.0</ele><time>2026-04-04T13:56:02Z</time></trkpt><trkpt lat="42.79444459318398" lon="12.251009143979406"><ele>570.0</ele><time>2026-04-04T13:56:03Z</time></trkpt><trkpt lat="42.79449290520956" lon="12.250949637306604"><ele>570.8333333333334</ele><time>2026-04-04T13:56:04Z</time></trkpt><trkpt lat="42.794597670848304" lon="12.25084811499666"><ele>571.6666666666666</ele><time>2026-04-04T13:56:06.001Z</time></trkpt><trkpt lat="42.79465227511234" lon="12.25079886268056"><ele>572.5</ele><time>2026-04-04T13:56:07.001Z</time></trkpt><trkpt lat="42.79470895633419" lon="12.250752776492286"><ele>573.3333333333333</ele><time>2026-04-04T13:56:08.001Z</time></trkpt><trkpt lat="42.794767885900306" lon="12.2507066269113"><ele>574.1666666666666</ele><time>2026-04-04T13:56:09.001Z</time></trkpt><trkpt lat="42.79484632954638" lon="12.250607964986456"><ele>575.0</ele><time>2026-04-04T13:56:11.001Z</time></trkpt><trkpt lat="42.79486794145638" lon="12.250455373985046"><ele>575.5</ele><time>2026-04-04T13:56:13.001Z</time></trkpt><trkpt lat="42.794851929482604" lon="12.250371714247247"><ele>576.0</ele><time>2026-04-04T13:56:14.001Z</time></trkpt><trkpt lat="42.79481765720887" lon="12.250294601901821"><ele>576.5</ele><time>2026-04-04T13:56:15.001Z</time></trkpt><trkpt lat="42.79475093542996" lon="12.250183654283118"><ele>577.0</ele><time>2026-04-04T13:56:17.001Z</time></trkpt><trkpt lat="42.794694426420115" lon="12.250110573545626"><ele>577.5</ele><time>2026-04-04T13:56:18.001Z</time></trkpt><trkpt lat="42.794594198226164" lon="12.250019141895033"><ele>578.0</ele><time>2026-04-04T13:56:20.001Z</time></trkpt><trkpt lat="42.794585637074206" lon="12.249911938676147"><ele>578.0</ele><time>2026-04-04T13:56:22.001Z</time></trkpt><trkpt lat="42.79465742555896" lon="12.24981469696346"><ele>578.0</ele><time>2026-04-04T13:56:24.001Z</time></trkpt><trkpt lat="42.794707551731015" lon="12.249754524794124"><ele>578.0</ele><time>2026-04-04T13:56:25.001Z</time></trkpt><trkpt lat="42.79475125428891" lon="12.249684777959182"><ele>578.0</ele><time>2026-04-04T13:56:26.001Z</time></trkpt><trkpt lat="42.79474493045476" lon="12.249532676682398"><ele>578.0</ele><time>2026-04-04T13:56:28.001Z</time></trkpt><trkpt lat="42.79471364427254" lon="12.24939658594692"><ele>578.1666666666666</ele><time>2026-04-04T13:56:30.001Z</time></trkpt><trkpt lat="42.79473981827488" lon="12.249235480332425"><ele>578.3333333333333</ele><time>2026-04-04T13:56:32.001Z</time></trkpt><trkpt lat="42.79477693477938" lon="12.249144417591658"><ele>578.5</ele><time>2026-04-04T13:56:33.001Z</time></trkpt><trkpt lat="42.79481002823193" lon="12.249054853158235"><ele>578.6666666666666</ele><time>2026-04-04T13:56:34.001Z</time></trkpt><trkpt lat="42.79484166131162" lon="12.248970508274736"><ele>578.8333333333334</ele><time>2026-04-04T13:56:35.001Z</time></trkpt><trkpt lat="42.794866649200614" lon="12.24888674526846"><ele>579.0</ele><time>2026-04-04T13:56:36.001Z</time></trkpt><trkpt lat="42.794916643523294" lon="12.24877237671485"><ele>579.8</ele><time>2026-04-04T13:56:38.001Z</time></trkpt><trkpt lat="42.7949681777213" lon="12.248692047201148"><ele>580.5999999999999</ele><time>2026-04-04T13:56:40.001Z</time></trkpt><trkpt lat="42.794980144859885" lon="12.248591832799221"><ele>581.4</ele><time>2026-04-04T13:56:43.001Z</time></trkpt><trkpt lat="42.794906785920084" lon="12.248481262640087"><ele>582.1999999999999</ele><time>2026-04-04T13:56:46.001Z</time></trkpt><trkpt lat="42.79482974741096" lon="12.248497716012528"><ele>583.0</ele><time>2026-04-04T13:56:48.001Z</time></trkpt><trkpt lat="42.79471828490414" lon="12.248520757248865"><ele>583.0</ele><time>2026-04-04T13:56:50.001Z</time></trkpt><trkpt lat="42.79459852065938" lon="12.248506830886276"><ele>583.0</ele><time>2026-04-04T13:56:52.001Z</time></trkpt><trkpt lat="42.79452363051242" lon="12.24849367419164"><ele>583.0</ele><time>2026-04-04T13:56:53.001Z</time></trkpt><trkpt lat="42.79445160577783" lon="12.248485293925155"><ele>583.0</ele><time>2026-04-04T13:56:54.001Z</time></trkpt><trkpt lat="42.794340775068875" lon="12.248527695249564"><ele>583.0</ele><time>2026-04-04T13:56:56.001Z</time></trkpt><trkpt lat="42.79422259810673" lon="12.248558691590718"><ele>582.6666666666667</ele><time>2026-04-04T13:56:58.001Z</time></trkpt><trkpt lat="42.79410627167811" lon="12.248514228131494"><ele>582.3333333333334</ele><time>2026-04-04T13:57:00.001Z</time></trkpt><trkpt lat="42.79404782356398" lon="12.248472121202543"><ele>582.0</ele><time>2026-04-04T13:57:01.001Z</time></trkpt><trkpt lat="42.79399271631102" lon="12.24841720206149"><ele>581.6666666666666</ele><time>2026-04-04T13:57:02.001Z</time></trkpt><trkpt lat="42.79393715737549" lon="12.248352346391682"><ele>581.3333333333333</ele><time>2026-04-04T13:57:03.001Z</time></trkpt><trkpt lat="42.79387747685138" lon="12.24827183194039"><ele>581.0</ele><time>2026-04-04T13:57:04.001Z</time></trkpt><trkpt lat="42.79381756846411" lon="12.2481919103173"><ele>581.5</ele><time>2026-04-04T13:57:05.001Z</time></trkpt><trkpt lat="42.79375916586218" lon="12.24810829930943"><ele>582.0</ele><time>2026-04-04T13:57:06.001Z</time></trkpt><trkpt lat="42.793701288120545" lon="12.24802266826735"><ele>582.5</ele><time>2026-04-04T13:57:07.001Z</time></trkpt><trkpt lat="42.79364615417537" lon="12.2479476837509"><ele>583.0</ele><time>2026-04-04T13:57:08.001Z</time></trkpt><trkpt lat="42.793593912737414" lon="12.247881299942463"><ele>583.5</ele><time>2026-04-04T13:57:09.001Z</time></trkpt><trkpt lat="42.793549352293695" lon="12.24777916397543"><ele>584.0</ele><time>2026-04-04T13:57:10.001Z</time></trkpt><trkpt lat="42.7934908294185" lon="12.247679549081584"><ele>584.0</ele><time>2026-04-04T13:57:11.001Z</time></trkpt><trkpt lat="42.793430983828806" lon="12.24758580389461"><ele>584.0</ele><time>2026-04-04T13:57:12.001Z</time></trkpt><trkpt lat="42.79336904061113" lon="12.247491147839419"><ele>584.0</ele><time>2026-04-04T13:57:13.001Z</time></trkpt><trkpt lat="42.79331001473702" lon="12.247401568446055"><ele>584.0</ele><time>2026-04-04T13:57:14.001Z</time></trkpt><trkpt lat="42.79325517798992" lon="12.247308940546123"><ele>584.0</ele><time>2026-04-04T13:57:15.001Z</time></trkpt><trkpt lat="42.79320527520167" lon="12.247228615848279"><ele>584.0</ele><time>2026-04-04T13:57:16.001Z</time></trkpt><trkpt lat="42.793155701979416" lon="12.247151148909682"><ele>585.3333333333333</ele><time>2026-04-04T13:57:17.001Z</time></trkpt><trkpt lat="42.79311906209409" lon="12.247045112897313"><ele>586.6666666666666</ele><time>2026-04-04T13:57:18.001Z</time></trkpt><trkpt lat="42.79307841760054" lon="12.246953735936309"><ele>588.0</ele><time>2026-04-04T13:57:19.001Z</time></trkpt><trkpt lat="42.793034829286356" lon="12.246856500655747"><ele>589.3333333333334</ele><time>2026-04-04T13:57:20.001Z</time></trkpt><trkpt lat="42.793008459186346" lon="12.246751571143873"><ele>590.6666666666667</ele><time>2026-04-04T13:57:21.001Z</time></trkpt><trkpt lat="42.79298891179887" lon="12.246643458395788"><ele>592.0</ele><time>2026-04-04T13:57:22.001Z</time></trkpt><trkpt lat="42.79297247389361" lon="12.246530702546927"><ele>593.8333333333334</ele><time>2026-04-04T13:57:23.001Z</time></trkpt><trkpt lat="42.792936156801424" lon="12.246418890979376"><ele>595.6666666666667</ele><time>2026-04-04T13:57:24.001Z</time></trkpt><trkpt lat="42.7928790536565" lon="12.246330421614232"><ele>597.5</ele><time>2026-04-04T13:57:25.001Z</time></trkpt><trkpt lat="42.792829310664594" lon="12.24623731626081"><ele>599.3333333333334</ele><time>2026-04-04T13:57:26.001Z</time></trkpt><trkpt lat="42.792781668583245" lon="12.246153181031833"><ele>601.1666666666666</ele><time>2026-04-04T13:57:27.001Z</time></trkpt><trkpt lat="42.79272918354881" lon="12.246093382619664"><ele>603.0</ele><time>2026-04-04T13:57:28Z</time></trkpt><trkpt lat="42.79268075244222" lon="12.246037634366411"><ele>600.3333333333334</ele><time>2026-04-04T13:57:29Z</time></trkpt><trkpt lat="42.79257156392525" lon="12.245973707783474"><ele>597.6666666666666</ele><time>2026-04-04T13:57:31Z</time></trkpt><trkpt lat="42.79250130455767" lon="12.245932809392029"><ele>595.0</ele><time>2026-04-04T13:57:32Z</time></trkpt><trkpt lat="42.79242487221096" lon="12.24590715276303"><ele>592.3333333333333</ele><time>2026-04-04T13:57:33Z</time></trkpt><trkpt lat="42.79235118125303" lon="12.245862934214248"><ele>589.6666666666666</ele><time>2026-04-04T13:57:34Z</time></trkpt><trkpt lat="42.792300075474486" lon="12.245797953160665"><ele>587.0</ele><time>2026-04-04T13:57:35Z</time></trkpt><trkpt lat="42.79225138658213" lon="12.245711447085718"><ele>588.8000000000001</ele><time>2026-04-04T13:57:36Z</time></trkpt><trkpt lat="42.792205348024524" lon="12.24561503886635"><ele>590.6</ele><time>2026-04-04T13:57:37Z</time></trkpt><trkpt lat="42.792155101120045" lon="12.245505462337556"><ele>592.4000000000001</ele><time>2026-04-04T13:57:38Z</time></trkpt><trkpt lat="42.79210068440266" lon="12.245398853948414"><ele>594.2</ele><time>2026-04-04T13:57:39Z</time></trkpt><trkpt lat="42.792059748007496" lon="12.245275833888092"><ele>596.0</ele><time>2026-04-04T13:57:40Z</time></trkpt><trkpt lat="42.79201261105155" lon="12.245163928282649"><ele>596.0</ele><time>2026-04-04T13:57:41Z</time></trkpt><trkpt lat="42.79197066058713" lon="12.245062653659074"><ele>596.0</ele><time>2026-04-04T13:57:42Z</time></trkpt><trkpt lat="42.791919672612146" lon="12.244963378753605"><ele>596.0</ele><time>2026-04-04T13:57:43Z</time></trkpt><trkpt lat="42.79188354160972" lon="12.244860165223946"><ele>596.0</ele><time>2026-04-04T13:57:44Z</time></trkpt><trkpt lat="42.79184780605143" lon="12.24476357724842"><ele>596.0</ele><time>2026-04-04T13:57:45Z</time></trkpt><trkpt lat="42.79179920395634" lon="12.244658638628438"><ele>596.0</ele><time>2026-04-04T13:57:46Z</time></trkpt><trkpt lat="42.79177107177119" lon="12.244550687467456"><ele>594.6666666666666</ele><time>2026-04-04T13:57:47Z</time></trkpt><trkpt lat="42.7917397147516" lon="12.24444764129649"><ele>593.3333333333333</ele><time>2026-04-04T13:57:48Z</time></trkpt><trkpt lat="42.79170466951688" lon="12.24434818276257"><ele>592.0</ele><time>2026-04-04T13:57:49Z</time></trkpt><trkpt lat="42.79165515259544" lon="12.244247026274401"><ele>590.6666666666666</ele><time>2026-04-04T13:57:50.001Z</time></trkpt><trkpt lat="42.79162710375653" lon="12.244153102672191"><ele>589.3333333333334</ele><time>2026-04-04T13:57:51.001Z</time></trkpt><trkpt lat="42.791572845065524" lon="12.244066001354808"><ele>588.0</ele><time>2026-04-04T13:57:52.001Z</time></trkpt><trkpt lat="42.79151790696054" lon="12.243979066161838"><ele>588.8333333333334</ele><time>2026-04-04T13:57:53.001Z</time></trkpt><trkpt lat="42.79147298774324" lon="12.243879267830078"><ele>589.6666666666666</ele><time>2026-04-04T13:57:54.001Z</time></trkpt><trkpt lat="42.79142787036488" lon="12.243785839274624"><ele>590.5</ele><time>2026-04-04T13:57:55.001Z</time></trkpt><trkpt lat="42.79138002464487" lon="12.243686753086"><ele>591.3333333333333</ele><time>2026-04-04T13:57:56.001Z</time></trkpt><trkpt lat="42.791342240380914" lon="12.243580757301844"><ele>592.1666666666666</ele><time>2026-04-04T13:57:57.001Z</time></trkpt><trkpt lat="42.791302760198164" lon="12.243477731223086"><ele>593.0</ele><time>2026-04-04T13:57:58.001Z</time></trkpt><trkpt lat="42.79126234019886" lon="12.243373203803962"><ele>593.0</ele><time>2026-04-04T13:57:59.001Z</time></trkpt><trkpt lat="42.791219185790666" lon="12.243278748729608"><ele>593.0</ele><time>2026-04-04T13:58:00.001Z</time></trkpt><trkpt lat="42.791184527428435" lon="12.243182303251137"><ele>593.0</ele><time>2026-04-04T13:58:01.001Z</time></trkpt><trkpt lat="42.79115167545092" lon="12.243088745399904"><ele>593.0</ele><time>2026-04-04T13:58:02.001Z</time></trkpt><trkpt lat="42.791123175043175" lon="12.242991460880093"><ele>593.0</ele><time>2026-04-04T13:58:03.001Z</time></trkpt><trkpt lat="42.79109904728432" lon="12.242887873050936"><ele>593.0</ele><time>2026-04-04T13:58:04.001Z</time></trkpt><trkpt lat="42.79107766079063" lon="12.242784641299462"><ele>592.9999999999999</ele><time>2026-04-04T13:58:05.001Z</time></trkpt><trkpt lat="42.7910776612838" lon="12.242687139357031"><ele>593.0</ele><time>2026-04-04T13:58:06.001Z</time></trkpt><trkpt lat="42.79108441507139" lon="12.24259905554257"><ele>593.0</ele><time>2026-04-04T13:58:07.001Z</time></trkpt><trkpt lat="42.79110851966811" lon="12.242505057960539"><ele>593.0</ele><time>2026-04-04T13:58:08.001Z</time></trkpt><trkpt lat="42.79114088613771" lon="12.242425807539059"><ele>593.0</ele><time>2026-04-04T13:58:09.001Z</time></trkpt><trkpt lat="42.79118346591291" lon="12.242348385287666"><ele>592.9999999999999</ele><time>2026-04-04T13:58:10.001Z</time></trkpt><trkpt lat="42.791248169590446" lon="12.242289803853804"><ele>593.0</ele><time>2026-04-04T13:58:11.001Z</time></trkpt><trkpt lat="42.791300400329185" lon="12.242200320141515"><ele>593.0</ele><time>2026-04-04T13:58:12.001Z</time></trkpt><trkpt lat="42.79136399089734" lon="12.242095736110663"><ele>593.0</ele><time>2026-04-04T13:58:13.001Z</time></trkpt><trkpt lat="42.79143098651842" lon="12.242001660602211"><ele>593.0</ele><time>2026-04-04T13:58:14.001Z</time></trkpt><trkpt lat="42.79149606258228" lon="12.241924092288372"><ele>593.0</ele><time>2026-04-04T13:58:15.001Z</time></trkpt><trkpt lat="42.79155502481051" lon="12.241842506222003"><ele>593.0</ele><time>2026-04-04T13:58:16.001Z</time></trkpt><trkpt lat="42.79161489213553" lon="12.241772184884386"><ele>593.0</ele><time>2026-04-04T13:58:17.001Z</time></trkpt><trkpt lat="42.79167877533995" lon="12.241695166374544"><ele>593.0</ele><time>2026-04-04T13:58:18.001Z</time></trkpt><trkpt lat="42.791747812336254" lon="12.241626976139681"><ele>593.0</ele><time>2026-04-04T13:58:19.001Z</time></trkpt><trkpt lat="42.791814478322934" lon="12.241563960977237"><ele>593.0</ele><time>2026-04-04T13:58:20.001Z</time></trkpt><trkpt lat="42.79188309848486" lon="12.241504435967641"><ele>593.0</ele><time>2026-04-04T13:58:21.001Z</time></trkpt><trkpt lat="42.79195500571601" lon="12.241448543399974"><ele>593.0</ele><time>2026-04-04T13:58:22.001Z</time></trkpt><trkpt lat="42.792025387773606" lon="12.241394292361747"><ele>593.0</ele><time>2026-04-04T13:58:23.001Z</time></trkpt><trkpt lat="42.79209581015253" lon="12.24133739662824"><ele>593.8333333333333</ele><time>2026-04-04T13:58:24.001Z</time></trkpt><trkpt lat="42.79215872234417" lon="12.241296908149264"><ele>594.6666666666666</ele><time>2026-04-04T13:58:25.001Z</time></trkpt><trkpt lat="42.79221597130612" lon="12.241244527255603"><ele>595.5</ele><time>2026-04-04T13:58:26.001Z</time></trkpt><trkpt lat="42.79232215878694" lon="12.241177890837227"><ele>596.3333333333334</ele><time>2026-04-04T13:58:28.001Z</time></trkpt><trkpt lat="42.79240864207219" lon="12.241119872249756"><ele>597.1666666666667</ele><time>2026-04-04T13:58:30.001Z</time></trkpt><trkpt lat="42.79245710773616" lon="12.2410559152935"><ele>598.0</ele><time>2026-04-04T13:58:32.001Z</time></trkpt><trkpt lat="42.79244593102473" lon="12.240967822883608"><ele>598.0</ele><time>2026-04-04T13:58:40.001Z</time></trkpt><trkpt lat="42.792465484480914" lon="12.240870597745209"><ele>598.0</ele><time>2026-04-04T13:58:57.001Z</time></trkpt><trkpt lat="42.792484224597764" lon="12.240784553622815"><ele>598.0</ele><time>2026-04-04T13:58:59.001Z</time></trkpt><trkpt lat="42.792501838989175" lon="12.240688643715007"><ele>598.0</ele><time>2026-04-04T13:59:01.001Z</time></trkpt><trkpt lat="42.792529288915084" lon="12.240572251665963"><ele>598.0</ele><time>2026-04-04T13:59:03.001Z</time></trkpt><trkpt lat="42.79257175558038" lon="12.240464367942153"><ele>598.0</ele><time>2026-04-04T13:59:05.001Z</time></trkpt><trkpt lat="42.79263734925861" lon="12.240366724243147"><ele>600.0</ele><time>2026-04-04T13:59:07.001Z</time></trkpt><trkpt lat="42.79271806878143" lon="12.240278066425708"><ele>602.0</ele><time>2026-04-04T13:59:09.001Z</time></trkpt><trkpt lat="42.79276843287755" lon="12.24022569664901"><ele>604.0</ele><time>2026-04-04T13:59:10.001Z</time></trkpt><trkpt lat="42.792856707217524" lon="12.240110074188376"><ele>606.0</ele><time>2026-04-04T13:59:12.001Z</time></trkpt><trkpt lat="42.79292032692232" lon="12.239978939068026"><ele>608.0</ele><time>2026-04-04T13:59:14.001Z</time></trkpt><trkpt lat="42.79301206559543" lon="12.239891142092478"><ele>608.0</ele><time>2026-04-04T13:59:16.001Z</time></trkpt><trkpt lat="42.7931177053047" lon="12.23983234650419"><ele>608.0</ele><time>2026-04-04T13:59:18.001Z</time></trkpt><trkpt lat="42.793183249816366" lon="12.23981797225932"><ele>608.0</ele><time>2026-04-04T13:59:19.001Z</time></trkpt><trkpt lat="42.79328829190794" lon="12.23974599541812"><ele>608.0</ele><time>2026-04-04T13:59:21.001Z</time></trkpt><trkpt lat="42.7933870341795" lon="12.239666991535143"><ele>608.0</ele><time>2026-04-04T13:59:23.002Z</time></trkpt><trkpt lat="42.793441574031434" lon="12.239620039677712"><ele>610.4</ele><time>2026-04-04T13:59:24.002Z</time></trkpt><trkpt lat="42.79353832675724" lon="12.239511537088482"><ele>612.8</ele><time>2026-04-04T13:59:26.002Z</time></trkpt><trkpt lat="42.793624347094664" lon="12.239414100483307"><ele>615.2</ele><time>2026-04-04T13:59:28.001Z</time></trkpt><trkpt lat="42.793705336763395" lon="12.23931580651451"><ele>617.6</ele><time>2026-04-04T13:59:30.001Z</time></trkpt><trkpt lat="42.79377923991068" lon="12.239232959362493"><ele>620.0</ele><time>2026-04-04T13:59:32.001Z</time></trkpt><trkpt lat="42.79385382303726" lon="12.239142726398795"><ele>620.0</ele><time>2026-04-04T13:59:35.001Z</time></trkpt><trkpt lat="42.79392274397016" lon="12.239134929347259"><ele>620.0</ele><time>2026-04-04T13:59:37.001Z</time></trkpt><trkpt lat="42.79397890556721" lon="12.239195507998163"><ele>620.0</ele><time>2026-04-04T13:59:39.001Z</time></trkpt><trkpt lat="42.7940009398535" lon="12.239306479355905"><ele>620.0</ele><time>2026-04-04T13:59:41.001Z</time></trkpt><trkpt lat="42.794028001591" lon="12.239435942047017"><ele>620.0</ele><time>2026-04-04T13:59:43.001Z</time></trkpt><trkpt lat="42.79404820476796" lon="12.239527134784776"><ele>620.0</ele><time>2026-04-04T13:59:44.001Z</time></trkpt><trkpt lat="42.794081672727785" lon="12.239624456490914"><ele>620.0</ele><time>2026-04-04T13:59:45.001Z</time></trkpt><trkpt lat="42.79411425491987" lon="12.239714791326785"><ele>620.0</ele><time>2026-04-04T13:59:46.001Z</time></trkpt><trkpt lat="42.794149631502414" lon="12.239816822284446"><ele>620.0</ele><time>2026-04-04T13:59:47.001Z</time></trkpt><trkpt lat="42.79418554960323" lon="12.239918976985503"><ele>620.0</ele><time>2026-04-04T13:59:48.001Z</time></trkpt><trkpt lat="42.79421728905248" lon="12.24002506857819"><ele>620.0</ele><time>2026-04-04T13:59:49.001Z</time></trkpt><trkpt lat="42.794247200877784" lon="12.240115590338037"><ele>620.0</ele><time>2026-04-04T13:59:50.001Z</time></trkpt><trkpt lat="42.79428497428638" lon="12.240194720318746"><ele>620.3333333333333</ele><time>2026-04-04T13:59:51.001Z</time></trkpt><trkpt lat="42.79431898625609" lon="12.24027639942192"><ele>620.6666666666666</ele><time>2026-04-04T13:59:52.001Z</time></trkpt><trkpt lat="42.79435812717722" lon="12.240355659637363"><ele>621.0</ele><time>2026-04-04T13:59:53.001Z</time></trkpt><trkpt lat="42.79440823528841" lon="12.240442325121967"><ele>621.3333333333334</ele><time>2026-04-04T13:59:54.001Z</time></trkpt><trkpt lat="42.794468180405396" lon="12.240497017207042"><ele>621.6666666666667</ele><time>2026-04-04T13:59:55.001Z</time></trkpt><trkpt lat="42.79456103640632" lon="12.24057419062377"><ele>622.0</ele><time>2026-04-04T13:59:57.001Z</time></trkpt><trkpt lat="42.79465025888497" lon="12.24057515647787"><ele>624.6666666666667</ele><time>2026-04-04T14:00:00.001Z</time></trkpt><trkpt lat="42.794718614995965" lon="12.240468287712844"><ele>627.3333333333334</ele><time>2026-04-04T14:00:02.001Z</time></trkpt><trkpt lat="42.79471328534879" lon="12.24030120298018"><ele>630.0</ele><time>2026-04-04T14:00:04.001Z</time></trkpt><trkpt lat="42.79470309789359" lon="12.240207397280502"><ele>632.6666666666666</ele><time>2026-04-04T14:00:05.001Z</time></trkpt><trkpt lat="42.79470384679488" lon="12.240106870130257"><ele>635.3333333333333</ele><time>2026-04-04T14:00:06.001Z</time></trkpt><trkpt lat="42.794713135043466" lon="12.240004550067729"><ele>638.0</ele><time>2026-04-04T14:00:07.001Z</time></trkpt><trkpt lat="42.794732780488864" lon="12.239896695322248"><ele>637.5</ele><time>2026-04-04T14:00:08.001Z</time></trkpt><trkpt lat="42.794758487142545" lon="12.23979220472267"><ele>637.0</ele><time>2026-04-04T14:00:09.001Z</time></trkpt><trkpt lat="42.794792471051075" lon="12.239700529185004"><ele>636.5</ele><time>2026-04-04T14:00:10.001Z</time></trkpt><trkpt lat="42.79483158405474" lon="12.239603188908395"><ele>636.0</ele><time>2026-04-04T14:00:11.001Z</time></trkpt><trkpt lat="42.79487342659301" lon="12.239498975659338"><ele>635.5</ele><time>2026-04-04T14:00:12.001Z</time></trkpt><trkpt lat="42.794927250621676" lon="12.239424597717042"><ele>635.0</ele><time>2026-04-04T14:00:13.001Z</time></trkpt><trkpt lat="42.79497525190398" lon="12.239342191717562"><ele>635.0</ele><time>2026-04-04T14:00:14.001Z</time></trkpt><trkpt lat="42.795027803169226" lon="12.239265898846634"><ele>635.0</ele><time>2026-04-04T14:00:15.001Z</time></trkpt><trkpt lat="42.795085224379136" lon="12.239186530671816"><ele>635.0</ele><time>2026-04-04T14:00:16.001Z</time></trkpt><trkpt lat="42.79513784312619" lon="12.2391107306559"><ele>635.0</ele><time>2026-04-04T14:00:17.001Z</time></trkpt><trkpt lat="42.79520953223286" lon="12.23904801125562"><ele>635.0</ele><time>2026-04-04T14:00:18.001Z</time></trkpt><trkpt lat="42.79527764116914" lon="12.238976122929868"><ele>635.0</ele><time>2026-04-04T14:00:19.001Z</time></trkpt><trkpt lat="42.79535677881736" lon="12.238910428839201"><ele>637.0</ele><time>2026-04-04T14:00:20.001Z</time></trkpt><trkpt lat="42.795419905082746" lon="12.238848778452958"><ele>639.0</ele><time>2026-04-04T14:00:21.001Z</time></trkpt><trkpt lat="42.79547963880411" lon="12.23878900991907"><ele>641.0</ele><time>2026-04-04T14:00:22.001Z</time></trkpt><trkpt lat="42.79551975462244" lon="12.238690289588414"><ele>643.0</ele><time>2026-04-04T14:00:23.001Z</time></trkpt><trkpt lat="42.7955529295901" lon="12.23860115650158"><ele>645.0</ele><time>2026-04-04T14:00:24.001Z</time></trkpt><trkpt lat="42.79559024491045" lon="12.23849680588371"><ele>647.0</ele><time>2026-04-04T14:00:25.001Z</time></trkpt><trkpt lat="42.795609003589675" lon="12.238409319354632"><ele>647.0</ele><time>2026-04-04T14:00:26.001Z</time></trkpt><trkpt lat="42.79564841201704" lon="12.238338049430588"><ele>647.0</ele><time>2026-04-04T14:00:27.001Z</time></trkpt><trkpt lat="42.795698071462354" lon="12.23826714105508"><ele>647.0</ele><time>2026-04-04T14:00:28.001Z</time></trkpt><trkpt lat="42.79574558168171" lon="12.238203519461099"><ele>647.0</ele><time>2026-04-04T14:00:29.001Z</time></trkpt><trkpt lat="42.795817948149704" lon="12.238138088993873"><ele>647.0</ele><time>2026-04-04T14:00:30.001Z</time></trkpt><trkpt lat="42.79588311771395" lon="12.23808058387296"><ele>647.0</ele><time>2026-04-04T14:00:31.001Z</time></trkpt><trkpt lat="42.79593772282876" lon="12.238018402418335"><ele>647.0</ele><time>2026-04-04T14:00:32.001Z</time></trkpt><trkpt lat="42.79601195614384" lon="12.237964751849908"><ele>648.5</ele><time>2026-04-04T14:00:33.001Z</time></trkpt><trkpt lat="42.79608583131326" lon="12.237904141100332"><ele>650.0</ele><time>2026-04-04T14:00:34.001Z</time></trkpt><trkpt lat="42.79614405036598" lon="12.237851255370657"><ele>651.5</ele><time>2026-04-04T14:00:35.001Z</time></trkpt><trkpt lat="42.796210985436716" lon="12.237788051200097"><ele>653.0</ele><time>2026-04-04T14:00:36.001Z</time></trkpt><trkpt lat="42.79625399612986" lon="12.237717422460456"><ele>654.5</ele><time>2026-04-04T14:00:37.001Z</time></trkpt><trkpt lat="42.79629660654981" lon="12.237651345460517"><ele>656.0</ele><time>2026-04-04T14:00:38.001Z</time></trkpt><trkpt lat="42.796315596857426" lon="12.237493018436524"><ele>656.0</ele><time>2026-04-04T14:00:40.001Z</time></trkpt><trkpt lat="42.79631120737179" lon="12.237307925202066"><ele>656.0</ele><time>2026-04-04T14:00:42.001Z</time></trkpt><trkpt lat="42.79630562800013" lon="12.237214017261445"><ele>656.0</ele><time>2026-04-04T14:00:43.001Z</time></trkpt><trkpt lat="42.7963090532785" lon="12.237071387764315"><ele>656.0</ele><time>2026-04-04T14:00:45.001Z</time></trkpt><trkpt lat="42.79633501030559" lon="12.236960404752312"><ele>656.0</ele><time>2026-04-04T14:00:47.001Z</time></trkpt><trkpt lat="42.7964012789402" lon="12.2369281368725"><ele>655.4</ele><time>2026-04-04T14:00:49.001Z</time></trkpt><trkpt lat="42.79649286468113" lon="12.236962819383368"><ele>654.8</ele><time>2026-04-04T14:00:51.001Z</time></trkpt><trkpt lat="42.79654569260873" lon="12.237020035269515"><ele>654.1999999999999</ele><time>2026-04-04T14:00:52.001Z</time></trkpt><trkpt lat="42.796652287343306" lon="12.237137942079851"><ele>653.5999999999999</ele><time>2026-04-04T14:00:54.001Z</time></trkpt><trkpt lat="42.79674694871974" lon="12.237220193684097"><ele>653.0</ele><time>2026-04-04T14:00:56.001Z</time></trkpt><trkpt lat="42.79684620531771" lon="12.237287226472967"><ele>652.0</ele><time>2026-04-04T14:00:58.001Z</time></trkpt><trkpt lat="42.79694385023002" lon="12.237332904006474"><ele>651.0</ele><time>2026-04-04T14:01:00.001Z</time></trkpt><trkpt lat="42.79705090567707" lon="12.237393765606289"><ele>650.0</ele><time>2026-04-04T14:01:02.001Z</time></trkpt><trkpt lat="42.797116884661854" lon="12.237433044360014"><ele>649.0</ele><time>2026-04-04T14:01:03.001Z</time></trkpt><trkpt lat="42.79717324348832" lon="12.237473798962009"><ele>648.0</ele><time>2026-04-04T14:01:04.001Z</time></trkpt><trkpt lat="42.797233226424275" lon="12.23750345067359"><ele>647.0</ele><time>2026-04-04T14:01:05.001Z</time></trkpt><trkpt lat="42.797345006571355" lon="12.237549825472737"><ele>647.0</ele><time>2026-04-04T14:01:07.001Z</time></trkpt><trkpt lat="42.79742861915186" lon="12.23760115037192"><ele>647.0</ele><time>2026-04-04T14:01:08.001Z</time></trkpt><trkpt lat="42.79749044672692" lon="12.23764649455756"><ele>647.0</ele><time>2026-04-04T14:01:09.001Z</time></trkpt><trkpt lat="42.797595973653" lon="12.23767995587324"><ele>647.0</ele><time>2026-04-04T14:01:11.001Z</time></trkpt><trkpt lat="42.797720766122026" lon="12.237713759541682"><ele>647.0</ele><time>2026-04-04T14:01:13.001Z</time></trkpt><trkpt lat="42.797786991558326" lon="12.23774453489081"><ele>645.0</ele><time>2026-04-04T14:01:14.001Z</time></trkpt><trkpt lat="42.797850002686054" lon="12.237766635156516"><ele>643.0</ele><time>2026-04-04T14:01:15.001Z</time></trkpt><trkpt lat="42.79791658965974" lon="12.237792995924899"><ele>641.0</ele><time>2026-04-04T14:01:16.001Z</time></trkpt><trkpt lat="42.798024317905124" lon="12.237837414059165"><ele>639.0</ele><time>2026-04-04T14:01:18.001Z</time></trkpt><trkpt lat="42.79812186104023" lon="12.237896295518745"><ele>637.0</ele><time>2026-04-04T14:01:20.001Z</time></trkpt><trkpt lat="42.79821826933942" lon="12.238018923460235"><ele>637.0</ele><time>2026-04-04T14:01:22.001Z</time></trkpt><trkpt lat="42.79827649685185" lon="12.238102892024198"><ele>637.0</ele><time>2026-04-04T14:01:24.001Z</time></trkpt><trkpt lat="42.79835054947665" lon="12.238151916165162"><ele>637.0</ele><time>2026-04-04T14:01:26.001Z</time></trkpt><trkpt lat="42.7984027090627" lon="12.238219152186216"><ele>637.0</ele><time>2026-04-04T14:01:28.001Z</time></trkpt><trkpt lat="42.7984748791616" lon="12.238214546840041"><ele>637.0</ele><time>2026-04-04T14:01:31.001Z</time></trkpt><trkpt lat="42.79850642697815" lon="12.238099200467884"><ele>637.0</ele><time>2026-04-04T14:01:34.001Z</time></trkpt><trkpt lat="42.79846643560542" lon="12.238002709497977"><ele>637.0</ele><time>2026-04-04T14:01:36.001Z</time></trkpt><trkpt lat="42.79845103412798" lon="12.237882381587594"><ele>637.0</ele><time>2026-04-04T14:01:38.001Z</time></trkpt><trkpt lat="42.79842217980477" lon="12.237805260637519"><ele>637.0</ele><time>2026-04-04T14:01:39Z</time></trkpt><trkpt lat="42.79837760949614" lon="12.23767110122241"><ele>637.0</ele><time>2026-04-04T14:01:41Z</time></trkpt><trkpt lat="42.79835833632544" lon="12.237582395973941"><ele>637.0</ele><time>2026-04-04T14:01:42Z</time></trkpt><trkpt lat="42.79825500276445" lon="12.2374722392022"><ele>637.0</ele><time>2026-04-04T14:01:44Z</time></trkpt><trkpt lat="42.798200375800675" lon="12.237415605050634"><ele>637.0</ele><time>2026-04-04T14:01:45Z</time></trkpt><trkpt lat="42.798137145782825" lon="12.237356903741007"><ele>637.0</ele><time>2026-04-04T14:01:46Z</time></trkpt><trkpt lat="42.79807318895281" lon="12.237308477578232"><ele>637.0</ele><time>2026-04-04T14:01:47Z</time></trkpt><trkpt lat="42.79799597955851" lon="12.23726875357317"><ele>637.0</ele><time>2026-04-04T14:01:48Z</time></trkpt><trkpt lat="42.79793354713992" lon="12.23725249776054"><ele>637.0</ele><time>2026-04-04T14:01:49Z</time></trkpt><trkpt lat="42.79786143332105" lon="12.237238414118027"><ele>637.0</ele><time>2026-04-04T14:01:50Z</time></trkpt><trkpt lat="42.79779037664418" lon="12.237214683437655"><ele>636.5</ele><time>2026-04-04T14:01:51Z</time></trkpt><trkpt lat="42.7977275166595" lon="12.237182197508194"><ele>636.0</ele><time>2026-04-04T14:01:52Z</time></trkpt><trkpt lat="42.79765356754487" lon="12.23716347239413"><ele>635.5</ele><time>2026-04-04T14:01:53Z</time></trkpt><trkpt lat="42.797597234222316" lon="12.23710750534734"><ele>635.0</ele><time>2026-04-04T14:01:54Z</time></trkpt><trkpt lat="42.79752202861665" lon="12.23707373780462"><ele>634.5</ele><time>2026-04-04T14:01:55Z</time></trkpt><trkpt lat="42.79741385269228" lon="12.237038631220132"><ele>634.0</ele><time>2026-04-04T14:01:57Z</time></trkpt><trkpt lat="42.797314120129485" lon="12.236971674164185"><ele>634.0</ele><time>2026-04-04T14:01:59Z</time></trkpt><trkpt lat="42.79722496832913" lon="12.2368856048747"><ele>634.0</ele><time>2026-04-04T14:02:01Z</time></trkpt><trkpt lat="42.797122572225355" lon="12.236824941167002"><ele>634.0</ele><time>2026-04-04T14:02:03Z</time></trkpt><trkpt lat="42.79708071031308" lon="12.236673935636327"><ele>634.0</ele><time>2026-04-04T14:02:05Z</time></trkpt><trkpt lat="42.79707061350007" lon="12.236584010760653"><ele>634.0</ele><time>2026-04-04T14:02:06Z</time></trkpt><trkpt lat="42.79709182921073" lon="12.236423450294533"><ele>634.4</ele><time>2026-04-04T14:02:08Z</time></trkpt><trkpt lat="42.79717061732577" lon="12.236290494420652"><ele>634.8</ele><time>2026-04-04T14:02:10Z</time></trkpt><trkpt lat="42.79726264639687" lon="12.236196151243009"><ele>635.2</ele><time>2026-04-04T14:02:12Z</time></trkpt><trkpt lat="42.797328463393214" lon="12.23617184745548"><ele>635.6</ele><time>2026-04-04T14:02:13Z</time></trkpt><trkpt lat="42.79744166232403" lon="12.236108461891344"><ele>636.0</ele><time>2026-04-04T14:02:15Z</time></trkpt><trkpt lat="42.79749951572267" lon="12.23606865037043"><ele>636.0</ele><time>2026-04-04T14:02:16Z</time></trkpt><trkpt lat="42.797567630208015" lon="12.235929587530036"><ele>636.0</ele><time>2026-04-04T14:02:18Z</time></trkpt><trkpt lat="42.79760405326623" lon="12.235782020321665"><ele>636.0</ele><time>2026-04-04T14:02:20Z</time></trkpt><trkpt lat="42.79768596014207" lon="12.23564791176286"><ele>636.0</ele><time>2026-04-04T14:02:22Z</time></trkpt><trkpt lat="42.79775866278156" lon="12.23553705698644"><ele>632.4</ele><time>2026-04-04T14:02:24Z</time></trkpt><trkpt lat="42.79780576822599" lon="12.235418060808701"><ele>628.8</ele><time>2026-04-04T14:02:26.001Z</time></trkpt><trkpt lat="42.79774976677406" lon="12.235265887902404"><ele>625.1999999999999</ele><time>2026-04-04T14:02:28.001Z</time></trkpt><trkpt lat="42.79773621659236" lon="12.235160887258152"><ele>621.6</ele><time>2026-04-04T14:02:29.001Z</time></trkpt><trkpt lat="42.79770412465144" lon="12.234980535272976"><ele>618.0</ele><time>2026-04-04T14:02:31.001Z</time></trkpt><trkpt lat="42.79769142322874" lon="12.234814543929854"><ele>622.4</ele><time>2026-04-04T14:02:33.001Z</time></trkpt><trkpt lat="42.79763128308802" lon="12.23466704141999"><ele>626.8</ele><time>2026-04-04T14:02:35.001Z</time></trkpt><trkpt lat="42.797601381386436" lon="12.234579454173321"><ele>631.2</ele><time>2026-04-04T14:02:36.001Z</time></trkpt><trkpt lat="42.797554071498475" lon="12.234507861130057"><ele>635.6</ele><time>2026-04-04T14:02:37.001Z</time></trkpt><trkpt lat="42.797470374960575" lon="12.234402881716889"><ele>640.0</ele><time>2026-04-04T14:02:39.001Z</time></trkpt><trkpt lat="42.797398928962785" lon="12.23427737506639"><ele>640.0</ele><time>2026-04-04T14:02:41.001Z</time></trkpt><trkpt lat="42.79737709954529" lon="12.234138935152744"><ele>640.0</ele><time>2026-04-04T14:02:43.001Z</time></trkpt><trkpt lat="42.7974386805657" lon="12.234044230652236"><ele>640.0</ele><time>2026-04-04T14:02:45.001Z</time></trkpt><trkpt lat="42.79754874466103" lon="12.23399884715229"><ele>640.0</ele><time>2026-04-04T14:02:47.001Z</time></trkpt><trkpt lat="42.79767043080866" lon="12.234011302862712"><ele>640.0</ele><time>2026-04-04T14:02:49.001Z</time></trkpt><trkpt lat="42.79778932044812" lon="12.234052974697937"><ele>639.1666666666667</ele><time>2026-04-04T14:02:51.001Z</time></trkpt><trkpt lat="42.79786063895752" lon="12.234052931319807"><ele>638.3333333333334</ele><time>2026-04-04T14:02:52.001Z</time></trkpt><trkpt lat="42.79793371320235" lon="12.234062255069519"><ele>637.5</ele><time>2026-04-04T14:02:53.001Z</time></trkpt><trkpt lat="42.79806329421542" lon="12.234077203338675"><ele>636.6666666666666</ele><time>2026-04-04T14:02:55.001Z</time></trkpt><trkpt lat="42.798145914003584" lon="12.234090590375116"><ele>635.8333333333333</ele><time>2026-04-04T14:02:56.001Z</time></trkpt><trkpt lat="42.79822184833553" lon="12.234102669923125"><ele>635.0</ele><time>2026-04-04T14:02:57.001Z</time></trkpt><trkpt lat="42.798289763268556" lon="12.234114473016266"><ele>635.0</ele><time>2026-04-04T14:02:58.001Z</time></trkpt><trkpt lat="42.79835819772312" lon="12.23413607171277"><ele>635.0</ele><time>2026-04-04T14:02:59.001Z</time></trkpt><trkpt lat="42.798429027855846" lon="12.234183677279301"><ele>635.0</ele><time>2026-04-04T14:03:00.001Z</time></trkpt><trkpt lat="42.79847344696862" lon="12.234254222684703"><ele>635.0</ele><time>2026-04-04T14:03:01.001Z</time></trkpt><trkpt lat="42.79859488845117" lon="12.23436520855914"><ele>635.0</ele><time>2026-04-04T14:03:03.001Z</time></trkpt><trkpt lat="42.79869913232363" lon="12.23440821824521"><ele>634.9999999999999</ele><time>2026-04-04T14:03:05.001Z</time></trkpt><trkpt lat="42.798802222314734" lon="12.234383165470376"><ele>635.0</ele><time>2026-04-04T14:03:07.001Z</time></trkpt><trkpt lat="42.79885491901789" lon="12.234336216845877"><ele>635.0</ele><time>2026-04-04T14:03:08.001Z</time></trkpt><trkpt lat="42.79890358280981" lon="12.234273967225304"><ele>635.0</ele><time>2026-04-04T14:03:09.001Z</time></trkpt><trkpt lat="42.79895399859227" lon="12.234210466814952"><ele>635.0</ele><time>2026-04-04T14:03:10.001Z</time></trkpt><trkpt lat="42.79901015705455" lon="12.234162438117655"><ele>634.9999999999999</ele><time>2026-04-04T14:03:11.001Z</time></trkpt><trkpt lat="42.79904004814116" lon="12.234085281830666"><ele>635.0</ele><time>2026-04-04T14:03:12.001Z</time></trkpt><trkpt lat="42.79907185521399" lon="12.233943647199299"><ele>638.6666666666666</ele><time>2026-04-04T14:03:14.001Z</time></trkpt><trkpt lat="42.799118484864046" lon="12.233870087239502"><ele>642.3333333333333</ele><time>2026-04-04T14:03:15.001Z</time></trkpt><trkpt lat="42.79921905160682" lon="12.233787865054955"><ele>646.0</ele><time>2026-04-04T14:03:17.001Z</time></trkpt><trkpt lat="42.79929020302255" lon="12.233759987994882"><ele>649.6666666666666</ele><time>2026-04-04T14:03:19.001Z</time></trkpt><trkpt lat="42.79935523664055" lon="12.233708025351156"><ele>653.3333333333334</ele><time>2026-04-04T14:03:20.001Z</time></trkpt><trkpt lat="42.79941702346212" lon="12.233690291416528"><ele>657.0</ele><time>2026-04-04T14:03:21.001Z</time></trkpt><trkpt lat="42.79947427166801" lon="12.233731908933063"><ele>657.8333333333334</ele><time>2026-04-04T14:03:22.001Z</time></trkpt><trkpt lat="42.79952423313198" lon="12.23378944143456"><ele>658.6666666666666</ele><time>2026-04-04T14:03:23.001Z</time></trkpt><trkpt lat="42.79956200149143" lon="12.233920502388147"><ele>659.5</ele><time>2026-04-04T14:03:25.001Z</time></trkpt><trkpt lat="42.799638479465564" lon="12.234052832193786"><ele>660.3333333333333</ele><time>2026-04-04T14:03:27.001Z</time></trkpt><trkpt lat="42.79966015091232" lon="12.234150296062632"><ele>661.1666666666666</ele><time>2026-04-04T14:03:28.001Z</time></trkpt><trkpt lat="42.79968600585586" lon="12.234251136052938"><ele>662.0</ele><time>2026-04-04T14:03:29.001Z</time></trkpt><trkpt lat="42.79972371500616" lon="12.234351928757409"><ele>659.6666666666666</ele><time>2026-04-04T14:03:30.001Z</time></trkpt><trkpt lat="42.79974662806409" lon="12.23444993554736"><ele>657.3333333333333</ele><time>2026-04-04T14:03:31.001Z</time></trkpt><trkpt lat="42.79976722251628" lon="12.23455075007031"><ele>655.0</ele><time>2026-04-04T14:03:32.001Z</time></trkpt><trkpt lat="42.799779933490356" lon="12.234638710829827"><ele>652.6666666666666</ele><time>2026-04-04T14:03:33.001Z</time></trkpt><trkpt lat="42.7998316996756" lon="12.234716726266733"><ele>650.3333333333334</ele><time>2026-04-04T14:03:34.001Z</time></trkpt><trkpt lat="42.79993135086671" lon="12.234817716026775"><ele>648.0</ele><time>2026-04-04T14:03:36.001Z</time></trkpt><trkpt lat="42.7999979562906" lon="12.234861851479284"><ele>646.2857142857143</ele><time>2026-04-04T14:03:37.001Z</time></trkpt><trkpt lat="42.80006256850375" lon="12.234898225932671"><ele>644.5714285714286</ele><time>2026-04-04T14:03:38.001Z</time></trkpt><trkpt lat="42.800127094780805" lon="12.234908936663023"><ele>642.8571428571429</ele><time>2026-04-04T14:03:39Z</time></trkpt><trkpt lat="42.80019532727819" lon="12.234919882345592"><ele>641.1428571428571</ele><time>2026-04-04T14:03:40Z</time></trkpt><trkpt lat="42.80026827312245" lon="12.234919397467534"><ele>639.4285714285714</ele><time>2026-04-04T14:03:41Z</time></trkpt><trkpt lat="42.800348553851364" lon="12.234917355882526"><ele>637.7142857142857</ele><time>2026-04-04T14:03:42Z</time></trkpt><trkpt lat="42.800428085979654" lon="12.234896133885051"><ele>636.0</ele><time>2026-04-04T14:03:43Z</time></trkpt><trkpt lat="42.80050007801469" lon="12.234894995951496"><ele>635.8</ele><time>2026-04-04T14:03:44Z</time></trkpt><trkpt lat="42.8005799021926" lon="12.234873891036777"><ele>635.6</ele><time>2026-04-04T14:03:45Z</time></trkpt><trkpt lat="42.80068771214001" lon="12.234784588727091"><ele>635.4</ele><time>2026-04-04T14:03:47Z</time></trkpt><trkpt lat="42.80076485251293" lon="12.234662331900921"><ele>635.2</ele><time>2026-04-04T14:03:49Z</time></trkpt><trkpt lat="42.80080304583405" lon="12.23457834314482"><ele>635.0</ele><time>2026-04-04T14:03:50Z</time></trkpt><trkpt lat="42.800843522804186" lon="12.23450985057146"><ele>636.5714285714286</ele><time>2026-04-04T14:03:51Z</time></trkpt><trkpt lat="42.80090103676525" lon="12.234444254496458"><ele>638.1428571428571</ele><time>2026-04-04T14:03:52Z</time></trkpt><trkpt lat="42.8009527053559" lon="12.234391947401537"><ele>639.7142857142858</ele><time>2026-04-04T14:03:53Z</time></trkpt><trkpt lat="42.80102838247268" lon="12.234359289401944"><ele>641.2857142857142</ele><time>2026-04-04T14:03:54Z</time></trkpt><trkpt lat="42.80109184899751" lon="12.234331174206227"><ele>642.8571428571429</ele><time>2026-04-04T14:03:55Z</time></trkpt><trkpt lat="42.80116040667097" lon="12.234307025957799"><ele>644.4285714285714</ele><time>2026-04-04T14:03:56Z</time></trkpt><trkpt lat="42.801235146506755" lon="12.234287914440129"><ele>646.0</ele><time>2026-04-04T14:03:57Z</time></trkpt><trkpt lat="42.80138557737581" lon="12.234265808036566"><ele>646.0</ele><time>2026-04-04T14:03:59Z</time></trkpt><trkpt lat="42.801414208000985" lon="12.234181709570274"><ele>646.0</ele><time>2026-04-04T14:04:00Z</time></trkpt><trkpt lat="42.80148954799852" lon="12.234166100225435"><ele>646.0</ele><time>2026-04-04T14:04:02Z</time></trkpt><trkpt lat="42.80155183218681" lon="12.234088589995261"><ele>646.0</ele><time>2026-04-04T14:04:04Z</time></trkpt><trkpt lat="42.80161865559421" lon="12.233981265158706"><ele>646.0</ele><time>2026-04-04T14:04:06Z</time></trkpt><trkpt lat="42.80164996493841" lon="12.233900499965863"><ele>646.0</ele><time>2026-04-04T14:04:07Z</time></trkpt><trkpt lat="42.80176072124851" lon="12.233785266610633"><ele>651.4</ele><time>2026-04-04T14:04:09Z</time></trkpt><trkpt lat="42.80181896760019" lon="12.233745792047435"><ele>656.8</ele><time>2026-04-04T14:04:10Z</time></trkpt><trkpt lat="42.801953939398345" lon="12.233735416996309"><ele>662.1999999999999</ele><time>2026-04-04T14:04:12Z</time></trkpt><trkpt lat="42.80206056039325" lon="12.233789350583592"><ele>667.5999999999999</ele><time>2026-04-04T14:04:14Z</time></trkpt><trkpt lat="42.802112501495216" lon="12.233850728345306"><ele>673.0</ele><time>2026-04-04T14:04:15Z</time></trkpt><trkpt lat="42.802166218574435" lon="12.233920241674637"><ele>671.0</ele><time>2026-04-04T14:04:16Z</time></trkpt><trkpt lat="42.80220785442407" lon="12.23399837251646"><ele>669.0</ele><time>2026-04-04T14:04:17Z</time></trkpt><trkpt lat="42.80223636264242" lon="12.234156345389206"><ele>667.0</ele><time>2026-04-04T14:04:19Z</time></trkpt><trkpt lat="42.80224603631153" lon="12.234256838920832"><ele>665.0</ele><time>2026-04-04T14:04:20Z</time></trkpt><trkpt lat="42.80223586700504" lon="12.234342494746956"><ele>663.0</ele><time>2026-04-04T14:04:21Z</time></trkpt><trkpt lat="42.80222308922011" lon="12.234476685437208"><ele>661.0</ele><time>2026-04-04T14:04:23Z</time></trkpt><trkpt lat="42.80220620509616" lon="12.234607968074629"><ele>661.0</ele><time>2026-04-04T14:04:25Z</time></trkpt><trkpt lat="42.802191718925016" lon="12.234742002268325"><ele>661.0</ele><time>2026-04-04T14:04:27Z</time></trkpt><trkpt lat="42.802204635889034" lon="12.234886585951154"><ele>661.0</ele><time>2026-04-04T14:04:29Z</time></trkpt><trkpt lat="42.80224921566941" lon="12.235039496887083"><ele>661.0</ele><time>2026-04-04T14:04:31.001Z</time></trkpt><trkpt lat="42.80230879521559" lon="12.235173296110835"><ele>661.0</ele><time>2026-04-04T14:04:33.001Z</time></trkpt><trkpt lat="42.80238738645119" lon="12.235261147472036"><ele>659.8</ele><time>2026-04-04T14:04:35.001Z</time></trkpt><trkpt lat="42.802498583616405" lon="12.235341928236874"><ele>658.5999999999999</ele><time>2026-04-04T14:04:37.001Z</time></trkpt><trkpt lat="42.80255815558262" lon="12.235381366718446"><ele>657.4</ele><time>2026-04-04T14:04:38.001Z</time></trkpt><trkpt lat="42.8027054689575" lon="12.235454575857924"><ele>656.2</ele><time>2026-04-04T14:04:40.001Z</time></trkpt><trkpt lat="42.80278020409425" lon="12.235487275197558"><ele>655.0</ele><time>2026-04-04T14:04:41.001Z</time></trkpt><trkpt lat="42.80284485453365" lon="12.235515007343006"><ele>656.6666666666667</ele><time>2026-04-04T14:04:42.001Z</time></trkpt><trkpt lat="42.802913321041466" lon="12.235551956923333"><ele>658.3333333333334</ele><time>2026-04-04T14:04:43.001Z</time></trkpt><trkpt lat="42.80298131232715" lon="12.235596412947622"><ele>660.0</ele><time>2026-04-04T14:04:44.001Z</time></trkpt><trkpt lat="42.8030463046166" lon="12.235634142735993"><ele>661.6666666666666</ele><time>2026-04-04T14:04:45.001Z</time></trkpt><trkpt lat="42.8031153665012" lon="12.235683321294339"><ele>663.3333333333333</ele><time>2026-04-04T14:04:46.001Z</time></trkpt><trkpt lat="42.80318319564607" lon="12.235733190028741"><ele>665.0</ele><time>2026-04-04T14:04:47.001Z</time></trkpt><trkpt lat="42.80326324162908" lon="12.235786407495619"><ele>665.0</ele><time>2026-04-04T14:04:48.001Z</time></trkpt><trkpt lat="42.80332144651938" lon="12.235842194100071"><ele>665.0</ele><time>2026-04-04T14:04:49.001Z</time></trkpt><trkpt lat="42.80338875903453" lon="12.23589514422848"><ele>665.0</ele><time>2026-04-04T14:04:50.001Z</time></trkpt><trkpt lat="42.80346196275856" lon="12.235949447678099"><ele>665.0</ele><time>2026-04-04T14:04:51.001Z</time></trkpt><trkpt lat="42.803521153522134" lon="12.235990475313677"><ele>665.0</ele><time>2026-04-04T14:04:52.001Z</time></trkpt><trkpt lat="42.80362179356184" lon="12.236060188168373"><ele>665.0</ele><time>2026-04-04T14:04:54.001Z</time></trkpt><trkpt lat="42.80371414587842" lon="12.236094794693527"><ele>665.6</ele><time>2026-04-04T14:04:56.001Z</time></trkpt><trkpt lat="42.803794370021755" lon="12.236053599119284"><ele>666.2</ele><time>2026-04-04T14:04:58.001Z</time></trkpt><trkpt lat="42.803833514230284" lon="12.23594168461918"><ele>666.8</ele><time>2026-04-04T14:05:00.001Z</time></trkpt><trkpt lat="42.803821879429385" lon="12.23576783287814"><ele>667.4</ele><time>2026-04-04T14:05:02.001Z</time></trkpt><trkpt lat="42.803819480310466" lon="12.235663068192093"><ele>668.0</ele><time>2026-04-04T14:05:03.001Z</time></trkpt><trkpt lat="42.803816645132535" lon="12.235562823318883"><ele>669.3333333333333</ele><time>2026-04-04T14:05:04.001Z</time></trkpt><trkpt lat="42.80381418653518" lon="12.235463138049399"><ele>670.6666666666666</ele><time>2026-04-04T14:05:05.001Z</time></trkpt><trkpt lat="42.80381208981217" lon="12.23535930498077"><ele>672.0</ele><time>2026-04-04T14:05:06.001Z</time></trkpt><trkpt lat="42.80379666235234" lon="12.235254603573702"><ele>673.3333333333334</ele><time>2026-04-04T14:05:07.001Z</time></trkpt><trkpt lat="42.803767640463946" lon="12.235152173988237"><ele>674.6666666666667</ele><time>2026-04-04T14:05:08.001Z</time></trkpt><trkpt lat="42.80372419119765" lon="12.235052515299843"><ele>676.0</ele><time>2026-04-04T14:05:09.001Z</time></trkpt><trkpt lat="42.80367798061702" lon="12.234945738902026"><ele>676.0</ele><time>2026-04-04T14:05:10.001Z</time></trkpt><trkpt lat="42.80363699908685" lon="12.234833195265269"><ele>676.0</ele><time>2026-04-04T14:05:11.001Z</time></trkpt><trkpt lat="42.80361361176176" lon="12.234733221142992"><ele>676.0</ele><time>2026-04-04T14:05:12.001Z</time></trkpt><trkpt lat="42.803578754032806" lon="12.234641616446789"><ele>676.0</ele><time>2026-04-04T14:05:13.001Z</time></trkpt><trkpt lat="42.80354150339411" lon="12.234541717015178"><ele>676.0</ele><time>2026-04-04T14:05:14.001Z</time></trkpt><trkpt lat="42.80350549563109" lon="12.23444146356579"><ele>676.0</ele><time>2026-04-04T14:05:15.001Z</time></trkpt><trkpt lat="42.803479341028215" lon="12.23434966631697"><ele>677.0</ele><time>2026-04-04T14:05:16.001Z</time></trkpt><trkpt lat="42.803466637324135" lon="12.234197721211626"><ele>678.0</ele><time>2026-04-04T14:05:18.001Z</time></trkpt><trkpt lat="42.80347615771912" lon="12.234055535674608"><ele>679.0</ele><time>2026-04-04T14:05:20.001Z</time></trkpt><trkpt lat="42.8035018695735" lon="12.233903227789783"><ele>680.0</ele><time>2026-04-04T14:05:22.001Z</time></trkpt><trkpt lat="42.8035317954613" lon="12.23377742852348"><ele>681.0</ele><time>2026-04-04T14:05:24.001Z</time></trkpt><trkpt lat="42.80356748823884" lon="12.233628617084422"><ele>682.4285714285714</ele><time>2026-04-04T14:05:26.001Z</time></trkpt><trkpt lat="42.80358796746798" lon="12.233544208094095"><ele>683.8571428571429</ele><time>2026-04-04T14:05:27.001Z</time></trkpt><trkpt lat="42.803609847825236" lon="12.233459653491874"><ele>685.2857142857142</ele><time>2026-04-04T14:05:28.001Z</time></trkpt><trkpt lat="42.80363404717308" lon="12.23336945889238"><ele>686.7142857142858</ele><time>2026-04-04T14:05:29.001Z</time></trkpt><trkpt lat="42.803661030285106" lon="12.233276198073527"><ele>688.1428571428571</ele><time>2026-04-04T14:05:30.001Z</time></trkpt><trkpt lat="42.80369169519951" lon="12.23318402631025"><ele>689.5714285714286</ele><time>2026-04-04T14:05:31.001Z</time></trkpt><trkpt lat="42.80372055890492" lon="12.233103890008811"><ele>691.0</ele><time>2026-04-04T14:05:32.001Z</time></trkpt><trkpt lat="42.80374186836654" lon="12.233010884333853"><ele>692.4285714285713</ele><time>2026-04-04T14:05:33.001Z</time></trkpt><trkpt lat="42.80377677641149" lon="12.232924751680004"><ele>693.8571428571429</ele><time>2026-04-04T14:05:34.001Z</time></trkpt><trkpt lat="42.803811853414565" lon="12.232833500858247"><ele>695.2857142857142</ele><time>2026-04-04T14:05:35.001Z</time></trkpt><trkpt lat="42.80385737963555" lon="12.232766323627084"><ele>696.7142857142857</ele><time>2026-04-04T14:05:36.001Z</time></trkpt><trkpt lat="42.80389056736709" lon="12.23269192386751"><ele>698.1428571428571</ele><time>2026-04-04T14:05:37.001Z</time></trkpt><trkpt lat="42.80390933961849" lon="12.2326059268065"><ele>699.5714285714286</ele><time>2026-04-04T14:05:38.001Z</time></trkpt><trkpt lat="42.80396454812211" lon="12.232491470327277"><ele>701.0</ele><time>2026-04-04T14:05:40.001Z</time></trkpt><trkpt lat="42.80400466008467" lon="12.232385441363286"><ele>701.5999999999999</ele><time>2026-04-04T14:05:41.001Z</time></trkpt><trkpt lat="42.80403646222056" lon="12.232293201565584"><ele>702.2</ele><time>2026-04-04T14:05:43.001Z</time></trkpt><trkpt lat="42.80406442096987" lon="12.23217393486911"><ele>702.8</ele><time>2026-04-04T14:05:44.001Z</time></trkpt><trkpt lat="42.80408999781131" lon="12.232052349599357"><ele>703.4000000000001</ele><time>2026-04-04T14:05:45.001Z</time></trkpt><trkpt lat="42.804118479403655" lon="12.23189847329521"><ele>704.0</ele><time>2026-04-04T14:05:47.001Z</time></trkpt><trkpt lat="42.80414646488429" lon="12.23170887251504"><ele>704.0</ele><time>2026-04-04T14:05:49.001Z</time></trkpt><trkpt lat="42.80412902246916" lon="12.231598086095657"><ele>704.0</ele><time>2026-04-04T14:05:50.001Z</time></trkpt><trkpt lat="42.804112886336235" lon="12.231485172262627"><ele>704.0</ele><time>2026-04-04T14:05:51.001Z</time></trkpt><trkpt lat="42.80406791230433" lon="12.231422905299226"><ele>704.0</ele><time>2026-04-04T14:05:52.001Z</time></trkpt><trkpt lat="42.803997726216096" lon="12.23129921121548"><ele>704.0</ele><time>2026-04-04T14:05:54Z</time></trkpt><trkpt lat="42.80394685364951" lon="12.231199076322973"><ele>704.0</ele><time>2026-04-04T14:05:55Z</time></trkpt><trkpt lat="42.80391056482135" lon="12.23111772130805"><ele>703.7142857142858</ele><time>2026-04-04T14:05:56Z</time></trkpt><trkpt lat="42.803849638919935" lon="12.231049568288872"><ele>703.4285714285714</ele><time>2026-04-04T14:05:57Z</time></trkpt><trkpt lat="42.803806350764056" lon="12.230980079972902"><ele>703.1428571428571</ele><time>2026-04-04T14:05:58Z</time></trkpt><trkpt lat="42.80375678102365" lon="12.230909857859993"><ele>702.8571428571429</ele><time>2026-04-04T14:05:59Z</time></trkpt><trkpt lat="42.80370397580634" lon="12.230847996045446"><ele>702.5714285714286</ele><time>2026-04-04T14:06:00Z</time></trkpt><trkpt lat="42.80366442215924" lon="12.230765259499357"><ele>702.2857142857143</ele><time>2026-04-04T14:06:01Z</time></trkpt><trkpt lat="42.80361391145641" lon="12.23069926625698"><ele>702.0</ele><time>2026-04-04T14:06:02Z</time></trkpt><trkpt lat="42.80355930137963" lon="12.230625774480819"><ele>702.0000000000001</ele><time>2026-04-04T14:06:03Z</time></trkpt><trkpt lat="42.80351431613443" lon="12.23055762120101"><ele>702.0</ele><time>2026-04-04T14:06:04Z</time></trkpt><trkpt lat="42.80346981086127" lon="12.230482396721847"><ele>702.0</ele><time>2026-04-04T14:06:05Z</time></trkpt><trkpt lat="42.80342349316397" lon="12.230397106326736"><ele>702.0</ele><time>2026-04-04T14:06:06Z</time></trkpt><trkpt lat="42.8033791865907" lon="12.230312502732433"><ele>702.0</ele><time>2026-04-04T14:06:07Z</time></trkpt><trkpt lat="42.80333662854652" lon="12.230227902262468"><ele>702.0000000000001</ele><time>2026-04-04T14:06:08Z</time></trkpt><trkpt lat="42.80328043762341" lon="12.230154132884664"><ele>702.0</ele><time>2026-04-04T14:06:09Z</time></trkpt><trkpt lat="42.80325115188777" lon="12.230062653821545"><ele>704.8571428571429</ele><time>2026-04-04T14:06:10Z</time></trkpt><trkpt lat="42.80321047315013" lon="12.229994252086914"><ele>707.7142857142858</ele><time>2026-04-04T14:06:11Z</time></trkpt><trkpt lat="42.80316598084595" lon="12.229930253151716"><ele>710.5714285714287</ele><time>2026-04-04T14:06:12Z</time></trkpt><trkpt lat="42.80311691838276" lon="12.229860719958786"><ele>713.4285714285714</ele><time>2026-04-04T14:06:13Z</time></trkpt><trkpt lat="42.80306168944926" lon="12.229787470770866"><ele>716.2857142857142</ele><time>2026-04-04T14:06:14Z</time></trkpt><trkpt lat="42.802991918407294" lon="12.22973089694194"><ele>719.1428571428572</ele><time>2026-04-04T14:06:15Z</time></trkpt><trkpt lat="42.80294565976797" lon="12.229646148502008"><ele>722.0</ele><time>2026-04-04T14:06:16Z</time></trkpt><trkpt lat="42.80287359564019" lon="12.229592250602245"><ele>723.3333333333333</ele><time>2026-04-04T14:06:17Z</time></trkpt><trkpt lat="42.80282088551566" lon="12.229503408198813"><ele>724.6666666666666</ele><time>2026-04-04T14:06:18Z</time></trkpt><trkpt lat="42.802760739812484" lon="12.229428509778545"><ele>726.0</ele><time>2026-04-04T14:06:19Z</time></trkpt><trkpt lat="42.802700842939984" lon="12.229348417048849"><ele>727.3333333333334</ele><time>2026-04-04T14:06:20Z</time></trkpt><trkpt lat="42.8026431884735" lon="12.229263967350647"><ele>728.6666666666667</ele><time>2026-04-04T14:06:21Z</time></trkpt><trkpt lat="42.80259130963379" lon="12.229180545588756"><ele>730.0</ele><time>2026-04-04T14:06:22Z</time></trkpt><trkpt lat="42.80255390688446" lon="12.229096826623772"><ele>732.2</ele><time>2026-04-04T14:06:23Z</time></trkpt><trkpt lat="42.80252399457191" lon="12.229013529954578"><ele>734.4</ele><time>2026-04-04T14:06:24Z</time></trkpt><trkpt lat="42.802496625611646" lon="12.228924264126588"><ele>736.5999999999999</ele><time>2026-04-04T14:06:25Z</time></trkpt><trkpt lat="42.802480396961855" lon="12.22878210566026"><ele>738.8</ele><time>2026-04-04T14:06:27Z</time></trkpt><trkpt lat="42.80248439845108" lon="12.228635913729857"><ele>741.0</ele><time>2026-04-04T14:06:29Z</time></trkpt><trkpt lat="42.802560725410515" lon="12.228541212137522"><ele>741.6666666666666</ele><time>2026-04-04T14:06:31Z</time></trkpt><trkpt lat="42.80266577123354" lon="12.228514213460159"><ele>742.3333333333334</ele><time>2026-04-04T14:06:33Z</time></trkpt><trkpt lat="42.802728084040986" lon="12.228483045634052"><ele>743.0</ele><time>2026-04-04T14:06:34Z</time></trkpt><trkpt lat="42.80279028543812" lon="12.228451933558215"><ele>743.6666666666667</ele><time>2026-04-04T14:06:35Z</time></trkpt><trkpt lat="42.80286848579508" lon="12.228412819078766"><ele>744.3333333333334</ele><time>2026-04-04T14:06:36Z</time></trkpt><trkpt lat="42.802945832845985" lon="12.228374131412647"><ele>745.0</ele><time>2026-04-04T14:06:37Z</time></trkpt><trkpt lat="42.80301861204703" lon="12.22834077912105"><ele>745.0</ele><time>2026-04-04T14:06:38Z</time></trkpt><trkpt lat="42.8031088378396" lon="12.22829952763769"><ele>745.0</ele><time>2026-04-04T14:06:39Z</time></trkpt><trkpt lat="42.80319172032487" lon="12.228270724971846"><ele>745.0</ele><time>2026-04-04T14:06:40Z</time></trkpt><trkpt lat="42.8032747159481" lon="12.22824452908139"><ele>745.0</ele><time>2026-04-04T14:06:41.001Z</time></trkpt><trkpt lat="42.80335418800317" lon="12.22819542510176"><ele>745.0</ele><time>2026-04-04T14:06:42.001Z</time></trkpt><trkpt lat="42.80342953494362" lon="12.228190806834593"><ele>745.0</ele><time>2026-04-04T14:06:43.001Z</time></trkpt><trkpt lat="42.80351140635515" lon="12.22816220546101"><ele>745.1666666666667</ele><time>2026-04-04T14:06:44.001Z</time></trkpt><trkpt lat="42.80358453671147" lon="12.228136850985571"><ele>745.3333333333334</ele><time>2026-04-04T14:06:45.001Z</time></trkpt><trkpt lat="42.8036582850969" lon="12.228084940417997"><ele>745.5</ele><time>2026-04-04T14:06:46.001Z</time></trkpt><trkpt lat="42.80372720123978" lon="12.228057356241372"><ele>745.6666666666666</ele><time>2026-04-04T14:06:47.001Z</time></trkpt><trkpt lat="42.803800593612486" lon="12.228030790523647"><ele>745.8333333333333</ele><time>2026-04-04T14:06:48.001Z</time></trkpt><trkpt lat="42.803851366768505" lon="12.227958428377146"><ele>746.0</ele><time>2026-04-04T14:06:49.001Z</time></trkpt><trkpt lat="42.803928969603305" lon="12.227853859922075"><ele>746.0</ele><time>2026-04-04T14:06:51.001Z</time></trkpt><trkpt lat="42.803969341848806" lon="12.227737168227417"><ele>746.0</ele><time>2026-04-04T14:06:53.001Z</time></trkpt><trkpt lat="42.803983156543" lon="12.227593615589367"><ele>746.0</ele><time>2026-04-04T14:06:55.001Z</time></trkpt><trkpt lat="42.8039826192277" lon="12.22743304204241"><ele>746.0</ele><time>2026-04-04T14:06:57.001Z</time></trkpt><trkpt lat="42.803993339713166" lon="12.227277542630624"><ele>746.0</ele><time>2026-04-04T14:06:59.001Z</time></trkpt><trkpt lat="42.803983838319425" lon="12.227134322276205"><ele>746.8333333333333</ele><time>2026-04-04T14:07:01.001Z</time></trkpt><trkpt lat="42.80394706486345" lon="12.226999818751548"><ele>747.6666666666666</ele><time>2026-04-04T14:07:03.001Z</time></trkpt><trkpt lat="42.803935896256455" lon="12.226878821316323"><ele>748.5</ele><time>2026-04-04T14:07:05.001Z</time></trkpt><trkpt lat="42.803910413141885" lon="12.226799923750388"><ele>749.3333333333334</ele><time>2026-04-04T14:07:07.001Z</time></trkpt><trkpt lat="42.80389805971488" lon="12.226690873912945"><ele>750.1666666666667</ele><time>2026-04-04T14:07:10.001Z</time></trkpt><trkpt lat="42.80385587746306" lon="12.226621277923552"><ele>751.0</ele><time>2026-04-04T14:07:17.001Z</time></trkpt><trkpt lat="42.80418738567926" lon="12.226549693981623"><ele>751.8333333333334</ele><time>2026-04-04T14:07:28.001Z</time></trkpt><trkpt lat="42.80424575913841" lon="12.226459525583728"><ele>752.6666666666667</ele><time>2026-04-04T14:07:31.001Z</time></trkpt><trkpt lat="42.80426482804861" lon="12.226367942231638"><ele>753.5</ele><time>2026-04-04T14:07:33.001Z</time></trkpt><trkpt lat="42.80427377044752" lon="12.22626082323423"><ele>754.3333333333334</ele><time>2026-04-04T14:07:35.001Z</time></trkpt><trkpt lat="42.80427069129958" lon="12.226153203776027"><ele>755.1666666666666</ele><time>2026-04-04T14:07:37.001Z</time></trkpt><trkpt lat="42.80427821961961" lon="12.22605093852859"><ele>756.0</ele><time>2026-04-04T14:07:39.001Z</time></trkpt><trkpt lat="42.80427711309331" lon="12.225965062417782"><ele>756.0</ele><time>2026-04-04T14:08:01Z</time></trkpt></trkseg><trkseg><trkpt lat="42.80434324916699" lon="12.225878644272175"><ele>759.0</ele><time>2026-04-04T14:18:39Z</time></trkpt><trkpt lat="42.80437784619147" lon="12.225955031242348"><ele>759.0</ele><time>2026-04-04T14:18:59Z</time></trkpt><trkpt lat="42.80434400637964" lon="12.226030894766387"><ele>759.0</ele><time>2026-04-04T14:19:08Z</time></trkpt><trkpt lat="42.80432980979385" lon="12.2261169718971"><ele>759.0</ele><time>2026-04-04T14:19:25Z</time></trkpt><trkpt lat="42.80434944532356" lon="12.226204304913155"><ele>759.0</ele><time>2026-04-04T14:19:42Z</time></trkpt><trkpt lat="42.804347226852364" lon="12.226291792843805"><ele>759.0</ele><time>2026-04-04T14:19:49Z</time></trkpt><trkpt lat="42.804329027109354" lon="12.226377426479772"><ele>759.0</ele><time>2026-04-04T14:19:56Z</time></trkpt><trkpt lat="42.80429150259553" lon="12.226470823771136"><ele>757.6666666666666</ele><time>2026-04-04T14:20:00Z</time></trkpt><trkpt lat="42.80423826879932" lon="12.22656028491429"><ele>756.3333333333334</ele><time>2026-04-04T14:20:03Z</time></trkpt><trkpt lat="42.80416300026735" lon="12.226630276445782"><ele>755.0</ele><time>2026-04-04T14:20:06Z</time></trkpt><trkpt lat="42.804084510806724" lon="12.226676498951447"><ele>753.6666666666667</ele><time>2026-04-04T14:20:08Z</time></trkpt><trkpt lat="42.80400399478422" lon="12.226728543149356"><ele>752.3333333333334</ele><time>2026-04-04T14:20:10Z</time></trkpt><trkpt lat="42.80393784601551" lon="12.226741417637072"><ele>751.0</ele><time>2026-04-04T14:20:12Z</time></trkpt><trkpt lat="42.80387998375583" lon="12.226688920267975"><ele>751.0</ele><time>2026-04-04T14:20:14Z</time></trkpt><trkpt lat="42.80383225072513" lon="12.226589803963199"><ele>751.0</ele><time>2026-04-04T14:20:16Z</time></trkpt><trkpt lat="42.80378507755222" lon="12.226479515848041"><ele>751.0</ele><time>2026-04-04T14:20:18Z</time></trkpt><trkpt lat="42.80373927269148" lon="12.22636168080886"><ele>751.0</ele><time>2026-04-04T14:20:20.001Z</time></trkpt><trkpt lat="42.80369469345204" lon="12.226242632586343"><ele>751.0</ele><time>2026-04-04T14:20:22.001Z</time></trkpt><trkpt lat="42.80366017888942" lon="12.22611110282983"><ele>751.0</ele><time>2026-04-04T14:20:24Z</time></trkpt><trkpt lat="42.803636717585576" lon="12.22595476437247"><ele>751.0</ele><time>2026-04-04T14:20:26Z</time></trkpt><trkpt lat="42.80363121776648" lon="12.225809963902291"><ele>751.0</ele><time>2026-04-04T14:20:28Z</time></trkpt><trkpt lat="42.80361483607855" lon="12.225668452501033"><ele>751.0</ele><time>2026-04-04T14:20:30Z</time></trkpt><trkpt lat="42.80363305776293" lon="12.225537116938405"><ele>751.0</ele><time>2026-04-04T14:20:32Z</time></trkpt><trkpt lat="42.80362999003215" lon="12.225392696832278"><ele>751.0</ele><time>2026-04-04T14:20:34Z</time></trkpt><trkpt lat="42.80364564829019" lon="12.225255467134179"><ele>751.0</ele><time>2026-04-04T14:20:36Z</time></trkpt><trkpt lat="42.803680007940336" lon="12.225128426796783"><ele>751.0</ele><time>2026-04-04T14:20:38Z</time></trkpt><trkpt lat="42.80373759567748" lon="12.225009187347"><ele>751.0</ele><time>2026-04-04T14:20:40Z</time></trkpt><trkpt lat="42.803814300343404" lon="12.224895912391986"><ele>751.0</ele><time>2026-04-04T14:20:42Z</time></trkpt><trkpt lat="42.80391612142873" lon="12.224800355828247"><ele>748.0</ele><time>2026-04-04T14:20:44Z</time></trkpt><trkpt lat="42.803973847571584" lon="12.22475486547739"><ele>745.0</ele><time>2026-04-04T14:20:45Z</time></trkpt><trkpt lat="42.80402568633943" lon="12.224702033964169"><ele>742.0</ele><time>2026-04-04T14:20:46Z</time></trkpt><trkpt lat="42.804133818661384" lon="12.224624935609247"><ele>739.0</ele><time>2026-04-04T14:20:48Z</time></trkpt><trkpt lat="42.80419040259052" lon="12.224581413462007"><ele>736.0</ele><time>2026-04-04T14:20:49Z</time></trkpt><trkpt lat="42.80425024154316" lon="12.224541313600895"><ele>733.0</ele><time>2026-04-04T14:20:50Z</time></trkpt><trkpt lat="42.80431476718275" lon="12.22451172619698"><ele>735.3333333333334</ele><time>2026-04-04T14:20:51Z</time></trkpt><trkpt lat="42.804374442425214" lon="12.224478627780497"><ele>737.6666666666667</ele><time>2026-04-04T14:20:52Z</time></trkpt><trkpt lat="42.80443910945645" lon="12.224448843464229"><ele>740.0</ele><time>2026-04-04T14:20:53Z</time></trkpt><trkpt lat="42.80450414235577" lon="12.224422268419486"><ele>742.3333333333334</ele><time>2026-04-04T14:20:54Z</time></trkpt><trkpt lat="42.80457192384487" lon="12.224404320761904"><ele>744.6666666666666</ele><time>2026-04-04T14:20:55Z</time></trkpt><trkpt lat="42.80464248581012" lon="12.224417446325038"><ele>747.0</ele><time>2026-04-04T14:20:56Z</time></trkpt><trkpt lat="42.80476473218074" lon="12.22441955069341"><ele>747.0</ele><time>2026-04-04T14:20:58Z</time></trkpt><trkpt lat="42.80482797355992" lon="12.224396477653839"><ele>747.0</ele><time>2026-04-04T14:20:59Z</time></trkpt><trkpt lat="42.80489355828979" lon="12.224392983333713"><ele>747.0</ele><time>2026-04-04T14:21:00Z</time></trkpt><trkpt lat="42.805014068770035" lon="12.224339541065081"><ele>747.0</ele><time>2026-04-04T14:21:02Z</time></trkpt><trkpt lat="42.80511948520972" lon="12.224266983362378"><ele>747.0</ele><time>2026-04-04T14:21:04Z</time></trkpt><trkpt lat="42.80513488376954" lon="12.224180458343602"><ele>747.0</ele><time>2026-04-04T14:21:05Z</time></trkpt><trkpt lat="42.80518418234625" lon="12.224026123864173"><ele>746.5</ele><time>2026-04-04T14:21:07Z</time></trkpt><trkpt lat="42.805202568106516" lon="12.223943082951548"><ele>746.0</ele><time>2026-04-04T14:21:08Z</time></trkpt><trkpt lat="42.80522550709505" lon="12.223860951569527"><ele>745.5</ele><time>2026-04-04T14:21:09Z</time></trkpt><trkpt lat="42.80524055183655" lon="12.22377738166488"><ele>745.0</ele><time>2026-04-04T14:21:10Z</time></trkpt><trkpt lat="42.805268969753826" lon="12.223631753927243"><ele>744.5</ele><time>2026-04-04T14:21:12Z</time></trkpt><trkpt lat="42.80529332027034" lon="12.22350125440326"><ele>744.0</ele><time>2026-04-04T14:21:14Z</time></trkpt><trkpt lat="42.80533201908893" lon="12.22340022687539"><ele>744.0</ele><time>2026-04-04T14:21:16Z</time></trkpt><trkpt lat="42.805349239058" lon="12.223282563588258"><ele>744.0</ele><time>2026-04-04T14:21:18Z</time></trkpt><trkpt lat="42.80540140689462" lon="12.22315826723568"><ele>744.0</ele><time>2026-04-04T14:21:20Z</time></trkpt><trkpt lat="42.80546260926573" lon="12.223026450189336"><ele>744.0</ele><time>2026-04-04T14:21:22Z</time></trkpt><trkpt lat="42.80552494798137" lon="12.222908502489716"><ele>744.0</ele><time>2026-04-04T14:21:24Z</time></trkpt><trkpt lat="42.805582104702" lon="12.222799363345034"><ele>742.1428571428572</ele><time>2026-04-04T14:21:26Z</time></trkpt><trkpt lat="42.80564412232428" lon="12.22272707608842"><ele>740.2857142857143</ele><time>2026-04-04T14:21:28Z</time></trkpt><trkpt lat="42.80567264833962" lon="12.222649845593534"><ele>738.4285714285714</ele><time>2026-04-04T14:21:30Z</time></trkpt><trkpt lat="42.80572006708004" lon="12.22257563746736"><ele>736.5714285714287</ele><time>2026-04-04T14:21:32Z</time></trkpt><trkpt lat="42.805769792603094" lon="12.222495505956783"><ele>734.7142857142857</ele><time>2026-04-04T14:21:34Z</time></trkpt><trkpt lat="42.80583078793763" lon="12.222441478296245"><ele>732.8571428571429</ele><time>2026-04-04T14:21:36Z</time></trkpt><trkpt lat="42.805868814881286" lon="12.222368368907702"><ele>731.0</ele><time>2026-04-04T14:21:38Z</time></trkpt><trkpt lat="42.805925890128066" lon="12.222300761065853"><ele>728.1999999999999</ele><time>2026-04-04T14:21:40Z</time></trkpt><trkpt lat="42.80599298431409" lon="12.222226221415946"><ele>725.4</ele><time>2026-04-04T14:21:42Z</time></trkpt><trkpt lat="42.80607656361985" lon="12.22214579111147"><ele>722.6</ele><time>2026-04-04T14:21:44Z</time></trkpt><trkpt lat="42.806171896486646" lon="12.222076826480563"><ele>719.8</ele><time>2026-04-04T14:21:46Z</time></trkpt><trkpt lat="42.80627894828888" lon="12.222022098787047"><ele>717.0</ele><time>2026-04-04T14:21:48Z</time></trkpt><trkpt lat="42.80638740876692" lon="12.221968848792622"><ele>717.0</ele><time>2026-04-04T14:21:50Z</time></trkpt><trkpt lat="42.80650031911331" lon="12.221947160672421"><ele>717.0</ele><time>2026-04-04T14:21:52Z</time></trkpt><trkpt lat="42.806610286264366" lon="12.221902723081818"><ele>717.0</ele><time>2026-04-04T14:21:54Z</time></trkpt><trkpt lat="42.806714558111196" lon="12.22190219516478"><ele>717.0</ele><time>2026-04-04T14:21:56Z</time></trkpt><trkpt lat="42.80681687320631" lon="12.221871432005688"><ele>717.0</ele><time>2026-04-04T14:21:58Z</time></trkpt><trkpt lat="42.80691557650517" lon="12.22186655284519"><ele>716.0</ele><time>2026-04-04T14:22:00Z</time></trkpt><trkpt lat="42.80700697033997" lon="12.221896761264334"><ele>715.0</ele><time>2026-04-04T14:22:02Z</time></trkpt><trkpt lat="42.807074032238845" lon="12.22186254536785"><ele>714.0</ele><time>2026-04-04T14:22:04Z</time></trkpt><trkpt lat="42.807098544746914" lon="12.221783077758301"><ele>713.0</ele><time>2026-04-04T14:22:06Z</time></trkpt><trkpt lat="42.807058567247175" lon="12.221661741069672"><ele>712.0</ele><time>2026-04-04T14:22:09.001Z</time></trkpt><trkpt lat="42.806965199569284" lon="12.221602082644058"><ele>711.0</ele><time>2026-04-04T14:22:11.001Z</time></trkpt><trkpt lat="42.80688684988352" lon="12.221571893299524"><ele>712.0</ele><time>2026-04-04T14:22:13.001Z</time></trkpt><trkpt lat="42.806799518925" lon="12.22150644441589"><ele>713.0</ele><time>2026-04-04T14:22:15.001Z</time></trkpt><trkpt lat="42.80671928217519" lon="12.221463377469192"><ele>714.0</ele><time>2026-04-04T14:22:17.001Z</time></trkpt><trkpt lat="42.806625014136266" lon="12.221399199114487"><ele>715.0</ele><time>2026-04-04T14:22:19.001Z</time></trkpt><trkpt lat="42.806561303810454" lon="12.221361627430442"><ele>716.0</ele><time>2026-04-04T14:22:21.001Z</time></trkpt><trkpt lat="42.8065179750541" lon="12.221288845693724"><ele>717.0</ele><time>2026-04-04T14:22:22.001Z</time></trkpt><trkpt lat="42.806445551760014" lon="12.221214169533589"><ele>713.4000000000001</ele><time>2026-04-04T14:22:24.001Z</time></trkpt><trkpt lat="42.80638154449009" lon="12.221149434363122"><ele>709.8000000000001</ele><time>2026-04-04T14:22:26.001Z</time></trkpt><trkpt lat="42.8062902676684" lon="12.221060175064036"><ele>706.2</ele><time>2026-04-04T14:22:28.001Z</time></trkpt><trkpt lat="42.80619402164004" lon="12.221011164060732"><ele>702.6</ele><time>2026-04-04T14:22:30.001Z</time></trkpt><trkpt lat="42.80610723535316" lon="12.221015667017063"><ele>699.0</ele><time>2026-04-04T14:22:32.001Z</time></trkpt><trkpt lat="42.80603514365609" lon="12.221008080444728"><ele>699.0</ele><time>2026-04-04T14:22:34.001Z</time></trkpt><trkpt lat="42.805986982863494" lon="12.22093029782531"><ele>699.0</ele><time>2026-04-04T14:22:37Z</time></trkpt><trkpt lat="42.80598855948996" lon="12.220834927547157"><ele>699.0</ele><time>2026-04-04T14:22:39Z</time></trkpt><trkpt lat="42.80600916768258" lon="12.220677953851444"><ele>699.0</ele><time>2026-04-04T14:22:41Z</time></trkpt><trkpt lat="42.8059993473822" lon="12.220570306417162"><ele>699.0</ele><time>2026-04-04T14:22:42Z</time></trkpt><trkpt lat="42.805964950310106" lon="12.220482444020519"><ele>699.0</ele><time>2026-04-04T14:22:43Z</time></trkpt><trkpt lat="42.805950912637705" lon="12.220394608141332"><ele>698.2</ele><time>2026-04-04T14:22:44Z</time></trkpt><trkpt lat="42.805909306614225" lon="12.220307544916336"><ele>697.4000000000001</ele><time>2026-04-04T14:22:45Z</time></trkpt><trkpt lat="42.805849115312974" lon="12.220218758541384"><ele>696.6</ele><time>2026-04-04T14:22:46Z</time></trkpt><trkpt lat="42.80576945972224" lon="12.220144937224918"><ele>695.8</ele><time>2026-04-04T14:22:47Z</time></trkpt><trkpt lat="42.80568913385126" lon="12.220079948187792"><ele>695.0</ele><time>2026-04-04T14:22:48Z</time></trkpt><trkpt lat="42.80559680831225" lon="12.22001894541652"><ele>695.0</ele><time>2026-04-04T14:22:49Z</time></trkpt><trkpt lat="42.80550230778348" lon="12.219955245885723"><ele>695.0</ele><time>2026-04-04T14:22:50Z</time></trkpt><trkpt lat="42.80540736914313" lon="12.219884385585"><ele>695.0</ele><time>2026-04-04T14:22:51Z</time></trkpt><trkpt lat="42.80531758169933" lon="12.219816979241394"><ele>695.0</ele><time>2026-04-04T14:22:52Z</time></trkpt><trkpt lat="42.80522671559442" lon="12.219744783351738"><ele>695.0</ele><time>2026-04-04T14:22:53Z</time></trkpt><trkpt lat="42.805136559466476" lon="12.21967417938951"><ele>697.2</ele><time>2026-04-04T14:22:54Z</time></trkpt><trkpt lat="42.805028393123955" lon="12.219587346331373"><ele>699.4</ele><time>2026-04-04T14:22:55Z</time></trkpt><trkpt lat="42.80493422009739" lon="12.219539480564455"><ele>701.5999999999999</ele><time>2026-04-04T14:22:56Z</time></trkpt><trkpt lat="42.80484153172177" lon="12.21948761632578"><ele>703.8</ele><time>2026-04-04T14:22:57Z</time></trkpt><trkpt lat="42.80474982579608" lon="12.219434435512502"><ele>706.0</ele><time>2026-04-04T14:22:58Z</time></trkpt><trkpt lat="42.80466777960381" lon="12.219356868306424"><ele>706.0</ele><time>2026-04-04T14:22:59Z</time></trkpt><trkpt lat="42.80457001492672" lon="12.219311171298804"><ele>706.0</ele><time>2026-04-04T14:23:00Z</time></trkpt><trkpt lat="42.80447990522337" lon="12.219239291131846"><ele>706.0</ele><time>2026-04-04T14:23:01Z</time></trkpt><trkpt lat="42.80438956210729" lon="12.219164947918822"><ele>706.0</ele><time>2026-04-04T14:23:02Z</time></trkpt><trkpt lat="42.804300509693974" lon="12.219089614076351"><ele>706.0</ele><time>2026-04-04T14:23:03Z</time></trkpt><trkpt lat="42.80422231025463" lon="12.219044487630988"><ele>708.8</ele><time>2026-04-04T14:23:04Z</time></trkpt><trkpt lat="42.80414857873125" lon="12.218977177457804"><ele>711.5999999999999</ele><time>2026-04-04T14:23:05Z</time></trkpt><trkpt lat="42.804073157698646" lon="12.218914226772279"><ele>714.4</ele><time>2026-04-04T14:23:07Z</time></trkpt><trkpt lat="42.804012944940006" lon="12.218810597140093"><ele>717.2</ele><time>2026-04-04T14:23:09Z</time></trkpt><trkpt lat="42.80405065512238" lon="12.218689541691768"><ele>720.0</ele><time>2026-04-04T14:23:10Z</time></trkpt><trkpt lat="42.80402352624431" lon="12.218535914162656"><ele>720.0</ele><time>2026-04-04T14:23:12Z</time></trkpt><trkpt lat="42.803995860977786" lon="12.21845122965178"><ele>720.0</ele><time>2026-04-04T14:23:13Z</time></trkpt><trkpt lat="42.803959786487894" lon="12.218341390859282"><ele>720.0</ele><time>2026-04-04T14:23:14Z</time></trkpt><trkpt lat="42.80394205453632" lon="12.218248192718153"><ele>720.0</ele><time>2026-04-04T14:23:15Z</time></trkpt><trkpt lat="42.80391549455188" lon="12.218149171373625"><ele>720.0</ele><time>2026-04-04T14:23:16Z</time></trkpt><trkpt lat="42.803893820013236" lon="12.2180568763032"><ele>720.0</ele><time>2026-04-04T14:23:17Z</time></trkpt><trkpt lat="42.803875329787445" lon="12.217964520745525"><ele>720.0</ele><time>2026-04-04T14:23:18Z</time></trkpt><trkpt lat="42.80386209637661" lon="12.217868654116092"><ele>721.3333333333334</ele><time>2026-04-04T14:23:19Z</time></trkpt><trkpt lat="42.80384813338895" lon="12.217750741909295"><ele>722.6666666666666</ele><time>2026-04-04T14:23:20Z</time></trkpt><trkpt lat="42.8038695940343" lon="12.217664544810962"><ele>724.0</ele><time>2026-04-04T14:23:21Z</time></trkpt><trkpt lat="42.80389527359808" lon="12.217557694000861"><ele>725.3333333333333</ele><time>2026-04-04T14:23:22Z</time></trkpt><trkpt lat="42.80391582118649" lon="12.21746526737021"><ele>726.6666666666666</ele><time>2026-04-04T14:23:23Z</time></trkpt><trkpt lat="42.803955445149825" lon="12.21739826426759"><ele>728.0</ele><time>2026-04-04T14:23:24Z</time></trkpt><trkpt lat="42.80404155869479" lon="12.21727220460578"><ele>728.1666666666666</ele><time>2026-04-04T14:23:26Z</time></trkpt><trkpt lat="42.80410074217819" lon="12.217199879386687"><ele>728.3333333333333</ele><time>2026-04-04T14:23:27Z</time></trkpt><trkpt lat="42.804153751367515" lon="12.217127403075201"><ele>728.5</ele><time>2026-04-04T14:23:28Z</time></trkpt><trkpt lat="42.804202821003564" lon="12.217044972614282"><ele>728.6666666666666</ele><time>2026-04-04T14:23:29Z</time></trkpt><trkpt lat="42.80425417577465" lon="12.216975875704888"><ele>728.8333333333334</ele><time>2026-04-04T14:23:30Z</time></trkpt><trkpt lat="42.80428800688729" lon="12.216876712242945"><ele>729.0</ele><time>2026-04-04T14:23:31Z</time></trkpt><trkpt lat="42.80431432320727" lon="12.216768153365873"><ele>729.0</ele><time>2026-04-04T14:23:32Z</time></trkpt><trkpt lat="42.804316596010345" lon="12.216655357895915"><ele>729.0</ele><time>2026-04-04T14:23:33Z</time></trkpt><trkpt lat="42.804304025764836" lon="12.216558378605859"><ele>729.0</ele><time>2026-04-04T14:23:34Z</time></trkpt><trkpt lat="42.804306951407476" lon="12.21644899188814"><ele>729.0</ele><time>2026-04-04T14:23:35Z</time></trkpt><trkpt lat="42.80431060174338" lon="12.216339577672185"><ele>729.0</ele><time>2026-04-04T14:23:36Z</time></trkpt><trkpt lat="42.80432603184258" lon="12.216223080788659"><ele>729.0</ele><time>2026-04-04T14:23:37Z</time></trkpt><trkpt lat="42.804345667754" lon="12.216093201365243"><ele>728.5</ele><time>2026-04-04T14:23:38Z</time></trkpt><trkpt lat="42.804365458964575" lon="12.215979096309788"><ele>728.0</ele><time>2026-04-04T14:23:39Z</time></trkpt><trkpt lat="42.804386289956774" lon="12.215871198776702"><ele>727.5</ele><time>2026-04-04T14:23:40Z</time></trkpt><trkpt lat="42.80441104119777" lon="12.215775531872834"><ele>727.0</ele><time>2026-04-04T14:23:41Z</time></trkpt><trkpt lat="42.80443778226814" lon="12.215688142191809"><ele>726.5</ele><time>2026-04-04T14:23:42Z</time></trkpt><trkpt lat="42.80449937575938" lon="12.215552258997336"><ele>726.0</ele><time>2026-04-04T14:23:44Z</time></trkpt><trkpt lat="42.80458388842357" lon="12.215450739596463"><ele>727.5</ele><time>2026-04-04T14:23:46Z</time></trkpt><trkpt lat="42.80467374316698" lon="12.215394922922348"><ele>729.0</ele><time>2026-04-04T14:23:48Z</time></trkpt><trkpt lat="42.80476551406688" lon="12.215354564776352"><ele>730.5</ele><time>2026-04-04T14:23:50Z</time></trkpt><trkpt lat="42.80486264141246" lon="12.215318639775585"><ele>732.0</ele><time>2026-04-04T14:23:52Z</time></trkpt><trkpt lat="42.804924634179336" lon="12.215295710097076"><ele>733.5</ele><time>2026-04-04T14:23:53Z</time></trkpt><trkpt lat="42.80499253622687" lon="12.215247301246862"><ele>735.0</ele><time>2026-04-04T14:23:54Z</time></trkpt><trkpt lat="42.80509377791336" lon="12.215232291477296"><ele>734.8333333333334</ele><time>2026-04-04T14:23:55Z</time></trkpt><trkpt lat="42.80517919121864" lon="12.215201000325667"><ele>734.6666666666666</ele><time>2026-04-04T14:23:56Z</time></trkpt><trkpt lat="42.80525796923502" lon="12.215169645169167"><ele>734.5</ele><time>2026-04-04T14:23:57Z</time></trkpt><trkpt lat="42.80534258112954" lon="12.215132578017624"><ele>734.3333333333333</ele><time>2026-04-04T14:23:58Z</time></trkpt><trkpt lat="42.80541935704895" lon="12.21508862542013"><ele>734.1666666666666</ele><time>2026-04-04T14:23:59Z</time></trkpt><trkpt lat="42.805475098099" lon="12.215034272778018"><ele>734.0</ele><time>2026-04-04T14:24:00Z</time></trkpt><trkpt lat="42.80558835843467" lon="12.214948130575232"><ele>734.0</ele><time>2026-04-04T14:24:02Z</time></trkpt><trkpt lat="42.8056486403603" lon="12.214903640032125"><ele>734.0</ele><time>2026-04-04T14:24:03Z</time></trkpt><trkpt lat="42.805747711156116" lon="12.214775784119544"><ele>734.0</ele><time>2026-04-04T14:24:05Z</time></trkpt><trkpt lat="42.80578461537508" lon="12.21469353251798"><ele>734.0</ele><time>2026-04-04T14:24:06Z</time></trkpt><trkpt lat="42.8058093541013" lon="12.214567643310343"><ele>734.0</ele><time>2026-04-04T14:24:07Z</time></trkpt><trkpt lat="42.80582429497585" lon="12.214475003646394"><ele>734.0</ele><time>2026-04-04T14:24:08Z</time></trkpt><trkpt lat="42.80583824152043" lon="12.214388763887039"><ele>733.8000000000001</ele><time>2026-04-04T14:24:09Z</time></trkpt><trkpt lat="42.80585331461712" lon="12.214305384221204"><ele>733.6</ele><time>2026-04-04T14:24:10Z</time></trkpt><trkpt lat="42.80589603428704" lon="12.214148639987508"><ele>733.4</ele><time>2026-04-04T14:24:12Z</time></trkpt><trkpt lat="42.80596424278694" lon="12.21401598218957"><ele>733.2</ele><time>2026-04-04T14:24:14Z</time></trkpt><trkpt lat="42.8060500813563" lon="12.213896882812165"><ele>733.0</ele><time>2026-04-04T14:24:16Z</time></trkpt><trkpt lat="42.806117913947524" lon="12.213799111392428"><ele>733.0</ele><time>2026-04-04T14:24:18Z</time></trkpt><trkpt lat="42.8061890560705" lon="12.213679074410889"><ele>733.0</ele><time>2026-04-04T14:24:20Z</time></trkpt><trkpt lat="42.806235763154916" lon="12.213514207180422"><ele>733.0</ele><time>2026-04-04T14:24:22Z</time></trkpt><trkpt lat="42.80624663058152" lon="12.213412727165554"><ele>733.0</ele><time>2026-04-04T14:24:23Z</time></trkpt><trkpt lat="42.8062698229733" lon="12.213257504549611"><ele>733.0</ele><time>2026-04-04T14:24:25Z</time></trkpt><trkpt lat="42.806346988283295" lon="12.213129663460426"><ele>732.5999999999999</ele><time>2026-04-04T14:24:27Z</time></trkpt><trkpt lat="42.80644536847335" lon="12.213052988427663"><ele>732.1999999999999</ele><time>2026-04-04T14:24:29Z</time></trkpt><trkpt lat="42.80651408488013" lon="12.213008906465216"><ele>731.8</ele><time>2026-04-04T14:24:31Z</time></trkpt><trkpt lat="42.80657572498901" lon="12.21298659742733"><ele>731.4</ele><time>2026-04-04T14:24:52Z</time></trkpt><trkpt lat="42.80667325870594" lon="12.212944215319293"><ele>731.0</ele><time>2026-04-04T14:24:55Z</time></trkpt><trkpt lat="42.80677195822764" lon="12.212907740475686"><ele>734.6666666666666</ele><time>2026-04-04T14:24:57Z</time></trkpt><trkpt lat="42.806888316401" lon="12.212864739703852"><ele>738.3333333333334</ele><time>2026-04-04T14:24:59Z</time></trkpt><trkpt lat="42.806999472110114" lon="12.21280465292625"><ele>742.0</ele><time>2026-04-04T14:25:01Z</time></trkpt><trkpt lat="42.807273477021205" lon="12.21324655232389"><ele>742.0</ele><time>2026-04-04T14:25:04Z</time></trkpt><trkpt lat="42.8073391955752" lon="12.21328259248862"><ele>742.0</ele><time>2026-04-04T14:25:05Z</time></trkpt><trkpt lat="42.807414183948985" lon="12.213312993935592"><ele>742.0</ele><time>2026-04-04T14:25:06Z</time></trkpt><trkpt lat="42.80747928066595" lon="12.213350177943727"><ele>742.0</ele><time>2026-04-04T14:25:07Z</time></trkpt><trkpt lat="42.80759656857282" lon="12.21337571389509"><ele>742.0</ele><time>2026-04-04T14:25:09Z</time></trkpt><trkpt lat="42.80771258815375" lon="12.213340444980483"><ele>743.3333333333334</ele><time>2026-04-04T14:25:11Z</time></trkpt><trkpt lat="42.80781773256299" lon="12.213354915915975"><ele>744.6666666666667</ele><time>2026-04-04T14:25:13Z</time></trkpt><trkpt lat="42.80790542677065" lon="12.213314897349584"><ele>746.0</ele><time>2026-04-04T14:25:16Z</time></trkpt><trkpt lat="42.80794872087143" lon="12.213233073750736"><ele>747.3333333333334</ele><time>2026-04-04T14:25:18Z</time></trkpt><trkpt lat="42.80799969936388" lon="12.213164933543224"><ele>748.6666666666666</ele><time>2026-04-04T14:25:19Z</time></trkpt><trkpt lat="42.80805395378483" lon="12.21311134777575"><ele>750.0</ele><time>2026-04-04T14:25:20Z</time></trkpt><trkpt lat="42.80810945204393" lon="12.213060739505265"><ele>751.2</ele><time>2026-04-04T14:25:21Z</time></trkpt><trkpt lat="42.80817664950355" lon="12.213015442828672"><ele>752.4</ele><time>2026-04-04T14:25:22Z</time></trkpt><trkpt lat="42.80827563917189" lon="12.212976413423586"><ele>753.5999999999999</ele><time>2026-04-04T14:25:24Z</time></trkpt><trkpt lat="42.808390189090375" lon="12.212962458004808"><ele>754.8</ele><time>2026-04-04T14:25:26Z</time></trkpt><trkpt lat="42.808509074373255" lon="12.212961120677008"><ele>756.0</ele><time>2026-04-04T14:25:28Z</time></trkpt><trkpt lat="42.8085626103364" lon="12.212906289873583"><ele>756.0</ele><time>2026-04-04T14:25:29Z</time></trkpt><trkpt lat="42.80867785128866" lon="12.212886510379743"><ele>756.0</ele><time>2026-04-04T14:25:31Z</time></trkpt><trkpt lat="42.80876439148241" lon="12.212837080708594"><ele>756.0</ele><time>2026-04-04T14:25:33Z</time></trkpt><trkpt lat="42.80881459922981" lon="12.212743597324177"><ele>756.0</ele><time>2026-04-04T14:25:35Z</time></trkpt><trkpt lat="42.808781472080305" lon="12.212654422459517"><ele>756.0</ele><time>2026-04-04T14:25:36Z</time></trkpt><trkpt lat="42.80879863115035" lon="12.212555831489828"><ele>756.0</ele><time>2026-04-04T14:25:37Z</time></trkpt><trkpt lat="42.80884175576331" lon="12.21247894626115"><ele>756.0</ele><time>2026-04-04T14:25:38Z</time></trkpt><trkpt lat="42.8088519535446" lon="12.212335478990502"><ele>756.0</ele><time>2026-04-04T14:25:40Z</time></trkpt><trkpt lat="42.80891340483669" lon="12.21225692957276"><ele>756.0</ele><time>2026-04-04T14:25:41Z</time></trkpt><trkpt lat="42.80896045698499" lon="12.212195286547452"><ele>756.0</ele><time>2026-04-04T14:25:42Z</time></trkpt><trkpt lat="42.808988334703166" lon="12.212078004418194"><ele>756.0</ele><time>2026-04-04T14:25:44Z</time></trkpt><trkpt lat="42.8090268184595" lon="12.21193102400612"><ele>756.0</ele><time>2026-04-04T14:25:46Z</time></trkpt><trkpt lat="42.80903802944542" lon="12.211812281202834"><ele>756.0</ele><time>2026-04-04T14:25:48Z</time></trkpt><trkpt lat="42.809077083022416" lon="12.211735153388798"><ele>756.0</ele><time>2026-04-04T14:25:52Z</time></trkpt><trkpt lat="42.80913376046245" lon="12.211676466373316"><ele>756.0</ele><time>2026-04-04T14:25:55Z</time></trkpt><trkpt lat="42.809201903962126" lon="12.211673708312116"><ele>756.0</ele><time>2026-04-04T14:25:57Z</time></trkpt><trkpt lat="42.809316071170265" lon="12.211675819084098"><ele>756.0</ele><time>2026-04-04T14:25:59Z</time></trkpt><trkpt lat="42.80938990683305" lon="12.211706629261435"><ele>756.5999999999999</ele><time>2026-04-04T14:26:00Z</time></trkpt><trkpt lat="42.809459127263544" lon="12.211752424089678"><ele>757.2</ele><time>2026-04-04T14:26:01Z</time></trkpt><trkpt lat="42.80955127635531" lon="12.211800674874816"><ele>757.8</ele><time>2026-04-04T14:26:02Z</time></trkpt><trkpt lat="42.80965996223185" lon="12.211857292420495"><ele>758.4000000000001</ele><time>2026-04-04T14:26:03Z</time></trkpt><trkpt lat="42.80980562534477" lon="12.211913184969703"><ele>759.0</ele><time>2026-04-04T14:26:04Z</time></trkpt><trkpt lat="42.809954183449996" lon="12.211988003729056"><ele>759.0</ele><time>2026-04-04T14:26:05Z</time></trkpt><trkpt lat="42.81009805800511" lon="12.212025202431954"><ele>759.0</ele><time>2026-04-04T14:26:06Z</time></trkpt><trkpt lat="42.81027743957936" lon="12.212039808148676"><ele>759.0</ele><time>2026-04-04T14:26:07Z</time></trkpt><trkpt lat="42.81045678377597" lon="12.212021932350567"><ele>760.3333333333334</ele><time>2026-04-04T14:26:08Z</time></trkpt><trkpt lat="42.810620659083554" lon="12.211984528431303"><ele>761.6666666666667</ele><time>2026-04-04T14:26:09Z</time></trkpt><trkpt lat="42.810780231075874" lon="12.211935870053765"><ele>763.0</ele><time>2026-04-04T14:26:10Z</time></trkpt><trkpt lat="42.81091937129449" lon="12.211905021625187"><ele>762.0</ele><time>2026-04-04T14:26:11Z</time></trkpt><trkpt lat="42.81106237205219" lon="12.21191657323769"><ele>761.0</ele><time>2026-04-04T14:26:12Z</time></trkpt><trkpt lat="42.811202180198734" lon="12.211962792147887"><ele>760.0</ele><time>2026-04-04T14:26:13Z</time></trkpt><trkpt lat="42.81133140515921" lon="12.212047575464798"><ele>759.0</ele><time>2026-04-04T14:26:14Z</time></trkpt><trkpt lat="42.81145903601789" lon="12.212166458518373"><ele>759.0</ele><time>2026-04-04T14:26:15Z</time></trkpt><trkpt lat="42.81156912125587" lon="12.212300551702636"><ele>759.0</ele><time>2026-04-04T14:26:16Z</time></trkpt><trkpt lat="42.81165604541807" lon="12.212447742908271"><ele>759.0</ele><time>2026-04-04T14:26:17Z</time></trkpt><trkpt lat="42.811712634064385" lon="12.212600225965977"><ele>759.0</ele><time>2026-04-04T14:26:18Z</time></trkpt><trkpt lat="42.811751015962706" lon="12.212761869617669"><ele>760.0</ele><time>2026-04-04T14:26:19Z</time></trkpt><trkpt lat="42.81175537349617" lon="12.212914589551604"><ele>761.0</ele><time>2026-04-04T14:26:20Z</time></trkpt><trkpt lat="42.81172144838658" lon="12.213062339516751"><ele>762.0</ele><time>2026-04-04T14:26:21Z</time></trkpt><trkpt lat="42.81166045646505" lon="12.21320210152692"><ele>763.0</ele><time>2026-04-04T14:26:22Z</time></trkpt><trkpt lat="42.81159262519276" lon="12.213349051842675"><ele>764.25</ele><time>2026-04-04T14:26:23Z</time></trkpt><trkpt lat="42.81153079621682" lon="12.213508893373373"><ele>765.5</ele><time>2026-04-04T14:26:24Z</time></trkpt><trkpt lat="42.81148556352245" lon="12.213664628245814"><ele>766.75</ele><time>2026-04-04T14:26:25Z</time></trkpt><trkpt lat="42.81146192557661" lon="12.213805700490553"><ele>768.0</ele><time>2026-04-04T14:26:26Z</time></trkpt><trkpt lat="42.811461997403974" lon="12.213946705713855"><ele>768.75</ele><time>2026-04-04T14:26:27Z</time></trkpt><trkpt lat="42.81148465578423" lon="12.214105099635605"><ele>769.5</ele><time>2026-04-04T14:26:28Z</time></trkpt><trkpt lat="42.811512442265176" lon="12.214289531819585"><ele>770.25</ele><time>2026-04-04T14:26:29Z</time></trkpt><trkpt lat="42.81155758001634" lon="12.214463208396618"><ele>771.0</ele><time>2026-04-04T14:26:30Z</time></trkpt><trkpt lat="42.8116067899142" lon="12.214646468335031"><ele>771.0</ele><time>2026-04-04T14:26:31Z</time></trkpt><trkpt lat="42.811652756973665" lon="12.214829290731874"><ele>771.0</ele><time>2026-04-04T14:26:32Z</time></trkpt><trkpt lat="42.811707538577515" lon="12.215024727000088"><ele>771.0</ele><time>2026-04-04T14:26:33Z</time></trkpt><trkpt lat="42.81174974804503" lon="12.215221429570494"><ele>771.0</ele><time>2026-04-04T14:26:34Z</time></trkpt><trkpt lat="42.81177878729624" lon="12.215395645523449"><ele>772.5</ele><time>2026-04-04T14:26:35Z</time></trkpt><trkpt lat="42.811832927506295" lon="12.215557003934256"><ele>774.0</ele><time>2026-04-04T14:26:36Z</time></trkpt><trkpt lat="42.81193561960444" lon="12.215709764679913"><ele>775.5</ele><time>2026-04-04T14:26:37Z</time></trkpt><trkpt lat="42.8120672144382" lon="12.215844961807333"><ele>777.0</ele><time>2026-04-04T14:26:38Z</time></trkpt><trkpt lat="42.812219436423476" lon="12.215946884848208"><ele>777.0</ele><time>2026-04-04T14:26:39Z</time></trkpt><trkpt lat="42.81237594324463" lon="12.216010244428642"><ele>777.0</ele><time>2026-04-04T14:26:40Z</time></trkpt><trkpt lat="42.812540216060505" lon="12.216039983257549"><ele>777.0</ele><time>2026-04-04T14:26:41Z</time></trkpt><trkpt lat="42.812714248016015" lon="12.216048271253065"><ele>776.6666666666667</ele><time>2026-04-04T14:26:42Z</time></trkpt><trkpt lat="42.81289971975038" lon="12.21603759308117"><ele>776.3333333333334</ele><time>2026-04-04T14:26:43Z</time></trkpt><trkpt lat="42.813058743054256" lon="12.216013408617528"><ele>776.0</ele><time>2026-04-04T14:26:44Z</time></trkpt><trkpt lat="42.81319866136503" lon="12.21595579347913"><ele>776.0</ele><time>2026-04-04T14:26:45Z</time></trkpt><trkpt lat="42.81332026434897" lon="12.215850759256655"><ele>776.0</ele><time>2026-04-04T14:26:46Z</time></trkpt><trkpt lat="42.81342213655618" lon="12.215700064234102"><ele>776.0</ele><time>2026-04-04T14:26:47Z</time></trkpt><trkpt lat="42.81352163998051" lon="12.215514660372845"><ele>775.0</ele><time>2026-04-04T14:26:48Z</time></trkpt><trkpt lat="42.81361033736413" lon="12.215307205492206"><ele>774.0</ele><time>2026-04-04T14:26:49Z</time></trkpt><trkpt lat="42.813677984050344" lon="12.215100822941144"><ele>773.0</ele><time>2026-04-04T14:26:50Z</time></trkpt><trkpt lat="42.81372626703516" lon="12.214872326420844"><ele>776.3333333333334</ele><time>2026-04-04T14:26:51Z</time></trkpt><trkpt lat="42.813745885665625" lon="12.214619852537938"><ele>779.6666666666667</ele><time>2026-04-04T14:26:52Z</time></trkpt><trkpt lat="42.81375369593931" lon="12.214357839586626"><ele>783.0</ele><time>2026-04-04T14:26:53Z</time></trkpt><trkpt lat="42.813775190576216" lon="12.214112220781377"><ele>784.25</ele><time>2026-04-04T14:26:54Z</time></trkpt><trkpt lat="42.813812298581475" lon="12.213910145541062"><ele>785.5</ele><time>2026-04-04T14:26:55Z</time></trkpt><trkpt lat="42.813859792504296" lon="12.213752628290628"><ele>786.75</ele><time>2026-04-04T14:26:56Z</time></trkpt><trkpt lat="42.81392996897321" lon="12.213625118721268"><ele>788.0</ele><time>2026-04-04T14:26:57Z</time></trkpt><trkpt lat="42.8140330610572" lon="12.213554311017957"><ele>788.0</ele><time>2026-04-04T14:26:58Z</time></trkpt><trkpt lat="42.81413841689509" lon="12.213532604889254"><ele>788.0</ele><time>2026-04-04T14:26:59Z</time></trkpt><trkpt lat="42.814265993302776" lon="12.213565148333213"><ele>788.0</ele><time>2026-04-04T14:27:00Z</time></trkpt><trkpt lat="42.814388329232806" lon="12.213582330350606"><ele>788.0</ele><time>2026-04-04T14:27:01Z</time></trkpt><trkpt lat="42.81451501149672" lon="12.213560709640788"><ele>788.25</ele><time>2026-04-04T14:27:02Z</time></trkpt><trkpt lat="42.81463991241109" lon="12.213491892014277"><ele>788.5</ele><time>2026-04-04T14:27:03Z</time></trkpt><trkpt lat="42.81474934626965" lon="12.213364473381803"><ele>788.75</ele><time>2026-04-04T14:27:04Z</time></trkpt><trkpt lat="42.81485335872974" lon="12.213205147546821"><ele>789.0</ele><time>2026-04-04T14:27:05Z</time></trkpt><trkpt lat="42.814945712885276" lon="12.213030872484882"><ele>789.0</ele><time>2026-04-04T14:27:06Z</time></trkpt><trkpt lat="42.81502606000199" lon="12.212849044228768"><ele>789.0</ele><time>2026-04-04T14:27:07Z</time></trkpt><trkpt lat="42.81510069874636" lon="12.212661413268536"><ele>789.0</ele><time>2026-04-04T14:27:08Z</time></trkpt><trkpt lat="42.815162611430786" lon="12.212466532046408"><ele>788.6666666666667</ele><time>2026-04-04T14:27:09Z</time></trkpt><trkpt lat="42.81522637769743" lon="12.212252747693455"><ele>788.3333333333334</ele><time>2026-04-04T14:27:10Z</time></trkpt><trkpt lat="42.81530383706752" lon="12.212060613431763"><ele>788.0</ele><time>2026-04-04T14:27:11Z</time></trkpt><trkpt lat="42.81536870776349" lon="12.211877481513092"><ele>788.0</ele><time>2026-04-04T14:27:12Z</time></trkpt><trkpt lat="42.815448068731385" lon="12.21171104764093"><ele>788.0</ele><time>2026-04-04T14:27:13Z</time></trkpt><trkpt lat="42.81554652700365" lon="12.211560558771547"><ele>788.0</ele><time>2026-04-04T14:27:14Z</time></trkpt><trkpt lat="42.815651737479996" lon="12.211421296831961"><ele>788.0</ele><time>2026-04-04T14:27:15Z</time></trkpt><trkpt lat="42.81574998529929" lon="12.211294934836218"><ele>790.25</ele><time>2026-04-04T14:27:16Z</time></trkpt><trkpt lat="42.815835179664724" lon="12.211174588595513"><ele>792.5</ele><time>2026-04-04T14:27:17Z</time></trkpt><trkpt lat="42.81593582829056" lon="12.211110966830162"><ele>794.75</ele><time>2026-04-04T14:27:18Z</time></trkpt><trkpt lat="42.81604330104962" lon="12.21110059753378"><ele>797.0</ele><time>2026-04-04T14:27:19Z</time></trkpt><trkpt lat="42.81615384248746" lon="12.211142293679563"><ele>798.0</ele><time>2026-04-04T14:27:20Z</time></trkpt><trkpt lat="42.81627124018424" lon="12.211233204559223"><ele>799.0</ele><time>2026-04-04T14:27:21Z</time></trkpt><trkpt lat="42.81640828633206" lon="12.211308484111223"><ele>800.0</ele><time>2026-04-04T14:27:22Z</time></trkpt><trkpt lat="42.81654616048185" lon="12.211361292572825"><ele>801.0</ele><time>2026-04-04T14:27:23Z</time></trkpt><trkpt lat="42.816684170237274" lon="12.211436442409774"><ele>801.0</ele><time>2026-04-04T14:27:24Z</time></trkpt><trkpt lat="42.8168215986165" lon="12.211517982358583"><ele>801.0</ele><time>2026-04-04T14:27:25Z</time></trkpt><trkpt lat="42.81695511132387" lon="12.211605855908722"><ele>801.0</ele><time>2026-04-04T14:27:26Z</time></trkpt><trkpt lat="42.817105375228415" lon="12.21168542161548"><ele>801.0</ele><time>2026-04-04T14:27:27Z</time></trkpt><trkpt lat="42.817261983780476" lon="12.211747688249389"><ele>801.0</ele><time>2026-04-04T14:27:28Z</time></trkpt><trkpt lat="42.81742678656798" lon="12.211830643782626"><ele>801.0</ele><time>2026-04-04T14:27:29Z</time></trkpt><trkpt lat="42.81758797574944" lon="12.211905322794824"><ele>803.0</ele><time>2026-04-04T14:27:30Z</time></trkpt><trkpt lat="42.81774484298588" lon="12.21197417829616"><ele>805.0</ele><time>2026-04-04T14:27:31Z</time></trkpt><trkpt lat="42.817904268874614" lon="12.21202985948095"><ele>807.0</ele><time>2026-04-04T14:27:32Z</time></trkpt><trkpt lat="42.81806843180701" lon="12.212050385780934"><ele>807.0</ele><time>2026-04-04T14:27:33Z</time></trkpt><trkpt lat="42.818234577151756" lon="12.212028682842226"><ele>807.0</ele><time>2026-04-04T14:27:34Z</time></trkpt><trkpt lat="42.818389956313496" lon="12.211977282227476"><ele>807.0</ele><time>2026-04-04T14:27:35Z</time></trkpt><trkpt lat="42.81853905129052" lon="12.211884456703821"><ele>803.6666666666667</ele><time>2026-04-04T14:27:36Z</time></trkpt><trkpt lat="42.8186910940143" lon="12.211769340282506"><ele>800.3333333333334</ele><time>2026-04-04T14:27:37Z</time></trkpt><trkpt lat="42.818853815728104" lon="12.211642945888883"><ele>797.0</ele><time>2026-04-04T14:27:38Z</time></trkpt><trkpt lat="42.8190071701627" lon="12.211537720269316"><ele>801.3333333333334</ele><time>2026-04-04T14:27:39Z</time></trkpt><trkpt lat="42.81916216341414" lon="12.211472007844467"><ele>805.6666666666667</ele><time>2026-04-04T14:27:40Z</time></trkpt><trkpt lat="42.8192987168413" lon="12.2113778829545"><ele>810.0</ele><time>2026-04-04T14:27:41Z</time></trkpt><trkpt lat="42.81944753694583" lon="12.211352175029555"><ele>810.0</ele><time>2026-04-04T14:27:42Z</time></trkpt><trkpt lat="42.819594109619885" lon="12.211336261322321"><ele>810.0</ele><time>2026-04-04T14:27:43Z</time></trkpt><trkpt lat="42.81974540678328" lon="12.211386781548473"><ele>810.0</ele><time>2026-04-04T14:27:44Z</time></trkpt><trkpt lat="42.81987394598397" lon="12.211493466870612"><ele>810.0</ele><time>2026-04-04T14:27:45Z</time></trkpt><trkpt lat="42.8199976826224" lon="12.211605734028993"><ele>810.0</ele><time>2026-04-04T14:27:46Z</time></trkpt><trkpt lat="42.82014440198522" lon="12.211743227363952"><ele>810.0</ele><time>2026-04-04T14:27:47Z</time></trkpt><trkpt lat="42.82028894151301" lon="12.211877201453186"><ele>810.0</ele><time>2026-04-04T14:27:48Z</time></trkpt><trkpt lat="42.82043699210469" lon="12.21199497769856"><ele>810.0</ele><time>2026-04-04T14:27:49Z</time></trkpt><trkpt lat="42.820596413796686" lon="12.212103024881209"><ele>810.0</ele><time>2026-04-04T14:27:50Z</time></trkpt><trkpt lat="42.82077194624872" lon="12.21219407536367"><ele>810.0</ele><time>2026-04-04T14:27:51Z</time></trkpt><trkpt lat="42.82094586686507" lon="12.212264645528244"><ele>810.0</ele><time>2026-04-04T14:27:52Z</time></trkpt><trkpt lat="42.82111030898587" lon="12.212319473452464"><ele>810.0</ele><time>2026-04-04T14:27:53Z</time></trkpt><trkpt lat="42.82126668032311" lon="12.212369653012528"><ele>810.3333333333333</ele><time>2026-04-04T14:27:54Z</time></trkpt><trkpt lat="42.82143528772874" lon="12.212365347420938"><ele>810.6666666666666</ele><time>2026-04-04T14:27:55Z</time></trkpt><trkpt lat="42.821614967884784" lon="12.212327303841656"><ele>811.0</ele><time>2026-04-04T14:27:56Z</time></trkpt><trkpt lat="42.821784701009946" lon="12.21222565870745"><ele>810.0</ele><time>2026-04-04T14:27:57Z</time></trkpt><trkpt lat="42.821966226385086" lon="12.212134175299123"><ele>809.0</ele><time>2026-04-04T14:27:58Z</time></trkpt><trkpt lat="42.822143372968306" lon="12.212072895753268"><ele>808.0</ele><time>2026-04-04T14:27:59Z</time></trkpt><trkpt lat="42.82231394872258" lon="12.212039087779761"><ele>808.0</ele><time>2026-04-04T14:28:00Z</time></trkpt><trkpt lat="42.82248632579098" lon="12.212008716067652"><ele>808.0</ele><time>2026-04-04T14:28:01Z</time></trkpt><trkpt lat="42.82264705549601" lon="12.211978234165118"><ele>808.0</ele><time>2026-04-04T14:28:02Z</time></trkpt><trkpt lat="42.8228013714059" lon="12.211941039917873"><ele>806.0</ele><time>2026-04-04T14:28:03Z</time></trkpt><trkpt lat="42.82294452440124" lon="12.21190994906739"><ele>804.0</ele><time>2026-04-04T14:28:04Z</time></trkpt><trkpt lat="42.82306348629989" lon="12.211879446446227"><ele>802.0</ele><time>2026-04-04T14:28:05Z</time></trkpt><trkpt lat="42.82315480156594" lon="12.211943182373881"><ele>800.0</ele><time>2026-04-04T14:28:06Z</time></trkpt><trkpt lat="42.82323737046657" lon="12.212028238034758"><ele>800.0</ele><time>2026-04-04T14:28:07Z</time></trkpt><trkpt lat="42.82330039195121" lon="12.212162683018338"><ele>800.0</ele><time>2026-04-04T14:28:08Z</time></trkpt><trkpt lat="42.82336394778776" lon="12.212319043972805"><ele>800.0</ele><time>2026-04-04T14:28:09Z</time></trkpt><trkpt lat="42.82342633551244" lon="12.212479185388839"><ele>800.0</ele><time>2026-04-04T14:28:10Z</time></trkpt><trkpt lat="42.82349927044539" lon="12.212629098469565"><ele>801.0</ele><time>2026-04-04T14:28:11Z</time></trkpt><trkpt lat="42.82360679082394" lon="12.212768592487036"><ele>802.0</ele><time>2026-04-04T14:28:12Z</time></trkpt><trkpt lat="42.8237352689937" lon="12.212882903515752"><ele>803.0</ele><time>2026-04-04T14:28:13Z</time></trkpt><trkpt lat="42.82387344672496" lon="12.212990315729305"><ele>803.0</ele><time>2026-04-04T14:28:14Z</time></trkpt><trkpt lat="42.82399767689429" lon="12.213093824123769"><ele>803.0</ele><time>2026-04-04T14:28:15Z</time></trkpt><trkpt lat="42.8240961436456" lon="12.21320754032199"><ele>803.0</ele><time>2026-04-04T14:28:16Z</time></trkpt><trkpt lat="42.82417315480866" lon="12.213331329751261"><ele>803.0</ele><time>2026-04-04T14:28:17Z</time></trkpt><trkpt lat="42.82424305182803" lon="12.213451956830017"><ele>802.5</ele><time>2026-04-04T14:28:18Z</time></trkpt><trkpt lat="42.82431331310845" lon="12.213574754347476"><ele>802.0</ele><time>2026-04-04T14:28:19Z</time></trkpt><trkpt lat="42.8243936892361" lon="12.213691294446296"><ele>801.5</ele><time>2026-04-04T14:28:20Z</time></trkpt><trkpt lat="42.824489151410155" lon="12.213787446967958"><ele>801.0</ele><time>2026-04-04T14:28:21Z</time></trkpt><trkpt lat="42.82459480816017" lon="12.213830780662292"><ele>801.0</ele><time>2026-04-04T14:28:22Z</time></trkpt><trkpt lat="42.82469518015933" lon="12.21380795901229"><ele>801.0</ele><time>2026-04-04T14:28:23Z</time></trkpt><trkpt lat="42.824803442336645" lon="12.213757222003865"><ele>801.0</ele><time>2026-04-04T14:28:24Z</time></trkpt><trkpt lat="42.82492149279972" lon="12.213668265813181"><ele>801.0</ele><time>2026-04-04T14:28:25Z</time></trkpt><trkpt lat="42.82504180782189" lon="12.21357656682894"><ele>800.25</ele><time>2026-04-04T14:28:26Z</time></trkpt><trkpt lat="42.825162109813924" lon="12.213568275728026"><ele>799.5</ele><time>2026-04-04T14:28:27Z</time></trkpt><trkpt lat="42.825279859168894" lon="12.213584552036814"><ele>798.75</ele><time>2026-04-04T14:28:28Z</time></trkpt><trkpt lat="42.82540150420881" lon="12.21363200218181"><ele>798.0</ele><time>2026-04-04T14:28:29Z</time></trkpt><trkpt lat="42.82553438504682" lon="12.213715089974462"><ele>798.0</ele><time>2026-04-04T14:28:30Z</time></trkpt><trkpt lat="42.82565661275647" lon="12.21381403232164"><ele>798.0</ele><time>2026-04-04T14:28:31Z</time></trkpt><trkpt lat="42.82578207371798" lon="12.213887447341978"><ele>798.0</ele><time>2026-04-04T14:28:32Z</time></trkpt><trkpt lat="42.825893213654815" lon="12.213951064413296"><ele>798.0</ele><time>2026-04-04T14:28:33Z</time></trkpt><trkpt lat="42.826005820594695" lon="12.21398985328802"><ele>794.25</ele><time>2026-04-04T14:28:34Z</time></trkpt><trkpt lat="42.82612841476526" lon="12.213926353924801"><ele>790.5</ele><time>2026-04-04T14:28:35Z</time></trkpt><trkpt lat="42.82624548844706" lon="12.213835962926142"><ele>786.75</ele><time>2026-04-04T14:28:36Z</time></trkpt><trkpt lat="42.82633544816314" lon="12.213698092393194"><ele>783.0</ele><time>2026-04-04T14:28:37Z</time></trkpt><trkpt lat="42.82641659488478" lon="12.213554107149136"><ele>783.0</ele><time>2026-04-04T14:28:38Z</time></trkpt><trkpt lat="42.82650475784715" lon="12.2134183615803"><ele>783.0</ele><time>2026-04-04T14:28:39Z</time></trkpt><trkpt lat="42.82659734113291" lon="12.213344683304754"><ele>783.0</ele><time>2026-04-04T14:28:40Z</time></trkpt><trkpt lat="42.82667375150691" lon="12.213262834505871"><ele>783.0</ele><time>2026-04-04T14:28:41Z</time></trkpt><trkpt lat="42.82676274949369" lon="12.213262903377936"><ele>783.0</ele><time>2026-04-04T14:28:42Z</time></trkpt><trkpt lat="42.826844707153455" lon="12.21331916667892"><ele>781.0</ele><time>2026-04-04T14:28:43Z</time></trkpt><trkpt lat="42.826919705984864" lon="12.213438735222185"><ele>779.0</ele><time>2026-04-04T14:28:44Z</time></trkpt><trkpt lat="42.826974964206734" lon="12.213609028655434"><ele>777.0</ele><time>2026-04-04T14:28:45Z</time></trkpt><trkpt lat="42.82704053869749" lon="12.213754677386428"><ele>775.0</ele><time>2026-04-04T14:28:46Z</time></trkpt><trkpt lat="42.82713953793987" lon="12.213859612884942"><ele>775.0</ele><time>2026-04-04T14:28:47Z</time></trkpt><trkpt lat="42.8272626668903" lon="12.213909459273838"><ele>775.0</ele><time>2026-04-04T14:28:48Z</time></trkpt><trkpt lat="42.82740180070786" lon="12.213910367581702"><ele>775.0</ele><time>2026-04-04T14:28:49Z</time></trkpt><trkpt lat="42.827544071150186" lon="12.213855184531756"><ele>775.0</ele><time>2026-04-04T14:28:50Z</time></trkpt><trkpt lat="42.827648348645326" lon="12.213776377285814"><ele>770.25</ele><time>2026-04-04T14:28:51Z</time></trkpt><trkpt lat="42.82772528497513" lon="12.213657325027379"><ele>765.5</ele><time>2026-04-04T14:28:52Z</time></trkpt><trkpt lat="42.827779415162816" lon="12.213525491063578"><ele>760.75</ele><time>2026-04-04T14:28:53Z</time></trkpt><trkpt lat="42.82775339443096" lon="12.213359058494493"><ele>756.0</ele><time>2026-04-04T14:28:54Z</time></trkpt><trkpt lat="42.82770669771329" lon="12.213189808538537"><ele>757.0</ele><time>2026-04-04T14:28:55Z</time></trkpt><trkpt lat="42.827679822581516" lon="12.213001919411184"><ele>758.0</ele><time>2026-04-04T14:28:56Z</time></trkpt><trkpt lat="42.82767205126054" lon="12.212836818406455"><ele>759.0</ele><time>2026-04-04T14:28:57Z</time></trkpt><trkpt lat="42.82770130808028" lon="12.212699275685216"><ele>760.0</ele><time>2026-04-04T14:28:58Z</time></trkpt><trkpt lat="42.82776094498604" lon="12.212600463440388"><ele>760.0</ele><time>2026-04-04T14:28:59Z</time></trkpt><trkpt lat="42.82782801339568" lon="12.212506288421432"><ele>760.0</ele><time>2026-04-04T14:29:00Z</time></trkpt><trkpt lat="42.82792984136143" lon="12.212519441352892"><ele>760.0</ele><time>2026-04-04T14:29:01Z</time></trkpt><trkpt lat="42.828035509545444" lon="12.21249096925015"><ele>760.0</ele><time>2026-04-04T14:29:02Z</time></trkpt><trkpt lat="42.82813609546581" lon="12.212440833385553"><ele>760.0</ele><time>2026-04-04T14:29:03Z</time></trkpt><trkpt lat="42.82823035432216" lon="12.212425555809617"><ele>760.0</ele><time>2026-04-04T14:29:04Z</time></trkpt><trkpt lat="42.82831658208408" lon="12.212350703815053"><ele>760.0</ele><time>2026-04-04T14:29:05Z</time></trkpt><trkpt lat="42.82835708472759" lon="12.212215764934982"><ele>760.0</ele><time>2026-04-04T14:29:06Z</time></trkpt><trkpt lat="42.82836107807775" lon="12.21205165807051"><ele>760.0</ele><time>2026-04-04T14:29:07Z</time></trkpt><trkpt lat="42.82838948332393" lon="12.211914530198182"><ele>760.0</ele><time>2026-04-04T14:29:08Z</time></trkpt><trkpt lat="42.82844225919236" lon="12.21181787987655"><ele>756.2</ele><time>2026-04-04T14:29:09Z</time></trkpt><trkpt lat="42.82851848333631" lon="12.21177257786455"><ele>752.4</ele><time>2026-04-04T14:29:10Z</time></trkpt><trkpt lat="42.828596984029815" lon="12.21179535793273"><ele>748.5999999999999</ele><time>2026-04-04T14:29:11Z</time></trkpt><trkpt lat="42.82865428976699" lon="12.211868406565173"><ele>744.8</ele><time>2026-04-04T14:29:12Z</time></trkpt><trkpt lat="42.82868445214729" lon="12.2119945140343"><ele>741.0</ele><time>2026-04-04T14:29:13Z</time></trkpt><trkpt lat="42.82870606917009" lon="12.21215328973974"><ele>741.0</ele><time>2026-04-04T14:29:14Z</time></trkpt><trkpt lat="42.82876234901721" lon="12.212286830398963"><ele>741.0</ele><time>2026-04-04T14:29:15Z</time></trkpt><trkpt lat="42.82885959501756" lon="12.212405831382064"><ele>741.0</ele><time>2026-04-04T14:29:16Z</time></trkpt><trkpt lat="42.82897887094831" lon="12.212511607791637"><ele>741.0</ele><time>2026-04-04T14:29:17Z</time></trkpt><trkpt lat="42.82908420192234" lon="12.212633224869231"><ele>739.0</ele><time>2026-04-04T14:29:18Z</time></trkpt><trkpt lat="42.82918207403926" lon="12.212786423401926"><ele>737.0</ele><time>2026-04-04T14:29:19Z</time></trkpt><trkpt lat="42.82925405129191" lon="12.212967855127701"><ele>735.0</ele><time>2026-04-04T14:29:20Z</time></trkpt><trkpt lat="42.82936860000062" lon="12.213103321743409"><ele>737.3333333333334</ele><time>2026-04-04T14:29:21Z</time></trkpt><trkpt lat="42.829497467662264" lon="12.213215701594565"><ele>739.6666666666667</ele><time>2026-04-04T14:29:22Z</time></trkpt><trkpt lat="42.82964767703702" lon="12.213298042466883"><ele>742.0</ele><time>2026-04-04T14:29:23Z</time></trkpt><trkpt lat="42.8297955730857" lon="12.213385045685826"><ele>742.0</ele><time>2026-04-04T14:29:24Z</time></trkpt><trkpt lat="42.829922590863205" lon="12.213498479041219"><ele>742.0</ele><time>2026-04-04T14:29:25Z</time></trkpt><trkpt lat="42.83002483517418" lon="12.213648444076343"><ele>742.0</ele><time>2026-04-04T14:29:26Z</time></trkpt><trkpt lat="42.83012107013753" lon="12.213823184846301"><ele>741.75</ele><time>2026-04-04T14:29:27Z</time></trkpt><trkpt lat="42.83021985355647" lon="12.213975976988822"><ele>741.5</ele><time>2026-04-04T14:29:28Z</time></trkpt><trkpt lat="42.830329754092126" lon="12.214099501686507"><ele>741.25</ele><time>2026-04-04T14:29:29Z</time></trkpt><trkpt lat="42.830454696405766" lon="12.214181573296992"><ele>741.0</ele><time>2026-04-04T14:29:30Z</time></trkpt><trkpt lat="42.83059480424468" lon="12.214217155726573"><ele>741.0</ele><time>2026-04-04T14:29:31Z</time></trkpt><trkpt lat="42.83075073167041" lon="12.214207667442246"><ele>741.0</ele><time>2026-04-04T14:29:32Z</time></trkpt><trkpt lat="42.83091379568388" lon="12.214183268401237"><ele>741.0</ele><time>2026-04-04T14:29:33Z</time></trkpt><trkpt lat="42.83106876194479" lon="12.214214318770097"><ele>737.25</ele><time>2026-04-04T14:29:34Z</time></trkpt><trkpt lat="42.83121276852984" lon="12.21424100885644"><ele>733.5</ele><time>2026-04-04T14:29:35Z</time></trkpt><trkpt lat="42.83134335195881" lon="12.21427101022819"><ele>729.75</ele><time>2026-04-04T14:29:36Z</time></trkpt><trkpt lat="42.831453215087116" lon="12.214318916956813"><ele>726.0</ele><time>2026-04-04T14:29:37Z</time></trkpt><trkpt lat="42.831551369031246" lon="12.214403604602467"><ele>726.0</ele><time>2026-04-04T14:29:38Z</time></trkpt><trkpt lat="42.83160660621664" lon="12.214541120268954"><ele>726.0</ele><time>2026-04-04T14:29:39Z</time></trkpt><trkpt lat="42.8316555041223" lon="12.214689834887508"><ele>726.0</ele><time>2026-04-04T14:29:40Z</time></trkpt><trkpt lat="42.83169860173767" lon="12.214833218321685"><ele>726.0</ele><time>2026-04-04T14:29:41Z</time></trkpt><trkpt lat="42.8317742966624" lon="12.21495752318612"><ele>724.75</ele><time>2026-04-04T14:29:42Z</time></trkpt><trkpt lat="42.83189145016494" lon="12.215029477244439"><ele>723.5</ele><time>2026-04-04T14:29:43Z</time></trkpt><trkpt lat="42.83203268118674" lon="12.21502344413374"><ele>722.25</ele><time>2026-04-04T14:29:44Z</time></trkpt><trkpt lat="42.83218595680797" lon="12.215040375055384"><ele>721.0</ele><time>2026-04-04T14:29:45Z</time></trkpt><trkpt lat="42.83233732976329" lon="12.215039241195107"><ele>721.0</ele><time>2026-04-04T14:29:46Z</time></trkpt><trkpt lat="42.832490017542874" lon="12.21502788067725"><ele>721.0</ele><time>2026-04-04T14:29:47Z</time></trkpt><trkpt lat="42.83263672773184" lon="12.215003352188537"><ele>721.0</ele><time>2026-04-04T14:29:48Z</time></trkpt><trkpt lat="42.83278357580512" lon="12.215052345959725"><ele>718.25</ele><time>2026-04-04T14:29:49Z</time></trkpt><trkpt lat="42.83291895402294" lon="12.215101462510972"><ele>715.5</ele><time>2026-04-04T14:29:50Z</time></trkpt><trkpt lat="42.83303300261671" lon="12.21516178871381"><ele>712.75</ele><time>2026-04-04T14:29:51Z</time></trkpt><trkpt lat="42.833119544747554" lon="12.215249703144291"><ele>710.0</ele><time>2026-04-04T14:29:52Z</time></trkpt><trkpt lat="42.83317516171643" lon="12.21536753682433"><ele>710.0</ele><time>2026-04-04T14:29:53Z</time></trkpt><trkpt lat="42.83321944482326" lon="12.215525409145748"><ele>710.0</ele><time>2026-04-04T14:29:54Z</time></trkpt><trkpt lat="42.83326659734696" lon="12.215705130692836"><ele>710.0</ele><time>2026-04-04T14:29:55Z</time></trkpt><trkpt lat="42.83332349957982" lon="12.215880506412299"><ele>710.0</ele><time>2026-04-04T14:29:56Z</time></trkpt><trkpt lat="42.83339083086186" lon="12.216032566367947"><ele>711.4</ele><time>2026-04-04T14:29:57Z</time></trkpt><trkpt lat="42.83347086118994" lon="12.216157662088204"><ele>712.8</ele><time>2026-04-04T14:29:58Z</time></trkpt><trkpt lat="42.833543935477216" lon="12.216252493390549"><ele>714.2</ele><time>2026-04-04T14:29:59Z</time></trkpt><trkpt lat="42.83361034923162" lon="12.216334487476237"><ele>715.6</ele><time>2026-04-04T14:30:00Z</time></trkpt><trkpt lat="42.833670732371104" lon="12.216407400175703"><ele>717.0</ele><time>2026-04-04T14:30:01Z</time></trkpt><trkpt lat="42.8337255076281" lon="12.21647856270744"><ele>714.6</ele><time>2026-04-04T14:30:02Z</time></trkpt><trkpt lat="42.833777768721525" lon="12.216560603952548"><ele>712.2</ele><time>2026-04-04T14:30:03Z</time></trkpt><trkpt lat="42.83383462060039" lon="12.216669023901744"><ele>709.8</ele><time>2026-04-04T14:30:04Z</time></trkpt><trkpt lat="42.83388489536043" lon="12.216781052618696"><ele>707.4</ele><time>2026-04-04T14:30:05Z</time></trkpt><trkpt lat="42.83393635203877" lon="12.216897199203702"><ele>705.0</ele><time>2026-04-04T14:30:06Z</time></trkpt><trkpt lat="42.8339881781626" lon="12.217001934364912"><ele>705.0</ele><time>2026-04-04T14:30:07Z</time></trkpt><trkpt lat="42.83404231618143" lon="12.217103438226824"><ele>705.0</ele><time>2026-04-04T14:30:08Z</time></trkpt><trkpt lat="42.83409435090022" lon="12.217200729327956"><ele>705.0</ele><time>2026-04-04T14:30:09Z</time></trkpt><trkpt lat="42.834150901046286" lon="12.217290339722792"><ele>705.0</ele><time>2026-04-04T14:30:10Z</time></trkpt><trkpt lat="42.83420652134236" lon="12.217393007060961"><ele>705.0</ele><time>2026-04-04T14:30:11Z</time></trkpt><trkpt lat="42.8342695249612" lon="12.217497763940228"><ele>703.2</ele><time>2026-04-04T14:30:12Z</time></trkpt><trkpt lat="42.83432562812262" lon="12.217601538724315"><ele>701.4</ele><time>2026-04-04T14:30:13Z</time></trkpt><trkpt lat="42.83438160741626" lon="12.217705614563972"><ele>699.5999999999999</ele><time>2026-04-04T14:30:14Z</time></trkpt><trkpt lat="42.8344137324774" lon="12.21781194888242"><ele>697.8</ele><time>2026-04-04T14:30:15Z</time></trkpt><trkpt lat="42.834455271544776" lon="12.217918884582959"><ele>696.0</ele><time>2026-04-04T14:30:16Z</time></trkpt><trkpt lat="42.83449681149776" lon="12.218033654234072"><ele>697.75</ele><time>2026-04-04T14:30:17Z</time></trkpt><trkpt lat="42.83453939383116" lon="12.218157979414435"><ele>699.5</ele><time>2026-04-04T14:30:18Z</time></trkpt><trkpt lat="42.83458168051449" lon="12.218297878425792"><ele>701.25</ele><time>2026-04-04T14:30:19Z</time></trkpt><trkpt lat="42.83462607074686" lon="12.218442938935143"><ele>703.0</ele><time>2026-04-04T14:30:20Z</time></trkpt><trkpt lat="42.83467620049939" lon="12.218597653591477"><ele>703.0</ele><time>2026-04-04T14:30:21Z</time></trkpt><trkpt lat="42.8347285732409" lon="12.218757313032668"><ele>703.0</ele><time>2026-04-04T14:30:22Z</time></trkpt><trkpt lat="42.83478088889793" lon="12.218913619632154"><ele>703.0</ele><time>2026-04-04T14:30:23Z</time></trkpt><trkpt lat="42.834820693565" lon="12.21904929116298"><ele>703.0</ele><time>2026-04-04T14:30:24Z</time></trkpt><trkpt lat="42.83486307325846" lon="12.219180077415851"><ele>704.4</ele><time>2026-04-04T14:30:25Z</time></trkpt><trkpt lat="42.834833116120954" lon="12.219320944458026"><ele>705.8</ele><time>2026-04-04T14:30:26Z</time></trkpt><trkpt lat="42.83482137544628" lon="12.219484190466755"><ele>707.2</ele><time>2026-04-04T14:30:27Z</time></trkpt><trkpt lat="42.83479781343205" lon="12.219631785998113"><ele>708.6</ele><time>2026-04-04T14:30:28Z</time></trkpt><trkpt lat="42.834815109570876" lon="12.21976602468757"><ele>710.0</ele><time>2026-04-04T14:30:29Z</time></trkpt><trkpt lat="42.83488258659281" lon="12.21987256561787"><ele>708.25</ele><time>2026-04-04T14:30:30Z</time></trkpt><trkpt lat="42.834980506548966" lon="12.219949526924522"><ele>706.5</ele><time>2026-04-04T14:30:31Z</time></trkpt><trkpt lat="42.83509084569336" lon="12.220022641782995"><ele>704.75</ele><time>2026-04-04T14:30:32Z</time></trkpt><trkpt lat="42.835202052922455" lon="12.220091827611078"><ele>703.0</ele><time>2026-04-04T14:30:33Z</time></trkpt><trkpt lat="42.835300239582324" lon="12.220170231439361"><ele>703.0</ele><time>2026-04-04T14:30:34Z</time></trkpt><trkpt lat="42.83538644132606" lon="12.220292420135028"><ele>703.0</ele><time>2026-04-04T14:30:35Z</time></trkpt><trkpt lat="42.835445068688514" lon="12.22043107562656"><ele>703.0</ele><time>2026-04-04T14:30:36Z</time></trkpt><trkpt lat="42.835506834184834" lon="12.220585153437348"><ele>703.0</ele><time>2026-04-04T14:30:37Z</time></trkpt><trkpt lat="42.835549490917465" lon="12.22075587531584"><ele>705.75</ele><time>2026-04-04T14:30:38Z</time></trkpt><trkpt lat="42.835589427956556" lon="12.22092458561273"><ele>708.5</ele><time>2026-04-04T14:30:39Z</time></trkpt><trkpt lat="42.835627332809125" lon="12.221080454184305"><ele>711.25</ele><time>2026-04-04T14:30:40Z</time></trkpt><trkpt lat="42.8356631657554" lon="12.221217107248965"><ele>714.0</ele><time>2026-04-04T14:30:41Z</time></trkpt><trkpt lat="42.83569652628492" lon="12.221343112202822"><ele>714.0</ele><time>2026-04-04T14:30:42Z</time></trkpt><trkpt lat="42.83574485394454" lon="12.221455968270654"><ele>714.0</ele><time>2026-04-04T14:30:43Z</time></trkpt><trkpt lat="42.83580915670477" lon="12.221554167160962"><ele>714.0</ele><time>2026-04-04T14:30:44Z</time></trkpt><trkpt lat="42.8358837554575" lon="12.221648247419848"><ele>714.0</ele><time>2026-04-04T14:30:45Z</time></trkpt><trkpt lat="42.83596417432698" lon="12.221744178531923"><ele>714.0</ele><time>2026-04-04T14:30:46Z</time></trkpt><trkpt lat="42.836056903689" lon="12.22184205381383"><ele>713.5</ele><time>2026-04-04T14:30:47Z</time></trkpt><trkpt lat="42.83615220567263" lon="12.221946601905637"><ele>713.0</ele><time>2026-04-04T14:30:48Z</time></trkpt><trkpt lat="42.83624839494534" lon="12.222049996626009"><ele>712.5</ele><time>2026-04-04T14:30:49Z</time></trkpt><trkpt lat="42.836353460628864" lon="12.222159542822217"><ele>712.0</ele><time>2026-04-04T14:30:50Z</time></trkpt><trkpt lat="42.8364684362652" lon="12.222277223082038"><ele>714.6666666666667</ele><time>2026-04-04T14:30:51Z</time></trkpt><trkpt lat="42.836588964072504" lon="12.222399138748223"><ele>717.3333333333334</ele><time>2026-04-04T14:30:52Z</time></trkpt><trkpt lat="42.83669950245866" lon="12.222545330745652"><ele>720.0</ele><time>2026-04-04T14:30:53Z</time></trkpt><trkpt lat="42.83682271026755" lon="12.22267718408897"><ele>720.0</ele><time>2026-04-04T14:30:54Z</time></trkpt><trkpt lat="42.8369485586502" lon="12.222785627627239"><ele>720.0</ele><time>2026-04-04T14:30:55Z</time></trkpt><trkpt lat="42.83705064528224" lon="12.222926107604202"><ele>720.0</ele><time>2026-04-04T14:30:56Z</time></trkpt><trkpt lat="42.83716533107737" lon="12.223042552732023"><ele>720.0</ele><time>2026-04-04T14:30:57Z</time></trkpt><trkpt lat="42.837291048513684" lon="12.223135911946633"><ele>720.75</ele><time>2026-04-04T14:30:58Z</time></trkpt><trkpt lat="42.83740709762759" lon="12.223241297401813"><ele>721.5</ele><time>2026-04-04T14:30:59Z</time></trkpt><trkpt lat="42.837524835916675" lon="12.223339842398554"><ele>722.25</ele><time>2026-04-04T14:31:00Z</time></trkpt><trkpt lat="42.837643954831584" lon="12.223433099957267"><ele>723.0</ele><time>2026-04-04T14:31:01Z</time></trkpt><trkpt lat="42.837755611256064" lon="12.22353816167178"><ele>723.0</ele><time>2026-04-04T14:31:02Z</time></trkpt><trkpt lat="42.837877744399286" lon="12.223619398595885"><ele>723.0</ele><time>2026-04-04T14:31:03Z</time></trkpt><trkpt lat="42.838000443374035" lon="12.22370127313804"><ele>723.0</ele><time>2026-04-04T14:31:04Z</time></trkpt><trkpt lat="42.83812280034637" lon="12.223785145341028"><ele>723.0</ele><time>2026-04-04T14:31:05Z</time></trkpt><trkpt lat="42.838246238707555" lon="12.223871791178311"><ele>723.0</ele><time>2026-04-04T14:31:06Z</time></trkpt><trkpt lat="42.83837269916095" lon="12.223960738124092"><ele>723.0</ele><time>2026-04-04T14:31:07Z</time></trkpt><trkpt lat="42.83849242040572" lon="12.224050001142341"><ele>723.0</ele><time>2026-04-04T14:31:08Z</time></trkpt><trkpt lat="42.83860284976027" lon="12.22413672721755"><ele>723.0</ele><time>2026-04-04T14:31:09Z</time></trkpt><trkpt lat="42.83870904290456" lon="12.224231391932593"><ele>722.25</ele><time>2026-04-04T14:31:10Z</time></trkpt><trkpt lat="42.83881468359191" lon="12.224321618399745"><ele>721.5</ele><time>2026-04-04T14:31:11Z</time></trkpt><trkpt lat="42.838918052318355" lon="12.22441163818686"><ele>720.75</ele><time>2026-04-04T14:31:12Z</time></trkpt><trkpt lat="42.83901085685806" lon="12.224497929957092"><ele>720.0</ele><time>2026-04-04T14:31:13Z</time></trkpt><trkpt lat="42.839087141657714" lon="12.224568665008405"><ele>720.0</ele><time>2026-04-04T14:31:14Z</time></trkpt><trkpt lat="42.83914899370032" lon="12.22462345569613"><ele>720.0</ele><time>2026-04-04T14:31:15Z</time></trkpt><trkpt lat="42.83920378772214" lon="12.224670997703974"><ele>720.0</ele><time>2026-04-04T14:31:16Z</time></trkpt><trkpt lat="42.83929761426168" lon="12.224751684229592"><ele>720.0</ele><time>2026-04-04T14:31:18Z</time></trkpt><trkpt lat="42.839400335956725" lon="12.224827585613427"><ele>720.0</ele><time>2026-04-04T14:31:20Z</time></trkpt><trkpt lat="42.83947390628196" lon="12.224868045454805"><ele>720.0</ele><time>2026-04-04T14:31:22Z</time></trkpt><trkpt lat="42.83955099152613" lon="12.224888157016766"><ele>720.3333333333334</ele><time>2026-04-04T14:31:24Z</time></trkpt><trkpt lat="42.839621607871386" lon="12.22490543332013"><ele>720.6666666666666</ele><time>2026-04-04T14:31:26Z</time></trkpt><trkpt lat="42.83970437492887" lon="12.224899291975484"><ele>721.0</ele><time>2026-04-04T14:31:28Z</time></trkpt><trkpt lat="42.83980066296609" lon="12.224879413734286"><ele>721.3333333333333</ele><time>2026-04-04T14:31:30Z</time></trkpt><trkpt lat="42.83991758508919" lon="12.224842284626698"><ele>721.6666666666666</ele><time>2026-04-04T14:31:32Z</time></trkpt><trkpt lat="42.83998050426358" lon="12.224795439705543"><ele>722.0</ele><time>2026-04-04T14:31:33Z</time></trkpt><trkpt lat="42.840066737144646" lon="12.224748075690506"><ele>721.8</ele><time>2026-04-04T14:31:34Z</time></trkpt><trkpt lat="42.840141017056766" lon="12.224665700428865"><ele>721.6</ele><time>2026-04-04T14:31:35Z</time></trkpt><trkpt lat="42.84021019793929" lon="12.224545157514804"><ele>721.4</ele><time>2026-04-04T14:31:36Z</time></trkpt><trkpt lat="42.84028840253186" lon="12.224428527377022"><ele>721.1999999999999</ele><time>2026-04-04T14:31:37Z</time></trkpt><trkpt lat="42.840377088284164" lon="12.22432084648706"><ele>721.0</ele><time>2026-04-04T14:31:38Z</time></trkpt><trkpt lat="42.84045549506544" lon="12.224202428676001"><ele>721.0</ele><time>2026-04-04T14:31:39Z</time></trkpt><trkpt lat="42.840533637685" lon="12.224093635767161"><ele>721.0</ele><time>2026-04-04T14:31:40Z</time></trkpt><trkpt lat="42.84063529896489" lon="12.224007547475706"><ele>721.0</ele><time>2026-04-04T14:31:41Z</time></trkpt><trkpt lat="42.8407329121892" lon="12.223917859886713"><ele>721.0</ele><time>2026-04-04T14:31:42Z</time></trkpt><trkpt lat="42.84082900339659" lon="12.223836061532527"><ele>719.5999999999999</ele><time>2026-04-04T14:31:43Z</time></trkpt><trkpt lat="42.8409149256113" lon="12.223765700740755"><ele>718.2</ele><time>2026-04-04T14:31:44Z</time></trkpt><trkpt lat="42.84100117197383" lon="12.223700197589395"><ele>716.8</ele><time>2026-04-04T14:31:45Z</time></trkpt><trkpt lat="42.84108240102644" lon="12.223629547868791"><ele>715.4000000000001</ele><time>2026-04-04T14:31:46Z</time></trkpt><trkpt lat="42.84116780509207" lon="12.22356166308331"><ele>714.0</ele><time>2026-04-04T14:31:47Z</time></trkpt><trkpt lat="42.84126045343066" lon="12.223491590077412"><ele>714.0</ele><time>2026-04-04T14:31:48Z</time></trkpt><trkpt lat="42.84136166018991" lon="12.223427085452233"><ele>714.0</ele><time>2026-04-04T14:31:49Z</time></trkpt><trkpt lat="42.8414536915386" lon="12.223383899639217"><ele>714.0</ele><time>2026-04-04T14:31:50Z</time></trkpt><trkpt lat="42.841551412300944" lon="12.223376500176807"><ele>714.0</ele><time>2026-04-04T14:31:51Z</time></trkpt><trkpt lat="42.841646088807416" lon="12.223413108394185"><ele>714.0</ele><time>2026-04-04T14:31:52Z</time></trkpt><trkpt lat="42.84173823873129" lon="12.223465679455163"><ele>711.25</ele><time>2026-04-04T14:31:53Z</time></trkpt><trkpt lat="42.841840018661074" lon="12.22354608644523"><ele>708.5</ele><time>2026-04-04T14:31:54Z</time></trkpt><trkpt lat="42.84193756073724" lon="12.223643872380277"><ele>705.75</ele><time>2026-04-04T14:31:55Z</time></trkpt><trkpt lat="42.84205393489758" lon="12.223771512780763"><ele>703.0</ele><time>2026-04-04T14:31:56Z</time></trkpt><trkpt lat="42.84216941505277" lon="12.22387773062316"><ele>703.0</ele><time>2026-04-04T14:31:57Z</time></trkpt><trkpt lat="42.84230406939604" lon="12.223974828897598"><ele>703.0</ele><time>2026-04-04T14:31:58Z</time></trkpt><trkpt lat="42.84243779209684" lon="12.224058884461149"><ele>703.0</ele><time>2026-04-04T14:31:59Z</time></trkpt><trkpt lat="42.84255935948072" lon="12.224134338972357"><ele>703.0</ele><time>2026-04-04T14:32:00Z</time></trkpt><trkpt lat="42.84267549337975" lon="12.224206420866494"><ele>704.0</ele><time>2026-04-04T14:32:01Z</time></trkpt><trkpt lat="42.842790034155534" lon="12.224274015631673"><ele>705.0</ele><time>2026-04-04T14:32:02Z</time></trkpt><trkpt lat="42.84290204829071" lon="12.22432504856152"><ele>706.0</ele><time>2026-04-04T14:32:03Z</time></trkpt><trkpt lat="42.8430172620254" lon="12.224335703246801"><ele>707.0</ele><time>2026-04-04T14:32:04Z</time></trkpt><trkpt lat="42.84312158272255" lon="12.224262818467269"><ele>707.0</ele><time>2026-04-04T14:32:05Z</time></trkpt><trkpt lat="42.843218442069485" lon="12.224168801021973"><ele>707.0</ele><time>2026-04-04T14:32:06Z</time></trkpt><trkpt lat="42.843306920610495" lon="12.22403268812185"><ele>707.0</ele><time>2026-04-04T14:32:07Z</time></trkpt><trkpt lat="42.843395122174904" lon="12.22386731286157"><ele>707.0</ele><time>2026-04-04T14:32:08Z</time></trkpt><trkpt lat="42.84348753057815" lon="12.223722758028254"><ele>707.75</ele><time>2026-04-04T14:32:09Z</time></trkpt><trkpt lat="42.84357559722644" lon="12.223596717888583"><ele>708.5</ele><time>2026-04-04T14:32:10Z</time></trkpt><trkpt lat="42.84365622291635" lon="12.223474135118666"><ele>709.25</ele><time>2026-04-04T14:32:11Z</time></trkpt><trkpt lat="42.84374544136266" lon="12.223369979908153"><ele>710.0</ele><time>2026-04-04T14:32:12Z</time></trkpt><trkpt lat="42.843843754354154" lon="12.223285343126918"><ele>710.0</ele><time>2026-04-04T14:32:13Z</time></trkpt><trkpt lat="42.843947471779835" lon="12.22321214085471"><ele>710.0</ele><time>2026-04-04T14:32:14Z</time></trkpt><trkpt lat="42.844047774625516" lon="12.223162025765156"><ele>710.0</ele><time>2026-04-04T14:32:15Z</time></trkpt><trkpt lat="42.84414372938339" lon="12.223156136120839"><ele>710.0</ele><time>2026-04-04T14:32:16Z</time></trkpt><trkpt lat="42.84422220049801" lon="12.223244808548856"><ele>710.0</ele><time>2026-04-04T14:32:17Z</time></trkpt><trkpt lat="42.84428881507839" lon="12.223335659334317"><ele>712.5</ele><time>2026-04-04T14:32:18Z</time></trkpt><trkpt lat="42.84437551283387" lon="12.223451319845084"><ele>715.0</ele><time>2026-04-04T14:32:19Z</time></trkpt><trkpt lat="42.84449008484394" lon="12.223557121821226"><ele>717.5</ele><time>2026-04-04T14:32:20Z</time></trkpt><trkpt lat="42.8445913874746" lon="12.223681011642563"><ele>720.0</ele><time>2026-04-04T14:32:21Z</time></trkpt><trkpt lat="42.844691529925136" lon="12.22377143876655"><ele>720.0</ele><time>2026-04-04T14:32:22Z</time></trkpt><trkpt lat="42.84479434483919" lon="12.223827886817038"><ele>720.0</ele><time>2026-04-04T14:32:23Z</time></trkpt><trkpt lat="42.84489008124153" lon="12.223863456928932"><ele>720.0</ele><time>2026-04-04T14:32:24Z</time></trkpt><trkpt lat="42.844977012346845" lon="12.223817187646999"><ele>720.0</ele><time>2026-04-04T14:32:25Z</time></trkpt><trkpt lat="42.845020409918796" lon="12.223710604081626"><ele>720.0</ele><time>2026-04-04T14:32:26Z</time></trkpt><trkpt lat="42.84503698710256" lon="12.223588316235292"><ele>720.0</ele><time>2026-04-04T14:32:27Z</time></trkpt><trkpt lat="42.845029964593884" lon="12.223440737728543"><ele>720.0</ele><time>2026-04-04T14:32:28Z</time></trkpt><trkpt lat="42.84500300169803" lon="12.223259110486321"><ele>720.0</ele><time>2026-04-04T14:32:29Z</time></trkpt><trkpt lat="42.84497087502841" lon="12.223082958070654"><ele>720.0</ele><time>2026-04-04T14:32:30Z</time></trkpt><trkpt lat="42.84494254834596" lon="12.22288133850663"><ele>718.6</ele><time>2026-04-04T14:32:31Z</time></trkpt><trkpt lat="42.844937106638376" lon="12.222700976888783"><ele>717.2</ele><time>2026-04-04T14:32:32Z</time></trkpt><trkpt lat="42.844953354013725" lon="12.222547082387006"><ele>715.8</ele><time>2026-04-04T14:32:33Z</time></trkpt><trkpt lat="42.84500391820336" lon="12.22243311632248"><ele>714.4</ele><time>2026-04-04T14:32:34Z</time></trkpt><trkpt lat="42.845083016605315" lon="12.222362529947588"><ele>713.0</ele><time>2026-04-04T14:32:35Z</time></trkpt><trkpt lat="42.845185681162896" lon="12.222343055196161"><ele>712.75</ele><time>2026-04-04T14:32:36Z</time></trkpt><trkpt lat="42.845310850163294" lon="12.222401957216993"><ele>712.5</ele><time>2026-04-04T14:32:37Z</time></trkpt><trkpt lat="42.845448590329376" lon="12.222481584416965"><ele>712.25</ele><time>2026-04-04T14:32:38Z</time></trkpt><trkpt lat="42.84557560471489" lon="12.222605719043987"><ele>712.0</ele><time>2026-04-04T14:32:39Z</time></trkpt><trkpt lat="42.845689596134775" lon="12.222748247044985"><ele>712.0</ele><time>2026-04-04T14:32:40Z</time></trkpt><trkpt lat="42.845815604516055" lon="12.222897434321315"><ele>712.0</ele><time>2026-04-04T14:32:41Z</time></trkpt><trkpt lat="42.845943458315936" lon="12.223020703325833"><ele>712.0</ele><time>2026-04-04T14:32:42Z</time></trkpt><trkpt lat="42.84608123861308" lon="12.22308005085469"><ele>713.5</ele><time>2026-04-04T14:32:43Z</time></trkpt><trkpt lat="42.84621554771013" lon="12.22311606384204"><ele>715.0</ele><time>2026-04-04T14:32:44Z</time></trkpt><trkpt lat="42.846345731643666" lon="12.223143627737612"><ele>716.5</ele><time>2026-04-04T14:32:45Z</time></trkpt><trkpt lat="42.846466280686066" lon="12.223076868460288"><ele>718.0</ele><time>2026-04-04T14:32:46Z</time></trkpt><trkpt lat="42.84657172463388" lon="12.222981749880304"><ele>718.0</ele><time>2026-04-04T14:32:47Z</time></trkpt><trkpt lat="42.84665154982033" lon="12.22285697218969"><ele>718.0</ele><time>2026-04-04T14:32:48Z</time></trkpt><trkpt lat="42.84670092169051" lon="12.222710065374173"><ele>718.0</ele><time>2026-04-04T14:32:49Z</time></trkpt><trkpt lat="42.84670223229845" lon="12.222546495629041"><ele>718.0</ele><time>2026-04-04T14:32:50Z</time></trkpt><trkpt lat="42.8466535159266" lon="12.222379530996534"><ele>717.25</ele><time>2026-04-04T14:32:51Z</time></trkpt><trkpt lat="42.84656933116524" lon="12.222206136858246"><ele>716.5</ele><time>2026-04-04T14:32:52Z</time></trkpt><trkpt lat="42.846504985962774" lon="12.22203717547654"><ele>715.75</ele><time>2026-04-04T14:32:53Z</time></trkpt><trkpt lat="42.84644948230655" lon="12.22186347969811"><ele>715.0</ele><time>2026-04-04T14:32:54Z</time></trkpt><trkpt lat="42.846416235502666" lon="12.221691141387707"><ele>715.0</ele><time>2026-04-04T14:32:55Z</time></trkpt><trkpt lat="42.84641355874377" lon="12.221542829017267"><ele>715.0</ele><time>2026-04-04T14:32:56Z</time></trkpt><trkpt lat="42.84644883790606" lon="12.22142089563503"><ele>715.0</ele><time>2026-04-04T14:32:57Z</time></trkpt><trkpt lat="42.84651916054298" lon="12.221343157214559"><ele>715.0</ele><time>2026-04-04T14:32:58Z</time></trkpt><trkpt lat="42.846612936067004" lon="12.221311934514814"><ele>715.0</ele><time>2026-04-04T14:32:59Z</time></trkpt><trkpt lat="42.846710090080975" lon="12.221372697393733"><ele>714.0</ele><time>2026-04-04T14:33:00Z</time></trkpt><trkpt lat="42.846803678894986" lon="12.221416061713741"><ele>713.0</ele><time>2026-04-04T14:33:01Z</time></trkpt><trkpt lat="42.84689313225999" lon="12.22145701614876"><ele>712.0</ele><time>2026-04-04T14:33:02Z</time></trkpt><trkpt lat="42.84698716476494" lon="12.221467187353655"><ele>711.0</ele><time>2026-04-04T14:33:03Z</time></trkpt><trkpt lat="42.847069203175074" lon="12.221489420393212"><ele>710.0</ele><time>2026-04-04T14:33:04Z</time></trkpt><trkpt lat="42.8471443061952" lon="12.221509496906762"><ele>709.0</ele><time>2026-04-04T14:33:05Z</time></trkpt><trkpt lat="42.84721552571378" lon="12.221513336517479"><ele>709.0</ele><time>2026-04-04T14:33:06Z</time></trkpt><trkpt lat="42.84731814190337" lon="12.221544270391638"><ele>709.0</ele><time>2026-04-04T14:33:08Z</time></trkpt><trkpt lat="42.84739220602367" lon="12.221553534954205"><ele>709.0</ele><time>2026-04-04T14:33:10Z</time></trkpt><trkpt lat="42.847497498030044" lon="12.221557842559983"><ele>709.0</ele><time>2026-04-04T14:33:28Z</time></trkpt><trkpt lat="42.84757775389367" lon="12.22156446448944"><ele>709.0</ele><time>2026-04-04T14:33:29Z</time></trkpt><trkpt lat="42.84766254628301" lon="12.221571460782911"><ele>709.25</ele><time>2026-04-04T14:33:30Z</time></trkpt><trkpt lat="42.84777608401707" lon="12.221580828856021"><ele>709.5</ele><time>2026-04-04T14:33:31Z</time></trkpt><trkpt lat="42.84790300917396" lon="12.221594042650326"><ele>709.75</ele><time>2026-04-04T14:33:32Z</time></trkpt><trkpt lat="42.848045112513304" lon="12.221614169206525"><ele>710.0</ele><time>2026-04-04T14:33:33Z</time></trkpt><trkpt lat="42.848197413736564" lon="12.221631824409613"><ele>710.0</ele><time>2026-04-04T14:33:34Z</time></trkpt><trkpt lat="42.848355345277895" lon="12.2216091034141"><ele>710.0</ele><time>2026-04-04T14:33:35Z</time></trkpt><trkpt lat="42.84852591819436" lon="12.22157578019299"><ele>710.0</ele><time>2026-04-04T14:33:36Z</time></trkpt><trkpt lat="42.84871179006682" lon="12.22150266328545"><ele>710.6666666666666</ele><time>2026-04-04T14:33:37Z</time></trkpt><trkpt lat="42.848900150830325" lon="12.221423385789487"><ele>711.3333333333334</ele><time>2026-04-04T14:33:38Z</time></trkpt><trkpt lat="42.849088666388816" lon="12.22134024472357"><ele>712.0</ele><time>2026-04-04T14:33:39Z</time></trkpt><trkpt lat="42.84926269794843" lon="12.22125971089926"><ele>711.6666666666667</ele><time>2026-04-04T14:33:40Z</time></trkpt><trkpt lat="42.84943788663508" lon="12.221194024831307"><ele>711.3333333333334</ele><time>2026-04-04T14:33:41Z</time></trkpt><trkpt lat="42.849603042983944" lon="12.221129460432632"><ele>711.0</ele><time>2026-04-04T14:33:42Z</time></trkpt><trkpt lat="42.84977047705012" lon="12.221069073093574"><ele>711.0</ele><time>2026-04-04T14:33:43Z</time></trkpt><trkpt lat="42.84994278421378" lon="12.22100322406204"><ele>711.0</ele><time>2026-04-04T14:33:44Z</time></trkpt><trkpt lat="42.85011116327321" lon="12.220941464853015"><ele>711.0</ele><time>2026-04-04T14:33:45Z</time></trkpt><trkpt lat="42.85027613180158" lon="12.220876265274311"><ele>709.3333333333334</ele><time>2026-04-04T14:33:46Z</time></trkpt><trkpt lat="42.85043387156605" lon="12.220794704766861"><ele>707.6666666666667</ele><time>2026-04-04T14:33:47Z</time></trkpt><trkpt lat="42.85057950890469" lon="12.220702416974397"><ele>706.0</ele><time>2026-04-04T14:33:48Z</time></trkpt><trkpt lat="42.85070674130218" lon="12.22058828119429"><ele>705.75</ele><time>2026-04-04T14:33:49Z</time></trkpt><trkpt lat="42.850815453396756" lon="12.220450648553305"><ele>705.5</ele><time>2026-04-04T14:33:50Z</time></trkpt><trkpt lat="42.85089317100915" lon="12.220293112479242"><ele>705.25</ele><time>2026-04-04T14:33:51Z</time></trkpt><trkpt lat="42.850927943862054" lon="12.22011616938809"><ele>705.0</ele><time>2026-04-04T14:33:52Z</time></trkpt><trkpt lat="42.850925147308374" lon="12.219915828135235"><ele>704.6666666666666</ele><time>2026-04-04T14:33:53Z</time></trkpt><trkpt lat="42.85089749115134" lon="12.219692082406654"><ele>704.3333333333333</ele><time>2026-04-04T14:33:54Z</time></trkpt><trkpt lat="42.85088210210726" lon="12.219483461638651"><ele>704.0</ele><time>2026-04-04T14:33:55Z</time></trkpt><trkpt lat="42.85088777070367" lon="12.219295358925464"><ele>704.0</ele><time>2026-04-04T14:33:56Z</time></trkpt><trkpt lat="42.85092557272468" lon="12.219133949507533"><ele>704.0</ele><time>2026-04-04T14:33:57Z</time></trkpt><trkpt lat="42.85099680150568" lon="12.219013078960835"><ele>704.0</ele><time>2026-04-04T14:33:58Z</time></trkpt><trkpt lat="42.85109361136392" lon="12.218958697471969"><ele>704.0</ele><time>2026-04-04T14:33:59Z</time></trkpt><trkpt lat="42.851203888391204" lon="12.21899871309276"><ele>707.3333333333333</ele><time>2026-04-04T14:34:00Z</time></trkpt><trkpt lat="42.85133974615841" lon="12.219011959878495"><ele>710.6666666666666</ele><time>2026-04-04T14:34:01Z</time></trkpt><trkpt lat="42.85150303191474" lon="12.21902403665046"><ele>714.0</ele><time>2026-04-04T14:34:02Z</time></trkpt><trkpt lat="42.85167288258395" lon="12.219055789939585"><ele>713.3333333333334</ele><time>2026-04-04T14:34:03Z</time></trkpt><trkpt lat="42.85185216270803" lon="12.219086637783686"><ele>712.6666666666667</ele><time>2026-04-04T14:34:04Z</time></trkpt><trkpt lat="42.8520513682156" lon="12.219127941294074"><ele>712.0</ele><time>2026-04-04T14:34:05Z</time></trkpt><trkpt lat="42.85225617323773" lon="12.219197704115837"><ele>712.0</ele><time>2026-04-04T14:34:06Z</time></trkpt><trkpt lat="42.852449575708825" lon="12.219244456806791"><ele>712.0</ele><time>2026-04-04T14:34:07Z</time></trkpt><trkpt lat="42.85264201994923" lon="12.219289231585773"><ele>712.0</ele><time>2026-04-04T14:34:08Z</time></trkpt><trkpt lat="42.85283478050663" lon="12.219333927105994"><ele>710.0</ele><time>2026-04-04T14:34:09Z</time></trkpt><trkpt lat="42.853012896270265" lon="12.219375137603027"><ele>708.0</ele><time>2026-04-04T14:34:10Z</time></trkpt><trkpt lat="42.85317634963152" lon="12.21941055159094"><ele>706.0</ele><time>2026-04-04T14:34:11Z</time></trkpt><trkpt lat="42.853337888332575" lon="12.21944222092348"><ele>705.0</ele><time>2026-04-04T14:34:12Z</time></trkpt><trkpt lat="42.85349706137362" lon="12.219459744207223"><ele>704.0</ele><time>2026-04-04T14:34:13Z</time></trkpt><trkpt lat="42.85364242386342" lon="12.219466497596713"><ele>703.0</ele><time>2026-04-04T14:34:14Z</time></trkpt><trkpt lat="42.85377439828396" lon="12.219490960359327"><ele>702.0</ele><time>2026-04-04T14:34:15Z</time></trkpt><trkpt lat="42.85388247583343" lon="12.21955053623653"><ele>702.0</ele><time>2026-04-04T14:34:16Z</time></trkpt><trkpt lat="42.853963980089475" lon="12.219665038909588"><ele>702.0</ele><time>2026-04-04T14:34:17Z</time></trkpt><trkpt lat="42.85402822650814" lon="12.219810034062228"><ele>702.0</ele><time>2026-04-04T14:34:18Z</time></trkpt><trkpt lat="42.85410898347996" lon="12.219959876970142"><ele>702.0</ele><time>2026-04-04T14:34:19Z</time></trkpt><trkpt lat="42.85420661641211" lon="12.220087596846918"><ele>702.5</ele><time>2026-04-04T14:34:20Z</time></trkpt><trkpt lat="42.85434006968309" lon="12.220171892338245"><ele>703.0</ele><time>2026-04-04T14:34:21Z</time></trkpt><trkpt lat="42.85447905457269" lon="12.220204207408766"><ele>703.5</ele><time>2026-04-04T14:34:22Z</time></trkpt><trkpt lat="42.854609001872866" lon="12.220193916896124"><ele>704.0</ele><time>2026-04-04T14:34:23Z</time></trkpt><trkpt lat="42.85472807446469" lon="12.220135503012614"><ele>704.0</ele><time>2026-04-04T14:34:24Z</time></trkpt><trkpt lat="42.85481805079334" lon="12.21999971045238"><ele>704.0</ele><time>2026-04-04T14:34:25Z</time></trkpt><trkpt lat="42.85492850168766" lon="12.219883348314061"><ele>704.0</ele><time>2026-04-04T14:34:26Z</time></trkpt><trkpt lat="42.855029554606844" lon="12.219740769622353"><ele>704.0</ele><time>2026-04-04T14:34:27Z</time></trkpt><trkpt lat="42.855150961312106" lon="12.219666274661291"><ele>698.3333333333333</ele><time>2026-04-04T14:34:28Z</time></trkpt><trkpt lat="42.855278158387165" lon="12.219584207236736"><ele>692.6666666666666</ele><time>2026-04-04T14:34:29Z</time></trkpt><trkpt lat="42.85542849385" lon="12.219577368343314"><ele>687.0</ele><time>2026-04-04T14:34:30Z</time></trkpt><trkpt lat="42.8555877906792" lon="12.21959281121238"><ele>687.0</ele><time>2026-04-04T14:34:31Z</time></trkpt><trkpt lat="42.85574194175993" lon="12.21961565348848"><ele>687.0</ele><time>2026-04-04T14:34:32Z</time></trkpt><trkpt lat="42.8558843127586" lon="12.21963766585808"><ele>687.0</ele><time>2026-04-04T14:34:33Z</time></trkpt><trkpt lat="42.85602476219449" lon="12.21964957160777"><ele>687.0</ele><time>2026-04-04T14:34:34Z</time></trkpt><trkpt lat="42.85612692785589" lon="12.219743008324196"><ele>687.0</ele><time>2026-04-04T14:34:35Z</time></trkpt><trkpt lat="42.85619951068275" lon="12.219869389077392"><ele>687.0</ele><time>2026-04-04T14:34:36Z</time></trkpt><trkpt lat="42.856253124233184" lon="12.220028296738128"><ele>687.0</ele><time>2026-04-04T14:34:37Z</time></trkpt><trkpt lat="42.85629053497894" lon="12.220200623972616"><ele>687.0</ele><time>2026-04-04T14:34:38Z</time></trkpt><trkpt lat="42.856340851590794" lon="12.220375512243129"><ele>687.0</ele><time>2026-04-04T14:34:39Z</time></trkpt><trkpt lat="42.85637312420775" lon="12.220551064211671"><ele>687.0</ele><time>2026-04-04T14:34:40Z</time></trkpt><trkpt lat="42.85644211760802" lon="12.220696944331848"><ele>687.0</ele><time>2026-04-04T14:34:41Z</time></trkpt><trkpt lat="42.856542823130674" lon="12.22078809177633"><ele>687.0</ele><time>2026-04-04T14:34:42Z</time></trkpt><trkpt lat="42.85665418580015" lon="12.220802397001272"><ele>687.25</ele><time>2026-04-04T14:34:43Z</time></trkpt><trkpt lat="42.85675567390688" lon="12.220784358188935"><ele>687.5</ele><time>2026-04-04T14:34:44Z</time></trkpt><trkpt lat="42.85684090397414" lon="12.220706427679422"><ele>687.75</ele><time>2026-04-04T14:34:45Z</time></trkpt><trkpt lat="42.85690538774443" lon="12.22057604543815"><ele>688.0</ele><time>2026-04-04T14:34:46Z</time></trkpt><trkpt lat="42.85696544292765" lon="12.220400683028567"><ele>688.0</ele><time>2026-04-04T14:34:47Z</time></trkpt><trkpt lat="42.85703529437802" lon="12.22022237567017"><ele>688.0</ele><time>2026-04-04T14:34:48Z</time></trkpt><trkpt lat="42.857117047522536" lon="12.220088577564882"><ele>688.0</ele><time>2026-04-04T14:34:49Z</time></trkpt><trkpt lat="42.85722517362515" lon="12.219987609279176"><ele>688.0</ele><time>2026-04-04T14:34:50Z</time></trkpt><trkpt lat="42.85734626858718" lon="12.219928757397032"><ele>688.0</ele><time>2026-04-04T14:34:51Z</time></trkpt><trkpt lat="42.857465640286364" lon="12.219937552998033"><ele>688.0</ele><time>2026-04-04T14:34:52Z</time></trkpt><trkpt lat="42.85756026793577" lon="12.220026046532597"><ele>688.0</ele><time>2026-04-04T14:34:53Z</time></trkpt><trkpt lat="42.857622557620616" lon="12.22013403806769"><ele>688.0</ele><time>2026-04-04T14:34:54Z</time></trkpt><trkpt lat="42.85763212979546" lon="12.220284199575302"><ele>688.0</ele><time>2026-04-04T14:34:55Z</time></trkpt><trkpt lat="42.85761645193241" lon="12.220450205366436"><ele>688.3333333333334</ele><time>2026-04-04T14:34:56Z</time></trkpt><trkpt lat="42.85758565607425" lon="12.220652326501098"><ele>688.6666666666666</ele><time>2026-04-04T14:34:57Z</time></trkpt><trkpt lat="42.85754833724696" lon="12.22087740124052"><ele>689.0</ele><time>2026-04-04T14:34:58Z</time></trkpt><trkpt lat="42.85750891251929" lon="12.2210999675617"><ele>689.0</ele><time>2026-04-04T14:34:59Z</time></trkpt><trkpt lat="42.85746904110012" lon="12.221322840511963"><ele>689.0</ele><time>2026-04-04T14:35:00Z</time></trkpt><trkpt lat="42.857431700280266" lon="12.221533796763186"><ele>689.0</ele><time>2026-04-04T14:35:01Z</time></trkpt><trkpt lat="42.857393927196185" lon="12.221733336382218"><ele>687.0</ele><time>2026-04-04T14:35:02Z</time></trkpt><trkpt lat="42.85735790936498" lon="12.221928685497808"><ele>685.0</ele><time>2026-04-04T14:35:03Z</time></trkpt><trkpt lat="42.857327787456505" lon="12.22210616667869"><ele>683.0</ele><time>2026-04-04T14:35:04Z</time></trkpt><trkpt lat="42.85730729769394" lon="12.22225367480435"><ele>681.0</ele><time>2026-04-04T14:35:05Z</time></trkpt><trkpt lat="42.857307548598456" lon="12.222378340494709"><ele>681.0</ele><time>2026-04-04T14:35:06Z</time></trkpt><trkpt lat="42.857351041664586" lon="12.222478803584892"><ele>681.0</ele><time>2026-04-04T14:35:07Z</time></trkpt><trkpt lat="42.85743803231712" lon="12.222513556050751"><ele>681.0</ele><time>2026-04-04T14:35:08Z</time></trkpt><trkpt lat="42.85751167791971" lon="12.222493088177663"><ele>681.0</ele><time>2026-04-04T14:35:09Z</time></trkpt><trkpt lat="42.85756944986582" lon="12.222404361619791"><ele>681.0</ele><time>2026-04-04T14:35:10Z</time></trkpt><trkpt lat="42.8575881054807" lon="12.222267233935233"><ele>681.0</ele><time>2026-04-04T14:35:11Z</time></trkpt><trkpt lat="42.857599218458134" lon="12.222088088742547"><ele>682.3333333333334</ele><time>2026-04-04T14:35:12Z</time></trkpt><trkpt lat="42.857626743121926" lon="12.221890086314412"><ele>683.6666666666667</ele><time>2026-04-04T14:35:13Z</time></trkpt><trkpt lat="42.857681393826454" lon="12.22167351778062"><ele>685.0</ele><time>2026-04-04T14:35:14Z</time></trkpt><trkpt lat="42.85774574722543" lon="12.221481155259436"><ele>685.0</ele><time>2026-04-04T14:35:15Z</time></trkpt><trkpt lat="42.857826969796136" lon="12.221322600202038"><ele>685.0</ele><time>2026-04-04T14:35:16Z</time></trkpt><trkpt lat="42.85791728472602" lon="12.22120617817288"><ele>685.0</ele><time>2026-04-04T14:35:17Z</time></trkpt><trkpt lat="42.858006657659416" lon="12.22113365040397"><ele>685.0</ele><time>2026-04-04T14:35:18Z</time></trkpt><trkpt lat="42.858101826432765" lon="12.221115232211039"><ele>685.0</ele><time>2026-04-04T14:35:19Z</time></trkpt><trkpt lat="42.858183549772384" lon="12.221199220408087"><ele>685.0</ele><time>2026-04-04T14:35:20Z</time></trkpt><trkpt lat="42.85827994162105" lon="12.221304832558795"><ele>685.0</ele><time>2026-04-04T14:35:21Z</time></trkpt><trkpt lat="42.858388831509416" lon="12.221429291460954"><ele>685.0</ele><time>2026-04-04T14:35:22Z</time></trkpt><trkpt lat="42.85851311658697" lon="12.22158957878977"><ele>681.5</ele><time>2026-04-04T14:35:23Z</time></trkpt><trkpt lat="42.85861864331753" lon="12.221747796695135"><ele>678.0</ele><time>2026-04-04T14:35:24Z</time></trkpt><trkpt lat="42.85871753020553" lon="12.221864181327158"><ele>674.5</ele><time>2026-04-04T14:35:25Z</time></trkpt><trkpt lat="42.858796678475734" lon="12.221950075542358"><ele>671.0</ele><time>2026-04-04T14:35:26Z</time></trkpt><trkpt lat="42.85887845258882" lon="12.221993352973211"><ele>671.0</ele><time>2026-04-04T14:35:27Z</time></trkpt><trkpt lat="42.858970865611575" lon="12.221915763474676"><ele>671.0</ele><time>2026-04-04T14:35:28Z</time></trkpt><trkpt lat="42.859054559330936" lon="12.22179514753166"><ele>671.0</ele><time>2026-04-04T14:35:29Z</time></trkpt><trkpt lat="42.85914117817578" lon="12.221701495490167"><ele>671.0</ele><time>2026-04-04T14:35:30Z</time></trkpt><trkpt lat="42.85923755527903" lon="12.221675595303523"><ele>671.0</ele><time>2026-04-04T14:35:31Z</time></trkpt><trkpt lat="42.85933044538104" lon="12.22176650881478"><ele>672.0</ele><time>2026-04-04T14:35:32Z</time></trkpt><trkpt lat="42.859398619036604" lon="12.22189677563581"><ele>673.0</ele><time>2026-04-04T14:35:33Z</time></trkpt><trkpt lat="42.85945679229943" lon="12.222065569134177"><ele>674.0</ele><time>2026-04-04T14:35:34Z</time></trkpt><trkpt lat="42.859512664436615" lon="12.222225153322928"><ele>675.0</ele><time>2026-04-04T14:35:35Z</time></trkpt><trkpt lat="42.859588703866876" lon="12.22236356586703"><ele>670.6666666666666</ele><time>2026-04-04T14:35:36Z</time></trkpt><trkpt lat="42.859716448594305" lon="12.222449413368498"><ele>666.3333333333333</ele><time>2026-04-04T14:35:37Z</time></trkpt><trkpt lat="42.859859016804364" lon="12.222513524017062"><ele>662.0</ele><time>2026-04-04T14:35:38Z</time></trkpt><trkpt lat="42.860023718702934" lon="12.222551477594747"><ele>662.3333333333333</ele><time>2026-04-04T14:35:39Z</time></trkpt><trkpt lat="42.8601928789798" lon="12.22258441077751"><ele>662.6666666666666</ele><time>2026-04-04T14:35:40Z</time></trkpt><trkpt lat="42.86034446275029" lon="12.222589050174195"><ele>663.0</ele><time>2026-04-04T14:35:41Z</time></trkpt><trkpt lat="42.86048719646827" lon="12.222571968413046"><ele>663.0</ele><time>2026-04-04T14:35:42Z</time></trkpt><trkpt lat="42.86061578160378" lon="12.222592182249256"><ele>663.0</ele><time>2026-04-04T14:35:43Z</time></trkpt><trkpt lat="42.86072111268087" lon="12.222662223681596"><ele>663.0</ele><time>2026-04-04T14:35:44Z</time></trkpt><trkpt lat="42.86080082079088" lon="12.222777565683622"><ele>663.0</ele><time>2026-04-04T14:35:45Z</time></trkpt><trkpt lat="42.86090528611596" lon="12.222925466166934"><ele>660.0</ele><time>2026-04-04T14:35:46Z</time></trkpt><trkpt lat="42.861003234140654" lon="12.223103968936776"><ele>657.0</ele><time>2026-04-04T14:35:47Z</time></trkpt><trkpt lat="42.86111697813411" lon="12.223257526117212"><ele>654.0</ele><time>2026-04-04T14:35:48Z</time></trkpt><trkpt lat="42.86122163287336" lon="12.223398160671369"><ele>654.0</ele><time>2026-04-04T14:35:49Z</time></trkpt><trkpt lat="42.86135352754446" lon="12.223455885227878"><ele>654.0</ele><time>2026-04-04T14:35:50Z</time></trkpt><trkpt lat="42.8614847579219" lon="12.223479244665794"><ele>654.0</ele><time>2026-04-04T14:35:51Z</time></trkpt><trkpt lat="42.861626280293805" lon="12.223451882134045"><ele>654.0</ele><time>2026-04-04T14:35:52Z</time></trkpt><trkpt lat="42.86177294744487" lon="12.223398044977207"><ele>654.25</ele><time>2026-04-04T14:35:53Z</time></trkpt><trkpt lat="42.86191670016374" lon="12.22342031041922"><ele>654.5</ele><time>2026-04-04T14:35:54Z</time></trkpt><trkpt lat="42.86205327049306" lon="12.223477123792184"><ele>654.75</ele><time>2026-04-04T14:35:55Z</time></trkpt><trkpt lat="42.8621949780469" lon="12.223578353330655"><ele>655.0</ele><time>2026-04-04T14:35:56Z</time></trkpt><trkpt lat="42.862321494437914" lon="12.223685048856666"><ele>655.0</ele><time>2026-04-04T14:35:57Z</time></trkpt><trkpt lat="42.86243752342266" lon="12.223799092141071"><ele>655.0</ele><time>2026-04-04T14:35:58Z</time></trkpt><trkpt lat="42.8625188625689" lon="12.223946363196937"><ele>655.0</ele><time>2026-04-04T14:35:59Z</time></trkpt><trkpt lat="42.862590681915734" lon="12.224104721542346"><ele>655.0</ele><time>2026-04-04T14:36:00Z</time></trkpt><trkpt lat="42.86266433170628" lon="12.224240613538717"><ele>649.0</ele><time>2026-04-04T14:36:01Z</time></trkpt><trkpt lat="42.86275109334718" lon="12.22432183437772"><ele>643.0</ele><time>2026-04-04T14:36:02Z</time></trkpt><trkpt lat="42.86285743541653" lon="12.224320168425765"><ele>637.0</ele><time>2026-04-04T14:36:03Z</time></trkpt><trkpt lat="42.86294877407486" lon="12.22422223005617"><ele>631.0</ele><time>2026-04-04T14:36:04Z</time></trkpt><trkpt lat="42.86303381356657" lon="12.224087722614948"><ele>633.5</ele><time>2026-04-04T14:36:05Z</time></trkpt><trkpt lat="42.86312795665925" lon="12.223930971099772"><ele>636.0</ele><time>2026-04-04T14:36:06Z</time></trkpt><trkpt lat="42.86323512403721" lon="12.22380578424767"><ele>638.5</ele><time>2026-04-04T14:36:07Z</time></trkpt><trkpt lat="42.863362812220444" lon="12.223710430614764"><ele>641.0</ele><time>2026-04-04T14:36:08Z</time></trkpt><trkpt lat="42.86350914661439" lon="12.223648988364653"><ele>641.0</ele><time>2026-04-04T14:36:09Z</time></trkpt><trkpt lat="42.86367773550168" lon="12.223661335208453"><ele>641.0</ele><time>2026-04-04T14:36:10Z</time></trkpt><trkpt lat="42.863863459189844" lon="12.223677092490444"><ele>641.0</ele><time>2026-04-04T14:36:11Z</time></trkpt><trkpt lat="42.864040158191344" lon="12.22369725891048"><ele>641.0</ele><time>2026-04-04T14:36:12Z</time></trkpt><trkpt lat="42.86421841979269" lon="12.223725540945182"><ele>641.0</ele><time>2026-04-04T14:36:13Z</time></trkpt><trkpt lat="42.86438463989031" lon="12.223774894864384"><ele>641.0</ele><time>2026-04-04T14:36:14Z</time></trkpt><trkpt lat="42.864541363868526" lon="12.22384950963255"><ele>641.75</ele><time>2026-04-04T14:36:15Z</time></trkpt><trkpt lat="42.86468010883241" lon="12.2239327227766"><ele>642.5</ele><time>2026-04-04T14:36:16Z</time></trkpt><trkpt lat="42.864805425043976" lon="12.224029239527372"><ele>643.25</ele><time>2026-04-04T14:36:17Z</time></trkpt><trkpt lat="42.86490603652296" lon="12.22417064334181"><ele>644.0</ele><time>2026-04-04T14:36:18Z</time></trkpt><trkpt lat="42.86497587864383" lon="12.224358507058572"><ele>645.0</ele><time>2026-04-04T14:36:19Z</time></trkpt><trkpt lat="42.86503811829799" lon="12.2245815893262"><ele>646.0</ele><time>2026-04-04T14:36:20Z</time></trkpt><trkpt lat="42.86508506753882" lon="12.224813870100025"><ele>647.0</ele><time>2026-04-04T14:36:21Z</time></trkpt><trkpt lat="42.865129635476215" lon="12.225044670674867"><ele>647.0</ele><time>2026-04-04T14:36:22Z</time></trkpt><trkpt lat="42.86514759474744" lon="12.2252771763241"><ele>647.0</ele><time>2026-04-04T14:36:23Z</time></trkpt><trkpt lat="42.865139391580016" lon="12.225494612784916"><ele>647.0</ele><time>2026-04-04T14:36:24Z</time></trkpt><trkpt lat="42.86515397310902" lon="12.225690623358911"><ele>641.5</ele><time>2026-04-04T14:36:25Z</time></trkpt><trkpt lat="42.865186595105534" lon="12.225864371065184"><ele>636.0</ele><time>2026-04-04T14:36:26Z</time></trkpt><trkpt lat="42.86525715301858" lon="12.226002628764531"><ele>630.5</ele><time>2026-04-04T14:36:27Z</time></trkpt><trkpt lat="42.865380009771684" lon="12.226066137182583"><ele>625.0</ele><time>2026-04-04T14:36:28Z</time></trkpt><trkpt lat="42.86549902469892" lon="12.226080838126682"><ele>625.0</ele><time>2026-04-04T14:36:29Z</time></trkpt><trkpt lat="42.86562853430065" lon="12.226025990327319"><ele>625.0</ele><time>2026-04-04T14:36:30Z</time></trkpt><trkpt lat="42.865799027934386" lon="12.225991463353749"><ele>625.0</ele><time>2026-04-04T14:36:31Z</time></trkpt><trkpt lat="42.86595955214416" lon="12.22597049239233"><ele>624.6666666666667</ele><time>2026-04-04T14:36:32Z</time></trkpt><trkpt lat="42.86612097579499" lon="12.225981580017832"><ele>624.3333333333334</ele><time>2026-04-04T14:36:33Z</time></trkpt><trkpt lat="42.86628822491979" lon="12.225982470711333"><ele>624.0</ele><time>2026-04-04T14:36:34Z</time></trkpt><trkpt lat="42.86643873355623" lon="12.225960345865277"><ele>624.0</ele><time>2026-04-04T14:36:35Z</time></trkpt><trkpt lat="42.86656878225109" lon="12.225935452822826"><ele>624.0</ele><time>2026-04-04T14:36:36Z</time></trkpt><trkpt lat="42.8666750774075" lon="12.22592803529291"><ele>624.0</ele><time>2026-04-04T14:36:37Z</time></trkpt><trkpt lat="42.86675923880777" lon="12.225961036615956"><ele>624.0</ele><time>2026-04-04T14:36:38Z</time></trkpt><trkpt lat="42.86680196171877" lon="12.226058587837635"><ele>624.0</ele><time>2026-04-04T14:36:39Z</time></trkpt><trkpt lat="42.866830980765414" lon="12.226183832216995"><ele>626.0</ele><time>2026-04-04T14:36:40Z</time></trkpt><trkpt lat="42.86686362510372" lon="12.226366400601577"><ele>628.0</ele><time>2026-04-04T14:36:41Z</time></trkpt><trkpt lat="42.866904878030006" lon="12.226602164758615"><ele>630.0</ele><time>2026-04-04T14:36:42Z</time></trkpt><trkpt lat="42.86694271726567" lon="12.226817575822999"><ele>630.0</ele><time>2026-04-04T14:36:43Z</time></trkpt><trkpt lat="42.866968568972624" lon="12.227005721029228"><ele>630.0</ele><time>2026-04-04T14:36:44Z</time></trkpt><trkpt lat="42.86690396686485" lon="12.22717048320129"><ele>630.0</ele><time>2026-04-04T14:36:45Z</time></trkpt><trkpt lat="42.866828010427774" lon="12.22732985614522"><ele>630.0</ele><time>2026-04-04T14:36:46Z</time></trkpt><trkpt lat="42.86678424027521" lon="12.227522971251933"><ele>621.6666666666666</ele><time>2026-04-04T14:36:47Z</time></trkpt><trkpt lat="42.86677644759399" lon="12.227769163970065"><ele>613.3333333333333</ele><time>2026-04-04T14:36:48Z</time></trkpt><trkpt lat="42.866774321845845" lon="12.227989058841487"><ele>605.0</ele><time>2026-04-04T14:36:49Z</time></trkpt><trkpt lat="42.866780613252274" lon="12.228178751680469"><ele>604.5</ele><time>2026-04-04T14:36:50Z</time></trkpt><trkpt lat="42.86681903813856" lon="12.228366208176302"><ele>604.0</ele><time>2026-04-04T14:36:51Z</time></trkpt><trkpt lat="42.86688755327276" lon="12.228530683526623"><ele>603.5</ele><time>2026-04-04T14:36:52Z</time></trkpt><trkpt lat="42.86697294967172" lon="12.228674431191287"><ele>603.0</ele><time>2026-04-04T14:36:53Z</time></trkpt><trkpt lat="42.86705227905254" lon="12.22881640582245"><ele>603.0</ele><time>2026-04-04T14:36:54Z</time></trkpt><trkpt lat="42.867128906159856" lon="12.228967916524233"><ele>603.0</ele><time>2026-04-04T14:36:55Z</time></trkpt><trkpt lat="42.86719200710698" lon="12.229124024482577"><ele>603.0</ele><time>2026-04-04T14:36:56Z</time></trkpt><trkpt lat="42.8672077437595" lon="12.229263362496566"><ele>603.0</ele><time>2026-04-04T14:36:57Z</time></trkpt><trkpt lat="42.86720910368463" lon="12.229407056429643"><ele>601.0</ele><time>2026-04-04T14:36:58Z</time></trkpt><trkpt lat="42.867133071458376" lon="12.229519081719419"><ele>599.0</ele><time>2026-04-04T14:36:59Z</time></trkpt><trkpt lat="42.86701000527337" lon="12.229585238554488"><ele>597.0</ele><time>2026-04-04T14:37:00Z</time></trkpt><trkpt lat="42.866856247108" lon="12.229617916482095"><ele>595.0</ele><time>2026-04-04T14:37:01Z</time></trkpt><trkpt lat="42.86667521340828" lon="12.229640634135981"><ele>595.0</ele><time>2026-04-04T14:37:02Z</time></trkpt><trkpt lat="42.86649924218988" lon="12.229671191300785"><ele>595.0</ele><time>2026-04-04T14:37:03Z</time></trkpt><trkpt lat="42.86634300385674" lon="12.229716248221651"><ele>595.0</ele><time>2026-04-04T14:37:04Z</time></trkpt><trkpt lat="42.866197238029876" lon="12.229754231133423"><ele>595.0</ele><time>2026-04-04T14:37:05Z</time></trkpt><trkpt lat="42.866075824976825" lon="12.229832983158223"><ele>595.0</ele><time>2026-04-04T14:37:06Z</time></trkpt><trkpt lat="42.86599577057923" lon="12.229957090726389"><ele>595.0</ele><time>2026-04-04T14:37:07Z</time></trkpt><trkpt lat="42.865960964018754" lon="12.23011755366001"><ele>595.0</ele><time>2026-04-04T14:37:08Z</time></trkpt><trkpt lat="42.86595908436432" lon="12.230300863531383"><ele>595.0</ele><time>2026-04-04T14:37:09Z</time></trkpt><trkpt lat="42.86603617912791" lon="12.230489499988645"><ele>595.0</ele><time>2026-04-04T14:37:10Z</time></trkpt><trkpt lat="42.86613905103557" lon="12.230664647022358"><ele>595.0</ele><time>2026-04-04T14:37:11Z</time></trkpt><trkpt lat="42.86627214360596" lon="12.230832116370804"><ele>593.3333333333334</ele><time>2026-04-04T14:37:12Z</time></trkpt><trkpt lat="42.86638762184435" lon="12.231012663124284"><ele>591.6666666666666</ele><time>2026-04-04T14:37:13Z</time></trkpt><trkpt lat="42.866519498925086" lon="12.231152788148801"><ele>590.0</ele><time>2026-04-04T14:37:14Z</time></trkpt><trkpt lat="42.86661937870997" lon="12.231314362968998"><ele>590.0</ele><time>2026-04-04T14:37:15Z</time></trkpt><trkpt lat="42.866720702693726" lon="12.231448626472384"><ele>590.0</ele><time>2026-04-04T14:37:16Z</time></trkpt><trkpt lat="42.8668076734802" lon="12.231571086113293"><ele>590.0</ele><time>2026-04-04T14:37:17Z</time></trkpt><trkpt lat="42.86687763394129" lon="12.23169950912945"><ele>590.0</ele><time>2026-04-04T14:37:18Z</time></trkpt><trkpt lat="42.86691224409517" lon="12.231839653976449"><ele>586.25</ele><time>2026-04-04T14:37:19Z</time></trkpt><trkpt lat="42.86689995389551" lon="12.231999296816497"><ele>582.5</ele><time>2026-04-04T14:37:20Z</time></trkpt><trkpt lat="42.86685064322446" lon="12.232161806963155"><ele>578.75</ele><time>2026-04-04T14:37:21Z</time></trkpt><trkpt lat="42.86679382142109" lon="12.232338416040228"><ele>575.0</ele><time>2026-04-04T14:37:22Z</time></trkpt><trkpt lat="42.866699990198555" lon="12.232475181200556"><ele>575.0</ele><time>2026-04-04T14:37:23Z</time></trkpt><trkpt lat="42.866589354684635" lon="12.232564918761746"><ele>575.0</ele><time>2026-04-04T14:37:24Z</time></trkpt><trkpt lat="42.86644939007396" lon="12.232598162352032"><ele>575.0</ele><time>2026-04-04T14:37:25Z</time></trkpt><trkpt lat="42.86628805451766" lon="12.232586694726754"><ele>575.0</ele><time>2026-04-04T14:37:26Z</time></trkpt><trkpt lat="42.86612055615377" lon="12.232540095286735"><ele>575.0</ele><time>2026-04-04T14:37:27Z</time></trkpt><trkpt lat="42.86594841759266" lon="12.232502657575491"><ele>575.0</ele><time>2026-04-04T14:37:28Z</time></trkpt><trkpt lat="42.86578302828173" lon="12.232480005235756"><ele>575.0</ele><time>2026-04-04T14:37:29Z</time></trkpt><trkpt lat="42.86563267152412" lon="12.232465826546777"><ele>575.0</ele><time>2026-04-04T14:37:30Z</time></trkpt><trkpt lat="42.86550175502666" lon="12.232470300945934"><ele>575.0</ele><time>2026-04-04T14:37:31Z</time></trkpt><trkpt lat="42.86540307653288" lon="12.232501219995424"><ele>575.0</ele><time>2026-04-04T14:37:32Z</time></trkpt><trkpt lat="42.8653112653493" lon="12.23255580976563"><ele>575.0</ele><time>2026-04-04T14:37:33Z</time></trkpt><trkpt lat="42.86525410137065" lon="12.232707373596584"><ele>575.0</ele><time>2026-04-04T14:37:34Z</time></trkpt><trkpt lat="42.865245362010086" lon="12.232897065243822"><ele>575.0</ele><time>2026-04-04T14:37:35Z</time></trkpt><trkpt lat="42.86522614361781" lon="12.233096657306596"><ele>575.0</ele><time>2026-04-04T14:37:36Z</time></trkpt><trkpt lat="42.865179976724754" lon="12.233283678652233"><ele>575.0</ele><time>2026-04-04T14:37:37Z</time></trkpt><trkpt lat="42.86511164836992" lon="12.23345670909772"><ele>572.75</ele><time>2026-04-04T14:37:38Z</time></trkpt><trkpt lat="42.8650268323819" lon="12.233608938003604"><ele>570.5</ele><time>2026-04-04T14:37:39Z</time></trkpt><trkpt lat="42.864938901117014" lon="12.233739933816336"><ele>568.25</ele><time>2026-04-04T14:37:40Z</time></trkpt><trkpt lat="42.86486380912042" lon="12.2338747189081"><ele>566.0</ele><time>2026-04-04T14:37:41Z</time></trkpt><trkpt lat="42.864827548500934" lon="12.234030932015706"><ele>565.6666666666666</ele><time>2026-04-04T14:37:42Z</time></trkpt><trkpt lat="42.86484455500919" lon="12.234231484064843"><ele>565.3333333333334</ele><time>2026-04-04T14:37:43Z</time></trkpt><trkpt lat="42.86487208552938" lon="12.234450605911267"><ele>565.0</ele><time>2026-04-04T14:37:44Z</time></trkpt><trkpt lat="42.86490208472217" lon="12.234665255216441"><ele>563.3333333333334</ele><time>2026-04-04T14:37:45Z</time></trkpt><trkpt lat="42.864934719825506" lon="12.234883544692577"><ele>561.6666666666666</ele><time>2026-04-04T14:37:46Z</time></trkpt><trkpt lat="42.86498704371771" lon="12.235086727017451"><ele>560.0</ele><time>2026-04-04T14:37:47Z</time></trkpt><trkpt lat="42.86507636385406" lon="12.235262188354751"><ele>560.75</ele><time>2026-04-04T14:37:48Z</time></trkpt><trkpt lat="42.86518985963886" lon="12.235388171640958"><ele>561.5</ele><time>2026-04-04T14:37:49Z</time></trkpt><trkpt lat="42.865283235779316" lon="12.235537999856856"><ele>562.25</ele><time>2026-04-04T14:37:50Z</time></trkpt><trkpt lat="42.865364106385805" lon="12.235666198662713"><ele>563.0</ele><time>2026-04-04T14:37:51Z</time></trkpt><trkpt lat="42.865411025420364" lon="12.235799082004739"><ele>563.0</ele><time>2026-04-04T14:37:52Z</time></trkpt><trkpt lat="42.865412831965955" lon="12.235943953044742"><ele>563.0</ele><time>2026-04-04T14:37:53Z</time></trkpt><trkpt lat="42.86538719328698" lon="12.236110003553314"><ele>563.0</ele><time>2026-04-04T14:37:54Z</time></trkpt><trkpt lat="42.86531285319333" lon="12.236306701231209"><ele>563.0</ele><time>2026-04-04T14:37:55Z</time></trkpt><trkpt lat="42.86521628348415" lon="12.236536416087002"><ele>561.0</ele><time>2026-04-04T14:37:56Z</time></trkpt><trkpt lat="42.86511776406109" lon="12.236775838407745"><ele>559.0</ele><time>2026-04-04T14:37:57Z</time></trkpt><trkpt lat="42.86500788628768" lon="12.237037892590125"><ele>557.0</ele><time>2026-04-04T14:37:58Z</time></trkpt><trkpt lat="42.86490258190858" lon="12.237296125861215"><ele>553.6666666666666</ele><time>2026-04-04T14:37:59Z</time></trkpt><trkpt lat="42.864802515599" lon="12.237556655076808"><ele>550.3333333333334</ele><time>2026-04-04T14:38:00Z</time></trkpt><trkpt lat="42.86471276184867" lon="12.237798766159592"><ele>547.0</ele><time>2026-04-04T14:38:01Z</time></trkpt><trkpt lat="42.86463752281808" lon="12.238037111267541"><ele>544.0</ele><time>2026-04-04T14:38:02Z</time></trkpt><trkpt lat="42.86458779099533" lon="12.238293731155546"><ele>541.0</ele><time>2026-04-04T14:38:03Z</time></trkpt><trkpt lat="42.86456187378788" lon="12.238563309341412"><ele>538.0</ele><time>2026-04-04T14:38:04Z</time></trkpt><trkpt lat="42.86454174659042" lon="12.238839294013985"><ele>539.0</ele><time>2026-04-04T14:38:05Z</time></trkpt><trkpt lat="42.86452415895716" lon="12.239096095008744"><ele>540.0</ele><time>2026-04-04T14:38:06Z</time></trkpt><trkpt lat="42.8645057778637" lon="12.239333569419482"><ele>541.0</ele><time>2026-04-04T14:38:07Z</time></trkpt><trkpt lat="42.86448755168954" lon="12.239534766964534"><ele>541.0</ele><time>2026-04-04T14:38:08Z</time></trkpt><trkpt lat="42.864453824655136" lon="12.239724852022851"><ele>541.0</ele><time>2026-04-04T14:38:09Z</time></trkpt><trkpt lat="42.864393503138515" lon="12.239899034646417"><ele>541.0</ele><time>2026-04-04T14:38:10Z</time></trkpt><trkpt lat="42.86429136765641" lon="12.240041753470303"><ele>541.0</ele><time>2026-04-04T14:38:11Z</time></trkpt><trkpt lat="42.86415080930074" lon="12.240178271396985"><ele>539.6666666666667</ele><time>2026-04-04T14:38:12Z</time></trkpt><trkpt lat="42.863991266350304" lon="12.240323081812189"><ele>538.3333333333334</ele><time>2026-04-04T14:38:13Z</time></trkpt><trkpt lat="42.86382068679221" lon="12.24043581725461"><ele>537.0</ele><time>2026-04-04T14:38:14Z</time></trkpt><trkpt lat="42.8636495914129" lon="12.240557145399638"><ele>535.0</ele><time>2026-04-04T14:38:15Z</time></trkpt><trkpt lat="42.86347275874262" lon="12.2406582828174"><ele>533.0</ele><time>2026-04-04T14:38:16Z</time></trkpt><trkpt lat="42.8633109530945" lon="12.240773760627308"><ele>531.0</ele><time>2026-04-04T14:38:17Z</time></trkpt><trkpt lat="42.863151318123904" lon="12.240888995651542"><ele>531.0</ele><time>2026-04-04T14:38:18Z</time></trkpt><trkpt lat="42.86299305233909" lon="12.241003224583803"><ele>531.0</ele><time>2026-04-04T14:38:19Z</time></trkpt><trkpt lat="42.86285004529092" lon="12.2411364302683"><ele>531.0</ele><time>2026-04-04T14:38:20Z</time></trkpt><trkpt lat="42.862704338197986" lon="12.241247754540277"><ele>530.75</ele><time>2026-04-04T14:38:21Z</time></trkpt><trkpt lat="42.86256715708303" lon="12.241357643583614"><ele>530.5</ele><time>2026-04-04T14:38:22Z</time></trkpt><trkpt lat="42.86244696460744" lon="12.24146438017973"><ele>530.25</ele><time>2026-04-04T14:38:23Z</time></trkpt><trkpt lat="42.86234208092121" lon="12.24154590825137"><ele>530.0</ele><time>2026-04-04T14:38:24Z</time></trkpt><trkpt lat="42.86225733362308" lon="12.24163430584346"><ele>530.0</ele><time>2026-04-04T14:38:25Z</time></trkpt><trkpt lat="42.86218012417749" lon="12.241694978556223"><ele>530.0</ele><time>2026-04-04T14:38:26Z</time></trkpt><trkpt lat="42.86211394914687" lon="12.24177567830449"><ele>530.0</ele><time>2026-04-04T14:38:27Z</time></trkpt><trkpt lat="42.862049565964654" lon="12.241864423499365"><ele>530.0</ele><time>2026-04-04T14:38:28Z</time></trkpt><trkpt lat="42.861983288618724" lon="12.241963158048843"><ele>530.0</ele><time>2026-04-04T14:38:29Z</time></trkpt><trkpt lat="42.86191766783442" lon="12.242074111439308"><ele>530.0</ele><time>2026-04-04T14:38:30Z</time></trkpt><trkpt lat="42.86185068078291" lon="12.24217118025915"><ele>530.0</ele><time>2026-04-04T14:38:31Z</time></trkpt><trkpt lat="42.861769968647614" lon="12.242244151871336"><ele>530.0</ele><time>2026-04-04T14:38:32Z</time></trkpt><trkpt lat="42.86167632017197" lon="12.242277470100996"><ele>530.0</ele><time>2026-04-04T14:38:33Z</time></trkpt><trkpt lat="42.86157491106947" lon="12.242297600143825"><ele>530.0</ele><time>2026-04-04T14:38:34Z</time></trkpt><trkpt lat="42.861460647449704" lon="12.242269161165813"><ele>527.8</ele><time>2026-04-04T14:38:35Z</time></trkpt><trkpt lat="42.86135251686473" lon="12.242248138421424"><ele>525.6</ele><time>2026-04-04T14:38:36Z</time></trkpt><trkpt lat="42.861255187603476" lon="12.24224705212983"><ele>523.4</ele><time>2026-04-04T14:38:37Z</time></trkpt><trkpt lat="42.86116559815424" lon="12.24228067136228"><ele>521.2</ele><time>2026-04-04T14:38:38Z</time></trkpt><trkpt lat="42.861095810098206" lon="12.242363055103635"><ele>519.0</ele><time>2026-04-04T14:38:39Z</time></trkpt><trkpt lat="42.861058746178934" lon="12.24249587906474"><ele>519.0</ele><time>2026-04-04T14:38:40Z</time></trkpt><trkpt lat="42.86105493887119" lon="12.242665692716248"><ele>519.0</ele><time>2026-04-04T14:38:41Z</time></trkpt><trkpt lat="42.86103482120871" lon="12.24284594699424"><ele>519.0</ele><time>2026-04-04T14:38:42Z</time></trkpt><trkpt lat="42.86101911673886" lon="12.242997058584415"><ele>519.0</ele><time>2026-04-04T14:38:43Z</time></trkpt><trkpt lat="42.86096111556886" lon="12.243125176649361"><ele>514.25</ele><time>2026-04-04T14:38:44Z</time></trkpt><trkpt lat="42.86086693125849" lon="12.243209353010137"><ele>509.5</ele><time>2026-04-04T14:38:45Z</time></trkpt><trkpt lat="42.86074414172981" lon="12.243281874213116"><ele>504.75</ele><time>2026-04-04T14:38:46Z</time></trkpt><trkpt lat="42.860597867180196" lon="12.243328916710245"><ele>500.0</ele><time>2026-04-04T14:38:47Z</time></trkpt><trkpt lat="42.86046230324814" lon="12.24339930386086"><ele>500.0</ele><time>2026-04-04T14:38:48Z</time></trkpt><trkpt lat="42.86034080969177" lon="12.243502843896904"><ele>500.0</ele><time>2026-04-04T14:38:49Z</time></trkpt><trkpt lat="42.86022687871211" lon="12.243616661854606"><ele>500.0</ele><time>2026-04-04T14:38:50Z</time></trkpt><trkpt lat="42.86014967776015" lon="12.243796163329645"><ele>500.0</ele><time>2026-04-04T14:38:51Z</time></trkpt><trkpt lat="42.86007203541542" lon="12.24397100109514"><ele>498.0</ele><time>2026-04-04T14:38:52Z</time></trkpt><trkpt lat="42.86003933916371" lon="12.24419044373855"><ele>496.0</ele><time>2026-04-04T14:38:53Z</time></trkpt><trkpt lat="42.86003520588932" lon="12.244414395144561"><ele>494.0</ele><time>2026-04-04T14:38:54Z</time></trkpt><trkpt lat="42.86004048083254" lon="12.244632180285295"><ele>494.25</ele><time>2026-04-04T14:38:55Z</time></trkpt><trkpt lat="42.86004864812464" lon="12.244828014426405"><ele>494.5</ele><time>2026-04-04T14:38:56Z</time></trkpt><trkpt lat="42.860046271327704" lon="12.245015256191378"><ele>494.75</ele><time>2026-04-04T14:38:57Z</time></trkpt><trkpt lat="42.86001877390544" lon="12.245177965107006"><ele>495.0</ele><time>2026-04-04T14:38:58Z</time></trkpt><trkpt lat="42.85996245090034" lon="12.245329130540396"><ele>495.0</ele><time>2026-04-04T14:38:59Z</time></trkpt><trkpt lat="42.85987229676669" lon="12.245427802268765"><ele>495.0</ele><time>2026-04-04T14:39:00Z</time></trkpt><trkpt lat="42.85975593554278" lon="12.245499869488981"><ele>495.0</ele><time>2026-04-04T14:39:01Z</time></trkpt><trkpt lat="42.8596153099386" lon="12.245563511546479"><ele>495.0</ele><time>2026-04-04T14:39:02Z</time></trkpt><trkpt lat="42.85946445306159" lon="12.245643096220327"><ele>494.75</ele><time>2026-04-04T14:39:03Z</time></trkpt><trkpt lat="42.859317220134514" lon="12.245713025164441"><ele>494.5</ele><time>2026-04-04T14:39:04Z</time></trkpt><trkpt lat="42.85918881660187" lon="12.245804644862645"><ele>494.25</ele><time>2026-04-04T14:39:05Z</time></trkpt><trkpt lat="42.85905805992706" lon="12.245896073365559"><ele>494.0</ele><time>2026-04-04T14:39:06Z</time></trkpt><trkpt lat="42.85895305906784" lon="12.246036952420539"><ele>494.0</ele><time>2026-04-04T14:39:07Z</time></trkpt><trkpt lat="42.85886219524564" lon="12.246200392924534"><ele>494.0</ele><time>2026-04-04T14:39:08Z</time></trkpt><trkpt lat="42.85877768718612" lon="12.246381973323164"><ele>494.0</ele><time>2026-04-04T14:39:09Z</time></trkpt><trkpt lat="42.85869719850155" lon="12.246561518325263"><ele>495.25</ele><time>2026-04-04T14:39:10Z</time></trkpt><trkpt lat="42.8586276726227" lon="12.24673270101228"><ele>496.5</ele><time>2026-04-04T14:39:11Z</time></trkpt><trkpt lat="42.85857147167239" lon="12.246901440695854"><ele>497.75</ele><time>2026-04-04T14:39:12Z</time></trkpt><trkpt lat="42.858545586582515" lon="12.247084271173382"><ele>499.0</ele><time>2026-04-04T14:39:13Z</time></trkpt><trkpt lat="42.85855361020939" lon="12.247275947940132"><ele>498.0</ele><time>2026-04-04T14:39:14Z</time></trkpt><trkpt lat="42.85861903212811" lon="12.247460154915446"><ele>497.0</ele><time>2026-04-04T14:39:15Z</time></trkpt><trkpt lat="42.858675211178046" lon="12.247660308611357"><ele>496.0</ele><time>2026-04-04T14:39:16Z</time></trkpt><trkpt lat="42.858756609047084" lon="12.247841384011988"><ele>496.0</ele><time>2026-04-04T14:39:17Z</time></trkpt><trkpt lat="42.85883678437379" lon="12.248015317942162"><ele>496.0</ele><time>2026-04-04T14:39:18Z</time></trkpt><trkpt lat="42.85893028446886" lon="12.248173623059293"><ele>496.0</ele><time>2026-04-04T14:39:19Z</time></trkpt><trkpt lat="42.859033265378386" lon="12.24831927817081"><ele>496.0</ele><time>2026-04-04T14:39:20Z</time></trkpt><trkpt lat="42.85914731262976" lon="12.24846178544127"><ele>496.5</ele><time>2026-04-04T14:39:21Z</time></trkpt><trkpt lat="42.85926408965693" lon="12.248605930912905"><ele>497.0</ele><time>2026-04-04T14:39:22Z</time></trkpt><trkpt lat="42.859381265410015" lon="12.248726555278862"><ele>497.5</ele><time>2026-04-04T14:39:23Z</time></trkpt><trkpt lat="42.859484980482726" lon="12.248855519157754"><ele>498.0</ele><time>2026-04-04T14:39:24Z</time></trkpt><trkpt lat="42.859572618148746" lon="12.249008686705235"><ele>496.75</ele><time>2026-04-04T14:39:25Z</time></trkpt><trkpt lat="42.85964988991669" lon="12.249150475856098"><ele>495.5</ele><time>2026-04-04T14:39:26Z</time></trkpt><trkpt lat="42.85971679854942" lon="12.249300345044706"><ele>494.25</ele><time>2026-04-04T14:39:27Z</time></trkpt><trkpt lat="42.859683279504964" lon="12.249485333500692"><ele>493.0</ele><time>2026-04-04T14:39:28Z</time></trkpt><trkpt lat="42.8596389924359" lon="12.249652529429946"><ele>490.33333333333337</ele><time>2026-04-04T14:39:29Z</time></trkpt><trkpt lat="42.859569012194136" lon="12.249835728251785"><ele>487.66666666666663</ele><time>2026-04-04T14:39:30Z</time></trkpt><trkpt lat="42.85949192193104" lon="12.250018394740918"><ele>485.0</ele><time>2026-04-04T14:39:31Z</time></trkpt><trkpt lat="42.85938319792689" lon="12.250181567354097"><ele>483.66666666666663</ele><time>2026-04-04T14:39:32Z</time></trkpt><trkpt lat="42.85925558872953" lon="12.250358347265783"><ele>482.33333333333337</ele><time>2026-04-04T14:39:33Z</time></trkpt><trkpt lat="42.859107217713884" lon="12.250497921450517"><ele>481.0</ele><time>2026-04-04T14:39:34Z</time></trkpt><trkpt lat="42.85897738670196" lon="12.250627354659525"><ele>480.25</ele><time>2026-04-04T14:39:35Z</time></trkpt><trkpt lat="42.85887611825672" lon="12.250774833662112"><ele>479.5</ele><time>2026-04-04T14:39:36Z</time></trkpt><trkpt lat="42.85879611741225" lon="12.250909572031563"><ele>478.75</ele><time>2026-04-04T14:39:37Z</time></trkpt><trkpt lat="42.85878644459946" lon="12.251090461792984"><ele>478.0</ele><time>2026-04-04T14:39:38Z</time></trkpt><trkpt lat="42.858820915351494" lon="12.251271513277038"><ele>477.6666666666667</ele><time>2026-04-04T14:39:39Z</time></trkpt><trkpt lat="42.85887918638463" lon="12.2514729095444"><ele>477.33333333333337</ele><time>2026-04-04T14:39:40Z</time></trkpt><trkpt lat="42.858935033477394" lon="12.25167606206457"><ele>477.0</ele><time>2026-04-04T14:39:41Z</time></trkpt><trkpt lat="42.85898194670705" lon="12.251871737111388"><ele>477.0</ele><time>2026-04-04T14:39:42Z</time></trkpt><trkpt lat="42.859021913792986" lon="12.252076280190375"><ele>477.0</ele><time>2026-04-04T14:39:43Z</time></trkpt><trkpt lat="42.85906001482669" lon="12.252300974857539"><ele>477.0</ele><time>2026-04-04T14:39:44Z</time></trkpt><trkpt lat="42.859101030845466" lon="12.252549866855281"><ele>477.0</ele><time>2026-04-04T14:39:45Z</time></trkpt><trkpt lat="42.85914178165002" lon="12.25279753728481"><ele>477.0</ele><time>2026-04-04T14:39:46Z</time></trkpt><trkpt lat="42.859185193438826" lon="12.253061380383837"><ele>477.0</ele><time>2026-04-04T14:39:47Z</time></trkpt><trkpt lat="42.85923001802063" lon="12.253333809877653"><ele>476.0</ele><time>2026-04-04T14:39:48Z</time></trkpt><trkpt lat="42.859273031552426" lon="12.253598632276766"><ele>475.0</ele><time>2026-04-04T14:39:49Z</time></trkpt><trkpt lat="42.85930903732684" lon="12.253842678600428"><ele>474.0</ele><time>2026-04-04T14:39:50Z</time></trkpt><trkpt lat="42.859319531355865" lon="12.254073162602882"><ele>473.33333333333337</ele><time>2026-04-04T14:39:51Z</time></trkpt><trkpt lat="42.859306091275336" lon="12.254300595388484"><ele>472.6666666666667</ele><time>2026-04-04T14:39:52Z</time></trkpt><trkpt lat="42.85928110020115" lon="12.254531877498582"><ele>472.0</ele><time>2026-04-04T14:39:53Z</time></trkpt><trkpt lat="42.85925030470353" lon="12.254771423334793"><ele>472.33333333333337</ele><time>2026-04-04T14:39:54Z</time></trkpt><trkpt lat="42.85921904593335" lon="12.255011803241727"><ele>472.66666666666663</ele><time>2026-04-04T14:39:55Z</time></trkpt><trkpt lat="42.859189788370074" lon="12.255253453616273"><ele>473.0</ele><time>2026-04-04T14:39:56Z</time></trkpt><trkpt lat="42.85916076124312" lon="12.255493765295789"><ele>473.0</ele><time>2026-04-04T14:39:57Z</time></trkpt><trkpt lat="42.85913537939504" lon="12.255733341335379"><ele>473.0</ele><time>2026-04-04T14:39:58Z</time></trkpt><trkpt lat="42.859089723397695" lon="12.255983659923546"><ele>473.0</ele><time>2026-04-04T14:39:59Z</time></trkpt><trkpt lat="42.859031154606804" lon="12.256229972748933"><ele>472.3333333333333</ele><time>2026-04-04T14:40:00Z</time></trkpt><trkpt lat="42.85896886848927" lon="12.256474234456725"><ele>471.66666666666663</ele><time>2026-04-04T14:40:01Z</time></trkpt><trkpt lat="42.85890751079944" lon="12.256718962176238"><ele>471.0</ele><time>2026-04-04T14:40:02Z</time></trkpt><trkpt lat="42.85885280026476" lon="12.256968460258886"><ele>471.0</ele><time>2026-04-04T14:40:03Z</time></trkpt><trkpt lat="42.85881191083712" lon="12.25722213082325"><ele>471.0</ele><time>2026-04-04T14:40:04Z</time></trkpt><trkpt lat="42.85878280456651" lon="12.257477481007083"><ele>471.0</ele><time>2026-04-04T14:40:05Z</time></trkpt><trkpt lat="42.858761645217065" lon="12.257735486245865"><ele>470.0</ele><time>2026-04-04T14:40:06Z</time></trkpt><trkpt lat="42.858745258517395" lon="12.2579941876789"><ele>469.0</ele><time>2026-04-04T14:40:07Z</time></trkpt><trkpt lat="42.85873094475649" lon="12.258237695872237"><ele>468.0</ele><time>2026-04-04T14:40:08Z</time></trkpt><trkpt lat="42.85872236163293" lon="12.258471439995331"><ele>466.0</ele><time>2026-04-04T14:40:09Z</time></trkpt><trkpt lat="42.85872907383087" lon="12.258696172666326"><ele>464.0</ele><time>2026-04-04T14:40:10Z</time></trkpt><trkpt lat="42.858760210446064" lon="12.258911803488388"><ele>462.0</ele><time>2026-04-04T14:40:11Z</time></trkpt><trkpt lat="42.85882883176739" lon="12.259106509349651"><ele>461.0</ele><time>2026-04-04T14:40:12Z</time></trkpt><trkpt lat="42.85894871201475" lon="12.259274655213343"><ele>460.0</ele><time>2026-04-04T14:40:13Z</time></trkpt><trkpt lat="42.85905511776765" lon="12.259493777903355"><ele>459.0</ele><time>2026-04-04T14:40:14Z</time></trkpt><trkpt lat="42.85917390195101" lon="12.259702378649795"><ele>459.0</ele><time>2026-04-04T14:40:15Z</time></trkpt><trkpt lat="42.85929072026988" lon="12.259898900120156"><ele>459.0</ele><time>2026-04-04T14:40:16Z</time></trkpt><trkpt lat="42.85941367969968" lon="12.260091405626332"><ele>459.0</ele><time>2026-04-04T14:40:17Z</time></trkpt><trkpt lat="42.859561197460664" lon="12.26025738300122"><ele>459.0</ele><time>2026-04-04T14:40:18Z</time></trkpt><trkpt lat="42.85973652766196" lon="12.26037525966575"><ele>459.0</ele><time>2026-04-04T14:40:19Z</time></trkpt><trkpt lat="42.859885342217375" lon="12.260517375937294"><ele>459.0</ele><time>2026-04-04T14:40:20Z</time></trkpt><trkpt lat="42.860033952591095" lon="12.260636558533726"><ele>459.0</ele><time>2026-04-04T14:40:21Z</time></trkpt><trkpt lat="42.860173474489976" lon="12.260766286953983"><ele>459.0</ele><time>2026-04-04T14:40:22Z</time></trkpt><trkpt lat="42.8603011906174" lon="12.260920212030687"><ele>459.0</ele><time>2026-04-04T14:40:23Z</time></trkpt><trkpt lat="42.86042671385362" lon="12.26109364578399"><ele>459.0</ele><time>2026-04-04T14:40:24Z</time></trkpt><trkpt lat="42.86054698297903" lon="12.261276898854156"><ele>459.0</ele><time>2026-04-04T14:40:25Z</time></trkpt><trkpt lat="42.86066669376261" lon="12.261481244033"><ele>459.0</ele><time>2026-04-04T14:40:26Z</time></trkpt><trkpt lat="42.86079255202366" lon="12.261698187705887"><ele>458.66666666666663</ele><time>2026-04-04T14:40:27Z</time></trkpt><trkpt lat="42.86091587515214" lon="12.261919920326964"><ele>458.3333333333333</ele><time>2026-04-04T14:40:28Z</time></trkpt><trkpt lat="42.86103325615421" lon="12.26212728654223"><ele>458.0</ele><time>2026-04-04T14:40:29Z</time></trkpt><trkpt lat="42.861145028450345" lon="12.262323863123857"><ele>457.66666666666663</ele><time>2026-04-04T14:40:30Z</time></trkpt><trkpt lat="42.86124985845184" lon="12.2625060044788"><ele>457.33333333333337</ele><time>2026-04-04T14:40:31Z</time></trkpt><trkpt lat="42.86135110126837" lon="12.262674324759"><ele>457.0</ele><time>2026-04-04T14:40:32Z</time></trkpt><trkpt lat="42.86146087047459" lon="12.262828303715404"><ele>457.0</ele><time>2026-04-04T14:40:33Z</time></trkpt><trkpt lat="42.861568250075706" lon="12.26294448517823"><ele>457.0</ele><time>2026-04-04T14:40:34Z</time></trkpt><trkpt lat="42.86168337616963" lon="12.262996604187999"><ele>457.0</ele><time>2026-04-04T14:40:35Z</time></trkpt><trkpt lat="42.86179866843552" lon="12.262949852387274"><ele>457.0</ele><time>2026-04-04T14:40:36Z</time></trkpt><trkpt lat="42.86190015295011" lon="12.262878700657097"><ele>453.25</ele><time>2026-04-04T14:40:37Z</time></trkpt><trkpt lat="42.86199124836332" lon="12.262769426907981"><ele>449.5</ele><time>2026-04-04T14:40:38Z</time></trkpt><trkpt lat="42.862075879265596" lon="12.262625465889158"><ele>445.75</ele><time>2026-04-04T14:40:39Z</time></trkpt><trkpt lat="42.86214921372548" lon="12.262460421682315"><ele>442.0</ele><time>2026-04-04T14:40:40Z</time></trkpt><trkpt lat="42.86220092611225" lon="12.262284655749447"><ele>441.75</ele><time>2026-04-04T14:40:41Z</time></trkpt><trkpt lat="42.8622242587106" lon="12.262096364124472"><ele>441.5</ele><time>2026-04-04T14:40:42Z</time></trkpt><trkpt lat="42.86221053567513" lon="12.261903786422266"><ele>441.25</ele><time>2026-04-04T14:40:43Z</time></trkpt><trkpt lat="42.86218405612798" lon="12.261711369639873"><ele>441.0</ele><time>2026-04-04T14:40:44Z</time></trkpt><trkpt lat="42.86213694440419" lon="12.261526651328424"><ele>441.25</ele><time>2026-04-04T14:40:45Z</time></trkpt><trkpt lat="42.8620751543666" lon="12.261357586418375"><ele>441.5</ele><time>2026-04-04T14:40:46Z</time></trkpt><trkpt lat="42.86199775521961" lon="12.261188632000335"><ele>441.75</ele><time>2026-04-04T14:40:47Z</time></trkpt><trkpt lat="42.86191257680834" lon="12.261036901192417"><ele>442.0</ele><time>2026-04-04T14:40:48Z</time></trkpt><trkpt lat="42.86184238962895" lon="12.260896952084371"><ele>442.0</ele><time>2026-04-04T14:40:49Z</time></trkpt><trkpt lat="42.86181156727748" lon="12.260755074849948"><ele>442.00000000000006</ele><time>2026-04-04T14:40:50Z</time></trkpt><trkpt lat="42.86182272020422" lon="12.26060848441188"><ele>442.00000000000006</ele><time>2026-04-04T14:40:51Z</time></trkpt><trkpt lat="42.86187518693807" lon="12.26048746406057"><ele>442.0</ele><time>2026-04-04T14:40:52Z</time></trkpt><trkpt lat="42.86195837170619" lon="12.26039512229005"><ele>442.0</ele><time>2026-04-04T14:40:53Z</time></trkpt><trkpt lat="42.8620673655068" lon="12.260334442583348"><ele>441.75</ele><time>2026-04-04T14:40:54Z</time></trkpt><trkpt lat="42.86219446750594" lon="12.260312915276845"><ele>441.5</ele><time>2026-04-04T14:40:55Z</time></trkpt><trkpt lat="42.86234866344769" lon="12.260333402063267"><ele>441.25</ele><time>2026-04-04T14:40:56Z</time></trkpt><trkpt lat="42.8625007537423" lon="12.260402017618583"><ele>441.0</ele><time>2026-04-04T14:40:57Z</time></trkpt><trkpt lat="42.86265565268574" lon="12.260464915933575"><ele>440.33333333333337</ele><time>2026-04-04T14:40:58Z</time></trkpt><trkpt lat="42.862815862906395" lon="12.260530878810442"><ele>439.6666666666667</ele><time>2026-04-04T14:40:59Z</time></trkpt><trkpt lat="42.862972157911706" lon="12.260595229693772"><ele>439.0</ele><time>2026-04-04T14:41:00Z</time></trkpt><trkpt lat="42.86313235643225" lon="12.260659110247474"><ele>439.0</ele><time>2026-04-04T14:41:01Z</time></trkpt><trkpt lat="42.86329190217195" lon="12.260722154091415"><ele>439.0</ele><time>2026-04-04T14:41:02Z</time></trkpt><trkpt lat="42.86344993455858" lon="12.260785788273363"><ele>439.0</ele><time>2026-04-04T14:41:03Z</time></trkpt><trkpt lat="42.863607447479254" lon="12.260830324228007"><ele>439.0</ele><time>2026-04-04T14:41:04Z</time></trkpt><trkpt lat="42.86376332835157" lon="12.26089361268849"><ele>439.0</ele><time>2026-04-04T14:41:05Z</time></trkpt><trkpt lat="42.863919287933754" lon="12.260958848860104"><ele>439.0</ele><time>2026-04-04T14:41:06Z</time></trkpt><trkpt lat="42.86407299939303" lon="12.261019661068"><ele>439.0</ele><time>2026-04-04T14:41:07Z</time></trkpt><trkpt lat="42.864217602122835" lon="12.261076322583635"><ele>439.0</ele><time>2026-04-04T14:41:08Z</time></trkpt><trkpt lat="42.86435421752106" lon="12.261137840341528"><ele>439.0</ele><time>2026-04-04T14:41:09Z</time></trkpt><trkpt lat="42.86448798921777" lon="12.26120907592146"><ele>439.0</ele><time>2026-04-04T14:41:10Z</time></trkpt><trkpt lat="42.864618240945454" lon="12.261286725802464"><ele>440.5</ele><time>2026-04-04T14:41:11Z</time></trkpt><trkpt lat="42.86474631973099" lon="12.26137372071134"><ele>442.0</ele><time>2026-04-04T14:41:12Z</time></trkpt><trkpt lat="42.86486228757043" lon="12.261478548065673"><ele>443.5</ele><time>2026-04-04T14:41:13Z</time></trkpt><trkpt lat="42.86495254522054" lon="12.261596531056833"><ele>445.0</ele><time>2026-04-04T14:41:14Z</time></trkpt><trkpt lat="42.8650026630345" lon="12.26173588666503"><ele>445.0</ele><time>2026-04-04T14:41:15Z</time></trkpt><trkpt lat="42.865050015959106" lon="12.261866658865035"><ele>445.0</ele><time>2026-04-04T14:41:16Z</time></trkpt><trkpt lat="42.86510809049458" lon="12.26199735816002"><ele>445.0</ele><time>2026-04-04T14:41:17Z</time></trkpt><trkpt lat="42.86515352196332" lon="12.262139817397236"><ele>445.0</ele><time>2026-04-04T14:41:18Z</time></trkpt><trkpt lat="42.86519521368433" lon="12.262277226323917"><ele>445.0</ele><time>2026-04-04T14:41:19Z</time></trkpt><trkpt lat="42.86524158178664" lon="12.262410956241036"><ele>442.0</ele><time>2026-04-04T14:41:20Z</time></trkpt><trkpt lat="42.8653080313744" lon="12.262533210324172"><ele>439.0</ele><time>2026-04-04T14:41:21Z</time></trkpt><trkpt lat="42.86537298762166" lon="12.262659157989079"><ele>436.0</ele><time>2026-04-04T14:41:22Z</time></trkpt><trkpt lat="42.865439142137994" lon="12.262782853794464"><ele>433.0</ele><time>2026-04-04T14:41:23Z</time></trkpt><trkpt lat="42.8655090392454" lon="12.262905367609418"><ele>433.0</ele><time>2026-04-04T14:41:24Z</time></trkpt><trkpt lat="42.86558148198717" lon="12.263024169537248"><ele>432.99999999999994</ele><time>2026-04-04T14:41:25Z</time></trkpt><trkpt lat="42.86564986170888" lon="12.26313845807774"><ele>432.99999999999994</ele><time>2026-04-04T14:41:26Z</time></trkpt><trkpt lat="42.865718329057565" lon="12.26325559170486"><ele>433.0</ele><time>2026-04-04T14:41:27Z</time></trkpt><trkpt lat="42.865790979583785" lon="12.26336757903154"><ele>433.0</ele><time>2026-04-04T14:41:28Z</time></trkpt><trkpt lat="42.865863621052135" lon="12.263479990377725"><ele>431.5</ele><time>2026-04-04T14:41:29Z</time></trkpt><trkpt lat="42.86594293977018" lon="12.263591169073798"><ele>430.0</ele><time>2026-04-04T14:41:30Z</time></trkpt><trkpt lat="42.86602755206018" lon="12.263694575344884"><ele>428.5</ele><time>2026-04-04T14:41:31Z</time></trkpt><trkpt lat="42.86611991216146" lon="12.263788890447655"><ele>427.0</ele><time>2026-04-04T14:41:32Z</time></trkpt><trkpt lat="42.86621684859082" lon="12.263874274598617"><ele>427.0</ele><time>2026-04-04T14:41:33Z</time></trkpt><trkpt lat="42.86631671737886" lon="12.263946677191749"><ele>427.00000000000006</ele><time>2026-04-04T14:41:34Z</time></trkpt><trkpt lat="42.8664111083087" lon="12.264011970950607"><ele>427.00000000000006</ele><time>2026-04-04T14:41:35Z</time></trkpt><trkpt lat="42.866505566171796" lon="12.264075398729275"><ele>427.0</ele><time>2026-04-04T14:41:36Z</time></trkpt><trkpt lat="42.866602601101015" lon="12.264140797598108"><ele>427.0</ele><time>2026-04-04T14:41:37Z</time></trkpt><trkpt lat="42.86669750071302" lon="12.264207594090209"><ele>429.20000000000005</ele><time>2026-04-04T14:41:38Z</time></trkpt><trkpt lat="42.866795385250725" lon="12.264271313535367"><ele>431.40000000000003</ele><time>2026-04-04T14:41:39Z</time></trkpt><trkpt lat="42.86688677672594" lon="12.26433444575334"><ele>433.59999999999997</ele><time>2026-04-04T14:41:40Z</time></trkpt><trkpt lat="42.866981306914184" lon="12.264397315534495"><ele>435.79999999999995</ele><time>2026-04-04T14:41:41Z</time></trkpt><trkpt lat="42.86708278457072" lon="12.264463477228437"><ele>438.0</ele><time>2026-04-04T14:41:42Z</time></trkpt><trkpt lat="42.86717900577281" lon="12.264534127679047"><ele>438.0</ele><time>2026-04-04T14:41:43Z</time></trkpt><trkpt lat="42.86726428895869" lon="12.264609257247441"><ele>438.0</ele><time>2026-04-04T14:41:44Z</time></trkpt><trkpt lat="42.86733387886456" lon="12.264675868894422"><ele>438.0</ele><time>2026-04-04T14:41:45Z</time></trkpt><trkpt lat="42.86738498813788" lon="12.264750463485969"><ele>438.0</ele><time>2026-04-04T14:41:46Z</time></trkpt><trkpt lat="42.86744586328666" lon="12.264839048512082"><ele>438.0</ele><time>2026-04-04T14:41:47Z</time></trkpt><trkpt lat="42.867478521329836" lon="12.264926978603837"><ele>438.0</ele><time>2026-04-04T14:41:48Z</time></trkpt><trkpt lat="42.86751468844221" lon="12.265022952698695"><ele>439.1666666666667</ele><time>2026-04-04T14:41:49Z</time></trkpt><trkpt lat="42.867545162794315" lon="12.265134710584473"><ele>440.33333333333337</ele><time>2026-04-04T14:41:50Z</time></trkpt><trkpt lat="42.86758705516469" lon="12.26524584853825"><ele>441.5</ele><time>2026-04-04T14:41:51Z</time></trkpt><trkpt lat="42.86763299939817" lon="12.265359227138292"><ele>442.6666666666667</ele><time>2026-04-04T14:41:52Z</time></trkpt><trkpt lat="42.867665630866476" lon="12.265473855439538"><ele>443.83333333333337</ele><time>2026-04-04T14:41:53Z</time></trkpt><trkpt lat="42.86769499868415" lon="12.265583261112795"><ele>445.0</ele><time>2026-04-04T14:41:54Z</time></trkpt><trkpt lat="42.86771690000071" lon="12.265681955587224"><ele>457.0</ele><time>2026-04-04T14:41:55Z</time></trkpt><trkpt lat="42.86774113570368" lon="12.265778462564993"><ele>457.0</ele><time>2026-04-04T14:41:56Z</time></trkpt><trkpt lat="42.86776265661202" lon="12.265861429927655"><ele>457.0</ele><time>2026-04-04T14:41:57Z</time></trkpt><trkpt lat="42.867799803008005" lon="12.26600993090112"><ele>457.0</ele><time>2026-04-04T14:41:59Z</time></trkpt><trkpt lat="42.86783408704525" lon="12.266116918352528"><ele>457.0</ele><time>2026-04-04T14:42:01Z</time></trkpt><trkpt lat="42.86785276711158" lon="12.266200508335766"><ele>457.0</ele><time>2026-04-04T14:42:04Z</time></trkpt></trkseg></trk></gpx>